<?xml version='1.0' encoding='UTF-8'?><gpx version="1.1" creator="JPX - https://github.com/jenetics/jpx" xmlns="http://www.topografix.com/GPX/1/1"><trk><trkseg><trkpt lat="45.885152" lon="13.7334248"><ele>59.2</ele><time>2026-04-25T11:49:45.772Z</time></trkpt><trkpt lat="45.8851384" lon="13.7335819"><ele>59.400000000000006</ele><time>2026-04-25T11:49:47.772Z</time></trkpt><trkpt lat="45.885148" lon="13.7336931"><ele>59.6</ele><time>2026-04-25T11:49:48.772Z</time></trkpt><trkpt lat="45.8851713" lon="13.7338248"><ele>59.8</ele><time>2026-04-25T11:49:49.772Z</time></trkpt><trkpt lat="45.8852232" lon="13.733973"><ele>60.0</ele><time>2026-04-25T11:49:50.772Z</time></trkpt><trkpt lat="45.8852973" lon="13.7341144"><ele>60.0</ele><time>2026-04-25T11:49:51.772Z</time></trkpt><trkpt lat="45.8853919" lon="13.7342332"><ele>60.0</ele><time>2026-04-25T11:49:52.77Z</time></trkpt><trkpt lat="45.8854788" lon="13.7343332"><ele>60.0</ele><time>2026-04-25T11:49:53.771Z</time></trkpt><trkpt lat="45.8855586" lon="13.7344177"><ele>60.0</ele><time>2026-04-25T11:49:54.772Z</time></trkpt><trkpt lat="45.8856324" lon="13.7344891"><ele>60.0</ele><time>2026-04-25T11:49:55.771Z</time></trkpt><trkpt lat="45.8856991" lon="13.7345532"><ele>60.5</ele><time>2026-04-25T11:49:56.771Z</time></trkpt><trkpt lat="45.8857614" lon="13.7346201"><ele>61.0</ele><time>2026-04-25T11:49:57.771Z</time></trkpt><trkpt lat="45.8858206" lon="13.7346868"><ele>61.5</ele><time>2026-04-25T11:49:58.771Z</time></trkpt><trkpt lat="45.8858762" lon="13.734749"><ele>62.0</ele><time>2026-04-25T11:49:59.771Z</time></trkpt><trkpt lat="45.8859289" lon="13.7348161"><ele>62.5</ele><time>2026-04-25T11:50:00.771Z</time></trkpt><trkpt lat="45.8859757" lon="13.7348868"><ele>63.0</ele><time>2026-04-25T11:50:01.771Z</time></trkpt><trkpt lat="45.8860468" lon="13.7350251"><ele>63.4</ele><time>2026-04-25T11:50:03.771Z</time></trkpt><trkpt lat="45.8860845" lon="13.7351742"><ele>63.8</ele><time>2026-04-25T11:50:05.771Z</time></trkpt><trkpt lat="45.8861499" lon="13.7353295"><ele>64.2</ele><time>2026-04-25T11:50:07.771Z</time></trkpt><trkpt lat="45.8862012" lon="13.7354319"><ele>64.6</ele><time>2026-04-25T11:50:08.771Z</time></trkpt><trkpt lat="45.8862568" lon="13.7355507"><ele>65.0</ele><time>2026-04-25T11:50:09.771Z</time></trkpt><trkpt lat="45.8863078" lon="13.7356602"><ele>65.33333333333334</ele><time>2026-04-25T11:50:10.771Z</time></trkpt><trkpt lat="45.8863519" lon="13.7357553"><ele>65.66666666666667</ele><time>2026-04-25T11:50:11.77Z</time></trkpt><trkpt lat="45.8863931" lon="13.735839"><ele>66.0</ele><time>2026-04-25T11:50:12.771Z</time></trkpt><trkpt lat="45.8864293" lon="13.7359141"><ele>66.33333333333333</ele><time>2026-04-25T11:50:13.771Z</time></trkpt><trkpt lat="45.8865023" lon="13.7360823"><ele>66.66666666666666</ele><time>2026-04-25T11:50:15.771Z</time></trkpt><trkpt lat="45.8865434" lon="13.7361755"><ele>67.0</ele><time>2026-04-25T11:50:16.771Z</time></trkpt><trkpt lat="45.8865918" lon="13.7362804"><ele>68.2</ele><time>2026-04-25T11:50:17.771Z</time></trkpt><trkpt lat="45.8866432" lon="13.7363933"><ele>69.4</ele><time>2026-04-25T11:50:18.77Z</time></trkpt><trkpt lat="45.8866999" lon="13.7365138"><ele>70.6</ele><time>2026-04-25T11:50:19.771Z</time></trkpt><trkpt lat="45.8867579" lon="13.73664"><ele>71.8</ele><time>2026-04-25T11:50:20.771Z</time></trkpt><trkpt lat="45.8868202" lon="13.7367659"><ele>73.0</ele><time>2026-04-25T11:50:21.771Z</time></trkpt><trkpt lat="45.8868825" lon="13.7368786"><ele>73.0</ele><time>2026-04-25T11:50:22.771Z</time></trkpt><trkpt lat="45.8869465" lon="13.7369753"><ele>73.0</ele><time>2026-04-25T11:50:23.771Z</time></trkpt><trkpt lat="45.8870136" lon="13.7370561"><ele>73.0</ele><time>2026-04-25T11:50:24.77Z</time></trkpt><trkpt lat="45.8870876" lon="13.737132"><ele>73.0</ele><time>2026-04-25T11:50:25.771Z</time></trkpt><trkpt lat="45.8871697" lon="13.7372006"><ele>73.0</ele><time>2026-04-25T11:50:26.771Z</time></trkpt><trkpt lat="45.8872521" lon="13.7372699"><ele>73.0</ele><time>2026-04-25T11:50:27.771Z</time></trkpt><trkpt lat="45.8873307" lon="13.7373362"><ele>73.0</ele><time>2026-04-25T11:50:28.771Z</time></trkpt><trkpt lat="45.8874046" lon="13.7374007"><ele>73.0</ele><time>2026-04-25T11:50:29.771Z</time></trkpt><trkpt lat="45.8874765" lon="13.7374619"><ele>73.0</ele><time>2026-04-25T11:50:30.771Z</time></trkpt><trkpt lat="45.8875377" lon="13.7375147"><ele>73.0</ele><time>2026-04-25T11:50:31.771Z</time></trkpt><trkpt lat="45.8875964" lon="13.7375679"><ele>73.0</ele><time>2026-04-25T11:50:32.771Z</time></trkpt><trkpt lat="45.8876642" lon="13.7376173"><ele>72.5</ele><time>2026-04-25T11:50:33.771Z</time></trkpt><trkpt lat="45.887747" lon="13.7376842"><ele>72.0</ele><time>2026-04-25T11:50:34.771Z</time></trkpt><trkpt lat="45.8878447" lon="13.7377592"><ele>71.5</ele><time>2026-04-25T11:50:35.771Z</time></trkpt><trkpt lat="45.8879518" lon="13.7378408"><ele>71.0</ele><time>2026-04-25T11:50:36.771Z</time></trkpt><trkpt lat="45.8880614" lon="13.7379285"><ele>71.0</ele><time>2026-04-25T11:50:37.771Z</time></trkpt><trkpt lat="45.888161" lon="13.7380214"><ele>71.0</ele><time>2026-04-25T11:50:38.771Z</time></trkpt><trkpt lat="45.8882529" lon="13.7381303"><ele>71.0</ele><time>2026-04-25T11:50:39.771Z</time></trkpt><trkpt lat="45.8883317" lon="13.7382504"><ele>71.0</ele><time>2026-04-25T11:50:40.771Z</time></trkpt><trkpt lat="45.8883827" lon="13.7384077"><ele>70.5</ele><time>2026-04-25T11:50:41.771Z</time></trkpt><trkpt lat="45.8884281" lon="13.7385787"><ele>70.0</ele><time>2026-04-25T11:50:42.771Z</time></trkpt><trkpt lat="45.8884759" lon="13.7387577"><ele>69.5</ele><time>2026-04-25T11:50:43.771Z</time></trkpt><trkpt lat="45.8885221" lon="13.7389448"><ele>69.0</ele><time>2026-04-25T11:50:44.771Z</time></trkpt><trkpt lat="45.8885627" lon="13.7391295"><ele>69.0</ele><time>2026-04-25T11:50:45.771Z</time></trkpt><trkpt lat="45.8885933" lon="13.7393057"><ele>69.0</ele><time>2026-04-25T11:50:46.771Z</time></trkpt><trkpt lat="45.8886183" lon="13.7394791"><ele>69.0</ele><time>2026-04-25T11:50:47.771Z</time></trkpt><trkpt lat="45.8886273" lon="13.7396526"><ele>69.0</ele><time>2026-04-25T11:50:48.771Z</time></trkpt><trkpt lat="45.8886204" lon="13.7398329"><ele>68.0</ele><time>2026-04-25T11:50:49.771Z</time></trkpt><trkpt lat="45.8885936" lon="13.7400102"><ele>67.0</ele><time>2026-04-25T11:50:50.771Z</time></trkpt><trkpt lat="45.8885461" lon="13.7401784"><ele>66.0</ele><time>2026-04-25T11:50:51.771Z</time></trkpt><trkpt lat="45.888479" lon="13.7403382"><ele>65.0</ele><time>2026-04-25T11:50:52.771Z</time></trkpt><trkpt lat="45.8883923" lon="13.7404872"><ele>65.0</ele><time>2026-04-25T11:50:53.771Z</time></trkpt><trkpt lat="45.8883005" lon="13.7406365"><ele>65.0</ele><time>2026-04-25T11:50:54.771Z</time></trkpt><trkpt lat="45.888216" lon="13.740794"><ele>65.0</ele><time>2026-04-25T11:50:55.771Z</time></trkpt><trkpt lat="45.8881518" lon="13.7409757"><ele>65.0</ele><time>2026-04-25T11:50:56.771Z</time></trkpt><trkpt lat="45.8881083" lon="13.7411866"><ele>62.333333333333336</ele><time>2026-04-25T11:50:57.771Z</time></trkpt><trkpt lat="45.8880908" lon="13.7414113"><ele>59.66666666666667</ele><time>2026-04-25T11:50:58.77Z</time></trkpt><trkpt lat="45.8880891" lon="13.7416477"><ele>57.0</ele><time>2026-04-25T11:50:59.771Z</time></trkpt><trkpt lat="45.8880976" lon="13.7418874"><ele>57.0</ele><time>2026-04-25T11:51:00.771Z</time></trkpt><trkpt lat="45.8881093" lon="13.7421333"><ele>57.0</ele><time>2026-04-25T11:51:01.771Z</time></trkpt><trkpt lat="45.8881238" lon="13.7423728"><ele>57.0</ele><time>2026-04-25T11:51:02.77Z</time></trkpt><trkpt lat="45.8881457" lon="13.7426169"><ele>57.66666666666667</ele><time>2026-04-25T11:51:03.771Z</time></trkpt><trkpt lat="45.8881699" lon="13.7428518"><ele>58.333333333333336</ele><time>2026-04-25T11:51:04.771Z</time></trkpt><trkpt lat="45.8881926" lon="13.7430813"><ele>59.0</ele><time>2026-04-25T11:51:05.772Z</time></trkpt><trkpt lat="45.8882136" lon="13.7433116"><ele>59.0</ele><time>2026-04-25T11:51:06.771Z</time></trkpt><trkpt lat="45.8882264" lon="13.7435375"><ele>59.0</ele><time>2026-04-25T11:51:07.771Z</time></trkpt><trkpt lat="45.8882328" lon="13.743763"><ele>59.0</ele><time>2026-04-25T11:51:08.771Z</time></trkpt><trkpt lat="45.8882247" lon="13.7439904"><ele>59.0</ele><time>2026-04-25T11:51:09.771Z</time></trkpt><trkpt lat="45.8882097" lon="13.7442205"><ele>59.0</ele><time>2026-04-25T11:51:10.77Z</time></trkpt><trkpt lat="45.8881841" lon="13.7444486"><ele>59.0</ele><time>2026-04-25T11:51:11.771Z</time></trkpt><trkpt lat="45.888151" lon="13.7446729"><ele>60.0</ele><time>2026-04-25T11:51:12.771Z</time></trkpt><trkpt lat="45.8881115" lon="13.744893"><ele>61.0</ele><time>2026-04-25T11:51:13.771Z</time></trkpt><trkpt lat="45.8880686" lon="13.7451144"><ele>62.0</ele><time>2026-04-25T11:51:14.771Z</time></trkpt><trkpt lat="45.8880236" lon="13.7453309"><ele>63.333333333333336</ele><time>2026-04-25T11:51:15.771Z</time></trkpt><trkpt lat="45.8879831" lon="13.7455469"><ele>64.66666666666667</ele><time>2026-04-25T11:51:16.771Z</time></trkpt><trkpt lat="45.8879449" lon="13.7457618"><ele>66.0</ele><time>2026-04-25T11:51:17.771Z</time></trkpt><trkpt lat="45.8879068" lon="13.7459724"><ele>67.33333333333333</ele><time>2026-04-25T11:51:18.771Z</time></trkpt><trkpt lat="45.8878729" lon="13.7461862"><ele>68.66666666666666</ele><time>2026-04-25T11:51:19.771Z</time></trkpt><trkpt lat="45.8878411" lon="13.7464002"><ele>70.0</ele><time>2026-04-25T11:51:20.771Z</time></trkpt><trkpt lat="45.8878122" lon="13.7466191"><ele>70.0</ele><time>2026-04-25T11:51:21.771Z</time></trkpt><trkpt lat="45.8877877" lon="13.7468356"><ele>70.0</ele><time>2026-04-25T11:51:22.771Z</time></trkpt><trkpt lat="45.8877714" lon="13.7470534"><ele>70.0</ele><time>2026-04-25T11:51:23.771Z</time></trkpt><trkpt lat="45.8877537" lon="13.7472682"><ele>71.25</ele><time>2026-04-25T11:51:24.77Z</time></trkpt><trkpt lat="45.8877383" lon="13.7474809"><ele>72.5</ele><time>2026-04-25T11:51:25.771Z</time></trkpt><trkpt lat="45.887723" lon="13.7476877"><ele>73.75</ele><time>2026-04-25T11:51:26.771Z</time></trkpt><trkpt lat="45.8877035" lon="13.747885"><ele>75.0</ele><time>2026-04-25T11:51:27.77Z</time></trkpt><trkpt lat="45.8876802" lon="13.7480759"><ele>77.5</ele><time>2026-04-25T11:51:28.771Z</time></trkpt><trkpt lat="45.8876438" lon="13.7482569"><ele>80.0</ele><time>2026-04-25T11:51:29.771Z</time></trkpt><trkpt lat="45.8875965" lon="13.7484311"><ele>82.5</ele><time>2026-04-25T11:51:30.771Z</time></trkpt><trkpt lat="45.887547" lon="13.7485994"><ele>85.0</ele><time>2026-04-25T11:51:31.772Z</time></trkpt><trkpt lat="45.887498" lon="13.7487636"><ele>86.5</ele><time>2026-04-25T11:51:32.771Z</time></trkpt><trkpt lat="45.8874546" lon="13.7489369"><ele>88.0</ele><time>2026-04-25T11:51:33.771Z</time></trkpt><trkpt lat="45.8874274" lon="13.7491162"><ele>89.5</ele><time>2026-04-25T11:51:34.771Z</time></trkpt><trkpt lat="45.8874225" lon="13.7492987"><ele>91.0</ele><time>2026-04-25T11:51:35.771Z</time></trkpt><trkpt lat="45.8874351" lon="13.7494808"><ele>92.0</ele><time>2026-04-25T11:51:36.771Z</time></trkpt><trkpt lat="45.8874565" lon="13.7496628"><ele>93.0</ele><time>2026-04-25T11:51:37.771Z</time></trkpt><trkpt lat="45.887484" lon="13.749843"><ele>94.0</ele><time>2026-04-25T11:51:38.77Z</time></trkpt><trkpt lat="45.8875101" lon="13.7500085"><ele>95.0</ele><time>2026-04-25T11:51:39.771Z</time></trkpt><trkpt lat="45.8875335" lon="13.7501602"><ele>95.33333333333334</ele><time>2026-04-25T11:51:40.771Z</time></trkpt><trkpt lat="45.8875585" lon="13.7502982"><ele>95.66666666666667</ele><time>2026-04-25T11:51:41.771Z</time></trkpt><trkpt lat="45.8875731" lon="13.7504245"><ele>96.0</ele><time>2026-04-25T11:51:42.771Z</time></trkpt><trkpt lat="45.8875766" lon="13.7505202"><ele>96.33333333333334</ele><time>2026-04-25T11:51:43.771Z</time></trkpt><trkpt lat="45.887541" lon="13.7506102"><ele>96.66666666666667</ele><time>2026-04-25T11:51:45.771Z</time></trkpt><trkpt lat="45.8876037" lon="13.7505391"><ele>97.0</ele><time>2026-04-25T11:51:55.771Z</time></trkpt><trkpt lat="45.887595" lon="13.7504491"><ele>97.00000000000001</ele><time>2026-04-25T11:51:56.771Z</time></trkpt><trkpt lat="45.8875855" lon="13.7503387"><ele>97.0</ele><time>2026-04-25T11:51:57.771Z</time></trkpt><trkpt lat="45.8875643" lon="13.7502109"><ele>97.0</ele><time>2026-04-25T11:51:58.771Z</time></trkpt><trkpt lat="45.8875479" lon="13.7500899"><ele>97.0</ele><time>2026-04-25T11:51:59.771Z</time></trkpt><trkpt lat="45.8875271" lon="13.7499554"><ele>97.00000000000001</ele><time>2026-04-25T11:52:00.771Z</time></trkpt><trkpt lat="45.8875026" lon="13.7498216"><ele>97.0</ele><time>2026-04-25T11:52:01.771Z</time></trkpt><trkpt lat="45.8874793" lon="13.749687"><ele>96.6</ele><time>2026-04-25T11:52:02.771Z</time></trkpt><trkpt lat="45.8874595" lon="13.749542"><ele>96.19999999999999</ele><time>2026-04-25T11:52:03.771Z</time></trkpt><trkpt lat="45.8874486" lon="13.7494011"><ele>95.8</ele><time>2026-04-25T11:52:04.771Z</time></trkpt><trkpt lat="45.8874482" lon="13.7492591"><ele>95.4</ele><time>2026-04-25T11:52:05.771Z</time></trkpt><trkpt lat="45.8874603" lon="13.7491227"><ele>95.0</ele><time>2026-04-25T11:52:06.771Z</time></trkpt><trkpt lat="45.8874888" lon="13.7489937"><ele>95.2</ele><time>2026-04-25T11:52:07.771Z</time></trkpt><trkpt lat="45.8875199" lon="13.7488561"><ele>95.4</ele><time>2026-04-25T11:52:08.771Z</time></trkpt><trkpt lat="45.8875586" lon="13.7487111"><ele>95.6</ele><time>2026-04-25T11:52:09.771Z</time></trkpt><trkpt lat="45.887603" lon="13.7485559"><ele>95.8</ele><time>2026-04-25T11:52:10.771Z</time></trkpt><trkpt lat="45.8876461" lon="13.7484001"><ele>96.0</ele><time>2026-04-25T11:52:11.771Z</time></trkpt><trkpt lat="45.8876845" lon="13.7482451"><ele>93.8</ele><time>2026-04-25T11:52:12.771Z</time></trkpt><trkpt lat="45.8877109" lon="13.7480916"><ele>91.6</ele><time>2026-04-25T11:52:13.77Z</time></trkpt><trkpt lat="45.8877289" lon="13.7479342"><ele>89.4</ele><time>2026-04-25T11:52:14.771Z</time></trkpt><trkpt lat="45.8877387" lon="13.7477793"><ele>87.2</ele><time>2026-04-25T11:52:15.771Z</time></trkpt><trkpt lat="45.8877513" lon="13.7476233"><ele>85.0</ele><time>2026-04-25T11:52:16.771Z</time></trkpt><trkpt lat="45.8877644" lon="13.7474678"><ele>83.0</ele><time>2026-04-25T11:52:17.771Z</time></trkpt><trkpt lat="45.887774" lon="13.747315"><ele>81.0</ele><time>2026-04-25T11:52:18.771Z</time></trkpt><trkpt lat="45.8877853" lon="13.7471705"><ele>79.0</ele><time>2026-04-25T11:52:19.771Z</time></trkpt><trkpt lat="45.8877963" lon="13.7470266"><ele>77.0</ele><time>2026-04-25T11:52:20.771Z</time></trkpt><trkpt lat="45.8878115" lon="13.7468849"><ele>75.0</ele><time>2026-04-25T11:52:21.77Z</time></trkpt><trkpt lat="45.88783" lon="13.7467412"><ele>74.0</ele><time>2026-04-25T11:52:22.771Z</time></trkpt><trkpt lat="45.8878511" lon="13.7466024"><ele>73.0</ele><time>2026-04-25T11:52:23.771Z</time></trkpt><trkpt lat="45.8878717" lon="13.7464674"><ele>72.0</ele><time>2026-04-25T11:52:24.771Z</time></trkpt><trkpt lat="45.8878936" lon="13.7463349"><ele>71.0</ele><time>2026-04-25T11:52:25.771Z</time></trkpt><trkpt lat="45.8879146" lon="13.746203"><ele>70.0</ele><time>2026-04-25T11:52:26.771Z</time></trkpt><trkpt lat="45.8879341" lon="13.7460742"><ele>69.33333333333333</ele><time>2026-04-25T11:52:27.771Z</time></trkpt><trkpt lat="45.8879535" lon="13.745946"><ele>68.66666666666666</ele><time>2026-04-25T11:52:28.77Z</time></trkpt><trkpt lat="45.8879739" lon="13.7458215"><ele>68.0</ele><time>2026-04-25T11:52:29.772Z</time></trkpt><trkpt lat="45.887995" lon="13.7456952"><ele>67.33333333333333</ele><time>2026-04-25T11:52:30.771Z</time></trkpt><trkpt lat="45.8880147" lon="13.7455732"><ele>66.66666666666667</ele><time>2026-04-25T11:52:31.771Z</time></trkpt><trkpt lat="45.8880367" lon="13.7454573"><ele>66.0</ele><time>2026-04-25T11:52:32.771Z</time></trkpt><trkpt lat="45.8880586" lon="13.7453467"><ele>66.0</ele><time>2026-04-25T11:52:33.772Z</time></trkpt><trkpt lat="45.8880791" lon="13.745238"><ele>66.0</ele><time>2026-04-25T11:52:34.771Z</time></trkpt><trkpt lat="45.8880959" lon="13.7451359"><ele>66.0</ele><time>2026-04-25T11:52:35.771Z</time></trkpt><trkpt lat="45.8881155" lon="13.7450352"><ele>66.0</ele><time>2026-04-25T11:52:36.771Z</time></trkpt><trkpt lat="45.8881366" lon="13.7449408"><ele>66.0</ele><time>2026-04-25T11:52:37.771Z</time></trkpt><trkpt lat="45.8881546" lon="13.7448427"><ele>66.0</ele><time>2026-04-25T11:52:38.771Z</time></trkpt><trkpt lat="45.8881727" lon="13.7447487"><ele>66.0</ele><time>2026-04-25T11:52:39.771Z</time></trkpt><trkpt lat="45.8881874" lon="13.7446528"><ele>65.2</ele><time>2026-04-25T11:52:40.771Z</time></trkpt><trkpt lat="45.8881964" lon="13.7445567"><ele>64.39999999999999</ele><time>2026-04-25T11:52:41.771Z</time></trkpt><trkpt lat="45.8882164" lon="13.7444122"><ele>63.6</ele><time>2026-04-25T11:52:43.771Z</time></trkpt><trkpt lat="45.8882359" lon="13.7442778"><ele>62.8</ele><time>2026-04-25T11:52:45.771Z</time></trkpt><trkpt lat="45.8882547" lon="13.7441224"><ele>62.0</ele><time>2026-04-25T11:52:47.771Z</time></trkpt><trkpt lat="45.8882658" lon="13.7439702"><ele>61.50000000000001</ele><time>2026-04-25T11:52:49.77Z</time></trkpt><trkpt lat="45.8882769" lon="13.7438114"><ele>61.0</ele><time>2026-04-25T11:52:51.77Z</time></trkpt><trkpt lat="45.8882776" lon="13.7437152"><ele>60.5</ele><time>2026-04-25T11:52:52.77Z</time></trkpt><trkpt lat="45.8882711" lon="13.7436139"><ele>60.0</ele><time>2026-04-25T11:52:53.771Z</time></trkpt><trkpt lat="45.8882577" lon="13.7435005"><ele>59.50000000000001</ele><time>2026-04-25T11:52:54.77Z</time></trkpt><trkpt lat="45.8882448" lon="13.7433794"><ele>59.0</ele><time>2026-04-25T11:52:55.77Z</time></trkpt><trkpt lat="45.8882355" lon="13.7432552"><ele>59.0</ele><time>2026-04-25T11:52:56.77Z</time></trkpt><trkpt lat="45.8882266" lon="13.7431161"><ele>59.00000000000001</ele><time>2026-04-25T11:52:57.77Z</time></trkpt><trkpt lat="45.8882132" lon="13.7429793"><ele>59.00000000000001</ele><time>2026-04-25T11:52:58.771Z</time></trkpt><trkpt lat="45.8882021" lon="13.7428326"><ele>59.0</ele><time>2026-04-25T11:52:59.77Z</time></trkpt><trkpt lat="45.8881876" lon="13.7426816"><ele>59.0</ele><time>2026-04-25T11:53:00.77Z</time></trkpt><trkpt lat="45.8881784" lon="13.7425378"><ele>58.6</ele><time>2026-04-25T11:53:01.77Z</time></trkpt><trkpt lat="45.8881667" lon="13.7423945"><ele>58.2</ele><time>2026-04-25T11:53:02.769Z</time></trkpt><trkpt lat="45.8881542" lon="13.7422498"><ele>57.800000000000004</ele><time>2026-04-25T11:53:03.769Z</time></trkpt><trkpt lat="45.8881442" lon="13.742107"><ele>57.400000000000006</ele><time>2026-04-25T11:53:04.77Z</time></trkpt><trkpt lat="45.8881329" lon="13.7419693"><ele>57.0</ele><time>2026-04-25T11:53:05.77Z</time></trkpt><trkpt lat="45.8881248" lon="13.7418334"><ele>57.0</ele><time>2026-04-25T11:53:06.77Z</time></trkpt><trkpt lat="45.8881208" lon="13.7417033"><ele>57.0</ele><time>2026-04-25T11:53:07.77Z</time></trkpt><trkpt lat="45.8881126" lon="13.7415743"><ele>57.0</ele><time>2026-04-25T11:53:08.77Z</time></trkpt><trkpt lat="45.8881112" lon="13.7414614"><ele>57.0</ele><time>2026-04-25T11:53:09.77Z</time></trkpt><trkpt lat="45.8881156" lon="13.741358"><ele>57.0</ele><time>2026-04-25T11:53:10.77Z</time></trkpt><trkpt lat="45.8881191" lon="13.7412586"><ele>57.0</ele><time>2026-04-25T11:53:11.769Z</time></trkpt><trkpt lat="45.8881284" lon="13.7411618"><ele>57.0</ele><time>2026-04-25T11:53:12.77Z</time></trkpt><trkpt lat="45.8881512" lon="13.7410749"><ele>57.0</ele><time>2026-04-25T11:53:13.769Z</time></trkpt><trkpt lat="45.888217" lon="13.7409334"><ele>57.0</ele><time>2026-04-25T11:53:15.769Z</time></trkpt><trkpt lat="45.8882745" lon="13.7408696"><ele>57.0</ele><time>2026-04-25T11:53:17.769Z</time></trkpt><trkpt lat="45.888175" lon="13.7408726"><ele>57.0</ele><time>2026-04-25T11:53:45.769Z</time></trkpt><trkpt lat="45.8881148" lon="13.7410561"><ele>57.0</ele><time>2026-04-25T11:53:47.77Z</time></trkpt><trkpt lat="45.8880883" lon="13.7411997"><ele>57.0</ele><time>2026-04-25T11:53:48.77Z</time></trkpt><trkpt lat="45.8880769" lon="13.7413867"><ele>57.0</ele><time>2026-04-25T11:53:49.769Z</time></trkpt><trkpt lat="45.8880837" lon="13.741612"><ele>57.0</ele><time>2026-04-25T11:53:50.769Z</time></trkpt><trkpt lat="45.8880937" lon="13.7418575"><ele>57.0</ele><time>2026-04-25T11:53:51.769Z</time></trkpt><trkpt lat="45.8881085" lon="13.7421036"><ele>57.0</ele><time>2026-04-25T11:53:52.769Z</time></trkpt><trkpt lat="45.8881266" lon="13.7423612"><ele>57.0</ele><time>2026-04-25T11:53:53.769Z</time></trkpt><trkpt lat="45.8881449" lon="13.7426152"><ele>57.66666666666667</ele><time>2026-04-25T11:53:54.77Z</time></trkpt><trkpt lat="45.8881667" lon="13.7428573"><ele>58.333333333333336</ele><time>2026-04-25T11:53:55.769Z</time></trkpt><trkpt lat="45.8881886" lon="13.7430924"><ele>59.0</ele><time>2026-04-25T11:53:56.769Z</time></trkpt><trkpt lat="45.8882065" lon="13.743318"><ele>59.0</ele><time>2026-04-25T11:53:57.769Z</time></trkpt><trkpt lat="45.8882217" lon="13.7435332"><ele>59.0</ele><time>2026-04-25T11:53:58.77Z</time></trkpt><trkpt lat="45.8882329" lon="13.7437379"><ele>59.0</ele><time>2026-04-25T11:53:59.77Z</time></trkpt><trkpt lat="45.8882313" lon="13.7439422"><ele>59.0</ele><time>2026-04-25T11:54:00.77Z</time></trkpt><trkpt lat="45.8882164" lon="13.7441519"><ele>59.0</ele><time>2026-04-25T11:54:01.77Z</time></trkpt><trkpt lat="45.888196" lon="13.7443651"><ele>59.0</ele><time>2026-04-25T11:54:02.77Z</time></trkpt><trkpt lat="45.8881689" lon="13.7445873"><ele>59.0</ele><time>2026-04-25T11:54:03.77Z</time></trkpt><trkpt lat="45.8881305" lon="13.7448102"><ele>60.0</ele><time>2026-04-25T11:54:04.77Z</time></trkpt><trkpt lat="45.888085" lon="13.7450366"><ele>61.0</ele><time>2026-04-25T11:54:05.77Z</time></trkpt><trkpt lat="45.8880378" lon="13.7452656"><ele>62.0</ele><time>2026-04-25T11:54:06.77Z</time></trkpt><trkpt lat="45.8879921" lon="13.7455061"><ele>63.333333333333336</ele><time>2026-04-25T11:54:07.77Z</time></trkpt><trkpt lat="45.8879501" lon="13.7457534"><ele>64.66666666666667</ele><time>2026-04-25T11:54:08.77Z</time></trkpt><trkpt lat="45.8879107" lon="13.7460035"><ele>66.0</ele><time>2026-04-25T11:54:09.77Z</time></trkpt><trkpt lat="45.8878752" lon="13.7462563"><ele>67.33333333333333</ele><time>2026-04-25T11:54:10.77Z</time></trkpt><trkpt lat="45.8878359" lon="13.7465079"><ele>68.66666666666666</ele><time>2026-04-25T11:54:11.769Z</time></trkpt><trkpt lat="45.8878017" lon="13.746765"><ele>70.0</ele><time>2026-04-25T11:54:12.77Z</time></trkpt><trkpt lat="45.8877748" lon="13.7470208"><ele>71.66666666666666</ele><time>2026-04-25T11:54:13.77Z</time></trkpt><trkpt lat="45.8877522" lon="13.7472786"><ele>73.33333333333333</ele><time>2026-04-25T11:54:14.77Z</time></trkpt><trkpt lat="45.8877312" lon="13.7475372"><ele>75.0</ele><time>2026-04-25T11:54:15.77Z</time></trkpt><trkpt lat="45.8877139" lon="13.7477907"><ele>78.0</ele><time>2026-04-25T11:54:16.77Z</time></trkpt><trkpt lat="45.8876873" lon="13.7480334"><ele>81.0</ele><time>2026-04-25T11:54:17.77Z</time></trkpt><trkpt lat="45.8876418" lon="13.7482692"><ele>84.0</ele><time>2026-04-25T11:54:18.77Z</time></trkpt><trkpt lat="45.8875808" lon="13.7484964"><ele>86.33333333333333</ele><time>2026-04-25T11:54:19.77Z</time></trkpt><trkpt lat="45.887512" lon="13.7487166"><ele>88.66666666666666</ele><time>2026-04-25T11:54:20.77Z</time></trkpt><trkpt lat="45.8874563" lon="13.7489469"><ele>91.0</ele><time>2026-04-25T11:54:21.77Z</time></trkpt><trkpt lat="45.8874219" lon="13.7491844"><ele>92.33333333333333</ele><time>2026-04-25T11:54:22.77Z</time></trkpt><trkpt lat="45.8874234" lon="13.7494193"><ele>93.66666666666667</ele><time>2026-04-25T11:54:23.77Z</time></trkpt><trkpt lat="45.8874498" lon="13.7496532"><ele>95.0</ele><time>2026-04-25T11:54:24.77Z</time></trkpt><trkpt lat="45.8874887" lon="13.7498754"><ele>95.0</ele><time>2026-04-25T11:54:25.77Z</time></trkpt><trkpt lat="45.887522" lon="13.7500819"><ele>95.0</ele><time>2026-04-25T11:54:26.769Z</time></trkpt><trkpt lat="45.8875551" lon="13.7502929"><ele>95.0</ele><time>2026-04-25T11:54:27.77Z</time></trkpt><trkpt lat="45.8875771" lon="13.750507"><ele>95.0</ele><time>2026-04-25T11:54:28.77Z</time></trkpt><trkpt lat="45.8875843" lon="13.7507157"><ele>94.75</ele><time>2026-04-25T11:54:29.77Z</time></trkpt><trkpt lat="45.8875761" lon="13.75093"><ele>94.5</ele><time>2026-04-25T11:54:30.77Z</time></trkpt><trkpt lat="45.887561" lon="13.7511403"><ele>94.25</ele><time>2026-04-25T11:54:31.77Z</time></trkpt><trkpt lat="45.8875439" lon="13.7513547"><ele>94.0</ele><time>2026-04-25T11:54:32.77Z</time></trkpt><trkpt lat="45.8875237" lon="13.7515679"><ele>94.0</ele><time>2026-04-25T11:54:33.77Z</time></trkpt><trkpt lat="45.8875027" lon="13.7517801"><ele>94.0</ele><time>2026-04-25T11:54:34.77Z</time></trkpt><trkpt lat="45.8874704" lon="13.7519843"><ele>94.0</ele><time>2026-04-25T11:54:35.77Z</time></trkpt><trkpt lat="45.8874311" lon="13.7521821"><ele>94.0</ele><time>2026-04-25T11:54:36.77Z</time></trkpt><trkpt lat="45.8873882" lon="13.7523702"><ele>94.25</ele><time>2026-04-25T11:54:37.77Z</time></trkpt><trkpt lat="45.8873432" lon="13.752559"><ele>94.5</ele><time>2026-04-25T11:54:38.77Z</time></trkpt><trkpt lat="45.8873059" lon="13.7527522"><ele>94.75</ele><time>2026-04-25T11:54:39.77Z</time></trkpt><trkpt lat="45.8872863" lon="13.7529551"><ele>95.0</ele><time>2026-04-25T11:54:40.77Z</time></trkpt><trkpt lat="45.8872825" lon="13.7531647"><ele>93.75</ele><time>2026-04-25T11:54:41.77Z</time></trkpt><trkpt lat="45.8873094" lon="13.7533678"><ele>92.5</ele><time>2026-04-25T11:54:42.769Z</time></trkpt><trkpt lat="45.8873598" lon="13.7535601"><ele>91.25</ele><time>2026-04-25T11:54:43.77Z</time></trkpt><trkpt lat="45.8874313" lon="13.7537315"><ele>90.0</ele><time>2026-04-25T11:54:44.77Z</time></trkpt><trkpt lat="45.8875207" lon="13.7538732"><ele>89.25</ele><time>2026-04-25T11:54:45.77Z</time></trkpt><trkpt lat="45.8876227" lon="13.7539837"><ele>88.5</ele><time>2026-04-25T11:54:46.77Z</time></trkpt><trkpt lat="45.8877321" lon="13.754049"><ele>87.75</ele><time>2026-04-25T11:54:47.77Z</time></trkpt><trkpt lat="45.8878454" lon="13.7540796"><ele>87.0</ele><time>2026-04-25T11:54:48.77Z</time></trkpt><trkpt lat="45.8879499" lon="13.7540947"><ele>87.0</ele><time>2026-04-25T11:54:49.77Z</time></trkpt><trkpt lat="45.8880398" lon="13.7541253"><ele>87.0</ele><time>2026-04-25T11:54:50.771Z</time></trkpt><trkpt lat="45.8881266" lon="13.7541691"><ele>87.0</ele><time>2026-04-25T11:54:51.77Z</time></trkpt><trkpt lat="45.8881775" lon="13.7542543"><ele>87.0</ele><time>2026-04-25T11:54:52.77Z</time></trkpt><trkpt lat="45.8881826" lon="13.7543982"><ele>87.0</ele><time>2026-04-25T11:54:53.77Z</time></trkpt><trkpt lat="45.8881835" lon="13.754524"><ele>85.0</ele><time>2026-04-25T11:54:54.771Z</time></trkpt><trkpt lat="45.8881604" lon="13.7546699"><ele>83.0</ele><time>2026-04-25T11:54:55.77Z</time></trkpt><trkpt lat="45.8880646" lon="13.7548637"><ele>81.0</ele><time>2026-04-25T11:54:56.771Z</time></trkpt><trkpt lat="45.8880604" lon="13.755051"><ele>79.0</ele><time>2026-04-25T11:54:57.77Z</time></trkpt><trkpt lat="45.8880804" lon="13.7552486"><ele>77.5</ele><time>2026-04-25T11:54:58.77Z</time></trkpt><trkpt lat="45.8881461" lon="13.7554345"><ele>76.0</ele><time>2026-04-25T11:54:59.77Z</time></trkpt><trkpt lat="45.8882337" lon="13.755581"><ele>74.5</ele><time>2026-04-25T11:55:00.77Z</time></trkpt><trkpt lat="45.8883406" lon="13.7557018"><ele>73.0</ele><time>2026-04-25T11:55:01.77Z</time></trkpt><trkpt lat="45.8884525" lon="13.7557743"><ele>73.0</ele><time>2026-04-25T11:55:02.77Z</time></trkpt><trkpt lat="45.8885557" lon="13.7558272"><ele>73.0</ele><time>2026-04-25T11:55:03.77Z</time></trkpt><trkpt lat="45.8886353" lon="13.7559025"><ele>73.0</ele><time>2026-04-25T11:55:04.769Z</time></trkpt><trkpt lat="45.8886815" lon="13.7560201"><ele>73.0</ele><time>2026-04-25T11:55:05.77Z</time></trkpt><trkpt lat="45.8886967" lon="13.756172"><ele>73.0</ele><time>2026-04-25T11:55:06.77Z</time></trkpt><trkpt lat="45.8886778" lon="13.7563591"><ele>74.0</ele><time>2026-04-25T11:55:07.77Z</time></trkpt><trkpt lat="45.8886399" lon="13.7565783"><ele>75.0</ele><time>2026-04-25T11:55:08.769Z</time></trkpt><trkpt lat="45.8886109" lon="13.7568187"><ele>76.0</ele><time>2026-04-25T11:55:09.77Z</time></trkpt><trkpt lat="45.8886024" lon="13.7570421"><ele>77.5</ele><time>2026-04-25T11:55:10.77Z</time></trkpt><trkpt lat="45.8886168" lon="13.7572378"><ele>79.0</ele><time>2026-04-25T11:55:11.77Z</time></trkpt><trkpt lat="45.8886665" lon="13.7574179"><ele>80.5</ele><time>2026-04-25T11:55:12.769Z</time></trkpt><trkpt lat="45.8887451" lon="13.7575861"><ele>82.0</ele><time>2026-04-25T11:55:13.77Z</time></trkpt><trkpt lat="45.8888186" lon="13.7577656"><ele>82.0</ele><time>2026-04-25T11:55:14.77Z</time></trkpt><trkpt lat="45.8888665" lon="13.7579966"><ele>82.0</ele><time>2026-04-25T11:55:15.77Z</time></trkpt><trkpt lat="45.8888963" lon="13.7582712"><ele>82.0</ele><time>2026-04-25T11:55:16.769Z</time></trkpt><trkpt lat="45.8889185" lon="13.7585732"><ele>78.5</ele><time>2026-04-25T11:55:17.769Z</time></trkpt><trkpt lat="45.8889397" lon="13.758896"><ele>75.0</ele><time>2026-04-25T11:55:18.77Z</time></trkpt><trkpt lat="45.8889557" lon="13.7592365"><ele>72.5</ele><time>2026-04-25T11:55:19.77Z</time></trkpt><trkpt lat="45.8889685" lon="13.7595848"><ele>70.0</ele><time>2026-04-25T11:55:20.77Z</time></trkpt><trkpt lat="45.8889793" lon="13.7599451"><ele>68.5</ele><time>2026-04-25T11:55:21.769Z</time></trkpt><trkpt lat="45.8889914" lon="13.7603088"><ele>67.0</ele><time>2026-04-25T11:55:22.77Z</time></trkpt><trkpt lat="45.8889983" lon="13.7606737"><ele>67.5</ele><time>2026-04-25T11:55:23.77Z</time></trkpt><trkpt lat="45.8890009" lon="13.7610335"><ele>68.0</ele><time>2026-04-25T11:55:24.77Z</time></trkpt><trkpt lat="45.8889964" lon="13.7613939"><ele>68.0</ele><time>2026-04-25T11:55:25.769Z</time></trkpt><trkpt lat="45.8889813" lon="13.7617493"><ele>68.0</ele><time>2026-04-25T11:55:26.77Z</time></trkpt><trkpt lat="45.8889628" lon="13.7621016"><ele>70.0</ele><time>2026-04-25T11:55:27.77Z</time></trkpt><trkpt lat="45.8889473" lon="13.7624509"><ele>72.0</ele><time>2026-04-25T11:55:28.77Z</time></trkpt><trkpt lat="45.8889456" lon="13.7627982"><ele>72.0</ele><time>2026-04-25T11:55:29.769Z</time></trkpt><trkpt lat="45.8889575" lon="13.7631424"><ele>72.0</ele><time>2026-04-25T11:55:30.77Z</time></trkpt><trkpt lat="45.8889908" lon="13.7634798"><ele>69.5</ele><time>2026-04-25T11:55:31.77Z</time></trkpt><trkpt lat="45.8890419" lon="13.763812"><ele>67.0</ele><time>2026-04-25T11:55:32.77Z</time></trkpt><trkpt lat="45.8891025" lon="13.7641434"><ele>67.5</ele><time>2026-04-25T11:55:33.77Z</time></trkpt><trkpt lat="45.8891668" lon="13.7644718"><ele>68.0</ele><time>2026-04-25T11:55:34.77Z</time></trkpt><trkpt lat="45.8892344" lon="13.7647972"><ele>71.5</ele><time>2026-04-25T11:55:35.771Z</time></trkpt><trkpt lat="45.8893024" lon="13.765121"><ele>75.0</ele><time>2026-04-25T11:55:36.769Z</time></trkpt><trkpt lat="45.8893705" lon="13.7654392"><ele>75.0</ele><time>2026-04-25T11:55:37.77Z</time></trkpt><trkpt lat="45.8894405" lon="13.765754"><ele>75.0</ele><time>2026-04-25T11:55:38.77Z</time></trkpt><trkpt lat="45.8895095" lon="13.7660651"><ele>75.33333333333333</ele><time>2026-04-25T11:55:39.77Z</time></trkpt><trkpt lat="45.8895813" lon="13.7663707"><ele>75.66666666666666</ele><time>2026-04-25T11:55:40.769Z</time></trkpt><trkpt lat="45.8896586" lon="13.7666736"><ele>76.0</ele><time>2026-04-25T11:55:41.77Z</time></trkpt><trkpt lat="45.8897382" lon="13.7669729"><ele>76.0</ele><time>2026-04-25T11:55:42.77Z</time></trkpt><trkpt lat="45.8898127" lon="13.7672557"><ele>76.0</ele><time>2026-04-25T11:55:43.769Z</time></trkpt><trkpt lat="45.8898866" lon="13.7675286"><ele>76.0</ele><time>2026-04-25T11:55:44.77Z</time></trkpt><trkpt lat="45.889972" lon="13.7677878"><ele>74.66666666666666</ele><time>2026-04-25T11:55:45.77Z</time></trkpt><trkpt lat="45.890073" lon="13.7680338"><ele>73.33333333333333</ele><time>2026-04-25T11:55:46.77Z</time></trkpt><trkpt lat="45.8901839" lon="13.7682617"><ele>72.0</ele><time>2026-04-25T11:55:47.77Z</time></trkpt><trkpt lat="45.8902981" lon="13.7684664"><ele>73.66666666666667</ele><time>2026-04-25T11:55:48.769Z</time></trkpt><trkpt lat="45.8904145" lon="13.7686478"><ele>75.33333333333334</ele><time>2026-04-25T11:55:49.77Z</time></trkpt><trkpt lat="45.8905344" lon="13.7687984"><ele>77.0</ele><time>2026-04-25T11:55:50.77Z</time></trkpt><trkpt lat="45.890661" lon="13.7689213"><ele>77.0</ele><time>2026-04-25T11:55:51.77Z</time></trkpt><trkpt lat="45.8907821" lon="13.769029"><ele>77.0</ele><time>2026-04-25T11:55:52.769Z</time></trkpt><trkpt lat="45.8908878" lon="13.7691335"><ele>77.0</ele><time>2026-04-25T11:55:53.77Z</time></trkpt><trkpt lat="45.8909778" lon="13.7692545"><ele>77.0</ele><time>2026-04-25T11:55:54.77Z</time></trkpt><trkpt lat="45.891049" lon="13.7693963"><ele>77.0</ele><time>2026-04-25T11:55:55.768Z</time></trkpt><trkpt lat="45.8911036" lon="13.7695562"><ele>77.0</ele><time>2026-04-25T11:55:56.769Z</time></trkpt><trkpt lat="45.8911506" lon="13.7697169"><ele>77.0</ele><time>2026-04-25T11:55:57.769Z</time></trkpt><trkpt lat="45.891188" lon="13.769868"><ele>77.0</ele><time>2026-04-25T11:55:58.769Z</time></trkpt><trkpt lat="45.8912234" lon="13.7700143"><ele>77.0</ele><time>2026-04-25T11:55:59.768Z</time></trkpt><trkpt lat="45.8912571" lon="13.770149"><ele>77.0</ele><time>2026-04-25T11:56:00.769Z</time></trkpt><trkpt lat="45.8912839" lon="13.7702429"><ele>77.0</ele><time>2026-04-25T11:56:01.769Z</time></trkpt><trkpt lat="45.891325" lon="13.7703982"><ele>77.0</ele><time>2026-04-25T11:56:03.769Z</time></trkpt><trkpt lat="45.8913569" lon="13.7705291"><ele>77.0</ele><time>2026-04-25T11:56:05.769Z</time></trkpt><trkpt lat="45.8913833" lon="13.7706373"><ele>78.0</ele><time>2026-04-25T11:56:07.769Z</time></trkpt><trkpt lat="45.8913951" lon="13.7707534"><ele>79.0</ele><time>2026-04-25T11:56:10.769Z</time></trkpt><trkpt lat="45.8913409" lon="13.7708352"><ele>80.0</ele><time>2026-04-25T11:56:13.769Z</time></trkpt><trkpt lat="45.8912212" lon="13.7708849"><ele>81.0</ele><time>2026-04-25T11:56:15.768Z</time></trkpt><trkpt lat="45.8911389" lon="13.7708923"><ele>82.0</ele><time>2026-04-25T11:56:16.769Z</time></trkpt><trkpt lat="45.8910281" lon="13.7708949"><ele>81.0</ele><time>2026-04-25T11:56:17.769Z</time></trkpt><trkpt lat="45.8909155" lon="13.7708913"><ele>80.0</ele><time>2026-04-25T11:56:18.769Z</time></trkpt><trkpt lat="45.8907928" lon="13.7708942"><ele>79.0</ele><time>2026-04-25T11:56:19.769Z</time></trkpt><trkpt lat="45.8906641" lon="13.7708948"><ele>78.0</ele><time>2026-04-25T11:56:20.768Z</time></trkpt><trkpt lat="45.8905299" lon="13.7708872"><ele>78.0</ele><time>2026-04-25T11:56:21.769Z</time></trkpt><trkpt lat="45.8903964" lon="13.7708666"><ele>78.0</ele><time>2026-04-25T11:56:22.769Z</time></trkpt><trkpt lat="45.8902619" lon="13.7708293"><ele>78.0</ele><time>2026-04-25T11:56:23.768Z</time></trkpt><trkpt lat="45.8901289" lon="13.7707678"><ele>78.0</ele><time>2026-04-25T11:56:24.769Z</time></trkpt><trkpt lat="45.8900016" lon="13.7706924"><ele>76.25</ele><time>2026-04-25T11:56:25.769Z</time></trkpt><trkpt lat="45.8898758" lon="13.7706021"><ele>74.5</ele><time>2026-04-25T11:56:26.769Z</time></trkpt><trkpt lat="45.889751" lon="13.7705082"><ele>72.75</ele><time>2026-04-25T11:56:27.768Z</time></trkpt><trkpt lat="45.8896302" lon="13.7704185"><ele>71.0</ele><time>2026-04-25T11:56:28.769Z</time></trkpt><trkpt lat="45.8895107" lon="13.7703297"><ele>71.0</ele><time>2026-04-25T11:56:29.769Z</time></trkpt><trkpt lat="45.8893933" lon="13.770241"><ele>71.0</ele><time>2026-04-25T11:56:30.769Z</time></trkpt><trkpt lat="45.889278" lon="13.7701559"><ele>71.0</ele><time>2026-04-25T11:56:31.768Z</time></trkpt><trkpt lat="45.8891592" lon="13.770086"><ele>71.0</ele><time>2026-04-25T11:56:32.769Z</time></trkpt><trkpt lat="45.8890311" lon="13.7700319"><ele>71.75</ele><time>2026-04-25T11:56:33.769Z</time></trkpt><trkpt lat="45.8889063" lon="13.7699912"><ele>72.5</ele><time>2026-04-25T11:56:34.769Z</time></trkpt><trkpt lat="45.8887869" lon="13.7699603"><ele>73.25</ele><time>2026-04-25T11:56:35.769Z</time></trkpt><trkpt lat="45.8886697" lon="13.7699284"><ele>74.0</ele><time>2026-04-25T11:56:36.768Z</time></trkpt><trkpt lat="45.8885536" lon="13.7699014"><ele>74.0</ele><time>2026-04-25T11:56:37.769Z</time></trkpt><trkpt lat="45.8884552" lon="13.7698976"><ele>74.0</ele><time>2026-04-25T11:56:38.769Z</time></trkpt><trkpt lat="45.8883561" lon="13.7698904"><ele>74.0</ele><time>2026-04-25T11:56:39.768Z</time></trkpt><trkpt lat="45.888261" lon="13.7698967"><ele>74.0</ele><time>2026-04-25T11:56:40.769Z</time></trkpt><trkpt lat="45.8881755" lon="13.7699074"><ele>74.0</ele><time>2026-04-25T11:56:41.769Z</time></trkpt><trkpt lat="45.888091" lon="13.769917"><ele>74.16666666666667</ele><time>2026-04-25T11:56:42.769Z</time></trkpt><trkpt lat="45.8880176" lon="13.7699367"><ele>74.33333333333334</ele><time>2026-04-25T11:56:43.768Z</time></trkpt><trkpt lat="45.8879496" lon="13.7699574"><ele>74.5</ele><time>2026-04-25T11:56:44.768Z</time></trkpt><trkpt lat="45.8878867" lon="13.7699785"><ele>74.66666666666667</ele><time>2026-04-25T11:56:45.769Z</time></trkpt><trkpt lat="45.8877679" lon="13.7700317"><ele>74.83333333333333</ele><time>2026-04-25T11:56:47.769Z</time></trkpt><trkpt lat="45.8877075" lon="13.7700577"><ele>75.0</ele><time>2026-04-25T11:56:48.769Z</time></trkpt><trkpt lat="45.8876474" lon="13.7700868"><ele>74.4</ele><time>2026-04-25T11:56:49.769Z</time></trkpt><trkpt lat="45.8875403" lon="13.7701457"><ele>73.8</ele><time>2026-04-25T11:56:51.769Z</time></trkpt><trkpt lat="45.8874422" lon="13.7702423"><ele>73.2</ele><time>2026-04-25T11:56:53.769Z</time></trkpt><trkpt lat="45.8873749" lon="13.7703813"><ele>72.6</ele><time>2026-04-25T11:56:55.769Z</time></trkpt><trkpt lat="45.8873379" lon="13.770456"><ele>72.0</ele><time>2026-04-25T11:56:56.769Z</time></trkpt><trkpt lat="45.8873008" lon="13.7705308"><ele>72.0</ele><time>2026-04-25T11:56:57.769Z</time></trkpt><trkpt lat="45.8872346" lon="13.7706817"><ele>72.0</ele><time>2026-04-25T11:56:59.769Z</time></trkpt><trkpt lat="45.8871767" lon="13.7708172"><ele>72.0</ele><time>2026-04-25T11:57:01.769Z</time></trkpt><trkpt lat="45.887117" lon="13.7709435"><ele>72.0</ele><time>2026-04-25T11:57:03.769Z</time></trkpt><trkpt lat="45.8870678" lon="13.7710747"><ele>72.0</ele><time>2026-04-25T11:57:05.769Z</time></trkpt><trkpt lat="45.8870309" lon="13.7712201"><ele>72.4</ele><time>2026-04-25T11:57:07.769Z</time></trkpt><trkpt lat="45.8870076" lon="13.7713667"><ele>72.80000000000001</ele><time>2026-04-25T11:57:09.769Z</time></trkpt><trkpt lat="45.8869784" lon="13.7715114"><ele>73.2</ele><time>2026-04-25T11:57:11.769Z</time></trkpt><trkpt lat="45.8869264" lon="13.7716579"><ele>73.60000000000001</ele><time>2026-04-25T11:57:13.768Z</time></trkpt><trkpt lat="45.8868618" lon="13.7717982"><ele>74.0</ele><time>2026-04-25T11:57:15.768Z</time></trkpt><trkpt lat="45.8867971" lon="13.7719462"><ele>73.57142857142857</ele><time>2026-04-25T11:57:17.769Z</time></trkpt><trkpt lat="45.886761" lon="13.7720282"><ele>73.14285714285714</ele><time>2026-04-25T11:57:18.769Z</time></trkpt><trkpt lat="45.8867224" lon="13.7721143"><ele>72.71428571428571</ele><time>2026-04-25T11:57:19.769Z</time></trkpt><trkpt lat="45.8866838" lon="13.7722059"><ele>72.28571428571428</ele><time>2026-04-25T11:57:20.769Z</time></trkpt><trkpt lat="45.8866433" lon="13.7722982"><ele>71.85714285714285</ele><time>2026-04-25T11:57:21.769Z</time></trkpt><trkpt lat="45.8866051" lon="13.7723885"><ele>71.42857142857143</ele><time>2026-04-25T11:57:22.769Z</time></trkpt><trkpt lat="45.8865632" lon="13.7724853"><ele>71.0</ele><time>2026-04-25T11:57:23.769Z</time></trkpt><trkpt lat="45.8865231" lon="13.7725844"><ele>71.0</ele><time>2026-04-25T11:57:24.769Z</time></trkpt><trkpt lat="45.886482" lon="13.772685"><ele>71.0</ele><time>2026-04-25T11:57:25.769Z</time></trkpt><trkpt lat="45.8864441" lon="13.7727698"><ele>71.0</ele><time>2026-04-25T11:57:26.769Z</time></trkpt><trkpt lat="45.8864062" lon="13.7728508"><ele>71.0</ele><time>2026-04-25T11:57:27.769Z</time></trkpt><trkpt lat="45.8863325" lon="13.7729788"><ele>71.0</ele><time>2026-04-25T11:57:29.769Z</time></trkpt><trkpt lat="45.886245" lon="13.7730496"><ele>71.0</ele><time>2026-04-25T11:57:31.77Z</time></trkpt><trkpt lat="45.8861588" lon="13.773079"><ele>70.66666666666667</ele><time>2026-04-25T11:57:33.769Z</time></trkpt><trkpt lat="45.8860838" lon="13.7731256"><ele>70.33333333333334</ele><time>2026-04-25T11:57:35.769Z</time></trkpt><trkpt lat="45.8860185" lon="13.7732116"><ele>70.0</ele><time>2026-04-25T11:57:37.769Z</time></trkpt><trkpt lat="45.8859383" lon="13.7733369"><ele>69.66666666666667</ele><time>2026-04-25T11:57:39.769Z</time></trkpt><trkpt lat="45.8858933" lon="13.7734048"><ele>69.33333333333333</ele><time>2026-04-25T11:57:40.769Z</time></trkpt><trkpt lat="45.8858434" lon="13.7734774"><ele>69.0</ele><time>2026-04-25T11:57:41.769Z</time></trkpt><trkpt lat="45.885789" lon="13.7735549"><ele>70.5</ele><time>2026-04-25T11:57:42.769Z</time></trkpt><trkpt lat="45.8857312" lon="13.7736367"><ele>72.0</ele><time>2026-04-25T11:57:43.769Z</time></trkpt><trkpt lat="45.8856726" lon="13.7737207"><ele>73.5</ele><time>2026-04-25T11:57:44.769Z</time></trkpt><trkpt lat="45.8856137" lon="13.7738122"><ele>75.0</ele><time>2026-04-25T11:57:45.769Z</time></trkpt><trkpt lat="45.885553" lon="13.7739023"><ele>76.5</ele><time>2026-04-25T11:57:46.769Z</time></trkpt><trkpt lat="45.8854931" lon="13.7739895"><ele>78.0</ele><time>2026-04-25T11:57:47.769Z</time></trkpt><trkpt lat="45.8854344" lon="13.7740763"><ele>78.0</ele><time>2026-04-25T11:57:48.769Z</time></trkpt><trkpt lat="45.8853751" lon="13.7741619"><ele>78.0</ele><time>2026-04-25T11:57:49.768Z</time></trkpt><trkpt lat="45.8853149" lon="13.774245"><ele>78.0</ele><time>2026-04-25T11:57:50.769Z</time></trkpt><trkpt lat="45.8852571" lon="13.7743279"><ele>78.0</ele><time>2026-04-25T11:57:51.769Z</time></trkpt><trkpt lat="45.8852022" lon="13.7744064"><ele>78.0</ele><time>2026-04-25T11:57:52.769Z</time></trkpt><trkpt lat="45.885151" lon="13.7744729"><ele>78.0</ele><time>2026-04-25T11:57:53.769Z</time></trkpt><trkpt lat="45.8851025" lon="13.7745335"><ele>77.5</ele><time>2026-04-25T11:57:54.769Z</time></trkpt><trkpt lat="45.8850242" lon="13.7746279"><ele>77.0</ele><time>2026-04-25T11:57:56.769Z</time></trkpt><trkpt lat="45.8849576" lon="13.7746943"><ele>76.5</ele><time>2026-04-25T11:57:59.769Z</time></trkpt><trkpt lat="45.8849" lon="13.7747809"><ele>76.0</ele><time>2026-04-25T11:58:03.768Z</time></trkpt><trkpt lat="45.884862" lon="13.7748761"><ele>75.5</ele><time>2026-04-25T11:58:05.769Z</time></trkpt><trkpt lat="45.8848384" lon="13.7749738"><ele>75.0</ele><time>2026-04-25T11:58:07.769Z</time></trkpt><trkpt lat="45.8847733" lon="13.775123"><ele>76.0</ele><time>2026-04-25T11:58:09.769Z</time></trkpt><trkpt lat="45.8847365" lon="13.7752175"><ele>77.0</ele><time>2026-04-25T11:58:10.769Z</time></trkpt><trkpt lat="45.8846832" lon="13.7752917"><ele>78.0</ele><time>2026-04-25T11:58:11.769Z</time></trkpt><trkpt lat="45.8846086" lon="13.77539"><ele>79.0</ele><time>2026-04-25T11:58:12.769Z</time></trkpt><trkpt lat="45.8845601" lon="13.775495"><ele>80.0</ele><time>2026-04-25T11:58:13.768Z</time></trkpt><trkpt lat="45.8845107" lon="13.7755972"><ele>81.0</ele><time>2026-04-25T11:58:14.768Z</time></trkpt><trkpt lat="45.8844603" lon="13.7757126"><ele>81.0</ele><time>2026-04-25T11:58:15.769Z</time></trkpt><trkpt lat="45.8844174" lon="13.7758266"><ele>81.0</ele><time>2026-04-25T11:58:16.769Z</time></trkpt><trkpt lat="45.8843805" lon="13.7759384"><ele>81.0</ele><time>2026-04-25T11:58:17.769Z</time></trkpt><trkpt lat="45.8843468" lon="13.7760406"><ele>81.0</ele><time>2026-04-25T11:58:18.768Z</time></trkpt><trkpt lat="45.8843216" lon="13.7761398"><ele>81.0</ele><time>2026-04-25T11:58:19.768Z</time></trkpt><trkpt lat="45.884288" lon="13.7762886"><ele>81.0</ele><time>2026-04-25T11:58:21.768Z</time></trkpt><trkpt lat="45.8842627" lon="13.7764339"><ele>79.39999999999999</ele><time>2026-04-25T11:58:23.768Z</time></trkpt><trkpt lat="45.8842144" lon="13.7765607"><ele>77.8</ele><time>2026-04-25T11:58:25.769Z</time></trkpt><trkpt lat="45.8842016" lon="13.7767652"><ele>76.19999999999999</ele><time>2026-04-25T11:58:27.769Z</time></trkpt><trkpt lat="45.8841793" lon="13.776891"><ele>74.6</ele><time>2026-04-25T11:58:28.769Z</time></trkpt><trkpt lat="45.8841602" lon="13.7770132"><ele>73.0</ele><time>2026-04-25T11:58:29.769Z</time></trkpt><trkpt lat="45.884138" lon="13.7771538"><ele>73.0</ele><time>2026-04-25T11:58:30.769Z</time></trkpt><trkpt lat="45.8841128" lon="13.7773007"><ele>73.0</ele><time>2026-04-25T11:58:31.769Z</time></trkpt><trkpt lat="45.8840943" lon="13.7774454"><ele>73.0</ele><time>2026-04-25T11:58:32.769Z</time></trkpt><trkpt lat="45.8840763" lon="13.7775953"><ele>73.0</ele><time>2026-04-25T11:58:33.769Z</time></trkpt><trkpt lat="45.884055" lon="13.7777487"><ele>73.0</ele><time>2026-04-25T11:58:34.769Z</time></trkpt><trkpt lat="45.8840332" lon="13.7779001"><ele>74.4</ele><time>2026-04-25T11:58:35.769Z</time></trkpt><trkpt lat="45.8840109" lon="13.778044"><ele>75.8</ele><time>2026-04-25T11:58:36.769Z</time></trkpt><trkpt lat="45.8839835" lon="13.7781821"><ele>77.2</ele><time>2026-04-25T11:58:37.769Z</time></trkpt><trkpt lat="45.8839517" lon="13.7783176"><ele>78.6</ele><time>2026-04-25T11:58:38.769Z</time></trkpt><trkpt lat="45.8839162" lon="13.7784509"><ele>80.0</ele><time>2026-04-25T11:58:39.769Z</time></trkpt><trkpt lat="45.883878" lon="13.7785815"><ele>82.0</ele><time>2026-04-25T11:58:40.769Z</time></trkpt><trkpt lat="45.8838351" lon="13.7787012"><ele>84.0</ele><time>2026-04-25T11:58:41.769Z</time></trkpt><trkpt lat="45.8837917" lon="13.7788212"><ele>86.0</ele><time>2026-04-25T11:58:42.768Z</time></trkpt><trkpt lat="45.8837503" lon="13.7789465"><ele>88.0</ele><time>2026-04-25T11:58:43.769Z</time></trkpt><trkpt lat="45.8837082" lon="13.7790776"><ele>90.0</ele><time>2026-04-25T11:58:44.769Z</time></trkpt><trkpt lat="45.883652" lon="13.7792067"><ele>90.0</ele><time>2026-04-25T11:58:45.768Z</time></trkpt><trkpt lat="45.8835982" lon="13.779335"><ele>90.0</ele><time>2026-04-25T11:58:46.769Z</time></trkpt><trkpt lat="45.8835398" lon="13.7794687"><ele>90.0</ele><time>2026-04-25T11:58:47.769Z</time></trkpt><trkpt lat="45.8834826" lon="13.7795959"><ele>90.0</ele><time>2026-04-25T11:58:48.769Z</time></trkpt><trkpt lat="45.8834378" lon="13.7797365"><ele>90.0</ele><time>2026-04-25T11:58:49.769Z</time></trkpt><trkpt lat="45.8833849" lon="13.779859"><ele>89.0</ele><time>2026-04-25T11:58:50.769Z</time></trkpt><trkpt lat="45.8833361" lon="13.779967"><ele>88.0</ele><time>2026-04-25T11:58:51.768Z</time></trkpt><trkpt lat="45.8832839" lon="13.7800645"><ele>87.0</ele><time>2026-04-25T11:58:52.769Z</time></trkpt><trkpt lat="45.8832392" lon="13.7801595"><ele>86.0</ele><time>2026-04-25T11:58:53.769Z</time></trkpt><trkpt lat="45.8831976" lon="13.7802511"><ele>85.0</ele><time>2026-04-25T11:58:54.768Z</time></trkpt><trkpt lat="45.8831432" lon="13.7803373"><ele>84.0</ele><time>2026-04-25T11:58:55.769Z</time></trkpt><trkpt lat="45.8830899" lon="13.78042"><ele>84.0</ele><time>2026-04-25T11:58:56.769Z</time></trkpt><trkpt lat="45.8830275" lon="13.7805007"><ele>84.0</ele><time>2026-04-25T11:58:57.768Z</time></trkpt><trkpt lat="45.8829562" lon="13.7805848"><ele>84.0</ele><time>2026-04-25T11:58:58.769Z</time></trkpt><trkpt lat="45.8829009" lon="13.780678"><ele>84.0</ele><time>2026-04-25T11:58:59.769Z</time></trkpt><trkpt lat="45.8828657" lon="13.7807698"><ele>84.0</ele><time>2026-04-25T11:59:00.768Z</time></trkpt><trkpt lat="45.882829" lon="13.7808595"><ele>84.0</ele><time>2026-04-25T11:59:01.768Z</time></trkpt><trkpt lat="45.8827973" lon="13.7809592"><ele>82.0</ele><time>2026-04-25T11:59:02.768Z</time></trkpt><trkpt lat="45.8827508" lon="13.7810626"><ele>80.0</ele><time>2026-04-25T11:59:03.767Z</time></trkpt><trkpt lat="45.8827086" lon="13.7811767"><ele>78.0</ele><time>2026-04-25T11:59:04.768Z</time></trkpt><trkpt lat="45.8826622" lon="13.7812987"><ele>76.0</ele><time>2026-04-25T11:59:05.768Z</time></trkpt><trkpt lat="45.8826118" lon="13.7814285"><ele>74.0</ele><time>2026-04-25T11:59:06.768Z</time></trkpt><trkpt lat="45.8825621" lon="13.7815703"><ele>74.0</ele><time>2026-04-25T11:59:07.768Z</time></trkpt><trkpt lat="45.8825068" lon="13.7817076"><ele>74.0</ele><time>2026-04-25T11:59:08.768Z</time></trkpt><trkpt lat="45.8824456" lon="13.7818453"><ele>74.0</ele><time>2026-04-25T11:59:09.768Z</time></trkpt><trkpt lat="45.8823799" lon="13.7819826"><ele>74.0</ele><time>2026-04-25T11:59:10.768Z</time></trkpt><trkpt lat="45.8823125" lon="13.7821207"><ele>75.5</ele><time>2026-04-25T11:59:11.768Z</time></trkpt><trkpt lat="45.8822514" lon="13.7822636"><ele>77.0</ele><time>2026-04-25T11:59:12.767Z</time></trkpt><trkpt lat="45.8821888" lon="13.7824086"><ele>78.5</ele><time>2026-04-25T11:59:13.768Z</time></trkpt><trkpt lat="45.8821283" lon="13.7825518"><ele>80.0</ele><time>2026-04-25T11:59:14.768Z</time></trkpt><trkpt lat="45.8820672" lon="13.7826957"><ele>80.4</ele><time>2026-04-25T11:59:15.768Z</time></trkpt><trkpt lat="45.8820072" lon="13.782837"><ele>80.8</ele><time>2026-04-25T11:59:16.768Z</time></trkpt><trkpt lat="45.8819525" lon="13.7829697"><ele>81.19999999999999</ele><time>2026-04-25T11:59:17.768Z</time></trkpt><trkpt lat="45.8818994" lon="13.7831066"><ele>81.6</ele><time>2026-04-25T11:59:18.768Z</time></trkpt><trkpt lat="45.8818589" lon="13.7832436"><ele>82.0</ele><time>2026-04-25T11:59:19.768Z</time></trkpt><trkpt lat="45.8818265" lon="13.7833706"><ele>82.0</ele><time>2026-04-25T11:59:20.768Z</time></trkpt><trkpt lat="45.8818004" lon="13.7834916"><ele>82.0</ele><time>2026-04-25T11:59:21.767Z</time></trkpt><trkpt lat="45.8817779" lon="13.7836094"><ele>82.0</ele><time>2026-04-25T11:59:22.768Z</time></trkpt><trkpt lat="45.8817583" lon="13.78373"><ele>82.0</ele><time>2026-04-25T11:59:23.768Z</time></trkpt><trkpt lat="45.8817428" lon="13.7838458"><ele>82.0</ele><time>2026-04-25T11:59:24.768Z</time></trkpt><trkpt lat="45.881732" lon="13.7839501"><ele>82.0</ele><time>2026-04-25T11:59:25.768Z</time></trkpt><trkpt lat="45.8817189" lon="13.7840416"><ele>81.19999999999999</ele><time>2026-04-25T11:59:26.767Z</time></trkpt><trkpt lat="45.8816978" lon="13.7841862"><ele>80.39999999999999</ele><time>2026-04-25T11:59:28.768Z</time></trkpt><trkpt lat="45.8816795" lon="13.7843387"><ele>79.6</ele><time>2026-04-25T11:59:30.767Z</time></trkpt><trkpt lat="45.8816596" lon="13.7844395"><ele>78.8</ele><time>2026-04-25T11:59:31.768Z</time></trkpt><trkpt lat="45.8816285" lon="13.7845781"><ele>78.0</ele><time>2026-04-25T11:59:32.768Z</time></trkpt><trkpt lat="45.8815919" lon="13.7847312"><ele>78.0</ele><time>2026-04-25T11:59:33.768Z</time></trkpt><trkpt lat="45.8815491" lon="13.7849065"><ele>78.0</ele><time>2026-04-25T11:59:34.768Z</time></trkpt><trkpt lat="45.8815019" lon="13.7850644"><ele>78.0</ele><time>2026-04-25T11:59:35.768Z</time></trkpt><trkpt lat="45.881449" lon="13.7852256"><ele>78.0</ele><time>2026-04-25T11:59:36.767Z</time></trkpt><trkpt lat="45.8813894" lon="13.7853819"><ele>80.5</ele><time>2026-04-25T11:59:37.768Z</time></trkpt><trkpt lat="45.8813226" lon="13.7855267"><ele>83.0</ele><time>2026-04-25T11:59:38.768Z</time></trkpt><trkpt lat="45.881249" lon="13.7856667"><ele>85.5</ele><time>2026-04-25T11:59:39.768Z</time></trkpt><trkpt lat="45.8811776" lon="13.785813"><ele>88.0</ele><time>2026-04-25T11:59:40.768Z</time></trkpt><trkpt lat="45.8811089" lon="13.7859697"><ele>90.5</ele><time>2026-04-25T11:59:41.768Z</time></trkpt><trkpt lat="45.8810359" lon="13.7861183"><ele>93.0</ele><time>2026-04-25T11:59:42.768Z</time></trkpt><trkpt lat="45.8809574" lon="13.786257"><ele>95.5</ele><time>2026-04-25T11:59:43.768Z</time></trkpt><trkpt lat="45.8808736" lon="13.7863955"><ele>98.0</ele><time>2026-04-25T11:59:44.768Z</time></trkpt><trkpt lat="45.8807959" lon="13.7865342"><ele>95.5</ele><time>2026-04-25T11:59:45.768Z</time></trkpt><trkpt lat="45.8807151" lon="13.7866726"><ele>93.0</ele><time>2026-04-25T11:59:46.768Z</time></trkpt><trkpt lat="45.8806329" lon="13.7868114"><ele>90.5</ele><time>2026-04-25T11:59:47.768Z</time></trkpt><trkpt lat="45.8805492" lon="13.7869539"><ele>88.0</ele><time>2026-04-25T11:59:48.767Z</time></trkpt><trkpt lat="45.880465" lon="13.7870924"><ele>88.0</ele><time>2026-04-25T11:59:49.768Z</time></trkpt><trkpt lat="45.8803842" lon="13.7872376"><ele>88.0</ele><time>2026-04-25T11:59:50.767Z</time></trkpt><trkpt lat="45.880306" lon="13.787384"><ele>88.0</ele><time>2026-04-25T11:59:51.768Z</time></trkpt><trkpt lat="45.8802302" lon="13.7875267"><ele>88.0</ele><time>2026-04-25T11:59:52.768Z</time></trkpt><trkpt lat="45.8801528" lon="13.7876628"><ele>85.75</ele><time>2026-04-25T11:59:53.767Z</time></trkpt><trkpt lat="45.8800783" lon="13.7877961"><ele>83.5</ele><time>2026-04-25T11:59:54.768Z</time></trkpt><trkpt lat="45.8800079" lon="13.7879319"><ele>81.25</ele><time>2026-04-25T11:59:55.768Z</time></trkpt><trkpt lat="45.8799384" lon="13.7880674"><ele>79.0</ele><time>2026-04-25T11:59:56.768Z</time></trkpt><trkpt lat="45.8798682" lon="13.7881975"><ele>79.0</ele><time>2026-04-25T11:59:57.767Z</time></trkpt><trkpt lat="45.8797957" lon="13.7883226"><ele>79.0</ele><time>2026-04-25T11:59:58.768Z</time></trkpt><trkpt lat="45.8797297" lon="13.7884502"><ele>79.0</ele><time>2026-04-25T11:59:59.768Z</time></trkpt><trkpt lat="45.8796641" lon="13.7885724"><ele>79.0</ele><time>2026-04-25T12:00:00.768Z</time></trkpt><trkpt lat="45.8795991" lon="13.7887008"><ele>79.0</ele><time>2026-04-25T12:00:01.768Z</time></trkpt><trkpt lat="45.8795358" lon="13.7888358"><ele>79.25</ele><time>2026-04-25T12:00:02.768Z</time></trkpt><trkpt lat="45.879474" lon="13.7889754"><ele>79.5</ele><time>2026-04-25T12:00:03.768Z</time></trkpt><trkpt lat="45.8794154" lon="13.7891114"><ele>79.75</ele><time>2026-04-25T12:00:04.768Z</time></trkpt><trkpt lat="45.8793549" lon="13.789251"><ele>80.0</ele><time>2026-04-25T12:00:05.769Z</time></trkpt><trkpt lat="45.8793002" lon="13.7893931"><ele>78.4</ele><time>2026-04-25T12:00:06.768Z</time></trkpt><trkpt lat="45.879256" lon="13.7895364"><ele>76.8</ele><time>2026-04-25T12:00:07.768Z</time></trkpt><trkpt lat="45.8792147" lon="13.789683"><ele>75.2</ele><time>2026-04-25T12:00:08.768Z</time></trkpt><trkpt lat="45.8791788" lon="13.7898191"><ele>73.6</ele><time>2026-04-25T12:00:09.768Z</time></trkpt><trkpt lat="45.8791427" lon="13.7899464"><ele>72.0</ele><time>2026-04-25T12:00:10.768Z</time></trkpt><trkpt lat="45.8791023" lon="13.7900624"><ele>72.0</ele><time>2026-04-25T12:00:11.768Z</time></trkpt><trkpt lat="45.8790513" lon="13.7901655"><ele>72.0</ele><time>2026-04-25T12:00:12.768Z</time></trkpt><trkpt lat="45.8790027" lon="13.7902562"><ele>72.0</ele><time>2026-04-25T12:00:13.768Z</time></trkpt><trkpt lat="45.8789575" lon="13.7903608"><ele>72.0</ele><time>2026-04-25T12:00:14.768Z</time></trkpt><trkpt lat="45.8789175" lon="13.7904819"><ele>72.0</ele><time>2026-04-25T12:00:15.768Z</time></trkpt><trkpt lat="45.8788844" lon="13.7906137"><ele>72.0</ele><time>2026-04-25T12:00:16.767Z</time></trkpt><trkpt lat="45.878856" lon="13.7907477"><ele>72.0</ele><time>2026-04-25T12:00:17.768Z</time></trkpt><trkpt lat="45.8788334" lon="13.7908727"><ele>72.0</ele><time>2026-04-25T12:00:18.768Z</time></trkpt><trkpt lat="45.8788099" lon="13.7909922"><ele>72.0</ele><time>2026-04-25T12:00:19.768Z</time></trkpt><trkpt lat="45.8787737" lon="13.7911122"><ele>72.0</ele><time>2026-04-25T12:00:20.767Z</time></trkpt><trkpt lat="45.878731" lon="13.7912355"><ele>72.0</ele><time>2026-04-25T12:00:21.768Z</time></trkpt><trkpt lat="45.8786902" lon="13.7913693"><ele>73.2</ele><time>2026-04-25T12:00:22.768Z</time></trkpt><trkpt lat="45.8786439" lon="13.7915014"><ele>74.4</ele><time>2026-04-25T12:00:23.768Z</time></trkpt><trkpt lat="45.8785962" lon="13.7916422"><ele>75.6</ele><time>2026-04-25T12:00:24.768Z</time></trkpt><trkpt lat="45.8785485" lon="13.7917843"><ele>76.8</ele><time>2026-04-25T12:00:25.768Z</time></trkpt><trkpt lat="45.8785037" lon="13.7919319"><ele>78.0</ele><time>2026-04-25T12:00:26.768Z</time></trkpt><trkpt lat="45.8784635" lon="13.7920679"><ele>76.8</ele><time>2026-04-25T12:00:27.768Z</time></trkpt><trkpt lat="45.8784272" lon="13.7921931"><ele>75.6</ele><time>2026-04-25T12:00:28.768Z</time></trkpt><trkpt lat="45.8783904" lon="13.7923098"><ele>74.4</ele><time>2026-04-25T12:00:29.768Z</time></trkpt><trkpt lat="45.878347" lon="13.7924226"><ele>73.2</ele><time>2026-04-25T12:00:30.768Z</time></trkpt><trkpt lat="45.8783048" lon="13.7925369"><ele>72.0</ele><time>2026-04-25T12:00:31.768Z</time></trkpt><trkpt lat="45.8782641" lon="13.7926473"><ele>72.33333333333333</ele><time>2026-04-25T12:00:32.768Z</time></trkpt><trkpt lat="45.8782294" lon="13.7927479"><ele>72.66666666666667</ele><time>2026-04-25T12:00:33.768Z</time></trkpt><trkpt lat="45.8782007" lon="13.7928469"><ele>73.0</ele><time>2026-04-25T12:00:34.768Z</time></trkpt><trkpt lat="45.8781676" lon="13.7929411"><ele>73.33333333333334</ele><time>2026-04-25T12:00:35.768Z</time></trkpt><trkpt lat="45.8781212" lon="13.7930491"><ele>73.66666666666667</ele><time>2026-04-25T12:00:36.768Z</time></trkpt><trkpt lat="45.8780853" lon="13.7931669"><ele>74.0</ele><time>2026-04-25T12:00:37.768Z</time></trkpt><trkpt lat="45.8780595" lon="13.7932896"><ele>74.0</ele><time>2026-04-25T12:00:38.768Z</time></trkpt><trkpt lat="45.8780247" lon="13.7934182"><ele>74.0</ele><time>2026-04-25T12:00:39.768Z</time></trkpt><trkpt lat="45.877989" lon="13.7935529"><ele>74.0</ele><time>2026-04-25T12:00:40.768Z</time></trkpt><trkpt lat="45.8779417" lon="13.793677"><ele>74.0</ele><time>2026-04-25T12:00:41.768Z</time></trkpt><trkpt lat="45.8778899" lon="13.7937988"><ele>74.0</ele><time>2026-04-25T12:00:42.768Z</time></trkpt><trkpt lat="45.8778418" lon="13.7939206"><ele>74.0</ele><time>2026-04-25T12:00:43.768Z</time></trkpt><trkpt lat="45.8777906" lon="13.7940454"><ele>74.0</ele><time>2026-04-25T12:00:44.768Z</time></trkpt><trkpt lat="45.8777354" lon="13.7941738"><ele>74.0</ele><time>2026-04-25T12:00:45.767Z</time></trkpt><trkpt lat="45.8776842" lon="13.7943078"><ele>74.0</ele><time>2026-04-25T12:00:46.769Z</time></trkpt><trkpt lat="45.8776353" lon="13.7944482"><ele>74.0</ele><time>2026-04-25T12:00:47.768Z</time></trkpt><trkpt lat="45.8775924" lon="13.7945907"><ele>73.25</ele><time>2026-04-25T12:00:48.768Z</time></trkpt><trkpt lat="45.877545" lon="13.7947406"><ele>72.5</ele><time>2026-04-25T12:00:49.768Z</time></trkpt><trkpt lat="45.8774952" lon="13.7948955"><ele>71.75</ele><time>2026-04-25T12:00:50.768Z</time></trkpt><trkpt lat="45.8774338" lon="13.795077"><ele>71.0</ele><time>2026-04-25T12:00:51.767Z</time></trkpt><trkpt lat="45.8773648" lon="13.7952551"><ele>72.5</ele><time>2026-04-25T12:00:52.768Z</time></trkpt><trkpt lat="45.877305" lon="13.7954255"><ele>74.0</ele><time>2026-04-25T12:00:53.768Z</time></trkpt><trkpt lat="45.8772489" lon="13.7955935"><ele>75.5</ele><time>2026-04-25T12:00:54.768Z</time></trkpt><trkpt lat="45.877193" lon="13.7957579"><ele>77.0</ele><time>2026-04-25T12:00:55.768Z</time></trkpt><trkpt lat="45.8771398" lon="13.7959179"><ele>78.25</ele><time>2026-04-25T12:00:56.768Z</time></trkpt><trkpt lat="45.8770865" lon="13.7960742"><ele>79.5</ele><time>2026-04-25T12:00:57.768Z</time></trkpt><trkpt lat="45.8770397" lon="13.7962303"><ele>80.75</ele><time>2026-04-25T12:00:58.768Z</time></trkpt><trkpt lat="45.8769943" lon="13.7963832"><ele>82.0</ele><time>2026-04-25T12:00:59.768Z</time></trkpt><trkpt lat="45.8769532" lon="13.7965417"><ele>82.0</ele><time>2026-04-25T12:01:00.768Z</time></trkpt><trkpt lat="45.8769184" lon="13.7967007"><ele>82.0</ele><time>2026-04-25T12:01:01.768Z</time></trkpt><trkpt lat="45.8768848" lon="13.7968611"><ele>82.0</ele><time>2026-04-25T12:01:02.768Z</time></trkpt><trkpt lat="45.876855" lon="13.7970217"><ele>82.0</ele><time>2026-04-25T12:01:03.768Z</time></trkpt><trkpt lat="45.8768306" lon="13.797188"><ele>82.75</ele><time>2026-04-25T12:01:04.768Z</time></trkpt><trkpt lat="45.8768052" lon="13.7973506"><ele>83.5</ele><time>2026-04-25T12:01:05.768Z</time></trkpt><trkpt lat="45.8767843" lon="13.797513"><ele>84.25</ele><time>2026-04-25T12:01:06.768Z</time></trkpt><trkpt lat="45.8767664" lon="13.7976775"><ele>85.0</ele><time>2026-04-25T12:01:07.768Z</time></trkpt><trkpt lat="45.8767494" lon="13.7978438"><ele>81.5</ele><time>2026-04-25T12:01:08.768Z</time></trkpt><trkpt lat="45.8767367" lon="13.7980054"><ele>78.0</ele><time>2026-04-25T12:01:09.768Z</time></trkpt><trkpt lat="45.8767263" lon="13.7981715"><ele>74.5</ele><time>2026-04-25T12:01:10.768Z</time></trkpt><trkpt lat="45.8767157" lon="13.7983324"><ele>71.0</ele><time>2026-04-25T12:01:11.768Z</time></trkpt><trkpt lat="45.8767085" lon="13.7984953"><ele>71.2</ele><time>2026-04-25T12:01:12.767Z</time></trkpt><trkpt lat="45.8767065" lon="13.7986591"><ele>71.39999999999999</ele><time>2026-04-25T12:01:13.768Z</time></trkpt><trkpt lat="45.8767097" lon="13.7988199"><ele>71.6</ele><time>2026-04-25T12:01:14.768Z</time></trkpt><trkpt lat="45.8767133" lon="13.7989768"><ele>71.8</ele><time>2026-04-25T12:01:15.768Z</time></trkpt><trkpt lat="45.8767139" lon="13.7991322"><ele>72.0</ele><time>2026-04-25T12:01:16.768Z</time></trkpt><trkpt lat="45.8767064" lon="13.7992864"><ele>71.6</ele><time>2026-04-25T12:01:17.768Z</time></trkpt><trkpt lat="45.8767061" lon="13.7994407"><ele>71.2</ele><time>2026-04-25T12:01:18.768Z</time></trkpt><trkpt lat="45.8767137" lon="13.7995958"><ele>70.8</ele><time>2026-04-25T12:01:19.768Z</time></trkpt><trkpt lat="45.8767247" lon="13.7997472"><ele>70.4</ele><time>2026-04-25T12:01:20.768Z</time></trkpt><trkpt lat="45.8767316" lon="13.7999008"><ele>70.0</ele><time>2026-04-25T12:01:21.767Z</time></trkpt><trkpt lat="45.8767339" lon="13.8000473"><ele>70.16666666666666</ele><time>2026-04-25T12:01:22.768Z</time></trkpt><trkpt lat="45.8767321" lon="13.8001763"><ele>70.33333333333333</ele><time>2026-04-25T12:01:23.768Z</time></trkpt><trkpt lat="45.8767298" lon="13.8002916"><ele>70.5</ele><time>2026-04-25T12:01:24.768Z</time></trkpt><trkpt lat="45.8767175" lon="13.8003996"><ele>70.66666666666667</ele><time>2026-04-25T12:01:25.768Z</time></trkpt><trkpt lat="45.876699" lon="13.8005144"><ele>70.83333333333334</ele><time>2026-04-25T12:01:26.768Z</time></trkpt><trkpt lat="45.8766881" lon="13.8006505"><ele>71.0</ele><time>2026-04-25T12:01:27.768Z</time></trkpt><trkpt lat="45.8766813" lon="13.8007987"><ele>71.0</ele><time>2026-04-25T12:01:28.768Z</time></trkpt><trkpt lat="45.8766775" lon="13.8009569"><ele>71.0</ele><time>2026-04-25T12:01:29.767Z</time></trkpt><trkpt lat="45.8766726" lon="13.8011247"><ele>71.0</ele><time>2026-04-25T12:01:30.768Z</time></trkpt><trkpt lat="45.876667" lon="13.8012957"><ele>71.0</ele><time>2026-04-25T12:01:31.768Z</time></trkpt><trkpt lat="45.8766607" lon="13.8014705"><ele>71.25</ele><time>2026-04-25T12:01:32.768Z</time></trkpt><trkpt lat="45.8766583" lon="13.8016429"><ele>71.5</ele><time>2026-04-25T12:01:33.767Z</time></trkpt><trkpt lat="45.8766589" lon="13.8018146"><ele>71.75</ele><time>2026-04-25T12:01:34.768Z</time></trkpt><trkpt lat="45.8766552" lon="13.8019902"><ele>72.0</ele><time>2026-04-25T12:01:35.768Z</time></trkpt><trkpt lat="45.8766614" lon="13.8021603"><ele>72.25</ele><time>2026-04-25T12:01:36.768Z</time></trkpt><trkpt lat="45.8766644" lon="13.8023288"><ele>72.5</ele><time>2026-04-25T12:01:37.768Z</time></trkpt><trkpt lat="45.8766693" lon="13.8024983"><ele>72.75</ele><time>2026-04-25T12:01:38.768Z</time></trkpt><trkpt lat="45.8766688" lon="13.802664"><ele>73.0</ele><time>2026-04-25T12:01:39.768Z</time></trkpt><trkpt lat="45.8766592" lon="13.8028302"><ele>73.5</ele><time>2026-04-25T12:01:40.768Z</time></trkpt><trkpt lat="45.8766466" lon="13.8029933"><ele>74.0</ele><time>2026-04-25T12:01:41.768Z</time></trkpt><trkpt lat="45.8766375" lon="13.8031581"><ele>74.5</ele><time>2026-04-25T12:01:42.768Z</time></trkpt><trkpt lat="45.876635" lon="13.80332"><ele>75.0</ele><time>2026-04-25T12:01:43.768Z</time></trkpt><trkpt lat="45.8766327" lon="13.8034793"><ele>74.5</ele><time>2026-04-25T12:01:44.768Z</time></trkpt><trkpt lat="45.8766347" lon="13.8036367"><ele>74.0</ele><time>2026-04-25T12:01:45.769Z</time></trkpt><trkpt lat="45.876636" lon="13.803804"><ele>73.5</ele><time>2026-04-25T12:01:46.768Z</time></trkpt><trkpt lat="45.8766364" lon="13.8039733"><ele>73.0</ele><time>2026-04-25T12:01:47.768Z</time></trkpt><trkpt lat="45.8766374" lon="13.804133"><ele>73.0</ele><time>2026-04-25T12:01:48.768Z</time></trkpt><trkpt lat="45.8766382" lon="13.8042805"><ele>73.0</ele><time>2026-04-25T12:01:49.768Z</time></trkpt><trkpt lat="45.8766376" lon="13.8044129"><ele>73.0</ele><time>2026-04-25T12:01:50.768Z</time></trkpt><trkpt lat="45.8766393" lon="13.8045405"><ele>73.0</ele><time>2026-04-25T12:01:51.768Z</time></trkpt><trkpt lat="45.8766373" lon="13.8046738"><ele>73.0</ele><time>2026-04-25T12:01:52.768Z</time></trkpt><trkpt lat="45.8766331" lon="13.8048363"><ele>73.25</ele><time>2026-04-25T12:01:53.767Z</time></trkpt><trkpt lat="45.8766297" lon="13.8050056"><ele>73.5</ele><time>2026-04-25T12:01:54.768Z</time></trkpt><trkpt lat="45.8766265" lon="13.8051782"><ele>73.75</ele><time>2026-04-25T12:01:55.768Z</time></trkpt><trkpt lat="45.8766203" lon="13.8053536"><ele>74.0</ele><time>2026-04-25T12:01:56.767Z</time></trkpt><trkpt lat="45.8766163" lon="13.8055386"><ele>74.0</ele><time>2026-04-25T12:01:57.768Z</time></trkpt><trkpt lat="45.8766149" lon="13.8057261"><ele>74.0</ele><time>2026-04-25T12:01:58.769Z</time></trkpt><trkpt lat="45.8766148" lon="13.805922"><ele>74.0</ele><time>2026-04-25T12:01:59.768Z</time></trkpt><trkpt lat="45.8766127" lon="13.8061132"><ele>74.0</ele><time>2026-04-25T12:02:00.768Z</time></trkpt><trkpt lat="45.8766097" lon="13.8062984"><ele>74.0</ele><time>2026-04-25T12:02:01.768Z</time></trkpt><trkpt lat="45.8765965" lon="13.8064761"><ele>74.0</ele><time>2026-04-25T12:02:02.767Z</time></trkpt><trkpt lat="45.8765918" lon="13.8066372"><ele>74.0</ele><time>2026-04-25T12:02:03.768Z</time></trkpt><trkpt lat="45.8765895" lon="13.806795"><ele>74.0</ele><time>2026-04-25T12:02:04.767Z</time></trkpt><trkpt lat="45.8765839" lon="13.8069471"><ele>74.0</ele><time>2026-04-25T12:02:05.767Z</time></trkpt><trkpt lat="45.8765825" lon="13.8070971"><ele>74.0</ele><time>2026-04-25T12:02:06.766Z</time></trkpt><trkpt lat="45.8765829" lon="13.8072441"><ele>74.0</ele><time>2026-04-25T12:02:07.767Z</time></trkpt><trkpt lat="45.8765781" lon="13.8073895"><ele>74.0</ele><time>2026-04-25T12:02:08.767Z</time></trkpt><trkpt lat="45.8765721" lon="13.8075334"><ele>74.0</ele><time>2026-04-25T12:02:09.767Z</time></trkpt><trkpt lat="45.8765664" lon="13.8076713"><ele>74.0</ele><time>2026-04-25T12:02:10.767Z</time></trkpt><trkpt lat="45.8765666" lon="13.8078051"><ele>74.0</ele><time>2026-04-25T12:02:11.767Z</time></trkpt><trkpt lat="45.8765665" lon="13.8079396"><ele>74.0</ele><time>2026-04-25T12:02:12.767Z</time></trkpt><trkpt lat="45.8765706" lon="13.8080648"><ele>74.0</ele><time>2026-04-25T12:02:13.767Z</time></trkpt><trkpt lat="45.8765728" lon="13.8081848"><ele>74.0</ele><time>2026-04-25T12:02:14.766Z</time></trkpt><trkpt lat="45.8765731" lon="13.8083012"><ele>74.0</ele><time>2026-04-25T12:02:15.767Z</time></trkpt><trkpt lat="45.8765771" lon="13.8084118"><ele>74.16666666666667</ele><time>2026-04-25T12:02:16.767Z</time></trkpt><trkpt lat="45.8765821" lon="13.8085215"><ele>74.33333333333334</ele><time>2026-04-25T12:02:17.767Z</time></trkpt><trkpt lat="45.8765907" lon="13.8086319"><ele>74.5</ele><time>2026-04-25T12:02:18.766Z</time></trkpt><trkpt lat="45.876601" lon="13.8087417"><ele>74.66666666666667</ele><time>2026-04-25T12:02:19.767Z</time></trkpt><trkpt lat="45.8766152" lon="13.8088504"><ele>74.83333333333333</ele><time>2026-04-25T12:02:20.767Z</time></trkpt><trkpt lat="45.8766345" lon="13.8089689"><ele>75.0</ele><time>2026-04-25T12:02:21.767Z</time></trkpt><trkpt lat="45.8766536" lon="13.8090972"><ele>75.0</ele><time>2026-04-25T12:02:22.767Z</time></trkpt><trkpt lat="45.8766752" lon="13.8092277"><ele>75.0</ele><time>2026-04-25T12:02:23.767Z</time></trkpt><trkpt lat="45.8766919" lon="13.8093465"><ele>75.0</ele><time>2026-04-25T12:02:24.767Z</time></trkpt><trkpt lat="45.876704" lon="13.8094533"><ele>75.0</ele><time>2026-04-25T12:02:25.766Z</time></trkpt><trkpt lat="45.8767173" lon="13.8095527"><ele>75.0</ele><time>2026-04-25T12:02:26.767Z</time></trkpt><trkpt lat="45.8767287" lon="13.8096429"><ele>75.0</ele><time>2026-04-25T12:02:27.767Z</time></trkpt><trkpt lat="45.8767311" lon="13.8097982"><ele>74.83333333333333</ele><time>2026-04-25T12:02:29.766Z</time></trkpt><trkpt lat="45.8766991" lon="13.8099203"><ele>74.66666666666667</ele><time>2026-04-25T12:02:31.767Z</time></trkpt><trkpt lat="45.8766372" lon="13.8099902"><ele>74.5</ele><time>2026-04-25T12:02:33.766Z</time></trkpt><trkpt lat="45.8765855" lon="13.8100446"><ele>74.33333333333334</ele><time>2026-04-25T12:02:35.767Z</time></trkpt><trkpt lat="45.876567" lon="13.8101621"><ele>74.16666666666667</ele><time>2026-04-25T12:02:38.768Z</time></trkpt><trkpt lat="45.8765611" lon="13.8102712"><ele>74.0</ele><time>2026-04-25T12:02:41.766Z</time></trkpt><trkpt lat="45.8765518" lon="13.8103718"><ele>74.0</ele><time>2026-04-25T12:02:44.767Z</time></trkpt><trkpt lat="45.8764856" lon="13.8103819"><ele>74.0</ele><time>2026-04-25T12:02:47.767Z</time></trkpt><trkpt lat="45.8764185" lon="13.8103141"><ele>74.0</ele><time>2026-04-25T12:02:49.767Z</time></trkpt><trkpt lat="45.8763296" lon="13.8102477"><ele>74.0</ele><time>2026-04-25T12:02:51.767Z</time></trkpt><trkpt lat="45.8762282" lon="13.8101591"><ele>74.0</ele><time>2026-04-25T12:02:53.767Z</time></trkpt><trkpt lat="45.8761329" lon="13.8100393"><ele>74.0</ele><time>2026-04-25T12:02:55.767Z</time></trkpt><trkpt lat="45.8760837" lon="13.8099751"><ele>74.0</ele><time>2026-04-25T12:02:56.767Z</time></trkpt><trkpt lat="45.8759925" lon="13.8098816"><ele>74.0</ele><time>2026-04-25T12:02:58.767Z</time></trkpt><trkpt lat="45.8759046" lon="13.8098299"><ele>74.0</ele><time>2026-04-25T12:03:00.767Z</time></trkpt><trkpt lat="45.8758258" lon="13.8098525"><ele>74.0</ele><time>2026-04-25T12:03:02.767Z</time></trkpt><trkpt lat="45.8757799" lon="13.8099461"><ele>74.0</ele><time>2026-04-25T12:03:04.767Z</time></trkpt><trkpt lat="45.8757687" lon="13.81009"><ele>73.4</ele><time>2026-04-25T12:03:06.767Z</time></trkpt><trkpt lat="45.8757656" lon="13.8102979"><ele>72.80000000000001</ele><time>2026-04-25T12:03:08.767Z</time></trkpt><trkpt lat="45.8757583" lon="13.8104206"><ele>72.19999999999999</ele><time>2026-04-25T12:03:09.766Z</time></trkpt><trkpt lat="45.8757473" lon="13.8105532"><ele>71.6</ele><time>2026-04-25T12:03:10.767Z</time></trkpt><trkpt lat="45.875738" lon="13.8106954"><ele>71.0</ele><time>2026-04-25T12:03:11.766Z</time></trkpt><trkpt lat="45.8757277" lon="13.8108356"><ele>71.0</ele><time>2026-04-25T12:03:12.767Z</time></trkpt><trkpt lat="45.8757159" lon="13.8109759"><ele>71.0</ele><time>2026-04-25T12:03:13.767Z</time></trkpt><trkpt lat="45.8757043" lon="13.8111061"><ele>71.0</ele><time>2026-04-25T12:03:14.767Z</time></trkpt><trkpt lat="45.875694" lon="13.8112298"><ele>71.0</ele><time>2026-04-25T12:03:15.766Z</time></trkpt><trkpt lat="45.8756853" lon="13.8113527"><ele>71.0</ele><time>2026-04-25T12:03:16.767Z</time></trkpt><trkpt lat="45.8756743" lon="13.8114747"><ele>71.0</ele><time>2026-04-25T12:03:17.767Z</time></trkpt><trkpt lat="45.8756635" lon="13.8115938"><ele>71.0</ele><time>2026-04-25T12:03:18.766Z</time></trkpt><trkpt lat="45.8756502" lon="13.8117116"><ele>71.0</ele><time>2026-04-25T12:03:19.767Z</time></trkpt><trkpt lat="45.8756379" lon="13.8118402"><ele>71.0</ele><time>2026-04-25T12:03:20.767Z</time></trkpt><trkpt lat="45.8756254" lon="13.8119743"><ele>71.0</ele><time>2026-04-25T12:03:21.767Z</time></trkpt><trkpt lat="45.8756109" lon="13.812116"><ele>71.0</ele><time>2026-04-25T12:03:22.767Z</time></trkpt><trkpt lat="45.8755973" lon="13.8122618"><ele>71.0</ele><time>2026-04-25T12:03:23.766Z</time></trkpt><trkpt lat="45.8755853" lon="13.8124105"><ele>71.0</ele><time>2026-04-25T12:03:24.767Z</time></trkpt><trkpt lat="45.8755722" lon="13.8125606"><ele>71.0</ele><time>2026-04-25T12:03:25.767Z</time></trkpt><trkpt lat="45.8755569" lon="13.8127071"><ele>71.0</ele><time>2026-04-25T12:03:26.767Z</time></trkpt><trkpt lat="45.8755425" lon="13.8128533"><ele>71.0</ele><time>2026-04-25T12:03:27.767Z</time></trkpt><trkpt lat="45.8755301" lon="13.8129975"><ele>71.0</ele><time>2026-04-25T12:03:28.767Z</time></trkpt><trkpt lat="45.8755158" lon="13.8131392"><ele>71.0</ele><time>2026-04-25T12:03:29.767Z</time></trkpt><trkpt lat="45.875503" lon="13.8132803"><ele>71.0</ele><time>2026-04-25T12:03:30.767Z</time></trkpt><trkpt lat="45.8754912" lon="13.8134205"><ele>71.0</ele><time>2026-04-25T12:03:31.767Z</time></trkpt><trkpt lat="45.8754794" lon="13.8135581"><ele>71.0</ele><time>2026-04-25T12:03:32.766Z</time></trkpt><trkpt lat="45.8754661" lon="13.8136945"><ele>71.0</ele><time>2026-04-25T12:03:33.767Z</time></trkpt><trkpt lat="45.8754542" lon="13.8138293"><ele>71.0</ele><time>2026-04-25T12:03:34.767Z</time></trkpt><trkpt lat="45.8754431" lon="13.8139589"><ele>71.0</ele><time>2026-04-25T12:03:35.766Z</time></trkpt><trkpt lat="45.8754284" lon="13.8140897"><ele>71.0</ele><time>2026-04-25T12:03:36.767Z</time></trkpt><trkpt lat="45.8754132" lon="13.8142199"><ele>71.0</ele><time>2026-04-25T12:03:37.767Z</time></trkpt><trkpt lat="45.8753987" lon="13.8143466"><ele>70.8</ele><time>2026-04-25T12:03:38.767Z</time></trkpt><trkpt lat="45.8753772" lon="13.8144749"><ele>70.6</ele><time>2026-04-25T12:03:39.767Z</time></trkpt><trkpt lat="45.8753608" lon="13.8146024"><ele>70.4</ele><time>2026-04-25T12:03:40.767Z</time></trkpt><trkpt lat="45.8753488" lon="13.8147391"><ele>70.2</ele><time>2026-04-25T12:03:41.767Z</time></trkpt><trkpt lat="45.8753397" lon="13.8148753"><ele>70.0</ele><time>2026-04-25T12:03:42.767Z</time></trkpt><trkpt lat="45.8753297" lon="13.8150171"><ele>70.0</ele><time>2026-04-25T12:03:43.767Z</time></trkpt><trkpt lat="45.8753202" lon="13.8151654"><ele>70.0</ele><time>2026-04-25T12:03:44.766Z</time></trkpt><trkpt lat="45.8753104" lon="13.8153158"><ele>70.0</ele><time>2026-04-25T12:03:45.767Z</time></trkpt><trkpt lat="45.8752969" lon="13.81547"><ele>70.0</ele><time>2026-04-25T12:03:46.767Z</time></trkpt><trkpt lat="45.8752836" lon="13.815626"><ele>70.0</ele><time>2026-04-25T12:03:47.767Z</time></trkpt><trkpt lat="45.875272" lon="13.8157767"><ele>70.0</ele><time>2026-04-25T12:03:48.767Z</time></trkpt><trkpt lat="45.8752624" lon="13.8159258"><ele>70.0</ele><time>2026-04-25T12:03:49.766Z</time></trkpt><trkpt lat="45.8752503" lon="13.8160717"><ele>70.0</ele><time>2026-04-25T12:03:50.767Z</time></trkpt><trkpt lat="45.8752377" lon="13.8162126"><ele>70.0</ele><time>2026-04-25T12:03:51.767Z</time></trkpt><trkpt lat="45.8752238" lon="13.8163523"><ele>70.0</ele><time>2026-04-25T12:03:52.767Z</time></trkpt><trkpt lat="45.8752109" lon="13.8164884"><ele>70.4</ele><time>2026-04-25T12:03:53.766Z</time></trkpt><trkpt lat="45.8752007" lon="13.8166249"><ele>70.8</ele><time>2026-04-25T12:03:54.767Z</time></trkpt><trkpt lat="45.8751902" lon="13.8167601"><ele>71.2</ele><time>2026-04-25T12:03:55.767Z</time></trkpt><trkpt lat="45.87518" lon="13.8168962"><ele>71.6</ele><time>2026-04-25T12:03:56.767Z</time></trkpt><trkpt lat="45.8751672" lon="13.8170317"><ele>72.0</ele><time>2026-04-25T12:03:57.767Z</time></trkpt><trkpt lat="45.8751553" lon="13.8171653"><ele>72.0</ele><time>2026-04-25T12:03:58.767Z</time></trkpt><trkpt lat="45.8751455" lon="13.8172952"><ele>72.0</ele><time>2026-04-25T12:03:59.767Z</time></trkpt><trkpt lat="45.8751338" lon="13.8174175"><ele>72.0</ele><time>2026-04-25T12:04:00.766Z</time></trkpt><trkpt lat="45.8751218" lon="13.8175371"><ele>72.0</ele><time>2026-04-25T12:04:01.767Z</time></trkpt><trkpt lat="45.8751109" lon="13.8176558"><ele>72.0</ele><time>2026-04-25T12:04:02.767Z</time></trkpt><trkpt lat="45.8751008" lon="13.8177666"><ele>72.0</ele><time>2026-04-25T12:04:03.767Z</time></trkpt><trkpt lat="45.8750943" lon="13.8178748"><ele>72.0</ele><time>2026-04-25T12:04:04.767Z</time></trkpt><trkpt lat="45.875088" lon="13.8179741"><ele>72.0</ele><time>2026-04-25T12:04:05.767Z</time></trkpt><trkpt lat="45.8750805" lon="13.8181258"><ele>72.0</ele><time>2026-04-25T12:04:07.766Z</time></trkpt><trkpt lat="45.8750757" lon="13.8182279"><ele>72.0</ele><time>2026-04-25T12:04:10.767Z</time></trkpt><trkpt lat="45.8750644" lon="13.8183254"><ele>72.0</ele><time>2026-04-25T12:04:59.766Z</time></trkpt><trkpt lat="45.8750525" lon="13.8184513"><ele>72.0</ele><time>2026-04-25T12:05:01.766Z</time></trkpt><trkpt lat="45.8750567" lon="13.8185775"><ele>72.0</ele><time>2026-04-25T12:05:03.767Z</time></trkpt><trkpt lat="45.8750298" lon="13.8186666"><ele>72.0</ele><time>2026-04-25T12:05:04.766Z</time></trkpt><trkpt lat="45.8750163" lon="13.8187587"><ele>72.0</ele><time>2026-04-25T12:05:05.766Z</time></trkpt><trkpt lat="45.8749807" lon="13.8188718"><ele>72.0</ele><time>2026-04-25T12:05:06.766Z</time></trkpt><trkpt lat="45.8749591" lon="13.8189786"><ele>72.0</ele><time>2026-04-25T12:05:07.766Z</time></trkpt><trkpt lat="45.8749348" lon="13.8191002"><ele>72.0</ele><time>2026-04-25T12:05:08.766Z</time></trkpt><trkpt lat="45.8749062" lon="13.8192248"><ele>72.2</ele><time>2026-04-25T12:05:09.766Z</time></trkpt><trkpt lat="45.8748764" lon="13.8193525"><ele>72.4</ele><time>2026-04-25T12:05:10.766Z</time></trkpt><trkpt lat="45.8748381" lon="13.8194784"><ele>72.6</ele><time>2026-04-25T12:05:11.765Z</time></trkpt><trkpt lat="45.8748044" lon="13.8196118"><ele>72.8</ele><time>2026-04-25T12:05:12.765Z</time></trkpt><trkpt lat="45.874772" lon="13.819744"><ele>73.0</ele><time>2026-04-25T12:05:13.765Z</time></trkpt><trkpt lat="45.8747374" lon="13.8198773"><ele>73.0</ele><time>2026-04-25T12:05:14.766Z</time></trkpt><trkpt lat="45.8747029" lon="13.8200154"><ele>73.0</ele><time>2026-04-25T12:05:15.766Z</time></trkpt><trkpt lat="45.8746715" lon="13.8201604"><ele>73.0</ele><time>2026-04-25T12:05:16.766Z</time></trkpt><trkpt lat="45.8746381" lon="13.8203051"><ele>73.0</ele><time>2026-04-25T12:05:17.766Z</time></trkpt><trkpt lat="45.8745996" lon="13.8204485"><ele>73.0</ele><time>2026-04-25T12:05:18.766Z</time></trkpt><trkpt lat="45.8745623" lon="13.8205928"><ele>72.8</ele><time>2026-04-25T12:05:19.766Z</time></trkpt><trkpt lat="45.8745285" lon="13.8207292"><ele>72.6</ele><time>2026-04-25T12:05:20.766Z</time></trkpt><trkpt lat="45.8744932" lon="13.8208595"><ele>72.4</ele><time>2026-04-25T12:05:21.766Z</time></trkpt><trkpt lat="45.8744607" lon="13.8209865"><ele>72.2</ele><time>2026-04-25T12:05:22.765Z</time></trkpt><trkpt lat="45.8744309" lon="13.8211067"><ele>72.0</ele><time>2026-04-25T12:05:23.766Z</time></trkpt><trkpt lat="45.8744028" lon="13.8212195"><ele>72.33333333333333</ele><time>2026-04-25T12:05:24.766Z</time></trkpt><trkpt lat="45.87438" lon="13.8213213"><ele>72.66666666666667</ele><time>2026-04-25T12:05:25.766Z</time></trkpt><trkpt lat="45.874354" lon="13.8214108"><ele>73.0</ele><time>2026-04-25T12:05:26.766Z</time></trkpt><trkpt lat="45.8743205" lon="13.8215114"><ele>73.33333333333334</ele><time>2026-04-25T12:05:28.766Z</time></trkpt><trkpt lat="45.8742917" lon="13.8216487"><ele>73.66666666666667</ele><time>2026-04-25T12:06:06.766Z</time></trkpt><trkpt lat="45.874257" lon="13.8218165"><ele>74.0</ele><time>2026-04-25T12:06:08.766Z</time></trkpt><trkpt lat="45.8742334" lon="13.8219225"><ele>74.0</ele><time>2026-04-25T12:06:09.766Z</time></trkpt><trkpt lat="45.8742021" lon="13.8220469"><ele>74.0</ele><time>2026-04-25T12:06:10.766Z</time></trkpt><trkpt lat="45.8741673" lon="13.8221838"><ele>74.0</ele><time>2026-04-25T12:06:11.766Z</time></trkpt><trkpt lat="45.8741294" lon="13.82233"><ele>74.0</ele><time>2026-04-25T12:06:12.766Z</time></trkpt><trkpt lat="45.8740947" lon="13.8224876"><ele>74.0</ele><time>2026-04-25T12:06:13.766Z</time></trkpt><trkpt lat="45.8740551" lon="13.8226417"><ele>74.0</ele><time>2026-04-25T12:06:14.766Z</time></trkpt><trkpt lat="45.8740164" lon="13.822784"><ele>74.0</ele><time>2026-04-25T12:06:15.766Z</time></trkpt><trkpt lat="45.8739783" lon="13.8229258"><ele>74.0</ele><time>2026-04-25T12:06:16.766Z</time></trkpt><trkpt lat="45.8739401" lon="13.8230695"><ele>74.0</ele><time>2026-04-25T12:06:17.766Z</time></trkpt><trkpt lat="45.8739035" lon="13.8232167"><ele>74.0</ele><time>2026-04-25T12:06:18.766Z</time></trkpt><trkpt lat="45.873869" lon="13.8233584"><ele>74.0</ele><time>2026-04-25T12:06:19.766Z</time></trkpt><trkpt lat="45.8738345" lon="13.8234907"><ele>74.0</ele><time>2026-04-25T12:06:20.766Z</time></trkpt><trkpt lat="45.8738045" lon="13.8236213"><ele>74.0</ele><time>2026-04-25T12:06:21.766Z</time></trkpt><trkpt lat="45.873771" lon="13.8237555"><ele>74.0</ele><time>2026-04-25T12:06:22.766Z</time></trkpt><trkpt lat="45.8737384" lon="13.8238913"><ele>74.0</ele><time>2026-04-25T12:06:23.767Z</time></trkpt><trkpt lat="45.8737078" lon="13.8240209"><ele>74.0</ele><time>2026-04-25T12:06:24.766Z</time></trkpt><trkpt lat="45.8736797" lon="13.8241398"><ele>74.0</ele><time>2026-04-25T12:06:25.766Z</time></trkpt><trkpt lat="45.8736518" lon="13.8242503"><ele>74.0</ele><time>2026-04-25T12:06:26.766Z</time></trkpt><trkpt lat="45.8736248" lon="13.824353"><ele>74.0</ele><time>2026-04-25T12:06:27.766Z</time></trkpt><trkpt lat="45.8735947" lon="13.824441"><ele>74.0</ele><time>2026-04-25T12:06:28.766Z</time></trkpt><trkpt lat="45.8735573" lon="13.8245236"><ele>74.0</ele><time>2026-04-25T12:06:29.766Z</time></trkpt><trkpt lat="45.87352" lon="13.8246136"><ele>74.0</ele><time>2026-04-25T12:06:30.766Z</time></trkpt><trkpt lat="45.8734897" lon="13.8247075"><ele>74.0</ele><time>2026-04-25T12:06:31.766Z</time></trkpt><trkpt lat="45.8734664" lon="13.8248071"><ele>74.0</ele><time>2026-04-25T12:06:32.766Z</time></trkpt><trkpt lat="45.8734569" lon="13.8249191"><ele>74.0</ele><time>2026-04-25T12:06:33.766Z</time></trkpt><trkpt lat="45.8734553" lon="13.8250551"><ele>74.0</ele><time>2026-04-25T12:06:34.766Z</time></trkpt><trkpt lat="45.8734531" lon="13.8252129"><ele>74.0</ele><time>2026-04-25T12:06:35.767Z</time></trkpt><trkpt lat="45.8734501" lon="13.8253901"><ele>74.0</ele><time>2026-04-25T12:06:36.766Z</time></trkpt><trkpt lat="45.8734409" lon="13.8255835"><ele>74.0</ele><time>2026-04-25T12:06:37.766Z</time></trkpt><trkpt lat="45.8734339" lon="13.8257899"><ele>74.0</ele><time>2026-04-25T12:06:38.766Z</time></trkpt><trkpt lat="45.8734268" lon="13.8259998"><ele>74.0</ele><time>2026-04-25T12:06:39.766Z</time></trkpt><trkpt lat="45.8734223" lon="13.8262083"><ele>73.5</ele><time>2026-04-25T12:06:40.766Z</time></trkpt><trkpt lat="45.8734133" lon="13.826419"><ele>73.0</ele><time>2026-04-25T12:06:41.766Z</time></trkpt><trkpt lat="45.8734034" lon="13.8266336"><ele>72.5</ele><time>2026-04-25T12:06:42.766Z</time></trkpt><trkpt lat="45.8733957" lon="13.8268464"><ele>72.0</ele><time>2026-04-25T12:06:43.766Z</time></trkpt><trkpt lat="45.8733845" lon="13.8270568"><ele>72.0</ele><time>2026-04-25T12:06:44.766Z</time></trkpt><trkpt lat="45.8733716" lon="13.827263"><ele>72.0</ele><time>2026-04-25T12:06:45.766Z</time></trkpt><trkpt lat="45.8733575" lon="13.8274657"><ele>72.0</ele><time>2026-04-25T12:06:46.766Z</time></trkpt><trkpt lat="45.8733465" lon="13.8276633"><ele>72.0</ele><time>2026-04-25T12:06:47.766Z</time></trkpt><trkpt lat="45.8733401" lon="13.8278567"><ele>72.25</ele><time>2026-04-25T12:06:48.766Z</time></trkpt><trkpt lat="45.8733329" lon="13.8280603"><ele>72.5</ele><time>2026-04-25T12:06:49.766Z</time></trkpt><trkpt lat="45.8733239" lon="13.8282663"><ele>72.75</ele><time>2026-04-25T12:06:50.766Z</time></trkpt><trkpt lat="45.8733138" lon="13.8284713"><ele>73.0</ele><time>2026-04-25T12:06:51.766Z</time></trkpt><trkpt lat="45.8733089" lon="13.8286768"><ele>73.0</ele><time>2026-04-25T12:06:52.766Z</time></trkpt><trkpt lat="45.8733052" lon="13.8288809"><ele>73.0</ele><time>2026-04-25T12:06:53.766Z</time></trkpt><trkpt lat="45.8732994" lon="13.8290869"><ele>73.0</ele><time>2026-04-25T12:06:54.766Z</time></trkpt><trkpt lat="45.8732908" lon="13.8292859"><ele>73.0</ele><time>2026-04-25T12:06:55.766Z</time></trkpt><trkpt lat="45.8732803" lon="13.8294879"><ele>73.25</ele><time>2026-04-25T12:06:56.766Z</time></trkpt><trkpt lat="45.8732701" lon="13.8296922"><ele>73.5</ele><time>2026-04-25T12:06:57.766Z</time></trkpt><trkpt lat="45.8732604" lon="13.8298991"><ele>73.75</ele><time>2026-04-25T12:06:58.766Z</time></trkpt><trkpt lat="45.8732513" lon="13.8301073"><ele>74.0</ele><time>2026-04-25T12:06:59.766Z</time></trkpt><trkpt lat="45.8732417" lon="13.8303148"><ele>74.25</ele><time>2026-04-25T12:07:00.766Z</time></trkpt><trkpt lat="45.8732312" lon="13.8305175"><ele>74.5</ele><time>2026-04-25T12:07:01.766Z</time></trkpt><trkpt lat="45.8732214" lon="13.8307154"><ele>74.75</ele><time>2026-04-25T12:07:02.766Z</time></trkpt><trkpt lat="45.8732133" lon="13.8309163"><ele>75.0</ele><time>2026-04-25T12:07:03.766Z</time></trkpt><trkpt lat="45.8732038" lon="13.8311217"><ele>75.25</ele><time>2026-04-25T12:07:04.766Z</time></trkpt><trkpt lat="45.8731955" lon="13.8313227"><ele>75.5</ele><time>2026-04-25T12:07:05.766Z</time></trkpt><trkpt lat="45.8731859" lon="13.8315292"><ele>75.75</ele><time>2026-04-25T12:07:06.766Z</time></trkpt><trkpt lat="45.873176" lon="13.8317314"><ele>76.0</ele><time>2026-04-25T12:07:07.766Z</time></trkpt><trkpt lat="45.8731671" lon="13.8319325"><ele>76.25</ele><time>2026-04-25T12:07:08.766Z</time></trkpt><trkpt lat="45.8731592" lon="13.8321306"><ele>76.5</ele><time>2026-04-25T12:07:09.766Z</time></trkpt><trkpt lat="45.8731495" lon="13.832321"><ele>76.75</ele><time>2026-04-25T12:07:10.766Z</time></trkpt><trkpt lat="45.8731401" lon="13.8325154"><ele>77.0</ele><time>2026-04-25T12:07:11.766Z</time></trkpt><trkpt lat="45.8731324" lon="13.8327042"><ele>77.25</ele><time>2026-04-25T12:07:12.766Z</time></trkpt><trkpt lat="45.8731252" lon="13.8328943"><ele>77.5</ele><time>2026-04-25T12:07:13.766Z</time></trkpt><trkpt lat="45.8731181" lon="13.8330804"><ele>77.75</ele><time>2026-04-25T12:07:14.766Z</time></trkpt><trkpt lat="45.8731103" lon="13.8332672"><ele>78.0</ele><time>2026-04-25T12:07:15.765Z</time></trkpt><trkpt lat="45.8731042" lon="13.8334497"><ele>77.6</ele><time>2026-04-25T12:07:16.765Z</time></trkpt><trkpt lat="45.8730964" lon="13.8336217"><ele>77.19999999999999</ele><time>2026-04-25T12:07:17.765Z</time></trkpt><trkpt lat="45.873089" lon="13.8337812"><ele>76.8</ele><time>2026-04-25T12:07:18.766Z</time></trkpt><trkpt lat="45.8730869" lon="13.8339279"><ele>76.39999999999999</ele><time>2026-04-25T12:07:19.766Z</time></trkpt><trkpt lat="45.8730815" lon="13.8340652"><ele>76.0</ele><time>2026-04-25T12:07:20.766Z</time></trkpt><trkpt lat="45.873075" lon="13.8341962"><ele>76.0</ele><time>2026-04-25T12:07:21.767Z</time></trkpt><trkpt lat="45.8730696" lon="13.8343183"><ele>76.0</ele><time>2026-04-25T12:07:22.766Z</time></trkpt><trkpt lat="45.8730633" lon="13.8344353"><ele>76.0</ele><time>2026-04-25T12:07:23.766Z</time></trkpt><trkpt lat="45.8730579" lon="13.834542"><ele>76.0</ele><time>2026-04-25T12:07:24.766Z</time></trkpt><trkpt lat="45.8730539" lon="13.834634"><ele>76.0</ele><time>2026-04-25T12:07:25.766Z</time></trkpt><trkpt lat="45.8730603" lon="13.8347968"><ele>76.0</ele><time>2026-04-25T12:07:27.766Z</time></trkpt><trkpt lat="45.8730785" lon="13.8349286"><ele>76.0</ele><time>2026-04-25T12:07:29.766Z</time></trkpt><trkpt lat="45.8731044" lon="13.8350368"><ele>76.0</ele><time>2026-04-25T12:07:31.766Z</time></trkpt><trkpt lat="45.8731105" lon="13.8351306"><ele>76.0</ele><time>2026-04-25T12:07:33.766Z</time></trkpt><trkpt lat="45.8730933" lon="13.8352388"><ele>76.0</ele><time>2026-04-25T12:07:35.766Z</time></trkpt><trkpt lat="45.8730967" lon="13.8353432"><ele>76.0</ele><time>2026-04-25T12:07:37.766Z</time></trkpt><trkpt lat="45.8731554" lon="13.8353855"><ele>76.0</ele><time>2026-04-25T12:07:39.766Z</time></trkpt><trkpt lat="45.8732571" lon="13.8353029"><ele>76.6</ele><time>2026-04-25T12:07:41.766Z</time></trkpt><trkpt lat="45.873326" lon="13.835272"><ele>77.19999999999999</ele><time>2026-04-25T12:07:42.766Z</time></trkpt><trkpt lat="45.873427" lon="13.8352533"><ele>77.80000000000001</ele><time>2026-04-25T12:07:43.766Z</time></trkpt><trkpt lat="45.8735515" lon="13.8352471"><ele>78.4</ele><time>2026-04-25T12:07:44.766Z</time></trkpt><trkpt lat="45.8736933" lon="13.8352589"><ele>79.0</ele><time>2026-04-25T12:07:45.766Z</time></trkpt><trkpt lat="45.873822" lon="13.8352786"><ele>79.0</ele><time>2026-04-25T12:07:46.766Z</time></trkpt><trkpt lat="45.873938" lon="13.8353005"><ele>79.0</ele><time>2026-04-25T12:07:47.765Z</time></trkpt><trkpt lat="45.8740471" lon="13.8353351"><ele>79.0</ele><time>2026-04-25T12:07:48.765Z</time></trkpt><trkpt lat="45.8741612" lon="13.8353758"><ele>79.0</ele><time>2026-04-25T12:07:49.764Z</time></trkpt><trkpt lat="45.874272" lon="13.8354163"><ele>79.2</ele><time>2026-04-25T12:07:50.765Z</time></trkpt><trkpt lat="45.8743835" lon="13.8354548"><ele>79.4</ele><time>2026-04-25T12:07:51.765Z</time></trkpt><trkpt lat="45.8744923" lon="13.8354859"><ele>79.6</ele><time>2026-04-25T12:07:52.764Z</time></trkpt><trkpt lat="45.8745931" lon="13.8355142"><ele>79.8</ele><time>2026-04-25T12:07:53.765Z</time></trkpt><trkpt lat="45.874683" lon="13.8355436"><ele>80.0</ele><time>2026-04-25T12:07:54.765Z</time></trkpt><trkpt lat="45.8747738" lon="13.8355722"><ele>80.0</ele><time>2026-04-25T12:07:55.765Z</time></trkpt><trkpt lat="45.8748668" lon="13.835602"><ele>80.0</ele><time>2026-04-25T12:07:56.765Z</time></trkpt><trkpt lat="45.8749596" lon="13.8356337"><ele>80.0</ele><time>2026-04-25T12:07:57.764Z</time></trkpt><trkpt lat="45.8750536" lon="13.8356618"><ele>80.0</ele><time>2026-04-25T12:07:58.765Z</time></trkpt><trkpt lat="45.8751431" lon="13.8356929"><ele>80.0</ele><time>2026-04-25T12:07:59.765Z</time></trkpt><trkpt lat="45.8752342" lon="13.8357299"><ele>80.33333333333334</ele><time>2026-04-25T12:08:00.764Z</time></trkpt><trkpt lat="45.8753156" lon="13.8357545"><ele>80.66666666666667</ele><time>2026-04-25T12:08:01.765Z</time></trkpt><trkpt lat="45.8753898" lon="13.8357716"><ele>81.0</ele><time>2026-04-25T12:08:02.765Z</time></trkpt><trkpt lat="45.8754651" lon="13.8357747"><ele>81.33333333333333</ele><time>2026-04-25T12:08:03.765Z</time></trkpt><trkpt lat="45.8755416" lon="13.835765"><ele>81.66666666666666</ele><time>2026-04-25T12:08:04.765Z</time></trkpt><trkpt lat="45.87562" lon="13.8357364"><ele>82.0</ele><time>2026-04-25T12:08:05.765Z</time></trkpt><trkpt lat="45.8756945" lon="13.8357021"><ele>82.0</ele><time>2026-04-25T12:08:06.764Z</time></trkpt><trkpt lat="45.8757671" lon="13.8356557"><ele>82.0</ele><time>2026-04-25T12:08:07.765Z</time></trkpt><trkpt lat="45.8758392" lon="13.8356126"><ele>82.0</ele><time>2026-04-25T12:08:08.765Z</time></trkpt><trkpt lat="45.8759135" lon="13.8355831"><ele>82.0</ele><time>2026-04-25T12:08:09.765Z</time></trkpt><trkpt lat="45.8759901" lon="13.8355678"><ele>82.0</ele><time>2026-04-25T12:08:10.765Z</time></trkpt><trkpt lat="45.8760661" lon="13.8355715"><ele>82.0</ele><time>2026-04-25T12:08:11.765Z</time></trkpt><trkpt lat="45.8761459" lon="13.8355879"><ele>82.33333333333333</ele><time>2026-04-25T12:08:12.765Z</time></trkpt><trkpt lat="45.8762235" lon="13.8356117"><ele>82.66666666666666</ele><time>2026-04-25T12:08:13.765Z</time></trkpt><trkpt lat="45.8763008" lon="13.8356483"><ele>83.0</ele><time>2026-04-25T12:08:14.765Z</time></trkpt><trkpt lat="45.8763774" lon="13.8356924"><ele>83.33333333333333</ele><time>2026-04-25T12:08:15.764Z</time></trkpt><trkpt lat="45.876451" lon="13.8357463"><ele>83.66666666666667</ele><time>2026-04-25T12:08:16.765Z</time></trkpt><trkpt lat="45.8765193" lon="13.8358109"><ele>84.0</ele><time>2026-04-25T12:08:17.765Z</time></trkpt><trkpt lat="45.8765818" lon="13.8358854"><ele>84.0</ele><time>2026-04-25T12:08:18.765Z</time></trkpt><trkpt lat="45.8766366" lon="13.8359684"><ele>84.0</ele><time>2026-04-25T12:08:19.764Z</time></trkpt><trkpt lat="45.8766885" lon="13.8360523"><ele>84.0</ele><time>2026-04-25T12:08:20.765Z</time></trkpt><trkpt lat="45.8767376" lon="13.8361395"><ele>84.0</ele><time>2026-04-25T12:08:21.765Z</time></trkpt><trkpt lat="45.8767893" lon="13.8362174"><ele>84.0</ele><time>2026-04-25T12:08:22.764Z</time></trkpt><trkpt lat="45.8768412" lon="13.8362924"><ele>84.0</ele><time>2026-04-25T12:08:23.765Z</time></trkpt><trkpt lat="45.8768958" lon="13.8363673"><ele>83.83333333333333</ele><time>2026-04-25T12:08:24.765Z</time></trkpt><trkpt lat="45.8769505" lon="13.8364486"><ele>83.66666666666667</ele><time>2026-04-25T12:08:25.765Z</time></trkpt><trkpt lat="45.8770089" lon="13.8365309"><ele>83.5</ele><time>2026-04-25T12:08:26.764Z</time></trkpt><trkpt lat="45.87707" lon="13.8366132"><ele>83.33333333333334</ele><time>2026-04-25T12:08:27.765Z</time></trkpt><trkpt lat="45.8771372" lon="13.8366961"><ele>83.16666666666667</ele><time>2026-04-25T12:08:28.765Z</time></trkpt><trkpt lat="45.8772115" lon="13.8367765"><ele>83.0</ele><time>2026-04-25T12:08:29.764Z</time></trkpt><trkpt lat="45.8772896" lon="13.836855"><ele>83.60000000000001</ele><time>2026-04-25T12:08:30.765Z</time></trkpt><trkpt lat="45.877372" lon="13.8369345"><ele>84.2</ele><time>2026-04-25T12:08:31.765Z</time></trkpt><trkpt lat="45.8774567" lon="13.8370055"><ele>84.8</ele><time>2026-04-25T12:08:32.765Z</time></trkpt><trkpt lat="45.8775433" lon="13.8370761"><ele>85.4</ele><time>2026-04-25T12:08:33.764Z</time></trkpt><trkpt lat="45.8776277" lon="13.8371485"><ele>86.0</ele><time>2026-04-25T12:08:34.765Z</time></trkpt><trkpt lat="45.8777118" lon="13.8372205"><ele>86.6</ele><time>2026-04-25T12:08:35.765Z</time></trkpt><trkpt lat="45.8777924" lon="13.8372942"><ele>87.19999999999999</ele><time>2026-04-25T12:08:36.765Z</time></trkpt><trkpt lat="45.8778734" lon="13.8373653"><ele>87.80000000000001</ele><time>2026-04-25T12:08:37.764Z</time></trkpt><trkpt lat="45.8779536" lon="13.8374373"><ele>88.4</ele><time>2026-04-25T12:08:38.765Z</time></trkpt><trkpt lat="45.8780355" lon="13.8375095"><ele>89.0</ele><time>2026-04-25T12:08:39.765Z</time></trkpt><trkpt lat="45.8781189" lon="13.8375833"><ele>89.0</ele><time>2026-04-25T12:08:40.765Z</time></trkpt><trkpt lat="45.8781982" lon="13.8376602"><ele>89.0</ele><time>2026-04-25T12:08:41.764Z</time></trkpt><trkpt lat="45.8782732" lon="13.8377403"><ele>89.0</ele><time>2026-04-25T12:08:42.765Z</time></trkpt><trkpt lat="45.8783444" lon="13.8378251"><ele>89.0</ele><time>2026-04-25T12:08:43.765Z</time></trkpt><trkpt lat="45.8784132" lon="13.8379062"><ele>89.0</ele><time>2026-04-25T12:08:44.765Z</time></trkpt><trkpt lat="45.8784744" lon="13.8379909"><ele>89.0</ele><time>2026-04-25T12:08:45.765Z</time></trkpt><trkpt lat="45.8785338" lon="13.8380733"><ele>89.0</ele><time>2026-04-25T12:08:46.766Z</time></trkpt><trkpt lat="45.8785862" lon="13.8381544"><ele>89.0</ele><time>2026-04-25T12:08:47.765Z</time></trkpt><trkpt lat="45.8786451" lon="13.8382365"><ele>89.0</ele><time>2026-04-25T12:08:48.765Z</time></trkpt><trkpt lat="45.8787055" lon="13.8383201"><ele>89.0</ele><time>2026-04-25T12:08:49.765Z</time></trkpt><trkpt lat="45.8787598" lon="13.8384119"><ele>89.0</ele><time>2026-04-25T12:08:50.765Z</time></trkpt><trkpt lat="45.878811" lon="13.8385051"><ele>89.33333333333334</ele><time>2026-04-25T12:08:51.766Z</time></trkpt><trkpt lat="45.8788539" lon="13.8385958"><ele>89.66666666666667</ele><time>2026-04-25T12:08:52.765Z</time></trkpt><trkpt lat="45.8788941" lon="13.8386802"><ele>90.0</ele><time>2026-04-25T12:08:53.765Z</time></trkpt><trkpt lat="45.878938" lon="13.8387668"><ele>90.33333333333333</ele><time>2026-04-25T12:08:54.764Z</time></trkpt><trkpt lat="45.8789808" lon="13.8388575"><ele>90.66666666666666</ele><time>2026-04-25T12:08:55.765Z</time></trkpt><trkpt lat="45.8790134" lon="13.838962"><ele>91.0</ele><time>2026-04-25T12:08:56.765Z</time></trkpt><trkpt lat="45.8790413" lon="13.8390954"><ele>91.0</ele><time>2026-04-25T12:08:57.765Z</time></trkpt><trkpt lat="45.8790751" lon="13.8392521"><ele>91.0</ele><time>2026-04-25T12:08:58.764Z</time></trkpt><trkpt lat="45.8791089" lon="13.8394138"><ele>91.0</ele><time>2026-04-25T12:08:59.765Z</time></trkpt><trkpt lat="45.8791463" lon="13.8395847"><ele>91.0</ele><time>2026-04-25T12:09:00.765Z</time></trkpt><trkpt lat="45.8791856" lon="13.839753"><ele>91.25</ele><time>2026-04-25T12:09:01.765Z</time></trkpt><trkpt lat="45.8792231" lon="13.8399168"><ele>91.5</ele><time>2026-04-25T12:09:02.764Z</time></trkpt><trkpt lat="45.8792591" lon="13.8400776"><ele>91.75</ele><time>2026-04-25T12:09:03.766Z</time></trkpt><trkpt lat="45.8792949" lon="13.8402303"><ele>92.0</ele><time>2026-04-25T12:09:04.765Z</time></trkpt><trkpt lat="45.8793285" lon="13.8403781"><ele>92.19999999999999</ele><time>2026-04-25T12:09:05.765Z</time></trkpt><trkpt lat="45.8793604" lon="13.8405216"><ele>92.4</ele><time>2026-04-25T12:09:06.764Z</time></trkpt><trkpt lat="45.8793897" lon="13.8406674"><ele>92.6</ele><time>2026-04-25T12:09:07.765Z</time></trkpt><trkpt lat="45.8794241" lon="13.8408055"><ele>92.80000000000001</ele><time>2026-04-25T12:09:08.765Z</time></trkpt><trkpt lat="45.879456" lon="13.8409352"><ele>93.0</ele><time>2026-04-25T12:09:09.765Z</time></trkpt><trkpt lat="45.8794857" lon="13.8410503"><ele>93.16666666666667</ele><time>2026-04-25T12:09:10.765Z</time></trkpt><trkpt lat="45.8795152" lon="13.8411587"><ele>93.33333333333333</ele><time>2026-04-25T12:09:11.764Z</time></trkpt><trkpt lat="45.8795358" lon="13.8412587"><ele>93.5</ele><time>2026-04-25T12:09:12.765Z</time></trkpt><trkpt lat="45.8795487" lon="13.8413482"><ele>93.66666666666666</ele><time>2026-04-25T12:09:13.765Z</time></trkpt><trkpt lat="45.879509" lon="13.8415149"><ele>93.83333333333333</ele><time>2026-04-25T12:09:15.765Z</time></trkpt><trkpt lat="45.8794574" lon="13.841598"><ele>94.0</ele><time>2026-04-25T12:09:16.765Z</time></trkpt><trkpt lat="45.8793906" lon="13.8417084"><ele>93.75</ele><time>2026-04-25T12:09:17.765Z</time></trkpt><trkpt lat="45.8793082" lon="13.8418501"><ele>93.5</ele><time>2026-04-25T12:09:18.765Z</time></trkpt><trkpt lat="45.8792293" lon="13.8419731"><ele>93.25</ele><time>2026-04-25T12:09:19.764Z</time></trkpt><trkpt lat="45.879157" lon="13.8420887"><ele>93.0</ele><time>2026-04-25T12:09:20.765Z</time></trkpt><trkpt lat="45.8790864" lon="13.8422022"><ele>92.4</ele><time>2026-04-25T12:09:21.765Z</time></trkpt><trkpt lat="45.8790219" lon="13.8423098"><ele>91.80000000000001</ele><time>2026-04-25T12:09:22.765Z</time></trkpt><trkpt lat="45.8789583" lon="13.8424143"><ele>91.2</ele><time>2026-04-25T12:09:23.765Z</time></trkpt><trkpt lat="45.8788914" lon="13.8425227"><ele>90.6</ele><time>2026-04-25T12:09:24.765Z</time></trkpt><trkpt lat="45.8788268" lon="13.8426246"><ele>90.0</ele><time>2026-04-25T12:09:25.765Z</time></trkpt><trkpt lat="45.8787665" lon="13.8427195"><ele>90.0</ele><time>2026-04-25T12:09:26.765Z</time></trkpt><trkpt lat="45.8787122" lon="13.8428117"><ele>90.0</ele><time>2026-04-25T12:09:27.765Z</time></trkpt><trkpt lat="45.8786598" lon="13.8428935"><ele>90.0</ele><time>2026-04-25T12:09:28.764Z</time></trkpt><trkpt lat="45.8786122" lon="13.8429657"><ele>90.0</ele><time>2026-04-25T12:09:29.765Z</time></trkpt><trkpt lat="45.87856" lon="13.8431063"><ele>90.0</ele><time>2026-04-25T12:09:31.765Z</time></trkpt><trkpt lat="45.8785882" lon="13.8432356"><ele>90.0</ele><time>2026-04-25T12:09:33.766Z</time></trkpt><trkpt lat="45.8786366" lon="13.8433026"><ele>90.0</ele><time>2026-04-25T12:09:34.765Z</time></trkpt><trkpt lat="45.8787086" lon="13.8433916"><ele>90.0</ele><time>2026-04-25T12:09:35.765Z</time></trkpt><trkpt lat="45.8787729" lon="13.8434756"><ele>90.0</ele><time>2026-04-25T12:09:36.765Z</time></trkpt><trkpt lat="45.8788276" lon="13.8435559"><ele>90.0</ele><time>2026-04-25T12:09:37.764Z</time></trkpt><trkpt lat="45.8788773" lon="13.8436288"><ele>90.0</ele><time>2026-04-25T12:09:38.765Z</time></trkpt><trkpt lat="45.8789118" lon="13.8437133"><ele>90.0</ele><time>2026-04-25T12:09:39.765Z</time></trkpt><trkpt lat="45.878929" lon="13.843823"><ele>90.0</ele><time>2026-04-25T12:09:40.765Z</time></trkpt><trkpt lat="45.8789277" lon="13.8439505"><ele>90.0</ele><time>2026-04-25T12:09:41.764Z</time></trkpt><trkpt lat="45.8789224" lon="13.8440974"><ele>90.0</ele><time>2026-04-25T12:09:42.765Z</time></trkpt><trkpt lat="45.878915" lon="13.844241"><ele>90.0</ele><time>2026-04-25T12:09:43.765Z</time></trkpt><trkpt lat="45.8789039" lon="13.8443872"><ele>90.0</ele><time>2026-04-25T12:09:44.765Z</time></trkpt><trkpt lat="45.8788942" lon="13.8445328"><ele>90.2</ele><time>2026-04-25T12:09:45.764Z</time></trkpt><trkpt lat="45.8788834" lon="13.8446705"><ele>90.4</ele><time>2026-04-25T12:09:46.765Z</time></trkpt><trkpt lat="45.8788754" lon="13.8448094"><ele>90.6</ele><time>2026-04-25T12:09:47.765Z</time></trkpt><trkpt lat="45.878867" lon="13.8449544"><ele>90.8</ele><time>2026-04-25T12:09:48.765Z</time></trkpt><trkpt lat="45.8788569" lon="13.8451045"><ele>91.0</ele><time>2026-04-25T12:09:49.765Z</time></trkpt><trkpt lat="45.878848" lon="13.8452552"><ele>91.19999999999999</ele><time>2026-04-25T12:09:50.764Z</time></trkpt><trkpt lat="45.8788348" lon="13.8454127"><ele>91.39999999999999</ele><time>2026-04-25T12:09:51.765Z</time></trkpt><trkpt lat="45.8788249" lon="13.8455677"><ele>91.6</ele><time>2026-04-25T12:09:52.765Z</time></trkpt><trkpt lat="45.8788146" lon="13.8457067"><ele>91.8</ele><time>2026-04-25T12:09:53.765Z</time></trkpt><trkpt lat="45.8788055" lon="13.8458334"><ele>92.0</ele><time>2026-04-25T12:09:54.765Z</time></trkpt><trkpt lat="45.8787946" lon="13.8459492"><ele>92.16666666666667</ele><time>2026-04-25T12:09:55.764Z</time></trkpt><trkpt lat="45.8787919" lon="13.846047"><ele>92.33333333333334</ele><time>2026-04-25T12:09:56.765Z</time></trkpt><trkpt lat="45.8787835" lon="13.8462092"><ele>92.5</ele><time>2026-04-25T12:09:58.765Z</time></trkpt><trkpt lat="45.8787942" lon="13.8463284"><ele>92.66666666666667</ele><time>2026-04-25T12:10:00.765Z</time></trkpt><trkpt lat="45.8788594" lon="13.8464251"><ele>92.83333333333333</ele><time>2026-04-25T12:10:02.765Z</time></trkpt><trkpt lat="45.878933" lon="13.8464383"><ele>93.0</ele><time>2026-04-25T12:10:03.765Z</time></trkpt><trkpt lat="45.8790456" lon="13.8464457"><ele>93.0</ele><time>2026-04-25T12:10:04.765Z</time></trkpt><trkpt lat="45.8791769" lon="13.8464562"><ele>93.0</ele><time>2026-04-25T12:10:05.764Z</time></trkpt><trkpt lat="45.8793299" lon="13.8464725"><ele>93.0</ele><time>2026-04-25T12:10:06.765Z</time></trkpt><trkpt lat="45.8795001" lon="13.8464725"><ele>93.0</ele><time>2026-04-25T12:10:07.765Z</time></trkpt><trkpt lat="45.8796657" lon="13.8464303"><ele>93.0</ele><time>2026-04-25T12:10:08.765Z</time></trkpt><trkpt lat="45.879812" lon="13.8463836"><ele>93.0</ele><time>2026-04-25T12:10:09.765Z</time></trkpt><trkpt lat="45.8799348" lon="13.8463414"><ele>93.0</ele><time>2026-04-25T12:10:10.764Z</time></trkpt><trkpt lat="45.8800415" lon="13.8463109"><ele>93.33333333333333</ele><time>2026-04-25T12:10:11.765Z</time></trkpt><trkpt lat="45.8801409" lon="13.846281"><ele>93.66666666666667</ele><time>2026-04-25T12:10:12.765Z</time></trkpt><trkpt lat="45.8802254" lon="13.8462461"><ele>94.0</ele><time>2026-04-25T12:10:13.765Z</time></trkpt><trkpt lat="45.8802996" lon="13.8462147"><ele>94.33333333333334</ele><time>2026-04-25T12:10:14.765Z</time></trkpt><trkpt lat="45.8803755" lon="13.8461889"><ele>94.66666666666667</ele><time>2026-04-25T12:10:15.765Z</time></trkpt><trkpt lat="45.8804563" lon="13.8461654"><ele>95.0</ele><time>2026-04-25T12:10:16.765Z</time></trkpt><trkpt lat="45.8805381" lon="13.8461433"><ele>95.0</ele><time>2026-04-25T12:10:17.765Z</time></trkpt><trkpt lat="45.8806219" lon="13.8461211"><ele>95.0</ele><time>2026-04-25T12:10:18.764Z</time></trkpt><trkpt lat="45.8807198" lon="13.8460985"><ele>95.0</ele><time>2026-04-25T12:10:19.765Z</time></trkpt><trkpt lat="45.8808286" lon="13.8460761"><ele>95.0</ele><time>2026-04-25T12:10:20.765Z</time></trkpt><trkpt lat="45.8809466" lon="13.8460541"><ele>95.0</ele><time>2026-04-25T12:10:21.765Z</time></trkpt><trkpt lat="45.8810618" lon="13.8460343"><ele>95.2</ele><time>2026-04-25T12:10:22.765Z</time></trkpt><trkpt lat="45.8811618" lon="13.846013"><ele>95.4</ele><time>2026-04-25T12:10:23.765Z</time></trkpt><trkpt lat="45.8812385" lon="13.8459833"><ele>95.6</ele><time>2026-04-25T12:10:24.764Z</time></trkpt><trkpt lat="45.8813286" lon="13.8459425"><ele>95.8</ele><time>2026-04-25T12:10:26.765Z</time></trkpt><trkpt lat="45.8811977" lon="13.8459727"><ele>96.0</ele><time>2026-04-25T12:10:32.765Z</time></trkpt><trkpt lat="45.8810868" lon="13.8460055"><ele>96.0</ele><time>2026-04-25T12:10:33.765Z</time></trkpt><trkpt lat="45.8809585" lon="13.8460278"><ele>96.0</ele><time>2026-04-25T12:10:34.765Z</time></trkpt><trkpt lat="45.8808293" lon="13.84606"><ele>96.0</ele><time>2026-04-25T12:10:35.765Z</time></trkpt><trkpt lat="45.880701" lon="13.8460997"><ele>96.0</ele><time>2026-04-25T12:10:36.763Z</time></trkpt><trkpt lat="45.880581" lon="13.8461312"><ele>95.8</ele><time>2026-04-25T12:10:37.764Z</time></trkpt><trkpt lat="45.880467" lon="13.8461624"><ele>95.6</ele><time>2026-04-25T12:10:38.764Z</time></trkpt><trkpt lat="45.8803603" lon="13.8461922"><ele>95.4</ele><time>2026-04-25T12:10:39.764Z</time></trkpt><trkpt lat="45.8802729" lon="13.8462182"><ele>95.2</ele><time>2026-04-25T12:10:40.764Z</time></trkpt><trkpt lat="45.8801943" lon="13.8462399"><ele>95.0</ele><time>2026-04-25T12:10:41.764Z</time></trkpt><trkpt lat="45.8801305" lon="13.8462624"><ele>94.66666666666667</ele><time>2026-04-25T12:10:42.763Z</time></trkpt><trkpt lat="45.8800469" lon="13.8463105"><ele>94.33333333333334</ele><time>2026-04-25T12:10:44.764Z</time></trkpt><trkpt lat="45.8800032" lon="13.8463873"><ele>94.0</ele><time>2026-04-25T12:10:47.764Z</time></trkpt><trkpt lat="45.8800167" lon="13.8464773"><ele>93.66666666666667</ele><time>2026-04-25T12:11:10.764Z</time></trkpt><trkpt lat="45.8800239" lon="13.846573"><ele>93.33333333333333</ele><time>2026-04-25T12:11:11.764Z</time></trkpt><trkpt lat="45.8800486" lon="13.8466824"><ele>93.0</ele><time>2026-04-25T12:11:12.764Z</time></trkpt><trkpt lat="45.8800761" lon="13.8468024"><ele>93.80000000000001</ele><time>2026-04-25T12:11:13.764Z</time></trkpt><trkpt lat="45.8801055" lon="13.8469286"><ele>94.6</ele><time>2026-04-25T12:11:14.764Z</time></trkpt><trkpt lat="45.8801339" lon="13.8470593"><ele>95.4</ele><time>2026-04-25T12:11:15.764Z</time></trkpt><trkpt lat="45.8801621" lon="13.8471819"><ele>96.19999999999999</ele><time>2026-04-25T12:11:16.764Z</time></trkpt><trkpt lat="45.8801897" lon="13.8473004"><ele>97.0</ele><time>2026-04-25T12:11:17.764Z</time></trkpt><trkpt lat="45.8802139" lon="13.8474184"><ele>97.00000000000001</ele><time>2026-04-25T12:11:18.763Z</time></trkpt><trkpt lat="45.8802386" lon="13.8475259"><ele>97.0</ele><time>2026-04-25T12:11:19.763Z</time></trkpt><trkpt lat="45.8802623" lon="13.8476317"><ele>97.0</ele><time>2026-04-25T12:11:20.763Z</time></trkpt><trkpt lat="45.8802884" lon="13.8477374"><ele>97.0</ele><time>2026-04-25T12:11:21.763Z</time></trkpt><trkpt lat="45.8803123" lon="13.8478396"><ele>97.00000000000001</ele><time>2026-04-25T12:11:22.763Z</time></trkpt><trkpt lat="45.8803362" lon="13.8479447"><ele>97.0</ele><time>2026-04-25T12:11:23.764Z</time></trkpt><trkpt lat="45.8803617" lon="13.8480541"><ele>96.6</ele><time>2026-04-25T12:11:24.764Z</time></trkpt><trkpt lat="45.8803871" lon="13.8481677"><ele>96.19999999999999</ele><time>2026-04-25T12:11:25.764Z</time></trkpt><trkpt lat="45.8804156" lon="13.8482875"><ele>95.8</ele><time>2026-04-25T12:11:26.764Z</time></trkpt><trkpt lat="45.8804451" lon="13.8484139"><ele>95.4</ele><time>2026-04-25T12:11:27.764Z</time></trkpt><trkpt lat="45.8804739" lon="13.8485432"><ele>95.0</ele><time>2026-04-25T12:11:28.764Z</time></trkpt><trkpt lat="45.8805017" lon="13.8486757"><ele>94.33333333333334</ele><time>2026-04-25T12:11:29.764Z</time></trkpt><trkpt lat="45.8805329" lon="13.8488085"><ele>93.66666666666667</ele><time>2026-04-25T12:11:30.764Z</time></trkpt><trkpt lat="45.8805603" lon="13.8489328"><ele>93.0</ele><time>2026-04-25T12:11:31.764Z</time></trkpt><trkpt lat="45.8805869" lon="13.849045"><ele>92.33333333333333</ele><time>2026-04-25T12:11:32.764Z</time></trkpt><trkpt lat="45.8806095" lon="13.8491531"><ele>91.66666666666666</ele><time>2026-04-25T12:11:33.764Z</time></trkpt><trkpt lat="45.880628" lon="13.8492564"><ele>91.0</ele><time>2026-04-25T12:11:34.764Z</time></trkpt><trkpt lat="45.8806443" lon="13.8493564"><ele>90.83333333333333</ele><time>2026-04-25T12:11:35.764Z</time></trkpt><trkpt lat="45.8806567" lon="13.8494561"><ele>90.66666666666666</ele><time>2026-04-25T12:11:36.764Z</time></trkpt><trkpt lat="45.8806622" lon="13.8495603"><ele>90.5</ele><time>2026-04-25T12:11:37.764Z</time></trkpt><trkpt lat="45.8806664" lon="13.8496648"><ele>90.33333333333333</ele><time>2026-04-25T12:11:38.764Z</time></trkpt><trkpt lat="45.8806648" lon="13.8497651"><ele>90.16666666666667</ele><time>2026-04-25T12:11:39.764Z</time></trkpt><trkpt lat="45.8806573" lon="13.8498601"><ele>90.0</ele><time>2026-04-25T12:11:40.764Z</time></trkpt><trkpt lat="45.8806535" lon="13.8500249"><ele>89.6</ele><time>2026-04-25T12:11:42.764Z</time></trkpt><trkpt lat="45.8806989" lon="13.8501331"><ele>89.2</ele><time>2026-04-25T12:11:44.764Z</time></trkpt><trkpt lat="45.8808142" lon="13.8502083"><ele>88.80000000000001</ele><time>2026-04-25T12:11:46.763Z</time></trkpt><trkpt lat="45.8809014" lon="13.8502411"><ele>88.4</ele><time>2026-04-25T12:11:47.764Z</time></trkpt><trkpt lat="45.8810065" lon="13.8502724"><ele>88.0</ele><time>2026-04-25T12:11:48.764Z</time></trkpt><trkpt lat="45.8811217" lon="13.8503039"><ele>88.83333333333333</ele><time>2026-04-25T12:11:49.764Z</time></trkpt><trkpt lat="45.881224" lon="13.8503314"><ele>89.66666666666666</ele><time>2026-04-25T12:11:50.764Z</time></trkpt><trkpt lat="45.8813169" lon="13.8503539"><ele>90.5</ele><time>2026-04-25T12:11:51.764Z</time></trkpt><trkpt lat="45.8814056" lon="13.8503752"><ele>91.33333333333333</ele><time>2026-04-25T12:11:52.764Z</time></trkpt><trkpt lat="45.8814855" lon="13.8503951"><ele>92.16666666666667</ele><time>2026-04-25T12:11:53.763Z</time></trkpt><trkpt lat="45.8815603" lon="13.8504166"><ele>93.0</ele><time>2026-04-25T12:11:54.764Z</time></trkpt><trkpt lat="45.8816362" lon="13.850455"><ele>93.0</ele><time>2026-04-25T12:11:55.763Z</time></trkpt><trkpt lat="45.881713" lon="13.8504928"><ele>93.0</ele><time>2026-04-25T12:11:56.763Z</time></trkpt><trkpt lat="45.8817867" lon="13.8505302"><ele>93.0</ele><time>2026-04-25T12:11:57.764Z</time></trkpt><trkpt lat="45.8818511" lon="13.8505593"><ele>93.0</ele><time>2026-04-25T12:11:58.763Z</time></trkpt><trkpt lat="45.8819496" lon="13.8505917"><ele>93.0</ele><time>2026-04-25T12:12:00.764Z</time></trkpt><trkpt lat="45.8820213" lon="13.8506519"><ele>93.0</ele><time>2026-04-25T12:12:02.764Z</time></trkpt><trkpt lat="45.8820124" lon="13.8507682"><ele>96.60000000000001</ele><time>2026-04-25T12:12:04.764Z</time></trkpt><trkpt lat="45.8819803" lon="13.8508799"><ele>100.2</ele><time>2026-04-25T12:12:05.764Z</time></trkpt><trkpt lat="45.8819551" lon="13.8509934"><ele>103.8</ele><time>2026-04-25T12:12:06.764Z</time></trkpt><trkpt lat="45.8819308" lon="13.851122"><ele>107.4</ele><time>2026-04-25T12:12:07.764Z</time></trkpt><trkpt lat="45.8819059" lon="13.8512627"><ele>111.0</ele><time>2026-04-25T12:12:08.764Z</time></trkpt><trkpt lat="45.8818803" lon="13.8514009"><ele>113.0</ele><time>2026-04-25T12:12:09.764Z</time></trkpt><trkpt lat="45.8818606" lon="13.8515402"><ele>115.0</ele><time>2026-04-25T12:12:10.764Z</time></trkpt><trkpt lat="45.8818509" lon="13.8516968"><ele>117.0</ele><time>2026-04-25T12:12:11.764Z</time></trkpt><trkpt lat="45.8818465" lon="13.8518691"><ele>119.0</ele><time>2026-04-25T12:12:12.764Z</time></trkpt><trkpt lat="45.8818406" lon="13.8520648"><ele>120.0</ele><time>2026-04-25T12:12:13.764Z</time></trkpt><trkpt lat="45.8818331" lon="13.8522318"><ele>121.0</ele><time>2026-04-25T12:12:14.764Z</time></trkpt><trkpt lat="45.8818305" lon="13.8523884"><ele>122.0</ele><time>2026-04-25T12:12:15.765Z</time></trkpt><trkpt lat="45.8818245" lon="13.8525428"><ele>123.0</ele><time>2026-04-25T12:12:16.764Z</time></trkpt><trkpt lat="45.8818161" lon="13.852697"><ele>124.0</ele><time>2026-04-25T12:12:17.764Z</time></trkpt><trkpt lat="45.8817995" lon="13.852842"><ele>124.6</ele><time>2026-04-25T12:12:18.764Z</time></trkpt><trkpt lat="45.8817827" lon="13.8529869"><ele>125.2</ele><time>2026-04-25T12:12:19.764Z</time></trkpt><trkpt lat="45.8817661" lon="13.8531336"><ele>125.79999999999998</ele><time>2026-04-25T12:12:20.762Z</time></trkpt><trkpt lat="45.8817491" lon="13.8532845"><ele>126.39999999999999</ele><time>2026-04-25T12:12:21.764Z</time></trkpt><trkpt lat="45.8817357" lon="13.8534355"><ele>127.0</ele><time>2026-04-25T12:12:22.764Z</time></trkpt><trkpt lat="45.8817232" lon="13.8535874"><ele>123.0</ele><time>2026-04-25T12:12:23.764Z</time></trkpt><trkpt lat="45.8817063" lon="13.8537416"><ele>118.99999999999999</ele><time>2026-04-25T12:12:24.764Z</time></trkpt><trkpt lat="45.8816873" lon="13.8538938"><ele>114.99999999999999</ele><time>2026-04-25T12:12:25.764Z</time></trkpt><trkpt lat="45.8816695" lon="13.8540494"><ele>111.0</ele><time>2026-04-25T12:12:26.764Z</time></trkpt><trkpt lat="45.8816505" lon="13.8542036"><ele>107.0</ele><time>2026-04-25T12:12:27.764Z</time></trkpt><trkpt lat="45.881625" lon="13.8543532"><ele>106.99999999999999</ele><time>2026-04-25T12:12:28.764Z</time></trkpt><trkpt lat="45.8815979" lon="13.8545002"><ele>107.0</ele><time>2026-04-25T12:12:29.764Z</time></trkpt><trkpt lat="45.8815676" lon="13.8546379"><ele>107.0</ele><time>2026-04-25T12:12:30.764Z</time></trkpt><trkpt lat="45.8815387" lon="13.8547625"><ele>107.0</ele><time>2026-04-25T12:12:31.764Z</time></trkpt><trkpt lat="45.881517" lon="13.8548739"><ele>106.99999999999999</ele><time>2026-04-25T12:12:32.764Z</time></trkpt><trkpt lat="45.8814958" lon="13.8549669"><ele>107.0</ele><time>2026-04-25T12:12:33.764Z</time></trkpt><trkpt lat="45.881452" lon="13.8551196"><ele>107.16666666666666</ele><time>2026-04-25T12:12:35.764Z</time></trkpt><trkpt lat="45.8814171" lon="13.8552048"><ele>107.33333333333333</ele><time>2026-04-25T12:12:37.764Z</time></trkpt><trkpt lat="45.8813823" lon="13.8552821"><ele>107.5</ele><time>2026-04-25T12:12:41.764Z</time></trkpt><trkpt lat="45.881336" lon="13.8553554"><ele>107.66666666666666</ele><time>2026-04-25T12:12:44.763Z</time></trkpt><trkpt lat="45.8812837" lon="13.8554751"><ele>107.83333333333333</ele><time>2026-04-25T12:12:46.763Z</time></trkpt><trkpt lat="45.8812395" lon="13.8555617"><ele>108.0</ele><time>2026-04-25T12:12:48.764Z</time></trkpt><trkpt lat="45.8811861" lon="13.8556392"><ele>108.0</ele><time>2026-04-25T12:12:51.764Z</time></trkpt><trkpt lat="45.8812163" lon="13.8557325"><ele>108.00000000000001</ele><time>2026-04-25T12:12:54.764Z</time></trkpt><trkpt lat="45.8812981" lon="13.8558377"><ele>108.00000000000001</ele><time>2026-04-25T12:12:56.764Z</time></trkpt><trkpt lat="45.8813884" lon="13.8559342"><ele>108.0</ele><time>2026-04-25T12:12:58.764Z</time></trkpt><trkpt lat="45.8814895" lon="13.8560342"><ele>108.0</ele><time>2026-04-25T12:13:00.764Z</time></trkpt><trkpt lat="45.8815423" lon="13.8561002"><ele>107.4</ele><time>2026-04-25T12:13:01.764Z</time></trkpt><trkpt lat="45.88162" lon="13.8562088"><ele>106.80000000000001</ele><time>2026-04-25T12:13:03.764Z</time></trkpt><trkpt lat="45.8817223" lon="13.8563109"><ele>106.2</ele><time>2026-04-25T12:13:05.764Z</time></trkpt><trkpt lat="45.881783" lon="13.8563577"><ele>105.6</ele><time>2026-04-25T12:13:18.764Z</time></trkpt><trkpt lat="45.8818713" lon="13.8564263"><ele>105.0</ele><time>2026-04-25T12:13:22.763Z</time></trkpt><trkpt lat="45.8819667" lon="13.8564534"><ele>105.0</ele><time>2026-04-25T12:13:24.762Z</time></trkpt><trkpt lat="45.8820366" lon="13.8564278"><ele>105.0</ele><time>2026-04-25T12:13:26.763Z</time></trkpt><trkpt lat="45.882099" lon="13.8563949"><ele>105.0</ele><time>2026-04-25T12:13:28.762Z</time></trkpt><trkpt lat="45.8821763" lon="13.8564725"><ele>105.0</ele><time>2026-04-25T12:13:31.763Z</time></trkpt><trkpt lat="45.8822351" lon="13.8566044"><ele>105.0</ele><time>2026-04-25T12:13:33.763Z</time></trkpt><trkpt lat="45.8823011" lon="13.8567251"><ele>105.0</ele><time>2026-04-25T12:13:35.763Z</time></trkpt><trkpt lat="45.8823681" lon="13.8568603"><ele>105.2</ele><time>2026-04-25T12:13:37.763Z</time></trkpt><trkpt lat="45.8824364" lon="13.8569878"><ele>105.4</ele><time>2026-04-25T12:13:39.763Z</time></trkpt><trkpt lat="45.8825096" lon="13.8570916"><ele>105.6</ele><time>2026-04-25T12:13:41.763Z</time></trkpt><trkpt lat="45.8825805" lon="13.8571993"><ele>105.8</ele><time>2026-04-25T12:13:43.763Z</time></trkpt><trkpt lat="45.8826435" lon="13.8573205"><ele>106.0</ele><time>2026-04-25T12:13:45.763Z</time></trkpt><trkpt lat="45.8826886" lon="13.857435"><ele>106.00000000000001</ele><time>2026-04-25T12:13:47.763Z</time></trkpt><trkpt lat="45.8827641" lon="13.8574862"><ele>106.0</ele><time>2026-04-25T12:13:50.763Z</time></trkpt><trkpt lat="45.8828247" lon="13.8574088"><ele>106.0</ele><time>2026-04-25T12:13:52.763Z</time></trkpt><trkpt lat="45.8828623" lon="13.8573236"><ele>106.0</ele><time>2026-04-25T12:13:53.763Z</time></trkpt><trkpt lat="45.8829078" lon="13.8572363"><ele>106.00000000000001</ele><time>2026-04-25T12:13:54.763Z</time></trkpt><trkpt lat="45.8829494" lon="13.8571505"><ele>106.0</ele><time>2026-04-25T12:13:55.763Z</time></trkpt><trkpt lat="45.8829933" lon="13.8570737"><ele>106.0</ele><time>2026-04-25T12:13:56.763Z</time></trkpt><trkpt lat="45.8830712" lon="13.8569451"><ele>106.0</ele><time>2026-04-25T12:13:58.763Z</time></trkpt><trkpt lat="45.8831486" lon="13.8568713"><ele>106.0</ele><time>2026-04-25T12:14:00.763Z</time></trkpt><trkpt lat="45.8832281" lon="13.8568584"><ele>106.0</ele><time>2026-04-25T12:14:02.763Z</time></trkpt><trkpt lat="45.8833199" lon="13.8568864"><ele>106.0</ele><time>2026-04-25T12:14:04.763Z</time></trkpt><trkpt lat="45.8834221" lon="13.8569248"><ele>106.6</ele><time>2026-04-25T12:14:06.762Z</time></trkpt><trkpt lat="45.8835348" lon="13.8569867"><ele>107.19999999999999</ele><time>2026-04-25T12:14:08.764Z</time></trkpt><trkpt lat="45.8835977" lon="13.8570215"><ele>107.80000000000001</ele><time>2026-04-25T12:14:09.762Z</time></trkpt><trkpt lat="45.8836567" lon="13.8570546"><ele>108.4</ele><time>2026-04-25T12:14:10.763Z</time></trkpt><trkpt lat="45.8837643" lon="13.8571227"><ele>109.0</ele><time>2026-04-25T12:14:12.763Z</time></trkpt><trkpt lat="45.8838563" lon="13.8571868"><ele>109.0</ele><time>2026-04-25T12:14:14.763Z</time></trkpt><trkpt lat="45.883947" lon="13.8572144"><ele>109.0</ele><time>2026-04-25T12:14:16.763Z</time></trkpt><trkpt lat="45.8840495" lon="13.8572464"><ele>109.0</ele><time>2026-04-25T12:14:18.763Z</time></trkpt><trkpt lat="45.8841349" lon="13.8572976"><ele>109.0</ele><time>2026-04-25T12:14:20.763Z</time></trkpt><trkpt lat="45.8842246" lon="13.8573733"><ele>109.0</ele><time>2026-04-25T12:14:22.763Z</time></trkpt><trkpt lat="45.8842814" lon="13.8574186"><ele>108.80000000000001</ele><time>2026-04-25T12:14:23.763Z</time></trkpt><trkpt lat="45.8843465" lon="13.8574676"><ele>108.60000000000001</ele><time>2026-04-25T12:14:24.763Z</time></trkpt><trkpt lat="45.8844388" lon="13.8575523"><ele>108.4</ele><time>2026-04-25T12:14:26.763Z</time></trkpt><trkpt lat="45.8845102" lon="13.8576646"><ele>108.2</ele><time>2026-04-25T12:14:28.762Z</time></trkpt><trkpt lat="45.8846059" lon="13.8577646"><ele>108.0</ele><time>2026-04-25T12:14:30.763Z</time></trkpt><trkpt lat="45.8846757" lon="13.85775"><ele>109.0</ele><time>2026-04-25T12:14:32.762Z</time></trkpt><trkpt lat="45.8847529" lon="13.8576904"><ele>110.00000000000001</ele><time>2026-04-25T12:14:34.763Z</time></trkpt><trkpt lat="45.8848611" lon="13.8576886"><ele>111.00000000000001</ele><time>2026-04-25T12:14:36.763Z</time></trkpt><trkpt lat="45.8849492" lon="13.8577972"><ele>112.0</ele><time>2026-04-25T12:14:38.763Z</time></trkpt><trkpt lat="45.8849904" lon="13.8579074"><ele>113.0</ele><time>2026-04-25T12:14:39.763Z</time></trkpt><trkpt lat="45.885021" lon="13.8580167"><ele>112.99999999999999</ele><time>2026-04-25T12:14:40.763Z</time></trkpt><trkpt lat="45.8850544" lon="13.8581264"><ele>113.0</ele><time>2026-04-25T12:14:41.763Z</time></trkpt><trkpt lat="45.8850971" lon="13.8582222"><ele>113.0</ele><time>2026-04-25T12:14:42.763Z</time></trkpt><trkpt lat="45.8851457" lon="13.858307"><ele>113.0</ele><time>2026-04-25T12:14:43.763Z</time></trkpt><trkpt lat="45.885187" lon="13.8583784"><ele>112.99999999999999</ele><time>2026-04-25T12:14:44.763Z</time></trkpt><trkpt lat="45.8852248" lon="13.8584518"><ele>113.0</ele><time>2026-04-25T12:14:45.762Z</time></trkpt><trkpt lat="45.8852833" lon="13.858585"><ele>113.2</ele><time>2026-04-25T12:14:47.763Z</time></trkpt><trkpt lat="45.8852982" lon="13.858744"><ele>113.4</ele><time>2026-04-25T12:14:49.763Z</time></trkpt><trkpt lat="45.8853161" lon="13.8589287"><ele>113.60000000000001</ele><time>2026-04-25T12:14:51.763Z</time></trkpt><trkpt lat="45.8853451" lon="13.8590315"><ele>113.80000000000001</ele><time>2026-04-25T12:14:52.763Z</time></trkpt><trkpt lat="45.8853875" lon="13.8591272"><ele>114.0</ele><time>2026-04-25T12:14:53.763Z</time></trkpt><trkpt lat="45.885428" lon="13.8592202"><ele>113.83333333333333</ele><time>2026-04-25T12:14:54.763Z</time></trkpt><trkpt lat="45.885509" lon="13.8593007"><ele>113.66666666666666</ele><time>2026-04-25T12:14:55.763Z</time></trkpt><trkpt lat="45.8855746" lon="13.8593757"><ele>113.5</ele><time>2026-04-25T12:14:56.763Z</time></trkpt><trkpt lat="45.8856357" lon="13.8594535"><ele>113.33333333333333</ele><time>2026-04-25T12:14:57.763Z</time></trkpt><trkpt lat="45.88568" lon="13.8595359"><ele>113.16666666666666</ele><time>2026-04-25T12:14:58.763Z</time></trkpt><trkpt lat="45.8857279" lon="13.8596822"><ele>113.0</ele><time>2026-04-25T12:15:00.762Z</time></trkpt><trkpt lat="45.885794" lon="13.8597988"><ele>112.99999999999999</ele><time>2026-04-25T12:15:02.763Z</time></trkpt><trkpt lat="45.8858353" lon="13.8598977"><ele>113.0</ele><time>2026-04-25T12:15:04.763Z</time></trkpt><trkpt lat="45.8858117" lon="13.8600052"><ele>113.0</ele><time>2026-04-25T12:15:06.762Z</time></trkpt><trkpt lat="45.8857579" lon="13.8601091"><ele>113.0</ele><time>2026-04-25T12:15:08.763Z</time></trkpt><trkpt lat="45.8857208" lon="13.8602147"><ele>112.99999999999999</ele><time>2026-04-25T12:15:10.763Z</time></trkpt><trkpt lat="45.8856471" lon="13.8602821"><ele>113.0</ele><time>2026-04-25T12:15:12.763Z</time></trkpt><trkpt lat="45.8855566" lon="13.8602683"><ele>112.99999999999999</ele><time>2026-04-25T12:15:14.763Z</time></trkpt><trkpt lat="45.8854509" lon="13.8602326"><ele>113.0</ele><time>2026-04-25T12:15:16.763Z</time></trkpt><trkpt lat="45.8853632" lon="13.8601711"><ele>113.0</ele><time>2026-04-25T12:15:18.763Z</time></trkpt><trkpt lat="45.8852804" lon="13.8600805"><ele>113.0</ele><time>2026-04-25T12:15:20.763Z</time></trkpt><trkpt lat="45.8852316" lon="13.8600203"><ele>112.99999999999999</ele><time>2026-04-25T12:15:21.762Z</time></trkpt><trkpt lat="45.8851624" lon="13.8600051"><ele>113.0</ele><time>2026-04-25T12:15:23.763Z</time></trkpt><trkpt lat="45.8850861" lon="13.8600389"><ele>114.2</ele><time>2026-04-25T12:15:25.763Z</time></trkpt><trkpt lat="45.8850648" lon="13.8601594"><ele>115.4</ele><time>2026-04-25T12:15:27.763Z</time></trkpt><trkpt lat="45.8850487" lon="13.8603041"><ele>116.60000000000001</ele><time>2026-04-25T12:15:29.763Z</time></trkpt><trkpt lat="45.8849864" lon="13.8604461"><ele>117.80000000000001</ele><time>2026-04-25T12:15:31.763Z</time></trkpt><trkpt lat="45.8849323" lon="13.860514"><ele>119.0</ele><time>2026-04-25T12:15:32.763Z</time></trkpt><trkpt lat="45.8848793" lon="13.8606489"><ele>119.0</ele><time>2026-04-25T12:15:34.763Z</time></trkpt><trkpt lat="45.8848696" lon="13.8607415"><ele>119.0</ele><time>2026-04-25T12:15:35.763Z</time></trkpt><trkpt lat="45.8848739" lon="13.8608642"><ele>119.0</ele><time>2026-04-25T12:15:36.764Z</time></trkpt><trkpt lat="45.8848762" lon="13.8609893"><ele>119.0</ele><time>2026-04-25T12:15:37.763Z</time></trkpt><trkpt lat="45.8848712" lon="13.8611389"><ele>119.0</ele><time>2026-04-25T12:15:38.763Z</time></trkpt><trkpt lat="45.8848618" lon="13.8612943"><ele>119.16666666666666</ele><time>2026-04-25T12:15:39.763Z</time></trkpt><trkpt lat="45.8848506" lon="13.861431"><ele>119.33333333333333</ele><time>2026-04-25T12:15:40.764Z</time></trkpt><trkpt lat="45.8848358" lon="13.8615568"><ele>119.5</ele><time>2026-04-25T12:15:41.763Z</time></trkpt><trkpt lat="45.8848188" lon="13.8616718"><ele>119.66666666666666</ele><time>2026-04-25T12:15:42.763Z</time></trkpt><trkpt lat="45.8847973" lon="13.861784"><ele>119.83333333333333</ele><time>2026-04-25T12:15:43.762Z</time></trkpt><trkpt lat="45.8847728" lon="13.8618876"><ele>120.0</ele><time>2026-04-25T12:15:44.763Z</time></trkpt><trkpt lat="45.8847492" lon="13.8619915"><ele>120.16666666666667</ele><time>2026-04-25T12:15:45.763Z</time></trkpt><trkpt lat="45.8847334" lon="13.8620934"><ele>120.33333333333334</ele><time>2026-04-25T12:15:46.763Z</time></trkpt><trkpt lat="45.8847183" lon="13.8621997"><ele>120.5</ele><time>2026-04-25T12:15:47.762Z</time></trkpt><trkpt lat="45.8847038" lon="13.8623021"><ele>120.66666666666667</ele><time>2026-04-25T12:15:48.763Z</time></trkpt><trkpt lat="45.8846919" lon="13.8624142"><ele>120.83333333333334</ele><time>2026-04-25T12:15:49.763Z</time></trkpt><trkpt lat="45.8846785" lon="13.8625243"><ele>121.0</ele><time>2026-04-25T12:15:50.763Z</time></trkpt><trkpt lat="45.884668" lon="13.8626318"><ele>121.50000000000001</ele><time>2026-04-25T12:15:51.763Z</time></trkpt><trkpt lat="45.8846573" lon="13.8627392"><ele>122.0</ele><time>2026-04-25T12:15:52.762Z</time></trkpt><trkpt lat="45.8846483" lon="13.8628505"><ele>122.5</ele><time>2026-04-25T12:15:53.763Z</time></trkpt><trkpt lat="45.8846366" lon="13.8629631"><ele>123.0</ele><time>2026-04-25T12:15:54.763Z</time></trkpt><trkpt lat="45.8846202" lon="13.8630722"><ele>123.50000000000001</ele><time>2026-04-25T12:15:55.763Z</time></trkpt><trkpt lat="45.8846028" lon="13.8631811"><ele>124.0</ele><time>2026-04-25T12:15:56.763Z</time></trkpt><trkpt lat="45.8845838" lon="13.8632909"><ele>124.00000000000001</ele><time>2026-04-25T12:15:57.763Z</time></trkpt><trkpt lat="45.8845652" lon="13.8633985"><ele>124.0</ele><time>2026-04-25T12:15:58.763Z</time></trkpt><trkpt lat="45.8845497" lon="13.8635097"><ele>124.0</ele><time>2026-04-25T12:15:59.763Z</time></trkpt><trkpt lat="45.88454" lon="13.8636231"><ele>124.0</ele><time>2026-04-25T12:16:00.763Z</time></trkpt><trkpt lat="45.8845372" lon="13.8637351"><ele>124.00000000000001</ele><time>2026-04-25T12:16:01.763Z</time></trkpt><trkpt lat="45.8845318" lon="13.8638469"><ele>124.0</ele><time>2026-04-25T12:16:02.762Z</time></trkpt><trkpt lat="45.8845287" lon="13.8639593"><ele>124.50000000000001</ele><time>2026-04-25T12:16:03.763Z</time></trkpt><trkpt lat="45.8845273" lon="13.8640655"><ele>125.0</ele><time>2026-04-25T12:16:04.763Z</time></trkpt><trkpt lat="45.8845232" lon="13.8641731"><ele>125.5</ele><time>2026-04-25T12:16:05.763Z</time></trkpt><trkpt lat="45.8845137" lon="13.8642793"><ele>126.0</ele><time>2026-04-25T12:16:06.762Z</time></trkpt><trkpt lat="45.8845013" lon="13.8644491"><ele>126.50000000000001</ele><time>2026-04-25T12:16:08.762Z</time></trkpt><trkpt lat="45.8845525" lon="13.8645833"><ele>127.0</ele><time>2026-04-25T12:16:10.761Z</time></trkpt><trkpt lat="45.8846319" lon="13.8646328"><ele>127.0</ele><time>2026-04-25T12:16:12.762Z</time></trkpt><trkpt lat="45.8846528" lon="13.8647342"><ele>126.99999999999999</ele><time>2026-04-25T12:16:15.762Z</time></trkpt><trkpt lat="45.8846283" lon="13.8649037"><ele>126.99999999999999</ele><time>2026-04-25T12:16:17.761Z</time></trkpt><trkpt lat="45.8846116" lon="13.8650348"><ele>127.0</ele><time>2026-04-25T12:16:18.762Z</time></trkpt><trkpt lat="45.8845986" lon="13.865181"><ele>127.0</ele><time>2026-04-25T12:16:19.762Z</time></trkpt><trkpt lat="45.8845931" lon="13.865341"><ele>126.39999999999999</ele><time>2026-04-25T12:16:20.762Z</time></trkpt><trkpt lat="45.8845928" lon="13.8655284"><ele>125.79999999999998</ele><time>2026-04-25T12:16:21.761Z</time></trkpt><trkpt lat="45.8845929" lon="13.8656866"><ele>125.2</ele><time>2026-04-25T12:16:22.762Z</time></trkpt><trkpt lat="45.8845884" lon="13.8658393"><ele>124.6</ele><time>2026-04-25T12:16:23.762Z</time></trkpt><trkpt lat="45.8845853" lon="13.8659783"><ele>124.0</ele><time>2026-04-25T12:16:24.762Z</time></trkpt><trkpt lat="45.8845855" lon="13.8661085"><ele>123.16666666666667</ele><time>2026-04-25T12:16:25.762Z</time></trkpt><trkpt lat="45.8845867" lon="13.8662303"><ele>122.33333333333334</ele><time>2026-04-25T12:16:26.761Z</time></trkpt><trkpt lat="45.884587" lon="13.8663446"><ele>121.5</ele><time>2026-04-25T12:16:27.762Z</time></trkpt><trkpt lat="45.8845871" lon="13.8664515"><ele>120.66666666666666</ele><time>2026-04-25T12:16:28.762Z</time></trkpt><trkpt lat="45.8845775" lon="13.8665543"><ele>119.83333333333333</ele><time>2026-04-25T12:16:29.762Z</time></trkpt><trkpt lat="45.8845668" lon="13.8666543"><ele>119.0</ele><time>2026-04-25T12:16:30.762Z</time></trkpt><trkpt lat="45.8845633" lon="13.86676"><ele>118.85714285714286</ele><time>2026-04-25T12:16:31.761Z</time></trkpt><trkpt lat="45.8845628" lon="13.8668645"><ele>118.71428571428572</ele><time>2026-04-25T12:16:32.762Z</time></trkpt><trkpt lat="45.8845599" lon="13.8669689"><ele>118.57142857142857</ele><time>2026-04-25T12:16:33.762Z</time></trkpt><trkpt lat="45.8845578" lon="13.8670672"><ele>118.42857142857143</ele><time>2026-04-25T12:16:34.762Z</time></trkpt><trkpt lat="45.8845569" lon="13.8671593"><ele>118.28571428571429</ele><time>2026-04-25T12:16:35.762Z</time></trkpt><trkpt lat="45.8845617" lon="13.8672557"><ele>118.14285714285714</ele><time>2026-04-25T12:16:36.761Z</time></trkpt><trkpt lat="45.8845696" lon="13.8673652"><ele>118.0</ele><time>2026-04-25T12:16:37.762Z</time></trkpt><trkpt lat="45.8845756" lon="13.8674758"><ele>118.00000000000001</ele><time>2026-04-25T12:16:38.762Z</time></trkpt><trkpt lat="45.8845813" lon="13.8675896"><ele>118.0</ele><time>2026-04-25T12:16:39.762Z</time></trkpt><trkpt lat="45.8845863" lon="13.8677022"><ele>118.0</ele><time>2026-04-25T12:16:40.762Z</time></trkpt><trkpt lat="45.8845897" lon="13.8678144"><ele>118.0</ele><time>2026-04-25T12:16:41.762Z</time></trkpt><trkpt lat="45.8845934" lon="13.8679276"><ele>118.00000000000001</ele><time>2026-04-25T12:16:42.762Z</time></trkpt><trkpt lat="45.8845963" lon="13.8680385"><ele>118.0</ele><time>2026-04-25T12:16:43.762Z</time></trkpt><trkpt lat="45.884598" lon="13.8681412"><ele>118.00000000000001</ele><time>2026-04-25T12:16:44.762Z</time></trkpt><trkpt lat="45.8846022" lon="13.8682426"><ele>118.0</ele><time>2026-04-25T12:16:45.762Z</time></trkpt><trkpt lat="45.8846059" lon="13.8683515"><ele>118.0</ele><time>2026-04-25T12:16:46.762Z</time></trkpt><trkpt lat="45.8846083" lon="13.8684606"><ele>118.0</ele><time>2026-04-25T12:16:47.762Z</time></trkpt><trkpt lat="45.884612" lon="13.86857"><ele>118.00000000000001</ele><time>2026-04-25T12:16:48.761Z</time></trkpt><trkpt lat="45.8846165" lon="13.8686809"><ele>118.0</ele><time>2026-04-25T12:16:49.762Z</time></trkpt><trkpt lat="45.8846193" lon="13.8687922"><ele>117.66666666666667</ele><time>2026-04-25T12:16:50.762Z</time></trkpt><trkpt lat="45.8846218" lon="13.868905"><ele>117.33333333333334</ele><time>2026-04-25T12:16:51.762Z</time></trkpt><trkpt lat="45.884624" lon="13.8690123"><ele>117.0</ele><time>2026-04-25T12:16:52.762Z</time></trkpt><trkpt lat="45.8846273" lon="13.869126"><ele>116.66666666666666</ele><time>2026-04-25T12:16:53.762Z</time></trkpt><trkpt lat="45.8846303" lon="13.8692385"><ele>116.33333333333333</ele><time>2026-04-25T12:16:54.761Z</time></trkpt><trkpt lat="45.8846374" lon="13.8693496"><ele>116.0</ele><time>2026-04-25T12:16:55.762Z</time></trkpt><trkpt lat="45.8846373" lon="13.8694583"><ele>115.85714285714288</ele><time>2026-04-25T12:16:56.762Z</time></trkpt><trkpt lat="45.8846299" lon="13.8695637"><ele>115.71428571428572</ele><time>2026-04-25T12:16:57.762Z</time></trkpt><trkpt lat="45.8846117" lon="13.8696613"><ele>115.57142857142857</ele><time>2026-04-25T12:16:58.762Z</time></trkpt><trkpt lat="45.8845872" lon="13.8697636"><ele>115.42857142857143</ele><time>2026-04-25T12:16:59.762Z</time></trkpt><trkpt lat="45.8845638" lon="13.8698651"><ele>115.28571428571428</ele><time>2026-04-25T12:17:00.762Z</time></trkpt><trkpt lat="45.8845427" lon="13.8699705"><ele>115.14285714285712</ele><time>2026-04-25T12:17:01.762Z</time></trkpt><trkpt lat="45.8845202" lon="13.8700748"><ele>114.99999999999999</ele><time>2026-04-25T12:17:02.762Z</time></trkpt><trkpt lat="45.8844943" lon="13.8701744"><ele>114.57142857142856</ele><time>2026-04-25T12:17:03.762Z</time></trkpt><trkpt lat="45.8844687" lon="13.8702724"><ele>114.14285714285714</ele><time>2026-04-25T12:17:04.762Z</time></trkpt><trkpt lat="45.8844463" lon="13.8703785"><ele>113.71428571428571</ele><time>2026-04-25T12:17:05.762Z</time></trkpt><trkpt lat="45.8844266" lon="13.8704826"><ele>113.28571428571428</ele><time>2026-04-25T12:17:06.761Z</time></trkpt><trkpt lat="45.8844078" lon="13.8705861"><ele>112.85714285714286</ele><time>2026-04-25T12:17:07.762Z</time></trkpt><trkpt lat="45.8843909" lon="13.8706827"><ele>112.42857142857143</ele><time>2026-04-25T12:17:08.762Z</time></trkpt><trkpt lat="45.884368" lon="13.8707819"><ele>112.0</ele><time>2026-04-25T12:17:09.762Z</time></trkpt><trkpt lat="45.8843418" lon="13.870881"><ele>111.71428571428571</ele><time>2026-04-25T12:17:10.762Z</time></trkpt><trkpt lat="45.8843178" lon="13.8709805"><ele>111.42857142857143</ele><time>2026-04-25T12:17:11.761Z</time></trkpt><trkpt lat="45.884296" lon="13.8710824"><ele>111.14285714285714</ele><time>2026-04-25T12:17:12.762Z</time></trkpt><trkpt lat="45.8842689" lon="13.8711778"><ele>110.85714285714286</ele><time>2026-04-25T12:17:13.762Z</time></trkpt><trkpt lat="45.8842435" lon="13.8712728"><ele>110.57142857142857</ele><time>2026-04-25T12:17:14.762Z</time></trkpt><trkpt lat="45.8842216" lon="13.8713715"><ele>110.28571428571428</ele><time>2026-04-25T12:17:15.762Z</time></trkpt><trkpt lat="45.8842033" lon="13.8714712"><ele>110.0</ele><time>2026-04-25T12:17:16.762Z</time></trkpt><trkpt lat="45.8841797" lon="13.871571"><ele>109.99999999999999</ele><time>2026-04-25T12:17:17.761Z</time></trkpt><trkpt lat="45.8841533" lon="13.8716727"><ele>110.0</ele><time>2026-04-25T12:17:18.762Z</time></trkpt><trkpt lat="45.8841268" lon="13.8717745"><ele>110.0</ele><time>2026-04-25T12:17:19.762Z</time></trkpt><trkpt lat="45.8841068" lon="13.8718937"><ele>110.0</ele><time>2026-04-25T12:17:20.762Z</time></trkpt><trkpt lat="45.8840881" lon="13.8720236"><ele>109.99999999999999</ele><time>2026-04-25T12:17:21.762Z</time></trkpt><trkpt lat="45.884074" lon="13.8721517"><ele>110.0</ele><time>2026-04-25T12:17:22.762Z</time></trkpt><trkpt lat="45.8840502" lon="13.872286"><ele>109.99999999999999</ele><time>2026-04-25T12:17:23.762Z</time></trkpt><trkpt lat="45.8840247" lon="13.8724179"><ele>110.0</ele><time>2026-04-25T12:17:24.762Z</time></trkpt><trkpt lat="45.8839958" lon="13.8725447"><ele>110.0</ele><time>2026-04-25T12:17:25.761Z</time></trkpt><trkpt lat="45.8839595" lon="13.8726647"><ele>110.0</ele><time>2026-04-25T12:17:26.762Z</time></trkpt><trkpt lat="45.8839234" lon="13.8727749"><ele>109.99999999999999</ele><time>2026-04-25T12:17:27.762Z</time></trkpt><trkpt lat="45.8838854" lon="13.8728761"><ele>110.0</ele><time>2026-04-25T12:17:28.762Z</time></trkpt><trkpt lat="45.8838482" lon="13.8729861"><ele>109.49999999999999</ele><time>2026-04-25T12:17:29.761Z</time></trkpt><trkpt lat="45.8838175" lon="13.8730985"><ele>109.0</ele><time>2026-04-25T12:17:30.762Z</time></trkpt><trkpt lat="45.8837884" lon="13.8732108"><ele>108.5</ele><time>2026-04-25T12:17:31.762Z</time></trkpt><trkpt lat="45.8837637" lon="13.8733229"><ele>108.0</ele><time>2026-04-25T12:17:32.761Z</time></trkpt><trkpt lat="45.8837385" lon="13.8734374"><ele>107.49999999999999</ele><time>2026-04-25T12:17:33.762Z</time></trkpt><trkpt lat="45.8837119" lon="13.873551"><ele>107.0</ele><time>2026-04-25T12:17:34.762Z</time></trkpt><trkpt lat="45.8836821" lon="13.8736648"><ele>106.83333333333333</ele><time>2026-04-25T12:17:35.762Z</time></trkpt><trkpt lat="45.8836526" lon="13.8737768"><ele>106.66666666666666</ele><time>2026-04-25T12:17:36.762Z</time></trkpt><trkpt lat="45.8836223" lon="13.8738891"><ele>106.5</ele><time>2026-04-25T12:17:37.761Z</time></trkpt><trkpt lat="45.8835977" lon="13.8740034"><ele>106.33333333333334</ele><time>2026-04-25T12:17:38.762Z</time></trkpt><trkpt lat="45.8835723" lon="13.8741136"><ele>106.16666666666667</ele><time>2026-04-25T12:17:39.762Z</time></trkpt><trkpt lat="45.883548" lon="13.8742317"><ele>106.0</ele><time>2026-04-25T12:17:40.762Z</time></trkpt><trkpt lat="45.8835223" lon="13.8743545"><ele>106.00000000000001</ele><time>2026-04-25T12:17:41.762Z</time></trkpt><trkpt lat="45.8834943" lon="13.8744714"><ele>106.0</ele><time>2026-04-25T12:17:42.762Z</time></trkpt><trkpt lat="45.8834688" lon="13.8745896"><ele>106.0</ele><time>2026-04-25T12:17:43.762Z</time></trkpt><trkpt lat="45.8834404" lon="13.8747038"><ele>106.0</ele><time>2026-04-25T12:17:44.761Z</time></trkpt><trkpt lat="45.8834132" lon="13.8748124"><ele>106.00000000000001</ele><time>2026-04-25T12:17:45.762Z</time></trkpt><trkpt lat="45.8833862" lon="13.8749112"><ele>106.0</ele><time>2026-04-25T12:17:46.762Z</time></trkpt><trkpt lat="45.8833593" lon="13.8750066"><ele>105.66666666666667</ele><time>2026-04-25T12:17:47.762Z</time></trkpt><trkpt lat="45.8833387" lon="13.8750991"><ele>105.33333333333334</ele><time>2026-04-25T12:17:48.761Z</time></trkpt><trkpt lat="45.8833098" lon="13.8752566"><ele>105.0</ele><time>2026-04-25T12:17:50.762Z</time></trkpt><trkpt lat="45.8832903" lon="13.8753434"><ele>104.66666666666666</ele><time>2026-04-25T12:17:52.762Z</time></trkpt><trkpt lat="45.8832117" lon="13.8753536"><ele>104.33333333333333</ele><time>2026-04-25T12:17:55.762Z</time></trkpt><trkpt lat="45.8831526" lon="13.875312"><ele>104.0</ele><time>2026-04-25T12:17:56.762Z</time></trkpt><trkpt lat="45.8830688" lon="13.875235"><ele>104.0</ele><time>2026-04-25T12:17:57.762Z</time></trkpt><trkpt lat="45.8829665" lon="13.875143"><ele>104.0</ele><time>2026-04-25T12:17:58.763Z</time></trkpt><trkpt lat="45.8828508" lon="13.8750337"><ele>104.0</ele><time>2026-04-25T12:17:59.761Z</time></trkpt><trkpt lat="45.8827491" lon="13.8749265"><ele>104.0</ele><time>2026-04-25T12:18:00.762Z</time></trkpt><trkpt lat="45.8826583" lon="13.8748331"><ele>103.83333333333333</ele><time>2026-04-25T12:18:01.762Z</time></trkpt><trkpt lat="45.8825813" lon="13.8747538"><ele>103.66666666666666</ele><time>2026-04-25T12:18:02.761Z</time></trkpt><trkpt lat="45.8825186" lon="13.8746896"><ele>103.5</ele><time>2026-04-25T12:18:03.762Z</time></trkpt><trkpt lat="45.8824238" lon="13.8746407"><ele>103.33333333333334</ele><time>2026-04-25T12:18:05.762Z</time></trkpt><trkpt lat="45.8823836" lon="13.8747255"><ele>103.16666666666667</ele><time>2026-04-25T12:18:07.762Z</time></trkpt><trkpt lat="45.882376" lon="13.8748155"><ele>103.0</ele><time>2026-04-25T12:18:08.762Z</time></trkpt><trkpt lat="45.8823907" lon="13.8749547"><ele>102.75</ele><time>2026-04-25T12:18:09.762Z</time></trkpt><trkpt lat="45.8824106" lon="13.8751152"><ele>102.5</ele><time>2026-04-25T12:18:10.762Z</time></trkpt><trkpt lat="45.8824337" lon="13.8753013"><ele>102.25</ele><time>2026-04-25T12:18:11.762Z</time></trkpt><trkpt lat="45.8824552" lon="13.8754955"><ele>102.0</ele><time>2026-04-25T12:18:12.761Z</time></trkpt><trkpt lat="45.8824765" lon="13.8757032"><ele>102.0</ele><time>2026-04-25T12:18:13.762Z</time></trkpt><trkpt lat="45.8825007" lon="13.8759163"><ele>102.0</ele><time>2026-04-25T12:18:14.762Z</time></trkpt><trkpt lat="45.8825304" lon="13.8761356"><ele>102.0</ele><time>2026-04-25T12:18:15.761Z</time></trkpt><trkpt lat="45.8825572" lon="13.8763539"><ele>102.25</ele><time>2026-04-25T12:18:16.762Z</time></trkpt><trkpt lat="45.8825836" lon="13.876571"><ele>102.5</ele><time>2026-04-25T12:18:17.762Z</time></trkpt><trkpt lat="45.8826053" lon="13.876782"><ele>102.75</ele><time>2026-04-25T12:18:18.762Z</time></trkpt><trkpt lat="45.8826258" lon="13.8769816"><ele>103.0</ele><time>2026-04-25T12:18:19.762Z</time></trkpt><trkpt lat="45.8826454" lon="13.8771703"><ele>103.0</ele><time>2026-04-25T12:18:20.762Z</time></trkpt><trkpt lat="45.8826624" lon="13.8773506"><ele>103.0</ele><time>2026-04-25T12:18:21.762Z</time></trkpt><trkpt lat="45.8826843" lon="13.877512"><ele>103.0</ele><time>2026-04-25T12:18:22.762Z</time></trkpt><trkpt lat="45.8827046" lon="13.8776543"><ele>103.0</ele><time>2026-04-25T12:18:23.762Z</time></trkpt><trkpt lat="45.8827257" lon="13.8777764"><ele>103.0</ele><time>2026-04-25T12:18:24.762Z</time></trkpt><trkpt lat="45.8827452" lon="13.8778735"><ele>103.0</ele><time>2026-04-25T12:18:25.762Z</time></trkpt><trkpt lat="45.8827621" lon="13.8780089"><ele>103.0</ele><time>2026-04-25T12:18:27.761Z</time></trkpt><trkpt lat="45.8827167" lon="13.878078"><ele>103.0</ele><time>2026-04-25T12:18:29.762Z</time></trkpt><trkpt lat="45.8826658" lon="13.8780171"><ele>103.0</ele><time>2026-04-25T12:18:31.762Z</time></trkpt><trkpt lat="45.8826342" lon="13.877805"><ele>103.0</ele><time>2026-04-25T12:18:33.762Z</time></trkpt><trkpt lat="45.8826137" lon="13.8776448"><ele>103.2</ele><time>2026-04-25T12:18:34.762Z</time></trkpt><trkpt lat="45.88259" lon="13.8774809"><ele>103.4</ele><time>2026-04-25T12:18:35.762Z</time></trkpt><trkpt lat="45.8825707" lon="13.8773318"><ele>103.60000000000001</ele><time>2026-04-25T12:18:36.762Z</time></trkpt><trkpt lat="45.882553" lon="13.8771996"><ele>103.80000000000001</ele><time>2026-04-25T12:18:37.762Z</time></trkpt><trkpt lat="45.8825399" lon="13.8770929"><ele>104.0</ele><time>2026-04-25T12:18:38.762Z</time></trkpt><trkpt lat="45.8825191" lon="13.8770054"><ele>104.0</ele><time>2026-04-25T12:18:39.762Z</time></trkpt><trkpt lat="45.8824371" lon="13.8769164"><ele>104.0</ele><time>2026-04-25T12:18:41.761Z</time></trkpt><trkpt lat="45.8823046" lon="13.8769588"><ele>104.0</ele><time>2026-04-25T12:18:43.762Z</time></trkpt><trkpt lat="45.8822108" lon="13.8770213"><ele>104.0</ele><time>2026-04-25T12:18:44.762Z</time></trkpt><trkpt lat="45.8821105" lon="13.8771033"><ele>104.0</ele><time>2026-04-25T12:18:45.762Z</time></trkpt><trkpt lat="45.8820169" lon="13.8771857"><ele>104.0</ele><time>2026-04-25T12:18:46.762Z</time></trkpt><trkpt lat="45.8819251" lon="13.8772792"><ele>104.0</ele><time>2026-04-25T12:18:47.762Z</time></trkpt><trkpt lat="45.8818466" lon="13.8773852"><ele>104.0</ele><time>2026-04-25T12:18:48.762Z</time></trkpt><trkpt lat="45.8817743" lon="13.8775032"><ele>104.0</ele><time>2026-04-25T12:18:49.762Z</time></trkpt><trkpt lat="45.8817098" lon="13.8776237"><ele>103.4</ele><time>2026-04-25T12:18:50.762Z</time></trkpt><trkpt lat="45.8816524" lon="13.8777588"><ele>102.80000000000001</ele><time>2026-04-25T12:18:51.761Z</time></trkpt><trkpt lat="45.8816013" lon="13.8779007"><ele>102.19999999999999</ele><time>2026-04-25T12:18:52.762Z</time></trkpt><trkpt lat="45.8815497" lon="13.8780415"><ele>101.6</ele><time>2026-04-25T12:18:53.761Z</time></trkpt><trkpt lat="45.8814993" lon="13.8781768"><ele>101.0</ele><time>2026-04-25T12:18:54.761Z</time></trkpt><trkpt lat="45.8814534" lon="13.8783053"><ele>100.99999999999999</ele><time>2026-04-25T12:18:55.761Z</time></trkpt><trkpt lat="45.8814098" lon="13.8784219"><ele>101.0</ele><time>2026-04-25T12:18:56.761Z</time></trkpt><trkpt lat="45.8813679" lon="13.8785306"><ele>101.0</ele><time>2026-04-25T12:18:57.76Z</time></trkpt><trkpt lat="45.8813224" lon="13.8786258"><ele>101.0</ele><time>2026-04-25T12:18:58.761Z</time></trkpt><trkpt lat="45.8812727" lon="13.8787028"><ele>100.99999999999999</ele><time>2026-04-25T12:18:59.761Z</time></trkpt><trkpt lat="45.8812204" lon="13.8787635"><ele>101.0</ele><time>2026-04-25T12:19:00.761Z</time></trkpt><trkpt lat="45.8811616" lon="13.8788132"><ele>101.16666666666666</ele><time>2026-04-25T12:19:01.761Z</time></trkpt><trkpt lat="45.8810519" lon="13.8788591"><ele>101.33333333333333</ele><time>2026-04-25T12:19:03.761Z</time></trkpt><trkpt lat="45.8809806" lon="13.8788792"><ele>101.5</ele><time>2026-04-25T12:19:05.761Z</time></trkpt><trkpt lat="45.8809453" lon="13.8789702"><ele>101.66666666666666</ele><time>2026-04-25T12:26:43.759Z</time></trkpt><trkpt lat="45.8808894" lon="13.8790384"><ele>101.83333333333333</ele><time>2026-04-25T12:26:44.759Z</time></trkpt><trkpt lat="45.8808414" lon="13.8791088"><ele>102.0</ele><time>2026-04-25T12:26:45.759Z</time></trkpt><trkpt lat="45.8807919" lon="13.8791817"><ele>101.66666666666667</ele><time>2026-04-25T12:26:46.759Z</time></trkpt><trkpt lat="45.880732" lon="13.8792527"><ele>101.33333333333334</ele><time>2026-04-25T12:26:47.759Z</time></trkpt><trkpt lat="45.8806665" lon="13.8793123"><ele>101.0</ele><time>2026-04-25T12:26:48.759Z</time></trkpt><trkpt lat="45.8805989" lon="13.8793638"><ele>100.66666666666667</ele><time>2026-04-25T12:26:49.76Z</time></trkpt><trkpt lat="45.8805268" lon="13.8794086"><ele>100.33333333333334</ele><time>2026-04-25T12:26:50.758Z</time></trkpt><trkpt lat="45.8804676" lon="13.8794518"><ele>100.0</ele><time>2026-04-25T12:26:51.759Z</time></trkpt><trkpt lat="45.8803633" lon="13.8795446"><ele>100.00000000000001</ele><time>2026-04-25T12:26:53.759Z</time></trkpt><trkpt lat="45.8803234" lon="13.8796166"><ele>100.0</ele><time>2026-04-25T12:26:54.759Z</time></trkpt><trkpt lat="45.8802978" lon="13.8797046"><ele>100.0</ele><time>2026-04-25T12:26:55.759Z</time></trkpt><trkpt lat="45.8802873" lon="13.8798087"><ele>100.0</ele><time>2026-04-25T12:26:56.759Z</time></trkpt><trkpt lat="45.8802761" lon="13.8799173"><ele>100.0</ele><time>2026-04-25T12:26:57.759Z</time></trkpt><trkpt lat="45.8802622" lon="13.880031"><ele>100.00000000000001</ele><time>2026-04-25T12:26:58.759Z</time></trkpt><trkpt lat="45.8802457" lon="13.8801354"><ele>100.0</ele><time>2026-04-25T12:26:59.759Z</time></trkpt><trkpt lat="45.8802199" lon="13.8802302"><ele>99.85714285714286</ele><time>2026-04-25T12:27:00.758Z</time></trkpt><trkpt lat="45.8801831" lon="13.8803233"><ele>99.71428571428572</ele><time>2026-04-25T12:27:01.758Z</time></trkpt><trkpt lat="45.8801426" lon="13.8804046"><ele>99.57142857142858</ele><time>2026-04-25T12:27:02.759Z</time></trkpt><trkpt lat="45.8800859" lon="13.8804765"><ele>99.42857142857143</ele><time>2026-04-25T12:27:03.759Z</time></trkpt><trkpt lat="45.8800245" lon="13.8805311"><ele>99.28571428571428</ele><time>2026-04-25T12:27:04.759Z</time></trkpt><trkpt lat="45.8799556" lon="13.8805644"><ele>99.14285714285715</ele><time>2026-04-25T12:27:05.759Z</time></trkpt><trkpt lat="45.8798863" lon="13.8805909"><ele>99.0</ele><time>2026-04-25T12:27:06.759Z</time></trkpt><trkpt lat="45.8798241" lon="13.8806071"><ele>99.0</ele><time>2026-04-25T12:27:07.759Z</time></trkpt><trkpt lat="45.8797269" lon="13.8807077"><ele>99.0</ele><time>2026-04-25T12:27:09.758Z</time></trkpt><trkpt lat="45.8796805" lon="13.8808756"><ele>99.0</ele><time>2026-04-25T12:27:11.759Z</time></trkpt><trkpt lat="45.8796699" lon="13.881005"><ele>99.0</ele><time>2026-04-25T12:27:12.759Z</time></trkpt><trkpt lat="45.8796603" lon="13.8811465"><ele>99.0</ele><time>2026-04-25T12:27:13.759Z</time></trkpt><trkpt lat="45.8796488" lon="13.8812759"><ele>99.0</ele><time>2026-04-25T12:27:14.759Z</time></trkpt><trkpt lat="45.8796406" lon="13.8813927"><ele>99.0</ele><time>2026-04-25T12:27:15.759Z</time></trkpt><trkpt lat="45.8796419" lon="13.8815036"><ele>99.0</ele><time>2026-04-25T12:27:16.759Z</time></trkpt><trkpt lat="45.8796391" lon="13.8816079"><ele>99.0</ele><time>2026-04-25T12:27:17.759Z</time></trkpt><trkpt lat="45.8796295" lon="13.8817137"><ele>99.0</ele><time>2026-04-25T12:27:18.759Z</time></trkpt><trkpt lat="45.8796033" lon="13.8818217"><ele>99.0</ele><time>2026-04-25T12:27:19.758Z</time></trkpt><trkpt lat="45.8795618" lon="13.8819286"><ele>99.0</ele><time>2026-04-25T12:27:20.759Z</time></trkpt><trkpt lat="45.8795221" lon="13.8820379"><ele>99.0</ele><time>2026-04-25T12:27:21.758Z</time></trkpt><trkpt lat="45.8794792" lon="13.8821577"><ele>99.0</ele><time>2026-04-25T12:27:22.758Z</time></trkpt><trkpt lat="45.8794489" lon="13.8822855"><ele>99.0</ele><time>2026-04-25T12:27:23.759Z</time></trkpt><trkpt lat="45.8794263" lon="13.8824049"><ele>99.0</ele><time>2026-04-25T12:27:24.759Z</time></trkpt><trkpt lat="45.8794043" lon="13.8825177"><ele>99.0</ele><time>2026-04-25T12:27:25.759Z</time></trkpt><trkpt lat="45.8793873" lon="13.8826297"><ele>99.0</ele><time>2026-04-25T12:27:26.759Z</time></trkpt><trkpt lat="45.8793715" lon="13.8827416"><ele>99.0</ele><time>2026-04-25T12:27:27.759Z</time></trkpt><trkpt lat="45.8793532" lon="13.8828503"><ele>99.0</ele><time>2026-04-25T12:27:28.759Z</time></trkpt><trkpt lat="45.8793324" lon="13.8829467"><ele>99.0</ele><time>2026-04-25T12:27:29.758Z</time></trkpt><trkpt lat="45.8793033" lon="13.8830387"><ele>99.0</ele><time>2026-04-25T12:27:30.759Z</time></trkpt><trkpt lat="45.8792619" lon="13.8831293"><ele>99.0</ele><time>2026-04-25T12:27:31.759Z</time></trkpt><trkpt lat="45.8792119" lon="13.8832238"><ele>99.0</ele><time>2026-04-25T12:27:32.759Z</time></trkpt><trkpt lat="45.8791611" lon="13.8833178"><ele>99.0</ele><time>2026-04-25T12:27:33.76Z</time></trkpt><trkpt lat="45.8791084" lon="13.883407"><ele>99.0</ele><time>2026-04-25T12:27:34.759Z</time></trkpt><trkpt lat="45.8790654" lon="13.8835038"><ele>99.0</ele><time>2026-04-25T12:27:35.759Z</time></trkpt><trkpt lat="45.8790039" lon="13.8837136"><ele>99.0</ele><time>2026-04-25T12:27:37.759Z</time></trkpt><trkpt lat="45.8789943" lon="13.8838212"><ele>98.85714285714286</ele><time>2026-04-25T12:27:38.759Z</time></trkpt><trkpt lat="45.8789897" lon="13.8839289"><ele>98.71428571428571</ele><time>2026-04-25T12:27:39.759Z</time></trkpt><trkpt lat="45.8789914" lon="13.88404"><ele>98.57142857142857</ele><time>2026-04-25T12:27:40.758Z</time></trkpt><trkpt lat="45.878995" lon="13.8841569"><ele>98.42857142857143</ele><time>2026-04-25T12:27:41.759Z</time></trkpt><trkpt lat="45.8789979" lon="13.8842605"><ele>98.28571428571428</ele><time>2026-04-25T12:27:42.759Z</time></trkpt><trkpt lat="45.8789911" lon="13.8843603"><ele>98.14285714285714</ele><time>2026-04-25T12:27:43.759Z</time></trkpt><trkpt lat="45.878973" lon="13.8844592"><ele>98.0</ele><time>2026-04-25T12:27:44.759Z</time></trkpt><trkpt lat="45.8789414" lon="13.8845531"><ele>97.85714285714286</ele><time>2026-04-25T12:27:45.759Z</time></trkpt><trkpt lat="45.8789001" lon="13.8846392"><ele>97.71428571428572</ele><time>2026-04-25T12:27:46.759Z</time></trkpt><trkpt lat="45.8788529" lon="13.884717"><ele>97.57142857142857</ele><time>2026-04-25T12:27:47.759Z</time></trkpt><trkpt lat="45.8787971" lon="13.8847751"><ele>97.42857142857143</ele><time>2026-04-25T12:27:48.759Z</time></trkpt><trkpt lat="45.8787305" lon="13.8848179"><ele>97.28571428571429</ele><time>2026-04-25T12:27:49.759Z</time></trkpt><trkpt lat="45.8786602" lon="13.884848"><ele>97.14285714285714</ele><time>2026-04-25T12:27:50.759Z</time></trkpt><trkpt lat="45.8785831" lon="13.8848597"><ele>97.0</ele><time>2026-04-25T12:27:51.759Z</time></trkpt><trkpt lat="45.8785028" lon="13.8848579"><ele>96.83333333333334</ele><time>2026-04-25T12:27:52.759Z</time></trkpt><trkpt lat="45.8784296" lon="13.8848733"><ele>96.66666666666667</ele><time>2026-04-25T12:27:53.759Z</time></trkpt><trkpt lat="45.8783574" lon="13.8849051"><ele>96.5</ele><time>2026-04-25T12:27:54.759Z</time></trkpt><trkpt lat="45.8782837" lon="13.8849491"><ele>96.33333333333334</ele><time>2026-04-25T12:27:55.758Z</time></trkpt><trkpt lat="45.8782174" lon="13.8850051"><ele>96.16666666666667</ele><time>2026-04-25T12:27:56.759Z</time></trkpt><trkpt lat="45.8781487" lon="13.8850625"><ele>96.0</ele><time>2026-04-25T12:27:57.759Z</time></trkpt><trkpt lat="45.8780726" lon="13.8851081"><ele>96.0</ele><time>2026-04-25T12:27:58.759Z</time></trkpt><trkpt lat="45.8779945" lon="13.8851449"><ele>96.0</ele><time>2026-04-25T12:27:59.759Z</time></trkpt><trkpt lat="45.8779168" lon="13.8851782"><ele>96.0</ele><time>2026-04-25T12:28:00.759Z</time></trkpt><trkpt lat="45.8778439" lon="13.8852242"><ele>96.0</ele><time>2026-04-25T12:28:01.759Z</time></trkpt><trkpt lat="45.8777762" lon="13.8852863"><ele>96.0</ele><time>2026-04-25T12:28:02.759Z</time></trkpt><trkpt lat="45.8777148" lon="13.8853652"><ele>96.0</ele><time>2026-04-25T12:28:03.758Z</time></trkpt><trkpt lat="45.8776602" lon="13.8854542"><ele>96.0</ele><time>2026-04-25T12:28:04.759Z</time></trkpt><trkpt lat="45.8776051" lon="13.8855467"><ele>96.0</ele><time>2026-04-25T12:28:05.759Z</time></trkpt><trkpt lat="45.877547" lon="13.8856457"><ele>96.0</ele><time>2026-04-25T12:28:06.759Z</time></trkpt><trkpt lat="45.8774899" lon="13.8857444"><ele>96.0</ele><time>2026-04-25T12:28:07.759Z</time></trkpt><trkpt lat="45.8774333" lon="13.8858493"><ele>96.0</ele><time>2026-04-25T12:28:08.759Z</time></trkpt><trkpt lat="45.8773766" lon="13.8859488"><ele>96.0</ele><time>2026-04-25T12:28:09.759Z</time></trkpt><trkpt lat="45.8773213" lon="13.8860413"><ele>95.83333333333333</ele><time>2026-04-25T12:28:10.759Z</time></trkpt><trkpt lat="45.8772643" lon="13.8861368"><ele>95.66666666666667</ele><time>2026-04-25T12:28:11.759Z</time></trkpt><trkpt lat="45.8772123" lon="13.8862246"><ele>95.5</ele><time>2026-04-25T12:28:12.76Z</time></trkpt><trkpt lat="45.8771595" lon="13.8863137"><ele>95.33333333333334</ele><time>2026-04-25T12:28:13.759Z</time></trkpt><trkpt lat="45.8771023" lon="13.8863965"><ele>95.16666666666667</ele><time>2026-04-25T12:28:14.759Z</time></trkpt><trkpt lat="45.8770323" lon="13.8864624"><ele>95.0</ele><time>2026-04-25T12:28:15.759Z</time></trkpt><trkpt lat="45.8769637" lon="13.8865238"><ele>95.0</ele><time>2026-04-25T12:28:16.759Z</time></trkpt><trkpt lat="45.8769001" lon="13.8865854"><ele>95.0</ele><time>2026-04-25T12:28:17.759Z</time></trkpt><trkpt lat="45.876828" lon="13.8866473"><ele>95.0</ele><time>2026-04-25T12:28:18.758Z</time></trkpt><trkpt lat="45.8767538" lon="13.8867188"><ele>95.0</ele><time>2026-04-25T12:28:19.759Z</time></trkpt><trkpt lat="45.8766745" lon="13.8867911"><ele>95.0</ele><time>2026-04-25T12:28:20.759Z</time></trkpt><trkpt lat="45.8765881" lon="13.8868663"><ele>95.0</ele><time>2026-04-25T12:28:21.759Z</time></trkpt><trkpt lat="45.8764984" lon="13.8869407"><ele>94.8</ele><time>2026-04-25T12:28:22.759Z</time></trkpt><trkpt lat="45.8764053" lon="13.8870075"><ele>94.6</ele><time>2026-04-25T12:28:23.759Z</time></trkpt><trkpt lat="45.8763167" lon="13.8870727"><ele>94.4</ele><time>2026-04-25T12:28:24.758Z</time></trkpt><trkpt lat="45.8762321" lon="13.8871332"><ele>94.2</ele><time>2026-04-25T12:28:25.759Z</time></trkpt><trkpt lat="45.8761489" lon="13.8871911"><ele>94.0</ele><time>2026-04-25T12:28:26.759Z</time></trkpt><trkpt lat="45.8760678" lon="13.8872391"><ele>94.0</ele><time>2026-04-25T12:28:27.758Z</time></trkpt><trkpt lat="45.8759915" lon="13.8872809"><ele>94.0</ele><time>2026-04-25T12:28:28.759Z</time></trkpt><trkpt lat="45.8759086" lon="13.8873199"><ele>94.0</ele><time>2026-04-25T12:28:29.759Z</time></trkpt><trkpt lat="45.8758229" lon="13.8873618"><ele>94.0</ele><time>2026-04-25T12:28:30.759Z</time></trkpt><trkpt lat="45.875734" lon="13.8874156"><ele>94.0</ele><time>2026-04-25T12:28:31.759Z</time></trkpt><trkpt lat="45.8756426" lon="13.887465"><ele>93.80000000000001</ele><time>2026-04-25T12:28:32.758Z</time></trkpt><trkpt lat="45.8755526" lon="13.8875143"><ele>93.60000000000001</ele><time>2026-04-25T12:28:33.759Z</time></trkpt><trkpt lat="45.8754626" lon="13.8875666"><ele>93.4</ele><time>2026-04-25T12:28:34.758Z</time></trkpt><trkpt lat="45.8753736" lon="13.8876187"><ele>93.2</ele><time>2026-04-25T12:28:35.758Z</time></trkpt><trkpt lat="45.8752883" lon="13.8876716"><ele>93.0</ele><time>2026-04-25T12:28:36.758Z</time></trkpt><trkpt lat="45.8752077" lon="13.8877308"><ele>92.83333333333333</ele><time>2026-04-25T12:28:37.758Z</time></trkpt><trkpt lat="45.875127" lon="13.88779"><ele>92.66666666666667</ele><time>2026-04-25T12:28:38.758Z</time></trkpt><trkpt lat="45.8750565" lon="13.8878561"><ele>92.5</ele><time>2026-04-25T12:28:39.758Z</time></trkpt><trkpt lat="45.8749895" lon="13.8879307"><ele>92.33333333333334</ele><time>2026-04-25T12:28:40.757Z</time></trkpt><trkpt lat="45.8749306" lon="13.8880093"><ele>92.16666666666667</ele><time>2026-04-25T12:28:41.758Z</time></trkpt><trkpt lat="45.874869" lon="13.888093"><ele>92.0</ele><time>2026-04-25T12:28:42.758Z</time></trkpt><trkpt lat="45.8748009" lon="13.8881663"><ele>92.16666666666667</ele><time>2026-04-25T12:28:43.758Z</time></trkpt><trkpt lat="45.8747304" lon="13.8882337"><ele>92.33333333333334</ele><time>2026-04-25T12:28:44.758Z</time></trkpt><trkpt lat="45.8746586" lon="13.8882972"><ele>92.5</ele><time>2026-04-25T12:28:45.758Z</time></trkpt><trkpt lat="45.8745914" lon="13.8883626"><ele>92.66666666666667</ele><time>2026-04-25T12:28:46.758Z</time></trkpt><trkpt lat="45.8745325" lon="13.8884317"><ele>92.83333333333333</ele><time>2026-04-25T12:28:47.758Z</time></trkpt><trkpt lat="45.8744814" lon="13.8885038"><ele>93.0</ele><time>2026-04-25T12:28:48.758Z</time></trkpt><trkpt lat="45.8744351" lon="13.8885898"><ele>93.0</ele><time>2026-04-25T12:28:49.758Z</time></trkpt><trkpt lat="45.8744008" lon="13.8886833"><ele>93.0</ele><time>2026-04-25T12:28:50.758Z</time></trkpt><trkpt lat="45.8743742" lon="13.8887879"><ele>93.0</ele><time>2026-04-25T12:28:51.758Z</time></trkpt><trkpt lat="45.8743821" lon="13.8889006"><ele>93.0</ele><time>2026-04-25T12:28:52.757Z</time></trkpt><trkpt lat="45.8743723" lon="13.8890034"><ele>93.0</ele><time>2026-04-25T12:28:53.758Z</time></trkpt><trkpt lat="45.8743803" lon="13.8891093"><ele>93.0</ele><time>2026-04-25T12:28:54.758Z</time></trkpt><trkpt lat="45.8743712" lon="13.8892253"><ele>92.5</ele><time>2026-04-25T12:28:55.758Z</time></trkpt><trkpt lat="45.8744003" lon="13.8893333"><ele>92.0</ele><time>2026-04-25T12:28:56.758Z</time></trkpt><trkpt lat="45.8744063" lon="13.8894495"><ele>91.5</ele><time>2026-04-25T12:28:57.758Z</time></trkpt><trkpt lat="45.8744117" lon="13.8895707"><ele>91.0</ele><time>2026-04-25T12:28:58.757Z</time></trkpt><trkpt lat="45.8744181" lon="13.8896921"><ele>90.5</ele><time>2026-04-25T12:28:59.758Z</time></trkpt><trkpt lat="45.8744219" lon="13.8898126"><ele>90.0</ele><time>2026-04-25T12:29:00.758Z</time></trkpt><trkpt lat="45.8744206" lon="13.8899346"><ele>90.0</ele><time>2026-04-25T12:29:01.759Z</time></trkpt><trkpt lat="45.8744242" lon="13.8900592"><ele>90.0</ele><time>2026-04-25T12:29:02.758Z</time></trkpt><trkpt lat="45.8744239" lon="13.8901887"><ele>90.0</ele><time>2026-04-25T12:29:03.757Z</time></trkpt><trkpt lat="45.8744221" lon="13.8903238"><ele>90.0</ele><time>2026-04-25T12:29:04.758Z</time></trkpt><trkpt lat="45.874423" lon="13.8904707"><ele>90.0</ele><time>2026-04-25T12:29:05.758Z</time></trkpt><trkpt lat="45.874419" lon="13.8906276"><ele>90.0</ele><time>2026-04-25T12:29:06.758Z</time></trkpt><trkpt lat="45.8744134" lon="13.8907887"><ele>90.0</ele><time>2026-04-25T12:29:07.758Z</time></trkpt><trkpt lat="45.8744123" lon="13.8909513"><ele>90.0</ele><time>2026-04-25T12:29:08.758Z</time></trkpt><trkpt lat="45.8744096" lon="13.8911128"><ele>90.0</ele><time>2026-04-25T12:29:09.758Z</time></trkpt><trkpt lat="45.8744095" lon="13.8912677"><ele>90.0</ele><time>2026-04-25T12:29:10.758Z</time></trkpt><trkpt lat="45.874408" lon="13.8914139"><ele>90.0</ele><time>2026-04-25T12:29:11.758Z</time></trkpt><trkpt lat="45.8744029" lon="13.8915491"><ele>90.0</ele><time>2026-04-25T12:29:12.757Z</time></trkpt><trkpt lat="45.8743974" lon="13.891675"><ele>90.0</ele><time>2026-04-25T12:29:13.758Z</time></trkpt><trkpt lat="45.8743839" lon="13.8917935"><ele>90.0</ele><time>2026-04-25T12:29:14.758Z</time></trkpt><trkpt lat="45.8743672" lon="13.8919065"><ele>90.0</ele><time>2026-04-25T12:29:15.758Z</time></trkpt><trkpt lat="45.8743351" lon="13.8920139"><ele>90.0</ele><time>2026-04-25T12:29:16.758Z</time></trkpt><trkpt lat="45.8742932" lon="13.8921061"><ele>90.0</ele><time>2026-04-25T12:29:17.758Z</time></trkpt><trkpt lat="45.8742419" lon="13.8921832"><ele>90.0</ele><time>2026-04-25T12:29:18.758Z</time></trkpt><trkpt lat="45.8741822" lon="13.8922471"><ele>90.0</ele><time>2026-04-25T12:29:19.758Z</time></trkpt><trkpt lat="45.874124" lon="13.8922966"><ele>90.0</ele><time>2026-04-25T12:29:20.757Z</time></trkpt><trkpt lat="45.8740617" lon="13.8923418"><ele>90.0</ele><time>2026-04-25T12:29:21.758Z</time></trkpt><trkpt lat="45.8740034" lon="13.8923965"><ele>90.0</ele><time>2026-04-25T12:29:22.757Z</time></trkpt><trkpt lat="45.8739556" lon="13.8924654"><ele>90.0</ele><time>2026-04-25T12:29:23.758Z</time></trkpt><trkpt lat="45.8739159" lon="13.8925502"><ele>89.83333333333333</ele><time>2026-04-25T12:29:24.758Z</time></trkpt><trkpt lat="45.8738853" lon="13.8926456"><ele>89.66666666666667</ele><time>2026-04-25T12:29:25.758Z</time></trkpt><trkpt lat="45.8738722" lon="13.892753"><ele>89.5</ele><time>2026-04-25T12:29:26.757Z</time></trkpt><trkpt lat="45.8738662" lon="13.8928705"><ele>89.33333333333334</ele><time>2026-04-25T12:29:27.758Z</time></trkpt><trkpt lat="45.8738626" lon="13.8930026"><ele>89.16666666666667</ele><time>2026-04-25T12:29:28.758Z</time></trkpt><trkpt lat="45.8738607" lon="13.8931448"><ele>89.0</ele><time>2026-04-25T12:29:29.758Z</time></trkpt><trkpt lat="45.8738557" lon="13.8932903"><ele>88.6</ele><time>2026-04-25T12:29:30.758Z</time></trkpt><trkpt lat="45.8738375" lon="13.8934258"><ele>88.2</ele><time>2026-04-25T12:29:31.758Z</time></trkpt><trkpt lat="45.8738077" lon="13.8935594"><ele>87.8</ele><time>2026-04-25T12:29:32.759Z</time></trkpt><trkpt lat="45.8737749" lon="13.8936897"><ele>87.39999999999999</ele><time>2026-04-25T12:29:33.758Z</time></trkpt><trkpt lat="45.8737376" lon="13.8938154"><ele>87.0</ele><time>2026-04-25T12:29:34.758Z</time></trkpt><trkpt lat="45.8736994" lon="13.8939422"><ele>87.0</ele><time>2026-04-25T12:29:35.758Z</time></trkpt><trkpt lat="45.8736631" lon="13.8940627"><ele>87.0</ele><time>2026-04-25T12:29:36.758Z</time></trkpt><trkpt lat="45.8736215" lon="13.894186"><ele>87.0</ele><time>2026-04-25T12:29:37.758Z</time></trkpt><trkpt lat="45.8735775" lon="13.8943059"><ele>87.0</ele><time>2026-04-25T12:29:38.758Z</time></trkpt><trkpt lat="45.8735326" lon="13.8944209"><ele>87.0</ele><time>2026-04-25T12:29:39.758Z</time></trkpt><trkpt lat="45.8734884" lon="13.8945356"><ele>87.0</ele><time>2026-04-25T12:29:40.758Z</time></trkpt><trkpt lat="45.8734477" lon="13.8946515"><ele>87.0</ele><time>2026-04-25T12:29:41.758Z</time></trkpt><trkpt lat="45.8734037" lon="13.8947755"><ele>87.0</ele><time>2026-04-25T12:29:42.757Z</time></trkpt><trkpt lat="45.8733643" lon="13.8949084"><ele>87.0</ele><time>2026-04-25T12:29:43.758Z</time></trkpt><trkpt lat="45.8733219" lon="13.8950421"><ele>87.0</ele><time>2026-04-25T12:29:44.758Z</time></trkpt><trkpt lat="45.8732838" lon="13.8951798"><ele>87.5</ele><time>2026-04-25T12:29:45.758Z</time></trkpt><trkpt lat="45.8732468" lon="13.895306"><ele>88.0</ele><time>2026-04-25T12:29:46.758Z</time></trkpt><trkpt lat="45.8732103" lon="13.8954182"><ele>88.5</ele><time>2026-04-25T12:29:47.757Z</time></trkpt><trkpt lat="45.8731686" lon="13.8955185"><ele>89.0</ele><time>2026-04-25T12:29:48.758Z</time></trkpt><trkpt lat="45.8731192" lon="13.8956022"><ele>89.5</ele><time>2026-04-25T12:29:49.758Z</time></trkpt><trkpt lat="45.8730671" lon="13.8956608"><ele>90.0</ele><time>2026-04-25T12:29:50.758Z</time></trkpt><trkpt lat="45.8730083" lon="13.89571"><ele>90.0</ele><time>2026-04-25T12:29:51.758Z</time></trkpt><trkpt lat="45.8729519" lon="13.8957556"><ele>90.0</ele><time>2026-04-25T12:29:52.758Z</time></trkpt><trkpt lat="45.8728709" lon="13.8958526"><ele>90.0</ele><time>2026-04-25T12:29:54.758Z</time></trkpt><trkpt lat="45.8728614" lon="13.8959839"><ele>90.0</ele><time>2026-04-25T12:29:56.758Z</time></trkpt><trkpt lat="45.8728646" lon="13.8961095"><ele>90.0</ele><time>2026-04-25T12:29:58.758Z</time></trkpt><trkpt lat="45.8728115" lon="13.8962184"><ele>90.0</ele><time>2026-04-25T12:30:00.758Z</time></trkpt><trkpt lat="45.8726882" lon="13.8963065"><ele>89.66666666666667</ele><time>2026-04-25T12:30:02.758Z</time></trkpt><trkpt lat="45.8726138" lon="13.896359"><ele>89.33333333333333</ele><time>2026-04-25T12:30:03.758Z</time></trkpt><trkpt lat="45.8725417" lon="13.8964295"><ele>89.0</ele><time>2026-04-25T12:30:04.758Z</time></trkpt><trkpt lat="45.8724833" lon="13.8965245"><ele>88.66666666666666</ele><time>2026-04-25T12:30:05.758Z</time></trkpt><trkpt lat="45.872436" lon="13.8966369"><ele>88.33333333333333</ele><time>2026-04-25T12:30:06.758Z</time></trkpt><trkpt lat="45.8723942" lon="13.8967602"><ele>88.0</ele><time>2026-04-25T12:30:07.758Z</time></trkpt><trkpt lat="45.8723543" lon="13.8968915"><ele>87.80000000000001</ele><time>2026-04-25T12:30:08.758Z</time></trkpt><trkpt lat="45.872311" lon="13.8970238"><ele>87.6</ele><time>2026-04-25T12:30:09.758Z</time></trkpt><trkpt lat="45.8722654" lon="13.897156"><ele>87.4</ele><time>2026-04-25T12:30:10.757Z</time></trkpt><trkpt lat="45.8722215" lon="13.8972857"><ele>87.19999999999999</ele><time>2026-04-25T12:30:11.758Z</time></trkpt><trkpt lat="45.8721773" lon="13.8974098"><ele>87.0</ele><time>2026-04-25T12:30:12.757Z</time></trkpt><trkpt lat="45.8721316" lon="13.8975268"><ele>87.0</ele><time>2026-04-25T12:30:13.758Z</time></trkpt><trkpt lat="45.8720877" lon="13.8976354"><ele>87.0</ele><time>2026-04-25T12:30:14.758Z</time></trkpt><trkpt lat="45.8720462" lon="13.8977432"><ele>87.0</ele><time>2026-04-25T12:30:15.758Z</time></trkpt><trkpt lat="45.8720075" lon="13.8978485"><ele>87.0</ele><time>2026-04-25T12:30:16.758Z</time></trkpt><trkpt lat="45.8719721" lon="13.8979521"><ele>87.0</ele><time>2026-04-25T12:30:17.758Z</time></trkpt><trkpt lat="45.8719346" lon="13.8980521"><ele>87.0</ele><time>2026-04-25T12:30:18.758Z</time></trkpt><trkpt lat="45.8718966" lon="13.8981542"><ele>87.0</ele><time>2026-04-25T12:30:19.758Z</time></trkpt><trkpt lat="45.8718577" lon="13.8982601"><ele>87.0</ele><time>2026-04-25T12:30:20.757Z</time></trkpt><trkpt lat="45.8718213" lon="13.8983704"><ele>87.0</ele><time>2026-04-25T12:30:21.758Z</time></trkpt><trkpt lat="45.8717821" lon="13.8984872"><ele>87.0</ele><time>2026-04-25T12:30:22.758Z</time></trkpt><trkpt lat="45.8717386" lon="13.8986078"><ele>87.0</ele><time>2026-04-25T12:30:23.758Z</time></trkpt><trkpt lat="45.8716958" lon="13.8987311"><ele>87.0</ele><time>2026-04-25T12:30:24.757Z</time></trkpt><trkpt lat="45.8716546" lon="13.8988589"><ele>86.39999999999999</ele><time>2026-04-25T12:30:25.758Z</time></trkpt><trkpt lat="45.8716099" lon="13.8989896"><ele>85.8</ele><time>2026-04-25T12:30:26.758Z</time></trkpt><trkpt lat="45.8715677" lon="13.8991253"><ele>85.2</ele><time>2026-04-25T12:30:27.758Z</time></trkpt><trkpt lat="45.8715195" lon="13.8992585"><ele>84.6</ele><time>2026-04-25T12:30:28.757Z</time></trkpt><trkpt lat="45.871469" lon="13.8993845"><ele>84.0</ele><time>2026-04-25T12:30:29.758Z</time></trkpt><trkpt lat="45.8714177" lon="13.8995104"><ele>84.0</ele><time>2026-04-25T12:30:30.758Z</time></trkpt><trkpt lat="45.8713715" lon="13.8996349"><ele>84.0</ele><time>2026-04-25T12:30:31.758Z</time></trkpt><trkpt lat="45.8713255" lon="13.8997587"><ele>84.0</ele><time>2026-04-25T12:30:32.758Z</time></trkpt><trkpt lat="45.8712817" lon="13.8998823"><ele>84.0</ele><time>2026-04-25T12:30:33.757Z</time></trkpt><trkpt lat="45.8712366" lon="13.9000012"><ele>84.0</ele><time>2026-04-25T12:30:34.758Z</time></trkpt><trkpt lat="45.8711927" lon="13.9001191"><ele>84.16666666666667</ele><time>2026-04-25T12:30:35.758Z</time></trkpt><trkpt lat="45.8711517" lon="13.9002354"><ele>84.33333333333333</ele><time>2026-04-25T12:30:36.758Z</time></trkpt><trkpt lat="45.8711113" lon="13.9003451"><ele>84.5</ele><time>2026-04-25T12:30:37.758Z</time></trkpt><trkpt lat="45.8710716" lon="13.9004557"><ele>84.66666666666666</ele><time>2026-04-25T12:30:38.758Z</time></trkpt><trkpt lat="45.8710373" lon="13.9005644"><ele>84.83333333333333</ele><time>2026-04-25T12:30:39.758Z</time></trkpt><trkpt lat="45.8709985" lon="13.9006663"><ele>85.0</ele><time>2026-04-25T12:30:40.758Z</time></trkpt><trkpt lat="45.8709652" lon="13.9007656"><ele>85.0</ele><time>2026-04-25T12:30:41.757Z</time></trkpt><trkpt lat="45.8709343" lon="13.900866"><ele>85.0</ele><time>2026-04-25T12:30:42.758Z</time></trkpt><trkpt lat="45.8708963" lon="13.900955"><ele>85.0</ele><time>2026-04-25T12:30:43.758Z</time></trkpt><trkpt lat="45.8708641" lon="13.9010377"><ele>85.0</ele><time>2026-04-25T12:30:44.758Z</time></trkpt><trkpt lat="45.8707891" lon="13.9011612"><ele>85.0</ele><time>2026-04-25T12:30:46.759Z</time></trkpt><trkpt lat="45.8707239" lon="13.9012379"><ele>85.0</ele><time>2026-04-25T12:30:48.758Z</time></trkpt><trkpt lat="45.8706844" lon="13.9013277"><ele>85.0</ele><time>2026-04-25T12:30:50.758Z</time></trkpt><trkpt lat="45.8707144" lon="13.9014332"><ele>85.0</ele><time>2026-04-25T12:30:53.758Z</time></trkpt><trkpt lat="45.8708225" lon="13.9014365"><ele>85.0</ele><time>2026-04-25T12:30:55.758Z</time></trkpt><trkpt lat="45.8709145" lon="13.9014416"><ele>85.0</ele><time>2026-04-25T12:30:56.758Z</time></trkpt><trkpt lat="45.8710347" lon="13.9014431"><ele>85.0</ele><time>2026-04-25T12:30:57.758Z</time></trkpt><trkpt lat="45.8711791" lon="13.9014414"><ele>84.66666666666666</ele><time>2026-04-25T12:30:58.758Z</time></trkpt><trkpt lat="45.8713421" lon="13.9014402"><ele>84.33333333333333</ele><time>2026-04-25T12:30:59.758Z</time></trkpt><trkpt lat="45.87152" lon="13.9014389"><ele>84.0</ele><time>2026-04-25T12:31:00.758Z</time></trkpt><trkpt lat="45.8717073" lon="13.9014394"><ele>84.66666666666667</ele><time>2026-04-25T12:31:01.757Z</time></trkpt><trkpt lat="45.8719085" lon="13.9014454"><ele>85.33333333333334</ele><time>2026-04-25T12:31:02.758Z</time></trkpt><trkpt lat="45.872119" lon="13.9014464"><ele>86.0</ele><time>2026-04-25T12:31:03.758Z</time></trkpt><trkpt lat="45.8723296" lon="13.901449"><ele>86.0</ele><time>2026-04-25T12:31:04.758Z</time></trkpt><trkpt lat="45.8725459" lon="13.901446"><ele>86.0</ele><time>2026-04-25T12:31:05.758Z</time></trkpt><trkpt lat="45.8727594" lon="13.9014431"><ele>86.0</ele><time>2026-04-25T12:31:06.758Z</time></trkpt><trkpt lat="45.8729721" lon="13.9014405"><ele>86.33333333333334</ele><time>2026-04-25T12:31:07.758Z</time></trkpt><trkpt lat="45.8731821" lon="13.9014422"><ele>86.66666666666667</ele><time>2026-04-25T12:31:08.757Z</time></trkpt><trkpt lat="45.8733944" lon="13.9014431"><ele>87.0</ele><time>2026-04-25T12:31:09.758Z</time></trkpt><trkpt lat="45.8735991" lon="13.9014368"><ele>87.66666666666667</ele><time>2026-04-25T12:31:10.758Z</time></trkpt><trkpt lat="45.8738019" lon="13.9014307"><ele>88.33333333333334</ele><time>2026-04-25T12:31:11.758Z</time></trkpt><trkpt lat="45.8739994" lon="13.9014308"><ele>89.0</ele><time>2026-04-25T12:31:12.758Z</time></trkpt><trkpt lat="45.8741958" lon="13.9014308"><ele>89.66666666666667</ele><time>2026-04-25T12:31:13.758Z</time></trkpt><trkpt lat="45.8743786" lon="13.9014313"><ele>90.33333333333333</ele><time>2026-04-25T12:31:14.758Z</time></trkpt><trkpt lat="45.8745584" lon="13.9014302"><ele>91.0</ele><time>2026-04-25T12:31:15.758Z</time></trkpt><trkpt lat="45.8747228" lon="13.9014272"><ele>91.0</ele><time>2026-04-25T12:31:16.758Z</time></trkpt><trkpt lat="45.8748774" lon="13.9014271"><ele>91.0</ele><time>2026-04-25T12:31:17.758Z</time></trkpt><trkpt lat="45.8750219" lon="13.9014239"><ele>91.0</ele><time>2026-04-25T12:31:18.758Z</time></trkpt><trkpt lat="45.8751569" lon="13.9014222"><ele>91.0</ele><time>2026-04-25T12:31:19.758Z</time></trkpt><trkpt lat="45.8752807" lon="13.9014219"><ele>92.0</ele><time>2026-04-25T12:31:20.758Z</time></trkpt><trkpt lat="45.875401" lon="13.9014206"><ele>93.0</ele><time>2026-04-25T12:31:21.758Z</time></trkpt><trkpt lat="45.8755161" lon="13.9014199"><ele>94.0</ele><time>2026-04-25T12:31:22.758Z</time></trkpt><trkpt lat="45.8756339" lon="13.9014207"><ele>95.0</ele><time>2026-04-25T12:31:23.758Z</time></trkpt><trkpt lat="45.8757571" lon="13.9014185"><ele>95.0</ele><time>2026-04-25T12:31:24.757Z</time></trkpt><trkpt lat="45.8758883" lon="13.9014178"><ele>95.0</ele><time>2026-04-25T12:31:25.757Z</time></trkpt><trkpt lat="45.8760248" lon="13.9014111"><ele>95.0</ele><time>2026-04-25T12:31:26.758Z</time></trkpt><trkpt lat="45.8761662" lon="13.9014145"><ele>95.0</ele><time>2026-04-25T12:31:27.758Z</time></trkpt><trkpt lat="45.8763152" lon="13.9014219"><ele>93.33333333333334</ele><time>2026-04-25T12:31:28.758Z</time></trkpt><trkpt lat="45.8764703" lon="13.9014288"><ele>91.66666666666667</ele><time>2026-04-25T12:31:29.757Z</time></trkpt><trkpt lat="45.876628" lon="13.9014376"><ele>90.0</ele><time>2026-04-25T12:31:30.758Z</time></trkpt><trkpt lat="45.8767892" lon="13.9014448"><ele>89.66666666666667</ele><time>2026-04-25T12:31:31.758Z</time></trkpt><trkpt lat="45.8769578" lon="13.901454"><ele>89.33333333333334</ele><time>2026-04-25T12:31:32.758Z</time></trkpt><trkpt lat="45.8771263" lon="13.9014681"><ele>89.0</ele><time>2026-04-25T12:31:33.758Z</time></trkpt><trkpt lat="45.8773" lon="13.9014858"><ele>89.0</ele><time>2026-04-25T12:31:34.757Z</time></trkpt><trkpt lat="45.8774774" lon="13.9015066"><ele>89.0</ele><time>2026-04-25T12:31:35.757Z</time></trkpt><trkpt lat="45.8776565" lon="13.9015327"><ele>89.0</ele><time>2026-04-25T12:31:36.757Z</time></trkpt><trkpt lat="45.8778358" lon="13.9015642"><ele>89.66666666666667</ele><time>2026-04-25T12:31:37.758Z</time></trkpt><trkpt lat="45.8780156" lon="13.90159"><ele>90.33333333333333</ele><time>2026-04-25T12:31:38.758Z</time></trkpt><trkpt lat="45.8781932" lon="13.9016146"><ele>91.0</ele><time>2026-04-25T12:31:39.757Z</time></trkpt><trkpt lat="45.8783718" lon="13.9016397"><ele>90.66666666666666</ele><time>2026-04-25T12:31:40.757Z</time></trkpt><trkpt lat="45.8785487" lon="13.9016664"><ele>90.33333333333333</ele><time>2026-04-25T12:31:41.757Z</time></trkpt><trkpt lat="45.8787239" lon="13.9016962"><ele>90.0</ele><time>2026-04-25T12:31:42.757Z</time></trkpt><trkpt lat="45.878898" lon="13.9017226"><ele>90.0</ele><time>2026-04-25T12:31:43.757Z</time></trkpt><trkpt lat="45.8790696" lon="13.901747"><ele>90.0</ele><time>2026-04-25T12:31:44.757Z</time></trkpt><trkpt lat="45.8792399" lon="13.9017727"><ele>90.0</ele><time>2026-04-25T12:31:45.757Z</time></trkpt><trkpt lat="45.8794088" lon="13.9017972"><ele>90.5</ele><time>2026-04-25T12:31:46.757Z</time></trkpt><trkpt lat="45.8795686" lon="13.901824"><ele>91.0</ele><time>2026-04-25T12:31:47.757Z</time></trkpt><trkpt lat="45.8797149" lon="13.9018421"><ele>91.5</ele><time>2026-04-25T12:31:48.757Z</time></trkpt><trkpt lat="45.8798513" lon="13.9018608"><ele>92.0</ele><time>2026-04-25T12:31:49.757Z</time></trkpt><trkpt lat="45.8799776" lon="13.9018775"><ele>92.0</ele><time>2026-04-25T12:31:50.757Z</time></trkpt><trkpt lat="45.8800931" lon="13.9018956"><ele>92.0</ele><time>2026-04-25T12:31:51.757Z</time></trkpt><trkpt lat="45.8802039" lon="13.9019098"><ele>92.0</ele><time>2026-04-25T12:31:52.757Z</time></trkpt><trkpt lat="45.880304" lon="13.9019236"><ele>92.0</ele><time>2026-04-25T12:31:53.757Z</time></trkpt><trkpt lat="45.8803918" lon="13.9019306"><ele>92.0</ele><time>2026-04-25T12:31:54.757Z</time></trkpt><trkpt lat="45.8804786" lon="13.9019316"><ele>92.5</ele><time>2026-04-25T12:31:55.757Z</time></trkpt><trkpt lat="45.8805629" lon="13.9019353"><ele>93.0</ele><time>2026-04-25T12:31:56.757Z</time></trkpt><trkpt lat="45.8806469" lon="13.9019428"><ele>93.5</ele><time>2026-04-25T12:31:57.757Z</time></trkpt><trkpt lat="45.8807246" lon="13.9019495"><ele>94.0</ele><time>2026-04-25T12:31:58.757Z</time></trkpt><trkpt lat="45.8807941" lon="13.9019597"><ele>94.5</ele><time>2026-04-25T12:31:59.758Z</time></trkpt><trkpt lat="45.8809042" lon="13.9019822"><ele>95.0</ele><time>2026-04-25T12:32:01.757Z</time></trkpt><trkpt lat="45.8809815" lon="13.9020008"><ele>95.0</ele><time>2026-04-25T12:32:03.757Z</time></trkpt><trkpt lat="45.8810501" lon="13.9020065"><ele>95.0</ele><time>2026-04-25T12:32:06.757Z</time></trkpt><trkpt lat="45.8811499" lon="13.9020238"><ele>95.0</ele><time>2026-04-25T12:32:20.757Z</time></trkpt><trkpt lat="45.8812578" lon="13.9020426"><ele>95.0</ele><time>2026-04-25T12:32:22.757Z</time></trkpt><trkpt lat="45.8813667" lon="13.9021158"><ele>95.0</ele><time>2026-04-25T12:32:24.757Z</time></trkpt><trkpt lat="45.8814045" lon="13.9022789"><ele>95.0</ele><time>2026-04-25T12:32:26.756Z</time></trkpt><trkpt lat="45.8813926" lon="13.9023887"><ele>95.0</ele><time>2026-04-25T12:32:27.757Z</time></trkpt><trkpt lat="45.8813681" lon="13.9025096"><ele>95.0</ele><time>2026-04-25T12:32:28.756Z</time></trkpt><trkpt lat="45.881333" lon="13.9026599"><ele>95.0</ele><time>2026-04-25T12:32:29.757Z</time></trkpt><trkpt lat="45.8812923" lon="13.9028246"><ele>95.0</ele><time>2026-04-25T12:32:30.757Z</time></trkpt><trkpt lat="45.8812487" lon="13.9030015"><ele>95.0</ele><time>2026-04-25T12:32:31.757Z</time></trkpt><trkpt lat="45.8811967" lon="13.9031906"><ele>95.0</ele><time>2026-04-25T12:32:32.757Z</time></trkpt><trkpt lat="45.8811403" lon="13.9033962"><ele>95.0</ele><time>2026-04-25T12:32:33.757Z</time></trkpt><trkpt lat="45.8810836" lon="13.9036111"><ele>95.25</ele><time>2026-04-25T12:32:34.757Z</time></trkpt><trkpt lat="45.8810328" lon="13.9038083"><ele>95.5</ele><time>2026-04-25T12:32:35.757Z</time></trkpt><trkpt lat="45.8809767" lon="13.9040008"><ele>95.75</ele><time>2026-04-25T12:32:36.757Z</time></trkpt><trkpt lat="45.8809185" lon="13.9041892"><ele>96.0</ele><time>2026-04-25T12:32:37.757Z</time></trkpt><trkpt lat="45.8808589" lon="13.9043792"><ele>95.33333333333333</ele><time>2026-04-25T12:32:38.757Z</time></trkpt><trkpt lat="45.8808027" lon="13.9045781"><ele>94.66666666666666</ele><time>2026-04-25T12:32:39.757Z</time></trkpt><trkpt lat="45.8807527" lon="13.9047842"><ele>94.0</ele><time>2026-04-25T12:32:40.757Z</time></trkpt><trkpt lat="45.8807045" lon="13.9049949"><ele>94.25</ele><time>2026-04-25T12:32:41.757Z</time></trkpt><trkpt lat="45.8806671" lon="13.905202"><ele>94.5</ele><time>2026-04-25T12:32:42.757Z</time></trkpt><trkpt lat="45.8806382" lon="13.9053994"><ele>94.75</ele><time>2026-04-25T12:32:43.757Z</time></trkpt><trkpt lat="45.8806191" lon="13.9055807"><ele>95.0</ele><time>2026-04-25T12:32:44.757Z</time></trkpt><trkpt lat="45.8806048" lon="13.9057545"><ele>94.6</ele><time>2026-04-25T12:32:45.757Z</time></trkpt><trkpt lat="45.8805893" lon="13.905912"><ele>94.2</ele><time>2026-04-25T12:32:46.757Z</time></trkpt><trkpt lat="45.8805615" lon="13.906052"><ele>93.80000000000001</ele><time>2026-04-25T12:32:47.757Z</time></trkpt><trkpt lat="45.8805302" lon="13.9061767"><ele>93.4</ele><time>2026-04-25T12:32:48.757Z</time></trkpt><trkpt lat="45.8805267" lon="13.9062969"><ele>93.0</ele><time>2026-04-25T12:32:49.757Z</time></trkpt><trkpt lat="45.88055" lon="13.9064133"><ele>93.0</ele><time>2026-04-25T12:32:50.757Z</time></trkpt><trkpt lat="45.8805897" lon="13.906553"><ele>93.0</ele><time>2026-04-25T12:32:51.756Z</time></trkpt><trkpt lat="45.8806252" lon="13.9067328"><ele>93.0</ele><time>2026-04-25T12:32:52.757Z</time></trkpt><trkpt lat="45.8806613" lon="13.9069393"><ele>93.0</ele><time>2026-04-25T12:32:53.757Z</time></trkpt><trkpt lat="45.8807067" lon="13.9071714"><ele>92.66666666666667</ele><time>2026-04-25T12:32:54.757Z</time></trkpt><trkpt lat="45.880763" lon="13.9074348"><ele>92.33333333333334</ele><time>2026-04-25T12:32:55.757Z</time></trkpt><trkpt lat="45.8808258" lon="13.9077083"><ele>92.0</ele><time>2026-04-25T12:32:56.757Z</time></trkpt><trkpt lat="45.8808942" lon="13.907979"><ele>92.33333333333334</ele><time>2026-04-25T12:32:57.757Z</time></trkpt><trkpt lat="45.8809714" lon="13.908242"><ele>92.66666666666667</ele><time>2026-04-25T12:32:58.757Z</time></trkpt><trkpt lat="45.8810508" lon="13.9084859"><ele>93.0</ele><time>2026-04-25T12:32:59.757Z</time></trkpt><trkpt lat="45.8811329" lon="13.9087143"><ele>93.0</ele><time>2026-04-25T12:33:00.756Z</time></trkpt><trkpt lat="45.8812158" lon="13.9089236"><ele>93.0</ele><time>2026-04-25T12:33:01.757Z</time></trkpt><trkpt lat="45.8812967" lon="13.9091201"><ele>93.0</ele><time>2026-04-25T12:33:02.757Z</time></trkpt><trkpt lat="45.8813786" lon="13.9093054"><ele>93.5</ele><time>2026-04-25T12:33:03.757Z</time></trkpt><trkpt lat="45.8814606" lon="13.9094852"><ele>94.0</ele><time>2026-04-25T12:33:04.757Z</time></trkpt><trkpt lat="45.8815447" lon="13.9096613"><ele>94.5</ele><time>2026-04-25T12:33:05.756Z</time></trkpt><trkpt lat="45.8816317" lon="13.9098333"><ele>95.0</ele><time>2026-04-25T12:33:06.757Z</time></trkpt><trkpt lat="45.8817223" lon="13.9100024"><ele>96.0</ele><time>2026-04-25T12:33:07.757Z</time></trkpt><trkpt lat="45.8818208" lon="13.9101696"><ele>97.0</ele><time>2026-04-25T12:33:08.757Z</time></trkpt><trkpt lat="45.8819257" lon="13.9103315"><ele>98.0</ele><time>2026-04-25T12:33:09.757Z</time></trkpt><trkpt lat="45.8820332" lon="13.9104903"><ele>98.0</ele><time>2026-04-25T12:33:10.757Z</time></trkpt><trkpt lat="45.882139" lon="13.9106478"><ele>98.0</ele><time>2026-04-25T12:33:11.757Z</time></trkpt><trkpt lat="45.8822316" lon="13.9107934"><ele>98.0</ele><time>2026-04-25T12:33:12.757Z</time></trkpt><trkpt lat="45.8823199" lon="13.9109256"><ele>98.0</ele><time>2026-04-25T12:33:13.756Z</time></trkpt><trkpt lat="45.8824014" lon="13.9110557"><ele>98.49999999999999</ele><time>2026-04-25T12:33:14.757Z</time></trkpt><trkpt lat="45.8824753" lon="13.9111737"><ele>99.0</ele><time>2026-04-25T12:33:15.757Z</time></trkpt><trkpt lat="45.8825345" lon="13.9112782"><ele>99.5</ele><time>2026-04-25T12:33:16.757Z</time></trkpt><trkpt lat="45.8825712" lon="13.911382"><ele>100.0</ele><time>2026-04-25T12:33:17.757Z</time></trkpt><trkpt lat="45.8825858" lon="13.9114809"><ele>100.49999999999999</ele><time>2026-04-25T12:33:18.756Z</time></trkpt><trkpt lat="45.8825771" lon="13.9115822"><ele>101.0</ele><time>2026-04-25T12:33:19.757Z</time></trkpt><trkpt lat="45.8825828" lon="13.9116856"><ele>101.16666666666666</ele><time>2026-04-25T12:33:20.757Z</time></trkpt><trkpt lat="45.8826152" lon="13.9117858"><ele>101.33333333333333</ele><time>2026-04-25T12:33:21.757Z</time></trkpt><trkpt lat="45.8826737" lon="13.9118587"><ele>101.5</ele><time>2026-04-25T12:33:22.757Z</time></trkpt><trkpt lat="45.8827479" lon="13.9118948"><ele>101.66666666666666</ele><time>2026-04-25T12:33:23.757Z</time></trkpt><trkpt lat="45.8828306" lon="13.9119363"><ele>101.83333333333333</ele><time>2026-04-25T12:33:24.757Z</time></trkpt><trkpt lat="45.8829151" lon="13.9120118"><ele>102.0</ele><time>2026-04-25T12:33:25.757Z</time></trkpt><trkpt lat="45.8830049" lon="13.9121136"><ele>102.0</ele><time>2026-04-25T12:33:26.757Z</time></trkpt><trkpt lat="45.8830936" lon="13.9122532"><ele>102.0</ele><time>2026-04-25T12:33:27.756Z</time></trkpt><trkpt lat="45.8831901" lon="13.9124161"><ele>102.0</ele><time>2026-04-25T12:33:28.757Z</time></trkpt><trkpt lat="45.8832934" lon="13.9125698"><ele>102.0</ele><time>2026-04-25T12:33:29.757Z</time></trkpt><trkpt lat="45.8834039" lon="13.9127251"><ele>103.5</ele><time>2026-04-25T12:33:30.757Z</time></trkpt><trkpt lat="45.8835165" lon="13.9128806"><ele>105.0</ele><time>2026-04-25T12:33:31.757Z</time></trkpt><trkpt lat="45.8836204" lon="13.9130342"><ele>106.5</ele><time>2026-04-25T12:33:32.757Z</time></trkpt><trkpt lat="45.8837194" lon="13.9131807"><ele>108.0</ele><time>2026-04-25T12:33:33.756Z</time></trkpt><trkpt lat="45.8838216" lon="13.9133284"><ele>108.75</ele><time>2026-04-25T12:33:34.757Z</time></trkpt><trkpt lat="45.8839227" lon="13.9134676"><ele>109.5</ele><time>2026-04-25T12:33:35.757Z</time></trkpt><trkpt lat="45.8840245" lon="13.9136097"><ele>110.25</ele><time>2026-04-25T12:33:36.757Z</time></trkpt><trkpt lat="45.8841219" lon="13.9137489"><ele>111.0</ele><time>2026-04-25T12:33:37.757Z</time></trkpt><trkpt lat="45.8842187" lon="13.9138814"><ele>111.75</ele><time>2026-04-25T12:33:38.757Z</time></trkpt><trkpt lat="45.8843213" lon="13.9140096"><ele>112.5</ele><time>2026-04-25T12:33:39.757Z</time></trkpt><trkpt lat="45.8844242" lon="13.9141479"><ele>113.25</ele><time>2026-04-25T12:33:40.757Z</time></trkpt><trkpt lat="45.884523" lon="13.9142886"><ele>114.0</ele><time>2026-04-25T12:33:41.757Z</time></trkpt><trkpt lat="45.8846196" lon="13.9144286"><ele>114.75</ele><time>2026-04-25T12:33:42.756Z</time></trkpt><trkpt lat="45.8847179" lon="13.9145605"><ele>115.5</ele><time>2026-04-25T12:33:43.757Z</time></trkpt><trkpt lat="45.8848061" lon="13.9146834"><ele>116.25</ele><time>2026-04-25T12:33:44.757Z</time></trkpt><trkpt lat="45.8848908" lon="13.9147994"><ele>117.0</ele><time>2026-04-25T12:33:45.757Z</time></trkpt><trkpt lat="45.8849659" lon="13.9148995"><ele>117.0</ele><time>2026-04-25T12:33:46.757Z</time></trkpt><trkpt lat="45.8850323" lon="13.9149895"><ele>116.99999999999999</ele><time>2026-04-25T12:33:47.757Z</time></trkpt><trkpt lat="45.8851001" lon="13.9150804"><ele>116.99999999999999</ele><time>2026-04-25T12:33:48.757Z</time></trkpt><trkpt lat="45.8851709" lon="13.9151764"><ele>117.0</ele><time>2026-04-25T12:33:49.757Z</time></trkpt><trkpt lat="45.8852427" lon="13.9152706"><ele>117.0</ele><time>2026-04-25T12:33:50.757Z</time></trkpt><trkpt lat="45.8853143" lon="13.9153673"><ele>118.6</ele><time>2026-04-25T12:33:51.757Z</time></trkpt><trkpt lat="45.8853897" lon="13.9154673"><ele>120.19999999999999</ele><time>2026-04-25T12:33:52.757Z</time></trkpt><trkpt lat="45.8854699" lon="13.9155734"><ele>121.8</ele><time>2026-04-25T12:33:53.757Z</time></trkpt><trkpt lat="45.885555" lon="13.9156849"><ele>123.4</ele><time>2026-04-25T12:33:54.757Z</time></trkpt><trkpt lat="45.8856451" lon="13.915803"><ele>125.0</ele><time>2026-04-25T12:33:55.757Z</time></trkpt><trkpt lat="45.8857345" lon="13.915936"><ele>126.25</ele><time>2026-04-25T12:33:56.756Z</time></trkpt><trkpt lat="45.8858327" lon="13.9160771"><ele>127.5</ele><time>2026-04-25T12:33:57.757Z</time></trkpt><trkpt lat="45.8859341" lon="13.9162136"><ele>128.75</ele><time>2026-04-25T12:33:58.757Z</time></trkpt><trkpt lat="45.8860311" lon="13.916341"><ele>130.0</ele><time>2026-04-25T12:33:59.757Z</time></trkpt><trkpt lat="45.8861234" lon="13.9164656"><ele>130.6</ele><time>2026-04-25T12:34:00.757Z</time></trkpt><trkpt lat="45.8862143" lon="13.9165891"><ele>131.2</ele><time>2026-04-25T12:34:01.756Z</time></trkpt><trkpt lat="45.886289" lon="13.9167061"><ele>131.8</ele><time>2026-04-25T12:34:02.757Z</time></trkpt><trkpt lat="45.8863597" lon="13.916804"><ele>132.4</ele><time>2026-04-25T12:34:03.757Z</time></trkpt><trkpt lat="45.8864261" lon="13.9168775"><ele>133.0</ele><time>2026-04-25T12:34:04.757Z</time></trkpt><trkpt lat="45.8864911" lon="13.9169068"><ele>133.0</ele><time>2026-04-25T12:34:05.757Z</time></trkpt><trkpt lat="45.8865594" lon="13.9168858"><ele>133.0</ele><time>2026-04-25T12:34:06.756Z</time></trkpt><trkpt lat="45.8866464" lon="13.9168196"><ele>133.0</ele><time>2026-04-25T12:34:07.757Z</time></trkpt><trkpt lat="45.8867448" lon="13.9167346"><ele>133.0</ele><time>2026-04-25T12:34:08.757Z</time></trkpt><trkpt lat="45.8868309" lon="13.9166643"><ele>133.0</ele><time>2026-04-25T12:34:09.758Z</time></trkpt><trkpt lat="45.8869159" lon="13.9165973"><ele>133.4</ele><time>2026-04-25T12:34:10.757Z</time></trkpt><trkpt lat="45.8869875" lon="13.9165392"><ele>133.8</ele><time>2026-04-25T12:34:11.756Z</time></trkpt><trkpt lat="45.8870495" lon="13.916491"><ele>134.2</ele><time>2026-04-25T12:34:12.757Z</time></trkpt><trkpt lat="45.8871502" lon="13.9164471"><ele>134.6</ele><time>2026-04-25T12:34:14.757Z</time></trkpt><trkpt lat="45.8872272" lon="13.9165048"><ele>135.0</ele><time>2026-04-25T12:34:16.757Z</time></trkpt><trkpt lat="45.8872624" lon="13.9166904"><ele>137.0</ele><time>2026-04-25T12:34:18.757Z</time></trkpt><trkpt lat="45.8872725" lon="13.9168681"><ele>139.0</ele><time>2026-04-25T12:34:19.758Z</time></trkpt><trkpt lat="45.8872858" lon="13.9170657"><ele>141.0</ele><time>2026-04-25T12:34:20.757Z</time></trkpt><trkpt lat="45.887311" lon="13.9172886"><ele>143.0</ele><time>2026-04-25T12:34:21.756Z</time></trkpt><trkpt lat="45.8873353" lon="13.9175021"><ele>143.6</ele><time>2026-04-25T12:34:22.757Z</time></trkpt><trkpt lat="45.887354" lon="13.9176879"><ele>144.20000000000002</ele><time>2026-04-25T12:34:23.757Z</time></trkpt><trkpt lat="45.8873709" lon="13.9178542"><ele>144.8</ele><time>2026-04-25T12:34:24.756Z</time></trkpt><trkpt lat="45.887369" lon="13.9179985"><ele>145.4</ele><time>2026-04-25T12:34:25.757Z</time></trkpt><trkpt lat="45.8873364" lon="13.9181232"><ele>146.0</ele><time>2026-04-25T12:34:26.757Z</time></trkpt><trkpt lat="45.8872756" lon="13.9182522"><ele>146.0</ele><time>2026-04-25T12:34:27.757Z</time></trkpt><trkpt lat="45.8871924" lon="13.9183966"><ele>146.0</ele><time>2026-04-25T12:34:28.757Z</time></trkpt><trkpt lat="45.8870998" lon="13.9185688"><ele>146.0</ele><time>2026-04-25T12:34:29.757Z</time></trkpt><trkpt lat="45.8869943" lon="13.9187645"><ele>149.33333333333331</ele><time>2026-04-25T12:34:30.757Z</time></trkpt><trkpt lat="45.8868887" lon="13.918977"><ele>152.66666666666666</ele><time>2026-04-25T12:34:31.756Z</time></trkpt><trkpt lat="45.8867698" lon="13.9192087"><ele>156.0</ele><time>2026-04-25T12:34:32.755Z</time></trkpt><trkpt lat="45.8866424" lon="13.9194425"><ele>160.0</ele><time>2026-04-25T12:34:33.756Z</time></trkpt><trkpt lat="45.8865093" lon="13.9196749"><ele>164.0</ele><time>2026-04-25T12:34:34.756Z</time></trkpt><trkpt lat="45.8863696" lon="13.9198905"><ele>168.0</ele><time>2026-04-25T12:34:35.756Z</time></trkpt><trkpt lat="45.8862275" lon="13.9200964"><ele>168.33333333333334</ele><time>2026-04-25T12:34:36.756Z</time></trkpt><trkpt lat="45.8860869" lon="13.9203036"><ele>168.66666666666669</ele><time>2026-04-25T12:34:37.756Z</time></trkpt><trkpt lat="45.8859569" lon="13.9205239"><ele>169.0</ele><time>2026-04-25T12:34:38.756Z</time></trkpt><trkpt lat="45.8858388" lon="13.9207679"><ele>172.66666666666669</ele><time>2026-04-25T12:34:39.756Z</time></trkpt><trkpt lat="45.8857339" lon="13.9210352"><ele>176.33333333333334</ele><time>2026-04-25T12:34:40.756Z</time></trkpt><trkpt lat="45.8856324" lon="13.9213101"><ele>180.0</ele><time>2026-04-25T12:34:41.756Z</time></trkpt><trkpt lat="45.8855378" lon="13.9215807"><ele>184.33333333333331</ele><time>2026-04-25T12:34:42.756Z</time></trkpt><trkpt lat="45.8854243" lon="13.9218366"><ele>188.66666666666666</ele><time>2026-04-25T12:34:43.756Z</time></trkpt><trkpt lat="45.8852956" lon="13.9220763"><ele>193.0</ele><time>2026-04-25T12:34:44.756Z</time></trkpt><trkpt lat="45.8851507" lon="13.922299"><ele>190.0</ele><time>2026-04-25T12:34:45.756Z</time></trkpt><trkpt lat="45.884997" lon="13.9225099"><ele>187.0</ele><time>2026-04-25T12:34:46.756Z</time></trkpt><trkpt lat="45.8848419" lon="13.9227048"><ele>184.0</ele><time>2026-04-25T12:34:47.755Z</time></trkpt><trkpt lat="45.8846972" lon="13.9228808"><ele>186.66666666666669</ele><time>2026-04-25T12:34:48.756Z</time></trkpt><trkpt lat="45.8845572" lon="13.9230286"><ele>189.33333333333334</ele><time>2026-04-25T12:34:49.755Z</time></trkpt><trkpt lat="45.8844098" lon="13.9231424"><ele>192.0</ele><time>2026-04-25T12:34:50.757Z</time></trkpt><trkpt lat="45.8842594" lon="13.9232165"><ele>192.0</ele><time>2026-04-25T12:34:51.756Z</time></trkpt><trkpt lat="45.8841193" lon="13.9232533"><ele>192.0</ele><time>2026-04-25T12:34:52.756Z</time></trkpt><trkpt lat="45.8839961" lon="13.9232763"><ele>192.0</ele><time>2026-04-25T12:34:53.756Z</time></trkpt><trkpt lat="45.8838831" lon="13.9233045"><ele>192.0</ele><time>2026-04-25T12:34:54.756Z</time></trkpt><trkpt lat="45.8837914" lon="13.9233698"><ele>195.2</ele><time>2026-04-25T12:34:55.755Z</time></trkpt><trkpt lat="45.883723" lon="13.9234715"><ele>198.39999999999998</ele><time>2026-04-25T12:34:56.756Z</time></trkpt><trkpt lat="45.8836986" lon="13.923602"><ele>201.60000000000002</ele><time>2026-04-25T12:34:57.756Z</time></trkpt><trkpt lat="45.8837187" lon="13.9237271"><ele>204.8</ele><time>2026-04-25T12:34:58.755Z</time></trkpt><trkpt lat="45.8837817" lon="13.9238233"><ele>208.0</ele><time>2026-04-25T12:34:59.756Z</time></trkpt><trkpt lat="45.8838758" lon="13.9238627"><ele>208.0</ele><time>2026-04-25T12:35:00.756Z</time></trkpt><trkpt lat="45.883997" lon="13.9238433"><ele>208.0</ele><time>2026-04-25T12:35:01.756Z</time></trkpt><trkpt lat="45.8841441" lon="13.9238078"><ele>208.0</ele><time>2026-04-25T12:35:02.755Z</time></trkpt><trkpt lat="45.8843176" lon="13.9237766"><ele>208.0</ele><time>2026-04-25T12:35:03.756Z</time></trkpt><trkpt lat="45.8845058" lon="13.92375"><ele>212.0</ele><time>2026-04-25T12:35:04.756Z</time></trkpt><trkpt lat="45.8847528" lon="13.9237891"><ele>216.0</ele><time>2026-04-25T12:35:05.756Z</time></trkpt><trkpt lat="45.8849854" lon="13.9238041"><ele>218.5</ele><time>2026-04-25T12:35:06.756Z</time></trkpt><trkpt lat="45.8852366" lon="13.9238257"><ele>221.0</ele><time>2026-04-25T12:35:07.756Z</time></trkpt><trkpt lat="45.8854943" lon="13.9238464"><ele>221.0</ele><time>2026-04-25T12:35:08.756Z</time></trkpt><trkpt lat="45.8857448" lon="13.9238677"><ele>221.0</ele><time>2026-04-25T12:35:09.755Z</time></trkpt><trkpt lat="45.8859859" lon="13.9239031"><ele>223.33333333333334</ele><time>2026-04-25T12:35:10.756Z</time></trkpt><trkpt lat="45.8861995" lon="13.9239249"><ele>225.66666666666669</ele><time>2026-04-25T12:35:11.756Z</time></trkpt><trkpt lat="45.8863717" lon="13.9239314"><ele>228.0</ele><time>2026-04-25T12:35:12.756Z</time></trkpt><trkpt lat="45.8865273" lon="13.9239569"><ele>228.0</ele><time>2026-04-25T12:35:13.756Z</time></trkpt><trkpt lat="45.8865409" lon="13.9238432"><ele>228.0</ele><time>2026-04-25T12:35:14.756Z</time></trkpt><trkpt lat="45.8866284" lon="13.923846"><ele>228.0</ele><time>2026-04-25T12:35:15.756Z</time></trkpt><trkpt lat="45.886693" lon="13.9238655"><ele>228.0</ele><time>2026-04-25T12:35:16.756Z</time></trkpt><trkpt lat="45.8867233" lon="13.9240003"><ele>228.0</ele><time>2026-04-25T12:35:18.755Z</time></trkpt><trkpt lat="45.8865929" lon="13.9241115"><ele>228.0</ele><time>2026-04-25T12:35:20.755Z</time></trkpt><trkpt lat="45.8864792" lon="13.9241801"><ele>228.0</ele><time>2026-04-25T12:35:21.756Z</time></trkpt><trkpt lat="45.8863603" lon="13.924262"><ele>228.0</ele><time>2026-04-25T12:35:22.756Z</time></trkpt><trkpt lat="45.8862255" lon="13.9243769"><ele>228.0</ele><time>2026-04-25T12:35:23.755Z</time></trkpt><trkpt lat="45.8860715" lon="13.9245262"><ele>231.0</ele><time>2026-04-25T12:35:24.756Z</time></trkpt><trkpt lat="45.8859078" lon="13.9246924"><ele>234.0</ele><time>2026-04-25T12:35:25.755Z</time></trkpt><trkpt lat="45.8857596" lon="13.9248629"><ele>237.0</ele><time>2026-04-25T12:35:26.756Z</time></trkpt><trkpt lat="45.8856234" lon="13.9250299"><ele>242.0</ele><time>2026-04-25T12:35:27.756Z</time></trkpt><trkpt lat="45.8854938" lon="13.9251988"><ele>247.0</ele><time>2026-04-25T12:35:28.756Z</time></trkpt><trkpt lat="45.885393" lon="13.9253674"><ele>252.0</ele><time>2026-04-25T12:35:29.756Z</time></trkpt><trkpt lat="45.885321" lon="13.9255569"><ele>252.0</ele><time>2026-04-25T12:35:30.756Z</time></trkpt><trkpt lat="45.8852729" lon="13.9257889"><ele>252.0</ele><time>2026-04-25T12:35:31.756Z</time></trkpt><trkpt lat="45.885232" lon="13.9260451"><ele>252.0</ele><time>2026-04-25T12:35:32.756Z</time></trkpt><trkpt lat="45.8851856" lon="13.9263237"><ele>252.0</ele><time>2026-04-25T12:35:33.756Z</time></trkpt><trkpt lat="45.8851251" lon="13.9266071"><ele>252.0</ele><time>2026-04-25T12:35:34.755Z</time></trkpt><trkpt lat="45.8850572" lon="13.9268828"><ele>252.0</ele><time>2026-04-25T12:35:35.757Z</time></trkpt><trkpt lat="45.884985" lon="13.9271338"><ele>252.0</ele><time>2026-04-25T12:35:36.756Z</time></trkpt><trkpt lat="45.8849127" lon="13.927363"><ele>252.0</ele><time>2026-04-25T12:35:37.756Z</time></trkpt><trkpt lat="45.8848499" lon="13.9275767"><ele>252.0</ele><time>2026-04-25T12:35:38.756Z</time></trkpt><trkpt lat="45.8848076" lon="13.9277796"><ele>252.0</ele><time>2026-04-25T12:35:39.756Z</time></trkpt><trkpt lat="45.8848065" lon="13.9279936"><ele>252.0</ele><time>2026-04-25T12:35:40.755Z</time></trkpt><trkpt lat="45.8848329" lon="13.9282191"><ele>252.0</ele><time>2026-04-25T12:35:41.756Z</time></trkpt><trkpt lat="45.8848647" lon="13.9284548"><ele>252.0</ele><time>2026-04-25T12:35:42.756Z</time></trkpt><trkpt lat="45.8849027" lon="13.9286956"><ele>252.0</ele><time>2026-04-25T12:35:43.756Z</time></trkpt><trkpt lat="45.8849698" lon="13.9289266"><ele>252.0</ele><time>2026-04-25T12:35:44.756Z</time></trkpt><trkpt lat="45.8850604" lon="13.9291384"><ele>258.0</ele><time>2026-04-25T12:35:45.755Z</time></trkpt><trkpt lat="45.8851561" lon="13.9293384"><ele>264.0</ele><time>2026-04-25T12:35:46.756Z</time></trkpt><trkpt lat="45.8852549" lon="13.9295345"><ele>270.0</ele><time>2026-04-25T12:35:47.756Z</time></trkpt><trkpt lat="45.8853474" lon="13.9297344"><ele>270.0</ele><time>2026-04-25T12:35:48.756Z</time></trkpt><trkpt lat="45.8854224" lon="13.9299464"><ele>270.0</ele><time>2026-04-25T12:35:49.756Z</time></trkpt><trkpt lat="45.8854834" lon="13.9301648"><ele>270.0</ele><time>2026-04-25T12:35:50.756Z</time></trkpt><trkpt lat="45.8855302" lon="13.9303765"><ele>271.25</ele><time>2026-04-25T12:35:51.756Z</time></trkpt><trkpt lat="45.8855662" lon="13.9305831"><ele>272.5</ele><time>2026-04-25T12:35:52.756Z</time></trkpt><trkpt lat="45.885558" lon="13.9307942"><ele>273.75</ele><time>2026-04-25T12:35:53.755Z</time></trkpt><trkpt lat="45.885532" lon="13.9310061"><ele>275.0</ele><time>2026-04-25T12:35:54.756Z</time></trkpt><trkpt lat="45.885487" lon="13.931209"><ele>276.6666666666667</ele><time>2026-04-25T12:35:55.756Z</time></trkpt><trkpt lat="45.8854187" lon="13.9314027"><ele>278.3333333333333</ele><time>2026-04-25T12:35:56.755Z</time></trkpt><trkpt lat="45.8853375" lon="13.9315878"><ele>280.0</ele><time>2026-04-25T12:35:57.756Z</time></trkpt><trkpt lat="45.8852433" lon="13.931756"><ele>282.66666666666663</ele><time>2026-04-25T12:35:58.756Z</time></trkpt><trkpt lat="45.8851274" lon="13.9318991"><ele>285.3333333333333</ele><time>2026-04-25T12:35:59.756Z</time></trkpt><trkpt lat="45.8850011" lon="13.9320211"><ele>288.0</ele><time>2026-04-25T12:36:00.756Z</time></trkpt><trkpt lat="45.8848621" lon="13.9321304"><ele>288.0</ele><time>2026-04-25T12:36:01.756Z</time></trkpt><trkpt lat="45.8847205" lon="13.9322214"><ele>288.0</ele><time>2026-04-25T12:36:02.756Z</time></trkpt><trkpt lat="45.8845655" lon="13.9322821"><ele>288.0</ele><time>2026-04-25T12:36:03.756Z</time></trkpt><trkpt lat="45.8844237" lon="13.9323319"><ele>288.0</ele><time>2026-04-25T12:36:04.756Z</time></trkpt><trkpt lat="45.884271" lon="13.9323829"><ele>288.0</ele><time>2026-04-25T12:36:05.756Z</time></trkpt><trkpt lat="45.8841209" lon="13.9323717"><ele>288.0</ele><time>2026-04-25T12:36:06.755Z</time></trkpt><trkpt lat="45.884005" lon="13.9323244"><ele>288.0</ele><time>2026-04-25T12:36:07.756Z</time></trkpt><trkpt lat="45.8839264" lon="13.9322673"><ele>286.8</ele><time>2026-04-25T12:36:08.756Z</time></trkpt><trkpt lat="45.8838391" lon="13.9322652"><ele>285.6</ele><time>2026-04-25T12:36:09.756Z</time></trkpt><trkpt lat="45.8837621" lon="13.9323228"><ele>284.4</ele><time>2026-04-25T12:36:10.756Z</time></trkpt><trkpt lat="45.8837171" lon="13.9324253"><ele>283.2</ele><time>2026-04-25T12:36:11.755Z</time></trkpt><trkpt lat="45.8836986" lon="13.9325913"><ele>282.0</ele><time>2026-04-25T12:36:12.755Z</time></trkpt><trkpt lat="45.8837037" lon="13.9328017"><ele>288.3333333333333</ele><time>2026-04-25T12:36:13.756Z</time></trkpt><trkpt lat="45.883707" lon="13.9330436"><ele>294.66666666666663</ele><time>2026-04-25T12:36:14.756Z</time></trkpt><trkpt lat="45.8836941" lon="13.9333139"><ele>301.0</ele><time>2026-04-25T12:36:15.756Z</time></trkpt><trkpt lat="45.883674" lon="13.933606"><ele>304.0</ele><time>2026-04-25T12:36:16.756Z</time></trkpt><trkpt lat="45.8836406" lon="13.9338874"><ele>307.0</ele><time>2026-04-25T12:36:17.755Z</time></trkpt><trkpt lat="45.8835977" lon="13.9341465"><ele>310.0</ele><time>2026-04-25T12:36:18.756Z</time></trkpt><trkpt lat="45.88356" lon="13.9343862"><ele>309.3333333333333</ele><time>2026-04-25T12:36:19.756Z</time></trkpt><trkpt lat="45.8835422" lon="13.9346197"><ele>308.6666666666667</ele><time>2026-04-25T12:36:20.755Z</time></trkpt><trkpt lat="45.8835529" lon="13.9348438"><ele>308.0</ele><time>2026-04-25T12:36:21.756Z</time></trkpt><trkpt lat="45.8835924" lon="13.9350623"><ele>308.0</ele><time>2026-04-25T12:36:22.756Z</time></trkpt><trkpt lat="45.8836575" lon="13.9352727"><ele>308.0</ele><time>2026-04-25T12:36:23.755Z</time></trkpt><trkpt lat="45.8837392" lon="13.9354813"><ele>308.0</ele><time>2026-04-25T12:36:24.756Z</time></trkpt><trkpt lat="45.8838394" lon="13.9356865"><ele>308.0</ele><time>2026-04-25T12:36:25.756Z</time></trkpt><trkpt lat="45.8839398" lon="13.9358799"><ele>308.0</ele><time>2026-04-25T12:36:26.756Z</time></trkpt><trkpt lat="45.8840491" lon="13.936034"><ele>308.0</ele><time>2026-04-25T12:36:27.756Z</time></trkpt><trkpt lat="45.884165" lon="13.9361677"><ele>313.0</ele><time>2026-04-25T12:36:28.756Z</time></trkpt><trkpt lat="45.8842641" lon="13.9362942"><ele>318.0</ele><time>2026-04-25T12:36:29.756Z</time></trkpt><trkpt lat="45.8843387" lon="13.9364283"><ele>323.0</ele><time>2026-04-25T12:36:30.756Z</time></trkpt><trkpt lat="45.8843917" lon="13.9365809"><ele>328.0</ele><time>2026-04-25T12:36:31.756Z</time></trkpt><trkpt lat="45.8843948" lon="13.9367551"><ele>329.0</ele><time>2026-04-25T12:36:32.756Z</time></trkpt><trkpt lat="45.8843704" lon="13.9369538"><ele>330.0</ele><time>2026-04-25T12:36:33.757Z</time></trkpt><trkpt lat="45.8843105" lon="13.9371692"><ele>331.0</ele><time>2026-04-25T12:36:34.756Z</time></trkpt><trkpt lat="45.8842385" lon="13.9374224"><ele>326.3333333333333</ele><time>2026-04-25T12:36:35.756Z</time></trkpt><trkpt lat="45.884161" lon="13.9376987"><ele>321.6666666666667</ele><time>2026-04-25T12:36:36.756Z</time></trkpt><trkpt lat="45.8840754" lon="13.9379966"><ele>317.0</ele><time>2026-04-25T12:36:37.756Z</time></trkpt><trkpt lat="45.8839878" lon="13.9383013"><ele>320.0</ele><time>2026-04-25T12:36:38.756Z</time></trkpt><trkpt lat="45.883898" lon="13.9385996"><ele>323.0</ele><time>2026-04-25T12:36:39.755Z</time></trkpt><trkpt lat="45.8838043" lon="13.9388873"><ele>326.0</ele><time>2026-04-25T12:36:40.756Z</time></trkpt><trkpt lat="45.8836953" lon="13.9391598"><ele>323.6666666666667</ele><time>2026-04-25T12:36:41.756Z</time></trkpt><trkpt lat="45.8835753" lon="13.9394203"><ele>321.3333333333333</ele><time>2026-04-25T12:36:42.756Z</time></trkpt><trkpt lat="45.8834408" lon="13.9396648"><ele>319.0</ele><time>2026-04-25T12:36:43.756Z</time></trkpt><trkpt lat="45.8833049" lon="13.9398927"><ele>324.66666666666663</ele><time>2026-04-25T12:36:44.756Z</time></trkpt><trkpt lat="45.8831772" lon="13.9400985"><ele>330.3333333333333</ele><time>2026-04-25T12:36:45.756Z</time></trkpt><trkpt lat="45.8830427" lon="13.940284"><ele>336.0</ele><time>2026-04-25T12:36:46.756Z</time></trkpt><trkpt lat="45.8828981" lon="13.9404472"><ele>336.0</ele><time>2026-04-25T12:36:47.756Z</time></trkpt><trkpt lat="45.8827473" lon="13.9405877"><ele>336.0</ele><time>2026-04-25T12:36:48.757Z</time></trkpt><trkpt lat="45.882602" lon="13.9407311"><ele>336.0</ele><time>2026-04-25T12:36:49.756Z</time></trkpt><trkpt lat="45.8824687" lon="13.9409169"><ele>334.6666666666667</ele><time>2026-04-25T12:36:50.756Z</time></trkpt><trkpt lat="45.88235" lon="13.9411283"><ele>333.33333333333337</ele><time>2026-04-25T12:36:51.756Z</time></trkpt><trkpt lat="45.8822516" lon="13.9413788"><ele>332.0</ele><time>2026-04-25T12:36:52.755Z</time></trkpt><trkpt lat="45.8821695" lon="13.9416575"><ele>333.33333333333337</ele><time>2026-04-25T12:36:53.756Z</time></trkpt><trkpt lat="45.8820914" lon="13.941951"><ele>334.6666666666667</ele><time>2026-04-25T12:36:54.756Z</time></trkpt><trkpt lat="45.8820155" lon="13.9422384"><ele>336.0</ele><time>2026-04-25T12:36:55.756Z</time></trkpt><trkpt lat="45.8819418" lon="13.9425069"><ele>337.0</ele><time>2026-04-25T12:36:56.755Z</time></trkpt><trkpt lat="45.8818755" lon="13.942764"><ele>338.0</ele><time>2026-04-25T12:36:57.756Z</time></trkpt><trkpt lat="45.8818161" lon="13.9429971"><ele>339.0</ele><time>2026-04-25T12:36:58.755Z</time></trkpt><trkpt lat="45.8817632" lon="13.9432228"><ele>336.0</ele><time>2026-04-25T12:36:59.756Z</time></trkpt><trkpt lat="45.881726" lon="13.9434419"><ele>333.0</ele><time>2026-04-25T12:37:00.756Z</time></trkpt><trkpt lat="45.8817122" lon="13.9436664"><ele>330.0</ele><time>2026-04-25T12:37:01.756Z</time></trkpt><trkpt lat="45.8817304" lon="13.9438866"><ele>332.5</ele><time>2026-04-25T12:37:02.756Z</time></trkpt><trkpt lat="45.8817827" lon="13.944091"><ele>335.0</ele><time>2026-04-25T12:37:03.756Z</time></trkpt><trkpt lat="45.8818653" lon="13.9442681"><ele>337.5</ele><time>2026-04-25T12:37:04.756Z</time></trkpt><trkpt lat="45.8819503" lon="13.9444293"><ele>340.0</ele><time>2026-04-25T12:37:05.755Z</time></trkpt><trkpt lat="45.8820225" lon="13.9445801"><ele>341.75</ele><time>2026-04-25T12:37:06.756Z</time></trkpt><trkpt lat="45.8820766" lon="13.9447452"><ele>343.5</ele><time>2026-04-25T12:37:07.755Z</time></trkpt><trkpt lat="45.8821066" lon="13.9449194"><ele>345.25</ele><time>2026-04-25T12:37:08.756Z</time></trkpt><trkpt lat="45.882116" lon="13.9450988"><ele>347.0</ele><time>2026-04-25T12:37:09.756Z</time></trkpt><trkpt lat="45.8821005" lon="13.945279"><ele>350.25</ele><time>2026-04-25T12:37:10.756Z</time></trkpt><trkpt lat="45.8820603" lon="13.9454522"><ele>353.5</ele><time>2026-04-25T12:37:11.756Z</time></trkpt><trkpt lat="45.8819978" lon="13.9456157"><ele>356.75</ele><time>2026-04-25T12:37:12.756Z</time></trkpt><trkpt lat="45.8819196" lon="13.945774"><ele>360.0</ele><time>2026-04-25T12:37:13.756Z</time></trkpt><trkpt lat="45.8818278" lon="13.9459236"><ele>358.5</ele><time>2026-04-25T12:37:14.756Z</time></trkpt><trkpt lat="45.8817315" lon="13.9460744"><ele>357.0</ele><time>2026-04-25T12:37:15.756Z</time></trkpt><trkpt lat="45.8816336" lon="13.9462319"><ele>355.5</ele><time>2026-04-25T12:37:16.756Z</time></trkpt><trkpt lat="45.8815346" lon="13.946387"><ele>354.0</ele><time>2026-04-25T12:37:17.756Z</time></trkpt><trkpt lat="45.8814383" lon="13.9465451"><ele>354.0</ele><time>2026-04-25T12:37:18.756Z</time></trkpt><trkpt lat="45.8813458" lon="13.94671"><ele>354.0</ele><time>2026-04-25T12:37:19.757Z</time></trkpt><trkpt lat="45.8812648" lon="13.9468807"><ele>354.0</ele><time>2026-04-25T12:37:20.756Z</time></trkpt><trkpt lat="45.8811969" lon="13.9470641"><ele>354.0</ele><time>2026-04-25T12:37:21.756Z</time></trkpt><trkpt lat="45.8811376" lon="13.9472579"><ele>356.25</ele><time>2026-04-25T12:37:22.756Z</time></trkpt><trkpt lat="45.881088" lon="13.9474533"><ele>358.5</ele><time>2026-04-25T12:37:23.756Z</time></trkpt><trkpt lat="45.8810392" lon="13.9476535"><ele>360.75</ele><time>2026-04-25T12:37:24.755Z</time></trkpt><trkpt lat="45.8809918" lon="13.9478554"><ele>363.0</ele><time>2026-04-25T12:37:25.756Z</time></trkpt><trkpt lat="45.8809529" lon="13.9480592"><ele>361.5</ele><time>2026-04-25T12:37:26.756Z</time></trkpt><trkpt lat="45.8809313" lon="13.9482605"><ele>360.0</ele><time>2026-04-25T12:37:27.756Z</time></trkpt><trkpt lat="45.880929" lon="13.9484623"><ele>358.5</ele><time>2026-04-25T12:37:28.755Z</time></trkpt><trkpt lat="45.8809478" lon="13.9486641"><ele>357.0</ele><time>2026-04-25T12:37:29.755Z</time></trkpt><trkpt lat="45.8809809" lon="13.9488563"><ele>364.5</ele><time>2026-04-25T12:37:30.755Z</time></trkpt><trkpt lat="45.8810232" lon="13.9490405"><ele>372.0</ele><time>2026-04-25T12:37:31.755Z</time></trkpt><trkpt lat="45.8810653" lon="13.9492122"><ele>379.5</ele><time>2026-04-25T12:37:32.756Z</time></trkpt><trkpt lat="45.8811035" lon="13.9493869"><ele>387.0</ele><time>2026-04-25T12:37:33.755Z</time></trkpt><trkpt lat="45.8811303" lon="13.9495639"><ele>388.0</ele><time>2026-04-25T12:37:34.755Z</time></trkpt><trkpt lat="45.8811418" lon="13.9497409"><ele>389.0</ele><time>2026-04-25T12:37:35.755Z</time></trkpt><trkpt lat="45.8811422" lon="13.9499149"><ele>390.0</ele><time>2026-04-25T12:37:36.754Z</time></trkpt><trkpt lat="45.881135" lon="13.950087"><ele>391.0</ele><time>2026-04-25T12:37:37.755Z</time></trkpt><trkpt lat="45.8811129" lon="13.9502533"><ele>393.25</ele><time>2026-04-25T12:37:38.755Z</time></trkpt><trkpt lat="45.881073" lon="13.9504122"><ele>395.5</ele><time>2026-04-25T12:37:39.754Z</time></trkpt><trkpt lat="45.8810219" lon="13.9505647"><ele>397.75</ele><time>2026-04-25T12:37:40.754Z</time></trkpt><trkpt lat="45.8809637" lon="13.9507062"><ele>400.0</ele><time>2026-04-25T12:37:41.756Z</time></trkpt><trkpt lat="45.8808776" lon="13.9508418"><ele>396.0</ele><time>2026-04-25T12:37:42.755Z</time></trkpt><trkpt lat="45.8808019" lon="13.9509833"><ele>392.0</ele><time>2026-04-25T12:37:43.755Z</time></trkpt><trkpt lat="45.8807377" lon="13.9511413"><ele>388.0</ele><time>2026-04-25T12:37:44.755Z</time></trkpt><trkpt lat="45.8806906" lon="13.9513204"><ele>384.0</ele><time>2026-04-25T12:37:45.755Z</time></trkpt><trkpt lat="45.8806618" lon="13.9515156"><ele>385.5</ele><time>2026-04-25T12:37:46.755Z</time></trkpt><trkpt lat="45.880636" lon="13.9517173"><ele>387.0</ele><time>2026-04-25T12:37:47.755Z</time></trkpt><trkpt lat="45.8806096" lon="13.9519227"><ele>388.5</ele><time>2026-04-25T12:37:48.755Z</time></trkpt><trkpt lat="45.8805798" lon="13.9521287"><ele>390.0</ele><time>2026-04-25T12:37:49.755Z</time></trkpt><trkpt lat="45.880546" lon="13.9523319"><ele>390.0</ele><time>2026-04-25T12:37:50.755Z</time></trkpt><trkpt lat="45.880513" lon="13.9525308"><ele>390.0</ele><time>2026-04-25T12:37:51.754Z</time></trkpt><trkpt lat="45.8804763" lon="13.952736"><ele>390.0</ele><time>2026-04-25T12:37:52.755Z</time></trkpt><trkpt lat="45.8804358" lon="13.9529356"><ele>390.0</ele><time>2026-04-25T12:37:53.755Z</time></trkpt><trkpt lat="45.8803956" lon="13.9531328"><ele>392.25</ele><time>2026-04-25T12:37:54.755Z</time></trkpt><trkpt lat="45.8803527" lon="13.9533288"><ele>394.5</ele><time>2026-04-25T12:37:55.755Z</time></trkpt><trkpt lat="45.8803114" lon="13.9535199"><ele>396.75</ele><time>2026-04-25T12:37:56.755Z</time></trkpt><trkpt lat="45.8802696" lon="13.9537116"><ele>399.0</ele><time>2026-04-25T12:37:57.755Z</time></trkpt><trkpt lat="45.8802314" lon="13.953898"><ele>402.25</ele><time>2026-04-25T12:37:58.755Z</time></trkpt><trkpt lat="45.8801914" lon="13.9540745"><ele>405.5</ele><time>2026-04-25T12:37:59.755Z</time></trkpt><trkpt lat="45.8801431" lon="13.9542327"><ele>408.75</ele><time>2026-04-25T12:38:00.755Z</time></trkpt><trkpt lat="45.8800953" lon="13.9543837"><ele>412.0</ele><time>2026-04-25T12:38:01.755Z</time></trkpt><trkpt lat="45.8800756" lon="13.9545369"><ele>413.75</ele><time>2026-04-25T12:38:02.755Z</time></trkpt><trkpt lat="45.8800741" lon="13.9546913"><ele>415.5</ele><time>2026-04-25T12:38:03.755Z</time></trkpt><trkpt lat="45.8800857" lon="13.9548517"><ele>417.25</ele><time>2026-04-25T12:38:04.755Z</time></trkpt><trkpt lat="45.8801101" lon="13.9550156"><ele>419.0</ele><time>2026-04-25T12:38:05.755Z</time></trkpt><trkpt lat="45.8801295" lon="13.9551895"><ele>421.25</ele><time>2026-04-25T12:38:06.755Z</time></trkpt><trkpt lat="45.880147" lon="13.9553778"><ele>423.5</ele><time>2026-04-25T12:38:07.755Z</time></trkpt><trkpt lat="45.8801574" lon="13.9555805"><ele>425.75</ele><time>2026-04-25T12:38:08.755Z</time></trkpt><trkpt lat="45.8801523" lon="13.955783"><ele>428.0</ele><time>2026-04-25T12:38:09.754Z</time></trkpt><trkpt lat="45.8801403" lon="13.9559824"><ele>430.75</ele><time>2026-04-25T12:38:10.755Z</time></trkpt><trkpt lat="45.8801289" lon="13.9561795"><ele>433.5</ele><time>2026-04-25T12:38:11.755Z</time></trkpt><trkpt lat="45.8801168" lon="13.956369"><ele>436.25</ele><time>2026-04-25T12:38:12.755Z</time></trkpt><trkpt lat="45.8800942" lon="13.9565512"><ele>439.0</ele><time>2026-04-25T12:38:13.755Z</time></trkpt><trkpt lat="45.8800674" lon="13.9567251"><ele>432.25</ele><time>2026-04-25T12:38:14.755Z</time></trkpt><trkpt lat="45.8800212" lon="13.9568932"><ele>425.5</ele><time>2026-04-25T12:38:15.754Z</time></trkpt><trkpt lat="45.8799545" lon="13.9570542"><ele>418.75</ele><time>2026-04-25T12:38:16.755Z</time></trkpt><trkpt lat="45.8798764" lon="13.9572079"><ele>412.0</ele><time>2026-04-25T12:38:17.755Z</time></trkpt><trkpt lat="45.8798017" lon="13.9573668"><ele>412.0</ele><time>2026-04-25T12:38:18.755Z</time></trkpt><trkpt lat="45.8797193" lon="13.9575179"><ele>412.0</ele><time>2026-04-25T12:38:19.755Z</time></trkpt><trkpt lat="45.8796465" lon="13.9576784"><ele>412.0</ele><time>2026-04-25T12:38:20.755Z</time></trkpt><trkpt lat="45.879572" lon="13.9578512"><ele>412.0</ele><time>2026-04-25T12:38:21.755Z</time></trkpt><trkpt lat="45.8795149" lon="13.9580292"><ele>415.0</ele><time>2026-04-25T12:38:22.755Z</time></trkpt><trkpt lat="45.8794758" lon="13.9582246"><ele>418.0</ele><time>2026-04-25T12:38:23.755Z</time></trkpt><trkpt lat="45.8794456" lon="13.9584263"><ele>421.0</ele><time>2026-04-25T12:38:24.754Z</time></trkpt><trkpt lat="45.8794137" lon="13.9586305"><ele>424.0</ele><time>2026-04-25T12:38:25.754Z</time></trkpt><trkpt lat="45.8793831" lon="13.958839"><ele>425.25</ele><time>2026-04-25T12:38:26.755Z</time></trkpt><trkpt lat="45.8793501" lon="13.9590478"><ele>426.5</ele><time>2026-04-25T12:38:27.755Z</time></trkpt><trkpt lat="45.8793135" lon="13.9592572"><ele>427.75</ele><time>2026-04-25T12:38:28.755Z</time></trkpt><trkpt lat="45.879272" lon="13.9594609"><ele>429.0</ele><time>2026-04-25T12:38:29.755Z</time></trkpt><trkpt lat="45.8792149" lon="13.9596591"><ele>427.5</ele><time>2026-04-25T12:38:30.754Z</time></trkpt><trkpt lat="45.8791565" lon="13.9598537"><ele>426.0</ele><time>2026-04-25T12:38:31.755Z</time></trkpt><trkpt lat="45.8790957" lon="13.9600463"><ele>424.5</ele><time>2026-04-25T12:38:32.755Z</time></trkpt><trkpt lat="45.8790376" lon="13.9602373"><ele>423.0</ele><time>2026-04-25T12:38:33.755Z</time></trkpt><trkpt lat="45.8789885" lon="13.9604283"><ele>423.0</ele><time>2026-04-25T12:38:34.754Z</time></trkpt><trkpt lat="45.8789538" lon="13.9606266"><ele>423.0</ele><time>2026-04-25T12:38:35.755Z</time></trkpt><trkpt lat="45.8789332" lon="13.9608343"><ele>423.0</ele><time>2026-04-25T12:38:36.755Z</time></trkpt><trkpt lat="45.8789216" lon="13.9610532"><ele>423.0</ele><time>2026-04-25T12:38:37.754Z</time></trkpt><trkpt lat="45.8789132" lon="13.9612803"><ele>424.33333333333337</ele><time>2026-04-25T12:38:38.755Z</time></trkpt><trkpt lat="45.8789044" lon="13.9615115"><ele>425.6666666666667</ele><time>2026-04-25T12:38:39.755Z</time></trkpt><trkpt lat="45.8789051" lon="13.9617501"><ele>427.0</ele><time>2026-04-25T12:38:40.755Z</time></trkpt><trkpt lat="45.878912" lon="13.9619921"><ele>429.0</ele><time>2026-04-25T12:38:41.755Z</time></trkpt><trkpt lat="45.8789234" lon="13.9622353"><ele>431.0</ele><time>2026-04-25T12:38:42.755Z</time></trkpt><trkpt lat="45.8789156" lon="13.9624759"><ele>433.0</ele><time>2026-04-25T12:38:43.755Z</time></trkpt><trkpt lat="45.8788896" lon="13.9627094"><ele>435.33333333333337</ele><time>2026-04-25T12:38:44.755Z</time></trkpt><trkpt lat="45.8788574" lon="13.9629357"><ele>437.66666666666663</ele><time>2026-04-25T12:38:45.755Z</time></trkpt><trkpt lat="45.8788282" lon="13.9631566"><ele>440.0</ele><time>2026-04-25T12:38:46.755Z</time></trkpt><trkpt lat="45.8788147" lon="13.9633757"><ele>441.66666666666663</ele><time>2026-04-25T12:38:47.755Z</time></trkpt><trkpt lat="45.8788147" lon="13.9635992"><ele>443.33333333333337</ele><time>2026-04-25T12:38:48.755Z</time></trkpt><trkpt lat="45.8788273" lon="13.9638235"><ele>445.0</ele><time>2026-04-25T12:38:49.755Z</time></trkpt><trkpt lat="45.8788403" lon="13.9640513"><ele>445.33333333333337</ele><time>2026-04-25T12:38:50.754Z</time></trkpt><trkpt lat="45.8788533" lon="13.9642812"><ele>445.66666666666663</ele><time>2026-04-25T12:38:51.755Z</time></trkpt><trkpt lat="45.8788665" lon="13.964509"><ele>446.0</ele><time>2026-04-25T12:38:52.755Z</time></trkpt><trkpt lat="45.878879" lon="13.9647411"><ele>446.0</ele><time>2026-04-25T12:38:53.755Z</time></trkpt><trkpt lat="45.8789005" lon="13.9649811"><ele>446.0</ele><time>2026-04-25T12:38:54.755Z</time></trkpt><trkpt lat="45.8789371" lon="13.9652214"><ele>446.0</ele><time>2026-04-25T12:38:55.755Z</time></trkpt><trkpt lat="45.8789934" lon="13.9654546"><ele>445.66666666666663</ele><time>2026-04-25T12:38:56.755Z</time></trkpt><trkpt lat="45.8790667" lon="13.9656846"><ele>445.33333333333337</ele><time>2026-04-25T12:38:57.755Z</time></trkpt><trkpt lat="45.8791486" lon="13.9659107"><ele>445.0</ele><time>2026-04-25T12:38:58.755Z</time></trkpt><trkpt lat="45.8792312" lon="13.9661395"><ele>450.33333333333337</ele><time>2026-04-25T12:38:59.754Z</time></trkpt><trkpt lat="45.8793152" lon="13.9663674"><ele>455.66666666666663</ele><time>2026-04-25T12:39:00.755Z</time></trkpt><trkpt lat="45.8794002" lon="13.9665976"><ele>461.0</ele><time>2026-04-25T12:39:01.755Z</time></trkpt><trkpt lat="45.8794832" lon="13.9668257"><ele>461.0</ele><time>2026-04-25T12:39:02.755Z</time></trkpt><trkpt lat="45.8795676" lon="13.9670592"><ele>461.0</ele><time>2026-04-25T12:39:03.755Z</time></trkpt><trkpt lat="45.879651" lon="13.9672943"><ele>461.0</ele><time>2026-04-25T12:39:04.755Z</time></trkpt><trkpt lat="45.8797323" lon="13.9675222"><ele>458.66666666666663</ele><time>2026-04-25T12:39:05.755Z</time></trkpt><trkpt lat="45.8798137" lon="13.9677486"><ele>456.33333333333337</ele><time>2026-04-25T12:39:06.755Z</time></trkpt><trkpt lat="45.879894" lon="13.9679713"><ele>454.0</ele><time>2026-04-25T12:39:07.755Z</time></trkpt><trkpt lat="45.8799724" lon="13.9681761"><ele>453.33333333333337</ele><time>2026-04-25T12:39:08.755Z</time></trkpt><trkpt lat="45.8800525" lon="13.9683787"><ele>452.66666666666663</ele><time>2026-04-25T12:39:09.755Z</time></trkpt><trkpt lat="45.8801324" lon="13.9685739"><ele>452.0</ele><time>2026-04-25T12:39:10.755Z</time></trkpt><trkpt lat="45.8802141" lon="13.9687614"><ele>458.5</ele><time>2026-04-25T12:39:11.755Z</time></trkpt><trkpt lat="45.8802988" lon="13.9689366"><ele>465.0</ele><time>2026-04-25T12:39:12.755Z</time></trkpt><trkpt lat="45.8803734" lon="13.9690871"><ele>471.5</ele><time>2026-04-25T12:39:13.755Z</time></trkpt><trkpt lat="45.8804377" lon="13.9692258"><ele>478.0</ele><time>2026-04-25T12:39:14.755Z</time></trkpt><trkpt lat="45.8804905" lon="13.9693692"><ele>478.0</ele><time>2026-04-25T12:39:15.755Z</time></trkpt><trkpt lat="45.8805234" lon="13.969515"><ele>477.99999999999994</ele><time>2026-04-25T12:39:16.755Z</time></trkpt><trkpt lat="45.8805429" lon="13.9696679"><ele>477.99999999999994</ele><time>2026-04-25T12:39:17.755Z</time></trkpt><trkpt lat="45.8805468" lon="13.9698229"><ele>478.0</ele><time>2026-04-25T12:39:18.755Z</time></trkpt><trkpt lat="45.8805389" lon="13.9699853"><ele>478.0</ele><time>2026-04-25T12:39:19.755Z</time></trkpt><trkpt lat="45.8805359" lon="13.9701489"><ele>477.5</ele><time>2026-04-25T12:39:20.755Z</time></trkpt><trkpt lat="45.8805316" lon="13.9703167"><ele>477.0</ele><time>2026-04-25T12:39:21.755Z</time></trkpt><trkpt lat="45.8805329" lon="13.970495"><ele>476.5</ele><time>2026-04-25T12:39:22.755Z</time></trkpt><trkpt lat="45.8805484" lon="13.9706908"><ele>476.0</ele><time>2026-04-25T12:39:23.755Z</time></trkpt><trkpt lat="45.8805728" lon="13.9708984"><ele>476.0</ele><time>2026-04-25T12:39:24.755Z</time></trkpt><trkpt lat="45.8806199" lon="13.9711004"><ele>476.0</ele><time>2026-04-25T12:39:25.755Z</time></trkpt><trkpt lat="45.880684" lon="13.9713002"><ele>476.0</ele><time>2026-04-25T12:39:26.755Z</time></trkpt><trkpt lat="45.8807557" lon="13.9714852"><ele>476.0</ele><time>2026-04-25T12:39:27.755Z</time></trkpt><trkpt lat="45.8808326" lon="13.9716591"><ele>473.75</ele><time>2026-04-25T12:39:28.755Z</time></trkpt><trkpt lat="45.8809138" lon="13.9718239"><ele>471.5</ele><time>2026-04-25T12:39:29.755Z</time></trkpt><trkpt lat="45.8809863" lon="13.9719983"><ele>469.25</ele><time>2026-04-25T12:39:30.755Z</time></trkpt><trkpt lat="45.8810526" lon="13.9721788"><ele>467.0</ele><time>2026-04-25T12:39:31.754Z</time></trkpt><trkpt lat="45.881121" lon="13.9723626"><ele>473.0</ele><time>2026-04-25T12:39:32.755Z</time></trkpt><trkpt lat="45.8811893" lon="13.9725506"><ele>479.0</ele><time>2026-04-25T12:39:33.755Z</time></trkpt><trkpt lat="45.8812561" lon="13.9727368"><ele>485.0</ele><time>2026-04-25T12:39:34.755Z</time></trkpt><trkpt lat="45.8813199" lon="13.9729244"><ele>491.0</ele><time>2026-04-25T12:39:35.755Z</time></trkpt><trkpt lat="45.8813733" lon="13.9730996"><ele>491.0</ele><time>2026-04-25T12:39:36.755Z</time></trkpt><trkpt lat="45.8814184" lon="13.9732507"><ele>491.0</ele><time>2026-04-25T12:39:37.755Z</time></trkpt><trkpt lat="45.8814693" lon="13.9733946"><ele>491.0</ele><time>2026-04-25T12:39:38.755Z</time></trkpt><trkpt lat="45.8815268" lon="13.9735207"><ele>491.0</ele><time>2026-04-25T12:39:39.755Z</time></trkpt><trkpt lat="45.8816002" lon="13.973624"><ele>491.0</ele><time>2026-04-25T12:39:40.754Z</time></trkpt><trkpt lat="45.8816777" lon="13.9737149"><ele>490.6</ele><time>2026-04-25T12:39:41.755Z</time></trkpt><trkpt lat="45.8817509" lon="13.973811"><ele>490.20000000000005</ele><time>2026-04-25T12:39:42.755Z</time></trkpt><trkpt lat="45.8818095" lon="13.973917"><ele>489.79999999999995</ele><time>2026-04-25T12:39:43.755Z</time></trkpt><trkpt lat="45.8818492" lon="13.9740389"><ele>489.4</ele><time>2026-04-25T12:39:44.755Z</time></trkpt><trkpt lat="45.8818596" lon="13.9741773"><ele>489.0</ele><time>2026-04-25T12:39:45.755Z</time></trkpt><trkpt lat="45.8818489" lon="13.9743163"><ele>490.5</ele><time>2026-04-25T12:39:46.755Z</time></trkpt><trkpt lat="45.8818185" lon="13.9744632"><ele>492.0</ele><time>2026-04-25T12:39:47.755Z</time></trkpt><trkpt lat="45.8817774" lon="13.9746156"><ele>493.5</ele><time>2026-04-25T12:39:48.755Z</time></trkpt><trkpt lat="45.8817298" lon="13.9747777"><ele>495.0</ele><time>2026-04-25T12:39:49.754Z</time></trkpt><trkpt lat="45.8816785" lon="13.9749631"><ele>496.5</ele><time>2026-04-25T12:39:50.755Z</time></trkpt><trkpt lat="45.881634" lon="13.9751568"><ele>498.0</ele><time>2026-04-25T12:39:51.755Z</time></trkpt><trkpt lat="45.8816005" lon="13.9753479"><ele>499.5</ele><time>2026-04-25T12:39:52.755Z</time></trkpt><trkpt lat="45.8815782" lon="13.9755209"><ele>501.0</ele><time>2026-04-25T12:39:53.756Z</time></trkpt><trkpt lat="45.8815678" lon="13.9756817"><ele>501.0</ele><time>2026-04-25T12:39:54.754Z</time></trkpt><trkpt lat="45.8815717" lon="13.9758241"><ele>501.0</ele><time>2026-04-25T12:39:55.755Z</time></trkpt><trkpt lat="45.8816021" lon="13.9759524"><ele>501.0</ele><time>2026-04-25T12:39:56.755Z</time></trkpt><trkpt lat="45.8816496" lon="13.9760706"><ele>501.0</ele><time>2026-04-25T12:39:57.755Z</time></trkpt><trkpt lat="45.8817083" lon="13.9761864"><ele>501.0</ele><time>2026-04-25T12:39:58.755Z</time></trkpt><trkpt lat="45.8817742" lon="13.9763038"><ele>505.8</ele><time>2026-04-25T12:39:59.754Z</time></trkpt><trkpt lat="45.8818398" lon="13.9764186"><ele>510.6</ele><time>2026-04-25T12:40:00.755Z</time></trkpt><trkpt lat="45.8819161" lon="13.9765321"><ele>515.4</ele><time>2026-04-25T12:40:01.754Z</time></trkpt><trkpt lat="45.8819944" lon="13.9766492"><ele>520.2</ele><time>2026-04-25T12:40:02.755Z</time></trkpt><trkpt lat="45.8820628" lon="13.9767818"><ele>525.0</ele><time>2026-04-25T12:40:03.755Z</time></trkpt><trkpt lat="45.8821197" lon="13.9769318"><ele>525.0</ele><time>2026-04-25T12:40:04.755Z</time></trkpt><trkpt lat="45.8821694" lon="13.977089"><ele>525.0</ele><time>2026-04-25T12:40:05.755Z</time></trkpt><trkpt lat="45.8822124" lon="13.9772455"><ele>525.0</ele><time>2026-04-25T12:40:06.754Z</time></trkpt><trkpt lat="45.8822426" lon="13.9773928"><ele>525.0</ele><time>2026-04-25T12:40:07.755Z</time></trkpt><trkpt lat="45.8822572" lon="13.9775449"><ele>526.0</ele><time>2026-04-25T12:40:08.755Z</time></trkpt><trkpt lat="45.8822574" lon="13.9776952"><ele>527.0</ele><time>2026-04-25T12:40:09.755Z</time></trkpt><trkpt lat="45.8822455" lon="13.9778457"><ele>528.0</ele><time>2026-04-25T12:40:10.754Z</time></trkpt><trkpt lat="45.8822327" lon="13.9779971"><ele>529.0</ele><time>2026-04-25T12:40:11.755Z</time></trkpt><trkpt lat="45.8822124" lon="13.9781483"><ele>530.0</ele><time>2026-04-25T12:40:12.755Z</time></trkpt><trkpt lat="45.8821819" lon="13.9782991"><ele>532.8</ele><time>2026-04-25T12:40:13.755Z</time></trkpt><trkpt lat="45.8821396" lon="13.9784402"><ele>535.6</ele><time>2026-04-25T12:40:14.755Z</time></trkpt><trkpt lat="45.8820876" lon="13.9785678"><ele>538.4</ele><time>2026-04-25T12:40:15.755Z</time></trkpt><trkpt lat="45.8820261" lon="13.9786924"><ele>541.2</ele><time>2026-04-25T12:40:16.755Z</time></trkpt><trkpt lat="45.8819644" lon="13.9788291"><ele>544.0</ele><time>2026-04-25T12:40:17.755Z</time></trkpt><trkpt lat="45.8819086" lon="13.9789673"><ele>544.0</ele><time>2026-04-25T12:40:18.755Z</time></trkpt><trkpt lat="45.8818533" lon="13.9791064"><ele>544.0</ele><time>2026-04-25T12:40:19.755Z</time></trkpt><trkpt lat="45.8818053" lon="13.9792468"><ele>544.0</ele><time>2026-04-25T12:40:20.755Z</time></trkpt><trkpt lat="45.8817729" lon="13.9793963"><ele>544.0</ele><time>2026-04-25T12:40:21.755Z</time></trkpt><trkpt lat="45.8817644" lon="13.9795523"><ele>544.0</ele><time>2026-04-25T12:40:22.755Z</time></trkpt><trkpt lat="45.8817817" lon="13.97971"><ele>542.6666666666667</ele><time>2026-04-25T12:40:23.755Z</time></trkpt><trkpt lat="45.8818418" lon="13.9800207"><ele>541.3333333333334</ele><time>2026-04-25T12:40:25.754Z</time></trkpt><trkpt lat="45.8818784" lon="13.9801783"><ele>540.0</ele><time>2026-04-25T12:40:26.755Z</time></trkpt><trkpt lat="45.8819187" lon="13.9803328"><ele>540.0</ele><time>2026-04-25T12:40:27.755Z</time></trkpt><trkpt lat="45.881959" lon="13.9804907"><ele>540.0</ele><time>2026-04-25T12:40:28.755Z</time></trkpt><trkpt lat="45.8819987" lon="13.9806469"><ele>540.0</ele><time>2026-04-25T12:40:29.755Z</time></trkpt><trkpt lat="45.8820436" lon="13.9808047"><ele>540.0</ele><time>2026-04-25T12:40:30.754Z</time></trkpt><trkpt lat="45.8820931" lon="13.9809565"><ele>537.6666666666666</ele><time>2026-04-25T12:40:31.754Z</time></trkpt><trkpt lat="45.8821678" lon="13.9811054"><ele>535.3333333333333</ele><time>2026-04-25T12:40:32.755Z</time></trkpt><trkpt lat="45.8822701" lon="13.9812673"><ele>533.0</ele><time>2026-04-25T12:40:33.755Z</time></trkpt><trkpt lat="45.8823786" lon="13.9814576"><ele>533.0</ele><time>2026-04-25T12:40:34.755Z</time></trkpt><trkpt lat="45.8824803" lon="13.9816618"><ele>533.0</ele><time>2026-04-25T12:40:35.754Z</time></trkpt><trkpt lat="45.8825734" lon="13.981876"><ele>533.0</ele><time>2026-04-25T12:40:36.755Z</time></trkpt><trkpt lat="45.8826515" lon="13.9820872"><ele>547.0</ele><time>2026-04-25T12:40:37.755Z</time></trkpt><trkpt lat="45.8827106" lon="13.9823025"><ele>561.0</ele><time>2026-04-25T12:40:38.755Z</time></trkpt><trkpt lat="45.8827555" lon="13.9825264"><ele>575.0</ele><time>2026-04-25T12:40:39.754Z</time></trkpt><trkpt lat="45.8827924" lon="13.9827522"><ele>576.0</ele><time>2026-04-25T12:40:40.754Z</time></trkpt><trkpt lat="45.8828197" lon="13.9829796"><ele>577.0</ele><time>2026-04-25T12:40:41.754Z</time></trkpt><trkpt lat="45.8828366" lon="13.9832154"><ele>578.0</ele><time>2026-04-25T12:40:42.754Z</time></trkpt><trkpt lat="45.8828558" lon="13.9834446"><ele>578.0</ele><time>2026-04-25T12:40:43.753Z</time></trkpt><trkpt lat="45.8828714" lon="13.9836704"><ele>578.0</ele><time>2026-04-25T12:40:44.754Z</time></trkpt><trkpt lat="45.8828901" lon="13.9838965"><ele>578.0</ele><time>2026-04-25T12:40:45.753Z</time></trkpt><trkpt lat="45.882905" lon="13.9841224"><ele>578.25</ele><time>2026-04-25T12:40:46.754Z</time></trkpt><trkpt lat="45.882916" lon="13.9843459"><ele>578.5</ele><time>2026-04-25T12:40:47.754Z</time></trkpt><trkpt lat="45.8829272" lon="13.9845546"><ele>578.75</ele><time>2026-04-25T12:40:48.754Z</time></trkpt><trkpt lat="45.8829424" lon="13.9847641"><ele>579.0</ele><time>2026-04-25T12:40:49.754Z</time></trkpt><trkpt lat="45.8829536" lon="13.9849748"><ele>576.0</ele><time>2026-04-25T12:40:50.754Z</time></trkpt><trkpt lat="45.8830051" lon="13.9851577"><ele>573.0</ele><time>2026-04-25T12:40:51.754Z</time></trkpt><trkpt lat="45.8830484" lon="13.9853303"><ele>570.0</ele><time>2026-04-25T12:40:52.753Z</time></trkpt><trkpt lat="45.8830997" lon="13.985484"><ele>567.0</ele><time>2026-04-25T12:40:53.754Z</time></trkpt><trkpt lat="45.8831501" lon="13.9856394"><ele>567.0</ele><time>2026-04-25T12:40:54.754Z</time></trkpt><trkpt lat="45.8831843" lon="13.9857982"><ele>567.0</ele><time>2026-04-25T12:40:55.754Z</time></trkpt><trkpt lat="45.8832067" lon="13.9859556"><ele>567.0</ele><time>2026-04-25T12:40:56.754Z</time></trkpt><trkpt lat="45.8832171" lon="13.9861147"><ele>567.0</ele><time>2026-04-25T12:40:57.754Z</time></trkpt><trkpt lat="45.8832178" lon="13.9862739"><ele>568.0</ele><time>2026-04-25T12:40:58.754Z</time></trkpt><trkpt lat="45.8832115" lon="13.9864345"><ele>569.0</ele><time>2026-04-25T12:40:59.754Z</time></trkpt><trkpt lat="45.8831871" lon="13.9865914"><ele>570.0</ele><time>2026-04-25T12:41:00.754Z</time></trkpt><trkpt lat="45.8831415" lon="13.9867424"><ele>571.0</ele><time>2026-04-25T12:41:01.754Z</time></trkpt><trkpt lat="45.8830926" lon="13.9868871"><ele>577.5</ele><time>2026-04-25T12:41:02.754Z</time></trkpt><trkpt lat="45.8830274" lon="13.9870363"><ele>584.0</ele><time>2026-04-25T12:41:03.754Z</time></trkpt><trkpt lat="45.8829622" lon="13.9871879"><ele>590.5</ele><time>2026-04-25T12:41:04.753Z</time></trkpt><trkpt lat="45.8828915" lon="13.9873384"><ele>597.0</ele><time>2026-04-25T12:41:05.755Z</time></trkpt><trkpt lat="45.8828165" lon="13.9874863"><ele>593.75</ele><time>2026-04-25T12:41:06.754Z</time></trkpt><trkpt lat="45.8827297" lon="13.9876238"><ele>590.5</ele><time>2026-04-25T12:41:07.754Z</time></trkpt><trkpt lat="45.8826354" lon="13.9877495"><ele>587.25</ele><time>2026-04-25T12:41:08.754Z</time></trkpt><trkpt lat="45.8825384" lon="13.987874"><ele>584.0</ele><time>2026-04-25T12:41:09.754Z</time></trkpt><trkpt lat="45.882445" lon="13.9880023"><ele>584.0</ele><time>2026-04-25T12:41:10.753Z</time></trkpt><trkpt lat="45.8823579" lon="13.9881383"><ele>584.0</ele><time>2026-04-25T12:41:11.754Z</time></trkpt><trkpt lat="45.8822782" lon="13.9882826"><ele>584.0</ele><time>2026-04-25T12:41:12.754Z</time></trkpt><trkpt lat="45.8821986" lon="13.9884251"><ele>584.0</ele><time>2026-04-25T12:41:13.754Z</time></trkpt><trkpt lat="45.8821184" lon="13.9885661"><ele>591.5</ele><time>2026-04-25T12:41:14.754Z</time></trkpt><trkpt lat="45.8820398" lon="13.9887111"><ele>599.0</ele><time>2026-04-25T12:41:15.754Z</time></trkpt><trkpt lat="45.8819645" lon="13.9888655"><ele>606.5</ele><time>2026-04-25T12:41:16.754Z</time></trkpt><trkpt lat="45.8818944" lon="13.9890231"><ele>614.0</ele><time>2026-04-25T12:41:17.753Z</time></trkpt><trkpt lat="45.8818421" lon="13.989188"><ele>617.5</ele><time>2026-04-25T12:41:18.754Z</time></trkpt><trkpt lat="45.8818001" lon="13.9893563"><ele>621.0</ele><time>2026-04-25T12:41:19.754Z</time></trkpt><trkpt lat="45.8817731" lon="13.9895248"><ele>624.5</ele><time>2026-04-25T12:41:20.754Z</time></trkpt><trkpt lat="45.8817611" lon="13.9896975"><ele>628.0</ele><time>2026-04-25T12:41:21.754Z</time></trkpt><trkpt lat="45.8817556" lon="13.9898686"><ele>628.75</ele><time>2026-04-25T12:41:22.753Z</time></trkpt><trkpt lat="45.881759" lon="13.9900406"><ele>629.5</ele><time>2026-04-25T12:41:23.754Z</time></trkpt><trkpt lat="45.8817697" lon="13.9902056"><ele>630.25</ele><time>2026-04-25T12:41:24.754Z</time></trkpt><trkpt lat="45.8817826" lon="13.990372"><ele>631.0</ele><time>2026-04-25T12:41:25.754Z</time></trkpt><trkpt lat="45.8817959" lon="13.9905351"><ele>631.0</ele><time>2026-04-25T12:41:26.755Z</time></trkpt><trkpt lat="45.8818038" lon="13.9906988"><ele>631.0</ele><time>2026-04-25T12:41:27.754Z</time></trkpt><trkpt lat="45.8818069" lon="13.9908593"><ele>631.0</ele><time>2026-04-25T12:41:28.754Z</time></trkpt><trkpt lat="45.8817979" lon="13.991017"><ele>631.0</ele><time>2026-04-25T12:41:29.754Z</time></trkpt><trkpt lat="45.8817803" lon="13.9911703"><ele>631.0</ele><time>2026-04-25T12:41:30.754Z</time></trkpt><trkpt lat="45.8817618" lon="13.9913214"><ele>623.2</ele><time>2026-04-25T12:41:31.754Z</time></trkpt><trkpt lat="45.8817473" lon="13.9914737"><ele>615.4000000000001</ele><time>2026-04-25T12:41:32.754Z</time></trkpt><trkpt lat="45.8817358" lon="13.9916295"><ele>607.6</ele><time>2026-04-25T12:41:33.754Z</time></trkpt><trkpt lat="45.8817223" lon="13.9917825"><ele>599.8000000000001</ele><time>2026-04-25T12:41:34.754Z</time></trkpt><trkpt lat="45.8817083" lon="13.9919338"><ele>592.0</ele><time>2026-04-25T12:41:35.754Z</time></trkpt><trkpt lat="45.8816785" lon="13.9922451"><ele>592.0</ele><time>2026-04-25T12:41:37.754Z</time></trkpt><trkpt lat="45.8816731" lon="13.9924001"><ele>592.0</ele><time>2026-04-25T12:41:38.754Z</time></trkpt><trkpt lat="45.8816648" lon="13.9925589"><ele>592.0</ele><time>2026-04-25T12:41:39.754Z</time></trkpt><trkpt lat="45.8816504" lon="13.9927203"><ele>592.0</ele><time>2026-04-25T12:41:40.754Z</time></trkpt><trkpt lat="45.881633" lon="13.992889"><ele>594.0</ele><time>2026-04-25T12:41:41.753Z</time></trkpt><trkpt lat="45.8816093" lon="13.9930661"><ele>596.0</ele><time>2026-04-25T12:41:42.753Z</time></trkpt><trkpt lat="45.8815785" lon="13.9932592"><ele>598.0</ele><time>2026-04-25T12:41:43.754Z</time></trkpt><trkpt lat="45.8815386" lon="13.9934507"><ele>600.0</ele><time>2026-04-25T12:41:44.755Z</time></trkpt><trkpt lat="45.8815005" lon="13.9936524"><ele>603.75</ele><time>2026-04-25T12:41:45.754Z</time></trkpt><trkpt lat="45.8814589" lon="13.9938541"><ele>607.5</ele><time>2026-04-25T12:41:46.753Z</time></trkpt><trkpt lat="45.8814147" lon="13.9940577"><ele>611.25</ele><time>2026-04-25T12:41:47.754Z</time></trkpt><trkpt lat="45.8813719" lon="13.994265"><ele>615.0</ele><time>2026-04-25T12:41:48.754Z</time></trkpt><trkpt lat="45.8813306" lon="13.9944664"><ele>618.75</ele><time>2026-04-25T12:41:49.754Z</time></trkpt><trkpt lat="45.8812899" lon="13.9946657"><ele>622.5</ele><time>2026-04-25T12:41:50.754Z</time></trkpt><trkpt lat="45.8812492" lon="13.9948596"><ele>626.25</ele><time>2026-04-25T12:41:51.754Z</time></trkpt><trkpt lat="45.8812082" lon="13.9950475"><ele>630.0</ele><time>2026-04-25T12:41:52.754Z</time></trkpt><trkpt lat="45.8811648" lon="13.99523"><ele>631.5</ele><time>2026-04-25T12:41:53.754Z</time></trkpt><trkpt lat="45.8811361" lon="13.9954176"><ele>633.0</ele><time>2026-04-25T12:41:54.754Z</time></trkpt><trkpt lat="45.8811216" lon="13.9956127"><ele>634.5</ele><time>2026-04-25T12:41:55.753Z</time></trkpt><trkpt lat="45.8811111" lon="13.9958144"><ele>636.0</ele><time>2026-04-25T12:41:56.754Z</time></trkpt><trkpt lat="45.8810996" lon="13.9960218"><ele>637.5</ele><time>2026-04-25T12:41:57.754Z</time></trkpt><trkpt lat="45.8810899" lon="13.9962291"><ele>639.0</ele><time>2026-04-25T12:41:58.754Z</time></trkpt><trkpt lat="45.8810719" lon="13.9964351"><ele>640.5</ele><time>2026-04-25T12:41:59.754Z</time></trkpt><trkpt lat="45.8810444" lon="13.9966403"><ele>642.0</ele><time>2026-04-25T12:42:00.754Z</time></trkpt><trkpt lat="45.8810156" lon="13.9968454"><ele>641.75</ele><time>2026-04-25T12:42:01.753Z</time></trkpt><trkpt lat="45.8809891" lon="13.9970499"><ele>641.5</ele><time>2026-04-25T12:42:02.754Z</time></trkpt><trkpt lat="45.8809681" lon="13.9972545"><ele>641.25</ele><time>2026-04-25T12:42:03.754Z</time></trkpt><trkpt lat="45.8809548" lon="13.9974588"><ele>641.0</ele><time>2026-04-25T12:42:04.754Z</time></trkpt><trkpt lat="45.8809418" lon="13.9976617"><ele>641.0</ele><time>2026-04-25T12:42:05.754Z</time></trkpt><trkpt lat="45.8809327" lon="13.9978686"><ele>641.0</ele><time>2026-04-25T12:42:06.754Z</time></trkpt><trkpt lat="45.8809306" lon="13.9980743"><ele>641.0</ele><time>2026-04-25T12:42:07.753Z</time></trkpt><trkpt lat="45.8809314" lon="13.9982817"><ele>641.0</ele><time>2026-04-25T12:42:08.754Z</time></trkpt><trkpt lat="45.8809367" lon="13.9984747"><ele>638.4</ele><time>2026-04-25T12:42:09.754Z</time></trkpt><trkpt lat="45.8809424" lon="13.9986481"><ele>635.8</ele><time>2026-04-25T12:42:10.754Z</time></trkpt><trkpt lat="45.8809457" lon="13.9988067"><ele>633.1999999999999</ele><time>2026-04-25T12:42:11.754Z</time></trkpt><trkpt lat="45.8809496" lon="13.9989551"><ele>630.5999999999999</ele><time>2026-04-25T12:42:12.754Z</time></trkpt><trkpt lat="45.880951" lon="13.9990932"><ele>628.0</ele><time>2026-04-25T12:42:13.754Z</time></trkpt><trkpt lat="45.8809528" lon="13.9992343"><ele>628.0</ele><time>2026-04-25T12:42:14.753Z</time></trkpt><trkpt lat="45.8809577" lon="13.9993712"><ele>628.0</ele><time>2026-04-25T12:42:15.754Z</time></trkpt><trkpt lat="45.8809621" lon="13.9995107"><ele>628.0</ele><time>2026-04-25T12:42:16.753Z</time></trkpt><trkpt lat="45.8809621" lon="13.9996519"><ele>628.0</ele><time>2026-04-25T12:42:17.754Z</time></trkpt><trkpt lat="45.8809588" lon="13.9997957"><ele>628.0</ele><time>2026-04-25T12:42:18.754Z</time></trkpt><trkpt lat="45.8809605" lon="13.9999295"><ele>628.0</ele><time>2026-04-25T12:42:19.754Z</time></trkpt><trkpt lat="45.8809666" lon="14.0000472"><ele>628.0</ele><time>2026-04-25T12:42:20.754Z</time></trkpt><trkpt lat="45.880974" lon="14.000162"><ele>628.0</ele><time>2026-04-25T12:42:21.754Z</time></trkpt><trkpt lat="45.8809821" lon="14.0002767"><ele>628.0</ele><time>2026-04-25T12:42:22.754Z</time></trkpt><trkpt lat="45.8809918" lon="14.0003974"><ele>628.0</ele><time>2026-04-25T12:42:23.754Z</time></trkpt><trkpt lat="45.8810071" lon="14.0005193"><ele>628.0</ele><time>2026-04-25T12:42:24.754Z</time></trkpt><trkpt lat="45.8810337" lon="14.000652"><ele>628.0</ele><time>2026-04-25T12:42:25.754Z</time></trkpt><trkpt lat="45.8810682" lon="14.0007822"><ele>628.0</ele><time>2026-04-25T12:42:26.754Z</time></trkpt><trkpt lat="45.8811088" lon="14.000911"><ele>628.0</ele><time>2026-04-25T12:42:27.754Z</time></trkpt><trkpt lat="45.8811579" lon="14.0010319"><ele>628.0</ele><time>2026-04-25T12:42:28.754Z</time></trkpt><trkpt lat="45.8812041" lon="14.0011364"><ele>628.0</ele><time>2026-04-25T12:42:29.753Z</time></trkpt><trkpt lat="45.8812492" lon="14.0012295"><ele>627.5</ele><time>2026-04-25T12:42:30.754Z</time></trkpt><trkpt lat="45.8812868" lon="14.0013026"><ele>627.0</ele><time>2026-04-25T12:42:31.754Z</time></trkpt><trkpt lat="45.8813424" lon="14.0014205"><ele>626.5</ele><time>2026-04-25T12:42:33.754Z</time></trkpt><trkpt lat="45.8813733" lon="14.0015211"><ele>626.0</ele><time>2026-04-25T12:42:35.754Z</time></trkpt><trkpt lat="45.881407" lon="14.0016511"><ele>625.5</ele><time>2026-04-25T12:42:37.754Z</time></trkpt><trkpt lat="45.8814859" lon="14.0017601"><ele>625.0</ele><time>2026-04-25T12:42:39.754Z</time></trkpt><trkpt lat="45.8815505" lon="14.0017933"><ele>625.0</ele><time>2026-04-25T12:42:40.755Z</time></trkpt><trkpt lat="45.8816332" lon="14.0018406"><ele>625.0</ele><time>2026-04-25T12:42:41.754Z</time></trkpt><trkpt lat="45.881735" lon="14.0019366"><ele>625.0</ele><time>2026-04-25T12:42:42.754Z</time></trkpt><trkpt lat="45.8818559" lon="14.0020685"><ele>625.0</ele><time>2026-04-25T12:42:43.754Z</time></trkpt><trkpt lat="45.8819887" lon="14.0022322"><ele>625.0</ele><time>2026-04-25T12:42:44.754Z</time></trkpt><trkpt lat="45.8821285" lon="14.0024111"><ele>625.0</ele><time>2026-04-25T12:42:45.754Z</time></trkpt><trkpt lat="45.8822806" lon="14.0026053"><ele>625.0</ele><time>2026-04-25T12:42:46.754Z</time></trkpt><trkpt lat="45.8824426" lon="14.0028163"><ele>631.0</ele><time>2026-04-25T12:42:47.754Z</time></trkpt><trkpt lat="45.882607" lon="14.0030251"><ele>637.0</ele><time>2026-04-25T12:42:48.754Z</time></trkpt><trkpt lat="45.8827732" lon="14.003232"><ele>643.0</ele><time>2026-04-25T12:42:49.754Z</time></trkpt><trkpt lat="45.8829392" lon="14.0034318"><ele>643.3333333333334</ele><time>2026-04-25T12:42:50.754Z</time></trkpt><trkpt lat="45.8831077" lon="14.0036248"><ele>643.6666666666666</ele><time>2026-04-25T12:42:51.754Z</time></trkpt><trkpt lat="45.8832783" lon="14.0038057"><ele>644.0</ele><time>2026-04-25T12:42:52.754Z</time></trkpt><trkpt lat="45.8834487" lon="14.0039794"><ele>646.3333333333333</ele><time>2026-04-25T12:42:53.754Z</time></trkpt><trkpt lat="45.8836214" lon="14.004147"><ele>648.6666666666666</ele><time>2026-04-25T12:42:54.754Z</time></trkpt><trkpt lat="45.8837842" lon="14.0043066"><ele>651.0</ele><time>2026-04-25T12:42:55.754Z</time></trkpt><trkpt lat="45.8839346" lon="14.0044516"><ele>651.0</ele><time>2026-04-25T12:42:56.754Z</time></trkpt><trkpt lat="45.8840751" lon="14.004586"><ele>651.0</ele><time>2026-04-25T12:42:57.754Z</time></trkpt><trkpt lat="45.8842051" lon="14.0047113"><ele>651.0</ele><time>2026-04-25T12:42:58.754Z</time></trkpt><trkpt lat="45.8843291" lon="14.0048207"><ele>651.25</ele><time>2026-04-25T12:42:59.754Z</time></trkpt><trkpt lat="45.884457" lon="14.0049043"><ele>651.5</ele><time>2026-04-25T12:43:00.754Z</time></trkpt><trkpt lat="45.8845938" lon="14.0049546"><ele>651.75</ele><time>2026-04-25T12:43:01.754Z</time></trkpt><trkpt lat="45.8847281" lon="14.0049847"><ele>652.0</ele><time>2026-04-25T12:43:02.754Z</time></trkpt><trkpt lat="45.884869" lon="14.0050073"><ele>652.0</ele><time>2026-04-25T12:43:03.754Z</time></trkpt><trkpt lat="45.885013" lon="14.0050332"><ele>652.0</ele><time>2026-04-25T12:43:04.754Z</time></trkpt><trkpt lat="45.8851656" lon="14.0050604"><ele>652.0</ele><time>2026-04-25T12:43:05.754Z</time></trkpt><trkpt lat="45.8853211" lon="14.0050909"><ele>651.0</ele><time>2026-04-25T12:43:06.754Z</time></trkpt><trkpt lat="45.8854801" lon="14.0051232"><ele>650.0</ele><time>2026-04-25T12:43:07.754Z</time></trkpt><trkpt lat="45.8856393" lon="14.0051789"><ele>649.0</ele><time>2026-04-25T12:43:08.754Z</time></trkpt><trkpt lat="45.8858007" lon="14.0052628"><ele>648.0</ele><time>2026-04-25T12:43:09.753Z</time></trkpt><trkpt lat="45.8859595" lon="14.005377"><ele>647.0</ele><time>2026-04-25T12:43:10.753Z</time></trkpt><trkpt lat="45.8861294" lon="14.0055044"><ele>646.0</ele><time>2026-04-25T12:43:11.754Z</time></trkpt><trkpt lat="45.8863109" lon="14.0056428"><ele>646.0</ele><time>2026-04-25T12:43:12.753Z</time></trkpt><trkpt lat="45.8864971" lon="14.005784"><ele>646.0</ele><time>2026-04-25T12:43:13.753Z</time></trkpt><trkpt lat="45.8866891" lon="14.005926"><ele>646.0</ele><time>2026-04-25T12:43:14.753Z</time></trkpt><trkpt lat="45.8868827" lon="14.0060694"><ele>648.6666666666667</ele><time>2026-04-25T12:43:15.753Z</time></trkpt><trkpt lat="45.8870738" lon="14.0062164"><ele>651.3333333333334</ele><time>2026-04-25T12:43:16.753Z</time></trkpt><trkpt lat="45.8872617" lon="14.0063596"><ele>654.0</ele><time>2026-04-25T12:43:17.753Z</time></trkpt><trkpt lat="45.8874424" lon="14.0064964"><ele>656.6666666666666</ele><time>2026-04-25T12:43:18.754Z</time></trkpt><trkpt lat="45.887615" lon="14.0066324"><ele>659.3333333333333</ele><time>2026-04-25T12:43:19.753Z</time></trkpt><trkpt lat="45.8877836" lon="14.0067736"><ele>662.0</ele><time>2026-04-25T12:43:20.754Z</time></trkpt><trkpt lat="45.8879425" lon="14.0069367"><ele>662.0</ele><time>2026-04-25T12:43:21.754Z</time></trkpt><trkpt lat="45.8880908" lon="14.0071261"><ele>662.0</ele><time>2026-04-25T12:43:22.753Z</time></trkpt><trkpt lat="45.8882306" lon="14.0073358"><ele>662.0</ele><time>2026-04-25T12:43:23.753Z</time></trkpt><trkpt lat="45.8883574" lon="14.0075575"><ele>665.6666666666666</ele><time>2026-04-25T12:43:24.754Z</time></trkpt><trkpt lat="45.8884754" lon="14.0077867"><ele>669.3333333333334</ele><time>2026-04-25T12:43:25.754Z</time></trkpt><trkpt lat="45.888587" lon="14.008021"><ele>673.0</ele><time>2026-04-25T12:43:26.754Z</time></trkpt><trkpt lat="45.8886978" lon="14.0082574"><ele>672.6666666666667</ele><time>2026-04-25T12:43:27.754Z</time></trkpt><trkpt lat="45.8888105" lon="14.0084917"><ele>672.3333333333334</ele><time>2026-04-25T12:43:28.754Z</time></trkpt><trkpt lat="45.8889172" lon="14.0087201"><ele>672.0</ele><time>2026-04-25T12:43:29.754Z</time></trkpt><trkpt lat="45.8890182" lon="14.0089273"><ele>672.0</ele><time>2026-04-25T12:43:30.754Z</time></trkpt><trkpt lat="45.8891076" lon="14.0091162"><ele>672.0</ele><time>2026-04-25T12:43:31.754Z</time></trkpt><trkpt lat="45.8891829" lon="14.0092839"><ele>672.0</ele><time>2026-04-25T12:43:32.755Z</time></trkpt><trkpt lat="45.8892486" lon="14.0094309"><ele>672.0</ele><time>2026-04-25T12:43:33.754Z</time></trkpt><trkpt lat="45.889303" lon="14.0095614"><ele>674.0</ele><time>2026-04-25T12:43:34.754Z</time></trkpt><trkpt lat="45.8893467" lon="14.0096728"><ele>676.0</ele><time>2026-04-25T12:43:35.754Z</time></trkpt><trkpt lat="45.8893678" lon="14.0097624"><ele>678.0</ele><time>2026-04-25T12:43:36.754Z</time></trkpt><trkpt lat="45.8893648" lon="14.0098571"><ele>680.0</ele><time>2026-04-25T12:44:18.753Z</time></trkpt><trkpt lat="45.8894546" lon="14.0098628"><ele>682.0</ele><time>2026-04-25T12:44:22.753Z</time></trkpt><trkpt lat="45.8895289" lon="14.0100281"><ele>684.0</ele><time>2026-04-25T12:44:24.752Z</time></trkpt><trkpt lat="45.8895955" lon="14.0101734"><ele>684.0</ele><time>2026-04-25T12:44:25.753Z</time></trkpt><trkpt lat="45.889677" lon="14.0103348"><ele>684.0</ele><time>2026-04-25T12:44:26.753Z</time></trkpt><trkpt lat="45.889776" lon="14.0105173"><ele>684.0</ele><time>2026-04-25T12:44:27.753Z</time></trkpt><trkpt lat="45.8899125" lon="14.0106796"><ele>684.0</ele><time>2026-04-25T12:44:28.753Z</time></trkpt><trkpt lat="45.8900597" lon="14.0108159"><ele>684.0</ele><time>2026-04-25T12:44:29.752Z</time></trkpt><trkpt lat="45.8902094" lon="14.0109549"><ele>684.0</ele><time>2026-04-25T12:44:30.753Z</time></trkpt><trkpt lat="45.8903659" lon="14.0110973"><ele>687.0</ele><time>2026-04-25T12:44:31.753Z</time></trkpt><trkpt lat="45.890528" lon="14.0112506"><ele>690.0</ele><time>2026-04-25T12:44:32.753Z</time></trkpt><trkpt lat="45.8906936" lon="14.011396"><ele>693.0</ele><time>2026-04-25T12:44:33.753Z</time></trkpt><trkpt lat="45.8908569" lon="14.011531"><ele>694.6666666666666</ele><time>2026-04-25T12:44:34.753Z</time></trkpt><trkpt lat="45.8910109" lon="14.0116638"><ele>696.3333333333333</ele><time>2026-04-25T12:44:35.753Z</time></trkpt><trkpt lat="45.891148" lon="14.0117752"><ele>698.0</ele><time>2026-04-25T12:44:36.753Z</time></trkpt><trkpt lat="45.8912703" lon="14.0118928"><ele>698.0</ele><time>2026-04-25T12:44:37.753Z</time></trkpt><trkpt lat="45.8913777" lon="14.0120367"><ele>698.0</ele><time>2026-04-25T12:44:38.753Z</time></trkpt><trkpt lat="45.8914577" lon="14.0122064"><ele>698.0</ele><time>2026-04-25T12:44:39.753Z</time></trkpt><trkpt lat="45.8915133" lon="14.0123968"><ele>698.0</ele><time>2026-04-25T12:44:40.753Z</time></trkpt><trkpt lat="45.891573" lon="14.0125984"><ele>697.6666666666666</ele><time>2026-04-25T12:44:41.753Z</time></trkpt><trkpt lat="45.8916591" lon="14.0127977"><ele>697.3333333333334</ele><time>2026-04-25T12:44:42.753Z</time></trkpt><trkpt lat="45.8917729" lon="14.0129875"><ele>697.0</ele><time>2026-04-25T12:44:43.753Z</time></trkpt><trkpt lat="45.8919066" lon="14.0131751"><ele>702.3333333333334</ele><time>2026-04-25T12:44:44.753Z</time></trkpt><trkpt lat="45.8920468" lon="14.0133753"><ele>707.6666666666666</ele><time>2026-04-25T12:44:45.753Z</time></trkpt><trkpt lat="45.8921742" lon="14.0136016"><ele>713.0</ele><time>2026-04-25T12:44:46.753Z</time></trkpt><trkpt lat="45.8923138" lon="14.0138171"><ele>713.0</ele><time>2026-04-25T12:44:47.753Z</time></trkpt><trkpt lat="45.8924122" lon="14.0140489"><ele>713.0</ele><time>2026-04-25T12:44:48.753Z</time></trkpt><trkpt lat="45.8925258" lon="14.0142516"><ele>713.0</ele><time>2026-04-25T12:44:49.753Z</time></trkpt><trkpt lat="45.8926266" lon="14.0144563"><ele>719.3333333333333</ele><time>2026-04-25T12:44:50.753Z</time></trkpt><trkpt lat="45.8927184" lon="14.0146534"><ele>725.6666666666666</ele><time>2026-04-25T12:44:51.753Z</time></trkpt><trkpt lat="45.8928315" lon="14.0148304"><ele>732.0</ele><time>2026-04-25T12:44:52.752Z</time></trkpt><trkpt lat="45.8929651" lon="14.0149833"><ele>732.0</ele><time>2026-04-25T12:44:53.753Z</time></trkpt><trkpt lat="45.8931254" lon="14.0151212"><ele>732.0</ele><time>2026-04-25T12:44:54.753Z</time></trkpt><trkpt lat="45.8933017" lon="14.0152411"><ele>732.0</ele><time>2026-04-25T12:44:55.752Z</time></trkpt><trkpt lat="45.8934796" lon="14.015359"><ele>732.0</ele><time>2026-04-25T12:44:56.753Z</time></trkpt><trkpt lat="45.8936624" lon="14.0154541"><ele>732.0</ele><time>2026-04-25T12:44:57.753Z</time></trkpt><trkpt lat="45.8938695" lon="14.0155142"><ele>732.0</ele><time>2026-04-25T12:44:58.753Z</time></trkpt><trkpt lat="45.8940829" lon="14.015539"><ele>733.6666666666666</ele><time>2026-04-25T12:44:59.753Z</time></trkpt><trkpt lat="45.8942948" lon="14.015525"><ele>735.3333333333333</ele><time>2026-04-25T12:45:00.753Z</time></trkpt><trkpt lat="45.8945118" lon="14.015476"><ele>737.0</ele><time>2026-04-25T12:45:01.753Z</time></trkpt><trkpt lat="45.8947305" lon="14.0154019"><ele>737.0</ele><time>2026-04-25T12:45:02.752Z</time></trkpt><trkpt lat="45.8949454" lon="14.0153158"><ele>737.0</ele><time>2026-04-25T12:45:03.753Z</time></trkpt><trkpt lat="45.8951594" lon="14.0152243"><ele>737.0</ele><time>2026-04-25T12:45:04.753Z</time></trkpt><trkpt lat="45.8953715" lon="14.0151377"><ele>736.3333333333333</ele><time>2026-04-25T12:45:05.753Z</time></trkpt><trkpt lat="45.8955831" lon="14.0150636"><ele>735.6666666666666</ele><time>2026-04-25T12:45:06.753Z</time></trkpt><trkpt lat="45.8957955" lon="14.0150067"><ele>735.0</ele><time>2026-04-25T12:45:07.752Z</time></trkpt><trkpt lat="45.8960087" lon="14.0149658"><ele>744.0</ele><time>2026-04-25T12:45:08.753Z</time></trkpt><trkpt lat="45.8962235" lon="14.0149347"><ele>753.0</ele><time>2026-04-25T12:45:09.753Z</time></trkpt><trkpt lat="45.8964383" lon="14.0149"><ele>762.0</ele><time>2026-04-25T12:45:10.753Z</time></trkpt><trkpt lat="45.8966505" lon="14.0148685"><ele>760.6666666666666</ele><time>2026-04-25T12:45:11.753Z</time></trkpt><trkpt lat="45.8968645" lon="14.0148332"><ele>759.3333333333333</ele><time>2026-04-25T12:45:12.753Z</time></trkpt><trkpt lat="45.8970764" lon="14.0147874"><ele>758.0</ele><time>2026-04-25T12:45:13.753Z</time></trkpt><trkpt lat="45.8972894" lon="14.01473"><ele>758.0</ele><time>2026-04-25T12:45:14.753Z</time></trkpt><trkpt lat="45.8975073" lon="14.0146591"><ele>758.0</ele><time>2026-04-25T12:45:15.753Z</time></trkpt><trkpt lat="45.8977193" lon="14.0145699"><ele>758.0</ele><time>2026-04-25T12:45:16.753Z</time></trkpt><trkpt lat="45.8979332" lon="14.0144716"><ele>758.0</ele><time>2026-04-25T12:45:17.753Z</time></trkpt><trkpt lat="45.8981393" lon="14.0143774"><ele>758.0</ele><time>2026-04-25T12:45:18.753Z</time></trkpt><trkpt lat="45.898342" lon="14.0142959"><ele>758.0</ele><time>2026-04-25T12:45:19.753Z</time></trkpt><trkpt lat="45.8985483" lon="14.01424"><ele>757.3333333333333</ele><time>2026-04-25T12:45:20.753Z</time></trkpt><trkpt lat="45.8987609" lon="14.014191"><ele>756.6666666666666</ele><time>2026-04-25T12:45:21.753Z</time></trkpt><trkpt lat="45.8989622" lon="14.0141568"><ele>756.0</ele><time>2026-04-25T12:45:22.753Z</time></trkpt><trkpt lat="45.8991723" lon="14.0141175"><ele>771.6666666666667</ele><time>2026-04-25T12:45:23.753Z</time></trkpt><trkpt lat="45.8993901" lon="14.0140818"><ele>787.3333333333334</ele><time>2026-04-25T12:45:24.753Z</time></trkpt><trkpt lat="45.8995953" lon="14.0140742"><ele>803.0</ele><time>2026-04-25T12:45:25.753Z</time></trkpt><trkpt lat="45.8998088" lon="14.0140652"><ele>803.0</ele><time>2026-04-25T12:45:26.753Z</time></trkpt><trkpt lat="45.9000101" lon="14.0141063"><ele>803.0</ele><time>2026-04-25T12:45:27.753Z</time></trkpt><trkpt lat="45.9002082" lon="14.0141894"><ele>803.0</ele><time>2026-04-25T12:45:28.753Z</time></trkpt><trkpt lat="45.9004119" lon="14.0142347"><ele>802.6666666666667</ele><time>2026-04-25T12:45:29.753Z</time></trkpt><trkpt lat="45.9006149" lon="14.0142979"><ele>802.3333333333333</ele><time>2026-04-25T12:45:30.753Z</time></trkpt><trkpt lat="45.9008217" lon="14.0143426"><ele>802.0</ele><time>2026-04-25T12:45:31.753Z</time></trkpt><trkpt lat="45.9010292" lon="14.0144089"><ele>802.0</ele><time>2026-04-25T12:45:32.752Z</time></trkpt><trkpt lat="45.9012377" lon="14.0144909"><ele>802.0</ele><time>2026-04-25T12:45:33.753Z</time></trkpt><trkpt lat="45.9014401" lon="14.0145925"><ele>802.0</ele><time>2026-04-25T12:45:34.753Z</time></trkpt><trkpt lat="45.9016398" lon="14.0146925"><ele>798.0</ele><time>2026-04-25T12:45:35.753Z</time></trkpt><trkpt lat="45.9018331" lon="14.0148326"><ele>794.0</ele><time>2026-04-25T12:45:36.753Z</time></trkpt><trkpt lat="45.90203" lon="14.0149674"><ele>790.0</ele><time>2026-04-25T12:45:37.753Z</time></trkpt><trkpt lat="45.9022242" lon="14.0150993"><ele>790.0</ele><time>2026-04-25T12:45:38.753Z</time></trkpt><trkpt lat="45.9024201" lon="14.0152414"><ele>790.0</ele><time>2026-04-25T12:45:39.752Z</time></trkpt><trkpt lat="45.9026139" lon="14.015385"><ele>790.0</ele><time>2026-04-25T12:45:40.753Z</time></trkpt><trkpt lat="45.902801" lon="14.015532"><ele>789.3333333333333</ele><time>2026-04-25T12:45:41.753Z</time></trkpt><trkpt lat="45.9029869" lon="14.0156746"><ele>788.6666666666667</ele><time>2026-04-25T12:45:42.753Z</time></trkpt><trkpt lat="45.9031736" lon="14.0158219"><ele>788.0</ele><time>2026-04-25T12:45:43.753Z</time></trkpt><trkpt lat="45.9033608" lon="14.0159698"><ele>800.3333333333334</ele><time>2026-04-25T12:45:44.752Z</time></trkpt><trkpt lat="45.9035472" lon="14.0161153"><ele>812.6666666666667</ele><time>2026-04-25T12:45:45.753Z</time></trkpt><trkpt lat="45.9037313" lon="14.01626"><ele>825.0</ele><time>2026-04-25T12:45:46.753Z</time></trkpt><trkpt lat="45.9039128" lon="14.016418"><ele>825.0</ele><time>2026-04-25T12:45:47.752Z</time></trkpt><trkpt lat="45.9040809" lon="14.0165896"><ele>825.0</ele><time>2026-04-25T12:45:48.753Z</time></trkpt><trkpt lat="45.9042355" lon="14.0167899"><ele>825.0</ele><time>2026-04-25T12:45:49.753Z</time></trkpt><trkpt lat="45.9043822" lon="14.0170066"><ele>828.0</ele><time>2026-04-25T12:45:50.752Z</time></trkpt><trkpt lat="45.9045164" lon="14.0172427"><ele>831.0</ele><time>2026-04-25T12:45:51.753Z</time></trkpt><trkpt lat="45.9046472" lon="14.0174912"><ele>834.0</ele><time>2026-04-25T12:45:52.753Z</time></trkpt><trkpt lat="45.9047698" lon="14.0177437"><ele>833.6666666666667</ele><time>2026-04-25T12:45:53.752Z</time></trkpt><trkpt lat="45.904905" lon="14.0179941"><ele>833.3333333333334</ele><time>2026-04-25T12:45:54.753Z</time></trkpt><trkpt lat="45.9050504" lon="14.0182236"><ele>833.0</ele><time>2026-04-25T12:45:55.753Z</time></trkpt><trkpt lat="45.9052056" lon="14.0184424"><ele>833.0</ele><time>2026-04-25T12:45:56.753Z</time></trkpt><trkpt lat="45.9053685" lon="14.0186563"><ele>833.0</ele><time>2026-04-25T12:45:57.753Z</time></trkpt><trkpt lat="45.9055326" lon="14.0188666"><ele>833.0</ele><time>2026-04-25T12:45:58.752Z</time></trkpt><trkpt lat="45.9056969" lon="14.0190734"><ele>837.0</ele><time>2026-04-25T12:45:59.753Z</time></trkpt><trkpt lat="45.9058648" lon="14.0192775"><ele>841.0</ele><time>2026-04-25T12:46:00.753Z</time></trkpt><trkpt lat="45.9060251" lon="14.0194823"><ele>845.0</ele><time>2026-04-25T12:46:01.752Z</time></trkpt><trkpt lat="45.9061792" lon="14.0196923"><ele>845.0</ele><time>2026-04-25T12:46:02.754Z</time></trkpt><trkpt lat="45.9063293" lon="14.0199087"><ele>845.0</ele><time>2026-04-25T12:46:03.753Z</time></trkpt><trkpt lat="45.9064703" lon="14.0201349"><ele>845.0</ele><time>2026-04-25T12:46:04.753Z</time></trkpt><trkpt lat="45.9066034" lon="14.0203747"><ele>848.0</ele><time>2026-04-25T12:46:05.753Z</time></trkpt><trkpt lat="45.906728" lon="14.0206235"><ele>851.0</ele><time>2026-04-25T12:46:06.753Z</time></trkpt><trkpt lat="45.9068462" lon="14.0208759"><ele>854.0</ele><time>2026-04-25T12:46:07.753Z</time></trkpt><trkpt lat="45.9069604" lon="14.0211251"><ele>854.0</ele><time>2026-04-25T12:46:08.753Z</time></trkpt><trkpt lat="45.9070708" lon="14.021366"><ele>854.0</ele><time>2026-04-25T12:46:09.753Z</time></trkpt><trkpt lat="45.9071751" lon="14.0215944"><ele>854.0</ele><time>2026-04-25T12:46:10.753Z</time></trkpt><trkpt lat="45.9072821" lon="14.0218003"><ele>858.0</ele><time>2026-04-25T12:46:11.752Z</time></trkpt><trkpt lat="45.9074177" lon="14.0219645"><ele>862.0</ele><time>2026-04-25T12:46:12.753Z</time></trkpt><trkpt lat="45.9075676" lon="14.0220999"><ele>866.0</ele><time>2026-04-25T12:46:13.753Z</time></trkpt><trkpt lat="45.9077157" lon="14.0222199"><ele>866.0</ele><time>2026-04-25T12:46:14.753Z</time></trkpt><trkpt lat="45.9078562" lon="14.0223321"><ele>866.0</ele><time>2026-04-25T12:46:15.752Z</time></trkpt><trkpt lat="45.9079855" lon="14.0224433"><ele>866.0</ele><time>2026-04-25T12:46:16.753Z</time></trkpt><trkpt lat="45.9081026" lon="14.0225694"><ele>862.0</ele><time>2026-04-25T12:46:17.753Z</time></trkpt><trkpt lat="45.9081987" lon="14.0227188"><ele>858.0</ele><time>2026-04-25T12:46:18.753Z</time></trkpt><trkpt lat="45.9082705" lon="14.0228935"><ele>854.0</ele><time>2026-04-25T12:46:19.753Z</time></trkpt><trkpt lat="45.9083232" lon="14.0230944"><ele>850.0</ele><time>2026-04-25T12:46:20.753Z</time></trkpt><trkpt lat="45.9083819" lon="14.0233056"><ele>849.6666666666666</ele><time>2026-04-25T12:46:21.752Z</time></trkpt><trkpt lat="45.9084596" lon="14.0235138"><ele>849.3333333333333</ele><time>2026-04-25T12:46:22.753Z</time></trkpt><trkpt lat="45.9085483" lon="14.0237182"><ele>849.0</ele><time>2026-04-25T12:46:23.753Z</time></trkpt><trkpt lat="45.9086488" lon="14.0239073"><ele>849.0</ele><time>2026-04-25T12:46:24.753Z</time></trkpt><trkpt lat="45.9087487" lon="14.0240956"><ele>849.0</ele><time>2026-04-25T12:46:25.753Z</time></trkpt><trkpt lat="45.9088434" lon="14.0242879"><ele>849.0</ele><time>2026-04-25T12:46:26.753Z</time></trkpt><trkpt lat="45.9088943" lon="14.0245346"><ele>850.3333333333333</ele><time>2026-04-25T12:46:27.753Z</time></trkpt><trkpt lat="45.9089498" lon="14.0247533"><ele>851.6666666666666</ele><time>2026-04-25T12:46:28.753Z</time></trkpt><trkpt lat="45.9090028" lon="14.0249676"><ele>853.0</ele><time>2026-04-25T12:46:29.753Z</time></trkpt><trkpt lat="45.9091" lon="14.0251807"><ele>853.0</ele><time>2026-04-25T12:46:30.752Z</time></trkpt><trkpt lat="45.9092294" lon="14.0253755"><ele>853.0</ele><time>2026-04-25T12:46:31.752Z</time></trkpt><trkpt lat="45.9093889" lon="14.0255549"><ele>853.0</ele><time>2026-04-25T12:46:32.753Z</time></trkpt><trkpt lat="45.9095678" lon="14.0257384"><ele>854.0</ele><time>2026-04-25T12:46:33.753Z</time></trkpt><trkpt lat="45.9097542" lon="14.0259244"><ele>855.0</ele><time>2026-04-25T12:46:34.753Z</time></trkpt><trkpt lat="45.9099492" lon="14.0261187"><ele>850.5</ele><time>2026-04-25T12:46:35.753Z</time></trkpt><trkpt lat="45.9101408" lon="14.0263112"><ele>846.0</ele><time>2026-04-25T12:46:36.753Z</time></trkpt><trkpt lat="45.9103335" lon="14.0265079"><ele>850.0</ele><time>2026-04-25T12:46:37.753Z</time></trkpt><trkpt lat="45.9105239" lon="14.0267054"><ele>854.0</ele><time>2026-04-25T12:46:38.753Z</time></trkpt><trkpt lat="45.9107124" lon="14.026899"><ele>854.0</ele><time>2026-04-25T12:46:39.753Z</time></trkpt><trkpt lat="45.9109017" lon="14.0270838"><ele>854.0</ele><time>2026-04-25T12:46:40.753Z</time></trkpt><trkpt lat="45.9110864" lon="14.0272699"><ele>852.0</ele><time>2026-04-25T12:46:41.753Z</time></trkpt><trkpt lat="45.9112617" lon="14.0274457"><ele>850.0</ele><time>2026-04-25T12:46:42.753Z</time></trkpt><trkpt lat="45.9114317" lon="14.0275952"><ele>848.0</ele><time>2026-04-25T12:46:43.753Z</time></trkpt><trkpt lat="45.9115556" lon="14.0277335"><ele>853.6666666666667</ele><time>2026-04-25T12:46:44.753Z</time></trkpt><trkpt lat="45.9117047" lon="14.0278439"><ele>859.3333333333333</ele><time>2026-04-25T12:46:45.753Z</time></trkpt><trkpt lat="45.9118447" lon="14.0279364"><ele>865.0</ele><time>2026-04-25T12:46:46.753Z</time></trkpt><trkpt lat="45.9120017" lon="14.0279291"><ele>865.0</ele><time>2026-04-25T12:46:47.753Z</time></trkpt><trkpt lat="45.9121399" lon="14.0278007"><ele>865.0</ele><time>2026-04-25T12:46:48.753Z</time></trkpt><trkpt lat="45.9122727" lon="14.0277002"><ele>865.0</ele><time>2026-04-25T12:46:49.752Z</time></trkpt><trkpt lat="45.9124173" lon="14.0276175"><ele>865.0</ele><time>2026-04-25T12:46:50.752Z</time></trkpt><trkpt lat="45.9125704" lon="14.027588"><ele>865.0</ele><time>2026-04-25T12:46:51.752Z</time></trkpt><trkpt lat="45.9127344" lon="14.0276097"><ele>865.0</ele><time>2026-04-25T12:46:52.752Z</time></trkpt><trkpt lat="45.9128945" lon="14.0276807"><ele>865.6666666666666</ele><time>2026-04-25T12:46:53.752Z</time></trkpt><trkpt lat="45.9130293" lon="14.0278088"><ele>866.3333333333333</ele><time>2026-04-25T12:46:54.752Z</time></trkpt><trkpt lat="45.9131377" lon="14.0279687"><ele>867.0</ele><time>2026-04-25T12:46:55.752Z</time></trkpt><trkpt lat="45.9132278" lon="14.0281363"><ele>868.0</ele><time>2026-04-25T12:46:56.752Z</time></trkpt><trkpt lat="45.9133063" lon="14.0283122"><ele>869.0</ele><time>2026-04-25T12:46:57.752Z</time></trkpt><trkpt lat="45.9133398" lon="14.0285221"><ele>870.0</ele><time>2026-04-25T12:46:58.752Z</time></trkpt><trkpt lat="45.9133441" lon="14.0287667"><ele>870.0</ele><time>2026-04-25T12:46:59.752Z</time></trkpt><trkpt lat="45.9133432" lon="14.0289639"><ele>870.0</ele><time>2026-04-25T12:47:00.752Z</time></trkpt><trkpt lat="45.9133198" lon="14.0291696"><ele>870.0</ele><time>2026-04-25T12:47:01.752Z</time></trkpt><trkpt lat="45.9132994" lon="14.029359"><ele>870.0</ele><time>2026-04-25T12:47:02.752Z</time></trkpt><trkpt lat="45.9133211" lon="14.0295411"><ele>870.25</ele><time>2026-04-25T12:47:03.752Z</time></trkpt><trkpt lat="45.9133878" lon="14.0297063"><ele>870.5</ele><time>2026-04-25T12:47:04.752Z</time></trkpt><trkpt lat="45.9134446" lon="14.0298693"><ele>870.75</ele><time>2026-04-25T12:47:05.752Z</time></trkpt><trkpt lat="45.9135455" lon="14.0299943"><ele>871.0</ele><time>2026-04-25T12:47:06.752Z</time></trkpt><trkpt lat="45.913707" lon="14.030081"><ele>866.5</ele><time>2026-04-25T12:47:07.752Z</time></trkpt><trkpt lat="45.9138356" lon="14.0301711"><ele>862.0</ele><time>2026-04-25T12:47:08.752Z</time></trkpt><trkpt lat="45.9139406" lon="14.0302538"><ele>857.5</ele><time>2026-04-25T12:47:09.752Z</time></trkpt><trkpt lat="45.9140407" lon="14.0303841"><ele>853.0</ele><time>2026-04-25T12:47:10.752Z</time></trkpt><trkpt lat="45.9141285" lon="14.030537"><ele>853.0</ele><time>2026-04-25T12:47:11.752Z</time></trkpt><trkpt lat="45.9141873" lon="14.0306903"><ele>853.0</ele><time>2026-04-25T12:47:12.752Z</time></trkpt><trkpt lat="45.9142263" lon="14.03089"><ele>853.0</ele><time>2026-04-25T12:47:13.751Z</time></trkpt><trkpt lat="45.9141544" lon="14.0312111"><ele>855.0</ele><time>2026-04-25T12:47:14.752Z</time></trkpt><trkpt lat="45.9141698" lon="14.0314428"><ele>857.0</ele><time>2026-04-25T12:47:15.752Z</time></trkpt><trkpt lat="45.9141765" lon="14.0316791"><ele>859.0</ele><time>2026-04-25T12:47:16.751Z</time></trkpt><trkpt lat="45.9141774" lon="14.0319033"><ele>860.25</ele><time>2026-04-25T12:47:17.752Z</time></trkpt><trkpt lat="45.9142218" lon="14.0321042"><ele>861.5</ele><time>2026-04-25T12:47:18.752Z</time></trkpt><trkpt lat="45.9142848" lon="14.0322797"><ele>862.75</ele><time>2026-04-25T12:47:19.753Z</time></trkpt><trkpt lat="45.9143786" lon="14.0324287"><ele>864.0</ele><time>2026-04-25T12:47:20.752Z</time></trkpt><trkpt lat="45.914505" lon="14.0325421"><ele>860.0</ele><time>2026-04-25T12:47:21.752Z</time></trkpt><trkpt lat="45.9146715" lon="14.032614"><ele>856.0</ele><time>2026-04-25T12:47:22.752Z</time></trkpt><trkpt lat="45.9148506" lon="14.0326885"><ele>852.0</ele><time>2026-04-25T12:47:23.752Z</time></trkpt><trkpt lat="45.915033" lon="14.0327475"><ele>849.0</ele><time>2026-04-25T12:47:24.752Z</time></trkpt><trkpt lat="45.91526" lon="14.0327698"><ele>846.0</ele><time>2026-04-25T12:47:25.752Z</time></trkpt><trkpt lat="45.9154642" lon="14.0328057"><ele>843.0</ele><time>2026-04-25T12:47:26.751Z</time></trkpt><trkpt lat="45.9156821" lon="14.0328304"><ele>843.0</ele><time>2026-04-25T12:47:27.752Z</time></trkpt><trkpt lat="45.9158738" lon="14.0328539"><ele>843.0</ele><time>2026-04-25T12:47:28.752Z</time></trkpt><trkpt lat="45.9160696" lon="14.0329056"><ele>843.0</ele><time>2026-04-25T12:47:29.752Z</time></trkpt><trkpt lat="45.916262" lon="14.0329591"><ele>838.3333333333333</ele><time>2026-04-25T12:47:30.752Z</time></trkpt><trkpt lat="45.9164707" lon="14.0330647"><ele>833.6666666666666</ele><time>2026-04-25T12:47:31.752Z</time></trkpt><trkpt lat="45.9166756" lon="14.0331545"><ele>829.0</ele><time>2026-04-25T12:47:32.751Z</time></trkpt><trkpt lat="45.9168848" lon="14.0332631"><ele>837.0</ele><time>2026-04-25T12:47:33.752Z</time></trkpt><trkpt lat="45.9171008" lon="14.0333743"><ele>845.0</ele><time>2026-04-25T12:47:34.752Z</time></trkpt><trkpt lat="45.917315" lon="14.033484"><ele>845.0</ele><time>2026-04-25T12:47:35.751Z</time></trkpt><trkpt lat="45.917528" lon="14.0335972"><ele>845.0</ele><time>2026-04-25T12:47:36.752Z</time></trkpt><trkpt lat="45.917736" lon="14.0337056"><ele>845.0</ele><time>2026-04-25T12:47:37.752Z</time></trkpt><trkpt lat="45.9179534" lon="14.0338054"><ele>840.6666666666667</ele><time>2026-04-25T12:47:38.752Z</time></trkpt><trkpt lat="45.91815" lon="14.0339154"><ele>836.3333333333333</ele><time>2026-04-25T12:47:39.752Z</time></trkpt><trkpt lat="45.9183523" lon="14.0339917"><ele>832.0</ele><time>2026-04-25T12:47:40.752Z</time></trkpt><trkpt lat="45.9185608" lon="14.0340301"><ele>829.0</ele><time>2026-04-25T12:47:41.751Z</time></trkpt><trkpt lat="45.9187709" lon="14.0341057"><ele>826.0</ele><time>2026-04-25T12:47:42.752Z</time></trkpt><trkpt lat="45.918987" lon="14.0341444"><ele>823.0</ele><time>2026-04-25T12:47:43.752Z</time></trkpt><trkpt lat="45.9192069" lon="14.0341315"><ele>822.0</ele><time>2026-04-25T12:47:44.752Z</time></trkpt><trkpt lat="45.9193482" lon="14.0341228"><ele>821.0</ele><time>2026-04-25T12:47:45.752Z</time></trkpt><trkpt lat="45.9194978" lon="14.0341442"><ele>820.0</ele><time>2026-04-25T12:47:46.752Z</time></trkpt><trkpt lat="45.9196227" lon="14.0341928"><ele>819.0</ele><time>2026-04-25T12:47:47.751Z</time></trkpt><trkpt lat="45.9197203" lon="14.0342713"><ele>827.0</ele><time>2026-04-25T12:47:48.752Z</time></trkpt><trkpt lat="45.9198363" lon="14.0343466"><ele>835.0</ele><time>2026-04-25T12:47:49.752Z</time></trkpt><trkpt lat="45.9199273" lon="14.0344788"><ele>843.0</ele><time>2026-04-25T12:47:50.752Z</time></trkpt><trkpt lat="45.9198579" lon="14.034737"><ele>851.0</ele><time>2026-04-25T12:47:51.752Z</time></trkpt><trkpt lat="45.9198647" lon="14.034913"><ele>853.4</ele><time>2026-04-25T12:47:52.752Z</time></trkpt><trkpt lat="45.9198747" lon="14.0350614"><ele>855.8</ele><time>2026-04-25T12:47:53.752Z</time></trkpt><trkpt lat="45.9199316" lon="14.0351957"><ele>858.1999999999999</ele><time>2026-04-25T12:47:54.751Z</time></trkpt><trkpt lat="45.9200056" lon="14.035277"><ele>860.5999999999999</ele><time>2026-04-25T12:47:55.752Z</time></trkpt><trkpt lat="45.9200974" lon="14.0353012"><ele>863.0</ele><time>2026-04-25T12:47:56.752Z</time></trkpt><trkpt lat="45.9202007" lon="14.0352488"><ele>866.3333333333334</ele><time>2026-04-25T12:47:57.751Z</time></trkpt><trkpt lat="45.9203067" lon="14.035206"><ele>869.6666666666667</ele><time>2026-04-25T12:47:58.752Z</time></trkpt><trkpt lat="45.9204254" lon="14.0351123"><ele>873.0</ele><time>2026-04-25T12:47:59.752Z</time></trkpt><trkpt lat="45.9205811" lon="14.0348748"><ele>869.6666666666667</ele><time>2026-04-25T12:48:00.752Z</time></trkpt><trkpt lat="45.9207336" lon="14.0347416"><ele>866.3333333333334</ele><time>2026-04-25T12:48:01.752Z</time></trkpt><trkpt lat="45.9208894" lon="14.0346093"><ele>863.0</ele><time>2026-04-25T12:48:02.752Z</time></trkpt><trkpt lat="45.9210607" lon="14.0344999"><ele>863.0</ele><time>2026-04-25T12:48:03.752Z</time></trkpt><trkpt lat="45.9212415" lon="14.0344169"><ele>863.0</ele><time>2026-04-25T12:48:04.752Z</time></trkpt><trkpt lat="45.9214255" lon="14.0343479"><ele>863.0</ele><time>2026-04-25T12:48:05.752Z</time></trkpt><trkpt lat="45.9216007" lon="14.034306"><ele>865.0</ele><time>2026-04-25T12:48:06.752Z</time></trkpt><trkpt lat="45.9217628" lon="14.0342642"><ele>867.0</ele><time>2026-04-25T12:48:07.752Z</time></trkpt><trkpt lat="45.9219273" lon="14.0342876"><ele>869.0</ele><time>2026-04-25T12:48:08.751Z</time></trkpt><trkpt lat="45.9220908" lon="14.0343005"><ele>869.0</ele><time>2026-04-25T12:48:09.752Z</time></trkpt><trkpt lat="45.9222387" lon="14.0343509"><ele>869.0</ele><time>2026-04-25T12:48:10.752Z</time></trkpt><trkpt lat="45.9224025" lon="14.0344062"><ele>869.0</ele><time>2026-04-25T12:48:11.752Z</time></trkpt><trkpt lat="45.9225535" lon="14.0345263"><ele>867.6666666666667</ele><time>2026-04-25T12:48:12.752Z</time></trkpt><trkpt lat="45.9227575" lon="14.0346575"><ele>866.3333333333333</ele><time>2026-04-25T12:48:13.752Z</time></trkpt><trkpt lat="45.9229468" lon="14.0347542"><ele>865.0</ele><time>2026-04-25T12:48:14.752Z</time></trkpt><trkpt lat="45.9231168" lon="14.034847"><ele>865.0</ele><time>2026-04-25T12:48:15.752Z</time></trkpt><trkpt lat="45.923246" lon="14.0349402"><ele>865.0</ele><time>2026-04-25T12:48:16.752Z</time></trkpt><trkpt lat="45.923366" lon="14.0350347"><ele>865.0</ele><time>2026-04-25T12:48:17.752Z</time></trkpt><trkpt lat="45.923463" lon="14.0351531"><ele>865.0</ele><time>2026-04-25T12:48:18.752Z</time></trkpt><trkpt lat="45.923542" lon="14.0352894"><ele>862.75</ele><time>2026-04-25T12:48:19.752Z</time></trkpt><trkpt lat="45.9236018" lon="14.0354297"><ele>860.5</ele><time>2026-04-25T12:48:20.752Z</time></trkpt><trkpt lat="45.9236492" lon="14.0355784"><ele>858.25</ele><time>2026-04-25T12:48:21.751Z</time></trkpt><trkpt lat="45.9236633" lon="14.0357416"><ele>856.0</ele><time>2026-04-25T12:48:22.752Z</time></trkpt><trkpt lat="45.923638" lon="14.0359254"><ele>856.0</ele><time>2026-04-25T12:48:23.752Z</time></trkpt><trkpt lat="45.923584" lon="14.0360966"><ele>856.0</ele><time>2026-04-25T12:48:24.751Z</time></trkpt><trkpt lat="45.9234157" lon="14.0361916"><ele>856.0</ele><time>2026-04-25T12:48:25.752Z</time></trkpt><trkpt lat="45.9233197" lon="14.03631"><ele>856.0</ele><time>2026-04-25T12:48:26.752Z</time></trkpt><trkpt lat="45.923154" lon="14.0363413"><ele>858.0</ele><time>2026-04-25T12:48:27.751Z</time></trkpt><trkpt lat="45.9229956" lon="14.0363921"><ele>860.0</ele><time>2026-04-25T12:48:28.752Z</time></trkpt><trkpt lat="45.9228275" lon="14.0364244"><ele>862.0</ele><time>2026-04-25T12:48:29.752Z</time></trkpt><trkpt lat="45.9226617" lon="14.0364588"><ele>864.3333333333333</ele><time>2026-04-25T12:48:30.752Z</time></trkpt><trkpt lat="45.9225012" lon="14.0364947"><ele>866.6666666666667</ele><time>2026-04-25T12:48:31.752Z</time></trkpt><trkpt lat="45.9223442" lon="14.0365553"><ele>869.0</ele><time>2026-04-25T12:48:32.752Z</time></trkpt><trkpt lat="45.9222074" lon="14.036654"><ele>864.5</ele><time>2026-04-25T12:48:33.752Z</time></trkpt><trkpt lat="45.922093" lon="14.0367971"><ele>860.0</ele><time>2026-04-25T12:48:34.752Z</time></trkpt><trkpt lat="45.9220086" lon="14.0369682"><ele>855.5</ele><time>2026-04-25T12:48:35.751Z</time></trkpt><trkpt lat="45.9219659" lon="14.0371513"><ele>851.0</ele><time>2026-04-25T12:48:36.752Z</time></trkpt><trkpt lat="45.9219639" lon="14.0373458"><ele>847.0</ele><time>2026-04-25T12:48:37.752Z</time></trkpt><trkpt lat="45.922007" lon="14.0375481"><ele>843.0</ele><time>2026-04-25T12:48:38.752Z</time></trkpt><trkpt lat="45.9220773" lon="14.037744"><ele>839.0</ele><time>2026-04-25T12:48:39.752Z</time></trkpt><trkpt lat="45.9221436" lon="14.0379321"><ele>835.0</ele><time>2026-04-25T12:48:40.752Z</time></trkpt><trkpt lat="45.9222004" lon="14.0381251"><ele>831.75</ele><time>2026-04-25T12:48:41.751Z</time></trkpt><trkpt lat="45.9222271" lon="14.0383163"><ele>828.5</ele><time>2026-04-25T12:48:42.752Z</time></trkpt><trkpt lat="45.9222063" lon="14.0384857"><ele>825.25</ele><time>2026-04-25T12:48:43.752Z</time></trkpt><trkpt lat="45.9222022" lon="14.0386647"><ele>822.0</ele><time>2026-04-25T12:48:44.752Z</time></trkpt><trkpt lat="45.9221231" lon="14.0388292"><ele>822.0</ele><time>2026-04-25T12:48:45.752Z</time></trkpt><trkpt lat="45.9219366" lon="14.0389278"><ele>822.0</ele><time>2026-04-25T12:48:46.752Z</time></trkpt><trkpt lat="45.9218284" lon="14.0390679"><ele>822.0</ele><time>2026-04-25T12:48:47.752Z</time></trkpt><trkpt lat="45.9216491" lon="14.0391517"><ele>826.3333333333333</ele><time>2026-04-25T12:48:48.752Z</time></trkpt><trkpt lat="45.9215043" lon="14.0392557"><ele>830.6666666666666</ele><time>2026-04-25T12:48:49.752Z</time></trkpt><trkpt lat="45.9213641" lon="14.0393656"><ele>835.0</ele><time>2026-04-25T12:48:50.751Z</time></trkpt><trkpt lat="45.9212365" lon="14.03951"><ele>835.0</ele><time>2026-04-25T12:48:51.752Z</time></trkpt><trkpt lat="45.9211462" lon="14.0397048"><ele>835.0</ele><time>2026-04-25T12:48:52.752Z</time></trkpt><trkpt lat="45.9210898" lon="14.0399328"><ele>835.0</ele><time>2026-04-25T12:48:53.752Z</time></trkpt><trkpt lat="45.9210437" lon="14.0401845"><ele>825.6666666666666</ele><time>2026-04-25T12:48:54.752Z</time></trkpt><trkpt lat="45.921003" lon="14.0404491"><ele>816.3333333333333</ele><time>2026-04-25T12:48:55.752Z</time></trkpt><trkpt lat="45.9209841" lon="14.0407062"><ele>807.0</ele><time>2026-04-25T12:48:56.752Z</time></trkpt><trkpt lat="45.920948" lon="14.04095"><ele>817.3333333333333</ele><time>2026-04-25T12:48:57.752Z</time></trkpt><trkpt lat="45.9208829" lon="14.0411602"><ele>827.6666666666666</ele><time>2026-04-25T12:48:58.751Z</time></trkpt><trkpt lat="45.920808" lon="14.0413753"><ele>838.0</ele><time>2026-04-25T12:48:59.752Z</time></trkpt><trkpt lat="45.9207118" lon="14.0415737"><ele>833.6666666666666</ele><time>2026-04-25T12:49:00.752Z</time></trkpt><trkpt lat="45.9206162" lon="14.0417662"><ele>829.3333333333333</ele><time>2026-04-25T12:49:01.752Z</time></trkpt><trkpt lat="45.9205207" lon="14.0419527"><ele>825.0</ele><time>2026-04-25T12:49:02.751Z</time></trkpt><trkpt lat="45.9204541" lon="14.0421551"><ele>825.0</ele><time>2026-04-25T12:49:03.752Z</time></trkpt><trkpt lat="45.9204142" lon="14.0423606"><ele>825.0</ele><time>2026-04-25T12:49:04.752Z</time></trkpt><trkpt lat="45.92041" lon="14.0425722"><ele>825.0</ele><time>2026-04-25T12:49:05.752Z</time></trkpt><trkpt lat="45.9204208" lon="14.0427857"><ele>825.0</ele><time>2026-04-25T12:49:06.752Z</time></trkpt><trkpt lat="45.9204811" lon="14.0429934"><ele>820.3333333333333</ele><time>2026-04-25T12:49:07.751Z</time></trkpt><trkpt lat="45.9205676" lon="14.0431874"><ele>815.6666666666666</ele><time>2026-04-25T12:49:08.752Z</time></trkpt><trkpt lat="45.9206198" lon="14.0433821"><ele>811.0</ele><time>2026-04-25T12:49:09.752Z</time></trkpt><trkpt lat="45.9206726" lon="14.0435829"><ele>810.3333333333333</ele><time>2026-04-25T12:49:10.752Z</time></trkpt><trkpt lat="45.92066" lon="14.0438031"><ele>809.6666666666667</ele><time>2026-04-25T12:49:11.751Z</time></trkpt><trkpt lat="45.920686" lon="14.0440147"><ele>809.0</ele><time>2026-04-25T12:49:12.752Z</time></trkpt><trkpt lat="45.9206786" lon="14.0442354"><ele>807.3333333333334</ele><time>2026-04-25T12:49:13.752Z</time></trkpt><trkpt lat="45.9205616" lon="14.0444762"><ele>805.6666666666667</ele><time>2026-04-25T12:49:14.752Z</time></trkpt><trkpt lat="45.9204618" lon="14.0447086"><ele>804.0</ele><time>2026-04-25T12:49:15.752Z</time></trkpt><trkpt lat="45.9203862" lon="14.0449539"><ele>800.0</ele><time>2026-04-25T12:49:16.752Z</time></trkpt><trkpt lat="45.9203036" lon="14.0451806"><ele>796.0</ele><time>2026-04-25T12:49:17.752Z</time></trkpt><trkpt lat="45.9202335" lon="14.0454156"><ele>792.0</ele><time>2026-04-25T12:49:18.751Z</time></trkpt><trkpt lat="45.9201862" lon="14.0456566"><ele>790.0</ele><time>2026-04-25T12:49:19.752Z</time></trkpt><trkpt lat="45.9201515" lon="14.0459"><ele>788.0</ele><time>2026-04-25T12:49:20.752Z</time></trkpt><trkpt lat="45.9201792" lon="14.0461425"><ele>786.0</ele><time>2026-04-25T12:49:21.752Z</time></trkpt><trkpt lat="45.9201937" lon="14.046373"><ele>786.0</ele><time>2026-04-25T12:49:22.752Z</time></trkpt><trkpt lat="45.9201969" lon="14.046592"><ele>786.0</ele><time>2026-04-25T12:49:23.752Z</time></trkpt><trkpt lat="45.9201938" lon="14.0467933"><ele>786.0</ele><time>2026-04-25T12:49:24.752Z</time></trkpt><trkpt lat="45.9201808" lon="14.0469952"><ele>786.0</ele><time>2026-04-25T12:49:25.752Z</time></trkpt><trkpt lat="45.9201466" lon="14.0471519"><ele>784.5</ele><time>2026-04-25T12:49:26.752Z</time></trkpt><trkpt lat="45.9200792" lon="14.0473086"><ele>783.0</ele><time>2026-04-25T12:49:27.752Z</time></trkpt><trkpt lat="45.9200335" lon="14.047436"><ele>781.5</ele><time>2026-04-25T12:49:28.752Z</time></trkpt><trkpt lat="45.9199868" lon="14.0475726"><ele>780.0</ele><time>2026-04-25T12:49:29.752Z</time></trkpt><trkpt lat="45.9200705" lon="14.047706"><ele>780.0</ele><time>2026-04-25T12:49:31.752Z</time></trkpt><trkpt lat="45.9201786" lon="14.0477358"><ele>780.0</ele><time>2026-04-25T12:49:33.752Z</time></trkpt><trkpt lat="45.9202317" lon="14.0476262"><ele>780.0</ele><time>2026-04-25T12:49:34.753Z</time></trkpt><trkpt lat="45.9202973" lon="14.0474264"><ele>780.0</ele><time>2026-04-25T12:49:35.752Z</time></trkpt><trkpt lat="45.9202987" lon="14.047082"><ele>780.0</ele><time>2026-04-25T12:49:36.752Z</time></trkpt><trkpt lat="45.920366" lon="14.0468478"><ele>780.0</ele><time>2026-04-25T12:49:37.752Z</time></trkpt><trkpt lat="45.9204385" lon="14.0465721"><ele>780.0</ele><time>2026-04-25T12:49:38.752Z</time></trkpt><trkpt lat="45.9205087" lon="14.0462975"><ele>782.0</ele><time>2026-04-25T12:49:39.752Z</time></trkpt><trkpt lat="45.9205842" lon="14.0460022"><ele>784.0</ele><time>2026-04-25T12:49:40.752Z</time></trkpt><trkpt lat="45.9206624" lon="14.0457128"><ele>786.0</ele><time>2026-04-25T12:49:41.752Z</time></trkpt><trkpt lat="45.9207375" lon="14.0454506"><ele>788.0</ele><time>2026-04-25T12:49:42.752Z</time></trkpt><trkpt lat="45.9208122" lon="14.0451942"><ele>790.0</ele><time>2026-04-25T12:49:43.752Z</time></trkpt><trkpt lat="45.9208957" lon="14.0449687"><ele>792.0</ele><time>2026-04-25T12:49:44.752Z</time></trkpt><trkpt lat="45.9209773" lon="14.0447633"><ele>785.25</ele><time>2026-04-25T12:49:45.751Z</time></trkpt><trkpt lat="45.92107" lon="14.0445983"><ele>778.5</ele><time>2026-04-25T12:49:46.752Z</time></trkpt><trkpt lat="45.9211506" lon="14.0444459"><ele>771.75</ele><time>2026-04-25T12:49:47.752Z</time></trkpt><trkpt lat="45.9212181" lon="14.0442892"><ele>765.0</ele><time>2026-04-25T12:49:48.752Z</time></trkpt><trkpt lat="45.9212571" lon="14.0441364"><ele>766.0</ele><time>2026-04-25T12:49:49.752Z</time></trkpt><trkpt lat="45.921283" lon="14.0440015"><ele>767.0</ele><time>2026-04-25T12:49:50.752Z</time></trkpt><trkpt lat="45.9213122" lon="14.0438927"><ele>768.0</ele><time>2026-04-25T12:49:51.751Z</time></trkpt><trkpt lat="45.921414" lon="14.043841"><ele>769.0</ele><time>2026-04-25T12:49:53.752Z</time></trkpt><trkpt lat="45.9214917" lon="14.0439718"><ele>770.0</ele><time>2026-04-25T12:49:55.752Z</time></trkpt><trkpt lat="45.9214718" lon="14.0440962"><ele>768.3333333333334</ele><time>2026-04-25T12:49:56.752Z</time></trkpt><trkpt lat="45.9213184" lon="14.0442918"><ele>766.6666666666667</ele><time>2026-04-25T12:49:57.751Z</time></trkpt><trkpt lat="45.9212403" lon="14.0444939"><ele>765.0</ele><time>2026-04-25T12:49:58.752Z</time></trkpt><trkpt lat="45.9211623" lon="14.0447336"><ele>761.3333333333334</ele><time>2026-04-25T12:49:59.752Z</time></trkpt><trkpt lat="45.9211129" lon="14.0450052"><ele>757.6666666666667</ele><time>2026-04-25T12:50:00.752Z</time></trkpt><trkpt lat="45.9210974" lon="14.0452801"><ele>754.0</ele><time>2026-04-25T12:50:01.752Z</time></trkpt><trkpt lat="45.9211126" lon="14.0455498"><ele>752.6666666666667</ele><time>2026-04-25T12:50:02.752Z</time></trkpt><trkpt lat="45.9211339" lon="14.0458119"><ele>751.3333333333334</ele><time>2026-04-25T12:50:03.751Z</time></trkpt><trkpt lat="45.9211494" lon="14.0460632"><ele>750.0</ele><time>2026-04-25T12:50:04.752Z</time></trkpt><trkpt lat="45.9211505" lon="14.0463066"><ele>750.0</ele><time>2026-04-25T12:50:05.752Z</time></trkpt><trkpt lat="45.9211496" lon="14.0465367"><ele>750.0</ele><time>2026-04-25T12:50:06.752Z</time></trkpt><trkpt lat="45.9211381" lon="14.0467393"><ele>750.0</ele><time>2026-04-25T12:50:07.752Z</time></trkpt><trkpt lat="45.9211156" lon="14.046922"><ele>750.0</ele><time>2026-04-25T12:50:08.752Z</time></trkpt><trkpt lat="45.9210874" lon="14.0470863"><ele>749.8333333333334</ele><time>2026-04-25T12:50:09.752Z</time></trkpt><trkpt lat="45.9210483" lon="14.0472206"><ele>749.6666666666666</ele><time>2026-04-25T12:50:10.751Z</time></trkpt><trkpt lat="45.921032" lon="14.0473442"><ele>749.5</ele><time>2026-04-25T12:50:11.751Z</time></trkpt><trkpt lat="45.9210579" lon="14.0474451"><ele>749.3333333333333</ele><time>2026-04-25T12:50:12.751Z</time></trkpt><trkpt lat="45.921079" lon="14.0475375"><ele>749.1666666666666</ele><time>2026-04-25T12:50:13.751Z</time></trkpt><trkpt lat="45.9211766" lon="14.0475941"><ele>749.0</ele><time>2026-04-25T12:50:15.751Z</time></trkpt><trkpt lat="45.9212438" lon="14.0475128"><ele>749.0</ele><time>2026-04-25T12:50:16.751Z</time></trkpt><trkpt lat="45.9212594" lon="14.04742"><ele>749.0</ele><time>2026-04-25T12:50:17.75Z</time></trkpt><trkpt lat="45.9211878" lon="14.0471312"><ele>749.0</ele><time>2026-04-25T12:50:18.75Z</time></trkpt><trkpt lat="45.9212035" lon="14.0469665"><ele>749.0</ele><time>2026-04-25T12:50:19.751Z</time></trkpt><trkpt lat="45.9212258" lon="14.0468167"><ele>749.0</ele><time>2026-04-25T12:50:20.751Z</time></trkpt><trkpt lat="45.9212582" lon="14.0466659"><ele>749.0</ele><time>2026-04-25T12:50:21.751Z</time></trkpt><trkpt lat="45.9213049" lon="14.0465269"><ele>749.0</ele><time>2026-04-25T12:50:22.751Z</time></trkpt><trkpt lat="45.9213917" lon="14.0464277"><ele>749.0</ele><time>2026-04-25T12:50:23.751Z</time></trkpt><trkpt lat="45.9214714" lon="14.0463316"><ele>749.0</ele><time>2026-04-25T12:50:24.75Z</time></trkpt><trkpt lat="45.9215189" lon="14.0462138"><ele>749.1666666666666</ele><time>2026-04-25T12:50:25.751Z</time></trkpt><trkpt lat="45.9215539" lon="14.0460905"><ele>749.3333333333333</ele><time>2026-04-25T12:50:26.751Z</time></trkpt><trkpt lat="45.9215577" lon="14.045974"><ele>749.5</ele><time>2026-04-25T12:50:27.751Z</time></trkpt><trkpt lat="45.9215313" lon="14.0458685"><ele>749.6666666666666</ele><time>2026-04-25T12:50:28.751Z</time></trkpt><trkpt lat="45.9215057" lon="14.0457787"><ele>749.8333333333334</ele><time>2026-04-25T12:50:29.751Z</time></trkpt><trkpt lat="45.9215242" lon="14.0456116"><ele>750.0</ele><time>2026-04-25T12:50:31.751Z</time></trkpt><trkpt lat="45.9216225" lon="14.0456053"><ele>750.0</ele><time>2026-04-25T12:50:33.751Z</time></trkpt><trkpt lat="45.9216675" lon="14.0457694"><ele>750.0</ele><time>2026-04-25T12:50:35.751Z</time></trkpt><trkpt lat="45.9216578" lon="14.0458796"><ele>750.0</ele><time>2026-04-25T12:50:36.751Z</time></trkpt><trkpt lat="45.9216349" lon="14.0459919"><ele>750.0</ele><time>2026-04-25T12:50:37.751Z</time></trkpt><trkpt lat="45.9216057" lon="14.0460904"><ele>750.0</ele><time>2026-04-25T12:50:38.751Z</time></trkpt><trkpt lat="45.9215813" lon="14.04619"><ele>750.0</ele><time>2026-04-25T12:50:39.751Z</time></trkpt><trkpt lat="45.9215808" lon="14.0462913"><ele>750.0</ele><time>2026-04-25T12:50:40.751Z</time></trkpt><trkpt lat="45.9216051" lon="14.0463754"><ele>750.0</ele><time>2026-04-25T12:50:41.751Z</time></trkpt><trkpt lat="45.9217035" lon="14.0464676"><ele>750.0</ele><time>2026-04-25T12:50:43.752Z</time></trkpt><trkpt lat="45.9217529" lon="14.0463899"><ele>750.0</ele><time>2026-04-25T12:50:44.751Z</time></trkpt><trkpt lat="45.9217922" lon="14.0462129"><ele>750.0</ele><time>2026-04-25T12:50:46.751Z</time></trkpt><trkpt lat="45.9217858" lon="14.0460899"><ele>745.2</ele><time>2026-04-25T12:50:47.751Z</time></trkpt><trkpt lat="45.9217857" lon="14.0459518"><ele>740.4</ele><time>2026-04-25T12:50:48.751Z</time></trkpt><trkpt lat="45.9217921" lon="14.0458031"><ele>735.5999999999999</ele><time>2026-04-25T12:50:49.751Z</time></trkpt><trkpt lat="45.9218117" lon="14.0456539"><ele>730.8</ele><time>2026-04-25T12:50:50.751Z</time></trkpt><trkpt lat="45.9218296" lon="14.0455102"><ele>726.0</ele><time>2026-04-25T12:50:51.751Z</time></trkpt><trkpt lat="45.9218442" lon="14.0453664"><ele>726.0</ele><time>2026-04-25T12:50:52.751Z</time></trkpt><trkpt lat="45.9218494" lon="14.0452348"><ele>726.0</ele><time>2026-04-25T12:50:53.751Z</time></trkpt><trkpt lat="45.9218459" lon="14.0451137"><ele>726.0</ele><time>2026-04-25T12:50:54.751Z</time></trkpt><trkpt lat="45.921849" lon="14.0450076"><ele>726.0</ele><time>2026-04-25T12:50:55.751Z</time></trkpt><trkpt lat="45.9218843" lon="14.0449312"><ele>726.0</ele><time>2026-04-25T12:50:56.751Z</time></trkpt><trkpt lat="45.9219866" lon="14.0449183"><ele>726.0</ele><time>2026-04-25T12:50:58.751Z</time></trkpt><trkpt lat="45.9220285" lon="14.0450817"><ele>726.0</ele><time>2026-04-25T12:51:00.751Z</time></trkpt><trkpt lat="45.922027" lon="14.0452015"><ele>726.0</ele><time>2026-04-25T12:51:01.751Z</time></trkpt><trkpt lat="45.9220191" lon="14.0453329"><ele>726.0</ele><time>2026-04-25T12:51:02.751Z</time></trkpt><trkpt lat="45.9220251" lon="14.0454793"><ele>726.0</ele><time>2026-04-25T12:51:03.75Z</time></trkpt><trkpt lat="45.9220604" lon="14.0456238"><ele>726.0</ele><time>2026-04-25T12:51:04.751Z</time></trkpt><trkpt lat="45.9220991" lon="14.0457701"><ele>725.75</ele><time>2026-04-25T12:51:05.752Z</time></trkpt><trkpt lat="45.9221238" lon="14.0459269"><ele>725.5</ele><time>2026-04-25T12:51:06.75Z</time></trkpt><trkpt lat="45.9221352" lon="14.0460965"><ele>725.25</ele><time>2026-04-25T12:51:07.751Z</time></trkpt><trkpt lat="45.9221286" lon="14.0462755"><ele>725.0</ele><time>2026-04-25T12:51:08.751Z</time></trkpt><trkpt lat="45.9221166" lon="14.0464585"><ele>724.75</ele><time>2026-04-25T12:51:09.751Z</time></trkpt><trkpt lat="45.9221052" lon="14.0466441"><ele>724.5</ele><time>2026-04-25T12:51:10.751Z</time></trkpt><trkpt lat="45.9220952" lon="14.0468136"><ele>724.25</ele><time>2026-04-25T12:51:11.751Z</time></trkpt><trkpt lat="45.9220818" lon="14.0469779"><ele>724.0</ele><time>2026-04-25T12:51:12.751Z</time></trkpt><trkpt lat="45.92206" lon="14.0471371"><ele>724.0</ele><time>2026-04-25T12:51:13.751Z</time></trkpt><trkpt lat="45.9220411" lon="14.0472831"><ele>724.0</ele><time>2026-04-25T12:51:14.751Z</time></trkpt><trkpt lat="45.9220168" lon="14.0474045"><ele>724.0</ele><time>2026-04-25T12:51:15.751Z</time></trkpt><trkpt lat="45.9219943" lon="14.0475254"><ele>724.0</ele><time>2026-04-25T12:51:16.751Z</time></trkpt><trkpt lat="45.92197" lon="14.0476447"><ele>724.0</ele><time>2026-04-25T12:51:17.751Z</time></trkpt><trkpt lat="45.9221194" lon="14.047648"><ele>724.0</ele><time>2026-04-25T12:51:19.751Z</time></trkpt><trkpt lat="45.9222049" lon="14.0475392"><ele>724.0</ele><time>2026-04-25T12:51:21.751Z</time></trkpt><trkpt lat="45.9222249" lon="14.0474304"><ele>724.0</ele><time>2026-04-25T12:51:22.75Z</time></trkpt><trkpt lat="45.9222452" lon="14.0472946"><ele>724.0</ele><time>2026-04-25T12:51:23.751Z</time></trkpt><trkpt lat="45.922286" lon="14.0471417"><ele>724.0</ele><time>2026-04-25T12:51:24.751Z</time></trkpt><trkpt lat="45.9223384" lon="14.0469909"><ele>724.0</ele><time>2026-04-25T12:51:25.751Z</time></trkpt><trkpt lat="45.922403" lon="14.046875"><ele>724.0</ele><time>2026-04-25T12:51:26.75Z</time></trkpt><trkpt lat="45.9224599" lon="14.0467909"><ele>724.0</ele><time>2026-04-25T12:51:27.751Z</time></trkpt><trkpt lat="45.9225139" lon="14.0467343"><ele>724.0</ele><time>2026-04-25T12:51:28.751Z</time></trkpt><trkpt lat="45.922568" lon="14.0466818"><ele>724.0</ele><time>2026-04-25T12:51:30.751Z</time></trkpt><trkpt lat="45.922623" lon="14.0466222"><ele>724.0</ele><time>2026-04-25T12:52:22.751Z</time></trkpt><trkpt lat="45.9226957" lon="14.0464949"><ele>721.0</ele><time>2026-04-25T12:52:24.751Z</time></trkpt><trkpt lat="45.9227395" lon="14.0464045"><ele>718.0</ele><time>2026-04-25T12:52:25.75Z</time></trkpt><trkpt lat="45.9227812" lon="14.0463023"><ele>715.0</ele><time>2026-04-25T12:52:26.751Z</time></trkpt><trkpt lat="45.9228239" lon="14.046189"><ele>712.0</ele><time>2026-04-25T12:52:27.75Z</time></trkpt><trkpt lat="45.9228729" lon="14.046071"><ele>709.0</ele><time>2026-04-25T12:52:28.75Z</time></trkpt><trkpt lat="45.9229225" lon="14.0459481"><ele>706.0</ele><time>2026-04-25T12:52:29.75Z</time></trkpt><trkpt lat="45.9229684" lon="14.0458238"><ele>706.0</ele><time>2026-04-25T12:52:30.75Z</time></trkpt><trkpt lat="45.9230109" lon="14.0457069"><ele>706.0</ele><time>2026-04-25T12:52:31.751Z</time></trkpt><trkpt lat="45.9230497" lon="14.0455792"><ele>706.0</ele><time>2026-04-25T12:52:32.751Z</time></trkpt><trkpt lat="45.923086" lon="14.0454572"><ele>706.0</ele><time>2026-04-25T12:52:33.751Z</time></trkpt><trkpt lat="45.9231163" lon="14.04533"><ele>706.0</ele><time>2026-04-25T12:52:34.751Z</time></trkpt><trkpt lat="45.9231322" lon="14.0452078"><ele>706.0</ele><time>2026-04-25T12:52:35.751Z</time></trkpt><trkpt lat="45.9231504" lon="14.0450901"><ele>706.0</ele><time>2026-04-25T12:52:36.751Z</time></trkpt><trkpt lat="45.9231737" lon="14.0449782"><ele>706.0</ele><time>2026-04-25T12:52:37.75Z</time></trkpt><trkpt lat="45.9232058" lon="14.0448758"><ele>706.0</ele><time>2026-04-25T12:52:38.75Z</time></trkpt><trkpt lat="45.9232534" lon="14.0447876"><ele>706.0</ele><time>2026-04-25T12:52:39.75Z</time></trkpt><trkpt lat="45.9233135" lon="14.0447131"><ele>706.0</ele><time>2026-04-25T12:52:40.75Z</time></trkpt><trkpt lat="45.923386" lon="14.0446495"><ele>704.5999999999999</ele><time>2026-04-25T12:52:41.751Z</time></trkpt><trkpt lat="45.9234657" lon="14.0445908"><ele>703.2</ele><time>2026-04-25T12:52:42.751Z</time></trkpt><trkpt lat="45.9235552" lon="14.0445402"><ele>701.8</ele><time>2026-04-25T12:52:43.751Z</time></trkpt><trkpt lat="45.9236476" lon="14.0444761"><ele>700.4000000000001</ele><time>2026-04-25T12:52:44.751Z</time></trkpt><trkpt lat="45.923736" lon="14.0443973"><ele>699.0</ele><time>2026-04-25T12:52:45.751Z</time></trkpt><trkpt lat="45.9238173" lon="14.0443055"><ele>699.0</ele><time>2026-04-25T12:52:46.751Z</time></trkpt><trkpt lat="45.9238988" lon="14.044209"><ele>699.0</ele><time>2026-04-25T12:52:47.751Z</time></trkpt><trkpt lat="45.9239875" lon="14.0441155"><ele>699.0</ele><time>2026-04-25T12:52:48.751Z</time></trkpt><trkpt lat="45.9240776" lon="14.0440249"><ele>699.0</ele><time>2026-04-25T12:52:49.751Z</time></trkpt><trkpt lat="45.924167" lon="14.0439359"><ele>699.0</ele><time>2026-04-25T12:52:50.751Z</time></trkpt><trkpt lat="45.9242555" lon="14.0438464"><ele>698.2</ele><time>2026-04-25T12:52:51.751Z</time></trkpt><trkpt lat="45.9243391" lon="14.0437612"><ele>697.4000000000001</ele><time>2026-04-25T12:52:52.751Z</time></trkpt><trkpt lat="45.9244134" lon="14.0436782"><ele>696.6</ele><time>2026-04-25T12:52:53.751Z</time></trkpt><trkpt lat="45.924479" lon="14.0435849"><ele>695.8</ele><time>2026-04-25T12:52:54.752Z</time></trkpt><trkpt lat="45.9245353" lon="14.0434877"><ele>695.0</ele><time>2026-04-25T12:52:55.751Z</time></trkpt><trkpt lat="45.9245825" lon="14.0433767"><ele>694.8</ele><time>2026-04-25T12:52:56.75Z</time></trkpt><trkpt lat="45.924622" lon="14.0432552"><ele>694.6</ele><time>2026-04-25T12:52:57.75Z</time></trkpt><trkpt lat="45.9246648" lon="14.0431307"><ele>694.4000000000001</ele><time>2026-04-25T12:52:58.75Z</time></trkpt><trkpt lat="45.9247135" lon="14.0430187"><ele>694.2</ele><time>2026-04-25T12:52:59.751Z</time></trkpt><trkpt lat="45.9247765" lon="14.0429178"><ele>694.0</ele><time>2026-04-25T12:53:00.751Z</time></trkpt><trkpt lat="45.9248525" lon="14.0428403"><ele>694.0</ele><time>2026-04-25T12:53:01.751Z</time></trkpt><trkpt lat="45.924934" lon="14.0427772"><ele>694.0</ele><time>2026-04-25T12:53:02.751Z</time></trkpt><trkpt lat="45.9250276" lon="14.0427304"><ele>694.0</ele><time>2026-04-25T12:53:03.751Z</time></trkpt><trkpt lat="45.9251079" lon="14.0426624"><ele>694.0</ele><time>2026-04-25T12:53:04.751Z</time></trkpt><trkpt lat="45.925184" lon="14.0425969"><ele>694.0</ele><time>2026-04-25T12:53:05.751Z</time></trkpt><trkpt lat="45.9252709" lon="14.0425552"><ele>693.2</ele><time>2026-04-25T12:53:06.751Z</time></trkpt><trkpt lat="45.9253582" lon="14.0425505"><ele>692.4000000000001</ele><time>2026-04-25T12:53:07.75Z</time></trkpt><trkpt lat="45.9254421" lon="14.0425908"><ele>691.6</ele><time>2026-04-25T12:53:08.751Z</time></trkpt><trkpt lat="45.9255235" lon="14.0426558"><ele>690.8</ele><time>2026-04-25T12:53:09.751Z</time></trkpt><trkpt lat="45.9256017" lon="14.0427292"><ele>690.0</ele><time>2026-04-25T12:53:10.751Z</time></trkpt><trkpt lat="45.9256802" lon="14.0428036"><ele>690.0</ele><time>2026-04-25T12:53:11.75Z</time></trkpt><trkpt lat="45.9257519" lon="14.0428864"><ele>690.0</ele><time>2026-04-25T12:53:12.751Z</time></trkpt><trkpt lat="45.9258219" lon="14.0429686"><ele>690.0</ele><time>2026-04-25T12:53:13.751Z</time></trkpt><trkpt lat="45.9258864" lon="14.0430582"><ele>690.0</ele><time>2026-04-25T12:53:14.751Z</time></trkpt><trkpt lat="45.9259434" lon="14.0431512"><ele>690.0</ele><time>2026-04-25T12:53:15.751Z</time></trkpt><trkpt lat="45.9259919" lon="14.0432501"><ele>690.0</ele><time>2026-04-25T12:53:16.751Z</time></trkpt><trkpt lat="45.9260379" lon="14.0433503"><ele>689.0</ele><time>2026-04-25T12:53:17.751Z</time></trkpt><trkpt lat="45.9260936" lon="14.0434458"><ele>688.0</ele><time>2026-04-25T12:53:18.75Z</time></trkpt><trkpt lat="45.9261629" lon="14.0435325"><ele>687.0</ele><time>2026-04-25T12:53:19.751Z</time></trkpt><trkpt lat="45.9262367" lon="14.0436137"><ele>686.0</ele><time>2026-04-25T12:53:20.751Z</time></trkpt><trkpt lat="45.9263087" lon="14.043693"><ele>685.0</ele><time>2026-04-25T12:53:21.751Z</time></trkpt><trkpt lat="45.9263686" lon="14.0437825"><ele>684.0</ele><time>2026-04-25T12:53:22.751Z</time></trkpt><trkpt lat="45.9264091" lon="14.0438852"><ele>684.0</ele><time>2026-04-25T12:53:23.752Z</time></trkpt><trkpt lat="45.9264344" lon="14.0439993"><ele>684.0</ele><time>2026-04-25T12:53:24.75Z</time></trkpt><trkpt lat="45.9264284" lon="14.0441275"><ele>684.0</ele><time>2026-04-25T12:53:25.75Z</time></trkpt><trkpt lat="45.9263967" lon="14.044256"><ele>684.0</ele><time>2026-04-25T12:53:26.75Z</time></trkpt><trkpt lat="45.9263614" lon="14.0443962"><ele>684.0</ele><time>2026-04-25T12:53:27.75Z</time></trkpt><trkpt lat="45.9263409" lon="14.0445502"><ele>683.75</ele><time>2026-04-25T12:53:28.75Z</time></trkpt><trkpt lat="45.9263369" lon="14.0447179"><ele>683.5</ele><time>2026-04-25T12:53:29.751Z</time></trkpt><trkpt lat="45.9263443" lon="14.0449088"><ele>683.25</ele><time>2026-04-25T12:53:30.751Z</time></trkpt><trkpt lat="45.9263375" lon="14.0451118"><ele>683.0</ele><time>2026-04-25T12:53:31.751Z</time></trkpt><trkpt lat="45.9263081" lon="14.0453421"><ele>683.0</ele><time>2026-04-25T12:53:32.751Z</time></trkpt><trkpt lat="45.9262718" lon="14.0455989"><ele>683.0</ele><time>2026-04-25T12:53:33.751Z</time></trkpt><trkpt lat="45.926239" lon="14.0458741"><ele>683.0</ele><time>2026-04-25T12:53:34.75Z</time></trkpt><trkpt lat="45.9262056" lon="14.0461567"><ele>683.0</ele><time>2026-04-25T12:53:35.75Z</time></trkpt><trkpt lat="45.9261708" lon="14.0464468"><ele>683.0</ele><time>2026-04-25T12:53:36.75Z</time></trkpt><trkpt lat="45.9261475" lon="14.0467418"><ele>683.0</ele><time>2026-04-25T12:53:37.75Z</time></trkpt><trkpt lat="45.9261322" lon="14.0470449"><ele>682.3333333333333</ele><time>2026-04-25T12:53:38.75Z</time></trkpt><trkpt lat="45.9261167" lon="14.0473626"><ele>681.6666666666666</ele><time>2026-04-25T12:53:39.75Z</time></trkpt><trkpt lat="45.9261105" lon="14.0476762"><ele>681.0</ele><time>2026-04-25T12:53:40.75Z</time></trkpt><trkpt lat="45.9261131" lon="14.0479948"><ele>678.5</ele><time>2026-04-25T12:53:41.749Z</time></trkpt><trkpt lat="45.9261268" lon="14.0483163"><ele>676.0</ele><time>2026-04-25T12:53:42.75Z</time></trkpt><trkpt lat="45.9261487" lon="14.0486402"><ele>676.0</ele><time>2026-04-25T12:53:43.749Z</time></trkpt><trkpt lat="45.926174" lon="14.0489634"><ele>676.0</ele><time>2026-04-25T12:53:44.75Z</time></trkpt><trkpt lat="45.9262012" lon="14.0492696"><ele>676.0</ele><time>2026-04-25T12:53:45.75Z</time></trkpt><trkpt lat="45.9262249" lon="14.0495681"><ele>676.0</ele><time>2026-04-25T12:53:46.75Z</time></trkpt><trkpt lat="45.9262374" lon="14.0498673"><ele>676.0</ele><time>2026-04-25T12:53:47.75Z</time></trkpt><trkpt lat="45.9262242" lon="14.0501638"><ele>676.0</ele><time>2026-04-25T12:53:48.75Z</time></trkpt><trkpt lat="45.9261936" lon="14.050454"><ele>676.3333333333334</ele><time>2026-04-25T12:53:49.75Z</time></trkpt><trkpt lat="45.9261374" lon="14.0507369"><ele>676.6666666666666</ele><time>2026-04-25T12:53:50.75Z</time></trkpt><trkpt lat="45.9260627" lon="14.0510143"><ele>677.0</ele><time>2026-04-25T12:53:51.75Z</time></trkpt><trkpt lat="45.9259797" lon="14.0512866"><ele>676.6666666666666</ele><time>2026-04-25T12:53:52.749Z</time></trkpt><trkpt lat="45.9258927" lon="14.0515584"><ele>676.3333333333334</ele><time>2026-04-25T12:53:53.749Z</time></trkpt><trkpt lat="45.9258087" lon="14.0518301"><ele>676.0</ele><time>2026-04-25T12:53:54.75Z</time></trkpt><trkpt lat="45.925728" lon="14.0521026"><ele>676.0</ele><time>2026-04-25T12:53:55.75Z</time></trkpt><trkpt lat="45.9256456" lon="14.0523749"><ele>676.0</ele><time>2026-04-25T12:53:56.75Z</time></trkpt><trkpt lat="45.925563" lon="14.0526419"><ele>676.0</ele><time>2026-04-25T12:53:57.75Z</time></trkpt><trkpt lat="45.9254746" lon="14.0529108"><ele>676.3333333333334</ele><time>2026-04-25T12:53:58.749Z</time></trkpt><trkpt lat="45.9253859" lon="14.0531774"><ele>676.6666666666666</ele><time>2026-04-25T12:53:59.75Z</time></trkpt><trkpt lat="45.9252924" lon="14.0534356"><ele>677.0</ele><time>2026-04-25T12:54:00.75Z</time></trkpt><trkpt lat="45.9251949" lon="14.0536924"><ele>677.0</ele><time>2026-04-25T12:54:01.75Z</time></trkpt><trkpt lat="45.9250939" lon="14.0539482"><ele>677.0</ele><time>2026-04-25T12:54:02.75Z</time></trkpt><trkpt lat="45.9249915" lon="14.0542034"><ele>677.0</ele><time>2026-04-25T12:54:03.75Z</time></trkpt><trkpt lat="45.9248866" lon="14.0544579"><ele>677.6666666666666</ele><time>2026-04-25T12:54:04.75Z</time></trkpt><trkpt lat="45.9247842" lon="14.0547143"><ele>678.3333333333334</ele><time>2026-04-25T12:54:05.75Z</time></trkpt><trkpt lat="45.9246832" lon="14.0549728"><ele>679.0</ele><time>2026-04-25T12:54:06.749Z</time></trkpt><trkpt lat="45.9245953" lon="14.0552401"><ele>679.0</ele><time>2026-04-25T12:54:07.75Z</time></trkpt><trkpt lat="45.924527" lon="14.0555212"><ele>679.0</ele><time>2026-04-25T12:54:08.75Z</time></trkpt><trkpt lat="45.9244865" lon="14.0558163"><ele>679.0</ele><time>2026-04-25T12:54:09.75Z</time></trkpt><trkpt lat="45.9244745" lon="14.0561171"><ele>678.6666666666667</ele><time>2026-04-25T12:54:10.75Z</time></trkpt><trkpt lat="45.9244987" lon="14.0564268"><ele>678.3333333333334</ele><time>2026-04-25T12:54:11.75Z</time></trkpt><trkpt lat="45.9245586" lon="14.0567295"><ele>678.0</ele><time>2026-04-25T12:54:12.75Z</time></trkpt><trkpt lat="45.92465" lon="14.0570227"><ele>676.5</ele><time>2026-04-25T12:54:13.75Z</time></trkpt><trkpt lat="45.924756" lon="14.0573112"><ele>675.0</ele><time>2026-04-25T12:54:14.749Z</time></trkpt><trkpt lat="45.9248647" lon="14.0575991"><ele>675.0</ele><time>2026-04-25T12:54:15.75Z</time></trkpt><trkpt lat="45.9249682" lon="14.0578847"><ele>675.0</ele><time>2026-04-25T12:54:16.75Z</time></trkpt><trkpt lat="45.9250695" lon="14.0581672"><ele>675.0</ele><time>2026-04-25T12:54:17.75Z</time></trkpt><trkpt lat="45.925184" lon="14.0584372"><ele>675.0</ele><time>2026-04-25T12:54:18.749Z</time></trkpt><trkpt lat="45.92531" lon="14.0586971"><ele>675.0</ele><time>2026-04-25T12:54:19.75Z</time></trkpt><trkpt lat="45.92545" lon="14.0589461"><ele>675.0</ele><time>2026-04-25T12:54:20.75Z</time></trkpt><trkpt lat="45.9255881" lon="14.0591945"><ele>675.0</ele><time>2026-04-25T12:54:21.749Z</time></trkpt><trkpt lat="45.9257326" lon="14.059448"><ele>675.0</ele><time>2026-04-25T12:54:22.75Z</time></trkpt><trkpt lat="45.9258802" lon="14.0596954"><ele>676.5</ele><time>2026-04-25T12:54:23.75Z</time></trkpt><trkpt lat="45.9260278" lon="14.0599437"><ele>678.0</ele><time>2026-04-25T12:54:24.75Z</time></trkpt><trkpt lat="45.9261736" lon="14.0601955"><ele>675.0</ele><time>2026-04-25T12:54:25.749Z</time></trkpt><trkpt lat="45.9263212" lon="14.0604504"><ele>672.0</ele><time>2026-04-25T12:54:26.75Z</time></trkpt><trkpt lat="45.9264674" lon="14.0607093"><ele>670.0</ele><time>2026-04-25T12:54:27.75Z</time></trkpt><trkpt lat="45.9266117" lon="14.0609681"><ele>668.0</ele><time>2026-04-25T12:54:28.75Z</time></trkpt><trkpt lat="45.9267552" lon="14.0612306"><ele>668.0</ele><time>2026-04-25T12:54:29.75Z</time></trkpt><trkpt lat="45.9269058" lon="14.0614867"><ele>668.0</ele><time>2026-04-25T12:54:30.75Z</time></trkpt><trkpt lat="45.9270699" lon="14.0617302"><ele>667.5</ele><time>2026-04-25T12:54:31.75Z</time></trkpt><trkpt lat="45.9272477" lon="14.0619469"><ele>667.0</ele><time>2026-04-25T12:54:32.749Z</time></trkpt><trkpt lat="45.9274436" lon="14.0621237"><ele>664.0</ele><time>2026-04-25T12:54:33.75Z</time></trkpt><trkpt lat="45.9276579" lon="14.0622707"><ele>661.0</ele><time>2026-04-25T12:54:34.75Z</time></trkpt><trkpt lat="45.9278734" lon="14.0624166"><ele>662.5</ele><time>2026-04-25T12:54:35.75Z</time></trkpt><trkpt lat="45.9280886" lon="14.0625645"><ele>664.0</ele><time>2026-04-25T12:54:36.75Z</time></trkpt><trkpt lat="45.9283059" lon="14.062706"><ele>664.0</ele><time>2026-04-25T12:54:37.75Z</time></trkpt><trkpt lat="45.9285237" lon="14.0628424"><ele>664.0</ele><time>2026-04-25T12:54:38.75Z</time></trkpt><trkpt lat="45.9287403" lon="14.0629739"><ele>664.0</ele><time>2026-04-25T12:54:39.749Z</time></trkpt><trkpt lat="45.928961" lon="14.0630922"><ele>664.0</ele><time>2026-04-25T12:54:40.751Z</time></trkpt><trkpt lat="45.9291806" lon="14.0631999"><ele>662.0</ele><time>2026-04-25T12:54:41.75Z</time></trkpt><trkpt lat="45.9293858" lon="14.0633083"><ele>660.0</ele><time>2026-04-25T12:54:42.75Z</time></trkpt><trkpt lat="45.9295831" lon="14.0634205"><ele>658.0</ele><time>2026-04-25T12:54:43.75Z</time></trkpt><trkpt lat="45.9297717" lon="14.06353"><ele>658.0</ele><time>2026-04-25T12:54:44.75Z</time></trkpt><trkpt lat="45.9299503" lon="14.063636"><ele>658.0</ele><time>2026-04-25T12:54:45.75Z</time></trkpt><trkpt lat="45.9301205" lon="14.0637348"><ele>658.0</ele><time>2026-04-25T12:54:46.75Z</time></trkpt><trkpt lat="45.9302815" lon="14.0638299"><ele>658.6666666666667</ele><time>2026-04-25T12:54:47.749Z</time></trkpt><trkpt lat="45.9304317" lon="14.0639286"><ele>659.3333333333334</ele><time>2026-04-25T12:54:48.75Z</time></trkpt><trkpt lat="45.9305727" lon="14.0640372"><ele>660.0</ele><time>2026-04-25T12:54:49.75Z</time></trkpt><trkpt lat="45.9307091" lon="14.0641632"><ele>660.6666666666666</ele><time>2026-04-25T12:54:50.75Z</time></trkpt><trkpt lat="45.9308397" lon="14.0643094"><ele>661.3333333333333</ele><time>2026-04-25T12:54:51.75Z</time></trkpt><trkpt lat="45.9309652" lon="14.0644651"><ele>662.0</ele><time>2026-04-25T12:54:52.749Z</time></trkpt><trkpt lat="45.9310906" lon="14.0646278"><ele>662.0</ele><time>2026-04-25T12:54:53.75Z</time></trkpt><trkpt lat="45.9312191" lon="14.0647908"><ele>662.0</ele><time>2026-04-25T12:54:54.75Z</time></trkpt><trkpt lat="45.9313522" lon="14.0649432"><ele>662.0</ele><time>2026-04-25T12:54:55.75Z</time></trkpt><trkpt lat="45.9314905" lon="14.0650871"><ele>662.0</ele><time>2026-04-25T12:54:56.749Z</time></trkpt><trkpt lat="45.9316373" lon="14.0652141"><ele>662.0</ele><time>2026-04-25T12:54:57.75Z</time></trkpt><trkpt lat="45.931794" lon="14.0653216"><ele>662.0</ele><time>2026-04-25T12:54:58.75Z</time></trkpt><trkpt lat="45.9319525" lon="14.0654271"><ele>661.3333333333333</ele><time>2026-04-25T12:54:59.75Z</time></trkpt><trkpt lat="45.9321145" lon="14.0655309"><ele>660.6666666666666</ele><time>2026-04-25T12:55:00.749Z</time></trkpt><trkpt lat="45.9322799" lon="14.0656343"><ele>660.0</ele><time>2026-04-25T12:55:01.749Z</time></trkpt><trkpt lat="45.9324476" lon="14.0657386"><ele>660.3333333333334</ele><time>2026-04-25T12:55:02.75Z</time></trkpt><trkpt lat="45.9326196" lon="14.065843"><ele>660.6666666666667</ele><time>2026-04-25T12:55:03.75Z</time></trkpt><trkpt lat="45.9327897" lon="14.0659518"><ele>661.0</ele><time>2026-04-25T12:55:04.75Z</time></trkpt><trkpt lat="45.9329658" lon="14.0660694"><ele>661.0</ele><time>2026-04-25T12:55:05.749Z</time></trkpt><trkpt lat="45.933143" lon="14.0661918"><ele>661.0</ele><time>2026-04-25T12:55:06.75Z</time></trkpt><trkpt lat="45.9333283" lon="14.0663158"><ele>661.0</ele><time>2026-04-25T12:55:07.75Z</time></trkpt><trkpt lat="45.9335111" lon="14.066448"><ele>662.0</ele><time>2026-04-25T12:55:08.75Z</time></trkpt><trkpt lat="45.9336963" lon="14.0666027"><ele>663.0</ele><time>2026-04-25T12:55:09.75Z</time></trkpt><trkpt lat="45.9338796" lon="14.0667664"><ele>664.0</ele><time>2026-04-25T12:55:10.75Z</time></trkpt><trkpt lat="45.9340637" lon="14.0669369"><ele>664.3333333333334</ele><time>2026-04-25T12:55:11.75Z</time></trkpt><trkpt lat="45.9342476" lon="14.0671134"><ele>664.6666666666666</ele><time>2026-04-25T12:55:12.749Z</time></trkpt><trkpt lat="45.9344311" lon="14.0672954"><ele>665.0</ele><time>2026-04-25T12:55:13.75Z</time></trkpt><trkpt lat="45.9346165" lon="14.0674777"><ele>663.5</ele><time>2026-04-25T12:55:14.75Z</time></trkpt><trkpt lat="45.9348062" lon="14.0676592"><ele>662.0</ele><time>2026-04-25T12:55:15.75Z</time></trkpt><trkpt lat="45.9349956" lon="14.0678461"><ele>664.0</ele><time>2026-04-25T12:55:16.749Z</time></trkpt><trkpt lat="45.9351878" lon="14.0680299"><ele>666.0</ele><time>2026-04-25T12:55:17.75Z</time></trkpt><trkpt lat="45.9353706" lon="14.0682102"><ele>665.6666666666666</ele><time>2026-04-25T12:55:18.75Z</time></trkpt><trkpt lat="45.9355528" lon="14.0683728"><ele>665.3333333333333</ele><time>2026-04-25T12:55:19.75Z</time></trkpt><trkpt lat="45.935742" lon="14.0684969"><ele>665.0</ele><time>2026-04-25T12:55:20.75Z</time></trkpt><trkpt lat="45.9359387" lon="14.0685752"><ele>667.3333333333333</ele><time>2026-04-25T12:55:21.75Z</time></trkpt><trkpt lat="45.9361315" lon="14.0686044"><ele>669.6666666666666</ele><time>2026-04-25T12:55:22.75Z</time></trkpt><trkpt lat="45.936312" lon="14.0686127"><ele>672.0</ele><time>2026-04-25T12:55:23.75Z</time></trkpt><trkpt lat="45.9364936" lon="14.0686463"><ele>672.0</ele><time>2026-04-25T12:55:24.75Z</time></trkpt><trkpt lat="45.9366645" lon="14.0686962"><ele>672.0</ele><time>2026-04-25T12:55:25.75Z</time></trkpt><trkpt lat="45.9368222" lon="14.0688364"><ele>672.0</ele><time>2026-04-25T12:55:26.75Z</time></trkpt><trkpt lat="45.9369748" lon="14.0689841"><ele>673.6666666666666</ele><time>2026-04-25T12:55:27.75Z</time></trkpt><trkpt lat="45.9371294" lon="14.0691749"><ele>675.3333333333333</ele><time>2026-04-25T12:55:28.75Z</time></trkpt><trkpt lat="45.9372103" lon="14.0694021"><ele>677.0</ele><time>2026-04-25T12:55:29.749Z</time></trkpt><trkpt lat="45.9373202" lon="14.0696429"><ele>677.0</ele><time>2026-04-25T12:55:30.751Z</time></trkpt><trkpt lat="45.9373975" lon="14.0699099"><ele>677.0</ele><time>2026-04-25T12:55:31.75Z</time></trkpt><trkpt lat="45.9374797" lon="14.0701896"><ele>677.0</ele><time>2026-04-25T12:55:32.749Z</time></trkpt><trkpt lat="45.9375698" lon="14.0704832"><ele>680.0</ele><time>2026-04-25T12:55:33.75Z</time></trkpt><trkpt lat="45.937684" lon="14.0707682"><ele>683.0</ele><time>2026-04-25T12:55:34.75Z</time></trkpt><trkpt lat="45.937805" lon="14.0710671"><ele>683.0</ele><time>2026-04-25T12:55:35.75Z</time></trkpt><trkpt lat="45.9379852" lon="14.0713184"><ele>683.0</ele><time>2026-04-25T12:55:36.75Z</time></trkpt><trkpt lat="45.9381398" lon="14.071587"><ele>683.5</ele><time>2026-04-25T12:55:37.75Z</time></trkpt><trkpt lat="45.9382883" lon="14.0718317"><ele>684.0</ele><time>2026-04-25T12:55:38.75Z</time></trkpt><trkpt lat="45.9384367" lon="14.0720894"><ele>684.0</ele><time>2026-04-25T12:55:39.75Z</time></trkpt><trkpt lat="45.9385984" lon="14.0723163"><ele>684.0</ele><time>2026-04-25T12:55:40.749Z</time></trkpt><trkpt lat="45.9387564" lon="14.0725413"><ele>684.0</ele><time>2026-04-25T12:55:41.75Z</time></trkpt><trkpt lat="45.9389176" lon="14.0727563"><ele>684.6666666666666</ele><time>2026-04-25T12:55:42.75Z</time></trkpt><trkpt lat="45.9390767" lon="14.0729482"><ele>685.3333333333333</ele><time>2026-04-25T12:55:43.751Z</time></trkpt><trkpt lat="45.9392292" lon="14.073146"><ele>686.0</ele><time>2026-04-25T12:55:44.749Z</time></trkpt><trkpt lat="45.9393661" lon="14.073319"><ele>688.3333333333333</ele><time>2026-04-25T12:55:45.75Z</time></trkpt><trkpt lat="45.9394225" lon="14.0735171"><ele>690.6666666666666</ele><time>2026-04-25T12:55:46.75Z</time></trkpt><trkpt lat="45.9394781" lon="14.07372"><ele>693.0</ele><time>2026-04-25T12:55:47.75Z</time></trkpt><trkpt lat="45.939496" lon="14.0739331"><ele>695.25</ele><time>2026-04-25T12:55:48.749Z</time></trkpt><trkpt lat="45.9394742" lon="14.0741581"><ele>697.5</ele><time>2026-04-25T12:55:49.75Z</time></trkpt><trkpt lat="45.9394228" lon="14.0743616"><ele>699.75</ele><time>2026-04-25T12:55:50.75Z</time></trkpt><trkpt lat="45.9393639" lon="14.0745388"><ele>702.0</ele><time>2026-04-25T12:55:51.75Z</time></trkpt><trkpt lat="45.9393086" lon="14.0747082"><ele>702.0</ele><time>2026-04-25T12:55:52.749Z</time></trkpt><trkpt lat="45.939277" lon="14.0748915"><ele>702.0</ele><time>2026-04-25T12:55:53.75Z</time></trkpt><trkpt lat="45.939281" lon="14.0750952"><ele>702.0</ele><time>2026-04-25T12:55:54.75Z</time></trkpt><trkpt lat="45.9393132" lon="14.0753029"><ele>702.0</ele><time>2026-04-25T12:55:55.75Z</time></trkpt><trkpt lat="45.9393593" lon="14.0755235"><ele>703.0</ele><time>2026-04-25T12:55:56.75Z</time></trkpt><trkpt lat="45.9394165" lon="14.0757335"><ele>704.0</ele><time>2026-04-25T12:55:57.751Z</time></trkpt><trkpt lat="45.9395028" lon="14.0759392"><ele>705.0</ele><time>2026-04-25T12:55:58.75Z</time></trkpt><trkpt lat="45.9396167" lon="14.0761097"><ele>702.6666666666666</ele><time>2026-04-25T12:55:59.75Z</time></trkpt><trkpt lat="45.9397554" lon="14.0762455"><ele>700.3333333333333</ele><time>2026-04-25T12:56:00.75Z</time></trkpt><trkpt lat="45.9399095" lon="14.0763564"><ele>698.0</ele><time>2026-04-25T12:56:01.75Z</time></trkpt><trkpt lat="45.940064" lon="14.0764753"><ele>699.0</ele><time>2026-04-25T12:56:02.75Z</time></trkpt><trkpt lat="45.9402018" lon="14.0766356"><ele>700.0</ele><time>2026-04-25T12:56:03.75Z</time></trkpt><trkpt lat="45.9403283" lon="14.0768059"><ele>701.0</ele><time>2026-04-25T12:56:04.75Z</time></trkpt><trkpt lat="45.9404662" lon="14.0769701"><ele>701.0</ele><time>2026-04-25T12:56:05.75Z</time></trkpt><trkpt lat="45.9406262" lon="14.0771105"><ele>701.0</ele><time>2026-04-25T12:56:06.75Z</time></trkpt><trkpt lat="45.9407933" lon="14.0772336"><ele>701.0</ele><time>2026-04-25T12:56:07.75Z</time></trkpt><trkpt lat="45.9409623" lon="14.0773508"><ele>698.0</ele><time>2026-04-25T12:56:08.75Z</time></trkpt><trkpt lat="45.9411349" lon="14.0774556"><ele>695.0</ele><time>2026-04-25T12:56:09.75Z</time></trkpt><trkpt lat="45.9413188" lon="14.0775423"><ele>692.0</ele><time>2026-04-25T12:56:10.749Z</time></trkpt><trkpt lat="45.9415073" lon="14.0776056"><ele>692.0</ele><time>2026-04-25T12:56:11.75Z</time></trkpt><trkpt lat="45.9417026" lon="14.0776362"><ele>692.0</ele><time>2026-04-25T12:56:12.75Z</time></trkpt><trkpt lat="45.9418989" lon="14.0776307"><ele>692.0</ele><time>2026-04-25T12:56:13.75Z</time></trkpt><trkpt lat="45.9421033" lon="14.0776244"><ele>691.3333333333333</ele><time>2026-04-25T12:56:14.75Z</time></trkpt><trkpt lat="45.9423062" lon="14.0776298"><ele>690.6666666666666</ele><time>2026-04-25T12:56:15.749Z</time></trkpt><trkpt lat="45.9425057" lon="14.0776384"><ele>690.0</ele><time>2026-04-25T12:56:16.749Z</time></trkpt><trkpt lat="45.9426984" lon="14.0776601"><ele>690.0</ele><time>2026-04-25T12:56:17.75Z</time></trkpt><trkpt lat="45.9428838" lon="14.0777014"><ele>690.0</ele><time>2026-04-25T12:56:18.75Z</time></trkpt><trkpt lat="45.9430661" lon="14.0777574"><ele>690.0</ele><time>2026-04-25T12:56:19.749Z</time></trkpt><trkpt lat="45.9432457" lon="14.0777744"><ele>689.6666666666666</ele><time>2026-04-25T12:56:20.75Z</time></trkpt><trkpt lat="45.9434165" lon="14.0777418"><ele>689.3333333333333</ele><time>2026-04-25T12:56:21.75Z</time></trkpt><trkpt lat="45.9435761" lon="14.0776772"><ele>689.0</ele><time>2026-04-25T12:56:22.75Z</time></trkpt><trkpt lat="45.9437251" lon="14.0776095"><ele>689.0</ele><time>2026-04-25T12:56:23.749Z</time></trkpt><trkpt lat="45.9438718" lon="14.0775671"><ele>689.0</ele><time>2026-04-25T12:56:24.75Z</time></trkpt><trkpt lat="45.9440177" lon="14.0775706"><ele>689.0</ele><time>2026-04-25T12:56:25.75Z</time></trkpt><trkpt lat="45.9441527" lon="14.0776325"><ele>689.0</ele><time>2026-04-25T12:56:26.749Z</time></trkpt><trkpt lat="45.9442808" lon="14.0777357"><ele>689.3333333333333</ele><time>2026-04-25T12:56:27.75Z</time></trkpt><trkpt lat="45.9444271" lon="14.0778221"><ele>689.6666666666666</ele><time>2026-04-25T12:56:28.75Z</time></trkpt><trkpt lat="45.9445859" lon="14.0778882"><ele>690.0</ele><time>2026-04-25T12:56:29.75Z</time></trkpt><trkpt lat="45.9447417" lon="14.0779126"><ele>690.0</ele><time>2026-04-25T12:56:30.75Z</time></trkpt><trkpt lat="45.9448887" lon="14.0779606"><ele>690.0</ele><time>2026-04-25T12:56:31.75Z</time></trkpt><trkpt lat="45.9450227" lon="14.0780466"><ele>690.0</ele><time>2026-04-25T12:56:32.749Z</time></trkpt><trkpt lat="45.9451377" lon="14.0781529"><ele>690.0</ele><time>2026-04-25T12:56:33.75Z</time></trkpt><trkpt lat="45.9452423" lon="14.0782618"><ele>687.5</ele><time>2026-04-25T12:56:34.75Z</time></trkpt><trkpt lat="45.9453547" lon="14.0783502"><ele>685.0</ele><time>2026-04-25T12:56:35.75Z</time></trkpt><trkpt lat="45.9454911" lon="14.0783955"><ele>682.5</ele><time>2026-04-25T12:56:36.749Z</time></trkpt><trkpt lat="45.9456437" lon="14.0783968"><ele>680.0</ele><time>2026-04-25T12:56:37.75Z</time></trkpt><trkpt lat="45.9458141" lon="14.0783597"><ele>677.0</ele><time>2026-04-25T12:56:38.75Z</time></trkpt><trkpt lat="45.9459939" lon="14.0783162"><ele>674.0</ele><time>2026-04-25T12:56:39.75Z</time></trkpt><trkpt lat="45.9461818" lon="14.0782724"><ele>671.0</ele><time>2026-04-25T12:56:40.75Z</time></trkpt><trkpt lat="45.9463824" lon="14.0782181"><ele>672.6666666666666</ele><time>2026-04-25T12:56:41.751Z</time></trkpt><trkpt lat="45.9465777" lon="14.0781392"><ele>674.3333333333334</ele><time>2026-04-25T12:56:42.75Z</time></trkpt><trkpt lat="45.9467772" lon="14.0780462"><ele>676.0</ele><time>2026-04-25T12:56:43.75Z</time></trkpt><trkpt lat="45.9469761" lon="14.0779611"><ele>676.0</ele><time>2026-04-25T12:56:44.75Z</time></trkpt><trkpt lat="45.9471712" lon="14.0778872"><ele>676.0</ele><time>2026-04-25T12:56:45.75Z</time></trkpt><trkpt lat="45.9473539" lon="14.0778207"><ele>676.0</ele><time>2026-04-25T12:56:46.75Z</time></trkpt><trkpt lat="45.9475297" lon="14.0777491"><ele>673.3333333333334</ele><time>2026-04-25T12:56:47.75Z</time></trkpt><trkpt lat="45.9476926" lon="14.0776666"><ele>670.6666666666666</ele><time>2026-04-25T12:56:48.75Z</time></trkpt><trkpt lat="45.9478553" lon="14.0775852"><ele>668.0</ele><time>2026-04-25T12:56:49.75Z</time></trkpt><trkpt lat="45.9480236" lon="14.0775403"><ele>668.0</ele><time>2026-04-25T12:56:50.75Z</time></trkpt><trkpt lat="45.9482017" lon="14.0775193"><ele>668.0</ele><time>2026-04-25T12:56:51.749Z</time></trkpt><trkpt lat="45.9483763" lon="14.0775041"><ele>668.0</ele><time>2026-04-25T12:56:52.75Z</time></trkpt><trkpt lat="45.9485439" lon="14.0774859"><ele>667.3333333333333</ele><time>2026-04-25T12:56:53.75Z</time></trkpt><trkpt lat="45.9487057" lon="14.0774846"><ele>666.6666666666666</ele><time>2026-04-25T12:56:54.75Z</time></trkpt><trkpt lat="45.9488687" lon="14.0775126"><ele>666.0</ele><time>2026-04-25T12:56:55.75Z</time></trkpt><trkpt lat="45.9490257" lon="14.0775682"><ele>666.0</ele><time>2026-04-25T12:56:56.75Z</time></trkpt><trkpt lat="45.9491826" lon="14.0776339"><ele>666.0</ele><time>2026-04-25T12:56:57.75Z</time></trkpt><trkpt lat="45.9493444" lon="14.077681"><ele>666.0</ele><time>2026-04-25T12:56:58.749Z</time></trkpt><trkpt lat="45.9495109" lon="14.077705"><ele>667.3333333333334</ele><time>2026-04-25T12:56:59.749Z</time></trkpt><trkpt lat="45.9496794" lon="14.0777345"><ele>668.6666666666667</ele><time>2026-04-25T12:57:00.749Z</time></trkpt><trkpt lat="45.949837" lon="14.0777481"><ele>670.0</ele><time>2026-04-25T12:57:01.749Z</time></trkpt><trkpt lat="45.9499874" lon="14.077765"><ele>669.75</ele><time>2026-04-25T12:57:02.749Z</time></trkpt><trkpt lat="45.9501373" lon="14.0777812"><ele>669.5</ele><time>2026-04-25T12:57:03.749Z</time></trkpt><trkpt lat="45.9502713" lon="14.0778434"><ele>669.25</ele><time>2026-04-25T12:57:04.749Z</time></trkpt><trkpt lat="45.9503941" lon="14.0779205"><ele>669.0</ele><time>2026-04-25T12:57:05.749Z</time></trkpt><trkpt lat="45.950504" lon="14.0780502"><ele>669.0</ele><time>2026-04-25T12:57:06.748Z</time></trkpt><trkpt lat="45.9506064" lon="14.078203"><ele>669.0</ele><time>2026-04-25T12:57:07.749Z</time></trkpt><trkpt lat="45.9506692" lon="14.0783722"><ele>669.0</ele><time>2026-04-25T12:57:08.749Z</time></trkpt><trkpt lat="45.9507698" lon="14.0785775"><ele>666.6666666666666</ele><time>2026-04-25T12:57:09.749Z</time></trkpt><trkpt lat="45.9508964" lon="14.0787517"><ele>664.3333333333333</ele><time>2026-04-25T12:57:10.749Z</time></trkpt><trkpt lat="45.9510421" lon="14.0789181"><ele>662.0</ele><time>2026-04-25T12:57:11.749Z</time></trkpt><trkpt lat="45.9511996" lon="14.0790804"><ele>657.6666666666666</ele><time>2026-04-25T12:57:12.749Z</time></trkpt><trkpt lat="45.9513597" lon="14.0792197"><ele>653.3333333333334</ele><time>2026-04-25T12:57:13.749Z</time></trkpt><trkpt lat="45.9515224" lon="14.0793432"><ele>649.0</ele><time>2026-04-25T12:57:14.749Z</time></trkpt><trkpt lat="45.9516783" lon="14.0794414"><ele>647.6666666666667</ele><time>2026-04-25T12:57:15.748Z</time></trkpt><trkpt lat="45.951829" lon="14.0795186"><ele>646.3333333333334</ele><time>2026-04-25T12:57:16.749Z</time></trkpt><trkpt lat="45.9519733" lon="14.0795717"><ele>645.0</ele><time>2026-04-25T12:57:17.749Z</time></trkpt><trkpt lat="45.9521148" lon="14.0796038"><ele>645.0</ele><time>2026-04-25T12:57:18.749Z</time></trkpt><trkpt lat="45.9522782" lon="14.0795631"><ele>645.0</ele><time>2026-04-25T12:57:19.749Z</time></trkpt><trkpt lat="45.9524268" lon="14.079441"><ele>645.0</ele><time>2026-04-25T12:57:20.749Z</time></trkpt><trkpt lat="45.952574" lon="14.079368"><ele>642.0</ele><time>2026-04-25T12:57:21.749Z</time></trkpt><trkpt lat="45.9526975" lon="14.079243"><ele>639.0</ele><time>2026-04-25T12:57:22.749Z</time></trkpt><trkpt lat="45.9528135" lon="14.0790863"><ele>636.0</ele><time>2026-04-25T12:57:23.749Z</time></trkpt><trkpt lat="45.9529219" lon="14.0788946"><ele>636.0</ele><time>2026-04-25T12:57:24.748Z</time></trkpt><trkpt lat="45.9530273" lon="14.0787001"><ele>636.0</ele><time>2026-04-25T12:57:25.749Z</time></trkpt><trkpt lat="45.9531116" lon="14.0784697"><ele>636.0</ele><time>2026-04-25T12:57:26.749Z</time></trkpt><trkpt lat="45.9532072" lon="14.0782445"><ele>640.3333333333334</ele><time>2026-04-25T12:57:27.749Z</time></trkpt><trkpt lat="45.9533087" lon="14.0780052"><ele>644.6666666666667</ele><time>2026-04-25T12:57:28.749Z</time></trkpt><trkpt lat="45.9534081" lon="14.0777727"><ele>649.0</ele><time>2026-04-25T12:57:29.749Z</time></trkpt><trkpt lat="45.9535116" lon="14.0775433"><ele>641.0</ele><time>2026-04-25T12:57:30.749Z</time></trkpt><trkpt lat="45.9536162" lon="14.0773202"><ele>633.0</ele><time>2026-04-25T12:57:31.749Z</time></trkpt><trkpt lat="45.95372" lon="14.0771016"><ele>625.0</ele><time>2026-04-25T12:57:32.749Z</time></trkpt><trkpt lat="45.9538248" lon="14.0768945"><ele>625.0</ele><time>2026-04-25T12:57:33.748Z</time></trkpt><trkpt lat="45.9539228" lon="14.0766914"><ele>625.0</ele><time>2026-04-25T12:57:34.749Z</time></trkpt><trkpt lat="45.9540161" lon="14.0764905"><ele>625.0</ele><time>2026-04-25T12:57:35.749Z</time></trkpt><trkpt lat="45.9541035" lon="14.0762957"><ele>624.0</ele><time>2026-04-25T12:57:36.749Z</time></trkpt><trkpt lat="45.9541811" lon="14.0761086"><ele>623.0</ele><time>2026-04-25T12:57:37.748Z</time></trkpt><trkpt lat="45.9542451" lon="14.0759448"><ele>622.0</ele><time>2026-04-25T12:57:38.749Z</time></trkpt><trkpt lat="45.9542951" lon="14.0757977"><ele>621.0</ele><time>2026-04-25T12:57:39.749Z</time></trkpt><trkpt lat="45.9543253" lon="14.0756683"><ele>621.0</ele><time>2026-04-25T12:57:40.749Z</time></trkpt><trkpt lat="45.9543611" lon="14.0755713"><ele>621.0</ele><time>2026-04-25T12:57:41.749Z</time></trkpt><trkpt lat="45.9544112" lon="14.0755128"><ele>621.0</ele><time>2026-04-25T12:57:42.748Z</time></trkpt><trkpt lat="45.9544989" lon="14.0755872"><ele>621.0</ele><time>2026-04-25T12:57:44.749Z</time></trkpt><trkpt lat="45.9544544" lon="14.0757508"><ele>621.0</ele><time>2026-04-25T12:57:46.749Z</time></trkpt><trkpt lat="45.9543618" lon="14.0758641"><ele>622.0</ele><time>2026-04-25T12:57:47.749Z</time></trkpt><trkpt lat="45.9542992" lon="14.0760243"><ele>623.0</ele><time>2026-04-25T12:57:48.749Z</time></trkpt><trkpt lat="45.9542313" lon="14.0762012"><ele>624.0</ele><time>2026-04-25T12:57:49.748Z</time></trkpt><trkpt lat="45.9541679" lon="14.0764054"><ele>625.0</ele><time>2026-04-25T12:57:50.749Z</time></trkpt><trkpt lat="45.9541101" lon="14.0766211"><ele>625.0</ele><time>2026-04-25T12:57:51.749Z</time></trkpt><trkpt lat="45.9540446" lon="14.0768417"><ele>625.0</ele><time>2026-04-25T12:57:52.749Z</time></trkpt><trkpt lat="45.95398" lon="14.0770588"><ele>625.0</ele><time>2026-04-25T12:57:53.748Z</time></trkpt><trkpt lat="45.9539194" lon="14.0772684"><ele>622.6666666666667</ele><time>2026-04-25T12:57:54.749Z</time></trkpt><trkpt lat="45.9538675" lon="14.0774733"><ele>620.3333333333334</ele><time>2026-04-25T12:57:55.749Z</time></trkpt><trkpt lat="45.9538556" lon="14.0777002"><ele>618.0</ele><time>2026-04-25T12:57:56.749Z</time></trkpt><trkpt lat="45.9538604" lon="14.0779205"><ele>618.0</ele><time>2026-04-25T12:57:57.749Z</time></trkpt><trkpt lat="45.9538772" lon="14.0781376"><ele>618.0</ele><time>2026-04-25T12:57:58.749Z</time></trkpt><trkpt lat="45.9539168" lon="14.078349"><ele>618.0</ele><time>2026-04-25T12:57:59.748Z</time></trkpt><trkpt lat="45.9539727" lon="14.0785521"><ele>616.25</ele><time>2026-04-25T12:58:00.749Z</time></trkpt><trkpt lat="45.9540287" lon="14.0787468"><ele>614.5</ele><time>2026-04-25T12:58:01.749Z</time></trkpt><trkpt lat="45.9540974" lon="14.0789278"><ele>612.75</ele><time>2026-04-25T12:58:02.749Z</time></trkpt><trkpt lat="45.9541823" lon="14.0790962"><ele>611.0</ele><time>2026-04-25T12:58:03.748Z</time></trkpt><trkpt lat="45.9542784" lon="14.0792555"><ele>609.5</ele><time>2026-04-25T12:58:04.749Z</time></trkpt><trkpt lat="45.9543778" lon="14.0794044"><ele>608.0</ele><time>2026-04-25T12:58:05.749Z</time></trkpt><trkpt lat="45.9544775" lon="14.0795532"><ele>606.5</ele><time>2026-04-25T12:58:06.749Z</time></trkpt><trkpt lat="45.9545753" lon="14.0797104"><ele>605.0</ele><time>2026-04-25T12:58:07.749Z</time></trkpt><trkpt lat="45.9546731" lon="14.0798675"><ele>607.0</ele><time>2026-04-25T12:58:08.749Z</time></trkpt><trkpt lat="45.9547747" lon="14.0800232"><ele>609.0</ele><time>2026-04-25T12:58:09.749Z</time></trkpt><trkpt lat="45.9548793" lon="14.0801817"><ele>611.0</ele><time>2026-04-25T12:58:10.749Z</time></trkpt><trkpt lat="45.9549817" lon="14.0803457"><ele>613.3333333333333</ele><time>2026-04-25T12:58:11.749Z</time></trkpt><trkpt lat="45.9550877" lon="14.0805116"><ele>615.6666666666666</ele><time>2026-04-25T12:58:12.749Z</time></trkpt><trkpt lat="45.9551918" lon="14.0806816"><ele>618.0</ele><time>2026-04-25T12:58:13.748Z</time></trkpt><trkpt lat="45.9552956" lon="14.0808555"><ele>618.3333333333334</ele><time>2026-04-25T12:58:14.749Z</time></trkpt><trkpt lat="45.9554023" lon="14.0810333"><ele>618.6666666666667</ele><time>2026-04-25T12:58:15.749Z</time></trkpt><trkpt lat="45.955513" lon="14.0812156"><ele>619.0</ele><time>2026-04-25T12:58:16.749Z</time></trkpt><trkpt lat="45.9556227" lon="14.0814006"><ele>619.0</ele><time>2026-04-25T12:58:17.748Z</time></trkpt><trkpt lat="45.9557566" lon="14.0815881"><ele>619.0</ele><time>2026-04-25T12:58:18.749Z</time></trkpt><trkpt lat="45.9558615" lon="14.0817965"><ele>619.0</ele><time>2026-04-25T12:58:19.749Z</time></trkpt><trkpt lat="45.9559715" lon="14.0819992"><ele>618.0</ele><time>2026-04-25T12:58:20.749Z</time></trkpt><trkpt lat="45.9560833" lon="14.0821994"><ele>617.0</ele><time>2026-04-25T12:58:21.748Z</time></trkpt><trkpt lat="45.9568464" lon="14.0835156"><ele>617.0</ele><time>2026-04-25T12:58:27.749Z</time></trkpt><trkpt lat="45.9569872" lon="14.0837011"><ele>617.0</ele><time>2026-04-25T12:58:28.749Z</time></trkpt><trkpt lat="45.9570667" lon="14.0839293"><ele>617.0</ele><time>2026-04-25T12:58:29.749Z</time></trkpt><trkpt lat="45.9571554" lon="14.0841533"><ele>615.0</ele><time>2026-04-25T12:58:30.749Z</time></trkpt><trkpt lat="45.9572399" lon="14.0843706"><ele>613.0</ele><time>2026-04-25T12:58:31.748Z</time></trkpt><trkpt lat="45.957319" lon="14.0845916"><ele>611.0</ele><time>2026-04-25T12:58:32.749Z</time></trkpt><trkpt lat="45.9573933" lon="14.0848117"><ele>610.0</ele><time>2026-04-25T12:58:33.749Z</time></trkpt><trkpt lat="45.957465" lon="14.0850429"><ele>609.0</ele><time>2026-04-25T12:58:34.749Z</time></trkpt><trkpt lat="45.9575257" lon="14.0852775"><ele>608.0</ele><time>2026-04-25T12:58:35.749Z</time></trkpt><trkpt lat="45.9575829" lon="14.0855138"><ele>608.0</ele><time>2026-04-25T12:58:36.748Z</time></trkpt><trkpt lat="45.9576314" lon="14.0857502"><ele>608.0</ele><time>2026-04-25T12:58:37.749Z</time></trkpt><trkpt lat="45.9576703" lon="14.0859942"><ele>608.0</ele><time>2026-04-25T12:58:38.749Z</time></trkpt><trkpt lat="45.957702" lon="14.0862415"><ele>609.3333333333333</ele><time>2026-04-25T12:58:39.749Z</time></trkpt><trkpt lat="45.9577297" lon="14.0864941"><ele>610.6666666666666</ele><time>2026-04-25T12:58:40.748Z</time></trkpt><trkpt lat="45.9577523" lon="14.0867466"><ele>612.0</ele><time>2026-04-25T12:58:41.749Z</time></trkpt><trkpt lat="45.9577682" lon="14.087005"><ele>612.0</ele><time>2026-04-25T12:58:42.749Z</time></trkpt><trkpt lat="45.957774" lon="14.0872662"><ele>612.0</ele><time>2026-04-25T12:58:43.749Z</time></trkpt><trkpt lat="45.95777" lon="14.0875337"><ele>612.0</ele><time>2026-04-25T12:58:44.749Z</time></trkpt><trkpt lat="45.9577602" lon="14.0878041"><ele>611.3333333333334</ele><time>2026-04-25T12:58:45.749Z</time></trkpt><trkpt lat="45.9577407" lon="14.088074"><ele>610.6666666666667</ele><time>2026-04-25T12:58:46.749Z</time></trkpt><trkpt lat="45.9577145" lon="14.0883406"><ele>610.0</ele><time>2026-04-25T12:58:47.748Z</time></trkpt><trkpt lat="45.9576881" lon="14.0885967"><ele>610.0</ele><time>2026-04-25T12:58:48.749Z</time></trkpt><trkpt lat="45.9576589" lon="14.0888398"><ele>610.0</ele><time>2026-04-25T12:58:49.749Z</time></trkpt><trkpt lat="45.9576237" lon="14.0890713"><ele>610.0</ele><time>2026-04-25T12:58:50.749Z</time></trkpt><trkpt lat="45.9575838" lon="14.0892909"><ele>610.0</ele><time>2026-04-25T12:58:51.749Z</time></trkpt><trkpt lat="45.9575516" lon="14.089506"><ele>610.0</ele><time>2026-04-25T12:58:52.749Z</time></trkpt><trkpt lat="45.9575366" lon="14.0897277"><ele>610.0</ele><time>2026-04-25T12:58:53.749Z</time></trkpt><trkpt lat="45.9575448" lon="14.0899501"><ele>607.3333333333334</ele><time>2026-04-25T12:58:54.749Z</time></trkpt><trkpt lat="45.9575796" lon="14.0901615"><ele>604.6666666666666</ele><time>2026-04-25T12:58:55.749Z</time></trkpt><trkpt lat="45.9576444" lon="14.0903611"><ele>602.0</ele><time>2026-04-25T12:58:56.749Z</time></trkpt><trkpt lat="45.9577344" lon="14.0905409"><ele>602.0</ele><time>2026-04-25T12:58:57.749Z</time></trkpt><trkpt lat="45.9578514" lon="14.0906895"><ele>602.0</ele><time>2026-04-25T12:58:58.748Z</time></trkpt><trkpt lat="45.9579868" lon="14.0908008"><ele>602.0</ele><time>2026-04-25T12:58:59.749Z</time></trkpt><trkpt lat="45.9581335" lon="14.0908825"><ele>600.0</ele><time>2026-04-25T12:59:00.749Z</time></trkpt><trkpt lat="45.9582775" lon="14.0909385"><ele>598.0</ele><time>2026-04-25T12:59:01.749Z</time></trkpt><trkpt lat="45.9584154" lon="14.090977"><ele>596.0</ele><time>2026-04-25T12:59:02.749Z</time></trkpt><trkpt lat="45.9585415" lon="14.0910101"><ele>594.0</ele><time>2026-04-25T12:59:03.749Z</time></trkpt><trkpt lat="45.9586553" lon="14.0910539"><ele>594.0</ele><time>2026-04-25T12:59:04.749Z</time></trkpt><trkpt lat="45.9587475" lon="14.0911159"><ele>594.0</ele><time>2026-04-25T12:59:05.749Z</time></trkpt><trkpt lat="45.9588103" lon="14.0912097"><ele>594.0</ele><time>2026-04-25T12:59:06.749Z</time></trkpt><trkpt lat="45.9588373" lon="14.0913169"><ele>594.0</ele><time>2026-04-25T12:59:07.749Z</time></trkpt><trkpt lat="45.9588597" lon="14.0914295"><ele>594.0</ele><time>2026-04-25T12:59:08.748Z</time></trkpt><trkpt lat="45.9589088" lon="14.0915216"><ele>594.0</ele><time>2026-04-25T12:59:09.748Z</time></trkpt><trkpt lat="45.9589785" lon="14.0915564"><ele>594.0</ele><time>2026-04-25T12:59:10.749Z</time></trkpt><trkpt lat="45.9590541" lon="14.0915313"><ele>594.0</ele><time>2026-04-25T12:59:11.749Z</time></trkpt><trkpt lat="45.9591261" lon="14.0914495"><ele>594.0</ele><time>2026-04-25T12:59:12.749Z</time></trkpt><trkpt lat="45.9592179" lon="14.0913346"><ele>594.0</ele><time>2026-04-25T12:59:13.749Z</time></trkpt><trkpt lat="45.9593386" lon="14.0912109"><ele>594.0</ele><time>2026-04-25T12:59:14.749Z</time></trkpt><trkpt lat="45.9594846" lon="14.091094"><ele>594.6666666666666</ele><time>2026-04-25T12:59:15.749Z</time></trkpt><trkpt lat="45.9596503" lon="14.0909808"><ele>595.3333333333333</ele><time>2026-04-25T12:59:16.749Z</time></trkpt><trkpt lat="45.9598161" lon="14.0908702"><ele>596.0</ele><time>2026-04-25T12:59:17.749Z</time></trkpt><trkpt lat="45.9599839" lon="14.090754"><ele>595.3333333333333</ele><time>2026-04-25T12:59:18.749Z</time></trkpt><trkpt lat="45.9601514" lon="14.0906395"><ele>594.6666666666666</ele><time>2026-04-25T12:59:19.749Z</time></trkpt><trkpt lat="45.9603163" lon="14.0905272"><ele>594.0</ele><time>2026-04-25T12:59:20.749Z</time></trkpt><trkpt lat="45.9604712" lon="14.0904221"><ele>594.0</ele><time>2026-04-25T12:59:21.749Z</time></trkpt><trkpt lat="45.9606228" lon="14.0903197"><ele>594.0</ele><time>2026-04-25T12:59:22.749Z</time></trkpt><trkpt lat="45.9607751" lon="14.0902177"><ele>594.0</ele><time>2026-04-25T12:59:23.749Z</time></trkpt><trkpt lat="45.9609319" lon="14.090117"><ele>592.6666666666666</ele><time>2026-04-25T12:59:24.748Z</time></trkpt><trkpt lat="45.9610957" lon="14.0900159"><ele>591.3333333333333</ele><time>2026-04-25T12:59:25.749Z</time></trkpt><trkpt lat="45.9612671" lon="14.0899118"><ele>590.0</ele><time>2026-04-25T12:59:26.749Z</time></trkpt><trkpt lat="45.9614467" lon="14.0897944"><ele>590.0</ele><time>2026-04-25T12:59:27.749Z</time></trkpt><trkpt lat="45.9616343" lon="14.0896646"><ele>590.0</ele><time>2026-04-25T12:59:28.748Z</time></trkpt><trkpt lat="45.9618199" lon="14.0895179"><ele>590.0</ele><time>2026-04-25T12:59:29.749Z</time></trkpt><trkpt lat="45.9619918" lon="14.0893383"><ele>590.3333333333333</ele><time>2026-04-25T12:59:30.749Z</time></trkpt><trkpt lat="45.9621462" lon="14.0891252"><ele>590.6666666666666</ele><time>2026-04-25T12:59:31.749Z</time></trkpt><trkpt lat="45.96227" lon="14.0888767"><ele>591.0</ele><time>2026-04-25T12:59:32.749Z</time></trkpt><trkpt lat="45.9623614" lon="14.0885868"><ele>591.0</ele><time>2026-04-25T12:59:33.75Z</time></trkpt><trkpt lat="45.9624357" lon="14.0882777"><ele>591.0</ele><time>2026-04-25T12:59:34.749Z</time></trkpt><trkpt lat="45.9625052" lon="14.0879637"><ele>594.5</ele><time>2026-04-25T12:59:35.748Z</time></trkpt><trkpt lat="45.9625712" lon="14.0876512"><ele>598.0</ele><time>2026-04-25T12:59:36.749Z</time></trkpt><trkpt lat="45.962634" lon="14.087344"><ele>598.0</ele><time>2026-04-25T12:59:37.75Z</time></trkpt><trkpt lat="45.9626988" lon="14.0870445"><ele>598.0</ele><time>2026-04-25T12:59:38.749Z</time></trkpt><trkpt lat="45.9627679" lon="14.0867578"><ele>598.0</ele><time>2026-04-25T12:59:39.749Z</time></trkpt><trkpt lat="45.9628479" lon="14.0864874"><ele>597.0</ele><time>2026-04-25T12:59:40.749Z</time></trkpt><trkpt lat="45.9629406" lon="14.0862333"><ele>596.0</ele><time>2026-04-25T12:59:41.749Z</time></trkpt><trkpt lat="45.9630437" lon="14.0860002"><ele>595.0</ele><time>2026-04-25T12:59:42.748Z</time></trkpt><trkpt lat="45.9631536" lon="14.0857742"><ele>593.6666666666667</ele><time>2026-04-25T12:59:43.749Z</time></trkpt><trkpt lat="45.963266" lon="14.085553"><ele>592.3333333333334</ele><time>2026-04-25T12:59:44.749Z</time></trkpt><trkpt lat="45.9633798" lon="14.0853405"><ele>591.0</ele><time>2026-04-25T12:59:45.749Z</time></trkpt><trkpt lat="45.9634937" lon="14.0851329"><ele>591.3333333333334</ele><time>2026-04-25T12:59:46.749Z</time></trkpt><trkpt lat="45.963605" lon="14.0849309"><ele>591.6666666666667</ele><time>2026-04-25T12:59:47.749Z</time></trkpt><trkpt lat="45.9637131" lon="14.0847366"><ele>592.0</ele><time>2026-04-25T12:59:48.749Z</time></trkpt><trkpt lat="45.9638136" lon="14.0845536"><ele>592.0</ele><time>2026-04-25T12:59:49.748Z</time></trkpt><trkpt lat="45.9639025" lon="14.0843626"><ele>592.0</ele><time>2026-04-25T12:59:50.749Z</time></trkpt><trkpt lat="45.9639649" lon="14.0841502"><ele>592.0</ele><time>2026-04-25T12:59:51.749Z</time></trkpt><trkpt lat="45.9639966" lon="14.0839223"><ele>592.0</ele><time>2026-04-25T12:59:52.749Z</time></trkpt><trkpt lat="45.9639983" lon="14.083689"><ele>592.0</ele><time>2026-04-25T12:59:53.749Z</time></trkpt><trkpt lat="45.9639656" lon="14.0834567"><ele>592.0</ele><time>2026-04-25T12:59:54.749Z</time></trkpt><trkpt lat="45.9639153" lon="14.0832392"><ele>592.0</ele><time>2026-04-25T12:59:55.749Z</time></trkpt><trkpt lat="45.9638682" lon="14.0830312"><ele>592.0</ele><time>2026-04-25T12:59:56.748Z</time></trkpt><trkpt lat="45.9638335" lon="14.0828337"><ele>592.0</ele><time>2026-04-25T12:59:57.749Z</time></trkpt><trkpt lat="45.9638173" lon="14.0826377"><ele>592.0</ele><time>2026-04-25T12:59:58.749Z</time></trkpt><trkpt lat="45.9638293" lon="14.0824446"><ele>591.25</ele><time>2026-04-25T12:59:59.749Z</time></trkpt><trkpt lat="45.9638658" lon="14.0822552"><ele>590.5</ele><time>2026-04-25T13:00:00.749Z</time></trkpt><trkpt lat="45.9639284" lon="14.0820736"><ele>589.75</ele><time>2026-04-25T13:00:01.749Z</time></trkpt><trkpt lat="45.9640317" lon="14.0819172"><ele>589.0</ele><time>2026-04-25T13:00:02.749Z</time></trkpt><trkpt lat="45.9641455" lon="14.0817722"><ele>591.0</ele><time>2026-04-25T13:00:03.749Z</time></trkpt><trkpt lat="45.9642653" lon="14.0816264"><ele>593.0</ele><time>2026-04-25T13:00:04.749Z</time></trkpt><trkpt lat="45.9643704" lon="14.0814488"><ele>595.0</ele><time>2026-04-25T13:00:05.749Z</time></trkpt><trkpt lat="45.9644422" lon="14.0812423"><ele>595.0</ele><time>2026-04-25T13:00:06.749Z</time></trkpt><trkpt lat="45.9644769" lon="14.0810077"><ele>595.0</ele><time>2026-04-25T13:00:07.748Z</time></trkpt><trkpt lat="45.9644826" lon="14.0807518"><ele>595.0</ele><time>2026-04-25T13:00:08.749Z</time></trkpt><trkpt lat="45.9644762" lon="14.080481"><ele>595.3333333333334</ele><time>2026-04-25T13:00:09.749Z</time></trkpt><trkpt lat="45.9644723" lon="14.0801992"><ele>595.6666666666666</ele><time>2026-04-25T13:00:10.748Z</time></trkpt><trkpt lat="45.9644741" lon="14.079915"><ele>596.0</ele><time>2026-04-25T13:00:11.749Z</time></trkpt><trkpt lat="45.9644842" lon="14.0796402"><ele>594.0</ele><time>2026-04-25T13:00:12.749Z</time></trkpt><trkpt lat="45.9644925" lon="14.0793876"><ele>592.0</ele><time>2026-04-25T13:00:13.749Z</time></trkpt><trkpt lat="45.9644989" lon="14.0791545"><ele>590.0</ele><time>2026-04-25T13:00:14.749Z</time></trkpt><trkpt lat="45.9645088" lon="14.0789385"><ele>586.0</ele><time>2026-04-25T13:00:15.749Z</time></trkpt><trkpt lat="45.9645334" lon="14.0787353"><ele>582.0</ele><time>2026-04-25T13:00:16.749Z</time></trkpt><trkpt lat="45.9645566" lon="14.0785304"><ele>578.0</ele><time>2026-04-25T13:00:17.749Z</time></trkpt><trkpt lat="45.9646031" lon="14.0783802"><ele>574.0</ele><time>2026-04-25T13:00:18.749Z</time></trkpt><trkpt lat="45.9647149" lon="14.0782921"><ele>575.75</ele><time>2026-04-25T13:00:19.749Z</time></trkpt><trkpt lat="45.9648738" lon="14.0782415"><ele>577.5</ele><time>2026-04-25T13:00:20.749Z</time></trkpt><trkpt lat="45.9649845" lon="14.0781969"><ele>579.25</ele><time>2026-04-25T13:00:21.749Z</time></trkpt><trkpt lat="45.9651334" lon="14.0781738"><ele>581.0</ele><time>2026-04-25T13:00:22.749Z</time></trkpt><trkpt lat="45.9652464" lon="14.0781236"><ele>581.0</ele><time>2026-04-25T13:00:23.749Z</time></trkpt><trkpt lat="45.9653794" lon="14.0780616"><ele>581.0</ele><time>2026-04-25T13:00:24.749Z</time></trkpt><trkpt lat="45.9654292" lon="14.077883"><ele>581.0</ele><time>2026-04-25T13:00:25.749Z</time></trkpt><trkpt lat="45.9654727" lon="14.0777297"><ele>581.0</ele><time>2026-04-25T13:00:26.749Z</time></trkpt><trkpt lat="45.9654819" lon="14.0775578"><ele>578.25</ele><time>2026-04-25T13:00:27.749Z</time></trkpt><trkpt lat="45.9654459" lon="14.0773833"><ele>575.5</ele><time>2026-04-25T13:00:28.749Z</time></trkpt><trkpt lat="45.9654041" lon="14.0772058"><ele>572.75</ele><time>2026-04-25T13:00:29.749Z</time></trkpt><trkpt lat="45.965377" lon="14.0770222"><ele>570.0</ele><time>2026-04-25T13:00:30.748Z</time></trkpt><trkpt lat="45.965361" lon="14.0768414"><ele>570.0</ele><time>2026-04-25T13:00:31.749Z</time></trkpt><trkpt lat="45.9653887" lon="14.0766643"><ele>570.0</ele><time>2026-04-25T13:00:32.749Z</time></trkpt><trkpt lat="45.96544" lon="14.0764886"><ele>570.0</ele><time>2026-04-25T13:00:33.749Z</time></trkpt><trkpt lat="45.9655464" lon="14.0763712"><ele>570.0</ele><time>2026-04-25T13:00:34.749Z</time></trkpt><trkpt lat="45.965757" lon="14.0763124"><ele>567.0</ele><time>2026-04-25T13:00:35.747Z</time></trkpt><trkpt lat="45.9658904" lon="14.0762585"><ele>564.0</ele><time>2026-04-25T13:00:36.748Z</time></trkpt><trkpt lat="45.9660416" lon="14.0762754"><ele>561.0</ele><time>2026-04-25T13:00:37.748Z</time></trkpt><trkpt lat="45.9661949" lon="14.0763347"><ele>558.0</ele><time>2026-04-25T13:00:38.748Z</time></trkpt><trkpt lat="45.9663435" lon="14.0763607"><ele>558.0</ele><time>2026-04-25T13:00:39.748Z</time></trkpt><trkpt lat="45.9664822" lon="14.0763331"><ele>558.0</ele><time>2026-04-25T13:00:40.748Z</time></trkpt><trkpt lat="45.9666015" lon="14.0762499"><ele>558.0</ele><time>2026-04-25T13:00:41.748Z</time></trkpt><trkpt lat="45.9667081" lon="14.0761216"><ele>558.0</ele><time>2026-04-25T13:00:42.748Z</time></trkpt><trkpt lat="45.9667868" lon="14.0759477"><ele>564.0</ele><time>2026-04-25T13:00:43.748Z</time></trkpt><trkpt lat="45.9668172" lon="14.0757454"><ele>570.0</ele><time>2026-04-25T13:00:44.748Z</time></trkpt><trkpt lat="45.9668607" lon="14.0755251"><ele>576.0</ele><time>2026-04-25T13:00:45.747Z</time></trkpt><trkpt lat="45.966832" lon="14.0752969"><ele>576.0</ele><time>2026-04-25T13:00:46.748Z</time></trkpt><trkpt lat="45.9668755" lon="14.075075"><ele>576.0</ele><time>2026-04-25T13:00:47.748Z</time></trkpt><trkpt lat="45.9669604" lon="14.0748445"><ele>576.0</ele><time>2026-04-25T13:00:48.747Z</time></trkpt><trkpt lat="45.967072" lon="14.0746037"><ele>570.6666666666666</ele><time>2026-04-25T13:00:49.748Z</time></trkpt><trkpt lat="45.9671929" lon="14.0743542"><ele>565.3333333333333</ele><time>2026-04-25T13:00:50.748Z</time></trkpt><trkpt lat="45.9673165" lon="14.0740768"><ele>560.0</ele><time>2026-04-25T13:00:51.747Z</time></trkpt><trkpt lat="45.9674302" lon="14.073791"><ele>560.0</ele><time>2026-04-25T13:00:52.748Z</time></trkpt><trkpt lat="45.9675258" lon="14.0734997"><ele>560.0</ele><time>2026-04-25T13:00:53.748Z</time></trkpt><trkpt lat="45.9676138" lon="14.0732147"><ele>560.0</ele><time>2026-04-25T13:00:54.748Z</time></trkpt><trkpt lat="45.9676797" lon="14.0729348"><ele>560.0</ele><time>2026-04-25T13:00:55.748Z</time></trkpt><trkpt lat="45.9677217" lon="14.0726693"><ele>560.0</ele><time>2026-04-25T13:00:56.748Z</time></trkpt><trkpt lat="45.9677408" lon="14.0724161"><ele>560.0</ele><time>2026-04-25T13:00:57.748Z</time></trkpt><trkpt lat="45.9677589" lon="14.0721927"><ele>556.75</ele><time>2026-04-25T13:00:58.748Z</time></trkpt><trkpt lat="45.9677748" lon="14.0719849"><ele>553.5</ele><time>2026-04-25T13:00:59.748Z</time></trkpt><trkpt lat="45.9678861" lon="14.0718386"><ele>550.25</ele><time>2026-04-25T13:01:00.748Z</time></trkpt><trkpt lat="45.9679656" lon="14.0716693"><ele>547.0</ele><time>2026-04-25T13:01:01.748Z</time></trkpt><trkpt lat="45.9680987" lon="14.0715378"><ele>541.5</ele><time>2026-04-25T13:01:02.748Z</time></trkpt><trkpt lat="45.9682334" lon="14.0714569"><ele>536.0</ele><time>2026-04-25T13:01:03.748Z</time></trkpt><trkpt lat="45.9683433" lon="14.0713797"><ele>530.5</ele><time>2026-04-25T13:01:04.748Z</time></trkpt><trkpt lat="45.9684411" lon="14.0713319"><ele>525.0</ele><time>2026-04-25T13:01:05.748Z</time></trkpt><trkpt lat="45.9685518" lon="14.0713435"><ele>525.0</ele><time>2026-04-25T13:01:06.748Z</time></trkpt><trkpt lat="45.9686467" lon="14.0714935"><ele>525.0</ele><time>2026-04-25T13:01:07.748Z</time></trkpt><trkpt lat="45.9687165" lon="14.0715956"><ele>525.0</ele><time>2026-04-25T13:01:08.747Z</time></trkpt><trkpt lat="45.9687355" lon="14.071826"><ele>525.0</ele><time>2026-04-25T13:01:09.748Z</time></trkpt><trkpt lat="45.9687652" lon="14.0720258"><ele>525.0</ele><time>2026-04-25T13:01:10.748Z</time></trkpt><trkpt lat="45.9687427" lon="14.0722029"><ele>525.0</ele><time>2026-04-25T13:01:11.748Z</time></trkpt><trkpt lat="45.9687741" lon="14.0723521"><ele>525.0</ele><time>2026-04-25T13:01:12.748Z</time></trkpt><trkpt lat="45.9688319" lon="14.0724661"><ele>525.0</ele><time>2026-04-25T13:01:13.748Z</time></trkpt><trkpt lat="45.9689159" lon="14.0725233"><ele>525.0</ele><time>2026-04-25T13:01:14.748Z</time></trkpt><trkpt lat="45.9690034" lon="14.0725737"><ele>525.0</ele><time>2026-04-25T13:01:15.748Z</time></trkpt><trkpt lat="45.9691144" lon="14.0724606"><ele>525.0</ele><time>2026-04-25T13:01:16.747Z</time></trkpt><trkpt lat="45.969219" lon="14.0724438"><ele>525.0</ele><time>2026-04-25T13:01:17.748Z</time></trkpt><trkpt lat="45.9693273" lon="14.0724757"><ele>525.0</ele><time>2026-04-25T13:01:18.748Z</time></trkpt><trkpt lat="45.9694207" lon="14.0725687"><ele>525.0</ele><time>2026-04-25T13:01:19.748Z</time></trkpt><trkpt lat="45.9695211" lon="14.0726621"><ele>525.0</ele><time>2026-04-25T13:01:20.747Z</time></trkpt><trkpt lat="45.9696089" lon="14.072808"><ele>525.0</ele><time>2026-04-25T13:01:21.748Z</time></trkpt><trkpt lat="45.9696303" lon="14.0730157"><ele>525.0</ele><time>2026-04-25T13:01:22.748Z</time></trkpt><trkpt lat="45.9695854" lon="14.0732963"><ele>527.3333333333334</ele><time>2026-04-25T13:01:23.748Z</time></trkpt><trkpt lat="45.9694596" lon="14.0735664"><ele>529.6666666666667</ele><time>2026-04-25T13:01:24.748Z</time></trkpt><trkpt lat="45.9692782" lon="14.0737035"><ele>532.0</ele><time>2026-04-25T13:01:25.748Z</time></trkpt><trkpt lat="45.9692169" lon="14.0738912"><ele>536.0</ele><time>2026-04-25T13:01:26.748Z</time></trkpt><trkpt lat="45.969161" lon="14.0740385"><ele>540.0</ele><time>2026-04-25T13:01:27.748Z</time></trkpt><trkpt lat="45.9691095" lon="14.0741707"><ele>544.0</ele><time>2026-04-25T13:01:28.748Z</time></trkpt><trkpt lat="45.9692559" lon="14.0742834"><ele>548.0</ele><time>2026-04-25T13:01:29.748Z</time></trkpt><trkpt lat="45.9693377" lon="14.0743235"><ele>548.0</ele><time>2026-04-25T13:01:30.747Z</time></trkpt><trkpt lat="45.9694167" lon="14.0742836"><ele>548.0</ele><time>2026-04-25T13:01:31.748Z</time></trkpt><trkpt lat="45.9694959" lon="14.074174"><ele>548.0</ele><time>2026-04-25T13:01:32.748Z</time></trkpt><trkpt lat="45.969559" lon="14.0740109"><ele>548.0</ele><time>2026-04-25T13:01:33.748Z</time></trkpt><trkpt lat="45.9696233" lon="14.0737849"><ele>542.6666666666666</ele><time>2026-04-25T13:01:34.748Z</time></trkpt><trkpt lat="45.9697101" lon="14.0735411"><ele>537.3333333333334</ele><time>2026-04-25T13:01:35.748Z</time></trkpt><trkpt lat="45.9698" lon="14.0732928"><ele>532.0</ele><time>2026-04-25T13:01:36.748Z</time></trkpt><trkpt lat="45.969871" lon="14.0730162"><ele>529.6666666666667</ele><time>2026-04-25T13:01:37.747Z</time></trkpt><trkpt lat="45.9699177" lon="14.0727347"><ele>527.3333333333334</ele><time>2026-04-25T13:01:38.748Z</time></trkpt><trkpt lat="45.9699298" lon="14.0724566"><ele>525.0</ele><time>2026-04-25T13:01:39.749Z</time></trkpt><trkpt lat="45.9699098" lon="14.0721708"><ele>524.6666666666666</ele><time>2026-04-25T13:01:40.748Z</time></trkpt><trkpt lat="45.9698528" lon="14.0718886"><ele>524.3333333333333</ele><time>2026-04-25T13:01:41.748Z</time></trkpt><trkpt lat="45.9697787" lon="14.0716313"><ele>524.0</ele><time>2026-04-25T13:01:42.748Z</time></trkpt><trkpt lat="45.9697108" lon="14.0713914"><ele>525.0</ele><time>2026-04-25T13:01:43.748Z</time></trkpt><trkpt lat="45.9696664" lon="14.0711507"><ele>526.0</ele><time>2026-04-25T13:01:44.748Z</time></trkpt><trkpt lat="45.9696485" lon="14.0708966"><ele>527.0</ele><time>2026-04-25T13:01:45.748Z</time></trkpt><trkpt lat="45.9696484" lon="14.070647"><ele>527.0</ele><time>2026-04-25T13:01:46.748Z</time></trkpt><trkpt lat="45.9696338" lon="14.0703783"><ele>527.0</ele><time>2026-04-25T13:01:47.748Z</time></trkpt><trkpt lat="45.9695909" lon="14.0701144"><ele>527.0</ele><time>2026-04-25T13:01:48.748Z</time></trkpt><trkpt lat="45.9695385" lon="14.069866"><ele>528.0</ele><time>2026-04-25T13:01:49.748Z</time></trkpt><trkpt lat="45.969493" lon="14.0696365"><ele>529.0</ele><time>2026-04-25T13:01:50.748Z</time></trkpt><trkpt lat="45.9694592" lon="14.0694261"><ele>530.0</ele><time>2026-04-25T13:01:51.748Z</time></trkpt><trkpt lat="45.9694393" lon="14.0692239"><ele>525.3333333333333</ele><time>2026-04-25T13:01:52.748Z</time></trkpt><trkpt lat="45.9694659" lon="14.0690257"><ele>520.6666666666666</ele><time>2026-04-25T13:01:53.748Z</time></trkpt><trkpt lat="45.9695149" lon="14.0688178"><ele>516.0</ele><time>2026-04-25T13:01:54.748Z</time></trkpt><trkpt lat="45.9695866" lon="14.0685985"><ele>516.0</ele><time>2026-04-25T13:01:55.748Z</time></trkpt><trkpt lat="45.9696567" lon="14.0683643"><ele>516.0</ele><time>2026-04-25T13:01:56.748Z</time></trkpt><trkpt lat="45.9697271" lon="14.0681026"><ele>516.0</ele><time>2026-04-25T13:01:57.748Z</time></trkpt><trkpt lat="45.9697852" lon="14.0678199"><ele>508.0</ele><time>2026-04-25T13:01:58.748Z</time></trkpt><trkpt lat="45.969834" lon="14.067536"><ele>500.0</ele><time>2026-04-25T13:01:59.748Z</time></trkpt><trkpt lat="45.9698748" lon="14.0672618"><ele>492.0</ele><time>2026-04-25T13:02:00.748Z</time></trkpt><trkpt lat="45.9699057" lon="14.0669933"><ele>488.0</ele><time>2026-04-25T13:02:01.748Z</time></trkpt><trkpt lat="45.9699302" lon="14.0667391"><ele>484.0</ele><time>2026-04-25T13:02:02.748Z</time></trkpt><trkpt lat="45.9699365" lon="14.0664948"><ele>480.0</ele><time>2026-04-25T13:02:03.748Z</time></trkpt><trkpt lat="45.9699246" lon="14.0662642"><ele>479.5</ele><time>2026-04-25T13:02:04.748Z</time></trkpt><trkpt lat="45.9698999" lon="14.0660492"><ele>479.0</ele><time>2026-04-25T13:02:05.748Z</time></trkpt><trkpt lat="45.9698604" lon="14.065852"><ele>478.5</ele><time>2026-04-25T13:02:06.748Z</time></trkpt><trkpt lat="45.9698216" lon="14.0656719"><ele>478.0</ele><time>2026-04-25T13:02:07.748Z</time></trkpt><trkpt lat="45.9697937" lon="14.0655023"><ele>476.83333333333337</ele><time>2026-04-25T13:02:08.748Z</time></trkpt><trkpt lat="45.969779" lon="14.0653435"><ele>475.6666666666667</ele><time>2026-04-25T13:02:09.748Z</time></trkpt><trkpt lat="45.9697768" lon="14.0652017"><ele>474.5</ele><time>2026-04-25T13:02:10.748Z</time></trkpt><trkpt lat="45.969747" lon="14.065096"><ele>473.33333333333337</ele><time>2026-04-25T13:02:11.747Z</time></trkpt><trkpt lat="45.969691" lon="14.0650276"><ele>472.1666666666667</ele><time>2026-04-25T13:02:12.748Z</time></trkpt><trkpt lat="45.9696282" lon="14.0650388"><ele>471.0</ele><time>2026-04-25T13:02:13.748Z</time></trkpt><trkpt lat="45.9695768" lon="14.065213"><ele>471.0</ele><time>2026-04-25T13:02:15.748Z</time></trkpt><trkpt lat="45.969593" lon="14.0653657"><ele>471.0</ele><time>2026-04-25T13:02:16.748Z</time></trkpt><trkpt lat="45.9696069" lon="14.0655698"><ele>471.0</ele><time>2026-04-25T13:02:17.748Z</time></trkpt><trkpt lat="45.9695996" lon="14.065806"><ele>471.0</ele><time>2026-04-25T13:02:18.748Z</time></trkpt><trkpt lat="45.9695794" lon="14.0660608"><ele>473.33333333333337</ele><time>2026-04-25T13:02:19.747Z</time></trkpt><trkpt lat="45.969578" lon="14.0663302"><ele>475.6666666666667</ele><time>2026-04-25T13:02:20.748Z</time></trkpt><trkpt lat="45.9696009" lon="14.0666088"><ele>478.0</ele><time>2026-04-25T13:02:21.748Z</time></trkpt><trkpt lat="45.9696153" lon="14.066874"><ele>478.6666666666667</ele><time>2026-04-25T13:02:22.748Z</time></trkpt><trkpt lat="45.9696112" lon="14.0671367"><ele>479.33333333333337</ele><time>2026-04-25T13:02:23.748Z</time></trkpt><trkpt lat="45.9695835" lon="14.0673988"><ele>480.0</ele><time>2026-04-25T13:02:24.748Z</time></trkpt><trkpt lat="45.9695383" lon="14.067648"><ele>484.0</ele><time>2026-04-25T13:02:25.748Z</time></trkpt><trkpt lat="45.9694843" lon="14.0678783"><ele>488.0</ele><time>2026-04-25T13:02:26.748Z</time></trkpt><trkpt lat="45.9694175" lon="14.0680902"><ele>492.0</ele><time>2026-04-25T13:02:27.749Z</time></trkpt><trkpt lat="45.9693413" lon="14.0682758"><ele>490.25</ele><time>2026-04-25T13:02:28.748Z</time></trkpt><trkpt lat="45.9692547" lon="14.0684362"><ele>488.5</ele><time>2026-04-25T13:02:29.748Z</time></trkpt><trkpt lat="45.9691663" lon="14.0685768"><ele>486.75</ele><time>2026-04-25T13:02:30.748Z</time></trkpt><trkpt lat="45.9690809" lon="14.0686837"><ele>485.0</ele><time>2026-04-25T13:02:31.748Z</time></trkpt><trkpt lat="45.9689938" lon="14.0687536"><ele>485.0</ele><time>2026-04-25T13:02:32.748Z</time></trkpt><trkpt lat="45.9689125" lon="14.0687913"><ele>485.0</ele><time>2026-04-25T13:02:33.748Z</time></trkpt><trkpt lat="45.9688278" lon="14.0688198"><ele>485.0</ele><time>2026-04-25T13:02:34.748Z</time></trkpt><trkpt lat="45.9687911" lon="14.0686889"><ele>485.0</ele><time>2026-04-25T13:02:35.748Z</time></trkpt><trkpt lat="45.9687788" lon="14.0685098"><ele>485.0</ele><time>2026-04-25T13:02:37.748Z</time></trkpt><trkpt lat="45.9688362" lon="14.0683579"><ele>485.25</ele><time>2026-04-25T13:02:38.748Z</time></trkpt><trkpt lat="45.9689608" lon="14.0682392"><ele>485.5</ele><time>2026-04-25T13:02:39.748Z</time></trkpt><trkpt lat="45.9690281" lon="14.0680701"><ele>485.75</ele><time>2026-04-25T13:02:40.748Z</time></trkpt><trkpt lat="45.9690883" lon="14.0678608"><ele>486.0</ele><time>2026-04-25T13:02:41.748Z</time></trkpt><trkpt lat="45.9691528" lon="14.0676434"><ele>484.0</ele><time>2026-04-25T13:02:42.748Z</time></trkpt><trkpt lat="45.9692318" lon="14.0674238"><ele>482.0</ele><time>2026-04-25T13:02:43.748Z</time></trkpt><trkpt lat="45.9693117" lon="14.0672133"><ele>480.0</ele><time>2026-04-25T13:02:44.748Z</time></trkpt><trkpt lat="45.9693712" lon="14.0669854"><ele>480.0</ele><time>2026-04-25T13:02:45.748Z</time></trkpt><trkpt lat="45.9694059" lon="14.066736"><ele>480.0</ele><time>2026-04-25T13:02:46.747Z</time></trkpt><trkpt lat="45.9694217" lon="14.066474"><ele>480.0</ele><time>2026-04-25T13:02:47.748Z</time></trkpt><trkpt lat="45.9694245" lon="14.0662132"><ele>479.33333333333337</ele><time>2026-04-25T13:02:48.748Z</time></trkpt><trkpt lat="45.9694211" lon="14.0659647"><ele>478.6666666666667</ele><time>2026-04-25T13:02:49.748Z</time></trkpt><trkpt lat="45.9694061" lon="14.0657327"><ele>478.0</ele><time>2026-04-25T13:02:50.747Z</time></trkpt><trkpt lat="45.9693836" lon="14.0655143"><ele>476.25</ele><time>2026-04-25T13:02:51.748Z</time></trkpt><trkpt lat="45.9693585" lon="14.0653107"><ele>474.5</ele><time>2026-04-25T13:02:52.748Z</time></trkpt><trkpt lat="45.9693323" lon="14.0651221"><ele>472.75</ele><time>2026-04-25T13:02:53.748Z</time></trkpt><trkpt lat="45.9693043" lon="14.0649462"><ele>471.0</ele><time>2026-04-25T13:02:54.748Z</time></trkpt><trkpt lat="45.969287" lon="14.0647725"><ele>470.5</ele><time>2026-04-25T13:02:55.748Z</time></trkpt><trkpt lat="45.9692772" lon="14.0646046"><ele>470.0</ele><time>2026-04-25T13:02:56.748Z</time></trkpt><trkpt lat="45.9693206" lon="14.0644279"><ele>469.5</ele><time>2026-04-25T13:02:57.748Z</time></trkpt><trkpt lat="45.9693618" lon="14.0642513"><ele>469.0</ele><time>2026-04-25T13:02:58.748Z</time></trkpt><trkpt lat="45.9694187" lon="14.0640741"><ele>472.25</ele><time>2026-04-25T13:02:59.747Z</time></trkpt><trkpt lat="45.9694926" lon="14.0639042"><ele>475.5</ele><time>2026-04-25T13:03:00.748Z</time></trkpt><trkpt lat="45.9695492" lon="14.063741"><ele>478.75</ele><time>2026-04-25T13:03:01.748Z</time></trkpt><trkpt lat="45.9695787" lon="14.0635736"><ele>482.0</ele><time>2026-04-25T13:03:02.748Z</time></trkpt><trkpt lat="45.9695737" lon="14.063398"><ele>484.25</ele><time>2026-04-25T13:03:03.747Z</time></trkpt><trkpt lat="45.9695307" lon="14.0632212"><ele>486.5</ele><time>2026-04-25T13:03:04.748Z</time></trkpt><trkpt lat="45.9694623" lon="14.0630462"><ele>488.75</ele><time>2026-04-25T13:03:05.748Z</time></trkpt><trkpt lat="45.9693971" lon="14.0628586"><ele>491.0</ele><time>2026-04-25T13:03:06.748Z</time></trkpt><trkpt lat="45.9693525" lon="14.0626542"><ele>491.3333333333333</ele><time>2026-04-25T13:03:07.748Z</time></trkpt><trkpt lat="45.9693269" lon="14.0624356"><ele>491.66666666666663</ele><time>2026-04-25T13:03:08.748Z</time></trkpt><trkpt lat="45.969303" lon="14.0622165"><ele>492.0</ele><time>2026-04-25T13:03:09.748Z</time></trkpt><trkpt lat="45.9692574" lon="14.0619979"><ele>483.33333333333337</ele><time>2026-04-25T13:03:10.748Z</time></trkpt><trkpt lat="45.969189" lon="14.0617852"><ele>474.6666666666667</ele><time>2026-04-25T13:03:11.747Z</time></trkpt><trkpt lat="45.9691168" lon="14.0615706"><ele>466.0</ele><time>2026-04-25T13:03:12.748Z</time></trkpt><trkpt lat="45.9690152" lon="14.0613773"><ele>466.0</ele><time>2026-04-25T13:03:13.748Z</time></trkpt><trkpt lat="45.968936" lon="14.0611894"><ele>466.0</ele><time>2026-04-25T13:03:14.748Z</time></trkpt><trkpt lat="45.9688768" lon="14.0609931"><ele>466.0</ele><time>2026-04-25T13:03:15.748Z</time></trkpt><trkpt lat="45.9688383" lon="14.0607856"><ele>470.25</ele><time>2026-04-25T13:03:16.748Z</time></trkpt><trkpt lat="45.9688202" lon="14.0605808"><ele>474.5</ele><time>2026-04-25T13:03:17.748Z</time></trkpt><trkpt lat="45.9687832" lon="14.0603699"><ele>478.75</ele><time>2026-04-25T13:03:18.748Z</time></trkpt><trkpt lat="45.968715" lon="14.0601734"><ele>483.0</ele><time>2026-04-25T13:03:19.748Z</time></trkpt><trkpt lat="45.9685983" lon="14.0600103"><ele>486.33333333333337</ele><time>2026-04-25T13:03:20.747Z</time></trkpt><trkpt lat="45.9684548" lon="14.0598785"><ele>489.6666666666667</ele><time>2026-04-25T13:03:21.748Z</time></trkpt><trkpt lat="45.9683009" lon="14.0597778"><ele>493.0</ele><time>2026-04-25T13:03:22.748Z</time></trkpt><trkpt lat="45.9681621" lon="14.0596785"><ele>493.0</ele><time>2026-04-25T13:03:23.748Z</time></trkpt><trkpt lat="45.9680208" lon="14.0595664"><ele>493.0</ele><time>2026-04-25T13:03:24.748Z</time></trkpt><trkpt lat="45.967894" lon="14.0594585"><ele>493.0</ele><time>2026-04-25T13:03:25.748Z</time></trkpt><trkpt lat="45.967814" lon="14.0593507"><ele>493.0</ele><time>2026-04-25T13:03:26.748Z</time></trkpt><trkpt lat="45.9677245" lon="14.0592181"><ele>500.75</ele><time>2026-04-25T13:03:27.748Z</time></trkpt><trkpt lat="45.9676559" lon="14.0590622"><ele>508.5</ele><time>2026-04-25T13:03:28.748Z</time></trkpt><trkpt lat="45.9676013" lon="14.0588818"><ele>516.25</ele><time>2026-04-25T13:03:29.748Z</time></trkpt><trkpt lat="45.9675663" lon="14.0586863"><ele>524.0</ele><time>2026-04-25T13:03:30.748Z</time></trkpt><trkpt lat="45.9675333" lon="14.0584769"><ele>514.0</ele><time>2026-04-25T13:03:31.748Z</time></trkpt><trkpt lat="45.9674823" lon="14.058269"><ele>504.0</ele><time>2026-04-25T13:03:32.748Z</time></trkpt><trkpt lat="45.967411" lon="14.0580428"><ele>494.0</ele><time>2026-04-25T13:03:33.748Z</time></trkpt><trkpt lat="45.9673476" lon="14.0578101"><ele>494.0</ele><time>2026-04-25T13:03:34.747Z</time></trkpt><trkpt lat="45.9672988" lon="14.0575569"><ele>494.0</ele><time>2026-04-25T13:03:35.748Z</time></trkpt><trkpt lat="45.9672442" lon="14.057309"><ele>494.0</ele><time>2026-04-25T13:03:36.748Z</time></trkpt><trkpt lat="45.967197" lon="14.0570599"><ele>498.66666666666663</ele><time>2026-04-25T13:03:37.748Z</time></trkpt><trkpt lat="45.9671564" lon="14.0567975"><ele>503.33333333333337</ele><time>2026-04-25T13:03:38.748Z</time></trkpt><trkpt lat="45.9670662" lon="14.0565618"><ele>508.0</ele><time>2026-04-25T13:03:39.747Z</time></trkpt><trkpt lat="45.9669615" lon="14.0563653"><ele>511.0</ele><time>2026-04-25T13:03:40.748Z</time></trkpt><trkpt lat="45.9669216" lon="14.0561061"><ele>514.0</ele><time>2026-04-25T13:03:41.748Z</time></trkpt><trkpt lat="45.9668711" lon="14.0558811"><ele>517.0</ele><time>2026-04-25T13:03:42.747Z</time></trkpt><trkpt lat="45.9668125" lon="14.0556594"><ele>517.0</ele><time>2026-04-25T13:03:43.748Z</time></trkpt><trkpt lat="45.9667756" lon="14.0554384"><ele>517.0</ele><time>2026-04-25T13:03:44.748Z</time></trkpt><trkpt lat="45.9667414" lon="14.0552204"><ele>517.0</ele><time>2026-04-25T13:03:45.748Z</time></trkpt><trkpt lat="45.9667289" lon="14.0550042"><ele>508.0</ele><time>2026-04-25T13:03:46.748Z</time></trkpt><trkpt lat="45.9667256" lon="14.0547997"><ele>499.0</ele><time>2026-04-25T13:03:47.748Z</time></trkpt><trkpt lat="45.9667296" lon="14.0546066"><ele>490.0</ele><time>2026-04-25T13:03:48.748Z</time></trkpt><trkpt lat="45.96674" lon="14.0544288"><ele>481.0</ele><time>2026-04-25T13:03:49.748Z</time></trkpt><trkpt lat="45.9667646" lon="14.0542599"><ele>475.5</ele><time>2026-04-25T13:03:50.747Z</time></trkpt><trkpt lat="45.966802" lon="14.0541067"><ele>470.0</ele><time>2026-04-25T13:03:51.747Z</time></trkpt><trkpt lat="45.9669277" lon="14.0540143"><ele>464.5</ele><time>2026-04-25T13:03:52.748Z</time></trkpt><trkpt lat="45.9670151" lon="14.0538913"><ele>459.0</ele><time>2026-04-25T13:03:53.748Z</time></trkpt><trkpt lat="45.967135" lon="14.0537881"><ele>459.0</ele><time>2026-04-25T13:03:54.748Z</time></trkpt><trkpt lat="45.9673226" lon="14.0538025"><ele>459.0</ele><time>2026-04-25T13:03:55.747Z</time></trkpt><trkpt lat="45.9674791" lon="14.0537894"><ele>459.0</ele><time>2026-04-25T13:03:56.748Z</time></trkpt><trkpt lat="45.9676427" lon="14.0537914"><ele>460.0</ele><time>2026-04-25T13:03:57.748Z</time></trkpt><trkpt lat="45.9678111" lon="14.0537903"><ele>461.0</ele><time>2026-04-25T13:03:58.748Z</time></trkpt><trkpt lat="45.967982" lon="14.053771"><ele>462.0</ele><time>2026-04-25T13:03:59.748Z</time></trkpt><trkpt lat="45.9681337" lon="14.0536664"><ele>462.0</ele><time>2026-04-25T13:04:00.747Z</time></trkpt><trkpt lat="45.9683139" lon="14.0535865"><ele>462.0</ele><time>2026-04-25T13:04:01.748Z</time></trkpt><trkpt lat="45.9684923" lon="14.0534839"><ele>462.0</ele><time>2026-04-25T13:04:02.748Z</time></trkpt><trkpt lat="45.9686415" lon="14.0533572"><ele>455.0</ele><time>2026-04-25T13:04:03.748Z</time></trkpt><trkpt lat="45.9688082" lon="14.053252"><ele>448.0</ele><time>2026-04-25T13:04:04.748Z</time></trkpt><trkpt lat="45.9689616" lon="14.0531615"><ele>441.0</ele><time>2026-04-25T13:04:05.747Z</time></trkpt><trkpt lat="45.9691201" lon="14.0530974"><ele>442.33333333333337</ele><time>2026-04-25T13:04:06.748Z</time></trkpt><trkpt lat="45.9692757" lon="14.0530391"><ele>443.6666666666667</ele><time>2026-04-25T13:04:07.748Z</time></trkpt><trkpt lat="45.969428" lon="14.0529896"><ele>445.0</ele><time>2026-04-25T13:04:08.748Z</time></trkpt><trkpt lat="45.9695804" lon="14.0529558"><ele>445.0</ele><time>2026-04-25T13:04:09.748Z</time></trkpt><trkpt lat="45.9697282" lon="14.0529191"><ele>445.0</ele><time>2026-04-25T13:04:10.748Z</time></trkpt><trkpt lat="45.9698696" lon="14.0528673"><ele>445.0</ele><time>2026-04-25T13:04:11.748Z</time></trkpt><trkpt lat="45.9700121" lon="14.052812"><ele>445.0</ele><time>2026-04-25T13:04:12.748Z</time></trkpt><trkpt lat="45.9701507" lon="14.0527584"><ele>446.5</ele><time>2026-04-25T13:04:13.747Z</time></trkpt><trkpt lat="45.9702868" lon="14.0527145"><ele>448.0</ele><time>2026-04-25T13:04:14.748Z</time></trkpt><trkpt lat="45.9704226" lon="14.0526967"><ele>449.5</ele><time>2026-04-25T13:04:15.748Z</time></trkpt><trkpt lat="45.9705525" lon="14.0526842"><ele>451.0</ele><time>2026-04-25T13:04:16.748Z</time></trkpt><trkpt lat="45.9706516" lon="14.0527188"><ele>451.0</ele><time>2026-04-25T13:04:17.748Z</time></trkpt><trkpt lat="45.9708044" lon="14.0528019"><ele>451.0</ele><time>2026-04-25T13:04:18.747Z</time></trkpt><trkpt lat="45.9709219" lon="14.0529567"><ele>451.0</ele><time>2026-04-25T13:04:19.748Z</time></trkpt><trkpt lat="45.971055" lon="14.0530976"><ele>449.33333333333337</ele><time>2026-04-25T13:04:20.748Z</time></trkpt><trkpt lat="45.9712001" lon="14.0532386"><ele>447.66666666666663</ele><time>2026-04-25T13:04:21.748Z</time></trkpt><trkpt lat="45.9713308" lon="14.053378"><ele>446.0</ele><time>2026-04-25T13:04:22.748Z</time></trkpt><trkpt lat="45.9714402" lon="14.0535274"><ele>446.0</ele><time>2026-04-25T13:04:23.748Z</time></trkpt><trkpt lat="45.97155" lon="14.0536757"><ele>446.0</ele><time>2026-04-25T13:04:24.748Z</time></trkpt><trkpt lat="45.9716472" lon="14.0537766"><ele>446.0</ele><time>2026-04-25T13:04:25.748Z</time></trkpt><trkpt lat="45.9717686" lon="14.0538271"><ele>446.0</ele><time>2026-04-25T13:04:26.747Z</time></trkpt><trkpt lat="45.9718899" lon="14.0538689"><ele>441.66666666666663</ele><time>2026-04-25T13:04:27.747Z</time></trkpt><trkpt lat="45.9720418" lon="14.0537494"><ele>437.33333333333337</ele><time>2026-04-25T13:04:28.747Z</time></trkpt><trkpt lat="45.9721917" lon="14.0536818"><ele>433.0</ele><time>2026-04-25T13:04:29.747Z</time></trkpt><trkpt lat="45.972337" lon="14.0536048"><ele>433.0</ele><time>2026-04-25T13:04:30.747Z</time></trkpt><trkpt lat="45.9724822" lon="14.053536"><ele>433.0</ele><time>2026-04-25T13:04:31.747Z</time></trkpt><trkpt lat="45.9726295" lon="14.0535041"><ele>433.0</ele><time>2026-04-25T13:04:32.747Z</time></trkpt><trkpt lat="45.9727713" lon="14.0534791"><ele>433.0</ele><time>2026-04-25T13:04:33.747Z</time></trkpt><trkpt lat="45.9729079" lon="14.0534615"><ele>434.25</ele><time>2026-04-25T13:04:34.747Z</time></trkpt><trkpt lat="45.9730408" lon="14.0534527"><ele>435.5</ele><time>2026-04-25T13:04:35.748Z</time></trkpt><trkpt lat="45.9731666" lon="14.0534176"><ele>436.75</ele><time>2026-04-25T13:04:36.746Z</time></trkpt><trkpt lat="45.9732839" lon="14.0533512"><ele>438.0</ele><time>2026-04-25T13:04:37.747Z</time></trkpt><trkpt lat="45.9733563" lon="14.0531882"><ele>446.0</ele><time>2026-04-25T13:04:38.747Z</time></trkpt><trkpt lat="45.9734235" lon="14.0530079"><ele>454.0</ele><time>2026-04-25T13:04:39.746Z</time></trkpt><trkpt lat="45.9734595" lon="14.0528263"><ele>462.0</ele><time>2026-04-25T13:04:40.747Z</time></trkpt><trkpt lat="45.9734812" lon="14.0526548"><ele>470.0</ele><time>2026-04-25T13:04:41.747Z</time></trkpt><trkpt lat="45.9734883" lon="14.052495"><ele>465.0</ele><time>2026-04-25T13:04:42.746Z</time></trkpt><trkpt lat="45.9734881" lon="14.0523476"><ele>460.0</ele><time>2026-04-25T13:04:43.747Z</time></trkpt><trkpt lat="45.9734967" lon="14.0522108"><ele>455.0</ele><time>2026-04-25T13:04:44.747Z</time></trkpt><trkpt lat="45.9735336" lon="14.0520857"><ele>450.0</ele><time>2026-04-25T13:04:45.747Z</time></trkpt><trkpt lat="45.9735641" lon="14.0519831"><ele>445.0</ele><time>2026-04-25T13:04:46.746Z</time></trkpt><trkpt lat="45.9736238" lon="14.0518746"><ele>445.0</ele><time>2026-04-25T13:04:47.747Z</time></trkpt><trkpt lat="45.9737095" lon="14.051767"><ele>445.0</ele><time>2026-04-25T13:04:48.747Z</time></trkpt><trkpt lat="45.9738296" lon="14.0516778"><ele>445.0</ele><time>2026-04-25T13:04:49.746Z</time></trkpt><trkpt lat="45.9739268" lon="14.0515935"><ele>445.0</ele><time>2026-04-25T13:04:50.747Z</time></trkpt><trkpt lat="45.9740208" lon="14.0514926"><ele>446.75</ele><time>2026-04-25T13:04:51.747Z</time></trkpt><trkpt lat="45.9740966" lon="14.0513797"><ele>448.5</ele><time>2026-04-25T13:04:52.747Z</time></trkpt><trkpt lat="45.9741776" lon="14.0512571"><ele>450.25</ele><time>2026-04-25T13:04:53.747Z</time></trkpt><trkpt lat="45.9742422" lon="14.051123"><ele>452.0</ele><time>2026-04-25T13:04:54.747Z</time></trkpt><trkpt lat="45.9743157" lon="14.0509961"><ele>452.0</ele><time>2026-04-25T13:04:55.747Z</time></trkpt><trkpt lat="45.9744101" lon="14.0508812"><ele>452.0</ele><time>2026-04-25T13:04:56.747Z</time></trkpt><trkpt lat="45.9745148" lon="14.0507891"><ele>452.0</ele><time>2026-04-25T13:04:57.747Z</time></trkpt><trkpt lat="45.9746251" lon="14.0506833"><ele>452.0</ele><time>2026-04-25T13:04:58.747Z</time></trkpt><trkpt lat="45.974751" lon="14.050616"><ele>452.75</ele><time>2026-04-25T13:04:59.747Z</time></trkpt><trkpt lat="45.9748623" lon="14.0505424"><ele>453.5</ele><time>2026-04-25T13:05:00.747Z</time></trkpt><trkpt lat="45.9749597" lon="14.0504496"><ele>454.25</ele><time>2026-04-25T13:05:01.748Z</time></trkpt><trkpt lat="45.9750035" lon="14.0502552"><ele>455.0</ele><time>2026-04-25T13:05:02.747Z</time></trkpt><trkpt lat="45.9750506" lon="14.0500986"><ele>447.25</ele><time>2026-04-25T13:05:03.746Z</time></trkpt><trkpt lat="45.9750977" lon="14.0499399"><ele>439.5</ele><time>2026-04-25T13:05:04.747Z</time></trkpt><trkpt lat="45.9751423" lon="14.0497831"><ele>431.75</ele><time>2026-04-25T13:05:05.747Z</time></trkpt><trkpt lat="45.9752003" lon="14.0496475"><ele>424.0</ele><time>2026-04-25T13:05:06.746Z</time></trkpt><trkpt lat="45.9752841" lon="14.0495334"><ele>424.0</ele><time>2026-04-25T13:05:07.747Z</time></trkpt><trkpt lat="45.9753831" lon="14.0494421"><ele>424.0</ele><time>2026-04-25T13:05:08.747Z</time></trkpt><trkpt lat="45.9755165" lon="14.0493799"><ele>424.0</ele><time>2026-04-25T13:05:09.746Z</time></trkpt><trkpt lat="45.975638" lon="14.0493027"><ele>424.0</ele><time>2026-04-25T13:05:10.747Z</time></trkpt><trkpt lat="45.9757562" lon="14.0491936"><ele>426.0</ele><time>2026-04-25T13:05:11.748Z</time></trkpt><trkpt lat="45.9758645" lon="14.0490679"><ele>428.0</ele><time>2026-04-25T13:05:12.747Z</time></trkpt><trkpt lat="45.9759482" lon="14.0489135"><ele>430.0</ele><time>2026-04-25T13:05:13.747Z</time></trkpt><trkpt lat="45.9760382" lon="14.0487577"><ele>432.0</ele><time>2026-04-25T13:05:14.747Z</time></trkpt><trkpt lat="45.9760895" lon="14.048578"><ele>432.0</ele><time>2026-04-25T13:05:15.747Z</time></trkpt><trkpt lat="45.9761329" lon="14.048394"><ele>432.0</ele><time>2026-04-25T13:05:16.747Z</time></trkpt><trkpt lat="45.9761887" lon="14.0482162"><ele>432.0</ele><time>2026-04-25T13:05:17.747Z</time></trkpt><trkpt lat="45.9762474" lon="14.0480429"><ele>432.0</ele><time>2026-04-25T13:05:18.747Z</time></trkpt><trkpt lat="45.9763091" lon="14.0478745"><ele>426.75</ele><time>2026-04-25T13:05:19.747Z</time></trkpt><trkpt lat="45.9763878" lon="14.0477067"><ele>421.5</ele><time>2026-04-25T13:05:20.747Z</time></trkpt><trkpt lat="45.9764807" lon="14.0475601"><ele>416.25</ele><time>2026-04-25T13:05:21.747Z</time></trkpt><trkpt lat="45.9765708" lon="14.0474321"><ele>411.0</ele><time>2026-04-25T13:05:22.746Z</time></trkpt><trkpt lat="45.9766579" lon="14.0473051"><ele>410.0</ele><time>2026-04-25T13:05:23.747Z</time></trkpt><trkpt lat="45.9767468" lon="14.047184"><ele>409.0</ele><time>2026-04-25T13:05:24.747Z</time></trkpt><trkpt lat="45.9768467" lon="14.0470853"><ele>408.0</ele><time>2026-04-25T13:05:25.746Z</time></trkpt><trkpt lat="45.9769733" lon="14.0470568"><ele>407.0</ele><time>2026-04-25T13:05:26.747Z</time></trkpt><trkpt lat="45.9771031" lon="14.047056"><ele>407.0</ele><time>2026-04-25T13:05:27.747Z</time></trkpt><trkpt lat="45.9772314" lon="14.0470772"><ele>407.0</ele><time>2026-04-25T13:05:28.747Z</time></trkpt><trkpt lat="45.9773655" lon="14.0471308"><ele>407.0</ele><time>2026-04-25T13:05:29.747Z</time></trkpt><trkpt lat="45.9774995" lon="14.0472308"><ele>407.0</ele><time>2026-04-25T13:05:30.746Z</time></trkpt><trkpt lat="45.9776467" lon="14.0473784"><ele>411.5</ele><time>2026-04-25T13:05:31.747Z</time></trkpt><trkpt lat="45.9777688" lon="14.0474892"><ele>416.0</ele><time>2026-04-25T13:05:32.747Z</time></trkpt><trkpt lat="45.9779052" lon="14.0475547"><ele>420.5</ele><time>2026-04-25T13:05:33.747Z</time></trkpt><trkpt lat="45.9780393" lon="14.0476325"><ele>425.0</ele><time>2026-04-25T13:05:34.747Z</time></trkpt><trkpt lat="45.9781751" lon="14.0476066"><ele>425.0</ele><time>2026-04-25T13:05:35.747Z</time></trkpt><trkpt lat="45.9782959" lon="14.047573"><ele>425.0</ele><time>2026-04-25T13:05:36.747Z</time></trkpt><trkpt lat="45.9784274" lon="14.0475424"><ele>425.0</ele><time>2026-04-25T13:05:37.747Z</time></trkpt><trkpt lat="45.978549" lon="14.0474811"><ele>425.0</ele><time>2026-04-25T13:05:38.747Z</time></trkpt><trkpt lat="45.9785907" lon="14.0473077"><ele>426.5</ele><time>2026-04-25T13:05:39.747Z</time></trkpt><trkpt lat="45.9786484" lon="14.0471616"><ele>428.0</ele><time>2026-04-25T13:05:40.747Z</time></trkpt><trkpt lat="45.9786763" lon="14.0469951"><ele>429.5</ele><time>2026-04-25T13:05:41.747Z</time></trkpt><trkpt lat="45.9786864" lon="14.0468174"><ele>431.0</ele><time>2026-04-25T13:05:42.747Z</time></trkpt><trkpt lat="45.9786733" lon="14.046626"><ele>435.5</ele><time>2026-04-25T13:05:43.747Z</time></trkpt><trkpt lat="45.9786357" lon="14.0464434"><ele>440.0</ele><time>2026-04-25T13:05:44.747Z</time></trkpt><trkpt lat="45.9785784" lon="14.0462588"><ele>444.5</ele><time>2026-04-25T13:05:45.747Z</time></trkpt><trkpt lat="45.9784891" lon="14.0460956"><ele>449.0</ele><time>2026-04-25T13:05:46.747Z</time></trkpt><trkpt lat="45.9784006" lon="14.045948"><ele>445.75</ele><time>2026-04-25T13:05:47.747Z</time></trkpt><trkpt lat="45.978269" lon="14.0458379"><ele>442.5</ele><time>2026-04-25T13:05:48.747Z</time></trkpt><trkpt lat="45.978142" lon="14.0457474"><ele>439.25</ele><time>2026-04-25T13:05:49.747Z</time></trkpt><trkpt lat="45.978009" lon="14.0456817"><ele>436.0</ele><time>2026-04-25T13:05:50.747Z</time></trkpt><trkpt lat="45.9778796" lon="14.0456153"><ele>436.0</ele><time>2026-04-25T13:05:51.747Z</time></trkpt><trkpt lat="45.9777668" lon="14.0455345"><ele>436.0</ele><time>2026-04-25T13:05:52.747Z</time></trkpt><trkpt lat="45.9776581" lon="14.0454436"><ele>436.0</ele><time>2026-04-25T13:05:53.747Z</time></trkpt><trkpt lat="45.9775622" lon="14.0453358"><ele>436.0</ele><time>2026-04-25T13:05:54.747Z</time></trkpt><trkpt lat="45.9774785" lon="14.0452234"><ele>430.0</ele><time>2026-04-25T13:05:55.747Z</time></trkpt><trkpt lat="45.9774077" lon="14.045089"><ele>424.0</ele><time>2026-04-25T13:05:56.747Z</time></trkpt><trkpt lat="45.977362" lon="14.0449367"><ele>418.0</ele><time>2026-04-25T13:05:57.747Z</time></trkpt><trkpt lat="45.9773313" lon="14.0447661"><ele>412.0</ele><time>2026-04-25T13:05:58.747Z</time></trkpt><trkpt lat="45.9773118" lon="14.0446038"><ele>411.25</ele><time>2026-04-25T13:05:59.747Z</time></trkpt><trkpt lat="45.9773543" lon="14.044443"><ele>410.5</ele><time>2026-04-25T13:06:00.747Z</time></trkpt><trkpt lat="45.977405" lon="14.0442854"><ele>409.75</ele><time>2026-04-25T13:06:01.747Z</time></trkpt><trkpt lat="45.9774363" lon="14.0441205"><ele>409.0</ele><time>2026-04-25T13:06:02.747Z</time></trkpt><trkpt lat="45.977468" lon="14.0439606"><ele>408.0</ele><time>2026-04-25T13:06:03.747Z</time></trkpt><trkpt lat="45.9775124" lon="14.0437981"><ele>407.0</ele><time>2026-04-25T13:06:04.747Z</time></trkpt><trkpt lat="45.9775485" lon="14.0436315"><ele>406.0</ele><time>2026-04-25T13:06:05.746Z</time></trkpt><trkpt lat="45.9776203" lon="14.0434986"><ele>405.0</ele><time>2026-04-25T13:06:06.747Z</time></trkpt><trkpt lat="45.9776988" lon="14.043381"><ele>407.75</ele><time>2026-04-25T13:06:07.747Z</time></trkpt><trkpt lat="45.9778695" lon="14.0433481"><ele>410.5</ele><time>2026-04-25T13:06:08.746Z</time></trkpt><trkpt lat="45.9779826" lon="14.0432365"><ele>413.25</ele><time>2026-04-25T13:06:09.747Z</time></trkpt><trkpt lat="45.9780911" lon="14.0431133"><ele>416.0</ele><time>2026-04-25T13:06:10.747Z</time></trkpt><trkpt lat="45.9782076" lon="14.0429761"><ele>412.66666666666663</ele><time>2026-04-25T13:06:11.747Z</time></trkpt><trkpt lat="45.9783273" lon="14.0428207"><ele>409.33333333333337</ele><time>2026-04-25T13:06:12.746Z</time></trkpt><trkpt lat="45.9784385" lon="14.0426467"><ele>406.0</ele><time>2026-04-25T13:06:13.747Z</time></trkpt><trkpt lat="45.9785342" lon="14.0424602"><ele>406.0</ele><time>2026-04-25T13:06:14.747Z</time></trkpt><trkpt lat="45.9786281" lon="14.042282"><ele>406.0</ele><time>2026-04-25T13:06:15.747Z</time></trkpt><trkpt lat="45.9787165" lon="14.0421101"><ele>406.0</ele><time>2026-04-25T13:06:16.747Z</time></trkpt><trkpt lat="45.9787935" lon="14.0419494"><ele>406.0</ele><time>2026-04-25T13:06:17.747Z</time></trkpt><trkpt lat="45.9788587" lon="14.0417875"><ele>406.0</ele><time>2026-04-25T13:06:18.747Z</time></trkpt><trkpt lat="45.9788967" lon="14.041628"><ele>406.0</ele><time>2026-04-25T13:06:19.747Z</time></trkpt><trkpt lat="45.9788941" lon="14.0414601"><ele>406.0</ele><time>2026-04-25T13:06:20.747Z</time></trkpt><trkpt lat="45.9788613" lon="14.041305"><ele>406.0</ele><time>2026-04-25T13:06:21.747Z</time></trkpt><trkpt lat="45.9787939" lon="14.0411638"><ele>406.0</ele><time>2026-04-25T13:06:22.747Z</time></trkpt><trkpt lat="45.9787166" lon="14.0410459"><ele>406.0</ele><time>2026-04-25T13:06:23.747Z</time></trkpt><trkpt lat="45.978641" lon="14.040916"><ele>406.0</ele><time>2026-04-25T13:06:24.746Z</time></trkpt><trkpt lat="45.9785902" lon="14.0407494"><ele>406.0</ele><time>2026-04-25T13:06:25.747Z</time></trkpt><trkpt lat="45.9785448" lon="14.0405787"><ele>409.0</ele><time>2026-04-25T13:06:26.747Z</time></trkpt><trkpt lat="45.978566" lon="14.0403866"><ele>412.0</ele><time>2026-04-25T13:06:27.747Z</time></trkpt><trkpt lat="45.9785223" lon="14.0402025"><ele>415.0</ele><time>2026-04-25T13:06:28.747Z</time></trkpt><trkpt lat="45.9784897" lon="14.0400184"><ele>418.0</ele><time>2026-04-25T13:06:29.747Z</time></trkpt><trkpt lat="45.9784514" lon="14.0398488"><ele>418.0</ele><time>2026-04-25T13:06:30.747Z</time></trkpt><trkpt lat="45.978416" lon="14.0396822"><ele>418.0</ele><time>2026-04-25T13:06:31.747Z</time></trkpt><trkpt lat="45.9783898" lon="14.0395122"><ele>418.0</ele><time>2026-04-25T13:06:32.747Z</time></trkpt><trkpt lat="45.9783837" lon="14.0393306"><ele>418.0</ele><time>2026-04-25T13:06:33.747Z</time></trkpt><trkpt lat="45.9784056" lon="14.0391525"><ele>410.5</ele><time>2026-04-25T13:06:34.747Z</time></trkpt><trkpt lat="45.9784554" lon="14.0389747"><ele>403.0</ele><time>2026-04-25T13:06:35.747Z</time></trkpt><trkpt lat="45.9785029" lon="14.0388017"><ele>395.5</ele><time>2026-04-25T13:06:36.747Z</time></trkpt><trkpt lat="45.9785687" lon="14.0386556"><ele>388.0</ele><time>2026-04-25T13:06:37.747Z</time></trkpt><trkpt lat="45.9786371" lon="14.0385106"><ele>388.0</ele><time>2026-04-25T13:06:38.747Z</time></trkpt><trkpt lat="45.9787168" lon="14.0383769"><ele>388.0</ele><time>2026-04-25T13:06:39.747Z</time></trkpt><trkpt lat="45.9787972" lon="14.0382904"><ele>388.0</ele><time>2026-04-25T13:06:40.748Z</time></trkpt><trkpt lat="45.9788988" lon="14.0382115"><ele>388.0</ele><time>2026-04-25T13:06:41.747Z</time></trkpt><trkpt lat="45.9790411" lon="14.0381672"><ele>388.5</ele><time>2026-04-25T13:06:42.747Z</time></trkpt><trkpt lat="45.9791313" lon="14.0380541"><ele>389.0</ele><time>2026-04-25T13:06:43.747Z</time></trkpt><trkpt lat="45.9792571" lon="14.0379386"><ele>389.5</ele><time>2026-04-25T13:06:44.747Z</time></trkpt><trkpt lat="45.9793651" lon="14.0378112"><ele>390.0</ele><time>2026-04-25T13:06:45.747Z</time></trkpt><trkpt lat="45.9794416" lon="14.0376427"><ele>385.75</ele><time>2026-04-25T13:06:46.747Z</time></trkpt><trkpt lat="45.9794678" lon="14.0374197"><ele>381.5</ele><time>2026-04-25T13:06:47.747Z</time></trkpt><trkpt lat="45.9795363" lon="14.0372595"><ele>377.25</ele><time>2026-04-25T13:06:48.747Z</time></trkpt><trkpt lat="45.9795945" lon="14.0370941"><ele>373.0</ele><time>2026-04-25T13:06:49.748Z</time></trkpt><trkpt lat="45.9796438" lon="14.0369326"><ele>373.0</ele><time>2026-04-25T13:06:50.747Z</time></trkpt><trkpt lat="45.9797017" lon="14.0367796"><ele>373.0</ele><time>2026-04-25T13:06:51.747Z</time></trkpt><trkpt lat="45.9797882" lon="14.0366555"><ele>373.0</ele><time>2026-04-25T13:06:52.747Z</time></trkpt><trkpt lat="45.9798619" lon="14.0365287"><ele>373.0</ele><time>2026-04-25T13:06:53.746Z</time></trkpt><trkpt lat="45.9799643" lon="14.0364445"><ele>386.0</ele><time>2026-04-25T13:06:54.747Z</time></trkpt></trkseg><trkseg><trkpt lat="45.9865258" lon="14.031627"><ele>348.2</ele><time>2026-04-25T13:10:56.746Z</time></trkpt><trkpt lat="45.9864072" lon="14.03165"><ele>346.4</ele><time>2026-04-25T13:10:58.746Z</time></trkpt><trkpt lat="45.9863533" lon="14.0317086"><ele>344.6</ele><time>2026-04-25T13:10:59.745Z</time></trkpt><trkpt lat="45.986228" lon="14.0318318"><ele>342.8</ele><time>2026-04-25T13:11:01.746Z</time></trkpt><trkpt lat="45.9861767" lon="14.0319021"><ele>341.0</ele><time>2026-04-25T13:11:02.746Z</time></trkpt><trkpt lat="45.9860674" lon="14.0320283"><ele>341.0</ele><time>2026-04-25T13:11:04.746Z</time></trkpt><trkpt lat="45.985954" lon="14.0321272"><ele>341.0</ele><time>2026-04-25T13:11:05.746Z</time></trkpt><trkpt lat="45.9858789" lon="14.0322154"><ele>341.0</ele><time>2026-04-25T13:11:06.746Z</time></trkpt><trkpt lat="45.9858415" lon="14.0323045"><ele>341.0</ele><time>2026-04-25T13:11:07.745Z</time></trkpt><trkpt lat="45.9857678" lon="14.0324093"><ele>341.0</ele><time>2026-04-25T13:11:08.745Z</time></trkpt><trkpt lat="45.9856814" lon="14.0324677"><ele>345.20000000000005</ele><time>2026-04-25T13:11:09.746Z</time></trkpt><trkpt lat="45.9856183" lon="14.0325766"><ele>349.40000000000003</ele><time>2026-04-25T13:11:10.746Z</time></trkpt><trkpt lat="45.985576" lon="14.0327163"><ele>353.6</ele><time>2026-04-25T13:11:11.746Z</time></trkpt><trkpt lat="45.9855392" lon="14.0328378"><ele>357.8</ele><time>2026-04-25T13:11:12.746Z</time></trkpt><trkpt lat="45.9855789" lon="14.0329705"><ele>362.0</ele><time>2026-04-25T13:11:13.746Z</time></trkpt><trkpt lat="45.9856073" lon="14.0330996"><ele>362.0</ele><time>2026-04-25T13:11:14.746Z</time></trkpt><trkpt lat="45.9856229" lon="14.0332185"><ele>362.0</ele><time>2026-04-25T13:11:15.746Z</time></trkpt><trkpt lat="45.985637" lon="14.0333365"><ele>362.0</ele><time>2026-04-25T13:11:16.746Z</time></trkpt><trkpt lat="45.9855983" lon="14.0334391"><ele>362.0</ele><time>2026-04-25T13:11:17.746Z</time></trkpt><trkpt lat="45.985593" lon="14.033559"><ele>362.0</ele><time>2026-04-25T13:11:18.746Z</time></trkpt><trkpt lat="45.9855647" lon="14.0336763"><ele>362.0</ele><time>2026-04-25T13:11:19.746Z</time></trkpt><trkpt lat="45.9855025" lon="14.0337956"><ele>360.33333333333337</ele><time>2026-04-25T13:11:20.745Z</time></trkpt><trkpt lat="45.9854728" lon="14.0339129"><ele>358.6666666666667</ele><time>2026-04-25T13:11:21.745Z</time></trkpt><trkpt lat="45.9854233" lon="14.0340323"><ele>357.0</ele><time>2026-04-25T13:11:22.746Z</time></trkpt><trkpt lat="45.9853918" lon="14.0341258"><ele>355.3333333333333</ele><time>2026-04-25T13:11:23.747Z</time></trkpt><trkpt lat="45.9853507" lon="14.0342005"><ele>353.66666666666663</ele><time>2026-04-25T13:11:24.746Z</time></trkpt><trkpt lat="45.9853173" lon="14.0342799"><ele>352.0</ele><time>2026-04-25T13:11:25.746Z</time></trkpt><trkpt lat="45.985251" lon="14.0343112"><ele>352.0</ele><time>2026-04-25T13:11:27.746Z</time></trkpt><trkpt lat="45.9852227" lon="14.0342105"><ele>352.0</ele><time>2026-04-25T13:11:30.746Z</time></trkpt><trkpt lat="45.9852569" lon="14.0340845"><ele>352.0</ele><time>2026-04-25T13:11:32.746Z</time></trkpt><trkpt lat="45.9853202" lon="14.0338761"><ele>352.0</ele><time>2026-04-25T13:11:34.746Z</time></trkpt><trkpt lat="45.9853632" lon="14.0337454"><ele>352.0</ele><time>2026-04-25T13:11:35.746Z</time></trkpt><trkpt lat="45.985395" lon="14.0335793"><ele>352.0</ele><time>2026-04-25T13:11:36.746Z</time></trkpt><trkpt lat="45.9854188" lon="14.0334494"><ele>352.0</ele><time>2026-04-25T13:11:37.746Z</time></trkpt><trkpt lat="45.9854379" lon="14.0333134"><ele>352.0</ele><time>2026-04-25T13:11:38.746Z</time></trkpt><trkpt lat="45.9853987" lon="14.0331923"><ele>352.0</ele><time>2026-04-25T13:11:39.745Z</time></trkpt><trkpt lat="45.9853936" lon="14.0330554"><ele>352.0</ele><time>2026-04-25T13:11:40.745Z</time></trkpt><trkpt lat="45.9853834" lon="14.0329212"><ele>354.0</ele><time>2026-04-25T13:11:41.746Z</time></trkpt><trkpt lat="45.9853727" lon="14.0327774"><ele>356.0</ele><time>2026-04-25T13:11:42.746Z</time></trkpt><trkpt lat="45.985369" lon="14.0326267"><ele>358.0</ele><time>2026-04-25T13:11:43.746Z</time></trkpt><trkpt lat="45.985382" lon="14.0324598"><ele>360.0</ele><time>2026-04-25T13:11:44.746Z</time></trkpt><trkpt lat="45.9854021" lon="14.0322897"><ele>362.0</ele><time>2026-04-25T13:11:45.746Z</time></trkpt><trkpt lat="45.9854621" lon="14.0321621"><ele>366.0</ele><time>2026-04-25T13:11:46.746Z</time></trkpt><trkpt lat="45.9854878" lon="14.0320123"><ele>370.0</ele><time>2026-04-25T13:11:47.746Z</time></trkpt><trkpt lat="45.9855407" lon="14.0318702"><ele>374.0</ele><time>2026-04-25T13:11:48.746Z</time></trkpt><trkpt lat="45.9855659" lon="14.0317499"><ele>378.0</ele><time>2026-04-25T13:11:49.746Z</time></trkpt><trkpt lat="45.9856209" lon="14.0316582"><ele>382.0</ele><time>2026-04-25T13:11:50.745Z</time></trkpt><trkpt lat="45.9856877" lon="14.0315518"><ele>385.0</ele><time>2026-04-25T13:11:51.745Z</time></trkpt><trkpt lat="45.9857851" lon="14.0314908"><ele>388.0</ele><time>2026-04-25T13:11:52.746Z</time></trkpt><trkpt lat="45.9858485" lon="14.0313985"><ele>391.0</ele><time>2026-04-25T13:11:53.746Z</time></trkpt><trkpt lat="45.9859232" lon="14.0313299"><ele>394.0</ele><time>2026-04-25T13:11:54.746Z</time></trkpt><trkpt lat="45.986008" lon="14.0312705"><ele>397.0</ele><time>2026-04-25T13:11:55.746Z</time></trkpt><trkpt lat="45.9860835" lon="14.0312337"><ele>389.1666666666667</ele><time>2026-04-25T13:11:56.746Z</time></trkpt><trkpt lat="45.9861494" lon="14.0311884"><ele>381.33333333333337</ele><time>2026-04-25T13:11:57.746Z</time></trkpt><trkpt lat="45.9862385" lon="14.0311362"><ele>373.5</ele><time>2026-04-25T13:11:59.745Z</time></trkpt><trkpt lat="45.9862361" lon="14.0310153"><ele>365.6666666666667</ele><time>2026-04-25T13:12:02.746Z</time></trkpt><trkpt lat="45.9861651" lon="14.031021"><ele>357.83333333333337</ele><time>2026-04-25T13:12:04.746Z</time></trkpt><trkpt lat="45.9860665" lon="14.0311157"><ele>350.0</ele><time>2026-04-25T13:12:06.745Z</time></trkpt><trkpt lat="45.9859996" lon="14.031176"><ele>350.0</ele><time>2026-04-25T13:12:07.745Z</time></trkpt><trkpt lat="45.9859196" lon="14.0312471"><ele>350.0</ele><time>2026-04-25T13:12:08.746Z</time></trkpt><trkpt lat="45.9858368" lon="14.0313148"><ele>350.0</ele><time>2026-04-25T13:12:09.746Z</time></trkpt><trkpt lat="45.9857437" lon="14.0313836"><ele>350.0</ele><time>2026-04-25T13:12:10.746Z</time></trkpt><trkpt lat="45.9856491" lon="14.0314564"><ele>350.0</ele><time>2026-04-25T13:12:11.746Z</time></trkpt><trkpt lat="45.985568" lon="14.0315359"><ele>356.4</ele><time>2026-04-25T13:12:12.746Z</time></trkpt><trkpt lat="45.9854915" lon="14.0316214"><ele>362.8</ele><time>2026-04-25T13:12:13.746Z</time></trkpt><trkpt lat="45.9854114" lon="14.0317146"><ele>369.20000000000005</ele><time>2026-04-25T13:12:14.746Z</time></trkpt><trkpt lat="45.9853706" lon="14.0318229"><ele>375.6</ele><time>2026-04-25T13:12:15.746Z</time></trkpt><trkpt lat="45.9853152" lon="14.0319276"><ele>382.0</ele><time>2026-04-25T13:12:16.746Z</time></trkpt><trkpt lat="45.9852787" lon="14.0320357"><ele>382.0</ele><time>2026-04-25T13:12:17.745Z</time></trkpt><trkpt lat="45.9852151" lon="14.0321742"><ele>382.0</ele><time>2026-04-25T13:12:19.746Z</time></trkpt><trkpt lat="45.9851664" lon="14.0322626"><ele>382.0</ele><time>2026-04-25T13:12:21.746Z</time></trkpt><trkpt lat="45.9851339" lon="14.0323635"><ele>382.0</ele><time>2026-04-25T13:12:43.746Z</time></trkpt><trkpt lat="45.9851172" lon="14.0324956"><ele>382.0</ele><time>2026-04-25T13:12:45.746Z</time></trkpt><trkpt lat="45.9850572" lon="14.032671"><ele>378.0</ele><time>2026-04-25T13:12:47.746Z</time></trkpt><trkpt lat="45.9850269" lon="14.0328069"><ele>374.0</ele><time>2026-04-25T13:12:48.745Z</time></trkpt><trkpt lat="45.9849909" lon="14.0329327"><ele>370.0</ele><time>2026-04-25T13:12:49.746Z</time></trkpt><trkpt lat="45.9849535" lon="14.0330438"><ele>366.0</ele><time>2026-04-25T13:12:50.746Z</time></trkpt><trkpt lat="45.9848972" lon="14.0331319"><ele>362.0</ele><time>2026-04-25T13:12:51.746Z</time></trkpt><trkpt lat="45.9848331" lon="14.0332246"><ele>368.40000000000003</ele><time>2026-04-25T13:12:52.746Z</time></trkpt><trkpt lat="45.984787" lon="14.0333095"><ele>374.8</ele><time>2026-04-25T13:12:53.746Z</time></trkpt><trkpt lat="45.984746" lon="14.0334013"><ele>381.2</ele><time>2026-04-25T13:12:54.746Z</time></trkpt><trkpt lat="45.9846391" lon="14.0335086"><ele>387.6</ele><time>2026-04-25T13:12:56.746Z</time></trkpt><trkpt lat="45.9845531" lon="14.03361"><ele>394.0</ele><time>2026-04-25T13:12:58.746Z</time></trkpt><trkpt lat="45.9844507" lon="14.0336412"><ele>394.00000000000006</ele><time>2026-04-25T13:12:59.746Z</time></trkpt><trkpt lat="45.9843399" lon="14.0336683"><ele>394.0</ele><time>2026-04-25T13:13:00.746Z</time></trkpt><trkpt lat="45.9842547" lon="14.0337025"><ele>394.0</ele><time>2026-04-25T13:13:01.746Z</time></trkpt><trkpt lat="45.9841839" lon="14.0337225"><ele>394.0</ele><time>2026-04-25T13:13:02.746Z</time></trkpt><trkpt lat="45.9841131" lon="14.0337391"><ele>394.00000000000006</ele><time>2026-04-25T13:13:03.746Z</time></trkpt><trkpt lat="45.9840469" lon="14.0337582"><ele>394.0</ele><time>2026-04-25T13:13:04.746Z</time></trkpt><trkpt lat="45.9839761" lon="14.0337068"><ele>394.0</ele><time>2026-04-25T13:13:07.746Z</time></trkpt><trkpt lat="45.9840688" lon="14.0336402"><ele>394.0</ele><time>2026-04-25T13:13:11.745Z</time></trkpt><trkpt lat="45.9841963" lon="14.0336179"><ele>394.0</ele><time>2026-04-25T13:13:13.745Z</time></trkpt><trkpt lat="45.9843194" lon="14.0335625"><ele>394.0</ele><time>2026-04-25T13:13:14.745Z</time></trkpt><trkpt lat="45.9843962" lon="14.0335213"><ele>394.0</ele><time>2026-04-25T13:13:15.745Z</time></trkpt><trkpt lat="45.9844789" lon="14.033465"><ele>394.00000000000006</ele><time>2026-04-25T13:13:16.745Z</time></trkpt><trkpt lat="45.9845398" lon="14.0333851"><ele>394.0</ele><time>2026-04-25T13:13:17.745Z</time></trkpt><trkpt lat="45.9845959" lon="14.0333204"><ele>394.0</ele><time>2026-04-25T13:13:18.745Z</time></trkpt><trkpt lat="45.9846455" lon="14.0332327"><ele>394.0</ele><time>2026-04-25T13:13:19.745Z</time></trkpt><trkpt lat="45.9846748" lon="14.0331264"><ele>394.00000000000006</ele><time>2026-04-25T13:13:20.745Z</time></trkpt><trkpt lat="45.9847141" lon="14.0330052"><ele>394.0</ele><time>2026-04-25T13:13:21.745Z</time></trkpt><trkpt lat="45.9847623" lon="14.0328763"><ele>399.0</ele><time>2026-04-25T13:13:22.745Z</time></trkpt><trkpt lat="45.984806" lon="14.0327384"><ele>404.0</ele><time>2026-04-25T13:13:23.745Z</time></trkpt><trkpt lat="45.9848381" lon="14.0325944"><ele>409.0</ele><time>2026-04-25T13:13:24.745Z</time></trkpt><trkpt lat="45.9848813" lon="14.0324445"><ele>414.0</ele><time>2026-04-25T13:13:25.745Z</time></trkpt><trkpt lat="45.9849262" lon="14.0322865"><ele>419.0</ele><time>2026-04-25T13:13:26.744Z</time></trkpt><trkpt lat="45.9849761" lon="14.0321354"><ele>414.6</ele><time>2026-04-25T13:13:27.745Z</time></trkpt><trkpt lat="45.9850237" lon="14.0319862"><ele>410.2</ele><time>2026-04-25T13:13:28.745Z</time></trkpt><trkpt lat="45.9850809" lon="14.0318392"><ele>405.8</ele><time>2026-04-25T13:13:29.745Z</time></trkpt><trkpt lat="45.9851302" lon="14.0316997"><ele>401.40000000000003</ele><time>2026-04-25T13:13:30.745Z</time></trkpt><trkpt lat="45.9851829" lon="14.0315643"><ele>397.0</ele><time>2026-04-25T13:13:31.745Z</time></trkpt><trkpt lat="45.9852557" lon="14.0314466"><ele>397.00000000000006</ele><time>2026-04-25T13:13:32.745Z</time></trkpt><trkpt lat="45.9853232" lon="14.0313191"><ele>397.0</ele><time>2026-04-25T13:13:33.745Z</time></trkpt><trkpt lat="45.9853851" lon="14.031219"><ele>397.0</ele><time>2026-04-25T13:13:34.745Z</time></trkpt><trkpt lat="45.9854496" lon="14.0311312"><ele>397.0</ele><time>2026-04-25T13:13:35.745Z</time></trkpt><trkpt lat="45.9855123" lon="14.0310604"><ele>397.00000000000006</ele><time>2026-04-25T13:13:36.745Z</time></trkpt><trkpt lat="45.9855605" lon="14.0310015"><ele>397.0</ele><time>2026-04-25T13:13:37.745Z</time></trkpt><trkpt lat="45.9856255" lon="14.0308964"><ele>397.00000000000006</ele><time>2026-04-25T13:13:39.745Z</time></trkpt><trkpt lat="45.9856036" lon="14.0307999"><ele>397.0</ele><time>2026-04-25T13:13:41.745Z</time></trkpt><trkpt lat="45.9855405" lon="14.0308198"><ele>397.0</ele><time>2026-04-25T13:13:43.745Z</time></trkpt><trkpt lat="45.9854805" lon="14.0309333"><ele>397.0</ele><time>2026-04-25T13:13:45.745Z</time></trkpt><trkpt lat="45.9854391" lon="14.031025"><ele>397.00000000000006</ele><time>2026-04-25T13:13:46.745Z</time></trkpt><trkpt lat="45.9853689" lon="14.0311216"><ele>397.0</ele><time>2026-04-25T13:13:47.745Z</time></trkpt><trkpt lat="45.9852895" lon="14.0312346"><ele>397.0</ele><time>2026-04-25T13:13:48.745Z</time></trkpt><trkpt lat="45.9851968" lon="14.0313529"><ele>397.0</ele><time>2026-04-25T13:13:49.745Z</time></trkpt><trkpt lat="45.9851033" lon="14.0314828"><ele>397.0</ele><time>2026-04-25T13:13:50.745Z</time></trkpt><trkpt lat="45.9850161" lon="14.0316209"><ele>397.0</ele><time>2026-04-25T13:13:51.744Z</time></trkpt><trkpt lat="45.9849337" lon="14.0317645"><ele>407.75</ele><time>2026-04-25T13:13:52.745Z</time></trkpt><trkpt lat="45.9848522" lon="14.031911"><ele>418.5</ele><time>2026-04-25T13:13:53.745Z</time></trkpt><trkpt lat="45.984778" lon="14.0320479"><ele>429.25</ele><time>2026-04-25T13:13:54.744Z</time></trkpt><trkpt lat="45.9846983" lon="14.0321795"><ele>440.0</ele><time>2026-04-25T13:13:55.745Z</time></trkpt><trkpt lat="45.9846213" lon="14.032323"><ele>440.0</ele><time>2026-04-25T13:13:56.745Z</time></trkpt><trkpt lat="45.9845364" lon="14.0324564"><ele>440.0</ele><time>2026-04-25T13:13:57.744Z</time></trkpt><trkpt lat="45.984472" lon="14.0325853"><ele>440.0</ele><time>2026-04-25T13:13:58.745Z</time></trkpt><trkpt lat="45.9844005" lon="14.0327025"><ele>440.0</ele><time>2026-04-25T13:13:59.744Z</time></trkpt><trkpt lat="45.9843506" lon="14.0328062"><ele>440.0</ele><time>2026-04-25T13:14:00.745Z</time></trkpt><trkpt lat="45.9843121" lon="14.0328831"><ele>435.8</ele><time>2026-04-25T13:14:01.745Z</time></trkpt><trkpt lat="45.9842653" lon="14.0329622"><ele>431.6</ele><time>2026-04-25T13:14:02.745Z</time></trkpt><trkpt lat="45.9841926" lon="14.0330824"><ele>427.4</ele><time>2026-04-25T13:14:04.745Z</time></trkpt><trkpt lat="45.984127" lon="14.0330402"><ele>423.2</ele><time>2026-04-25T13:14:06.745Z</time></trkpt><trkpt lat="45.9841145" lon="14.03294"><ele>419.0</ele><time>2026-04-25T13:14:08.745Z</time></trkpt><trkpt lat="45.9842332" lon="14.0327851"><ele>419.0</ele><time>2026-04-25T13:14:10.745Z</time></trkpt><trkpt lat="45.9842896" lon="14.0326999"><ele>419.0</ele><time>2026-04-25T13:14:11.745Z</time></trkpt><trkpt lat="45.9843466" lon="14.0325879"><ele>419.0</ele><time>2026-04-25T13:14:12.745Z</time></trkpt><trkpt lat="45.9843961" lon="14.0324626"><ele>419.0</ele><time>2026-04-25T13:14:13.745Z</time></trkpt><trkpt lat="45.984454" lon="14.0323378"><ele>419.0</ele><time>2026-04-25T13:14:14.745Z</time></trkpt><trkpt lat="45.9845102" lon="14.03221"><ele>423.2</ele><time>2026-04-25T13:14:15.745Z</time></trkpt><trkpt lat="45.9845544" lon="14.0320861"><ele>427.4</ele><time>2026-04-25T13:14:16.745Z</time></trkpt><trkpt lat="45.9846096" lon="14.0319601"><ele>431.6</ele><time>2026-04-25T13:14:17.745Z</time></trkpt><trkpt lat="45.9846712" lon="14.031838"><ele>435.8</ele><time>2026-04-25T13:14:18.745Z</time></trkpt><trkpt lat="45.9847314" lon="14.0317151"><ele>440.0</ele><time>2026-04-25T13:14:19.745Z</time></trkpt><trkpt lat="45.9847785" lon="14.0316087"><ele>443.66666666666663</ele><time>2026-04-25T13:14:20.744Z</time></trkpt><trkpt lat="45.9848315" lon="14.0315097"><ele>447.3333333333333</ele><time>2026-04-25T13:14:21.745Z</time></trkpt><trkpt lat="45.9848758" lon="14.031411"><ele>451.0</ele><time>2026-04-25T13:14:22.745Z</time></trkpt><trkpt lat="45.9849154" lon="14.0313246"><ele>454.66666666666663</ele><time>2026-04-25T13:14:23.745Z</time></trkpt><trkpt lat="45.9849625" lon="14.0312379"><ele>458.3333333333333</ele><time>2026-04-25T13:14:24.745Z</time></trkpt><trkpt lat="45.9850102" lon="14.0311559"><ele>462.0</ele><time>2026-04-25T13:14:25.745Z</time></trkpt><trkpt lat="45.9850667" lon="14.0310771"><ele>462.0</ele><time>2026-04-25T13:14:26.745Z</time></trkpt><trkpt lat="45.9851192" lon="14.0310032"><ele>462.0</ele><time>2026-04-25T13:14:27.745Z</time></trkpt><trkpt lat="45.9851655" lon="14.03088"><ele>462.0</ele><time>2026-04-25T13:14:29.745Z</time></trkpt><trkpt lat="45.9851378" lon="14.0307957"><ele>462.0</ele><time>2026-04-25T13:14:31.745Z</time></trkpt><trkpt lat="45.9850729" lon="14.0308245"><ele>462.0</ele><time>2026-04-25T13:14:33.745Z</time></trkpt><trkpt lat="45.9849984" lon="14.030932"><ele>462.0</ele><time>2026-04-25T13:14:35.744Z</time></trkpt><trkpt lat="45.9849794" lon="14.0310322"><ele>462.0</ele><time>2026-04-25T13:14:36.745Z</time></trkpt><trkpt lat="45.9849076" lon="14.0311384"><ele>462.00000000000006</ele><time>2026-04-25T13:14:37.745Z</time></trkpt><trkpt lat="45.9848494" lon="14.031249"><ele>462.00000000000006</ele><time>2026-04-25T13:14:38.745Z</time></trkpt><trkpt lat="45.9847769" lon="14.0313614"><ele>462.0</ele><time>2026-04-25T13:14:39.745Z</time></trkpt><trkpt lat="45.9847037" lon="14.0314851"><ele>462.0</ele><time>2026-04-25T13:14:40.745Z</time></trkpt><trkpt lat="45.9846367" lon="14.0315963"><ele>457.6</ele><time>2026-04-25T13:14:41.745Z</time></trkpt><trkpt lat="45.9845676" lon="14.0317097"><ele>453.20000000000005</ele><time>2026-04-25T13:14:42.744Z</time></trkpt><trkpt lat="45.984498" lon="14.0318218"><ele>448.8</ele><time>2026-04-25T13:14:43.745Z</time></trkpt><trkpt lat="45.9844366" lon="14.0319248"><ele>444.4</ele><time>2026-04-25T13:14:44.745Z</time></trkpt><trkpt lat="45.9843631" lon="14.0320295"><ele>440.0</ele><time>2026-04-25T13:14:45.745Z</time></trkpt><trkpt lat="45.9842921" lon="14.0321437"><ele>439.99999999999994</ele><time>2026-04-25T13:14:46.745Z</time></trkpt><trkpt lat="45.9842173" lon="14.0322407"><ele>440.0</ele><time>2026-04-25T13:14:47.745Z</time></trkpt><trkpt lat="45.984162" lon="14.0323401"><ele>440.0</ele><time>2026-04-25T13:14:48.745Z</time></trkpt><trkpt lat="45.9841136" lon="14.0324224"><ele>440.0</ele><time>2026-04-25T13:14:49.745Z</time></trkpt><trkpt lat="45.9840568" lon="14.0325183"><ele>439.99999999999994</ele><time>2026-04-25T13:14:50.745Z</time></trkpt><trkpt lat="45.9840095" lon="14.0325954"><ele>440.0</ele><time>2026-04-25T13:14:51.745Z</time></trkpt><trkpt lat="45.9839615" lon="14.0326634"><ele>444.8</ele><time>2026-04-25T13:14:52.745Z</time></trkpt><trkpt lat="45.98388" lon="14.0327852"><ele>449.6</ele><time>2026-04-25T13:14:54.745Z</time></trkpt><trkpt lat="45.9837607" lon="14.0327888"><ele>454.4</ele><time>2026-04-25T13:14:56.745Z</time></trkpt><trkpt lat="45.9836972" lon="14.0327705"><ele>459.2</ele><time>2026-04-25T13:14:57.745Z</time></trkpt><trkpt lat="45.9836241" lon="14.0327518"><ele>464.0</ele><time>2026-04-25T13:14:58.744Z</time></trkpt><trkpt lat="45.9835396" lon="14.0327451"><ele>463.99999999999994</ele><time>2026-04-25T13:14:59.745Z</time></trkpt><trkpt lat="45.9834693" lon="14.0327538"><ele>464.0</ele><time>2026-04-25T13:15:00.745Z</time></trkpt><trkpt lat="45.9834066" lon="14.0327711"><ele>464.0</ele><time>2026-04-25T13:15:01.745Z</time></trkpt><trkpt lat="45.9833141" lon="14.0327947"><ele>464.0</ele><time>2026-04-25T13:15:03.745Z</time></trkpt><trkpt lat="45.9832504" lon="14.0327346"><ele>463.99999999999994</ele><time>2026-04-25T13:15:05.745Z</time></trkpt><trkpt lat="45.9833338" lon="14.0326539"><ele>464.0</ele><time>2026-04-25T13:15:08.745Z</time></trkpt><trkpt lat="45.9834736" lon="14.0326533"><ele>464.0</ele><time>2026-04-25T13:15:10.745Z</time></trkpt><trkpt lat="45.9835545" lon="14.0326549"><ele>464.0</ele><time>2026-04-25T13:15:11.745Z</time></trkpt><trkpt lat="45.9836361" lon="14.0326654"><ele>464.0</ele><time>2026-04-25T13:15:12.745Z</time></trkpt><trkpt lat="45.9837007" lon="14.0326724"><ele>464.0</ele><time>2026-04-25T13:15:13.744Z</time></trkpt><trkpt lat="45.9838089" lon="14.0326609"><ele>464.0</ele><time>2026-04-25T13:15:15.744Z</time></trkpt><trkpt lat="45.9838991" lon="14.0325395"><ele>472.25</ele><time>2026-04-25T13:15:17.745Z</time></trkpt><trkpt lat="45.9839532" lon="14.032427"><ele>480.5</ele><time>2026-04-25T13:15:18.745Z</time></trkpt><trkpt lat="45.9840108" lon="14.0322929"><ele>488.75</ele><time>2026-04-25T13:15:19.745Z</time></trkpt><trkpt lat="45.9840766" lon="14.0321537"><ele>497.0</ele><time>2026-04-25T13:15:20.745Z</time></trkpt><trkpt lat="45.984149" lon="14.0319982"><ele>490.0</ele><time>2026-04-25T13:15:21.745Z</time></trkpt><trkpt lat="45.98422" lon="14.0318587"><ele>483.00000000000006</ele><time>2026-04-25T13:15:22.745Z</time></trkpt><trkpt lat="45.9842794" lon="14.031718"><ele>476.00000000000006</ele><time>2026-04-25T13:15:23.745Z</time></trkpt><trkpt lat="45.9843415" lon="14.0315953"><ele>469.0</ele><time>2026-04-25T13:15:24.745Z</time></trkpt><trkpt lat="45.9844002" lon="14.031472"><ele>462.0</ele><time>2026-04-25T13:15:25.745Z</time></trkpt><trkpt lat="45.984451" lon="14.0313518"><ele>462.0</ele><time>2026-04-25T13:15:26.745Z</time></trkpt><trkpt lat="45.984507" lon="14.0312476"><ele>462.0</ele><time>2026-04-25T13:15:27.745Z</time></trkpt><trkpt lat="45.9845489" lon="14.0311421"><ele>462.0</ele><time>2026-04-25T13:15:28.745Z</time></trkpt><trkpt lat="45.9845984" lon="14.031043"><ele>462.0</ele><time>2026-04-25T13:15:29.745Z</time></trkpt><trkpt lat="45.984624" lon="14.0309493"><ele>462.0</ele><time>2026-04-25T13:15:30.745Z</time></trkpt><trkpt lat="45.9846314" lon="14.0308537"><ele>462.0</ele><time>2026-04-25T13:15:31.745Z</time></trkpt><trkpt lat="45.9846285" lon="14.0306749"><ele>461.0</ele><time>2026-04-25T13:15:33.745Z</time></trkpt><trkpt lat="45.9845852" lon="14.0305915"><ele>460.0</ele><time>2026-04-25T13:15:34.745Z</time></trkpt><trkpt lat="45.9845567" lon="14.0304967"><ele>459.0</ele><time>2026-04-25T13:15:35.745Z</time></trkpt><trkpt lat="45.9845271" lon="14.0304102"><ele>458.0</ele><time>2026-04-25T13:15:36.745Z</time></trkpt><trkpt lat="45.9844767" lon="14.0302727"><ele>457.0</ele><time>2026-04-25T13:15:38.745Z</time></trkpt><trkpt lat="45.9844119" lon="14.0302827"><ele>456.0</ele><time>2026-04-25T13:15:40.745Z</time></trkpt><trkpt lat="45.9843996" lon="14.0303991"><ele>456.0</ele><time>2026-04-25T13:15:42.744Z</time></trkpt><trkpt lat="45.9844607" lon="14.0305575"><ele>456.0</ele><time>2026-04-25T13:15:44.745Z</time></trkpt><trkpt lat="45.9845015" lon="14.0306413"><ele>456.0</ele><time>2026-04-25T13:15:45.745Z</time></trkpt><trkpt lat="45.9845157" lon="14.0307303"><ele>456.0</ele><time>2026-04-25T13:15:46.745Z</time></trkpt><trkpt lat="45.9845091" lon="14.0309102"><ele>456.0</ele><time>2026-04-25T13:15:48.745Z</time></trkpt><trkpt lat="45.9844513" lon="14.0310794"><ele>457.20000000000005</ele><time>2026-04-25T13:15:50.745Z</time></trkpt><trkpt lat="45.9843911" lon="14.0311765"><ele>458.40000000000003</ele><time>2026-04-25T13:15:51.745Z</time></trkpt><trkpt lat="45.9843207" lon="14.0312689"><ele>459.6</ele><time>2026-04-25T13:15:52.745Z</time></trkpt><trkpt lat="45.9842514" lon="14.0313855"><ele>460.8</ele><time>2026-04-25T13:15:53.745Z</time></trkpt><trkpt lat="45.9841857" lon="14.031493"><ele>462.0</ele><time>2026-04-25T13:15:54.745Z</time></trkpt><trkpt lat="45.9841017" lon="14.0316016"><ele>467.8333333333333</ele><time>2026-04-25T13:15:55.745Z</time></trkpt><trkpt lat="45.9840345" lon="14.0317153"><ele>473.66666666666663</ele><time>2026-04-25T13:15:56.745Z</time></trkpt><trkpt lat="45.9839724" lon="14.031822"><ele>479.5</ele><time>2026-04-25T13:15:57.744Z</time></trkpt><trkpt lat="45.983912" lon="14.0319188"><ele>485.3333333333333</ele><time>2026-04-25T13:15:58.745Z</time></trkpt><trkpt lat="45.9838686" lon="14.0320037"><ele>491.16666666666663</ele><time>2026-04-25T13:15:59.745Z</time></trkpt><trkpt lat="45.9838263" lon="14.0320762"><ele>497.0</ele><time>2026-04-25T13:16:00.745Z</time></trkpt><trkpt lat="45.9837534" lon="14.0321771"><ele>496.99999999999994</ele><time>2026-04-25T13:16:02.745Z</time></trkpt><trkpt lat="45.9836903" lon="14.0322035"><ele>497.0</ele><time>2026-04-25T13:16:04.745Z</time></trkpt><trkpt lat="45.9836771" lon="14.0320893"><ele>497.0</ele><time>2026-04-25T13:16:07.745Z</time></trkpt><trkpt lat="45.9837603" lon="14.0319772"><ele>497.0</ele><time>2026-04-25T13:16:09.744Z</time></trkpt><trkpt lat="45.9838095" lon="14.0318973"><ele>496.99999999999994</ele><time>2026-04-25T13:16:10.745Z</time></trkpt><trkpt lat="45.9838638" lon="14.0317872"><ele>497.0</ele><time>2026-04-25T13:16:11.745Z</time></trkpt><trkpt lat="45.9839171" lon="14.0316677"><ele>501.40000000000003</ele><time>2026-04-25T13:16:12.744Z</time></trkpt><trkpt lat="45.9839708" lon="14.0315494"><ele>505.80000000000007</ele><time>2026-04-25T13:16:13.745Z</time></trkpt><trkpt lat="45.9840187" lon="14.0314273"><ele>510.2</ele><time>2026-04-25T13:16:14.745Z</time></trkpt><trkpt lat="45.9840629" lon="14.03131"><ele>514.6</ele><time>2026-04-25T13:16:15.745Z</time></trkpt><trkpt lat="45.98411" lon="14.0311907"><ele>519.0</ele><time>2026-04-25T13:16:16.745Z</time></trkpt><trkpt lat="45.984146" lon="14.0310771"><ele>515.0</ele><time>2026-04-25T13:16:17.744Z</time></trkpt><trkpt lat="45.9841854" lon="14.0309584"><ele>511.0</ele><time>2026-04-25T13:16:18.746Z</time></trkpt><trkpt lat="45.9842065" lon="14.0308709"><ele>507.0</ele><time>2026-04-25T13:16:19.745Z</time></trkpt><trkpt lat="45.9842309" lon="14.0307143"><ele>503.0</ele><time>2026-04-25T13:16:21.745Z</time></trkpt><trkpt lat="45.9841963" lon="14.030588"><ele>499.0</ele><time>2026-04-25T13:16:23.745Z</time></trkpt><trkpt lat="45.9841148" lon="14.0306068"><ele>495.0</ele><time>2026-04-25T13:16:25.745Z</time></trkpt><trkpt lat="45.9840697" lon="14.0307477"><ele>499.0</ele><time>2026-04-25T13:16:27.745Z</time></trkpt><trkpt lat="45.9840487" lon="14.0308419"><ele>503.0</ele><time>2026-04-25T13:16:28.745Z</time></trkpt><trkpt lat="45.9840141" lon="14.0309346"><ele>507.0</ele><time>2026-04-25T13:16:29.745Z</time></trkpt><trkpt lat="45.9839735" lon="14.0310197"><ele>511.0</ele><time>2026-04-25T13:16:30.745Z</time></trkpt><trkpt lat="45.9839177" lon="14.0311144"><ele>515.0</ele><time>2026-04-25T13:16:31.744Z</time></trkpt><trkpt lat="45.9838611" lon="14.0311932"><ele>519.0</ele><time>2026-04-25T13:16:32.745Z</time></trkpt><trkpt lat="45.9837892" lon="14.0312733"><ele>519.0</ele><time>2026-04-25T13:16:33.745Z</time></trkpt><trkpt lat="45.983715" lon="14.0313517"><ele>519.0</ele><time>2026-04-25T13:16:34.744Z</time></trkpt><trkpt lat="45.9836419" lon="14.0314275"><ele>519.0</ele><time>2026-04-25T13:16:35.745Z</time></trkpt><trkpt lat="45.9835726" lon="14.0315059"><ele>519.0</ele><time>2026-04-25T13:16:36.746Z</time></trkpt><trkpt lat="45.9835023" lon="14.0315818"><ele>519.0</ele><time>2026-04-25T13:16:37.745Z</time></trkpt><trkpt lat="45.9834451" lon="14.0316494"><ele>519.0</ele><time>2026-04-25T13:16:38.745Z</time></trkpt><trkpt lat="45.9833837" lon="14.0317048"><ele>519.0</ele><time>2026-04-25T13:16:39.745Z</time></trkpt><trkpt lat="45.9833191" lon="14.0317783"><ele>519.0</ele><time>2026-04-25T13:16:41.745Z</time></trkpt><trkpt lat="45.9832688" lon="14.0317099"><ele>519.0</ele><time>2026-04-25T13:16:43.745Z</time></trkpt><trkpt lat="45.9833025" lon="14.0316215"><ele>519.0</ele><time>2026-04-25T13:16:45.745Z</time></trkpt><trkpt lat="45.9833789" lon="14.0315722"><ele>519.0</ele><time>2026-04-25T13:16:46.745Z</time></trkpt><trkpt lat="45.9834329" lon="14.0314536"><ele>519.0</ele><time>2026-04-25T13:16:47.745Z</time></trkpt><trkpt lat="45.9834942" lon="14.0313637"><ele>519.0</ele><time>2026-04-25T13:16:48.745Z</time></trkpt><trkpt lat="45.9835571" lon="14.0312528"><ele>519.0</ele><time>2026-04-25T13:16:49.744Z</time></trkpt><trkpt lat="45.9836132" lon="14.0311422"><ele>519.0</ele><time>2026-04-25T13:16:50.745Z</time></trkpt><trkpt lat="45.9836569" lon="14.031042"><ele>519.0</ele><time>2026-04-25T13:16:51.745Z</time></trkpt><trkpt lat="45.9836923" lon="14.030946"><ele>519.0</ele><time>2026-04-25T13:16:52.745Z</time></trkpt><trkpt lat="45.9837254" lon="14.0308581"><ele>519.0</ele><time>2026-04-25T13:16:53.744Z</time></trkpt><trkpt lat="45.9837545" lon="14.0307041"><ele>514.2</ele><time>2026-04-25T13:16:55.744Z</time></trkpt><trkpt lat="45.9836932" lon="14.0305924"><ele>509.4</ele><time>2026-04-25T13:16:57.744Z</time></trkpt><trkpt lat="45.9835771" lon="14.0305883"><ele>504.6</ele><time>2026-04-25T13:16:59.744Z</time></trkpt><trkpt lat="45.9834995" lon="14.0306249"><ele>499.8</ele><time>2026-04-25T13:17:00.744Z</time></trkpt><trkpt lat="45.9834243" lon="14.0306835"><ele>495.0</ele><time>2026-04-25T13:17:01.744Z</time></trkpt><trkpt lat="45.9833568" lon="14.0307669"><ele>505.2</ele><time>2026-04-25T13:17:02.744Z</time></trkpt><trkpt lat="45.9832899" lon="14.0308643"><ele>515.4</ele><time>2026-04-25T13:17:03.744Z</time></trkpt><trkpt lat="45.9832229" lon="14.030959"><ele>525.6</ele><time>2026-04-25T13:17:04.744Z</time></trkpt><trkpt lat="45.9831568" lon="14.0310463"><ele>535.8</ele><time>2026-04-25T13:17:05.743Z</time></trkpt><trkpt lat="45.9830936" lon="14.0311233"><ele>546.0</ele><time>2026-04-25T13:17:06.744Z</time></trkpt><trkpt lat="45.9830142" lon="14.0312034"><ele>546.0</ele><time>2026-04-25T13:17:07.744Z</time></trkpt><trkpt lat="45.9829316" lon="14.0312815"><ele>546.0</ele><time>2026-04-25T13:17:08.744Z</time></trkpt><trkpt lat="45.9828578" lon="14.0313736"><ele>546.0</ele><time>2026-04-25T13:17:09.744Z</time></trkpt><trkpt lat="45.9827763" lon="14.0314617"><ele>546.0</ele><time>2026-04-25T13:17:10.744Z</time></trkpt><trkpt lat="45.9826963" lon="14.031556"><ele>546.0</ele><time>2026-04-25T13:17:11.743Z</time></trkpt><trkpt lat="45.9826207" lon="14.0316383"><ele>544.0</ele><time>2026-04-25T13:17:12.743Z</time></trkpt><trkpt lat="45.9825663" lon="14.0317296"><ele>542.0</ele><time>2026-04-25T13:17:13.744Z</time></trkpt><trkpt lat="45.9825085" lon="14.031812"><ele>540.0</ele><time>2026-04-25T13:17:14.744Z</time></trkpt><trkpt lat="45.9824427" lon="14.0318939"><ele>538.0</ele><time>2026-04-25T13:17:15.743Z</time></trkpt><trkpt lat="45.9823655" lon="14.0319688"><ele>536.0</ele><time>2026-04-25T13:17:16.744Z</time></trkpt><trkpt lat="45.9822805" lon="14.032033"><ele>534.0</ele><time>2026-04-25T13:17:17.744Z</time></trkpt><trkpt lat="45.9821924" lon="14.0320945"><ele>538.1666666666666</ele><time>2026-04-25T13:17:18.744Z</time></trkpt><trkpt lat="45.9821017" lon="14.0321524"><ele>542.3333333333334</ele><time>2026-04-25T13:17:19.744Z</time></trkpt><trkpt lat="45.982012" lon="14.0321995"><ele>546.5</ele><time>2026-04-25T13:17:20.744Z</time></trkpt><trkpt lat="45.9819285" lon="14.0322301"><ele>550.6666666666667</ele><time>2026-04-25T13:17:21.744Z</time></trkpt><trkpt lat="45.981853" lon="14.0322532"><ele>554.8333333333334</ele><time>2026-04-25T13:17:22.744Z</time></trkpt><trkpt lat="45.9817876" lon="14.0322611"><ele>559.0</ele><time>2026-04-25T13:17:23.744Z</time></trkpt><trkpt lat="45.9817203" lon="14.0322562"><ele>560.7142857142858</ele><time>2026-04-25T13:17:24.743Z</time></trkpt><trkpt lat="45.9816583" lon="14.0322296"><ele>562.4285714285714</ele><time>2026-04-25T13:17:25.744Z</time></trkpt><trkpt lat="45.9815909" lon="14.0321913"><ele>564.1428571428571</ele><time>2026-04-25T13:17:26.744Z</time></trkpt><trkpt lat="45.9815272" lon="14.032123"><ele>565.8571428571429</ele><time>2026-04-25T13:17:27.744Z</time></trkpt><trkpt lat="45.9814701" lon="14.0320549"><ele>567.5714285714286</ele><time>2026-04-25T13:17:28.744Z</time></trkpt><trkpt lat="45.9814097" lon="14.031981"><ele>569.2857142857143</ele><time>2026-04-25T13:17:29.744Z</time></trkpt><trkpt lat="45.9813791" lon="14.0318771"><ele>571.0</ele><time>2026-04-25T13:17:30.744Z</time></trkpt><trkpt lat="45.981351" lon="14.0317882"><ele>571.0</ele><time>2026-04-25T13:17:31.744Z</time></trkpt><trkpt lat="45.9813303" lon="14.031695"><ele>571.0</ele><time>2026-04-25T13:17:32.744Z</time></trkpt><trkpt lat="45.981317" lon="14.0316041"><ele>571.0</ele><time>2026-04-25T13:17:33.744Z</time></trkpt><trkpt lat="45.9813387" lon="14.0315035"><ele>571.0</ele><time>2026-04-25T13:17:34.744Z</time></trkpt><trkpt lat="45.9813476" lon="14.0313896"><ele>571.0</ele><time>2026-04-25T13:17:35.744Z</time></trkpt><trkpt lat="45.9813269" lon="14.0312706"><ele>571.0</ele><time>2026-04-25T13:17:36.744Z</time></trkpt><trkpt lat="45.9813005" lon="14.0311456"><ele>570.3333333333334</ele><time>2026-04-25T13:17:37.744Z</time></trkpt><trkpt lat="45.9812591" lon="14.0310319"><ele>569.6666666666667</ele><time>2026-04-25T13:17:38.744Z</time></trkpt><trkpt lat="45.9811965" lon="14.0309397"><ele>569.0</ele><time>2026-04-25T13:17:39.743Z</time></trkpt><trkpt lat="45.9811409" lon="14.0308497"><ele>568.3333333333334</ele><time>2026-04-25T13:17:40.744Z</time></trkpt><trkpt lat="45.981062" lon="14.0307932"><ele>567.6666666666666</ele><time>2026-04-25T13:17:41.744Z</time></trkpt><trkpt lat="45.9809908" lon="14.0307444"><ele>567.0</ele><time>2026-04-25T13:17:42.744Z</time></trkpt><trkpt lat="45.980925" lon="14.030706"><ele>564.0</ele><time>2026-04-25T13:17:43.744Z</time></trkpt><trkpt lat="45.9808577" lon="14.0306807"><ele>561.0</ele><time>2026-04-25T13:17:44.744Z</time></trkpt><trkpt lat="45.9807428" lon="14.0306153"><ele>558.0</ele><time>2026-04-25T13:17:46.743Z</time></trkpt><trkpt lat="45.9806452" lon="14.0305565"><ele>555.0</ele><time>2026-04-25T13:17:48.744Z</time></trkpt><trkpt lat="45.9805795" lon="14.0305322"><ele>552.0</ele><time>2026-04-25T13:18:11.743Z</time></trkpt><trkpt lat="45.9804968" lon="14.030573"><ele>552.0</ele><time>2026-04-25T13:18:13.744Z</time></trkpt><trkpt lat="45.9804101" lon="14.0306858"><ele>552.0</ele><time>2026-04-25T13:18:15.745Z</time></trkpt><trkpt lat="45.9803731" lon="14.0307601"><ele>552.0</ele><time>2026-04-25T13:18:16.744Z</time></trkpt><trkpt lat="45.9803344" lon="14.0308375"><ele>552.0</ele><time>2026-04-25T13:18:17.744Z</time></trkpt><trkpt lat="45.9802814" lon="14.030905"><ele>552.0</ele><time>2026-04-25T13:18:18.744Z</time></trkpt><trkpt lat="45.9802246" lon="14.0309504"><ele>552.0</ele><time>2026-04-25T13:18:19.744Z</time></trkpt><trkpt lat="45.9800885" lon="14.0309776"><ele>556.0</ele><time>2026-04-25T13:18:21.744Z</time></trkpt><trkpt lat="45.9800133" lon="14.0309566"><ele>560.0</ele><time>2026-04-25T13:18:22.743Z</time></trkpt><trkpt lat="45.9799282" lon="14.0309236"><ele>564.0</ele><time>2026-04-25T13:18:23.744Z</time></trkpt><trkpt lat="45.9798533" lon="14.0309211"><ele>568.0</ele><time>2026-04-25T13:18:24.744Z</time></trkpt><trkpt lat="45.9797836" lon="14.0309484"><ele>572.0</ele><time>2026-04-25T13:18:25.744Z</time></trkpt><trkpt lat="45.9797183" lon="14.0309834"><ele>576.0</ele><time>2026-04-25T13:18:26.743Z</time></trkpt><trkpt lat="45.9796831" lon="14.0310656"><ele>580.0</ele><time>2026-04-25T13:18:27.744Z</time></trkpt><trkpt lat="45.9796428" lon="14.0311476"><ele>580.0</ele><time>2026-04-25T13:18:28.744Z</time></trkpt><trkpt lat="45.9796074" lon="14.0312507"><ele>580.0</ele><time>2026-04-25T13:18:29.744Z</time></trkpt><trkpt lat="45.9795913" lon="14.0313646"><ele>580.0</ele><time>2026-04-25T13:18:30.744Z</time></trkpt><trkpt lat="45.9796289" lon="14.031479"><ele>580.0</ele><time>2026-04-25T13:18:31.744Z</time></trkpt><trkpt lat="45.9796746" lon="14.0315791"><ele>580.0</ele><time>2026-04-25T13:18:32.743Z</time></trkpt><trkpt lat="45.979723" lon="14.0316405"><ele>580.0</ele><time>2026-04-25T13:18:33.744Z</time></trkpt><trkpt lat="45.9797525" lon="14.0317225"><ele>581.0</ele><time>2026-04-25T13:18:34.743Z</time></trkpt><trkpt lat="45.9797906" lon="14.0318685"><ele>582.0</ele><time>2026-04-25T13:18:36.743Z</time></trkpt><trkpt lat="45.9797349" lon="14.0319321"><ele>583.0</ele><time>2026-04-25T13:18:37.744Z</time></trkpt><trkpt lat="45.9797116" lon="14.0320227"><ele>584.0</ele><time>2026-04-25T13:18:38.745Z</time></trkpt><trkpt lat="45.979664" lon="14.0320996"><ele>585.0</ele><time>2026-04-25T13:18:39.744Z</time></trkpt><trkpt lat="45.9795407" lon="14.0321439"><ele>586.0</ele><time>2026-04-25T13:18:41.744Z</time></trkpt><trkpt lat="45.979454" lon="14.032167"><ele>586.0</ele><time>2026-04-25T13:18:42.744Z</time></trkpt><trkpt lat="45.9793764" lon="14.0321906"><ele>586.0</ele><time>2026-04-25T13:18:43.744Z</time></trkpt><trkpt lat="45.9792868" lon="14.0322326"><ele>586.0</ele><time>2026-04-25T13:18:44.744Z</time></trkpt><trkpt lat="45.9791922" lon="14.0322721"><ele>586.0</ele><time>2026-04-25T13:18:45.744Z</time></trkpt><trkpt lat="45.9791003" lon="14.0323319"><ele>586.0</ele><time>2026-04-25T13:18:46.744Z</time></trkpt><trkpt lat="45.9790144" lon="14.0324292"><ele>586.4</ele><time>2026-04-25T13:18:47.743Z</time></trkpt><trkpt lat="45.978929" lon="14.032523"><ele>586.8</ele><time>2026-04-25T13:18:48.744Z</time></trkpt><trkpt lat="45.9788461" lon="14.0326203"><ele>587.1999999999999</ele><time>2026-04-25T13:18:49.745Z</time></trkpt><trkpt lat="45.9787619" lon="14.0327086"><ele>587.6</ele><time>2026-04-25T13:18:50.744Z</time></trkpt><trkpt lat="45.9786823" lon="14.0327951"><ele>588.0</ele><time>2026-04-25T13:18:51.743Z</time></trkpt><trkpt lat="45.9786008" lon="14.032877"><ele>588.0</ele><time>2026-04-25T13:18:52.744Z</time></trkpt><trkpt lat="45.978516" lon="14.0329455"><ele>588.0</ele><time>2026-04-25T13:18:53.744Z</time></trkpt><trkpt lat="45.9784284" lon="14.0330099"><ele>588.0</ele><time>2026-04-25T13:18:54.744Z</time></trkpt><trkpt lat="45.9783417" lon="14.0330866"><ele>588.0</ele><time>2026-04-25T13:18:55.744Z</time></trkpt><trkpt lat="45.9782516" lon="14.0331697"><ele>588.0</ele><time>2026-04-25T13:18:56.744Z</time></trkpt><trkpt lat="45.9781703" lon="14.0332574"><ele>589.3333333333334</ele><time>2026-04-25T13:18:57.744Z</time></trkpt><trkpt lat="45.9780954" lon="14.0333314"><ele>590.6666666666666</ele><time>2026-04-25T13:18:58.744Z</time></trkpt><trkpt lat="45.9780201" lon="14.0333965"><ele>592.0</ele><time>2026-04-25T13:18:59.744Z</time></trkpt><trkpt lat="45.977953" lon="14.0334566"><ele>593.3333333333333</ele><time>2026-04-25T13:19:00.743Z</time></trkpt><trkpt lat="45.9778864" lon="14.0334963"><ele>594.6666666666666</ele><time>2026-04-25T13:19:01.744Z</time></trkpt><trkpt lat="45.9778188" lon="14.0335351"><ele>596.0</ele><time>2026-04-25T13:19:02.744Z</time></trkpt><trkpt lat="45.977751" lon="14.033514"><ele>596.0</ele><time>2026-04-25T13:19:03.744Z</time></trkpt><trkpt lat="45.9776843" lon="14.0335127"><ele>596.0</ele><time>2026-04-25T13:19:04.744Z</time></trkpt><trkpt lat="45.9776236" lon="14.0334794"><ele>596.0</ele><time>2026-04-25T13:19:05.744Z</time></trkpt><trkpt lat="45.9775556" lon="14.0333872"><ele>596.0</ele><time>2026-04-25T13:19:06.744Z</time></trkpt><trkpt lat="45.9774975" lon="14.0332867"><ele>596.0</ele><time>2026-04-25T13:19:07.743Z</time></trkpt><trkpt lat="45.9774132" lon="14.0332156"><ele>596.0</ele><time>2026-04-25T13:19:08.744Z</time></trkpt><trkpt lat="45.9773203" lon="14.0332312"><ele>598.8333333333333</ele><time>2026-04-25T13:19:09.744Z</time></trkpt><trkpt lat="45.9772342" lon="14.033198"><ele>601.6666666666666</ele><time>2026-04-25T13:19:10.744Z</time></trkpt><trkpt lat="45.9771557" lon="14.0332373"><ele>604.5</ele><time>2026-04-25T13:19:11.744Z</time></trkpt><trkpt lat="45.9771044" lon="14.0332899"><ele>607.3333333333334</ele><time>2026-04-25T13:19:12.744Z</time></trkpt><trkpt lat="45.9770401" lon="14.0333296"><ele>610.1666666666667</ele><time>2026-04-25T13:19:13.744Z</time></trkpt><trkpt lat="45.9769645" lon="14.0333273"><ele>613.0</ele><time>2026-04-25T13:19:14.744Z</time></trkpt><trkpt lat="45.9768826" lon="14.033297"><ele>613.0</ele><time>2026-04-25T13:19:15.744Z</time></trkpt><trkpt lat="45.9767941" lon="14.0332875"><ele>613.0</ele><time>2026-04-25T13:19:16.744Z</time></trkpt><trkpt lat="45.9766888" lon="14.0333385"><ele>613.0</ele><time>2026-04-25T13:19:17.744Z</time></trkpt><trkpt lat="45.9765995" lon="14.0333538"><ele>613.0</ele><time>2026-04-25T13:19:18.744Z</time></trkpt><trkpt lat="45.9765081" lon="14.0333395"><ele>613.0</ele><time>2026-04-25T13:19:19.743Z</time></trkpt><trkpt lat="45.9764163" lon="14.033345"><ele>614.8</ele><time>2026-04-25T13:19:20.744Z</time></trkpt><trkpt lat="45.9763286" lon="14.0333513"><ele>616.5999999999999</ele><time>2026-04-25T13:19:21.744Z</time></trkpt><trkpt lat="45.9762394" lon="14.0333968"><ele>618.4000000000001</ele><time>2026-04-25T13:19:22.744Z</time></trkpt><trkpt lat="45.9761587" lon="14.033471"><ele>620.2</ele><time>2026-04-25T13:19:23.744Z</time></trkpt><trkpt lat="45.9760696" lon="14.0335616"><ele>622.0</ele><time>2026-04-25T13:19:24.744Z</time></trkpt><trkpt lat="45.9759729" lon="14.0336685"><ele>622.0</ele><time>2026-04-25T13:19:25.744Z</time></trkpt><trkpt lat="45.9758713" lon="14.0338346"><ele>622.0</ele><time>2026-04-25T13:19:26.744Z</time></trkpt><trkpt lat="45.9757793" lon="14.0339678"><ele>622.0</ele><time>2026-04-25T13:19:27.744Z</time></trkpt><trkpt lat="45.9756971" lon="14.0341103"><ele>622.0</ele><time>2026-04-25T13:19:28.743Z</time></trkpt><trkpt lat="45.97562" lon="14.0342715"><ele>623.2</ele><time>2026-04-25T13:19:29.744Z</time></trkpt><trkpt lat="45.9755694" lon="14.0344106"><ele>624.4000000000001</ele><time>2026-04-25T13:19:30.744Z</time></trkpt><trkpt lat="45.9755001" lon="14.0345392"><ele>625.5999999999999</ele><time>2026-04-25T13:19:31.743Z</time></trkpt><trkpt lat="45.9754449" lon="14.0346662"><ele>626.8</ele><time>2026-04-25T13:19:32.744Z</time></trkpt><trkpt lat="45.9754551" lon="14.0347813"><ele>628.0</ele><time>2026-04-25T13:19:33.744Z</time></trkpt><trkpt lat="45.9754513" lon="14.0348881"><ele>626.8333333333334</ele><time>2026-04-25T13:19:34.744Z</time></trkpt><trkpt lat="45.9754615" lon="14.0349825"><ele>625.6666666666667</ele><time>2026-04-25T13:19:35.744Z</time></trkpt><trkpt lat="45.9754577" lon="14.0350757"><ele>624.5</ele><time>2026-04-25T13:19:36.744Z</time></trkpt><trkpt lat="45.9754074" lon="14.0352045"><ele>623.3333333333334</ele><time>2026-04-25T13:19:38.744Z</time></trkpt><trkpt lat="45.9753037" lon="14.0352365"><ele>622.1666666666666</ele><time>2026-04-25T13:19:40.744Z</time></trkpt><trkpt lat="45.9752323" lon="14.035241"><ele>621.0</ele><time>2026-04-25T13:19:41.744Z</time></trkpt><trkpt lat="45.9751395" lon="14.0352653"><ele>621.0</ele><time>2026-04-25T13:19:42.744Z</time></trkpt><trkpt lat="45.9750428" lon="14.0353127"><ele>621.0</ele><time>2026-04-25T13:19:43.744Z</time></trkpt><trkpt lat="45.9749386" lon="14.0353754"><ele>621.0</ele><time>2026-04-25T13:19:44.744Z</time></trkpt><trkpt lat="45.9748125" lon="14.0354543"><ele>621.0</ele><time>2026-04-25T13:19:45.743Z</time></trkpt><trkpt lat="45.9746742" lon="14.0355412"><ele>622.5</ele><time>2026-04-25T13:19:46.744Z</time></trkpt><trkpt lat="45.9745546" lon="14.0356258"><ele>624.0</ele><time>2026-04-25T13:19:47.744Z</time></trkpt><trkpt lat="45.9744372" lon="14.0357189"><ele>625.5</ele><time>2026-04-25T13:19:48.743Z</time></trkpt><trkpt lat="45.9743288" lon="14.0358171"><ele>627.0</ele><time>2026-04-25T13:19:49.743Z</time></trkpt><trkpt lat="45.974225" lon="14.0359041"><ele>631.2</ele><time>2026-04-25T13:19:50.744Z</time></trkpt><trkpt lat="45.9741359" lon="14.0359835"><ele>635.4000000000001</ele><time>2026-04-25T13:19:51.744Z</time></trkpt><trkpt lat="45.9740463" lon="14.0360595"><ele>639.5999999999999</ele><time>2026-04-25T13:19:52.744Z</time></trkpt><trkpt lat="45.9739488" lon="14.0361167"><ele>643.8</ele><time>2026-04-25T13:19:53.743Z</time></trkpt><trkpt lat="45.9738558" lon="14.0361661"><ele>648.0</ele><time>2026-04-25T13:19:54.744Z</time></trkpt><trkpt lat="45.9737753" lon="14.0362197"><ele>648.0</ele><time>2026-04-25T13:19:55.744Z</time></trkpt><trkpt lat="45.9737169" lon="14.0362982"><ele>648.0</ele><time>2026-04-25T13:19:56.744Z</time></trkpt><trkpt lat="45.9736691" lon="14.0363836"><ele>648.0</ele><time>2026-04-25T13:19:57.744Z</time></trkpt><trkpt lat="45.9736276" lon="14.0364902"><ele>648.0</ele><time>2026-04-25T13:19:58.744Z</time></trkpt><trkpt lat="45.973601" lon="14.0366294"><ele>648.0</ele><time>2026-04-25T13:19:59.744Z</time></trkpt><trkpt lat="45.9735939" lon="14.0367493"><ele>648.0</ele><time>2026-04-25T13:20:00.744Z</time></trkpt><trkpt lat="45.9735619" lon="14.0368776"><ele>648.5</ele><time>2026-04-25T13:20:01.743Z</time></trkpt><trkpt lat="45.9735235" lon="14.0370065"><ele>649.0</ele><time>2026-04-25T13:20:02.744Z</time></trkpt><trkpt lat="45.9734859" lon="14.0371256"><ele>649.5</ele><time>2026-04-25T13:20:03.744Z</time></trkpt><trkpt lat="45.9734475" lon="14.0372222"><ele>650.0</ele><time>2026-04-25T13:20:04.744Z</time></trkpt><trkpt lat="45.9734052" lon="14.0373033"><ele>650.5</ele><time>2026-04-25T13:20:05.744Z</time></trkpt><trkpt lat="45.9733147" lon="14.0373996"><ele>651.0</ele><time>2026-04-25T13:20:07.744Z</time></trkpt><trkpt lat="45.9732271" lon="14.0373814"><ele>651.0</ele><time>2026-04-25T13:20:09.744Z</time></trkpt><trkpt lat="45.9731771" lon="14.0373181"><ele>651.0</ele><time>2026-04-25T13:20:10.744Z</time></trkpt><trkpt lat="45.9731143" lon="14.0372374"><ele>651.0</ele><time>2026-04-25T13:20:11.744Z</time></trkpt><trkpt lat="45.9730415" lon="14.0371533"><ele>651.0</ele><time>2026-04-25T13:20:12.744Z</time></trkpt><trkpt lat="45.9729499" lon="14.0370838"><ele>651.0</ele><time>2026-04-25T13:20:13.744Z</time></trkpt><trkpt lat="45.9728542" lon="14.0370172"><ele>651.0</ele><time>2026-04-25T13:20:14.744Z</time></trkpt><trkpt lat="45.9727432" lon="14.0369765"><ele>651.0</ele><time>2026-04-25T13:20:15.744Z</time></trkpt><trkpt lat="45.9726319" lon="14.0369591"><ele>651.0</ele><time>2026-04-25T13:20:16.744Z</time></trkpt><trkpt lat="45.9725318" lon="14.0369636"><ele>651.0</ele><time>2026-04-25T13:20:17.744Z</time></trkpt><trkpt lat="45.9724407" lon="14.0369842"><ele>651.0</ele><time>2026-04-25T13:20:18.744Z</time></trkpt><trkpt lat="45.9723521" lon="14.037042"><ele>651.5999999999999</ele><time>2026-04-25T13:20:19.744Z</time></trkpt><trkpt lat="45.9722775" lon="14.0371213"><ele>652.2</ele><time>2026-04-25T13:20:20.744Z</time></trkpt><trkpt lat="45.9722178" lon="14.0372291"><ele>652.8</ele><time>2026-04-25T13:20:21.744Z</time></trkpt><trkpt lat="45.9721613" lon="14.0373511"><ele>653.4000000000001</ele><time>2026-04-25T13:20:22.743Z</time></trkpt><trkpt lat="45.9721079" lon="14.0374597"><ele>654.0</ele><time>2026-04-25T13:20:23.744Z</time></trkpt><trkpt lat="45.9720576" lon="14.0375667"><ele>654.0</ele><time>2026-04-25T13:20:24.744Z</time></trkpt><trkpt lat="45.9720062" lon="14.0376541"><ele>654.0</ele><time>2026-04-25T13:20:25.744Z</time></trkpt><trkpt lat="45.9719524" lon="14.0377189"><ele>654.0</ele><time>2026-04-25T13:20:26.743Z</time></trkpt><trkpt lat="45.9718601" lon="14.0377876"><ele>654.0</ele><time>2026-04-25T13:20:28.743Z</time></trkpt><trkpt lat="45.9717741" lon="14.0378043"><ele>654.0</ele><time>2026-04-25T13:20:31.744Z</time></trkpt><trkpt lat="45.9716996" lon="14.0377764"><ele>654.0</ele><time>2026-04-25T13:20:35.744Z</time></trkpt><trkpt lat="45.9716066" lon="14.0377221"><ele>655.8333333333334</ele><time>2026-04-25T13:20:37.744Z</time></trkpt><trkpt lat="45.9714749" lon="14.0376518"><ele>657.6666666666666</ele><time>2026-04-25T13:20:39.744Z</time></trkpt><trkpt lat="45.9714014" lon="14.0376033"><ele>659.5</ele><time>2026-04-25T13:20:40.743Z</time></trkpt><trkpt lat="45.9713288" lon="14.037571"><ele>661.3333333333333</ele><time>2026-04-25T13:20:41.743Z</time></trkpt><trkpt lat="45.9712564" lon="14.0375608"><ele>663.1666666666666</ele><time>2026-04-25T13:20:42.743Z</time></trkpt><trkpt lat="45.9711833" lon="14.0375748"><ele>665.0</ele><time>2026-04-25T13:20:43.743Z</time></trkpt><trkpt lat="45.971122" lon="14.0376122"><ele>665.0</ele><time>2026-04-25T13:20:44.742Z</time></trkpt><trkpt lat="45.9710651" lon="14.0376568"><ele>665.0</ele><time>2026-04-25T13:20:45.743Z</time></trkpt><trkpt lat="45.9709647" lon="14.0377354"><ele>665.0</ele><time>2026-04-25T13:20:47.743Z</time></trkpt><trkpt lat="45.9708725" lon="14.0377534"><ele>665.0</ele><time>2026-04-25T13:20:49.743Z</time></trkpt><trkpt lat="45.9707871" lon="14.0377109"><ele>665.0</ele><time>2026-04-25T13:20:51.743Z</time></trkpt><trkpt lat="45.9707328" lon="14.0376613"><ele>665.0</ele><time>2026-04-25T13:20:52.743Z</time></trkpt><trkpt lat="45.9706257" lon="14.0375734"><ele>665.0</ele><time>2026-04-25T13:20:54.743Z</time></trkpt><trkpt lat="45.9705382" lon="14.0374914"><ele>665.0</ele><time>2026-04-25T13:20:56.743Z</time></trkpt><trkpt lat="45.9706101" lon="14.0375585"><ele>665.0</ele><time>2026-04-25T13:21:03.743Z</time></trkpt><trkpt lat="45.9706764" lon="14.0376123"><ele>665.0</ele><time>2026-04-25T13:21:04.743Z</time></trkpt><trkpt lat="45.9707423" lon="14.0376665"><ele>665.0</ele><time>2026-04-25T13:21:05.743Z</time></trkpt><trkpt lat="45.9708053" lon="14.037722"><ele>665.0</ele><time>2026-04-25T13:21:06.743Z</time></trkpt><trkpt lat="45.9708671" lon="14.0377533"><ele>665.0</ele><time>2026-04-25T13:21:07.743Z</time></trkpt><trkpt lat="45.9709863" lon="14.0377025"><ele>665.0</ele><time>2026-04-25T13:21:09.743Z</time></trkpt><trkpt lat="45.9710477" lon="14.0376501"><ele>665.0</ele><time>2026-04-25T13:21:10.743Z</time></trkpt><trkpt lat="45.9711118" lon="14.0376037"><ele>665.0</ele><time>2026-04-25T13:21:11.743Z</time></trkpt><trkpt lat="45.9711807" lon="14.0375709"><ele>665.0</ele><time>2026-04-25T13:21:12.743Z</time></trkpt><trkpt lat="45.9712547" lon="14.0375769"><ele>665.0</ele><time>2026-04-25T13:21:13.743Z</time></trkpt><trkpt lat="45.9713167" lon="14.037597"><ele>665.0</ele><time>2026-04-25T13:21:14.743Z</time></trkpt><trkpt lat="45.9713811" lon="14.0376308"><ele>665.0</ele><time>2026-04-25T13:21:15.743Z</time></trkpt><trkpt lat="45.9714462" lon="14.0376683"><ele>665.0</ele><time>2026-04-25T13:21:16.743Z</time></trkpt><trkpt lat="45.9715105" lon="14.0377057"><ele>665.0</ele><time>2026-04-25T13:21:17.742Z</time></trkpt><trkpt lat="45.9715719" lon="14.03774"><ele>665.0</ele><time>2026-04-25T13:21:18.743Z</time></trkpt><trkpt lat="45.9716324" lon="14.0377703"><ele>665.0</ele><time>2026-04-25T13:21:19.743Z</time></trkpt><trkpt lat="45.9717293" lon="14.0378197"><ele>665.0</ele><time>2026-04-25T13:21:21.743Z</time></trkpt><trkpt lat="45.9717961" lon="14.0378697"><ele>665.0</ele><time>2026-04-25T13:21:23.743Z</time></trkpt><trkpt lat="45.9717632" lon="14.0379554"><ele>665.0</ele><time>2026-04-25T13:21:27.743Z</time></trkpt><trkpt lat="45.9716745" lon="14.0379005"><ele>665.0</ele><time>2026-04-25T13:21:29.743Z</time></trkpt><trkpt lat="45.9716101" lon="14.037874"><ele>665.0</ele><time>2026-04-25T13:21:30.743Z</time></trkpt><trkpt lat="45.9715478" lon="14.037856"><ele>665.0</ele><time>2026-04-25T13:21:31.743Z</time></trkpt><trkpt lat="45.9714252" lon="14.0378373"><ele>665.0</ele><time>2026-04-25T13:21:33.743Z</time></trkpt><trkpt lat="45.9713157" lon="14.0378813"><ele>665.0</ele><time>2026-04-25T13:21:35.743Z</time></trkpt><trkpt lat="45.9712187" lon="14.0379584"><ele>665.0</ele><time>2026-04-25T13:21:37.743Z</time></trkpt><trkpt lat="45.9711536" lon="14.0380864"><ele>665.0</ele><time>2026-04-25T13:21:39.743Z</time></trkpt><trkpt lat="45.9711147" lon="14.0381591"><ele>665.0</ele><time>2026-04-25T13:21:40.743Z</time></trkpt><trkpt lat="45.9710939" lon="14.0382574"><ele>665.0</ele><time>2026-04-25T13:21:41.743Z</time></trkpt><trkpt lat="45.9710823" lon="14.0383507"><ele>665.0</ele><time>2026-04-25T13:21:42.742Z</time></trkpt><trkpt lat="45.9710404" lon="14.0384343"><ele>663.5</ele><time>2026-04-25T13:21:43.743Z</time></trkpt><trkpt lat="45.9709178" lon="14.0385521"><ele>662.0</ele><time>2026-04-25T13:21:45.743Z</time></trkpt><trkpt lat="45.9708584" lon="14.0386322"><ele>660.5</ele><time>2026-04-25T13:21:46.743Z</time></trkpt><trkpt lat="45.9707933" lon="14.0386599"><ele>659.0</ele><time>2026-04-25T13:21:47.743Z</time></trkpt><trkpt lat="45.970723" lon="14.0386858"><ele>657.5</ele><time>2026-04-25T13:21:48.743Z</time></trkpt><trkpt lat="45.9706592" lon="14.0387156"><ele>656.0</ele><time>2026-04-25T13:21:49.743Z</time></trkpt><trkpt lat="45.9705748" lon="14.0387353"><ele>655.8</ele><time>2026-04-25T13:21:50.743Z</time></trkpt><trkpt lat="45.9704874" lon="14.0387669"><ele>655.5999999999999</ele><time>2026-04-25T13:21:51.742Z</time></trkpt><trkpt lat="45.9703786" lon="14.0388093"><ele>655.4</ele><time>2026-04-25T13:21:52.743Z</time></trkpt><trkpt lat="45.9702847" lon="14.0388591"><ele>655.2</ele><time>2026-04-25T13:21:53.743Z</time></trkpt><trkpt lat="45.9701964" lon="14.0389151"><ele>655.0</ele><time>2026-04-25T13:21:54.743Z</time></trkpt><trkpt lat="45.970119" lon="14.0389681"><ele>655.0</ele><time>2026-04-25T13:21:55.743Z</time></trkpt><trkpt lat="45.9700536" lon="14.0390316"><ele>655.0</ele><time>2026-04-25T13:21:56.743Z</time></trkpt><trkpt lat="45.9700113" lon="14.0391172"><ele>655.0</ele><time>2026-04-25T13:21:57.743Z</time></trkpt><trkpt lat="45.9699735" lon="14.0392104"><ele>655.0</ele><time>2026-04-25T13:21:58.743Z</time></trkpt><trkpt lat="45.9699407" lon="14.039318"><ele>655.0</ele><time>2026-04-25T13:21:59.743Z</time></trkpt><trkpt lat="45.9699096" lon="14.0394227"><ele>655.0</ele><time>2026-04-25T13:22:00.743Z</time></trkpt><trkpt lat="45.9698636" lon="14.0395152"><ele>655.0</ele><time>2026-04-25T13:22:01.743Z</time></trkpt><trkpt lat="45.9697984" lon="14.039603"><ele>655.0</ele><time>2026-04-25T13:22:02.742Z</time></trkpt><trkpt lat="45.9697502" lon="14.0396929"><ele>655.0</ele><time>2026-04-25T13:22:03.743Z</time></trkpt><trkpt lat="45.9697191" lon="14.0397917"><ele>655.0</ele><time>2026-04-25T13:22:04.743Z</time></trkpt><trkpt lat="45.9696982" lon="14.0398824"><ele>655.0</ele><time>2026-04-25T13:22:05.743Z</time></trkpt><trkpt lat="45.9696994" lon="14.0399783"><ele>655.0</ele><time>2026-04-25T13:22:06.744Z</time></trkpt><trkpt lat="45.9697215" lon="14.0400706"><ele>655.0</ele><time>2026-04-25T13:22:07.743Z</time></trkpt><trkpt lat="45.9697611" lon="14.0401515"><ele>655.0</ele><time>2026-04-25T13:22:08.742Z</time></trkpt><trkpt lat="45.9698176" lon="14.040221"><ele>655.0</ele><time>2026-04-25T13:22:09.743Z</time></trkpt><trkpt lat="45.9698904" lon="14.040273"><ele>655.0</ele><time>2026-04-25T13:22:10.743Z</time></trkpt><trkpt lat="45.9699545" lon="14.0403115"><ele>655.0</ele><time>2026-04-25T13:22:11.743Z</time></trkpt><trkpt lat="45.9700109" lon="14.0403554"><ele>655.0</ele><time>2026-04-25T13:22:12.742Z</time></trkpt><trkpt lat="45.9700664" lon="14.0404124"><ele>655.0</ele><time>2026-04-25T13:22:13.743Z</time></trkpt><trkpt lat="45.9701078" lon="14.0404852"><ele>655.0</ele><time>2026-04-25T13:22:14.742Z</time></trkpt><trkpt lat="45.9701267" lon="14.0406864"><ele>654.2857142857143</ele><time>2026-04-25T13:22:16.743Z</time></trkpt><trkpt lat="45.9701551" lon="14.0407898"><ele>653.5714285714286</ele><time>2026-04-25T13:22:17.743Z</time></trkpt><trkpt lat="45.9701919" lon="14.0408815"><ele>652.8571428571429</ele><time>2026-04-25T13:22:18.743Z</time></trkpt><trkpt lat="45.970251" lon="14.0409513"><ele>652.1428571428571</ele><time>2026-04-25T13:22:19.743Z</time></trkpt><trkpt lat="45.970314" lon="14.0410107"><ele>651.4285714285714</ele><time>2026-04-25T13:22:20.743Z</time></trkpt><trkpt lat="45.9703688" lon="14.0410737"><ele>650.7142857142857</ele><time>2026-04-25T13:22:21.743Z</time></trkpt><trkpt lat="45.9704123" lon="14.0411527"><ele>650.0</ele><time>2026-04-25T13:22:22.743Z</time></trkpt><trkpt lat="45.9704563" lon="14.0412386"><ele>650.0</ele><time>2026-04-25T13:22:23.743Z</time></trkpt><trkpt lat="45.9705042" lon="14.0413413"><ele>650.0</ele><time>2026-04-25T13:22:24.743Z</time></trkpt><trkpt lat="45.9705665" lon="14.0414328"><ele>650.0</ele><time>2026-04-25T13:22:25.742Z</time></trkpt><trkpt lat="45.9706356" lon="14.0415178"><ele>650.0</ele><time>2026-04-25T13:22:26.743Z</time></trkpt><trkpt lat="45.9707145" lon="14.0415851"><ele>650.0</ele><time>2026-04-25T13:22:27.743Z</time></trkpt><trkpt lat="45.9707772" lon="14.0416459"><ele>650.0</ele><time>2026-04-25T13:22:28.743Z</time></trkpt><trkpt lat="45.9708343" lon="14.0417172"><ele>649.7142857142857</ele><time>2026-04-25T13:22:29.743Z</time></trkpt><trkpt lat="45.9708711" lon="14.0417999"><ele>649.4285714285714</ele><time>2026-04-25T13:22:30.743Z</time></trkpt><trkpt lat="45.9709133" lon="14.04188"><ele>649.1428571428571</ele><time>2026-04-25T13:22:31.742Z</time></trkpt><trkpt lat="45.9709399" lon="14.0419752"><ele>648.8571428571429</ele><time>2026-04-25T13:22:32.743Z</time></trkpt><trkpt lat="45.9709984" lon="14.0420618"><ele>648.5714285714286</ele><time>2026-04-25T13:22:33.742Z</time></trkpt><trkpt lat="45.9710575" lon="14.042115"><ele>648.2857142857143</ele><time>2026-04-25T13:22:34.743Z</time></trkpt><trkpt lat="45.971142" lon="14.0421378"><ele>648.0</ele><time>2026-04-25T13:22:35.742Z</time></trkpt><trkpt lat="45.9712229" lon="14.0421391"><ele>648.0</ele><time>2026-04-25T13:22:36.743Z</time></trkpt><trkpt lat="45.9712883" lon="14.0421261"><ele>648.0</ele><time>2026-04-25T13:22:37.742Z</time></trkpt><trkpt lat="45.9713993" lon="14.0422065"><ele>648.0</ele><time>2026-04-25T13:22:39.743Z</time></trkpt><trkpt lat="45.9714606" lon="14.0422722"><ele>648.0</ele><time>2026-04-25T13:22:40.743Z</time></trkpt><trkpt lat="45.9714916" lon="14.0424062"><ele>648.0</ele><time>2026-04-25T13:22:41.743Z</time></trkpt><trkpt lat="45.9715515" lon="14.0425125"><ele>646.5</ele><time>2026-04-25T13:22:42.743Z</time></trkpt><trkpt lat="45.9716202" lon="14.0425877"><ele>645.0</ele><time>2026-04-25T13:22:43.743Z</time></trkpt><trkpt lat="45.9716928" lon="14.042633"><ele>643.5</ele><time>2026-04-25T13:22:44.742Z</time></trkpt><trkpt lat="45.9717619" lon="14.0426982"><ele>642.0</ele><time>2026-04-25T13:22:45.743Z</time></trkpt><trkpt lat="45.9718299" lon="14.0427603"><ele>640.5</ele><time>2026-04-25T13:22:46.743Z</time></trkpt><trkpt lat="45.9718303" lon="14.0429249"><ele>639.0</ele><time>2026-04-25T13:22:48.743Z</time></trkpt><trkpt lat="45.97183" lon="14.0430264"><ele>639.0</ele><time>2026-04-25T13:22:49.743Z</time></trkpt><trkpt lat="45.9718021" lon="14.0431439"><ele>639.0</ele><time>2026-04-25T13:22:50.743Z</time></trkpt><trkpt lat="45.9717824" lon="14.0432727"><ele>639.0</ele><time>2026-04-25T13:22:51.743Z</time></trkpt><trkpt lat="45.971766" lon="14.0433834"><ele>639.0</ele><time>2026-04-25T13:22:52.743Z</time></trkpt><trkpt lat="45.9717542" lon="14.0434726"><ele>639.0</ele><time>2026-04-25T13:22:53.742Z</time></trkpt><trkpt lat="45.971729" lon="14.0435626"><ele>639.0</ele><time>2026-04-25T13:22:54.743Z</time></trkpt><trkpt lat="45.9716502" lon="14.0436604"><ele>643.6</ele><time>2026-04-25T13:22:56.743Z</time></trkpt><trkpt lat="45.9715433" lon="14.0437082"><ele>648.2</ele><time>2026-04-25T13:22:57.743Z</time></trkpt><trkpt lat="45.9714561" lon="14.0437704"><ele>652.8000000000001</ele><time>2026-04-25T13:22:58.743Z</time></trkpt><trkpt lat="45.9713694" lon="14.0438007"><ele>657.4</ele><time>2026-04-25T13:22:59.742Z</time></trkpt><trkpt lat="45.9712885" lon="14.0438346"><ele>662.0</ele><time>2026-04-25T13:23:00.743Z</time></trkpt><trkpt lat="45.9712175" lon="14.0438541"><ele>662.0</ele><time>2026-04-25T13:23:01.743Z</time></trkpt><trkpt lat="45.9711397" lon="14.0438829"><ele>662.0</ele><time>2026-04-25T13:23:02.743Z</time></trkpt><trkpt lat="45.9710712" lon="14.0439176"><ele>662.0</ele><time>2026-04-25T13:23:03.743Z</time></trkpt><trkpt lat="45.9709994" lon="14.0439378"><ele>662.0</ele><time>2026-04-25T13:23:04.743Z</time></trkpt><trkpt lat="45.9709135" lon="14.043942"><ele>662.0</ele><time>2026-04-25T13:23:05.743Z</time></trkpt><trkpt lat="45.9708377" lon="14.0439482"><ele>662.0</ele><time>2026-04-25T13:23:06.743Z</time></trkpt><trkpt lat="45.9707545" lon="14.0439559"><ele>662.0</ele><time>2026-04-25T13:23:07.743Z</time></trkpt><trkpt lat="45.970671" lon="14.0439723"><ele>662.0</ele><time>2026-04-25T13:23:08.743Z</time></trkpt><trkpt lat="45.9705915" lon="14.0439915"><ele>662.0</ele><time>2026-04-25T13:23:09.743Z</time></trkpt><trkpt lat="45.9705238" lon="14.0440386"><ele>662.0</ele><time>2026-04-25T13:23:10.743Z</time></trkpt><trkpt lat="45.9704521" lon="14.0441057"><ele>662.0</ele><time>2026-04-25T13:23:11.743Z</time></trkpt><trkpt lat="45.9703857" lon="14.0441788"><ele>662.0</ele><time>2026-04-25T13:23:12.743Z</time></trkpt><trkpt lat="45.9703205" lon="14.0442675"><ele>662.0</ele><time>2026-04-25T13:23:13.743Z</time></trkpt><trkpt lat="45.9702575" lon="14.0443594"><ele>662.0</ele><time>2026-04-25T13:23:14.743Z</time></trkpt><trkpt lat="45.9702105" lon="14.0444719"><ele>662.0</ele><time>2026-04-25T13:23:15.743Z</time></trkpt><trkpt lat="45.9701878" lon="14.0446023"><ele>662.0</ele><time>2026-04-25T13:23:16.743Z</time></trkpt><trkpt lat="45.9701547" lon="14.0447501"><ele>662.0</ele><time>2026-04-25T13:23:17.743Z</time></trkpt><trkpt lat="45.9701865" lon="14.0449466"><ele>660.2</ele><time>2026-04-25T13:23:18.743Z</time></trkpt><trkpt lat="45.970191" lon="14.0450785"><ele>658.4000000000001</ele><time>2026-04-25T13:23:19.743Z</time></trkpt><trkpt lat="45.9702047" lon="14.0452046"><ele>656.5999999999999</ele><time>2026-04-25T13:23:20.743Z</time></trkpt><trkpt lat="45.9702054" lon="14.0453082"><ele>654.8</ele><time>2026-04-25T13:23:21.743Z</time></trkpt><trkpt lat="45.9701963" lon="14.0454744"><ele>653.0</ele><time>2026-04-25T13:23:23.743Z</time></trkpt><trkpt lat="45.9701072" lon="14.0455559"><ele>656.5</ele><time>2026-04-25T13:23:25.743Z</time></trkpt><trkpt lat="45.9699467" lon="14.0455446"><ele>660.0</ele><time>2026-04-25T13:23:27.743Z</time></trkpt><trkpt lat="45.9698552" lon="14.0455273"><ele>663.5</ele><time>2026-04-25T13:23:28.743Z</time></trkpt><trkpt lat="45.9697519" lon="14.0455166"><ele>667.0</ele><time>2026-04-25T13:23:29.743Z</time></trkpt><trkpt lat="45.9696557" lon="14.0455076"><ele>667.0</ele><time>2026-04-25T13:23:30.743Z</time></trkpt><trkpt lat="45.9695689" lon="14.0455164"><ele>667.0</ele><time>2026-04-25T13:23:31.743Z</time></trkpt><trkpt lat="45.9694874" lon="14.0455498"><ele>667.0</ele><time>2026-04-25T13:23:32.743Z</time></trkpt><trkpt lat="45.9694181" lon="14.0456126"><ele>667.0</ele><time>2026-04-25T13:23:33.743Z</time></trkpt><trkpt lat="45.9693559" lon="14.0456972"><ele>667.0</ele><time>2026-04-25T13:23:34.743Z</time></trkpt><trkpt lat="45.9693025" lon="14.0457864"><ele>667.0</ele><time>2026-04-25T13:23:35.743Z</time></trkpt><trkpt lat="45.9692441" lon="14.0458681"><ele>666.6666666666667</ele><time>2026-04-25T13:23:36.743Z</time></trkpt><trkpt lat="45.9691804" lon="14.045943"><ele>666.3333333333334</ele><time>2026-04-25T13:23:37.743Z</time></trkpt><trkpt lat="45.9691135" lon="14.0460131"><ele>666.0</ele><time>2026-04-25T13:23:38.743Z</time></trkpt><trkpt lat="45.9690386" lon="14.0460627"><ele>665.6666666666666</ele><time>2026-04-25T13:23:39.743Z</time></trkpt><trkpt lat="45.9689658" lon="14.0461153"><ele>665.3333333333333</ele><time>2026-04-25T13:23:40.742Z</time></trkpt><trkpt lat="45.9688958" lon="14.0461693"><ele>665.0</ele><time>2026-04-25T13:23:41.743Z</time></trkpt><trkpt lat="45.9688396" lon="14.0462422"><ele>665.0</ele><time>2026-04-25T13:23:42.743Z</time></trkpt><trkpt lat="45.9687922" lon="14.0463328"><ele>665.0</ele><time>2026-04-25T13:23:43.743Z</time></trkpt><trkpt lat="45.9687618" lon="14.0464311"><ele>665.0</ele><time>2026-04-25T13:23:44.743Z</time></trkpt><trkpt lat="45.9687406" lon="14.0465449"><ele>665.0</ele><time>2026-04-25T13:23:45.743Z</time></trkpt><trkpt lat="45.9687272" lon="14.0466573"><ele>665.0</ele><time>2026-04-25T13:23:46.743Z</time></trkpt><trkpt lat="45.9687109" lon="14.0467811"><ele>665.0</ele><time>2026-04-25T13:23:47.743Z</time></trkpt><trkpt lat="45.9687145" lon="14.0469028"><ele>663.5</ele><time>2026-04-25T13:23:48.743Z</time></trkpt><trkpt lat="45.968715" lon="14.047024"><ele>662.0</ele><time>2026-04-25T13:23:49.743Z</time></trkpt><trkpt lat="45.9687113" lon="14.0471432"><ele>660.5</ele><time>2026-04-25T13:23:50.744Z</time></trkpt><trkpt lat="45.9687132" lon="14.0472566"><ele>659.0</ele><time>2026-04-25T13:23:51.743Z</time></trkpt><trkpt lat="45.9687039" lon="14.0473735"><ele>657.5</ele><time>2026-04-25T13:23:52.742Z</time></trkpt><trkpt lat="45.9686995" lon="14.0474834"><ele>656.0</ele><time>2026-04-25T13:23:53.743Z</time></trkpt><trkpt lat="45.9686705" lon="14.0476049"><ele>654.0</ele><time>2026-04-25T13:23:54.743Z</time></trkpt><trkpt lat="45.9686448" lon="14.0477121"><ele>652.0</ele><time>2026-04-25T13:23:55.744Z</time></trkpt><trkpt lat="45.9686109" lon="14.047831"><ele>650.0</ele><time>2026-04-25T13:23:56.743Z</time></trkpt><trkpt lat="45.968567" lon="14.0479084"><ele>648.0</ele><time>2026-04-25T13:23:57.743Z</time></trkpt><trkpt lat="45.9685156" lon="14.0479928"><ele>646.0</ele><time>2026-04-25T13:23:58.743Z</time></trkpt><trkpt lat="45.9684412" lon="14.0480714"><ele>644.0</ele><time>2026-04-25T13:23:59.742Z</time></trkpt><trkpt lat="45.9683684" lon="14.0481155"><ele>648.2</ele><time>2026-04-25T13:24:00.743Z</time></trkpt><trkpt lat="45.9682863" lon="14.0481246"><ele>652.4000000000001</ele><time>2026-04-25T13:24:01.743Z</time></trkpt><trkpt lat="45.9681735" lon="14.0481371"><ele>656.6</ele><time>2026-04-25T13:24:03.743Z</time></trkpt><trkpt lat="45.9680599" lon="14.0480547"><ele>660.8</ele><time>2026-04-25T13:24:05.743Z</time></trkpt><trkpt lat="45.968003" lon="14.0479589"><ele>665.0</ele><time>2026-04-25T13:24:06.743Z</time></trkpt><trkpt lat="45.9679483" lon="14.0478592"><ele>665.0</ele><time>2026-04-25T13:24:07.742Z</time></trkpt><trkpt lat="45.9678889" lon="14.0477816"><ele>665.0</ele><time>2026-04-25T13:24:08.743Z</time></trkpt><trkpt lat="45.9678157" lon="14.0477749"><ele>665.0</ele><time>2026-04-25T13:24:09.743Z</time></trkpt><trkpt lat="45.9677312" lon="14.0477809"><ele>665.0</ele><time>2026-04-25T13:24:10.743Z</time></trkpt><trkpt lat="45.9676193" lon="14.0478216"><ele>665.0</ele><time>2026-04-25T13:24:11.742Z</time></trkpt><trkpt lat="45.9675188" lon="14.0478591"><ele>666.6</ele><time>2026-04-25T13:24:12.743Z</time></trkpt><trkpt lat="45.9674067" lon="14.0479195"><ele>668.2</ele><time>2026-04-25T13:24:13.743Z</time></trkpt><trkpt lat="45.9672871" lon="14.0479648"><ele>669.8</ele><time>2026-04-25T13:24:14.742Z</time></trkpt><trkpt lat="45.967183" lon="14.0480028"><ele>671.4</ele><time>2026-04-25T13:24:15.743Z</time></trkpt><trkpt lat="45.9670929" lon="14.0480495"><ele>673.0</ele><time>2026-04-25T13:24:16.744Z</time></trkpt><trkpt lat="45.966986" lon="14.0481076"><ele>673.0</ele><time>2026-04-25T13:24:17.743Z</time></trkpt><trkpt lat="45.9668889" lon="14.048181"><ele>673.0</ele><time>2026-04-25T13:24:18.743Z</time></trkpt><trkpt lat="45.9668058" lon="14.0482524"><ele>673.0</ele><time>2026-04-25T13:24:19.743Z</time></trkpt><trkpt lat="45.9667203" lon="14.0483259"><ele>673.0</ele><time>2026-04-25T13:24:20.743Z</time></trkpt><trkpt lat="45.9666281" lon="14.0484026"><ele>673.0</ele><time>2026-04-25T13:24:21.742Z</time></trkpt><trkpt lat="45.9665399" lon="14.0484754"><ele>672.1666666666667</ele><time>2026-04-25T13:24:22.743Z</time></trkpt><trkpt lat="45.9664583" lon="14.0485432"><ele>671.3333333333334</ele><time>2026-04-25T13:24:23.743Z</time></trkpt><trkpt lat="45.9663812" lon="14.048606"><ele>670.5</ele><time>2026-04-25T13:24:24.741Z</time></trkpt><trkpt lat="45.9663102" lon="14.0486619"><ele>669.6666666666666</ele><time>2026-04-25T13:24:25.742Z</time></trkpt><trkpt lat="45.9662381" lon="14.0487081"><ele>668.8333333333333</ele><time>2026-04-25T13:24:26.742Z</time></trkpt><trkpt lat="45.9661702" lon="14.0487455"><ele>668.0</ele><time>2026-04-25T13:24:27.742Z</time></trkpt><trkpt lat="45.9660345" lon="14.0487523"><ele>668.0</ele><time>2026-04-25T13:24:29.742Z</time></trkpt><trkpt lat="45.9659584" lon="14.0487301"><ele>668.0</ele><time>2026-04-25T13:24:30.742Z</time></trkpt><trkpt lat="45.9658903" lon="14.0487001"><ele>668.0</ele><time>2026-04-25T13:24:31.741Z</time></trkpt><trkpt lat="45.9658227" lon="14.0486564"><ele>668.0</ele><time>2026-04-25T13:24:32.742Z</time></trkpt><trkpt lat="45.9657618" lon="14.0485894"><ele>668.0</ele><time>2026-04-25T13:24:33.742Z</time></trkpt><trkpt lat="45.9657024" lon="14.0485207"><ele>668.0</ele><time>2026-04-25T13:24:34.741Z</time></trkpt><trkpt lat="45.9656477" lon="14.0484386"><ele>668.1666666666666</ele><time>2026-04-25T13:24:35.742Z</time></trkpt><trkpt lat="45.9656018" lon="14.0483572"><ele>668.3333333333333</ele><time>2026-04-25T13:24:36.742Z</time></trkpt><trkpt lat="45.9655593" lon="14.0482762"><ele>668.5</ele><time>2026-04-25T13:24:37.741Z</time></trkpt><trkpt lat="45.9655231" lon="14.0481911"><ele>668.6666666666666</ele><time>2026-04-25T13:24:38.742Z</time></trkpt><trkpt lat="45.9654939" lon="14.0480881"><ele>668.8333333333334</ele><time>2026-04-25T13:24:39.742Z</time></trkpt><trkpt lat="45.9654697" lon="14.0479676"><ele>669.0</ele><time>2026-04-25T13:24:40.742Z</time></trkpt><trkpt lat="45.9654494" lon="14.0478487"><ele>670.5</ele><time>2026-04-25T13:24:41.742Z</time></trkpt><trkpt lat="45.9654257" lon="14.0477312"><ele>672.0</ele><time>2026-04-25T13:24:42.742Z</time></trkpt><trkpt lat="45.9653934" lon="14.047623"><ele>673.5</ele><time>2026-04-25T13:24:43.742Z</time></trkpt><trkpt lat="45.9653476" lon="14.0475211"><ele>675.0</ele><time>2026-04-25T13:24:44.742Z</time></trkpt><trkpt lat="45.9652997" lon="14.0474251"><ele>676.5</ele><time>2026-04-25T13:24:45.742Z</time></trkpt><trkpt lat="45.9652229" lon="14.0473852"><ele>678.0</ele><time>2026-04-25T13:24:46.742Z</time></trkpt><trkpt lat="45.9651555" lon="14.0473427"><ele>679.3333333333334</ele><time>2026-04-25T13:24:47.742Z</time></trkpt><trkpt lat="45.9650905" lon="14.0473234"><ele>680.6666666666666</ele><time>2026-04-25T13:24:48.742Z</time></trkpt><trkpt lat="45.9650196" lon="14.0473373"><ele>682.0</ele><time>2026-04-25T13:24:49.742Z</time></trkpt><trkpt lat="45.964956" lon="14.0473718"><ele>683.3333333333333</ele><time>2026-04-25T13:24:50.742Z</time></trkpt><trkpt lat="45.9649023" lon="14.0474385"><ele>684.6666666666666</ele><time>2026-04-25T13:24:51.742Z</time></trkpt><trkpt lat="45.9648586" lon="14.0475321"><ele>686.0</ele><time>2026-04-25T13:24:52.741Z</time></trkpt><trkpt lat="45.9648332" lon="14.0476646"><ele>681.4</ele><time>2026-04-25T13:24:53.742Z</time></trkpt><trkpt lat="45.9648205" lon="14.0477996"><ele>676.8</ele><time>2026-04-25T13:24:54.742Z</time></trkpt><trkpt lat="45.9648145" lon="14.0479377"><ele>672.1999999999999</ele><time>2026-04-25T13:24:55.742Z</time></trkpt><trkpt lat="45.9648138" lon="14.048077"><ele>667.5999999999999</ele><time>2026-04-25T13:24:56.741Z</time></trkpt><trkpt lat="45.964803" lon="14.0482242"><ele>663.0</ele><time>2026-04-25T13:24:57.742Z</time></trkpt><trkpt lat="45.9647875" lon="14.0483736"><ele>662.5999999999999</ele><time>2026-04-25T13:24:58.742Z</time></trkpt><trkpt lat="45.9647579" lon="14.0485177"><ele>662.1999999999999</ele><time>2026-04-25T13:24:59.742Z</time></trkpt><trkpt lat="45.9647421" lon="14.0486704"><ele>661.8</ele><time>2026-04-25T13:25:00.742Z</time></trkpt><trkpt lat="45.9647223" lon="14.0488005"><ele>661.4</ele><time>2026-04-25T13:25:01.742Z</time></trkpt><trkpt lat="45.9646833" lon="14.048914"><ele>661.0</ele><time>2026-04-25T13:25:02.742Z</time></trkpt><trkpt lat="45.9646482" lon="14.0490411"><ele>659.8571428571429</ele><time>2026-04-25T13:25:03.742Z</time></trkpt><trkpt lat="45.9646157" lon="14.0491522"><ele>658.7142857142858</ele><time>2026-04-25T13:25:04.742Z</time></trkpt><trkpt lat="45.9646043" lon="14.0492499"><ele>657.5714285714287</ele><time>2026-04-25T13:25:05.742Z</time></trkpt><trkpt lat="45.964573" lon="14.0493489"><ele>656.4285714285714</ele><time>2026-04-25T13:25:06.742Z</time></trkpt><trkpt lat="45.9645295" lon="14.0494244"><ele>655.2857142857143</ele><time>2026-04-25T13:25:07.741Z</time></trkpt><trkpt lat="45.9644741" lon="14.0495051"><ele>654.1428571428572</ele><time>2026-04-25T13:25:08.741Z</time></trkpt><trkpt lat="45.9644299" lon="14.0495853"><ele>653.0</ele><time>2026-04-25T13:25:09.742Z</time></trkpt><trkpt lat="45.9643538" lon="14.0496599"><ele>653.0</ele><time>2026-04-25T13:25:10.742Z</time></trkpt><trkpt lat="45.9642626" lon="14.0497329"><ele>653.0</ele><time>2026-04-25T13:25:11.742Z</time></trkpt><trkpt lat="45.964196" lon="14.0497972"><ele>653.0</ele><time>2026-04-25T13:25:12.741Z</time></trkpt><trkpt lat="45.9641269" lon="14.0498724"><ele>653.0</ele><time>2026-04-25T13:25:13.742Z</time></trkpt><trkpt lat="45.9640725" lon="14.049978"><ele>653.0</ele><time>2026-04-25T13:25:14.742Z</time></trkpt><trkpt lat="45.9640155" lon="14.0500942"><ele>653.75</ele><time>2026-04-25T13:25:15.742Z</time></trkpt><trkpt lat="45.9639881" lon="14.0502389"><ele>654.5</ele><time>2026-04-25T13:25:16.742Z</time></trkpt><trkpt lat="45.9640187" lon="14.0504276"><ele>655.25</ele><time>2026-04-25T13:25:17.742Z</time></trkpt><trkpt lat="45.9640047" lon="14.0505929"><ele>656.0</ele><time>2026-04-25T13:25:18.743Z</time></trkpt><trkpt lat="45.9639956" lon="14.0507565"><ele>655.5999999999999</ele><time>2026-04-25T13:25:19.741Z</time></trkpt><trkpt lat="45.963978" lon="14.0509029"><ele>655.2</ele><time>2026-04-25T13:25:20.742Z</time></trkpt><trkpt lat="45.9639526" lon="14.0510468"><ele>654.8</ele><time>2026-04-25T13:25:21.742Z</time></trkpt><trkpt lat="45.9639299" lon="14.0511805"><ele>654.4000000000001</ele><time>2026-04-25T13:25:22.742Z</time></trkpt><trkpt lat="45.9638937" lon="14.0513117"><ele>654.0</ele><time>2026-04-25T13:25:23.741Z</time></trkpt><trkpt lat="45.9638565" lon="14.0514329"><ele>654.0</ele><time>2026-04-25T13:25:24.742Z</time></trkpt><trkpt lat="45.9638167" lon="14.0515474"><ele>654.0</ele><time>2026-04-25T13:25:25.742Z</time></trkpt><trkpt lat="45.9637828" lon="14.0516632"><ele>654.0</ele><time>2026-04-25T13:25:26.742Z</time></trkpt><trkpt lat="45.9637547" lon="14.0517713"><ele>654.0</ele><time>2026-04-25T13:25:27.741Z</time></trkpt><trkpt lat="45.9637227" lon="14.0518726"><ele>654.0</ele><time>2026-04-25T13:25:28.743Z</time></trkpt><trkpt lat="45.9636761" lon="14.0519768"><ele>654.0</ele><time>2026-04-25T13:25:29.742Z</time></trkpt><trkpt lat="45.9636216" lon="14.0520667"><ele>654.5</ele><time>2026-04-25T13:25:30.742Z</time></trkpt><trkpt lat="45.9635549" lon="14.0521601"><ele>655.0</ele><time>2026-04-25T13:25:31.741Z</time></trkpt><trkpt lat="45.9634888" lon="14.0522557"><ele>655.5</ele><time>2026-04-25T13:25:32.742Z</time></trkpt><trkpt lat="45.9634274" lon="14.0523444"><ele>656.0</ele><time>2026-04-25T13:25:33.742Z</time></trkpt><trkpt lat="45.9633677" lon="14.052424"><ele>656.5</ele><time>2026-04-25T13:25:34.742Z</time></trkpt><trkpt lat="45.9633235" lon="14.0525175"><ele>657.0</ele><time>2026-04-25T13:25:35.742Z</time></trkpt><trkpt lat="45.9633059" lon="14.0526203"><ele>657.0</ele><time>2026-04-25T13:25:36.742Z</time></trkpt><trkpt lat="45.9633157" lon="14.0527355"><ele>657.0</ele><time>2026-04-25T13:25:37.742Z</time></trkpt><trkpt lat="45.9633586" lon="14.0528658"><ele>657.0</ele><time>2026-04-25T13:25:38.742Z</time></trkpt><trkpt lat="45.963414" lon="14.0529871"><ele>657.0</ele><time>2026-04-25T13:25:39.742Z</time></trkpt><trkpt lat="45.9634765" lon="14.053089"><ele>657.0</ele><time>2026-04-25T13:25:40.742Z</time></trkpt><trkpt lat="45.9635303" lon="14.0531758"><ele>653.8333333333334</ele><time>2026-04-25T13:25:41.743Z</time></trkpt><trkpt lat="45.9635751" lon="14.0532556"><ele>650.6666666666666</ele><time>2026-04-25T13:25:42.742Z</time></trkpt><trkpt lat="45.9635884" lon="14.0534305"><ele>647.5</ele><time>2026-04-25T13:25:44.742Z</time></trkpt><trkpt lat="45.9635784" lon="14.0535385"><ele>644.3333333333333</ele><time>2026-04-25T13:25:45.742Z</time></trkpt><trkpt lat="45.9635654" lon="14.0536598"><ele>641.1666666666666</ele><time>2026-04-25T13:25:46.742Z</time></trkpt><trkpt lat="45.9635176" lon="14.0537521"><ele>638.0</ele><time>2026-04-25T13:25:47.741Z</time></trkpt><trkpt lat="45.9634786" lon="14.0538523"><ele>637.1428571428572</ele><time>2026-04-25T13:25:48.742Z</time></trkpt><trkpt lat="45.9634378" lon="14.053927"><ele>636.2857142857142</ele><time>2026-04-25T13:25:49.742Z</time></trkpt><trkpt lat="45.9633977" lon="14.0540238"><ele>635.4285714285714</ele><time>2026-04-25T13:25:50.742Z</time></trkpt><trkpt lat="45.9633923" lon="14.0541254"><ele>634.5714285714287</ele><time>2026-04-25T13:25:51.742Z</time></trkpt><trkpt lat="45.9633937" lon="14.0542182"><ele>633.7142857142858</ele><time>2026-04-25T13:25:52.742Z</time></trkpt><trkpt lat="45.9634314" lon="14.0543366"><ele>632.8571428571429</ele><time>2026-04-25T13:25:53.742Z</time></trkpt><trkpt lat="45.9634544" lon="14.0544374"><ele>632.0</ele><time>2026-04-25T13:25:54.741Z</time></trkpt><trkpt lat="45.9634883" lon="14.054533"><ele>629.6</ele><time>2026-04-25T13:25:55.742Z</time></trkpt><trkpt lat="45.9634495" lon="14.054615"><ele>627.2</ele><time>2026-04-25T13:25:56.742Z</time></trkpt><trkpt lat="45.963363" lon="14.0546586"><ele>624.8</ele><time>2026-04-25T13:25:57.742Z</time></trkpt><trkpt lat="45.9632894" lon="14.0547271"><ele>622.4</ele><time>2026-04-25T13:25:58.742Z</time></trkpt><trkpt lat="45.9632114" lon="14.0548134"><ele>620.0</ele><time>2026-04-25T13:25:59.742Z</time></trkpt><trkpt lat="45.9631455" lon="14.0549326"><ele>623.0</ele><time>2026-04-25T13:26:00.741Z</time></trkpt><trkpt lat="45.9630713" lon="14.0550528"><ele>626.0</ele><time>2026-04-25T13:26:01.742Z</time></trkpt><trkpt lat="45.9630169" lon="14.0551865"><ele>629.0</ele><time>2026-04-25T13:26:02.742Z</time></trkpt><trkpt lat="45.9629691" lon="14.0552752"><ele>632.0</ele><time>2026-04-25T13:26:03.742Z</time></trkpt><trkpt lat="45.9628897" lon="14.0553739"><ele>635.0</ele><time>2026-04-25T13:26:04.742Z</time></trkpt><trkpt lat="45.9628232" lon="14.0554778"><ele>635.0</ele><time>2026-04-25T13:26:05.742Z</time></trkpt><trkpt lat="45.9627365" lon="14.055567"><ele>635.0</ele><time>2026-04-25T13:26:06.742Z</time></trkpt><trkpt lat="45.9626511" lon="14.055674"><ele>635.0</ele><time>2026-04-25T13:26:07.742Z</time></trkpt><trkpt lat="45.9625667" lon="14.0557585"><ele>635.0</ele><time>2026-04-25T13:26:08.741Z</time></trkpt><trkpt lat="45.9625015" lon="14.0558572"><ele>635.0</ele><time>2026-04-25T13:26:09.742Z</time></trkpt><trkpt lat="45.9624365" lon="14.0559507"><ele>636.4</ele><time>2026-04-25T13:26:10.742Z</time></trkpt><trkpt lat="45.9623793" lon="14.0560533"><ele>637.8</ele><time>2026-04-25T13:26:11.742Z</time></trkpt><trkpt lat="45.9622975" lon="14.0561498"><ele>639.2</ele><time>2026-04-25T13:26:12.742Z</time></trkpt><trkpt lat="45.9622736" lon="14.0562505"><ele>640.6</ele><time>2026-04-25T13:26:13.742Z</time></trkpt><trkpt lat="45.9621967" lon="14.0562987"><ele>642.0</ele><time>2026-04-25T13:26:14.742Z</time></trkpt><trkpt lat="45.9620834" lon="14.0563703"><ele>642.0</ele><time>2026-04-25T13:26:15.741Z</time></trkpt><trkpt lat="45.9620104" lon="14.0563909"><ele>642.0</ele><time>2026-04-25T13:26:16.742Z</time></trkpt><trkpt lat="45.9619342" lon="14.0564469"><ele>642.0</ele><time>2026-04-25T13:26:17.742Z</time></trkpt><trkpt lat="45.9618505" lon="14.0564914"><ele>642.0</ele><time>2026-04-25T13:26:18.742Z</time></trkpt><trkpt lat="45.9617498" lon="14.0565611"><ele>642.0</ele><time>2026-04-25T13:26:19.742Z</time></trkpt><trkpt lat="45.9616612" lon="14.0566114"><ele>641.1666666666666</ele><time>2026-04-25T13:26:20.742Z</time></trkpt><trkpt lat="45.9615652" lon="14.0566625"><ele>640.3333333333334</ele><time>2026-04-25T13:26:21.742Z</time></trkpt><trkpt lat="45.9614854" lon="14.0567051"><ele>639.5</ele><time>2026-04-25T13:26:22.742Z</time></trkpt><trkpt lat="45.961399" lon="14.0567515"><ele>638.6666666666667</ele><time>2026-04-25T13:26:23.742Z</time></trkpt><trkpt lat="45.9613201" lon="14.0567864"><ele>637.8333333333334</ele><time>2026-04-25T13:26:24.742Z</time></trkpt><trkpt lat="45.9612425" lon="14.056794"><ele>637.0</ele><time>2026-04-25T13:26:25.742Z</time></trkpt><trkpt lat="45.9611609" lon="14.0568161"><ele>637.0</ele><time>2026-04-25T13:26:26.742Z</time></trkpt><trkpt lat="45.9610859" lon="14.0568568"><ele>637.0</ele><time>2026-04-25T13:26:27.742Z</time></trkpt><trkpt lat="45.9609984" lon="14.0569247"><ele>637.0</ele><time>2026-04-25T13:26:28.742Z</time></trkpt><trkpt lat="45.9609299" lon="14.0570355"><ele>637.0</ele><time>2026-04-25T13:26:29.742Z</time></trkpt><trkpt lat="45.960867" lon="14.0571451"><ele>637.0</ele><time>2026-04-25T13:26:30.742Z</time></trkpt><trkpt lat="45.9608343" lon="14.0573022"><ele>636.4</ele><time>2026-04-25T13:26:31.741Z</time></trkpt><trkpt lat="45.9608079" lon="14.0574273"><ele>635.8000000000001</ele><time>2026-04-25T13:26:32.742Z</time></trkpt><trkpt lat="45.9607875" lon="14.0575616"><ele>635.2</ele><time>2026-04-25T13:26:33.742Z</time></trkpt><trkpt lat="45.960771" lon="14.0576848"><ele>634.6</ele><time>2026-04-25T13:26:34.742Z</time></trkpt><trkpt lat="45.9607433" lon="14.057821"><ele>634.0</ele><time>2026-04-25T13:26:35.742Z</time></trkpt><trkpt lat="45.9607122" lon="14.0579464"><ele>634.0</ele><time>2026-04-25T13:26:36.742Z</time></trkpt><trkpt lat="45.9606771" lon="14.0580738"><ele>634.0</ele><time>2026-04-25T13:26:37.742Z</time></trkpt><trkpt lat="45.9606212" lon="14.0582035"><ele>634.0</ele><time>2026-04-25T13:26:38.742Z</time></trkpt><trkpt lat="45.9605564" lon="14.0583225"><ele>634.0</ele><time>2026-04-25T13:26:39.742Z</time></trkpt><trkpt lat="45.9604999" lon="14.0584287"><ele>634.0</ele><time>2026-04-25T13:26:40.742Z</time></trkpt><trkpt lat="45.9604374" lon="14.0585237"><ele>632.2</ele><time>2026-04-25T13:26:41.742Z</time></trkpt><trkpt lat="45.9603653" lon="14.0586188"><ele>630.4</ele><time>2026-04-25T13:26:42.742Z</time></trkpt><trkpt lat="45.9602771" lon="14.0586977"><ele>628.6</ele><time>2026-04-25T13:26:43.742Z</time></trkpt><trkpt lat="45.9601958" lon="14.0587673"><ele>626.8</ele><time>2026-04-25T13:26:44.742Z</time></trkpt><trkpt lat="45.9601173" lon="14.0588334"><ele>625.0</ele><time>2026-04-25T13:26:45.743Z</time></trkpt><trkpt lat="45.9600497" lon="14.0588915"><ele>627.6666666666667</ele><time>2026-04-25T13:26:46.743Z</time></trkpt><trkpt lat="45.9599724" lon="14.0589253"><ele>630.3333333333334</ele><time>2026-04-25T13:26:47.742Z</time></trkpt><trkpt lat="45.9598983" lon="14.0589473"><ele>633.0</ele><time>2026-04-25T13:26:48.741Z</time></trkpt><trkpt lat="45.9598042" lon="14.0589457"><ele>635.6666666666666</ele><time>2026-04-25T13:26:49.742Z</time></trkpt><trkpt lat="45.9597176" lon="14.0589647"><ele>638.3333333333333</ele><time>2026-04-25T13:26:50.742Z</time></trkpt><trkpt lat="45.9596246" lon="14.0589931"><ele>641.0</ele><time>2026-04-25T13:26:51.741Z</time></trkpt><trkpt lat="45.9595319" lon="14.0590222"><ele>641.0</ele><time>2026-04-25T13:26:52.742Z</time></trkpt><trkpt lat="45.9594437" lon="14.0590492"><ele>641.0</ele><time>2026-04-25T13:26:53.742Z</time></trkpt><trkpt lat="45.9593628" lon="14.059088"><ele>641.0</ele><time>2026-04-25T13:26:54.742Z</time></trkpt><trkpt lat="45.9592966" lon="14.0591409"><ele>641.0</ele><time>2026-04-25T13:26:55.742Z</time></trkpt><trkpt lat="45.9592239" lon="14.0591899"><ele>641.0</ele><time>2026-04-25T13:26:56.742Z</time></trkpt><trkpt lat="45.9591756" lon="14.0592821"><ele>641.0</ele><time>2026-04-25T13:26:57.741Z</time></trkpt><trkpt lat="45.9591429" lon="14.0594099"><ele>641.0</ele><time>2026-04-25T13:26:58.742Z</time></trkpt><trkpt lat="45.9590878" lon="14.0596053"><ele>641.0</ele><time>2026-04-25T13:26:59.742Z</time></trkpt><trkpt lat="45.9590096" lon="14.0597649"><ele>641.0</ele><time>2026-04-25T13:27:00.742Z</time></trkpt><trkpt lat="45.9589077" lon="14.0599126"><ele>641.0</ele><time>2026-04-25T13:27:01.741Z</time></trkpt><trkpt lat="45.9588317" lon="14.0600421"><ele>638.8</ele><time>2026-04-25T13:27:02.742Z</time></trkpt><trkpt lat="45.9587682" lon="14.0601693"><ele>636.5999999999999</ele><time>2026-04-25T13:27:03.742Z</time></trkpt><trkpt lat="45.9586891" lon="14.0603006"><ele>634.4</ele><time>2026-04-25T13:27:04.742Z</time></trkpt><trkpt lat="45.9586408" lon="14.0604305"><ele>632.2</ele><time>2026-04-25T13:27:05.742Z</time></trkpt><trkpt lat="45.958613" lon="14.060574"><ele>630.0</ele><time>2026-04-25T13:27:06.742Z</time></trkpt><trkpt lat="45.9585983" lon="14.0607231"><ele>627.6</ele><time>2026-04-25T13:27:07.741Z</time></trkpt><trkpt lat="45.9586397" lon="14.0608736"><ele>625.2</ele><time>2026-04-25T13:27:08.742Z</time></trkpt><trkpt lat="45.9586575" lon="14.0610076"><ele>622.8</ele><time>2026-04-25T13:27:09.742Z</time></trkpt><trkpt lat="45.9586665" lon="14.0611349"><ele>620.4</ele><time>2026-04-25T13:27:10.742Z</time></trkpt><trkpt lat="45.9586708" lon="14.0612679"><ele>618.0</ele><time>2026-04-25T13:27:11.741Z</time></trkpt><trkpt lat="45.9586324" lon="14.0614412"><ele>618.0</ele><time>2026-04-25T13:27:13.742Z</time></trkpt><trkpt lat="45.9584892" lon="14.0616133"><ele>618.0</ele><time>2026-04-25T13:27:14.741Z</time></trkpt><trkpt lat="45.9584314" lon="14.0617545"><ele>618.0</ele><time>2026-04-25T13:27:15.743Z</time></trkpt><trkpt lat="45.9583785" lon="14.061891"><ele>618.0</ele><time>2026-04-25T13:27:16.742Z</time></trkpt><trkpt lat="45.9583313" lon="14.0620309"><ele>621.1999999999999</ele><time>2026-04-25T13:27:17.741Z</time></trkpt><trkpt lat="45.958296" lon="14.0621793"><ele>624.4</ele><time>2026-04-25T13:27:18.742Z</time></trkpt><trkpt lat="45.958257" lon="14.0623285"><ele>627.5999999999999</ele><time>2026-04-25T13:27:19.742Z</time></trkpt><trkpt lat="45.9582234" lon="14.062459"><ele>630.8</ele><time>2026-04-25T13:27:20.742Z</time></trkpt><trkpt lat="45.9581942" lon="14.0625881"><ele>634.0</ele><time>2026-04-25T13:27:21.742Z</time></trkpt><trkpt lat="45.9581835" lon="14.0627092"><ele>634.0</ele><time>2026-04-25T13:27:22.742Z</time></trkpt><trkpt lat="45.9581991" lon="14.0628292"><ele>634.0</ele><time>2026-04-25T13:27:23.742Z</time></trkpt><trkpt lat="45.9582254" lon="14.0629242"><ele>634.0</ele><time>2026-04-25T13:27:24.741Z</time></trkpt><trkpt lat="45.9582908" lon="14.0630059"><ele>634.0</ele><time>2026-04-25T13:27:25.742Z</time></trkpt><trkpt lat="45.9583477" lon="14.0630539"><ele>634.0</ele><time>2026-04-25T13:27:26.742Z</time></trkpt><trkpt lat="45.9584314" lon="14.0630957"><ele>634.0</ele><time>2026-04-25T13:27:27.741Z</time></trkpt><trkpt lat="45.9585064" lon="14.0631361"><ele>630.8</ele><time>2026-04-25T13:27:28.742Z</time></trkpt><trkpt lat="45.9585832" lon="14.0631851"><ele>627.5999999999999</ele><time>2026-04-25T13:27:29.742Z</time></trkpt><trkpt lat="45.9586506" lon="14.0632555"><ele>624.4</ele><time>2026-04-25T13:27:30.742Z</time></trkpt><trkpt lat="45.9587006" lon="14.0634039"><ele>621.1999999999999</ele><time>2026-04-25T13:27:31.742Z</time></trkpt><trkpt lat="45.9587632" lon="14.0635188"><ele>618.0</ele><time>2026-04-25T13:27:32.742Z</time></trkpt><trkpt lat="45.9588194" lon="14.063639"><ele>618.0</ele><time>2026-04-25T13:27:33.742Z</time></trkpt><trkpt lat="45.9588715" lon="14.0637596"><ele>618.0</ele><time>2026-04-25T13:27:34.742Z</time></trkpt><trkpt lat="45.9589272" lon="14.0638728"><ele>618.0</ele><time>2026-04-25T13:27:35.742Z</time></trkpt><trkpt lat="45.9589405" lon="14.0639932"><ele>618.0</ele><time>2026-04-25T13:27:36.742Z</time></trkpt><trkpt lat="45.9589574" lon="14.0641198"><ele>618.0</ele><time>2026-04-25T13:27:37.742Z</time></trkpt><trkpt lat="45.958955" lon="14.0642542"><ele>618.6</ele><time>2026-04-25T13:27:38.742Z</time></trkpt><trkpt lat="45.9589564" lon="14.0643979"><ele>619.1999999999999</ele><time>2026-04-25T13:27:39.742Z</time></trkpt><trkpt lat="45.9589506" lon="14.0645417"><ele>619.8</ele><time>2026-04-25T13:27:40.741Z</time></trkpt><trkpt lat="45.958934" lon="14.0646941"><ele>620.4</ele><time>2026-04-25T13:27:41.742Z</time></trkpt><trkpt lat="45.9589104" lon="14.0648444"><ele>621.0</ele><time>2026-04-25T13:27:42.742Z</time></trkpt><trkpt lat="45.9588783" lon="14.0649874"><ele>621.0</ele><time>2026-04-25T13:27:43.742Z</time></trkpt><trkpt lat="45.9588496" lon="14.0651213"><ele>621.0</ele><time>2026-04-25T13:27:44.742Z</time></trkpt><trkpt lat="45.9588256" lon="14.0652739"><ele>621.0</ele><time>2026-04-25T13:27:45.741Z</time></trkpt><trkpt lat="45.9588151" lon="14.0654258"><ele>621.0</ele><time>2026-04-25T13:27:46.742Z</time></trkpt><trkpt lat="45.9588151" lon="14.06558"><ele>621.0</ele><time>2026-04-25T13:27:47.742Z</time></trkpt><trkpt lat="45.958818" lon="14.0657298"><ele>620.6</ele><time>2026-04-25T13:27:48.741Z</time></trkpt><trkpt lat="45.9588269" lon="14.0658534"><ele>620.2</ele><time>2026-04-25T13:27:49.742Z</time></trkpt><trkpt lat="45.9588182" lon="14.0659756"><ele>619.8</ele><time>2026-04-25T13:27:50.742Z</time></trkpt><trkpt lat="45.9587973" lon="14.0660891"><ele>619.4</ele><time>2026-04-25T13:27:51.742Z</time></trkpt><trkpt lat="45.9587635" lon="14.0662283"><ele>619.0</ele><time>2026-04-25T13:27:52.742Z</time></trkpt><trkpt lat="45.9587385" lon="14.0663586"><ele>619.0</ele><time>2026-04-25T13:27:53.742Z</time></trkpt><trkpt lat="45.9587117" lon="14.066497"><ele>619.0</ele><time>2026-04-25T13:27:54.742Z</time></trkpt><trkpt lat="45.9586886" lon="14.0666063"><ele>619.0</ele><time>2026-04-25T13:27:55.741Z</time></trkpt><trkpt lat="45.9586698" lon="14.0667182"><ele>619.0</ele><time>2026-04-25T13:27:56.742Z</time></trkpt><trkpt lat="45.95865" lon="14.0668165"><ele>619.0</ele><time>2026-04-25T13:27:57.742Z</time></trkpt><trkpt lat="45.9586299" lon="14.0669137"><ele>619.0</ele><time>2026-04-25T13:27:58.742Z</time></trkpt><trkpt lat="45.9586006" lon="14.0670281"><ele>617.6666666666667</ele><time>2026-04-25T13:27:59.742Z</time></trkpt><trkpt lat="45.9585716" lon="14.067148"><ele>616.3333333333334</ele><time>2026-04-25T13:28:00.742Z</time></trkpt><trkpt lat="45.9585239" lon="14.0672674"><ele>615.0</ele><time>2026-04-25T13:28:01.742Z</time></trkpt><trkpt lat="45.9584948" lon="14.0673878"><ele>613.6666666666666</ele><time>2026-04-25T13:28:02.741Z</time></trkpt><trkpt lat="45.9584637" lon="14.0674852"><ele>612.3333333333333</ele><time>2026-04-25T13:28:03.742Z</time></trkpt><trkpt lat="45.9584189" lon="14.0675961"><ele>611.0</ele><time>2026-04-25T13:28:04.742Z</time></trkpt><trkpt lat="45.9583775" lon="14.0677141"><ele>612.6</ele><time>2026-04-25T13:28:05.742Z</time></trkpt><trkpt lat="45.9583163" lon="14.0678414"><ele>614.2</ele><time>2026-04-25T13:28:06.742Z</time></trkpt><trkpt lat="45.9582654" lon="14.0679698"><ele>615.8</ele><time>2026-04-25T13:28:07.742Z</time></trkpt><trkpt lat="45.9582026" lon="14.0681018"><ele>617.4</ele><time>2026-04-25T13:28:08.741Z</time></trkpt><trkpt lat="45.9581392" lon="14.0682431"><ele>619.0</ele><time>2026-04-25T13:28:09.742Z</time></trkpt><trkpt lat="45.9580691" lon="14.0684026"><ele>619.0</ele><time>2026-04-25T13:28:10.742Z</time></trkpt><trkpt lat="45.9579945" lon="14.0685705"><ele>619.0</ele><time>2026-04-25T13:28:11.742Z</time></trkpt><trkpt lat="45.9579284" lon="14.06873"><ele>619.0</ele><time>2026-04-25T13:28:12.742Z</time></trkpt><trkpt lat="45.9578725" lon="14.0688716"><ele>619.0</ele><time>2026-04-25T13:28:13.742Z</time></trkpt><trkpt lat="45.95782" lon="14.0690285"><ele>615.0</ele><time>2026-04-25T13:28:14.741Z</time></trkpt><trkpt lat="45.9577736" lon="14.069178"><ele>611.0</ele><time>2026-04-25T13:28:15.742Z</time></trkpt><trkpt lat="45.9577306" lon="14.0693189"><ele>607.0</ele><time>2026-04-25T13:28:16.742Z</time></trkpt><trkpt lat="45.9576786" lon="14.0694633"><ele>603.0</ele><time>2026-04-25T13:28:17.741Z</time></trkpt><trkpt lat="45.9576376" lon="14.069602"><ele>599.0</ele><time>2026-04-25T13:28:18.742Z</time></trkpt><trkpt lat="45.957593" lon="14.0697376"><ele>599.0</ele><time>2026-04-25T13:28:19.742Z</time></trkpt><trkpt lat="45.9575491" lon="14.0698682"><ele>599.0</ele><time>2026-04-25T13:28:20.741Z</time></trkpt><trkpt lat="45.9574998" lon="14.0700024"><ele>599.0</ele><time>2026-04-25T13:28:21.742Z</time></trkpt><trkpt lat="45.9574412" lon="14.070127"><ele>599.0</ele><time>2026-04-25T13:28:22.741Z</time></trkpt><trkpt lat="45.9573906" lon="14.0702492"><ele>599.0</ele><time>2026-04-25T13:28:23.741Z</time></trkpt><trkpt lat="45.9573295" lon="14.0703821"><ele>602.0</ele><time>2026-04-25T13:28:24.741Z</time></trkpt><trkpt lat="45.9572708" lon="14.0705118"><ele>605.0</ele><time>2026-04-25T13:28:25.741Z</time></trkpt><trkpt lat="45.9572086" lon="14.0706382"><ele>608.0</ele><time>2026-04-25T13:28:26.741Z</time></trkpt><trkpt lat="45.9571452" lon="14.0707516"><ele>611.0</ele><time>2026-04-25T13:28:27.741Z</time></trkpt><trkpt lat="45.9570651" lon="14.0708971"><ele>614.0</ele><time>2026-04-25T13:28:28.74Z</time></trkpt><trkpt lat="45.9569774" lon="14.0710463"><ele>614.0</ele><time>2026-04-25T13:28:29.741Z</time></trkpt><trkpt lat="45.9568932" lon="14.0711984"><ele>614.0</ele><time>2026-04-25T13:28:30.741Z</time></trkpt><trkpt lat="45.9568031" lon="14.0713241"><ele>614.0</ele><time>2026-04-25T13:28:31.741Z</time></trkpt><trkpt lat="45.9567102" lon="14.0714571"><ele>614.0</ele><time>2026-04-25T13:28:32.741Z</time></trkpt><trkpt lat="45.9566132" lon="14.0715994"><ele>617.5</ele><time>2026-04-25T13:28:33.74Z</time></trkpt><trkpt lat="45.9565122" lon="14.0717387"><ele>621.0</ele><time>2026-04-25T13:28:34.741Z</time></trkpt><trkpt lat="45.9564132" lon="14.0718717"><ele>624.5</ele><time>2026-04-25T13:28:35.741Z</time></trkpt><trkpt lat="45.9563194" lon="14.0719966"><ele>628.0</ele><time>2026-04-25T13:28:36.741Z</time></trkpt><trkpt lat="45.9562269" lon="14.0721151"><ele>628.0</ele><time>2026-04-25T13:28:37.741Z</time></trkpt><trkpt lat="45.9561331" lon="14.0722284"><ele>628.0</ele><time>2026-04-25T13:28:38.741Z</time></trkpt><trkpt lat="45.9560451" lon="14.0723413"><ele>628.0</ele><time>2026-04-25T13:28:39.74Z</time></trkpt><trkpt lat="45.9559663" lon="14.0724959"><ele>628.0</ele><time>2026-04-25T13:28:40.741Z</time></trkpt><trkpt lat="45.9558805" lon="14.0726606"><ele>632.6666666666667</ele><time>2026-04-25T13:28:41.741Z</time></trkpt><trkpt lat="45.9557931" lon="14.0728554"><ele>637.3333333333334</ele><time>2026-04-25T13:28:42.741Z</time></trkpt><trkpt lat="45.9557022" lon="14.0730385"><ele>642.0</ele><time>2026-04-25T13:28:43.741Z</time></trkpt><trkpt lat="45.9556169" lon="14.0732168"><ele>635.3333333333334</ele><time>2026-04-25T13:28:44.74Z</time></trkpt><trkpt lat="45.9555288" lon="14.0734009"><ele>628.6666666666667</ele><time>2026-04-25T13:28:45.741Z</time></trkpt><trkpt lat="45.9554392" lon="14.0735873"><ele>622.0</ele><time>2026-04-25T13:28:46.741Z</time></trkpt><trkpt lat="45.9553587" lon="14.0737497"><ele>622.0</ele><time>2026-04-25T13:28:47.74Z</time></trkpt><trkpt lat="45.9552641" lon="14.0739087"><ele>622.0</ele><time>2026-04-25T13:28:48.741Z</time></trkpt><trkpt lat="45.95518" lon="14.0740756"><ele>622.0</ele><time>2026-04-25T13:28:49.741Z</time></trkpt><trkpt lat="45.9551022" lon="14.0742425"><ele>622.0</ele><time>2026-04-25T13:28:50.741Z</time></trkpt><trkpt lat="45.9550509" lon="14.0744118"><ele>621.8000000000001</ele><time>2026-04-25T13:28:51.741Z</time></trkpt><trkpt lat="45.9549972" lon="14.074563"><ele>621.6</ele><time>2026-04-25T13:28:52.74Z</time></trkpt><trkpt lat="45.9549538" lon="14.0746997"><ele>621.4000000000001</ele><time>2026-04-25T13:28:53.741Z</time></trkpt><trkpt lat="45.9549109" lon="14.0748296"><ele>621.2</ele><time>2026-04-25T13:28:54.741Z</time></trkpt><trkpt lat="45.954868" lon="14.0749448"><ele>621.0</ele><time>2026-04-25T13:28:55.741Z</time></trkpt><trkpt lat="45.9548234" lon="14.0750445"><ele>621.0</ele><time>2026-04-25T13:28:56.741Z</time></trkpt><trkpt lat="45.9547717" lon="14.0751262"><ele>621.0</ele><time>2026-04-25T13:28:57.74Z</time></trkpt><trkpt lat="45.9547194" lon="14.0751983"><ele>621.0</ele><time>2026-04-25T13:28:58.741Z</time></trkpt><trkpt lat="45.9546622" lon="14.075268"><ele>621.0</ele><time>2026-04-25T13:28:59.741Z</time></trkpt><trkpt lat="45.9545997" lon="14.0753272"><ele>621.0</ele><time>2026-04-25T13:29:00.741Z</time></trkpt><trkpt lat="45.9545288" lon="14.0753712"><ele>621.0</ele><time>2026-04-25T13:29:01.741Z</time></trkpt><trkpt lat="45.9544487" lon="14.0754277"><ele>621.0</ele><time>2026-04-25T13:29:02.74Z</time></trkpt><trkpt lat="45.9543676" lon="14.0755364"><ele>621.0</ele><time>2026-04-25T13:29:03.741Z</time></trkpt><trkpt lat="45.9543008" lon="14.0757001"><ele>621.0</ele><time>2026-04-25T13:29:04.742Z</time></trkpt><trkpt lat="45.9542223" lon="14.075891"><ele>621.0</ele><time>2026-04-25T13:29:05.741Z</time></trkpt><trkpt lat="45.9541387" lon="14.076102"><ele>622.3333333333334</ele><time>2026-04-25T13:29:06.741Z</time></trkpt><trkpt lat="45.9540499" lon="14.0763266"><ele>623.6666666666667</ele><time>2026-04-25T13:29:07.741Z</time></trkpt><trkpt lat="45.9539507" lon="14.0765604"><ele>625.0</ele><time>2026-04-25T13:29:08.741Z</time></trkpt><trkpt lat="45.9538493" lon="14.0767753"><ele>625.0</ele><time>2026-04-25T13:29:09.741Z</time></trkpt><trkpt lat="45.9537417" lon="14.0770015"><ele>625.0</ele><time>2026-04-25T13:29:10.741Z</time></trkpt><trkpt lat="45.9536289" lon="14.07723"><ele>625.0</ele><time>2026-04-25T13:29:11.741Z</time></trkpt><trkpt lat="45.9535197" lon="14.0774655"><ele>622.6666666666667</ele><time>2026-04-25T13:29:12.741Z</time></trkpt><trkpt lat="45.9534253" lon="14.0776856"><ele>620.3333333333334</ele><time>2026-04-25T13:29:13.741Z</time></trkpt><trkpt lat="45.9533381" lon="14.0778895"><ele>618.0</ele><time>2026-04-25T13:29:14.74Z</time></trkpt><trkpt lat="45.9532595" lon="14.0780717"><ele>622.5</ele><time>2026-04-25T13:29:15.741Z</time></trkpt><trkpt lat="45.9531864" lon="14.0782468"><ele>627.0</ele><time>2026-04-25T13:29:16.741Z</time></trkpt><trkpt lat="45.9531179" lon="14.0784135"><ele>631.5</ele><time>2026-04-25T13:29:17.741Z</time></trkpt><trkpt lat="45.9530404" lon="14.0785918"><ele>636.0</ele><time>2026-04-25T13:29:18.741Z</time></trkpt><trkpt lat="45.9529571" lon="14.0787726"><ele>636.0</ele><time>2026-04-25T13:29:19.742Z</time></trkpt><trkpt lat="45.9528626" lon="14.0789541"><ele>636.0</ele><time>2026-04-25T13:29:20.741Z</time></trkpt><trkpt lat="45.9527672" lon="14.0791068"><ele>636.0</ele><time>2026-04-25T13:29:21.741Z</time></trkpt><trkpt lat="45.9526591" lon="14.0792364"><ele>636.0</ele><time>2026-04-25T13:29:22.741Z</time></trkpt><trkpt lat="45.952527" lon="14.0793319"><ele>638.25</ele><time>2026-04-25T13:29:23.74Z</time></trkpt><trkpt lat="45.952394" lon="14.079419"><ele>640.5</ele><time>2026-04-25T13:29:24.741Z</time></trkpt><trkpt lat="45.9522667" lon="14.0794882"><ele>642.75</ele><time>2026-04-25T13:29:25.741Z</time></trkpt><trkpt lat="45.9521471" lon="14.0795272"><ele>645.0</ele><time>2026-04-25T13:29:26.74Z</time></trkpt><trkpt lat="45.9520327" lon="14.0795307"><ele>645.0</ele><time>2026-04-25T13:29:27.741Z</time></trkpt><trkpt lat="45.951929" lon="14.0795049"><ele>645.0</ele><time>2026-04-25T13:29:28.741Z</time></trkpt><trkpt lat="45.9518199" lon="14.0794599"><ele>645.0</ele><time>2026-04-25T13:29:29.741Z</time></trkpt><trkpt lat="45.9516939" lon="14.0794017"><ele>645.0</ele><time>2026-04-25T13:29:30.741Z</time></trkpt><trkpt lat="45.9515543" lon="14.0793284"><ele>646.3333333333334</ele><time>2026-04-25T13:29:31.741Z</time></trkpt><trkpt lat="45.9514038" lon="14.0792272"><ele>647.6666666666667</ele><time>2026-04-25T13:29:32.741Z</time></trkpt><trkpt lat="45.9512516" lon="14.0791074"><ele>649.0</ele><time>2026-04-25T13:29:33.742Z</time></trkpt><trkpt lat="45.9511042" lon="14.0789685"><ele>651.6666666666667</ele><time>2026-04-25T13:29:34.74Z</time></trkpt><trkpt lat="45.9509704" lon="14.0788326"><ele>654.3333333333334</ele><time>2026-04-25T13:29:35.741Z</time></trkpt><trkpt lat="45.9508531" lon="14.0786919"><ele>657.0</ele><time>2026-04-25T13:29:36.741Z</time></trkpt><trkpt lat="45.9507531" lon="14.0785319"><ele>657.0</ele><time>2026-04-25T13:29:37.741Z</time></trkpt><trkpt lat="45.9506807" lon="14.0783542"><ele>657.0</ele><time>2026-04-25T13:29:38.741Z</time></trkpt><trkpt lat="45.9506192" lon="14.0781661"><ele>657.0</ele><time>2026-04-25T13:29:39.741Z</time></trkpt><trkpt lat="45.9505364" lon="14.0780026"><ele>657.0</ele><time>2026-04-25T13:29:40.741Z</time></trkpt><trkpt lat="45.9504315" lon="14.0778789"><ele>661.0</ele><time>2026-04-25T13:29:41.74Z</time></trkpt><trkpt lat="45.9503023" lon="14.0778013"><ele>665.0</ele><time>2026-04-25T13:29:42.741Z</time></trkpt><trkpt lat="45.9501468" lon="14.0777615"><ele>669.0</ele><time>2026-04-25T13:29:43.741Z</time></trkpt><trkpt lat="45.9499749" lon="14.0777337"><ele>669.3333333333334</ele><time>2026-04-25T13:29:44.741Z</time></trkpt><trkpt lat="45.94979" lon="14.0777056"><ele>669.6666666666667</ele><time>2026-04-25T13:29:45.741Z</time></trkpt><trkpt lat="45.9496042" lon="14.0776806"><ele>670.0</ele><time>2026-04-25T13:29:46.741Z</time></trkpt><trkpt lat="45.949428" lon="14.077644"><ele>670.0</ele><time>2026-04-25T13:29:47.741Z</time></trkpt><trkpt lat="45.9492588" lon="14.0775841"><ele>670.0</ele><time>2026-04-25T13:29:48.74Z</time></trkpt><trkpt lat="45.9490929" lon="14.0775094"><ele>670.0</ele><time>2026-04-25T13:29:49.741Z</time></trkpt><trkpt lat="45.9489229" lon="14.0774583"><ele>669.3333333333334</ele><time>2026-04-25T13:29:50.741Z</time></trkpt><trkpt lat="45.9487338" lon="14.0774466"><ele>668.6666666666666</ele><time>2026-04-25T13:29:51.741Z</time></trkpt><trkpt lat="45.9485321" lon="14.0774559"><ele>668.0</ele><time>2026-04-25T13:29:52.741Z</time></trkpt><trkpt lat="45.9483273" lon="14.0774589"><ele>668.0</ele><time>2026-04-25T13:29:53.741Z</time></trkpt><trkpt lat="45.948123" lon="14.0774844"><ele>668.0</ele><time>2026-04-25T13:29:54.742Z</time></trkpt><trkpt lat="45.9479067" lon="14.0775587"><ele>668.0</ele><time>2026-04-25T13:29:55.741Z</time></trkpt><trkpt lat="45.9476877" lon="14.0776572"><ele>672.0</ele><time>2026-04-25T13:29:56.741Z</time></trkpt><trkpt lat="45.9474572" lon="14.0777513"><ele>676.0</ele><time>2026-04-25T13:29:57.741Z</time></trkpt><trkpt lat="45.9472198" lon="14.0778408"><ele>676.0</ele><time>2026-04-25T13:29:58.741Z</time></trkpt><trkpt lat="45.9469757" lon="14.0779374"><ele>676.0</ele><time>2026-04-25T13:29:59.74Z</time></trkpt><trkpt lat="45.9467452" lon="14.0780394"><ele>682.5</ele><time>2026-04-25T13:30:00.742Z</time></trkpt><trkpt lat="45.9465185" lon="14.078138"><ele>689.0</ele><time>2026-04-25T13:30:01.741Z</time></trkpt><trkpt lat="45.9462892" lon="14.0782096"><ele>689.0</ele><time>2026-04-25T13:30:02.741Z</time></trkpt><trkpt lat="45.9460834" lon="14.0782573"><ele>689.0</ele><time>2026-04-25T13:30:03.742Z</time></trkpt><trkpt lat="45.9458976" lon="14.0783063"><ele>689.0</ele><time>2026-04-25T13:30:04.741Z</time></trkpt><trkpt lat="45.9457343" lon="14.0783402"><ele>690.0</ele><time>2026-04-25T13:30:05.741Z</time></trkpt><trkpt lat="45.945574" lon="14.0783389"><ele>691.0</ele><time>2026-04-25T13:30:06.741Z</time></trkpt><trkpt lat="45.9454275" lon="14.0782826"><ele>692.0</ele><time>2026-04-25T13:30:07.741Z</time></trkpt><trkpt lat="45.9452928" lon="14.0781749"><ele>692.0</ele><time>2026-04-25T13:30:08.741Z</time></trkpt><trkpt lat="45.9451465" lon="14.078053"><ele>692.0</ele><time>2026-04-25T13:30:09.741Z</time></trkpt><trkpt lat="45.9449765" lon="14.0779676"><ele>692.0</ele><time>2026-04-25T13:30:10.741Z</time></trkpt><trkpt lat="45.9447971" lon="14.0779151"><ele>691.3333333333333</ele><time>2026-04-25T13:30:11.741Z</time></trkpt><trkpt lat="45.9446208" lon="14.0778692"><ele>690.6666666666666</ele><time>2026-04-25T13:30:12.74Z</time></trkpt><trkpt lat="45.9444621" lon="14.0777908"><ele>690.0</ele><time>2026-04-25T13:30:13.741Z</time></trkpt><trkpt lat="45.9443214" lon="14.0776959"><ele>689.6666666666666</ele><time>2026-04-25T13:30:14.741Z</time></trkpt><trkpt lat="45.9441735" lon="14.0776154"><ele>689.3333333333333</ele><time>2026-04-25T13:30:15.741Z</time></trkpt><trkpt lat="45.9440126" lon="14.0775784"><ele>689.0</ele><time>2026-04-25T13:30:16.741Z</time></trkpt><trkpt lat="45.9438413" lon="14.0775959"><ele>689.0</ele><time>2026-04-25T13:30:17.741Z</time></trkpt><trkpt lat="45.9436662" lon="14.0776523"><ele>689.0</ele><time>2026-04-25T13:30:18.741Z</time></trkpt><trkpt lat="45.9434902" lon="14.0777132"><ele>689.0</ele><time>2026-04-25T13:30:19.741Z</time></trkpt><trkpt lat="45.9433222" lon="14.0777308"><ele>689.3333333333333</ele><time>2026-04-25T13:30:20.741Z</time></trkpt><trkpt lat="45.943153" lon="14.0777156"><ele>689.6666666666666</ele><time>2026-04-25T13:30:21.741Z</time></trkpt><trkpt lat="45.9429814" lon="14.0776748"><ele>690.0</ele><time>2026-04-25T13:30:22.741Z</time></trkpt><trkpt lat="45.9428059" lon="14.0776344"><ele>690.0</ele><time>2026-04-25T13:30:23.74Z</time></trkpt><trkpt lat="45.9426268" lon="14.0776128"><ele>690.0</ele><time>2026-04-25T13:30:24.74Z</time></trkpt><trkpt lat="45.9424505" lon="14.0776052"><ele>690.0</ele><time>2026-04-25T13:30:25.741Z</time></trkpt><trkpt lat="45.9422749" lon="14.0776043"><ele>690.0</ele><time>2026-04-25T13:30:26.741Z</time></trkpt><trkpt lat="45.9420992" lon="14.0776067"><ele>690.0</ele><time>2026-04-25T13:30:27.74Z</time></trkpt><trkpt lat="45.9419271" lon="14.077614"><ele>690.0</ele><time>2026-04-25T13:30:28.741Z</time></trkpt><trkpt lat="45.9417699" lon="14.0776172"><ele>690.5</ele><time>2026-04-25T13:30:29.741Z</time></trkpt><trkpt lat="45.9416229" lon="14.077603"><ele>691.0</ele><time>2026-04-25T13:30:30.741Z</time></trkpt><trkpt lat="45.9414789" lon="14.0775698"><ele>691.5</ele><time>2026-04-25T13:30:31.741Z</time></trkpt><trkpt lat="45.9413367" lon="14.0775261"><ele>692.0</ele><time>2026-04-25T13:30:32.741Z</time></trkpt><trkpt lat="45.941196" lon="14.0774647"><ele>695.0</ele><time>2026-04-25T13:30:33.741Z</time></trkpt><trkpt lat="45.9410564" lon="14.0773815"><ele>698.0</ele><time>2026-04-25T13:30:34.74Z</time></trkpt><trkpt lat="45.9409124" lon="14.0772908"><ele>701.0</ele><time>2026-04-25T13:30:35.741Z</time></trkpt><trkpt lat="45.9407683" lon="14.0771981"><ele>701.0</ele><time>2026-04-25T13:30:36.741Z</time></trkpt><trkpt lat="45.9406262" lon="14.0770955"><ele>701.0</ele><time>2026-04-25T13:30:37.741Z</time></trkpt><trkpt lat="45.9404932" lon="14.076974"><ele>701.0</ele><time>2026-04-25T13:30:38.741Z</time></trkpt><trkpt lat="45.9403758" lon="14.07683"><ele>701.0</ele><time>2026-04-25T13:30:39.741Z</time></trkpt><trkpt lat="45.9402654" lon="14.0766783"><ele>701.0</ele><time>2026-04-25T13:30:40.741Z</time></trkpt><trkpt lat="45.9401471" lon="14.0765383"><ele>701.0</ele><time>2026-04-25T13:30:41.74Z</time></trkpt><trkpt lat="45.9400215" lon="14.0764241"><ele>700.25</ele><time>2026-04-25T13:30:42.741Z</time></trkpt><trkpt lat="45.9398915" lon="14.0763392"><ele>699.5</ele><time>2026-04-25T13:30:43.741Z</time></trkpt><trkpt lat="45.9397651" lon="14.076247"><ele>698.75</ele><time>2026-04-25T13:30:44.741Z</time></trkpt><trkpt lat="45.9396524" lon="14.0761308"><ele>698.0</ele><time>2026-04-25T13:30:45.741Z</time></trkpt><trkpt lat="45.9395512" lon="14.0759811"><ele>698.0</ele><time>2026-04-25T13:30:46.74Z</time></trkpt><trkpt lat="45.9394708" lon="14.0757931"><ele>698.0</ele><time>2026-04-25T13:30:47.741Z</time></trkpt><trkpt lat="45.9394065" lon="14.0755838"><ele>698.0</ele><time>2026-04-25T13:30:48.741Z</time></trkpt><trkpt lat="45.939355" lon="14.0753809"><ele>699.0</ele><time>2026-04-25T13:30:49.74Z</time></trkpt><trkpt lat="45.9393202" lon="14.0752075"><ele>700.0</ele><time>2026-04-25T13:30:50.741Z</time></trkpt><trkpt lat="45.9393085" lon="14.0750404"><ele>701.0</ele><time>2026-04-25T13:30:51.741Z</time></trkpt><trkpt lat="45.9393187" lon="14.0748683"><ele>702.0</ele><time>2026-04-25T13:30:52.741Z</time></trkpt><trkpt lat="45.9393639" lon="14.0747009"><ele>702.0</ele><time>2026-04-25T13:30:53.741Z</time></trkpt><trkpt lat="45.9394321" lon="14.0745299"><ele>702.0</ele><time>2026-04-25T13:30:54.74Z</time></trkpt><trkpt lat="45.9394929" lon="14.0743405"><ele>702.0</ele><time>2026-04-25T13:30:55.741Z</time></trkpt><trkpt lat="45.9395293" lon="14.074136"><ele>702.0</ele><time>2026-04-25T13:30:56.741Z</time></trkpt><trkpt lat="45.9395406" lon="14.0739327"><ele>699.0</ele><time>2026-04-25T13:30:57.741Z</time></trkpt><trkpt lat="45.9395189" lon="14.0737297"><ele>696.0</ele><time>2026-04-25T13:30:58.741Z</time></trkpt><trkpt lat="45.9394576" lon="14.073525"><ele>693.0</ele><time>2026-04-25T13:30:59.741Z</time></trkpt><trkpt lat="45.9393625" lon="14.0733297"><ele>691.3333333333334</ele><time>2026-04-25T13:31:00.74Z</time></trkpt><trkpt lat="45.939238" lon="14.0731313"><ele>689.6666666666667</ele><time>2026-04-25T13:31:01.741Z</time></trkpt><trkpt lat="45.939093" lon="14.0729357"><ele>688.0</ele><time>2026-04-25T13:31:02.741Z</time></trkpt><trkpt lat="45.9389401" lon="14.0727436"><ele>687.3333333333334</ele><time>2026-04-25T13:31:03.741Z</time></trkpt><trkpt lat="45.9387854" lon="14.0725371"><ele>686.6666666666666</ele><time>2026-04-25T13:31:04.741Z</time></trkpt><trkpt lat="45.938639" lon="14.0723233"><ele>686.0</ele><time>2026-04-25T13:31:05.74Z</time></trkpt><trkpt lat="45.9385006" lon="14.0720974"><ele>685.6666666666666</ele><time>2026-04-25T13:31:06.741Z</time></trkpt><trkpt lat="45.9383689" lon="14.0718714"><ele>685.3333333333334</ele><time>2026-04-25T13:31:07.741Z</time></trkpt><trkpt lat="45.9382447" lon="14.0716528"><ele>685.0</ele><time>2026-04-25T13:31:08.741Z</time></trkpt><trkpt lat="45.9381255" lon="14.0714403"><ele>684.3333333333334</ele><time>2026-04-25T13:31:09.741Z</time></trkpt><trkpt lat="45.9380078" lon="14.0712334"><ele>683.6666666666666</ele><time>2026-04-25T13:31:10.74Z</time></trkpt><trkpt lat="45.9378961" lon="14.0710324"><ele>683.0</ele><time>2026-04-25T13:31:11.741Z</time></trkpt><trkpt lat="45.9377861" lon="14.0708362"><ele>683.0</ele><time>2026-04-25T13:31:12.741Z</time></trkpt><trkpt lat="45.9376817" lon="14.0706447"><ele>683.0</ele><time>2026-04-25T13:31:13.741Z</time></trkpt><trkpt lat="45.9375902" lon="14.0704512"><ele>683.0</ele><time>2026-04-25T13:31:14.741Z</time></trkpt><trkpt lat="45.9375127" lon="14.0702455"><ele>681.3333333333333</ele><time>2026-04-25T13:31:15.741Z</time></trkpt><trkpt lat="45.9374428" lon="14.0700319"><ele>679.6666666666666</ele><time>2026-04-25T13:31:16.741Z</time></trkpt><trkpt lat="45.9373818" lon="14.0698102"><ele>678.0</ele><time>2026-04-25T13:31:17.741Z</time></trkpt><trkpt lat="45.9373176" lon="14.0695863"><ele>677.6666666666666</ele><time>2026-04-25T13:31:18.741Z</time></trkpt><trkpt lat="45.9372313" lon="14.0693773"><ele>677.3333333333333</ele><time>2026-04-25T13:31:19.741Z</time></trkpt><trkpt lat="45.9371288" lon="14.0691777"><ele>677.0</ele><time>2026-04-25T13:31:20.741Z</time></trkpt><trkpt lat="45.9370121" lon="14.0690026"><ele>676.6666666666666</ele><time>2026-04-25T13:31:21.741Z</time></trkpt><trkpt lat="45.9368853" lon="14.068855"><ele>676.3333333333334</ele><time>2026-04-25T13:31:22.741Z</time></trkpt><trkpt lat="45.936745" lon="14.0687398"><ele>676.0</ele><time>2026-04-25T13:31:23.741Z</time></trkpt><trkpt lat="45.9365966" lon="14.0686538"><ele>674.6666666666667</ele><time>2026-04-25T13:31:24.741Z</time></trkpt><trkpt lat="45.9364459" lon="14.0686155"><ele>673.3333333333334</ele><time>2026-04-25T13:31:25.741Z</time></trkpt><trkpt lat="45.9362905" lon="14.0686096"><ele>672.0</ele><time>2026-04-25T13:31:26.741Z</time></trkpt><trkpt lat="45.9361337" lon="14.0686031"><ele>672.0</ele><time>2026-04-25T13:31:27.741Z</time></trkpt><trkpt lat="45.9359739" lon="14.068571"><ele>672.0</ele><time>2026-04-25T13:31:28.741Z</time></trkpt><trkpt lat="45.9358205" lon="14.0685071"><ele>672.0</ele><time>2026-04-25T13:31:29.741Z</time></trkpt><trkpt lat="45.9356661" lon="14.0684085"><ele>670.0</ele><time>2026-04-25T13:31:30.74Z</time></trkpt><trkpt lat="45.9355142" lon="14.0682817"><ele>668.0</ele><time>2026-04-25T13:31:31.741Z</time></trkpt><trkpt lat="45.9353613" lon="14.0681418"><ele>666.0</ele><time>2026-04-25T13:31:32.741Z</time></trkpt><trkpt lat="45.9352076" lon="14.0679955"><ele>664.6666666666666</ele><time>2026-04-25T13:31:33.741Z</time></trkpt><trkpt lat="45.9350457" lon="14.067844"><ele>663.3333333333333</ele><time>2026-04-25T13:31:34.741Z</time></trkpt><trkpt lat="45.9348878" lon="14.0676926"><ele>662.0</ele><time>2026-04-25T13:31:35.741Z</time></trkpt><trkpt lat="45.9347284" lon="14.0675354"><ele>663.0</ele><time>2026-04-25T13:31:36.741Z</time></trkpt><trkpt lat="45.934574" lon="14.0673785"><ele>664.0</ele><time>2026-04-25T13:31:37.741Z</time></trkpt><trkpt lat="45.9344246" lon="14.0672326"><ele>665.0</ele><time>2026-04-25T13:31:38.741Z</time></trkpt><trkpt lat="45.9342801" lon="14.0670865"><ele>664.6666666666666</ele><time>2026-04-25T13:31:39.741Z</time></trkpt><trkpt lat="45.9341364" lon="14.0669469"><ele>664.3333333333334</ele><time>2026-04-25T13:31:40.741Z</time></trkpt><trkpt lat="45.9339932" lon="14.0668099"><ele>664.0</ele><time>2026-04-25T13:31:41.741Z</time></trkpt><trkpt lat="45.9338492" lon="14.0666822"><ele>664.0</ele><time>2026-04-25T13:31:42.741Z</time></trkpt><trkpt lat="45.9337042" lon="14.0665563"><ele>664.0</ele><time>2026-04-25T13:31:43.741Z</time></trkpt><trkpt lat="45.9335509" lon="14.0664372"><ele>664.0</ele><time>2026-04-25T13:31:44.741Z</time></trkpt><trkpt lat="45.9333768" lon="14.066321"><ele>663.0</ele><time>2026-04-25T13:31:45.741Z</time></trkpt><trkpt lat="45.9331836" lon="14.066209"><ele>662.0</ele><time>2026-04-25T13:31:46.741Z</time></trkpt><trkpt lat="45.9329808" lon="14.0660796"><ele>661.0</ele><time>2026-04-25T13:31:47.741Z</time></trkpt><trkpt lat="45.932768" lon="14.0659397"><ele>661.0</ele><time>2026-04-25T13:31:48.741Z</time></trkpt><trkpt lat="45.9325458" lon="14.0657916"><ele>661.0</ele><time>2026-04-25T13:31:49.741Z</time></trkpt><trkpt lat="45.9323233" lon="14.0656386"><ele>660.5</ele><time>2026-04-25T13:31:50.741Z</time></trkpt><trkpt lat="45.9321097" lon="14.0655007"><ele>660.0</ele><time>2026-04-25T13:31:51.741Z</time></trkpt><trkpt lat="45.9319057" lon="14.0653689"><ele>660.6666666666666</ele><time>2026-04-25T13:31:52.741Z</time></trkpt><trkpt lat="45.9317054" lon="14.0652289"><ele>661.3333333333333</ele><time>2026-04-25T13:31:53.74Z</time></trkpt><trkpt lat="45.9315215" lon="14.0650739"><ele>662.0</ele><time>2026-04-25T13:31:54.741Z</time></trkpt><trkpt lat="45.931348" lon="14.0648932"><ele>662.0</ele><time>2026-04-25T13:31:55.741Z</time></trkpt><trkpt lat="45.9311797" lon="14.0646946"><ele>662.0</ele><time>2026-04-25T13:31:56.741Z</time></trkpt><trkpt lat="45.9310124" lon="14.0644882"><ele>662.0</ele><time>2026-04-25T13:31:57.741Z</time></trkpt><trkpt lat="45.9308475" lon="14.0642848"><ele>661.3333333333333</ele><time>2026-04-25T13:31:58.741Z</time></trkpt><trkpt lat="45.9306716" lon="14.0641008"><ele>660.6666666666666</ele><time>2026-04-25T13:31:59.74Z</time></trkpt><trkpt lat="45.9304789" lon="14.0639432"><ele>660.0</ele><time>2026-04-25T13:32:00.741Z</time></trkpt><trkpt lat="45.9302774" lon="14.0638039"><ele>660.0</ele><time>2026-04-25T13:32:01.741Z</time></trkpt><trkpt lat="45.9300686" lon="14.0636736"><ele>660.0</ele><time>2026-04-25T13:32:02.74Z</time></trkpt><trkpt lat="45.9298603" lon="14.0635448"><ele>659.0</ele><time>2026-04-25T13:32:03.741Z</time></trkpt><trkpt lat="45.9296502" lon="14.06342"><ele>658.0</ele><time>2026-04-25T13:32:04.741Z</time></trkpt><trkpt lat="45.9294372" lon="14.0633055"><ele>661.0</ele><time>2026-04-25T13:32:05.741Z</time></trkpt><trkpt lat="45.9292241" lon="14.063197"><ele>664.0</ele><time>2026-04-25T13:32:06.741Z</time></trkpt><trkpt lat="45.9290125" lon="14.0630886"><ele>664.0</ele><time>2026-04-25T13:32:07.741Z</time></trkpt><trkpt lat="45.9288043" lon="14.0629735"><ele>664.0</ele><time>2026-04-25T13:32:08.741Z</time></trkpt><trkpt lat="45.928601" lon="14.0628508"><ele>664.0</ele><time>2026-04-25T13:32:09.741Z</time></trkpt><trkpt lat="45.9284005" lon="14.0627229"><ele>664.0</ele><time>2026-04-25T13:32:10.741Z</time></trkpt><trkpt lat="45.928202" lon="14.0625883"><ele>664.0</ele><time>2026-04-25T13:32:11.74Z</time></trkpt><trkpt lat="45.9280066" lon="14.062455"><ele>664.0</ele><time>2026-04-25T13:32:12.741Z</time></trkpt><trkpt lat="45.9278095" lon="14.0623231"><ele>663.0</ele><time>2026-04-25T13:32:13.741Z</time></trkpt><trkpt lat="45.9276147" lon="14.0621928"><ele>662.0</ele><time>2026-04-25T13:32:14.741Z</time></trkpt><trkpt lat="45.9274249" lon="14.0620529"><ele>661.0</ele><time>2026-04-25T13:32:15.741Z</time></trkpt><trkpt lat="45.9272524" lon="14.061884"><ele>663.0</ele><time>2026-04-25T13:32:16.741Z</time></trkpt><trkpt lat="45.9270903" lon="14.0616796"><ele>665.0</ele><time>2026-04-25T13:32:17.741Z</time></trkpt><trkpt lat="45.926937" lon="14.0614498"><ele>667.0</ele><time>2026-04-25T13:32:18.741Z</time></trkpt><trkpt lat="45.9267935" lon="14.061206"><ele>667.5</ele><time>2026-04-25T13:32:19.741Z</time></trkpt><trkpt lat="45.9266473" lon="14.0609561"><ele>668.0</ele><time>2026-04-25T13:32:20.741Z</time></trkpt><trkpt lat="45.9265023" lon="14.0607033"><ele>669.3333333333333</ele><time>2026-04-25T13:32:21.741Z</time></trkpt><trkpt lat="45.9263624" lon="14.0604497"><ele>670.6666666666666</ele><time>2026-04-25T13:32:22.74Z</time></trkpt><trkpt lat="45.9262187" lon="14.0602023"><ele>672.0</ele><time>2026-04-25T13:32:23.741Z</time></trkpt><trkpt lat="45.9260749" lon="14.0599562"><ele>673.0</ele><time>2026-04-25T13:32:24.74Z</time></trkpt><trkpt lat="45.925931" lon="14.0597096"><ele>674.0</ele><time>2026-04-25T13:32:25.74Z</time></trkpt><trkpt lat="45.925786" lon="14.0594688"><ele>675.0</ele><time>2026-04-25T13:32:26.74Z</time></trkpt><trkpt lat="45.9256476" lon="14.0592323"><ele>677.0</ele><time>2026-04-25T13:32:27.74Z</time></trkpt><trkpt lat="45.9255129" lon="14.0589913"><ele>679.0</ele><time>2026-04-25T13:32:28.739Z</time></trkpt><trkpt lat="45.9253788" lon="14.0587452"><ele>681.0</ele><time>2026-04-25T13:32:29.741Z</time></trkpt><trkpt lat="45.9252533" lon="14.0584851"><ele>680.3333333333334</ele><time>2026-04-25T13:32:30.74Z</time></trkpt><trkpt lat="45.9251389" lon="14.0582156"><ele>679.6666666666667</ele><time>2026-04-25T13:32:31.74Z</time></trkpt><trkpt lat="45.9250319" lon="14.0579414"><ele>679.0</ele><time>2026-04-25T13:32:32.74Z</time></trkpt><trkpt lat="45.9249251" lon="14.0576698"><ele>677.3333333333334</ele><time>2026-04-25T13:32:33.739Z</time></trkpt><trkpt lat="45.9248173" lon="14.0574011"><ele>675.6666666666666</ele><time>2026-04-25T13:32:34.741Z</time></trkpt><trkpt lat="45.9247156" lon="14.0571436"><ele>674.0</ele><time>2026-04-25T13:32:35.74Z</time></trkpt><trkpt lat="45.9246287" lon="14.0568915"><ele>674.0</ele><time>2026-04-25T13:32:36.739Z</time></trkpt><trkpt lat="45.924562" lon="14.056635"><ele>674.0</ele><time>2026-04-25T13:32:37.74Z</time></trkpt><trkpt lat="45.9245196" lon="14.0563626"><ele>674.0</ele><time>2026-04-25T13:32:38.74Z</time></trkpt><trkpt lat="45.9245054" lon="14.0560836"><ele>675.3333333333333</ele><time>2026-04-25T13:32:39.739Z</time></trkpt><trkpt lat="45.924521" lon="14.0557966"><ele>676.6666666666666</ele><time>2026-04-25T13:32:40.74Z</time></trkpt><trkpt lat="45.9245635" lon="14.0555095"><ele>678.0</ele><time>2026-04-25T13:32:41.74Z</time></trkpt><trkpt lat="45.9246366" lon="14.0552326"><ele>678.3333333333334</ele><time>2026-04-25T13:32:42.74Z</time></trkpt><trkpt lat="45.9247362" lon="14.0549613"><ele>678.6666666666667</ele><time>2026-04-25T13:32:43.74Z</time></trkpt><trkpt lat="45.9248525" lon="14.0546911"><ele>679.0</ele><time>2026-04-25T13:32:44.74Z</time></trkpt><trkpt lat="45.9249738" lon="14.0544113"><ele>678.5</ele><time>2026-04-25T13:32:45.74Z</time></trkpt><trkpt lat="45.9250917" lon="14.0541223"><ele>678.0</ele><time>2026-04-25T13:32:46.74Z</time></trkpt><trkpt lat="45.9252042" lon="14.0538274"><ele>678.0</ele><time>2026-04-25T13:32:47.74Z</time></trkpt><trkpt lat="45.9253145" lon="14.053528"><ele>678.0</ele><time>2026-04-25T13:32:48.74Z</time></trkpt><trkpt lat="45.9254181" lon="14.0532199"><ele>678.0</ele><time>2026-04-25T13:32:49.74Z</time></trkpt><trkpt lat="45.925518" lon="14.0529129"><ele>678.0</ele><time>2026-04-25T13:32:50.739Z</time></trkpt><trkpt lat="45.9256132" lon="14.0526029"><ele>677.0</ele><time>2026-04-25T13:32:51.74Z</time></trkpt><trkpt lat="45.9257098" lon="14.0522914"><ele>676.0</ele><time>2026-04-25T13:32:52.74Z</time></trkpt><trkpt lat="45.9258065" lon="14.0519837"><ele>677.0</ele><time>2026-04-25T13:32:53.739Z</time></trkpt><trkpt lat="45.9259019" lon="14.0516797"><ele>678.0</ele><time>2026-04-25T13:32:54.74Z</time></trkpt><trkpt lat="45.9259969" lon="14.0513753"><ele>678.0</ele><time>2026-04-25T13:32:55.74Z</time></trkpt><trkpt lat="45.9260864" lon="14.051071"><ele>678.0</ele><time>2026-04-25T13:32:56.74Z</time></trkpt><trkpt lat="45.9261618" lon="14.0507665"><ele>677.6666666666666</ele><time>2026-04-25T13:32:57.74Z</time></trkpt><trkpt lat="45.9262169" lon="14.0504577"><ele>677.3333333333333</ele><time>2026-04-25T13:32:58.74Z</time></trkpt><trkpt lat="45.9262479" lon="14.0501441"><ele>677.0</ele><time>2026-04-25T13:32:59.74Z</time></trkpt><trkpt lat="45.9262522" lon="14.049828"><ele>676.5</ele><time>2026-04-25T13:33:00.74Z</time></trkpt><trkpt lat="45.9262329" lon="14.0495069"><ele>676.0</ele><time>2026-04-25T13:33:01.74Z</time></trkpt><trkpt lat="45.9262053" lon="14.0491733"><ele>676.0</ele><time>2026-04-25T13:33:02.74Z</time></trkpt><trkpt lat="45.9261806" lon="14.0488342"><ele>676.0</ele><time>2026-04-25T13:33:03.74Z</time></trkpt><trkpt lat="45.92616" lon="14.0484946"><ele>677.0</ele><time>2026-04-25T13:33:04.739Z</time></trkpt><trkpt lat="45.9261461" lon="14.0481617"><ele>678.0</ele><time>2026-04-25T13:33:05.74Z</time></trkpt><trkpt lat="45.9261415" lon="14.0478344"><ele>678.0</ele><time>2026-04-25T13:33:06.74Z</time></trkpt><trkpt lat="45.9261441" lon="14.0475146"><ele>678.0</ele><time>2026-04-25T13:33:07.74Z</time></trkpt><trkpt lat="45.9261531" lon="14.0472097"><ele>678.0</ele><time>2026-04-25T13:33:08.74Z</time></trkpt><trkpt lat="45.9261687" lon="14.0469174"><ele>679.0</ele><time>2026-04-25T13:33:09.74Z</time></trkpt><trkpt lat="45.9261879" lon="14.0466374"><ele>680.0</ele><time>2026-04-25T13:33:10.74Z</time></trkpt><trkpt lat="45.9262114" lon="14.0463663"><ele>681.0</ele><time>2026-04-25T13:33:11.74Z</time></trkpt><trkpt lat="45.9262416" lon="14.0461124"><ele>681.6666666666666</ele><time>2026-04-25T13:33:12.74Z</time></trkpt><trkpt lat="45.9262754" lon="14.0458788"><ele>682.3333333333333</ele><time>2026-04-25T13:33:13.74Z</time></trkpt><trkpt lat="45.9263092" lon="14.0456665"><ele>683.0</ele><time>2026-04-25T13:33:14.74Z</time></trkpt><trkpt lat="45.9263366" lon="14.0454662"><ele>683.0</ele><time>2026-04-25T13:33:15.739Z</time></trkpt><trkpt lat="45.9263598" lon="14.0452709"><ele>683.0</ele><time>2026-04-25T13:33:16.74Z</time></trkpt><trkpt lat="45.9263705" lon="14.0450774"><ele>683.0</ele><time>2026-04-25T13:33:17.74Z</time></trkpt><trkpt lat="45.926367" lon="14.0448907"><ele>683.0</ele><time>2026-04-25T13:33:18.739Z</time></trkpt><trkpt lat="45.9263708" lon="14.0447209"><ele>683.2</ele><time>2026-04-25T13:33:19.74Z</time></trkpt><trkpt lat="45.9263897" lon="14.0445625"><ele>683.4</ele><time>2026-04-25T13:33:20.74Z</time></trkpt><trkpt lat="45.9264196" lon="14.0444082"><ele>683.6</ele><time>2026-04-25T13:33:21.74Z</time></trkpt><trkpt lat="45.9264528" lon="14.04426"><ele>683.8000000000001</ele><time>2026-04-25T13:33:22.74Z</time></trkpt><trkpt lat="45.9264633" lon="14.0441052"><ele>684.0</ele><time>2026-04-25T13:33:23.74Z</time></trkpt><trkpt lat="45.9264353" lon="14.0439463"><ele>684.0</ele><time>2026-04-25T13:33:24.74Z</time></trkpt><trkpt lat="45.926373" lon="14.04379"><ele>684.0</ele><time>2026-04-25T13:33:25.74Z</time></trkpt><trkpt lat="45.9262884" lon="14.0436527"><ele>684.0</ele><time>2026-04-25T13:33:26.74Z</time></trkpt><trkpt lat="45.926195" lon="14.0435141"><ele>684.0</ele><time>2026-04-25T13:33:27.739Z</time></trkpt><trkpt lat="45.9261081" lon="14.0433609"><ele>684.0</ele><time>2026-04-25T13:33:28.74Z</time></trkpt><trkpt lat="45.9260223" lon="14.0432065"><ele>684.0</ele><time>2026-04-25T13:33:29.74Z</time></trkpt><trkpt lat="45.9259202" lon="14.043047"><ele>684.0</ele><time>2026-04-25T13:33:30.739Z</time></trkpt><trkpt lat="45.9258" lon="14.0428874"><ele>685.5</ele><time>2026-04-25T13:33:31.74Z</time></trkpt><trkpt lat="45.9256831" lon="14.0427544"><ele>687.0</ele><time>2026-04-25T13:33:32.74Z</time></trkpt><trkpt lat="45.9255727" lon="14.0426459"><ele>688.5</ele><time>2026-04-25T13:33:33.74Z</time></trkpt><trkpt lat="45.9254735" lon="14.0425629"><ele>690.0</ele><time>2026-04-25T13:33:34.74Z</time></trkpt><trkpt lat="45.9253801" lon="14.0425208"><ele>690.0</ele><time>2026-04-25T13:33:35.74Z</time></trkpt><trkpt lat="45.9252854" lon="14.0425396"><ele>690.0</ele><time>2026-04-25T13:33:36.74Z</time></trkpt><trkpt lat="45.9251874" lon="14.0426019"><ele>690.0</ele><time>2026-04-25T13:33:37.74Z</time></trkpt><trkpt lat="45.925081" lon="14.0426734"><ele>690.0</ele><time>2026-04-25T13:33:38.74Z</time></trkpt><trkpt lat="45.9249648" lon="14.0427334"><ele>690.0</ele><time>2026-04-25T13:33:39.74Z</time></trkpt><trkpt lat="45.9248541" lon="14.0428167"><ele>691.0</ele><time>2026-04-25T13:33:40.74Z</time></trkpt><trkpt lat="45.9247584" lon="14.0429356"><ele>692.0</ele><time>2026-04-25T13:33:41.739Z</time></trkpt><trkpt lat="45.9246891" lon="14.0430809"><ele>693.0</ele><time>2026-04-25T13:33:42.74Z</time></trkpt><trkpt lat="45.9246389" lon="14.0432363"><ele>694.0</ele><time>2026-04-25T13:33:43.74Z</time></trkpt><trkpt lat="45.9245844" lon="14.0433884"><ele>694.25</ele><time>2026-04-25T13:33:44.74Z</time></trkpt><trkpt lat="45.9245093" lon="14.0435298"><ele>694.5</ele><time>2026-04-25T13:33:45.74Z</time></trkpt><trkpt lat="45.9244176" lon="14.0436515"><ele>694.75</ele><time>2026-04-25T13:33:46.74Z</time></trkpt><trkpt lat="45.924296" lon="14.0437787"><ele>695.0</ele><time>2026-04-25T13:33:47.74Z</time></trkpt><trkpt lat="45.9241609" lon="14.0439144"><ele>696.3333333333333</ele><time>2026-04-25T13:33:48.74Z</time></trkpt><trkpt lat="45.9240238" lon="14.0440659"><ele>697.6666666666666</ele><time>2026-04-25T13:33:49.739Z</time></trkpt><trkpt lat="45.9239026" lon="14.0441985"><ele>699.0</ele><time>2026-04-25T13:33:50.74Z</time></trkpt><trkpt lat="45.9237849" lon="14.0443169"><ele>699.0</ele><time>2026-04-25T13:33:51.74Z</time></trkpt><trkpt lat="45.9236654" lon="14.0444247"><ele>699.0</ele><time>2026-04-25T13:33:52.74Z</time></trkpt><trkpt lat="45.9235427" lon="14.0445259"><ele>699.0</ele><time>2026-04-25T13:33:53.74Z</time></trkpt><trkpt lat="45.9234239" lon="14.0446113"><ele>699.0</ele><time>2026-04-25T13:33:54.74Z</time></trkpt><trkpt lat="45.923323" lon="14.0447104"><ele>700.75</ele><time>2026-04-25T13:33:55.74Z</time></trkpt><trkpt lat="45.923245" lon="14.0448499"><ele>702.5</ele><time>2026-04-25T13:33:56.74Z</time></trkpt><trkpt lat="45.9231912" lon="14.0450239"><ele>704.25</ele><time>2026-04-25T13:33:57.74Z</time></trkpt><trkpt lat="45.9231582" lon="14.0452254"><ele>706.0</ele><time>2026-04-25T13:33:58.741Z</time></trkpt><trkpt lat="45.9231039" lon="14.0454446"><ele>706.0</ele><time>2026-04-25T13:33:59.74Z</time></trkpt><trkpt lat="45.9230344" lon="14.0456593"><ele>706.0</ele><time>2026-04-25T13:34:00.74Z</time></trkpt><trkpt lat="45.9229636" lon="14.0458632"><ele>706.0</ele><time>2026-04-25T13:34:01.74Z</time></trkpt><trkpt lat="45.9228934" lon="14.04605"><ele>706.0</ele><time>2026-04-25T13:34:02.74Z</time></trkpt><trkpt lat="45.9228176" lon="14.0462252"><ele>706.0</ele><time>2026-04-25T13:34:03.739Z</time></trkpt><trkpt lat="45.9227337" lon="14.0463857"><ele>706.0</ele><time>2026-04-25T13:34:04.74Z</time></trkpt><trkpt lat="45.9226363" lon="14.0465188"><ele>706.0</ele><time>2026-04-25T13:34:05.74Z</time></trkpt><trkpt lat="45.9225312" lon="14.0466366"><ele>710.5</ele><time>2026-04-25T13:34:06.74Z</time></trkpt><trkpt lat="45.9224302" lon="14.0467705"><ele>715.0</ele><time>2026-04-25T13:34:07.74Z</time></trkpt><trkpt lat="45.9223421" lon="14.0469384"><ele>719.5</ele><time>2026-04-25T13:34:08.739Z</time></trkpt><trkpt lat="45.9222844" lon="14.0471039"><ele>724.0</ele><time>2026-04-25T13:34:09.74Z</time></trkpt><trkpt lat="45.922254" lon="14.0472611"><ele>724.0</ele><time>2026-04-25T13:34:10.74Z</time></trkpt><trkpt lat="45.9222429" lon="14.0474005"><ele>724.0</ele><time>2026-04-25T13:34:11.74Z</time></trkpt><trkpt lat="45.9222289" lon="14.0475158"><ele>724.0</ele><time>2026-04-25T13:34:12.74Z</time></trkpt><trkpt lat="45.9222017" lon="14.0476008"><ele>724.0</ele><time>2026-04-25T13:34:13.739Z</time></trkpt><trkpt lat="45.9221095" lon="14.0476197"><ele>724.0</ele><time>2026-04-25T13:34:15.74Z</time></trkpt><trkpt lat="45.9220527" lon="14.0475352"><ele>724.0</ele><time>2026-04-25T13:34:16.74Z</time></trkpt><trkpt lat="45.9219978" lon="14.0474352"><ele>724.0</ele><time>2026-04-25T13:34:17.74Z</time></trkpt><trkpt lat="45.9219922" lon="14.0472799"><ele>724.0</ele><time>2026-04-25T13:34:18.739Z</time></trkpt><trkpt lat="45.9220768" lon="14.0469218"><ele>724.0</ele><time>2026-04-25T13:34:19.74Z</time></trkpt><trkpt lat="45.922115" lon="14.0466642"><ele>724.3333333333334</ele><time>2026-04-25T13:34:20.74Z</time></trkpt><trkpt lat="45.9221422" lon="14.0463942"><ele>724.6666666666666</ele><time>2026-04-25T13:34:21.74Z</time></trkpt><trkpt lat="45.9221519" lon="14.0461411"><ele>725.0</ele><time>2026-04-25T13:34:22.74Z</time></trkpt><trkpt lat="45.9221249" lon="14.045904"><ele>725.25</ele><time>2026-04-25T13:34:23.74Z</time></trkpt><trkpt lat="45.9220857" lon="14.0456917"><ele>725.5</ele><time>2026-04-25T13:34:24.74Z</time></trkpt><trkpt lat="45.9220689" lon="14.045495"><ele>725.75</ele><time>2026-04-25T13:34:25.741Z</time></trkpt><trkpt lat="45.9220728" lon="14.0453139"><ele>726.0</ele><time>2026-04-25T13:34:26.74Z</time></trkpt><trkpt lat="45.9220947" lon="14.0451576"><ele>726.0</ele><time>2026-04-25T13:34:27.74Z</time></trkpt><trkpt lat="45.9220912" lon="14.0450139"><ele>726.0</ele><time>2026-04-25T13:34:28.74Z</time></trkpt><trkpt lat="45.9220471" lon="14.0449066"><ele>726.0</ele><time>2026-04-25T13:34:29.74Z</time></trkpt><trkpt lat="45.921974" lon="14.0448563"><ele>726.0</ele><time>2026-04-25T13:34:30.74Z</time></trkpt><trkpt lat="45.9218971" lon="14.044879"><ele>726.0</ele><time>2026-04-25T13:34:31.74Z</time></trkpt><trkpt lat="45.9218476" lon="14.0449732"><ele>726.0</ele><time>2026-04-25T13:34:32.74Z</time></trkpt><trkpt lat="45.9218338" lon="14.0451125"><ele>726.0</ele><time>2026-04-25T13:34:33.74Z</time></trkpt><trkpt lat="45.9218357" lon="14.0452912"><ele>726.0</ele><time>2026-04-25T13:34:34.74Z</time></trkpt><trkpt lat="45.9218149" lon="14.0454762"><ele>726.0</ele><time>2026-04-25T13:34:35.74Z</time></trkpt><trkpt lat="45.9217988" lon="14.0456462"><ele>726.0</ele><time>2026-04-25T13:34:36.74Z</time></trkpt><trkpt lat="45.9217919" lon="14.0458013"><ele>725.8333333333334</ele><time>2026-04-25T13:34:37.74Z</time></trkpt><trkpt lat="45.9217955" lon="14.0459465"><ele>725.6666666666666</ele><time>2026-04-25T13:34:38.739Z</time></trkpt><trkpt lat="45.9218033" lon="14.0460787"><ele>725.5</ele><time>2026-04-25T13:34:39.739Z</time></trkpt><trkpt lat="45.9218125" lon="14.0461922"><ele>725.3333333333333</ele><time>2026-04-25T13:34:40.74Z</time></trkpt><trkpt lat="45.9217994" lon="14.0462944"><ele>725.1666666666666</ele><time>2026-04-25T13:34:41.74Z</time></trkpt><trkpt lat="45.9217555" lon="14.0463642"><ele>725.0</ele><time>2026-04-25T13:34:42.74Z</time></trkpt><trkpt lat="45.9216554" lon="14.0463261"><ele>730.0</ele><time>2026-04-25T13:34:44.74Z</time></trkpt><trkpt lat="45.9216569" lon="14.0461406"><ele>735.0</ele><time>2026-04-25T13:34:46.74Z</time></trkpt><trkpt lat="45.9216846" lon="14.0460416"><ele>740.0</ele><time>2026-04-25T13:34:47.74Z</time></trkpt><trkpt lat="45.9217123" lon="14.0459246"><ele>745.0</ele><time>2026-04-25T13:34:48.74Z</time></trkpt><trkpt lat="45.9217273" lon="14.0458053"><ele>750.0</ele><time>2026-04-25T13:34:49.74Z</time></trkpt><trkpt lat="45.9217264" lon="14.0456917"><ele>750.0</ele><time>2026-04-25T13:34:50.74Z</time></trkpt><trkpt lat="45.9216943" lon="14.045595"><ele>750.0</ele><time>2026-04-25T13:34:51.74Z</time></trkpt><trkpt lat="45.921636" lon="14.0455421"><ele>750.0</ele><time>2026-04-25T13:34:52.74Z</time></trkpt><trkpt lat="45.9215278" lon="14.0455963"><ele>750.0</ele><time>2026-04-25T13:34:54.739Z</time></trkpt><trkpt lat="45.9215198" lon="14.0457724"><ele>750.0</ele><time>2026-04-25T13:34:56.74Z</time></trkpt><trkpt lat="45.9215431" lon="14.0458702"><ele>750.0</ele><time>2026-04-25T13:34:57.739Z</time></trkpt><trkpt lat="45.9215572" lon="14.0459836"><ele>750.0</ele><time>2026-04-25T13:34:58.74Z</time></trkpt><trkpt lat="45.9215434" lon="14.046106"><ele>750.0</ele><time>2026-04-25T13:34:59.74Z</time></trkpt><trkpt lat="45.9214972" lon="14.0462197"><ele>750.0</ele><time>2026-04-25T13:35:00.74Z</time></trkpt><trkpt lat="45.9214326" lon="14.046321"><ele>750.0</ele><time>2026-04-25T13:35:01.74Z</time></trkpt><trkpt lat="45.9213653" lon="14.0464283"><ele>750.0</ele><time>2026-04-25T13:35:02.74Z</time></trkpt><trkpt lat="45.9213079" lon="14.0465499"><ele>750.0</ele><time>2026-04-25T13:35:03.74Z</time></trkpt><trkpt lat="45.9212611" lon="14.0466824"><ele>750.0</ele><time>2026-04-25T13:35:04.74Z</time></trkpt><trkpt lat="45.9212353" lon="14.0468221"><ele>750.0</ele><time>2026-04-25T13:35:05.74Z</time></trkpt><trkpt lat="45.9212249" lon="14.0469598"><ele>750.0</ele><time>2026-04-25T13:35:06.74Z</time></trkpt><trkpt lat="45.9212283" lon="14.0470849"><ele>749.8333333333334</ele><time>2026-04-25T13:35:07.74Z</time></trkpt><trkpt lat="45.9212335" lon="14.0471939"><ele>749.6666666666666</ele><time>2026-04-25T13:35:08.74Z</time></trkpt><trkpt lat="45.9212351" lon="14.0472949"><ele>749.5</ele><time>2026-04-25T13:35:09.74Z</time></trkpt><trkpt lat="45.9212204" lon="14.0473874"><ele>749.3333333333333</ele><time>2026-04-25T13:35:10.74Z</time></trkpt><trkpt lat="45.9211522" lon="14.0474911"><ele>749.1666666666666</ele><time>2026-04-25T13:35:12.74Z</time></trkpt><trkpt lat="45.9210847" lon="14.0474046"><ele>749.0</ele><time>2026-04-25T13:35:13.74Z</time></trkpt><trkpt lat="45.9210892" lon="14.0471916"><ele>749.0</ele><time>2026-04-25T13:35:15.739Z</time></trkpt><trkpt lat="45.9211164" lon="14.0470078"><ele>749.0</ele><time>2026-04-25T13:35:16.74Z</time></trkpt><trkpt lat="45.92114" lon="14.0467824"><ele>749.0</ele><time>2026-04-25T13:35:17.74Z</time></trkpt><trkpt lat="45.921148" lon="14.0465089"><ele>749.3333333333333</ele><time>2026-04-25T13:35:18.74Z</time></trkpt><trkpt lat="45.9211505" lon="14.0462069"><ele>749.6666666666666</ele><time>2026-04-25T13:35:19.74Z</time></trkpt><trkpt lat="45.9211395" lon="14.0458956"><ele>750.0</ele><time>2026-04-25T13:35:20.74Z</time></trkpt><trkpt lat="45.921124" lon="14.0456038"><ele>751.3333333333334</ele><time>2026-04-25T13:35:21.74Z</time></trkpt><trkpt lat="45.9211225" lon="14.0453265"><ele>752.6666666666667</ele><time>2026-04-25T13:35:22.74Z</time></trkpt><trkpt lat="45.9211437" lon="14.0450403"><ele>754.0</ele><time>2026-04-25T13:35:23.739Z</time></trkpt><trkpt lat="45.9211917" lon="14.0447769"><ele>757.6666666666667</ele><time>2026-04-25T13:35:24.74Z</time></trkpt><trkpt lat="45.9212661" lon="14.0445592"><ele>761.3333333333334</ele><time>2026-04-25T13:35:25.74Z</time></trkpt><trkpt lat="45.9213414" lon="14.0443621"><ele>765.0</ele><time>2026-04-25T13:35:26.739Z</time></trkpt><trkpt lat="45.9214126" lon="14.0441947"><ele>765.8333333333334</ele><time>2026-04-25T13:35:27.74Z</time></trkpt><trkpt lat="45.9214714" lon="14.0440617"><ele>766.6666666666667</ele><time>2026-04-25T13:35:28.74Z</time></trkpt><trkpt lat="45.9214998" lon="14.0439352"><ele>767.5</ele><time>2026-04-25T13:35:29.739Z</time></trkpt><trkpt lat="45.9214768" lon="14.0438303"><ele>768.3333333333334</ele><time>2026-04-25T13:35:30.74Z</time></trkpt><trkpt lat="45.9214191" lon="14.0437757"><ele>769.1666666666667</ele><time>2026-04-25T13:35:31.74Z</time></trkpt><trkpt lat="45.9213471" lon="14.043786"><ele>770.0</ele><time>2026-04-25T13:35:32.739Z</time></trkpt><trkpt lat="45.9212765" lon="14.0438285"><ele>770.0</ele><time>2026-04-25T13:35:33.74Z</time></trkpt><trkpt lat="45.9212012" lon="14.0439148"><ele>770.0</ele><time>2026-04-25T13:35:34.74Z</time></trkpt><trkpt lat="45.921178" lon="14.0442012"><ele>770.0</ele><time>2026-04-25T13:35:35.739Z</time></trkpt><trkpt lat="45.9210867" lon="14.0443895"><ele>768.3333333333334</ele><time>2026-04-25T13:35:36.74Z</time></trkpt><trkpt lat="45.9209759" lon="14.0445956"><ele>766.6666666666667</ele><time>2026-04-25T13:35:37.74Z</time></trkpt><trkpt lat="45.9208611" lon="14.0448419"><ele>765.0</ele><time>2026-04-25T13:35:38.74Z</time></trkpt><trkpt lat="45.9207692" lon="14.0451354"><ele>778.5</ele><time>2026-04-25T13:35:39.74Z</time></trkpt><trkpt lat="45.920683" lon="14.0454431"><ele>792.0</ele><time>2026-04-25T13:35:40.74Z</time></trkpt><trkpt lat="45.9205896" lon="14.0457708"><ele>790.0</ele><time>2026-04-25T13:35:41.74Z</time></trkpt><trkpt lat="45.9205018" lon="14.0460798"><ele>788.0</ele><time>2026-04-25T13:35:42.74Z</time></trkpt><trkpt lat="45.9204206" lon="14.0463651"><ele>786.0</ele><time>2026-04-25T13:35:43.74Z</time></trkpt><trkpt lat="45.9203553" lon="14.0466266"><ele>784.0</ele><time>2026-04-25T13:35:44.74Z</time></trkpt><trkpt lat="45.9202997" lon="14.046865"><ele>782.0</ele><time>2026-04-25T13:35:45.74Z</time></trkpt><trkpt lat="45.920256" lon="14.0470843"><ele>780.0</ele><time>2026-04-25T13:35:46.74Z</time></trkpt><trkpt lat="45.9202327" lon="14.0472775"><ele>780.0</ele><time>2026-04-25T13:35:47.74Z</time></trkpt><trkpt lat="45.9202149" lon="14.047434"><ele>780.0</ele><time>2026-04-25T13:35:48.74Z</time></trkpt><trkpt lat="45.9201897" lon="14.0475882"><ele>780.0</ele><time>2026-04-25T13:35:49.74Z</time></trkpt><trkpt lat="45.9200768" lon="14.0476676"><ele>780.0</ele><time>2026-04-25T13:35:51.74Z</time></trkpt><trkpt lat="45.9199822" lon="14.0476142"><ele>780.0</ele><time>2026-04-25T13:35:53.74Z</time></trkpt><trkpt lat="45.9201109" lon="14.0473122"><ele>780.0</ele><time>2026-04-25T13:35:55.74Z</time></trkpt><trkpt lat="45.9201643" lon="14.0471006"><ele>780.0</ele><time>2026-04-25T13:35:56.74Z</time></trkpt><trkpt lat="45.9201839" lon="14.0468623"><ele>780.0</ele><time>2026-04-25T13:35:57.74Z</time></trkpt><trkpt lat="45.920182" lon="14.0465875"><ele>782.0</ele><time>2026-04-25T13:35:58.739Z</time></trkpt><trkpt lat="45.9201749" lon="14.0463008"><ele>784.0</ele><time>2026-04-25T13:35:59.74Z</time></trkpt><trkpt lat="45.920169" lon="14.0460254"><ele>786.0</ele><time>2026-04-25T13:36:00.74Z</time></trkpt><trkpt lat="45.9201657" lon="14.04575"><ele>788.0</ele><time>2026-04-25T13:36:01.74Z</time></trkpt><trkpt lat="45.9201907" lon="14.0454796"><ele>790.0</ele><time>2026-04-25T13:36:02.74Z</time></trkpt><trkpt lat="45.9203357" lon="14.0452045"><ele>792.0</ele><time>2026-04-25T13:36:03.74Z</time></trkpt><trkpt lat="45.9204261" lon="14.0449134"><ele>796.0</ele><time>2026-04-25T13:36:04.74Z</time></trkpt><trkpt lat="45.9205182" lon="14.0446276"><ele>800.0</ele><time>2026-04-25T13:36:05.74Z</time></trkpt><trkpt lat="45.9206041" lon="14.0443669"><ele>804.0</ele><time>2026-04-25T13:36:06.74Z</time></trkpt><trkpt lat="45.9206685" lon="14.0441248"><ele>805.6666666666667</ele><time>2026-04-25T13:36:07.739Z</time></trkpt><trkpt lat="45.9207032" lon="14.0438892"><ele>807.3333333333334</ele><time>2026-04-25T13:36:08.739Z</time></trkpt><trkpt lat="45.9207028" lon="14.04367"><ele>809.0</ele><time>2026-04-25T13:36:09.739Z</time></trkpt><trkpt lat="45.9206517" lon="14.0434646"><ele>809.6666666666667</ele><time>2026-04-25T13:36:10.739Z</time></trkpt><trkpt lat="45.920594" lon="14.0432694"><ele>810.3333333333333</ele><time>2026-04-25T13:36:11.739Z</time></trkpt><trkpt lat="45.9205207" lon="14.0430621"><ele>811.0</ele><time>2026-04-25T13:36:12.739Z</time></trkpt><trkpt lat="45.920467" lon="14.042841"><ele>811.0</ele><time>2026-04-25T13:36:13.739Z</time></trkpt><trkpt lat="45.9204334" lon="14.0426291"><ele>811.0</ele><time>2026-04-25T13:36:14.739Z</time></trkpt><trkpt lat="45.920403" lon="14.0424159"><ele>811.0</ele><time>2026-04-25T13:36:15.738Z</time></trkpt><trkpt lat="45.9204011" lon="14.0421464"><ele>815.6666666666666</ele><time>2026-04-25T13:36:16.739Z</time></trkpt><trkpt lat="45.9204851" lon="14.041951"><ele>820.3333333333333</ele><time>2026-04-25T13:36:17.739Z</time></trkpt><trkpt lat="45.9206724" lon="14.0417437"><ele>825.0</ele><time>2026-04-25T13:36:18.739Z</time></trkpt><trkpt lat="45.9207727" lon="14.0415471"><ele>829.3333333333333</ele><time>2026-04-25T13:36:19.739Z</time></trkpt><trkpt lat="45.9208653" lon="14.0413288"><ele>833.6666666666666</ele><time>2026-04-25T13:36:20.739Z</time></trkpt><trkpt lat="45.9209321" lon="14.041083"><ele>838.0</ele><time>2026-04-25T13:36:21.739Z</time></trkpt><trkpt lat="45.9209791" lon="14.0408055"><ele>827.6666666666666</ele><time>2026-04-25T13:36:22.739Z</time></trkpt><trkpt lat="45.9210117" lon="14.04051"><ele>817.3333333333333</ele><time>2026-04-25T13:36:23.738Z</time></trkpt><trkpt lat="45.9210434" lon="14.0402346"><ele>807.0</ele><time>2026-04-25T13:36:24.739Z</time></trkpt><trkpt lat="45.9210865" lon="14.039988"><ele>816.3333333333333</ele><time>2026-04-25T13:36:25.739Z</time></trkpt><trkpt lat="45.9211521" lon="14.039772"><ele>825.6666666666666</ele><time>2026-04-25T13:36:26.739Z</time></trkpt><trkpt lat="45.9212534" lon="14.0395824"><ele>835.0</ele><time>2026-04-25T13:36:27.739Z</time></trkpt><trkpt lat="45.9213937" lon="14.0394266"><ele>835.0</ele><time>2026-04-25T13:36:28.739Z</time></trkpt><trkpt lat="45.9215259" lon="14.039259"><ele>835.0</ele><time>2026-04-25T13:36:29.739Z</time></trkpt><trkpt lat="45.9217277" lon="14.0391824"><ele>835.0</ele><time>2026-04-25T13:36:30.739Z</time></trkpt><trkpt lat="45.9218905" lon="14.0390438"><ele>830.6666666666666</ele><time>2026-04-25T13:36:31.739Z</time></trkpt><trkpt lat="45.9220329" lon="14.0388932"><ele>826.3333333333333</ele><time>2026-04-25T13:36:32.739Z</time></trkpt><trkpt lat="45.922175" lon="14.0387471"><ele>822.0</ele><time>2026-04-25T13:36:33.738Z</time></trkpt><trkpt lat="45.9222879" lon="14.038594"><ele>822.0</ele><time>2026-04-25T13:36:34.739Z</time></trkpt><trkpt lat="45.9221987" lon="14.0383249"><ele>822.0</ele><time>2026-04-25T13:36:35.739Z</time></trkpt><trkpt lat="45.9221772" lon="14.0381185"><ele>822.0</ele><time>2026-04-25T13:36:36.739Z</time></trkpt><trkpt lat="45.9221179" lon="14.0378994"><ele>825.25</ele><time>2026-04-25T13:36:37.739Z</time></trkpt><trkpt lat="45.9220492" lon="14.0376951"><ele>828.5</ele><time>2026-04-25T13:36:38.738Z</time></trkpt><trkpt lat="45.9220014" lon="14.037505"><ele>831.75</ele><time>2026-04-25T13:36:39.739Z</time></trkpt><trkpt lat="45.9219851" lon="14.0373156"><ele>835.0</ele><time>2026-04-25T13:36:40.739Z</time></trkpt><trkpt lat="45.9220116" lon="14.0371291"><ele>839.0</ele><time>2026-04-25T13:36:41.739Z</time></trkpt><trkpt lat="45.9220723" lon="14.0369522"><ele>843.0</ele><time>2026-04-25T13:36:42.739Z</time></trkpt><trkpt lat="45.9221655" lon="14.0368025"><ele>847.0</ele><time>2026-04-25T13:36:43.738Z</time></trkpt><trkpt lat="45.922288" lon="14.0366778"><ele>851.0</ele><time>2026-04-25T13:36:44.739Z</time></trkpt><trkpt lat="45.922444" lon="14.0365937"><ele>854.6666666666667</ele><time>2026-04-25T13:36:45.739Z</time></trkpt><trkpt lat="45.9226221" lon="14.0365414"><ele>858.3333333333333</ele><time>2026-04-25T13:36:46.739Z</time></trkpt><trkpt lat="45.9228171" lon="14.0365026"><ele>862.0</ele><time>2026-04-25T13:36:47.739Z</time></trkpt><trkpt lat="45.9230118" lon="14.0364555"><ele>862.0</ele><time>2026-04-25T13:36:48.739Z</time></trkpt><trkpt lat="45.9231927" lon="14.0364073"><ele>862.0</ele><time>2026-04-25T13:36:49.738Z</time></trkpt><trkpt lat="45.9233491" lon="14.0363311"><ele>862.0</ele><time>2026-04-25T13:36:50.739Z</time></trkpt><trkpt lat="45.9234787" lon="14.0362173"><ele>860.5</ele><time>2026-04-25T13:36:51.739Z</time></trkpt><trkpt lat="45.9235747" lon="14.0360631"><ele>859.0</ele><time>2026-04-25T13:36:52.738Z</time></trkpt><trkpt lat="45.9236312" lon="14.035872"><ele>857.5</ele><time>2026-04-25T13:36:53.739Z</time></trkpt><trkpt lat="45.9236515" lon="14.0356669"><ele>856.0</ele><time>2026-04-25T13:36:54.739Z</time></trkpt><trkpt lat="45.9236318" lon="14.0354607"><ele>859.0</ele><time>2026-04-25T13:36:55.738Z</time></trkpt><trkpt lat="45.9235643" lon="14.0352696"><ele>862.0</ele><time>2026-04-25T13:36:56.739Z</time></trkpt><trkpt lat="45.9234464" lon="14.0350988"><ele>865.0</ele><time>2026-04-25T13:36:57.739Z</time></trkpt><trkpt lat="45.9232929" lon="14.0349548"><ele>865.0</ele><time>2026-04-25T13:36:58.739Z</time></trkpt><trkpt lat="45.9230972" lon="14.0348263"><ele>865.0</ele><time>2026-04-25T13:36:59.739Z</time></trkpt><trkpt lat="45.9228823" lon="14.0346947"><ele>865.0</ele><time>2026-04-25T13:37:00.74Z</time></trkpt><trkpt lat="45.9226537" lon="14.0345588"><ele>866.3333333333333</ele><time>2026-04-25T13:37:01.739Z</time></trkpt><trkpt lat="45.9224372" lon="14.0344321"><ele>867.6666666666667</ele><time>2026-04-25T13:37:02.739Z</time></trkpt><trkpt lat="45.9222449" lon="14.0343273"><ele>869.0</ele><time>2026-04-25T13:37:03.739Z</time></trkpt><trkpt lat="45.9220551" lon="14.0342443"><ele>869.0</ele><time>2026-04-25T13:37:04.739Z</time></trkpt><trkpt lat="45.9218557" lon="14.0342018"><ele>869.0</ele><time>2026-04-25T13:37:05.739Z</time></trkpt><trkpt lat="45.9216722" lon="14.0341937"><ele>869.0</ele><time>2026-04-25T13:37:06.739Z</time></trkpt><trkpt lat="45.9214699" lon="14.0342187"><ele>867.0</ele><time>2026-04-25T13:37:07.739Z</time></trkpt><trkpt lat="45.9212666" lon="14.0343062"><ele>865.0</ele><time>2026-04-25T13:37:08.739Z</time></trkpt><trkpt lat="45.9210608" lon="14.0343843"><ele>863.0</ele><time>2026-04-25T13:37:09.739Z</time></trkpt><trkpt lat="45.9208628" lon="14.0345031"><ele>858.0</ele><time>2026-04-25T13:37:10.739Z</time></trkpt><trkpt lat="45.9206928" lon="14.0346461"><ele>853.0</ele><time>2026-04-25T13:37:11.739Z</time></trkpt><trkpt lat="45.9205362" lon="14.0347983"><ele>848.0</ele><time>2026-04-25T13:37:12.739Z</time></trkpt><trkpt lat="45.9204053" lon="14.0349496"><ele>851.75</ele><time>2026-04-25T13:37:13.738Z</time></trkpt><trkpt lat="45.9202955" lon="14.0350814"><ele>855.5</ele><time>2026-04-25T13:37:14.739Z</time></trkpt><trkpt lat="45.9201982" lon="14.0351823"><ele>859.25</ele><time>2026-04-25T13:37:15.739Z</time></trkpt><trkpt lat="45.9200992" lon="14.0352341"><ele>863.0</ele><time>2026-04-25T13:37:16.739Z</time></trkpt><trkpt lat="45.9200051" lon="14.0352263"><ele>863.0</ele><time>2026-04-25T13:37:17.739Z</time></trkpt><trkpt lat="45.9199156" lon="14.035228"><ele>863.0</ele><time>2026-04-25T13:37:18.739Z</time></trkpt><trkpt lat="45.9198386" lon="14.0351196"><ele>863.0</ele><time>2026-04-25T13:37:19.739Z</time></trkpt><trkpt lat="45.9199009" lon="14.0348624"><ele>863.0</ele><time>2026-04-25T13:37:20.739Z</time></trkpt><trkpt lat="45.919894" lon="14.0346864"><ele>860.0</ele><time>2026-04-25T13:37:21.739Z</time></trkpt><trkpt lat="45.9198765" lon="14.0345075"><ele>857.0</ele><time>2026-04-25T13:37:22.739Z</time></trkpt><trkpt lat="45.9198114" lon="14.0343414"><ele>854.0</ele><time>2026-04-25T13:37:23.738Z</time></trkpt><trkpt lat="45.9197006" lon="14.0342191"><ele>851.0</ele><time>2026-04-25T13:37:24.739Z</time></trkpt><trkpt lat="45.9195427" lon="14.034132"><ele>841.6666666666667</ele><time>2026-04-25T13:37:25.739Z</time></trkpt><trkpt lat="45.9193534" lon="14.0340963"><ele>832.3333333333333</ele><time>2026-04-25T13:37:26.739Z</time></trkpt><trkpt lat="45.9191411" lon="14.0340932"><ele>823.0</ele><time>2026-04-25T13:37:27.739Z</time></trkpt><trkpt lat="45.9189159" lon="14.0340809"><ele>823.0</ele><time>2026-04-25T13:37:28.738Z</time></trkpt><trkpt lat="45.918684" lon="14.0340667"><ele>823.0</ele><time>2026-04-25T13:37:29.739Z</time></trkpt><trkpt lat="45.9184448" lon="14.0340025"><ele>827.5</ele><time>2026-04-25T13:37:30.739Z</time></trkpt><trkpt lat="45.9182057" lon="14.0339177"><ele>832.0</ele><time>2026-04-25T13:37:31.738Z</time></trkpt><trkpt lat="45.9179623" lon="14.0338116"><ele>832.0</ele><time>2026-04-25T13:37:32.739Z</time></trkpt><trkpt lat="45.9177164" lon="14.0336791"><ele>832.0</ele><time>2026-04-25T13:37:33.739Z</time></trkpt><trkpt lat="45.9174716" lon="14.033545"><ele>838.5</ele><time>2026-04-25T13:37:34.739Z</time></trkpt><trkpt lat="45.917229" lon="14.0334115"><ele>845.0</ele><time>2026-04-25T13:37:35.739Z</time></trkpt><trkpt lat="45.9169897" lon="14.0332862"><ele>837.0</ele><time>2026-04-25T13:37:36.738Z</time></trkpt><trkpt lat="45.9167612" lon="14.0331656"><ele>829.0</ele><time>2026-04-25T13:37:37.739Z</time></trkpt><trkpt lat="45.9165452" lon="14.0330443"><ele>829.0</ele><time>2026-04-25T13:37:38.739Z</time></trkpt><trkpt lat="45.9163345" lon="14.0329452"><ele>829.0</ele><time>2026-04-25T13:37:39.739Z</time></trkpt><trkpt lat="45.9161229" lon="14.0328835"><ele>829.0</ele><time>2026-04-25T13:37:40.739Z</time></trkpt><trkpt lat="45.9159041" lon="14.0328383"><ele>833.6666666666666</ele><time>2026-04-25T13:37:41.739Z</time></trkpt><trkpt lat="45.9156788" lon="14.0328178"><ele>838.3333333333333</ele><time>2026-04-25T13:37:42.739Z</time></trkpt><trkpt lat="45.91546" lon="14.0327898"><ele>843.0</ele><time>2026-04-25T13:37:43.738Z</time></trkpt><trkpt lat="45.9152509" lon="14.0327712"><ele>846.0</ele><time>2026-04-25T13:37:44.739Z</time></trkpt><trkpt lat="45.9150557" lon="14.0327432"><ele>849.0</ele><time>2026-04-25T13:37:45.74Z</time></trkpt><trkpt lat="45.9148729" lon="14.0326961"><ele>852.0</ele><time>2026-04-25T13:37:46.738Z</time></trkpt><trkpt lat="45.9147057" lon="14.0326378"><ele>852.0</ele><time>2026-04-25T13:37:47.739Z</time></trkpt><trkpt lat="45.914555" lon="14.03257"><ele>852.0</ele><time>2026-04-25T13:37:48.739Z</time></trkpt><trkpt lat="45.9144204" lon="14.0324891"><ele>852.0</ele><time>2026-04-25T13:37:49.739Z</time></trkpt><trkpt lat="45.9143131" lon="14.032369"><ele>852.0</ele><time>2026-04-25T13:37:50.739Z</time></trkpt><trkpt lat="45.9142295" lon="14.0322043"><ele>854.3333333333333</ele><time>2026-04-25T13:37:51.739Z</time></trkpt><trkpt lat="45.9141783" lon="14.0319838"><ele>856.6666666666666</ele><time>2026-04-25T13:37:52.739Z</time></trkpt><trkpt lat="45.9141634" lon="14.0317201"><ele>859.0</ele><time>2026-04-25T13:37:53.738Z</time></trkpt><trkpt lat="45.914161" lon="14.0314322"><ele>859.0</ele><time>2026-04-25T13:37:54.739Z</time></trkpt><trkpt lat="45.9141584" lon="14.0311569"><ele>859.0</ele><time>2026-04-25T13:37:55.739Z</time></trkpt><trkpt lat="45.9141511" lon="14.0308983"><ele>859.0</ele><time>2026-04-25T13:37:56.739Z</time></trkpt><trkpt lat="45.9141346" lon="14.0306686"><ele>857.5</ele><time>2026-04-25T13:37:57.739Z</time></trkpt><trkpt lat="45.9140865" lon="14.0304677"><ele>856.0</ele><time>2026-04-25T13:37:58.739Z</time></trkpt><trkpt lat="45.9139992" lon="14.030309"><ele>854.5</ele><time>2026-04-25T13:37:59.739Z</time></trkpt><trkpt lat="45.9138724" lon="14.0301919"><ele>853.0</ele><time>2026-04-25T13:38:00.739Z</time></trkpt><trkpt lat="45.9137219" lon="14.030105"><ele>853.0</ele><time>2026-04-25T13:38:01.738Z</time></trkpt><trkpt lat="45.913586" lon="14.0299823"><ele>853.0</ele><time>2026-04-25T13:38:02.739Z</time></trkpt><trkpt lat="45.9134738" lon="14.0298365"><ele>853.0</ele><time>2026-04-25T13:38:03.739Z</time></trkpt><trkpt lat="45.9133713" lon="14.0296981"><ele>857.25</ele><time>2026-04-25T13:38:04.739Z</time></trkpt><trkpt lat="45.9133393" lon="14.0295421"><ele>861.5</ele><time>2026-04-25T13:38:05.739Z</time></trkpt><trkpt lat="45.9133296" lon="14.0293507"><ele>865.75</ele><time>2026-04-25T13:38:06.738Z</time></trkpt><trkpt lat="45.9133518" lon="14.0291338"><ele>870.0</ele><time>2026-04-25T13:38:07.739Z</time></trkpt><trkpt lat="45.9133755" lon="14.0288841"><ele>870.0</ele><time>2026-04-25T13:38:08.739Z</time></trkpt><trkpt lat="45.9133688" lon="14.028629"><ele>870.0</ele><time>2026-04-25T13:38:09.738Z</time></trkpt><trkpt lat="45.9133246" lon="14.0283817"><ele>870.0</ele><time>2026-04-25T13:38:10.739Z</time></trkpt><trkpt lat="45.9132398" lon="14.028145"><ele>869.0</ele><time>2026-04-25T13:38:11.739Z</time></trkpt><trkpt lat="45.9131347" lon="14.0279405"><ele>868.0</ele><time>2026-04-25T13:38:12.739Z</time></trkpt><trkpt lat="45.9130119" lon="14.0277674"><ele>867.0</ele><time>2026-04-25T13:38:13.739Z</time></trkpt><trkpt lat="45.9128761" lon="14.0276413"><ele>867.0</ele><time>2026-04-25T13:38:14.739Z</time></trkpt><trkpt lat="45.9127217" lon="14.0275714"><ele>867.0</ele><time>2026-04-25T13:38:15.739Z</time></trkpt><trkpt lat="45.9125551" lon="14.0275576"><ele>867.0</ele><time>2026-04-25T13:38:16.739Z</time></trkpt><trkpt lat="45.912389" lon="14.0276151"><ele>866.3333333333333</ele><time>2026-04-25T13:38:17.738Z</time></trkpt><trkpt lat="45.9122329" lon="14.0277229"><ele>865.6666666666666</ele><time>2026-04-25T13:38:18.739Z</time></trkpt><trkpt lat="45.9120836" lon="14.0278077"><ele>865.0</ele><time>2026-04-25T13:38:19.739Z</time></trkpt><trkpt lat="45.91192" lon="14.0278469"><ele>865.0</ele><time>2026-04-25T13:38:20.738Z</time></trkpt><trkpt lat="45.9117583" lon="14.027884"><ele>865.0</ele><time>2026-04-25T13:38:21.739Z</time></trkpt><trkpt lat="45.9116217" lon="14.0278586"><ele>865.0</ele><time>2026-04-25T13:38:22.739Z</time></trkpt><trkpt lat="45.9114527" lon="14.0277856"><ele>856.5</ele><time>2026-04-25T13:38:23.739Z</time></trkpt><trkpt lat="45.9112438" lon="14.0274296"><ele>848.0</ele><time>2026-04-25T13:38:24.739Z</time></trkpt><trkpt lat="45.9110694" lon="14.0272676"><ele>850.0</ele><time>2026-04-25T13:38:25.739Z</time></trkpt><trkpt lat="45.9108921" lon="14.0270813"><ele>852.0</ele><time>2026-04-25T13:38:26.739Z</time></trkpt><trkpt lat="45.9107194" lon="14.0268954"><ele>854.0</ele><time>2026-04-25T13:38:27.739Z</time></trkpt><trkpt lat="45.9105447" lon="14.0267166"><ele>854.3333333333334</ele><time>2026-04-25T13:38:28.739Z</time></trkpt><trkpt lat="45.9103696" lon="14.0265389"><ele>854.6666666666667</ele><time>2026-04-25T13:38:29.739Z</time></trkpt><trkpt lat="45.9101988" lon="14.0263606"><ele>855.0</ele><time>2026-04-25T13:38:30.738Z</time></trkpt><trkpt lat="45.91002" lon="14.0261837"><ele>855.0</ele><time>2026-04-25T13:38:31.739Z</time></trkpt><trkpt lat="45.9098517" lon="14.026012"><ele>855.0</ele><time>2026-04-25T13:38:32.739Z</time></trkpt><trkpt lat="45.9096905" lon="14.0258468"><ele>855.0</ele><time>2026-04-25T13:38:33.738Z</time></trkpt><trkpt lat="45.9095397" lon="14.0256989"><ele>854.3333333333333</ele><time>2026-04-25T13:38:34.739Z</time></trkpt><trkpt lat="45.9093992" lon="14.025558"><ele>853.6666666666666</ele><time>2026-04-25T13:38:35.739Z</time></trkpt><trkpt lat="45.9092675" lon="14.0254095"><ele>853.0</ele><time>2026-04-25T13:38:36.739Z</time></trkpt><trkpt lat="45.9091473" lon="14.0252339"><ele>853.0</ele><time>2026-04-25T13:38:37.739Z</time></trkpt><trkpt lat="45.9090523" lon="14.0250226"><ele>853.0</ele><time>2026-04-25T13:38:38.738Z</time></trkpt><trkpt lat="45.9089895" lon="14.0247869"><ele>853.0</ele><time>2026-04-25T13:38:39.74Z</time></trkpt><trkpt lat="45.9089406" lon="14.0245571"><ele>851.6666666666666</ele><time>2026-04-25T13:38:40.739Z</time></trkpt><trkpt lat="45.9088714" lon="14.0243345"><ele>850.3333333333333</ele><time>2026-04-25T13:38:41.74Z</time></trkpt><trkpt lat="45.908775" lon="14.0241156"><ele>849.0</ele><time>2026-04-25T13:38:42.739Z</time></trkpt><trkpt lat="45.9086632" lon="14.0239031"><ele>849.0</ele><time>2026-04-25T13:38:43.739Z</time></trkpt><trkpt lat="45.9085567" lon="14.023675"><ele>849.0</ele><time>2026-04-25T13:38:44.739Z</time></trkpt><trkpt lat="45.9084618" lon="14.0234279"><ele>849.0</ele><time>2026-04-25T13:38:45.739Z</time></trkpt><trkpt lat="45.9083772" lon="14.0231711"><ele>849.3333333333333</ele><time>2026-04-25T13:38:46.738Z</time></trkpt><trkpt lat="45.9082832" lon="14.022927"><ele>849.6666666666666</ele><time>2026-04-25T13:38:47.738Z</time></trkpt><trkpt lat="45.9081638" lon="14.0226978"><ele>850.0</ele><time>2026-04-25T13:38:48.739Z</time></trkpt><trkpt lat="45.9080223" lon="14.022509"><ele>846.3333333333333</ele><time>2026-04-25T13:38:49.739Z</time></trkpt><trkpt lat="45.9078652" lon="14.022348"><ele>842.6666666666667</ele><time>2026-04-25T13:38:50.74Z</time></trkpt><trkpt lat="45.9077067" lon="14.0222068"><ele>839.0</ele><time>2026-04-25T13:38:51.739Z</time></trkpt><trkpt lat="45.9075606" lon="14.0220766"><ele>839.0</ele><time>2026-04-25T13:38:52.738Z</time></trkpt><trkpt lat="45.9074308" lon="14.021943"><ele>839.0</ele><time>2026-04-25T13:38:53.739Z</time></trkpt><trkpt lat="45.9073141" lon="14.0217728"><ele>839.0</ele><time>2026-04-25T13:38:54.739Z</time></trkpt><trkpt lat="45.9072096" lon="14.0215662"><ele>844.0</ele><time>2026-04-25T13:38:55.739Z</time></trkpt><trkpt lat="45.9070961" lon="14.0213199"><ele>849.0</ele><time>2026-04-25T13:38:56.739Z</time></trkpt><trkpt lat="45.9069748" lon="14.0210462"><ele>854.0</ele><time>2026-04-25T13:38:57.739Z</time></trkpt><trkpt lat="45.9068426" lon="14.0207529"><ele>840.5</ele><time>2026-04-25T13:38:58.739Z</time></trkpt><trkpt lat="45.9067029" lon="14.0204625"><ele>827.0</ele><time>2026-04-25T13:38:59.738Z</time></trkpt><trkpt lat="45.9065474" lon="14.0201819"><ele>836.0</ele><time>2026-04-25T13:39:00.739Z</time></trkpt><trkpt lat="45.9063807" lon="14.0199144"><ele>845.0</ele><time>2026-04-25T13:39:01.739Z</time></trkpt><trkpt lat="45.9062028" lon="14.0196593"><ele>845.0</ele><time>2026-04-25T13:39:02.739Z</time></trkpt><trkpt lat="45.9060132" lon="14.0194155"><ele>845.0</ele><time>2026-04-25T13:39:03.739Z</time></trkpt><trkpt lat="45.9058239" lon="14.0191791"><ele>839.0</ele><time>2026-04-25T13:39:04.739Z</time></trkpt><trkpt lat="45.9056386" lon="14.0189566"><ele>833.0</ele><time>2026-04-25T13:39:05.739Z</time></trkpt><trkpt lat="45.9054653" lon="14.018739"><ele>833.0</ele><time>2026-04-25T13:39:06.738Z</time></trkpt><trkpt lat="45.9053003" lon="14.0185193"><ele>833.0</ele><time>2026-04-25T13:39:07.739Z</time></trkpt><trkpt lat="45.9051427" lon="14.018292"><ele>833.0</ele><time>2026-04-25T13:39:08.739Z</time></trkpt><trkpt lat="45.9049938" lon="14.0180503"><ele>833.3333333333334</ele><time>2026-04-25T13:39:09.739Z</time></trkpt><trkpt lat="45.9048558" lon="14.0178034"><ele>833.6666666666667</ele><time>2026-04-25T13:39:10.739Z</time></trkpt><trkpt lat="45.9047233" lon="14.0175463"><ele>834.0</ele><time>2026-04-25T13:39:11.738Z</time></trkpt><trkpt lat="45.9045947" lon="14.0172907"><ele>834.0</ele><time>2026-04-25T13:39:12.739Z</time></trkpt><trkpt lat="45.9044566" lon="14.0170441"><ele>834.0</ele><time>2026-04-25T13:39:13.738Z</time></trkpt><trkpt lat="45.9043057" lon="14.0168135"><ele>834.0</ele><time>2026-04-25T13:39:14.739Z</time></trkpt><trkpt lat="45.9041375" lon="14.016604"><ele>829.5</ele><time>2026-04-25T13:39:15.739Z</time></trkpt><trkpt lat="45.9039454" lon="14.016416"><ele>825.0</ele><time>2026-04-25T13:39:16.739Z</time></trkpt><trkpt lat="45.9037419" lon="14.0162369"><ele>825.0</ele><time>2026-04-25T13:39:17.739Z</time></trkpt><trkpt lat="45.9035295" lon="14.0160678"><ele>825.0</ele><time>2026-04-25T13:39:18.739Z</time></trkpt><trkpt lat="45.9033111" lon="14.0159023"><ele>823.5</ele><time>2026-04-25T13:39:19.739Z</time></trkpt><trkpt lat="45.9030884" lon="14.0157256"><ele>822.0</ele><time>2026-04-25T13:39:20.739Z</time></trkpt><trkpt lat="45.9028637" lon="14.0155452"><ele>822.0</ele><time>2026-04-25T13:39:21.739Z</time></trkpt><trkpt lat="45.9026369" lon="14.015363"><ele>822.0</ele><time>2026-04-25T13:39:22.739Z</time></trkpt><trkpt lat="45.9024039" lon="14.0151867"><ele>824.0</ele><time>2026-04-25T13:39:23.739Z</time></trkpt><trkpt lat="45.9021661" lon="14.0150167"><ele>826.0</ele><time>2026-04-25T13:39:24.739Z</time></trkpt><trkpt lat="45.901929" lon="14.0148575"><ele>814.0</ele><time>2026-04-25T13:39:25.739Z</time></trkpt><trkpt lat="45.9016908" lon="14.0147112"><ele>802.0</ele><time>2026-04-25T13:39:26.739Z</time></trkpt><trkpt lat="45.9014503" lon="14.0145757"><ele>802.0</ele><time>2026-04-25T13:39:27.739Z</time></trkpt><trkpt lat="45.9012039" lon="14.0144582"><ele>802.0</ele><time>2026-04-25T13:39:28.739Z</time></trkpt><trkpt lat="45.9009533" lon="14.0143792"><ele>788.5</ele><time>2026-04-25T13:39:29.739Z</time></trkpt><trkpt lat="45.900701" lon="14.0143223"><ele>775.0</ele><time>2026-04-25T13:39:30.739Z</time></trkpt><trkpt lat="45.9004473" lon="14.0142636"><ele>775.0</ele><time>2026-04-25T13:39:31.738Z</time></trkpt><trkpt lat="45.9001977" lon="14.0142093"><ele>775.0</ele><time>2026-04-25T13:39:32.739Z</time></trkpt><trkpt lat="45.8999514" lon="14.0141562"><ele>789.0</ele><time>2026-04-25T13:39:33.739Z</time></trkpt><trkpt lat="45.8997057" lon="14.0141234"><ele>803.0</ele><time>2026-04-25T13:39:34.738Z</time></trkpt><trkpt lat="45.8994526" lon="14.0141173"><ele>799.0</ele><time>2026-04-25T13:39:35.74Z</time></trkpt><trkpt lat="45.8992042" lon="14.0141332"><ele>795.0</ele><time>2026-04-25T13:39:36.739Z</time></trkpt><trkpt lat="45.8989605" lon="14.0141565"><ele>775.5</ele><time>2026-04-25T13:39:37.739Z</time></trkpt><trkpt lat="45.8987132" lon="14.0141883"><ele>756.0</ele><time>2026-04-25T13:39:38.739Z</time></trkpt><trkpt lat="45.8984739" lon="14.0142452"><ele>757.0</ele><time>2026-04-25T13:39:39.739Z</time></trkpt><trkpt lat="45.898241" lon="14.0143316"><ele>758.0</ele><time>2026-04-25T13:39:40.739Z</time></trkpt><trkpt lat="45.8980107" lon="14.0144322"><ele>758.0</ele><time>2026-04-25T13:39:41.739Z</time></trkpt><trkpt lat="45.89778" lon="14.0145394"><ele>758.0</ele><time>2026-04-25T13:39:42.739Z</time></trkpt><trkpt lat="45.8975477" lon="14.0146362"><ele>758.0</ele><time>2026-04-25T13:39:43.738Z</time></trkpt><trkpt lat="45.8973152" lon="14.0147184"><ele>758.0</ele><time>2026-04-25T13:39:44.739Z</time></trkpt><trkpt lat="45.8970793" lon="14.0147777"><ele>758.0</ele><time>2026-04-25T13:39:45.739Z</time></trkpt><trkpt lat="45.8968463" lon="14.0148207"><ele>758.0</ele><time>2026-04-25T13:39:46.74Z</time></trkpt><trkpt lat="45.8966119" lon="14.0148538"><ele>760.0</ele><time>2026-04-25T13:39:47.739Z</time></trkpt><trkpt lat="45.8963807" lon="14.0148824"><ele>762.0</ele><time>2026-04-25T13:39:48.739Z</time></trkpt><trkpt lat="45.8961493" lon="14.0149149"><ele>764.0</ele><time>2026-04-25T13:39:49.738Z</time></trkpt><trkpt lat="45.895916" lon="14.0149595"><ele>766.0</ele><time>2026-04-25T13:39:50.739Z</time></trkpt><trkpt lat="45.8956838" lon="14.0150202"><ele>750.5</ele><time>2026-04-25T13:39:51.737Z</time></trkpt><trkpt lat="45.8954542" lon="14.0151009"><ele>735.0</ele><time>2026-04-25T13:39:52.738Z</time></trkpt><trkpt lat="45.8952279" lon="14.0151962"><ele>735.6666666666666</ele><time>2026-04-25T13:39:53.738Z</time></trkpt><trkpt lat="45.8950156" lon="14.0152921"><ele>736.3333333333333</ele><time>2026-04-25T13:39:54.738Z</time></trkpt><trkpt lat="45.8948104" lon="14.0153841"><ele>737.0</ele><time>2026-04-25T13:39:55.738Z</time></trkpt><trkpt lat="45.8946025" lon="14.0154571"><ele>737.0</ele><time>2026-04-25T13:39:56.738Z</time></trkpt><trkpt lat="45.8943941" lon="14.0155016"><ele>737.0</ele><time>2026-04-25T13:39:57.738Z</time></trkpt><trkpt lat="45.8941992" lon="14.015527"><ele>737.0</ele><time>2026-04-25T13:39:58.738Z</time></trkpt><trkpt lat="45.8940104" lon="14.0155289"><ele>735.3333333333333</ele><time>2026-04-25T13:39:59.738Z</time></trkpt><trkpt lat="45.8938221" lon="14.0154987"><ele>733.6666666666666</ele><time>2026-04-25T13:40:00.737Z</time></trkpt><trkpt lat="45.8936347" lon="14.015429"><ele>732.0</ele><time>2026-04-25T13:40:01.737Z</time></trkpt><trkpt lat="45.8934539" lon="14.0153263"><ele>732.0</ele><time>2026-04-25T13:40:02.738Z</time></trkpt><trkpt lat="45.8932814" lon="14.01522"><ele>732.0</ele><time>2026-04-25T13:40:03.738Z</time></trkpt><trkpt lat="45.8931237" lon="14.0150945"><ele>732.0</ele><time>2026-04-25T13:40:04.738Z</time></trkpt><trkpt lat="45.8929748" lon="14.014962"><ele>732.0</ele><time>2026-04-25T13:40:05.738Z</time></trkpt><trkpt lat="45.8928423" lon="14.0147945"><ele>732.0</ele><time>2026-04-25T13:40:06.737Z</time></trkpt><trkpt lat="45.8927245" lon="14.0145938"><ele>732.0</ele><time>2026-04-25T13:40:07.737Z</time></trkpt><trkpt lat="45.8926093" lon="14.014367"><ele>725.6666666666666</ele><time>2026-04-25T13:40:08.738Z</time></trkpt><trkpt lat="45.8924966" lon="14.014133"><ele>719.3333333333333</ele><time>2026-04-25T13:40:09.738Z</time></trkpt><trkpt lat="45.8923805" lon="14.0138953"><ele>713.0</ele><time>2026-04-25T13:40:10.738Z</time></trkpt><trkpt lat="45.8922644" lon="14.0136694"><ele>713.0</ele><time>2026-04-25T13:40:11.738Z</time></trkpt><trkpt lat="45.892145" lon="14.0134612"><ele>713.0</ele><time>2026-04-25T13:40:12.738Z</time></trkpt><trkpt lat="45.8920179" lon="14.0132911"><ele>713.0</ele><time>2026-04-25T13:40:13.738Z</time></trkpt><trkpt lat="45.8918889" lon="14.0131289"><ele>716.0</ele><time>2026-04-25T13:40:14.738Z</time></trkpt><trkpt lat="45.8917717" lon="14.0129647"><ele>719.0</ele><time>2026-04-25T13:40:15.738Z</time></trkpt><trkpt lat="45.8916805" lon="14.0127763"><ele>722.0</ele><time>2026-04-25T13:40:16.738Z</time></trkpt><trkpt lat="45.8916084" lon="14.0125675"><ele>714.0</ele><time>2026-04-25T13:40:17.738Z</time></trkpt><trkpt lat="45.8915545" lon="14.0123527"><ele>706.0</ele><time>2026-04-25T13:40:18.737Z</time></trkpt><trkpt lat="45.891483" lon="14.0121502"><ele>698.0</ele><time>2026-04-25T13:40:19.738Z</time></trkpt><trkpt lat="45.8913728" lon="14.0119744"><ele>698.0</ele><time>2026-04-25T13:40:20.738Z</time></trkpt><trkpt lat="45.8912282" lon="14.0118249"><ele>698.0</ele><time>2026-04-25T13:40:21.738Z</time></trkpt><trkpt lat="45.8910648" lon="14.0116778"><ele>698.0</ele><time>2026-04-25T13:40:22.738Z</time></trkpt><trkpt lat="45.890891" lon="14.0115233"><ele>696.3333333333333</ele><time>2026-04-25T13:40:23.737Z</time></trkpt><trkpt lat="45.8907095" lon="14.0113636"><ele>694.6666666666666</ele><time>2026-04-25T13:40:24.738Z</time></trkpt><trkpt lat="45.8905242" lon="14.0112086"><ele>693.0</ele><time>2026-04-25T13:40:25.738Z</time></trkpt><trkpt lat="45.8903454" lon="14.0110606"><ele>693.0</ele><time>2026-04-25T13:40:26.738Z</time></trkpt><trkpt lat="45.8901809" lon="14.0109221"><ele>693.0</ele><time>2026-04-25T13:40:27.737Z</time></trkpt><trkpt lat="45.8900295" lon="14.0107882"><ele>693.0</ele><time>2026-04-25T13:40:28.738Z</time></trkpt><trkpt lat="45.8898941" lon="14.0106392"><ele>690.0</ele><time>2026-04-25T13:40:29.738Z</time></trkpt><trkpt lat="45.8897786" lon="14.0104645"><ele>687.0</ele><time>2026-04-25T13:40:30.738Z</time></trkpt><trkpt lat="45.889675" lon="14.0102614"><ele>684.0</ele><time>2026-04-25T13:40:31.738Z</time></trkpt><trkpt lat="45.8895673" lon="14.0100355"><ele>685.6666666666666</ele><time>2026-04-25T13:40:32.738Z</time></trkpt><trkpt lat="45.8894556" lon="14.0098004"><ele>687.3333333333333</ele><time>2026-04-25T13:40:33.738Z</time></trkpt><trkpt lat="45.8893415" lon="14.0095533"><ele>689.0</ele><time>2026-04-25T13:40:34.738Z</time></trkpt><trkpt lat="45.889225" lon="14.0093074"><ele>683.3333333333333</ele><time>2026-04-25T13:40:35.739Z</time></trkpt><trkpt lat="45.8891051" lon="14.0090534"><ele>677.6666666666666</ele><time>2026-04-25T13:40:36.738Z</time></trkpt><trkpt lat="45.8889833" lon="14.0087927"><ele>672.0</ele><time>2026-04-25T13:40:37.738Z</time></trkpt><trkpt lat="45.8888608" lon="14.0085251"><ele>672.5</ele><time>2026-04-25T13:40:38.738Z</time></trkpt><trkpt lat="45.8887354" lon="14.0082548"><ele>673.0</ele><time>2026-04-25T13:40:39.738Z</time></trkpt><trkpt lat="45.8886097" lon="14.0079875"><ele>673.0</ele><time>2026-04-25T13:40:40.738Z</time></trkpt><trkpt lat="45.8884846" lon="14.007727"><ele>673.0</ele><time>2026-04-25T13:40:41.738Z</time></trkpt><trkpt lat="45.8883551" lon="14.0074733"><ele>673.0</ele><time>2026-04-25T13:40:42.738Z</time></trkpt><trkpt lat="45.888211" lon="14.0072464"><ele>669.3333333333334</ele><time>2026-04-25T13:40:43.738Z</time></trkpt><trkpt lat="45.8880563" lon="14.007039"><ele>665.6666666666666</ele><time>2026-04-25T13:40:44.738Z</time></trkpt><trkpt lat="45.8878909" lon="14.0068502"><ele>662.0</ele><time>2026-04-25T13:40:45.738Z</time></trkpt><trkpt lat="45.8877079" lon="14.0066819"><ele>659.3333333333333</ele><time>2026-04-25T13:40:46.738Z</time></trkpt><trkpt lat="45.8875171" lon="14.0065335"><ele>656.6666666666666</ele><time>2026-04-25T13:40:47.738Z</time></trkpt><trkpt lat="45.8873179" lon="14.0063844"><ele>654.0</ele><time>2026-04-25T13:40:48.738Z</time></trkpt><trkpt lat="45.8871185" lon="14.0062305"><ele>654.0</ele><time>2026-04-25T13:40:49.738Z</time></trkpt><trkpt lat="45.8869199" lon="14.0060713"><ele>654.0</ele><time>2026-04-25T13:40:50.737Z</time></trkpt><trkpt lat="45.8867182" lon="14.0059094"><ele>650.0</ele><time>2026-04-25T13:40:51.738Z</time></trkpt><trkpt lat="45.8865162" lon="14.005754"><ele>646.0</ele><time>2026-04-25T13:40:52.738Z</time></trkpt><trkpt lat="45.8863191" lon="14.0056026"><ele>646.0</ele><time>2026-04-25T13:40:53.737Z</time></trkpt><trkpt lat="45.8861317" lon="14.0054578"><ele>646.0</ele><time>2026-04-25T13:40:54.738Z</time></trkpt><trkpt lat="45.885949" lon="14.0053257"><ele>646.0</ele><time>2026-04-25T13:40:55.738Z</time></trkpt><trkpt lat="45.8857676" lon="14.005216"><ele>647.0</ele><time>2026-04-25T13:40:56.739Z</time></trkpt><trkpt lat="45.8855808" lon="14.0051368"><ele>648.0</ele><time>2026-04-25T13:40:57.737Z</time></trkpt><trkpt lat="45.8853897" lon="14.0050875"><ele>649.0</ele><time>2026-04-25T13:40:58.738Z</time></trkpt><trkpt lat="45.8851977" lon="14.0050484"><ele>650.0</ele><time>2026-04-25T13:40:59.738Z</time></trkpt><trkpt lat="45.8850115" lon="14.0050119"><ele>651.0</ele><time>2026-04-25T13:41:00.737Z</time></trkpt><trkpt lat="45.8848424" lon="14.0049783"><ele>652.0</ele><time>2026-04-25T13:41:01.739Z</time></trkpt><trkpt lat="45.8846916" lon="14.0049525"><ele>652.3333333333334</ele><time>2026-04-25T13:41:02.737Z</time></trkpt><trkpt lat="45.884546" lon="14.0049108"><ele>652.6666666666666</ele><time>2026-04-25T13:41:03.738Z</time></trkpt><trkpt lat="45.8844065" lon="14.0048325"><ele>653.0</ele><time>2026-04-25T13:41:04.738Z</time></trkpt><trkpt lat="45.8842708" lon="14.0047192"><ele>652.3333333333333</ele><time>2026-04-25T13:41:05.737Z</time></trkpt><trkpt lat="45.8841336" lon="14.0045917"><ele>651.6666666666666</ele><time>2026-04-25T13:41:06.738Z</time></trkpt><trkpt lat="45.8839924" lon="14.0044506"><ele>651.0</ele><time>2026-04-25T13:41:07.738Z</time></trkpt><trkpt lat="45.8838433" lon="14.0043086"><ele>651.0</ele><time>2026-04-25T13:41:08.738Z</time></trkpt><trkpt lat="45.8836882" lon="14.0041674"><ele>651.0</ele><time>2026-04-25T13:41:09.738Z</time></trkpt><trkpt lat="45.8835312" lon="14.0040232"><ele>651.0</ele><time>2026-04-25T13:41:10.738Z</time></trkpt><trkpt lat="45.8833729" lon="14.0038754"><ele>648.6666666666666</ele><time>2026-04-25T13:41:11.737Z</time></trkpt><trkpt lat="45.8832219" lon="14.0037209"><ele>646.3333333333333</ele><time>2026-04-25T13:41:12.738Z</time></trkpt><trkpt lat="45.8830774" lon="14.00356"><ele>644.0</ele><time>2026-04-25T13:41:13.738Z</time></trkpt><trkpt lat="45.8829369" lon="14.0033922"><ele>643.6666666666666</ele><time>2026-04-25T13:41:14.738Z</time></trkpt><trkpt lat="45.8827979" lon="14.0032242"><ele>643.3333333333334</ele><time>2026-04-25T13:41:15.738Z</time></trkpt><trkpt lat="45.8826616" lon="14.0030543"><ele>643.0</ele><time>2026-04-25T13:41:16.737Z</time></trkpt><trkpt lat="45.8825319" lon="14.0028877"><ele>639.0</ele><time>2026-04-25T13:41:17.738Z</time></trkpt><trkpt lat="45.8824054" lon="14.0027226"><ele>635.0</ele><time>2026-04-25T13:41:18.738Z</time></trkpt><trkpt lat="45.8822795" lon="14.0025653"><ele>631.0</ele><time>2026-04-25T13:41:19.738Z</time></trkpt><trkpt lat="45.8821568" lon="14.0024085"><ele>629.5</ele><time>2026-04-25T13:41:20.738Z</time></trkpt><trkpt lat="45.8820375" lon="14.002256"><ele>628.0</ele><time>2026-04-25T13:41:21.738Z</time></trkpt><trkpt lat="45.8819263" lon="14.0021103"><ele>626.5</ele><time>2026-04-25T13:41:22.738Z</time></trkpt><trkpt lat="45.8818243" lon="14.0019792"><ele>625.0</ele><time>2026-04-25T13:41:23.738Z</time></trkpt><trkpt lat="45.8817419" lon="14.001852"><ele>625.0</ele><time>2026-04-25T13:41:24.737Z</time></trkpt><trkpt lat="45.8816778" lon="14.0017168"><ele>625.0</ele><time>2026-04-25T13:41:25.738Z</time></trkpt><trkpt lat="45.8816229" lon="14.0015838"><ele>625.0</ele><time>2026-04-25T13:41:26.738Z</time></trkpt><trkpt lat="45.8815442" lon="14.0014893"><ele>625.0</ele><time>2026-04-25T13:41:27.738Z</time></trkpt><trkpt lat="45.8814499" lon="14.0014182"><ele>625.0</ele><time>2026-04-25T13:41:28.738Z</time></trkpt><trkpt lat="45.8813567" lon="14.0013194"><ele>625.0</ele><time>2026-04-25T13:41:29.737Z</time></trkpt><trkpt lat="45.8812675" lon="14.00119"><ele>625.0</ele><time>2026-04-25T13:41:30.738Z</time></trkpt><trkpt lat="45.8811844" lon="14.0010295"><ele>625.0</ele><time>2026-04-25T13:41:31.738Z</time></trkpt><trkpt lat="45.8811133" lon="14.0008383"><ele>625.0</ele><time>2026-04-25T13:41:32.738Z</time></trkpt><trkpt lat="45.8810578" lon="14.0006261"><ele>626.0</ele><time>2026-04-25T13:41:33.738Z</time></trkpt><trkpt lat="45.881022" lon="14.0003983"><ele>627.0</ele><time>2026-04-25T13:41:34.737Z</time></trkpt><trkpt lat="45.8810056" lon="14.0001601"><ele>628.0</ele><time>2026-04-25T13:41:35.738Z</time></trkpt><trkpt lat="45.8809944" lon="13.9999133"><ele>628.0</ele><time>2026-04-25T13:41:36.738Z</time></trkpt><trkpt lat="45.880988" lon="13.9996541"><ele>628.0</ele><time>2026-04-25T13:41:37.738Z</time></trkpt><trkpt lat="45.8809853" lon="13.9993909"><ele>628.0</ele><time>2026-04-25T13:41:38.737Z</time></trkpt><trkpt lat="45.8809796" lon="13.9991247"><ele>628.0</ele><time>2026-04-25T13:41:39.738Z</time></trkpt><trkpt lat="45.8809735" lon="13.9988508"><ele>628.0</ele><time>2026-04-25T13:41:40.738Z</time></trkpt><trkpt lat="45.8809647" lon="13.9985732"><ele>628.0</ele><time>2026-04-25T13:41:41.737Z</time></trkpt><trkpt lat="45.8809576" lon="13.9982932"><ele>632.3333333333334</ele><time>2026-04-25T13:41:42.738Z</time></trkpt><trkpt lat="45.8809574" lon="13.998012"><ele>636.6666666666666</ele><time>2026-04-25T13:41:43.738Z</time></trkpt><trkpt lat="45.8809643" lon="13.9977302"><ele>641.0</ele><time>2026-04-25T13:41:44.738Z</time></trkpt><trkpt lat="45.880986" lon="13.9974488"><ele>641.3333333333333</ele><time>2026-04-25T13:41:45.738Z</time></trkpt><trkpt lat="45.8810155" lon="13.9971717"><ele>641.6666666666666</ele><time>2026-04-25T13:41:46.737Z</time></trkpt><trkpt lat="45.8810479" lon="13.9968994"><ele>642.0</ele><time>2026-04-25T13:41:47.738Z</time></trkpt><trkpt lat="45.8810781" lon="13.996632"><ele>642.0</ele><time>2026-04-25T13:41:48.738Z</time></trkpt><trkpt lat="45.8810999" lon="13.9963795"><ele>642.0</ele><time>2026-04-25T13:41:49.738Z</time></trkpt><trkpt lat="45.8811098" lon="13.9961398"><ele>642.0</ele><time>2026-04-25T13:41:50.738Z</time></trkpt><trkpt lat="45.8811125" lon="13.9959094"><ele>640.0</ele><time>2026-04-25T13:41:51.738Z</time></trkpt><trkpt lat="45.8811205" lon="13.9956916"><ele>638.0</ele><time>2026-04-25T13:41:52.738Z</time></trkpt><trkpt lat="45.8811399" lon="13.9954841"><ele>636.0</ele><time>2026-04-25T13:41:53.738Z</time></trkpt><trkpt lat="45.881176" lon="13.9952692"><ele>636.0</ele><time>2026-04-25T13:41:54.738Z</time></trkpt><trkpt lat="45.881227" lon="13.9950302"><ele>636.0</ele><time>2026-04-25T13:41:55.738Z</time></trkpt><trkpt lat="45.881287" lon="13.9947702"><ele>636.0</ele><time>2026-04-25T13:41:56.738Z</time></trkpt><trkpt lat="45.8813473" lon="13.9945026"><ele>634.0</ele><time>2026-04-25T13:41:57.739Z</time></trkpt><trkpt lat="45.8814067" lon="13.9942268"><ele>632.0</ele><time>2026-04-25T13:41:58.738Z</time></trkpt><trkpt lat="45.8814674" lon="13.993939"><ele>630.0</ele><time>2026-04-25T13:41:59.738Z</time></trkpt><trkpt lat="45.881528" lon="13.9936462"><ele>625.0</ele><time>2026-04-25T13:42:00.739Z</time></trkpt><trkpt lat="45.8815889" lon="13.9933459"><ele>620.0</ele><time>2026-04-25T13:42:01.738Z</time></trkpt><trkpt lat="45.8816409" lon="13.9930418"><ele>615.0</ele><time>2026-04-25T13:42:02.738Z</time></trkpt><trkpt lat="45.8816759" lon="13.9927317"><ele>607.3333333333334</ele><time>2026-04-25T13:42:03.737Z</time></trkpt><trkpt lat="45.8816989" lon="13.992415"><ele>599.6666666666667</ele><time>2026-04-25T13:42:04.738Z</time></trkpt><trkpt lat="45.8817195" lon="13.9920962"><ele>592.0</ele><time>2026-04-25T13:42:05.738Z</time></trkpt><trkpt lat="45.8817451" lon="13.9917811"><ele>605.0</ele><time>2026-04-25T13:42:06.737Z</time></trkpt><trkpt lat="45.8817723" lon="13.9914772"><ele>618.0</ele><time>2026-04-25T13:42:07.738Z</time></trkpt><trkpt lat="45.8818013" lon="13.9911877"><ele>631.0</ele><time>2026-04-25T13:42:08.738Z</time></trkpt><trkpt lat="45.8818205" lon="13.9909063"><ele>631.0</ele><time>2026-04-25T13:42:09.737Z</time></trkpt><trkpt lat="45.8818156" lon="13.9906316"><ele>631.0</ele><time>2026-04-25T13:42:10.738Z</time></trkpt><trkpt lat="45.8817943" lon="13.9903658"><ele>631.0</ele><time>2026-04-25T13:42:11.738Z</time></trkpt><trkpt lat="45.8817758" lon="13.9901127"><ele>630.0</ele><time>2026-04-25T13:42:12.738Z</time></trkpt><trkpt lat="45.8817684" lon="13.989884"><ele>629.0</ele><time>2026-04-25T13:42:13.738Z</time></trkpt><trkpt lat="45.8817786" lon="13.989676"><ele>628.0</ele><time>2026-04-25T13:42:14.738Z</time></trkpt><trkpt lat="45.8818101" lon="13.9894638"><ele>628.0</ele><time>2026-04-25T13:42:15.738Z</time></trkpt><trkpt lat="45.8818573" lon="13.9892466"><ele>628.0</ele><time>2026-04-25T13:42:16.738Z</time></trkpt><trkpt lat="45.8819285" lon="13.9890366"><ele>628.0</ele><time>2026-04-25T13:42:17.737Z</time></trkpt><trkpt lat="45.8820215" lon="13.9888263"><ele>623.3333333333334</ele><time>2026-04-25T13:42:18.738Z</time></trkpt><trkpt lat="45.8821218" lon="13.9886175"><ele>618.6666666666666</ele><time>2026-04-25T13:42:19.738Z</time></trkpt><trkpt lat="45.8822349" lon="13.9884089"><ele>614.0</ele><time>2026-04-25T13:42:20.738Z</time></trkpt><trkpt lat="45.8823613" lon="13.9881973"><ele>620.0</ele><time>2026-04-25T13:42:21.738Z</time></trkpt><trkpt lat="45.8824925" lon="13.9880018"><ele>626.0</ele><time>2026-04-25T13:42:22.738Z</time></trkpt><trkpt lat="45.8826283" lon="13.9878242"><ele>632.0</ele><time>2026-04-25T13:42:23.738Z</time></trkpt><trkpt lat="45.8827544" lon="13.9876416"><ele>620.3333333333333</ele><time>2026-04-25T13:42:24.738Z</time></trkpt><trkpt lat="45.8828632" lon="13.9874516"><ele>608.6666666666666</ele><time>2026-04-25T13:42:25.738Z</time></trkpt><trkpt lat="45.8829646" lon="13.9872623"><ele>597.0</ele><time>2026-04-25T13:42:26.737Z</time></trkpt><trkpt lat="45.8830574" lon="13.9870705"><ele>597.0</ele><time>2026-04-25T13:42:27.738Z</time></trkpt><trkpt lat="45.8831426" lon="13.9868717"><ele>597.0</ele><time>2026-04-25T13:42:28.738Z</time></trkpt><trkpt lat="45.8832034" lon="13.9866729"><ele>597.0</ele><time>2026-04-25T13:42:29.738Z</time></trkpt><trkpt lat="45.8832369" lon="13.98646"><ele>588.3333333333334</ele><time>2026-04-25T13:42:30.738Z</time></trkpt><trkpt lat="45.8832406" lon="13.9862374"><ele>579.6666666666667</ele><time>2026-04-25T13:42:31.738Z</time></trkpt><trkpt lat="45.8832214" lon="13.9860204"><ele>571.0</ele><time>2026-04-25T13:42:32.738Z</time></trkpt><trkpt lat="45.883183" lon="13.9858102"><ele>570.0</ele><time>2026-04-25T13:42:33.738Z</time></trkpt><trkpt lat="45.8831336" lon="13.9856164"><ele>569.0</ele><time>2026-04-25T13:42:34.737Z</time></trkpt><trkpt lat="45.8830785" lon="13.9854312"><ele>568.0</ele><time>2026-04-25T13:42:35.738Z</time></trkpt><trkpt lat="45.8830263" lon="13.9852451"><ele>567.0</ele><time>2026-04-25T13:42:36.738Z</time></trkpt><trkpt lat="45.8829893" lon="13.9850519"><ele>570.0</ele><time>2026-04-25T13:42:37.738Z</time></trkpt><trkpt lat="45.8829602" lon="13.984853"><ele>573.0</ele><time>2026-04-25T13:42:38.738Z</time></trkpt><trkpt lat="45.8829429" lon="13.9846448"><ele>576.0</ele><time>2026-04-25T13:42:39.737Z</time></trkpt><trkpt lat="45.8829233" lon="13.9844414"><ele>579.0</ele><time>2026-04-25T13:42:40.738Z</time></trkpt><trkpt lat="45.8829044" lon="13.9842537"><ele>578.75</ele><time>2026-04-25T13:42:41.738Z</time></trkpt><trkpt lat="45.8829098" lon="13.9840805"><ele>578.5</ele><time>2026-04-25T13:42:42.738Z</time></trkpt><trkpt lat="45.8828944" lon="13.9839231"><ele>578.25</ele><time>2026-04-25T13:42:43.738Z</time></trkpt><trkpt lat="45.882875" lon="13.9837453"><ele>578.0</ele><time>2026-04-25T13:42:44.737Z</time></trkpt><trkpt lat="45.8828708" lon="13.9835642"><ele>578.0</ele><time>2026-04-25T13:42:45.738Z</time></trkpt><trkpt lat="45.8828531" lon="13.9833679"><ele>578.0</ele><time>2026-04-25T13:42:46.738Z</time></trkpt><trkpt lat="45.8828188" lon="13.9831585"><ele>578.0</ele><time>2026-04-25T13:42:47.738Z</time></trkpt><trkpt lat="45.8828095" lon="13.9829763"><ele>578.0</ele><time>2026-04-25T13:42:48.738Z</time></trkpt><trkpt lat="45.8827912" lon="13.982798"><ele>578.25</ele><time>2026-04-25T13:42:49.738Z</time></trkpt><trkpt lat="45.8827399" lon="13.9826165"><ele>578.5</ele><time>2026-04-25T13:42:50.738Z</time></trkpt><trkpt lat="45.8827132" lon="13.9824237"><ele>578.75</ele><time>2026-04-25T13:42:51.738Z</time></trkpt><trkpt lat="45.8826817" lon="13.9822257"><ele>579.0</ele><time>2026-04-25T13:42:52.737Z</time></trkpt><trkpt lat="45.8826348" lon="13.9820465"><ele>567.5</ele><time>2026-04-25T13:42:53.738Z</time></trkpt><trkpt lat="45.8825792" lon="13.9818811"><ele>556.0</ele><time>2026-04-25T13:42:54.738Z</time></trkpt><trkpt lat="45.8825134" lon="13.9817202"><ele>544.5</ele><time>2026-04-25T13:42:55.738Z</time></trkpt><trkpt lat="45.8824403" lon="13.9815687"><ele>533.0</ele><time>2026-04-25T13:42:56.738Z</time></trkpt><trkpt lat="45.882358" lon="13.9814172"><ele>533.0</ele><time>2026-04-25T13:42:57.738Z</time></trkpt><trkpt lat="45.8822739" lon="13.9812732"><ele>533.0</ele><time>2026-04-25T13:42:58.738Z</time></trkpt><trkpt lat="45.8821874" lon="13.9811272"><ele>533.0</ele><time>2026-04-25T13:42:59.738Z</time></trkpt><trkpt lat="45.8821147" lon="13.9809685"><ele>533.0</ele><time>2026-04-25T13:43:00.738Z</time></trkpt><trkpt lat="45.8820575" lon="13.9807895"><ele>534.75</ele><time>2026-04-25T13:43:01.738Z</time></trkpt><trkpt lat="45.8820058" lon="13.9806076"><ele>536.5</ele><time>2026-04-25T13:43:02.738Z</time></trkpt><trkpt lat="45.8819546" lon="13.9804275"><ele>538.25</ele><time>2026-04-25T13:43:03.738Z</time></trkpt><trkpt lat="45.8819099" lon="13.9802498"><ele>540.0</ele><time>2026-04-25T13:43:04.738Z</time></trkpt><trkpt lat="45.8818693" lon="13.9800722"><ele>542.0</ele><time>2026-04-25T13:43:05.737Z</time></trkpt><trkpt lat="45.8818325" lon="13.9799012"><ele>544.0</ele><time>2026-04-25T13:43:06.738Z</time></trkpt><trkpt lat="45.8818058" lon="13.9797264"><ele>546.0</ele><time>2026-04-25T13:43:07.738Z</time></trkpt><trkpt lat="45.8817986" lon="13.9795559"><ele>548.0</ele><time>2026-04-25T13:43:08.738Z</time></trkpt><trkpt lat="45.881818" lon="13.9793867"><ele>548.0</ele><time>2026-04-25T13:43:09.738Z</time></trkpt><trkpt lat="45.8818601" lon="13.9792261"><ele>548.0</ele><time>2026-04-25T13:43:10.738Z</time></trkpt><trkpt lat="45.8819159" lon="13.9790714"><ele>548.0</ele><time>2026-04-25T13:43:11.738Z</time></trkpt><trkpt lat="45.8819821" lon="13.9789127"><ele>548.0</ele><time>2026-04-25T13:43:12.738Z</time></trkpt><trkpt lat="45.8820458" lon="13.9787588"><ele>547.0</ele><time>2026-04-25T13:43:13.738Z</time></trkpt><trkpt lat="45.8821152" lon="13.978609"><ele>546.0</ele><time>2026-04-25T13:43:14.738Z</time></trkpt><trkpt lat="45.8821773" lon="13.9784499"><ele>545.0</ele><time>2026-04-25T13:43:15.738Z</time></trkpt><trkpt lat="45.8822268" lon="13.9782755"><ele>544.0</ele><time>2026-04-25T13:43:16.737Z</time></trkpt><trkpt lat="45.882258" lon="13.9780927"><ele>540.5</ele><time>2026-04-25T13:43:17.738Z</time></trkpt><trkpt lat="45.8822774" lon="13.9779083"><ele>537.0</ele><time>2026-04-25T13:43:18.738Z</time></trkpt><trkpt lat="45.882288" lon="13.977725"><ele>533.5</ele><time>2026-04-25T13:43:19.738Z</time></trkpt><trkpt lat="45.8822799" lon="13.9775431"><ele>530.0</ele><time>2026-04-25T13:43:20.738Z</time></trkpt><trkpt lat="45.8822547" lon="13.9773645"><ele>528.75</ele><time>2026-04-25T13:43:21.738Z</time></trkpt><trkpt lat="45.8822167" lon="13.9771908"><ele>527.5</ele><time>2026-04-25T13:43:22.738Z</time></trkpt><trkpt lat="45.8821648" lon="13.9770192"><ele>526.25</ele><time>2026-04-25T13:43:23.739Z</time></trkpt><trkpt lat="45.8821064" lon="13.9768511"><ele>525.0</ele><time>2026-04-25T13:43:24.737Z</time></trkpt><trkpt lat="45.8820351" lon="13.9766996"><ele>525.5</ele><time>2026-04-25T13:43:25.737Z</time></trkpt><trkpt lat="45.8819508" lon="13.9765645"><ele>526.0</ele><time>2026-04-25T13:43:26.738Z</time></trkpt><trkpt lat="45.8818662" lon="13.9764364"><ele>526.5</ele><time>2026-04-25T13:43:27.738Z</time></trkpt><trkpt lat="45.8817825" lon="13.9763096"><ele>527.0</ele><time>2026-04-25T13:43:28.738Z</time></trkpt><trkpt lat="45.8817085" lon="13.9761807"><ele>520.5</ele><time>2026-04-25T13:43:29.738Z</time></trkpt><trkpt lat="45.8816474" lon="13.9760435"><ele>514.0</ele><time>2026-04-25T13:43:30.737Z</time></trkpt><trkpt lat="45.8816042" lon="13.9758924"><ele>507.5</ele><time>2026-04-25T13:43:31.737Z</time></trkpt><trkpt lat="45.8815882" lon="13.9757297"><ele>501.0</ele><time>2026-04-25T13:43:32.738Z</time></trkpt><trkpt lat="45.8815948" lon="13.9755551"><ele>501.0</ele><time>2026-04-25T13:43:33.738Z</time></trkpt><trkpt lat="45.8816209" lon="13.975369"><ele>501.0</ele><time>2026-04-25T13:43:34.738Z</time></trkpt><trkpt lat="45.8816596" lon="13.9751765"><ele>501.0</ele><time>2026-04-25T13:43:35.738Z</time></trkpt><trkpt lat="45.8817067" lon="13.9749986"><ele>501.0</ele><time>2026-04-25T13:43:36.738Z</time></trkpt><trkpt lat="45.8817576" lon="13.9748247"><ele>509.25</ele><time>2026-04-25T13:43:37.738Z</time></trkpt><trkpt lat="45.8818077" lon="13.9746611"><ele>517.5</ele><time>2026-04-25T13:43:38.738Z</time></trkpt><trkpt lat="45.8818503" lon="13.9744969"><ele>525.75</ele><time>2026-04-25T13:43:39.738Z</time></trkpt><trkpt lat="45.8818795" lon="13.9743391"><ele>534.0</ele><time>2026-04-25T13:43:40.737Z</time></trkpt><trkpt lat="45.8818878" lon="13.9741842"><ele>534.0</ele><time>2026-04-25T13:43:41.738Z</time></trkpt><trkpt lat="45.8818661" lon="13.9740371"><ele>534.0</ele><time>2026-04-25T13:43:42.738Z</time></trkpt><trkpt lat="45.8818154" lon="13.973909"><ele>534.0</ele><time>2026-04-25T13:43:43.738Z</time></trkpt><trkpt lat="45.8817389" lon="13.9737965"><ele>534.0</ele><time>2026-04-25T13:43:44.738Z</time></trkpt><trkpt lat="45.8816601" lon="13.9736906"><ele>534.0</ele><time>2026-04-25T13:43:45.738Z</time></trkpt><trkpt lat="45.8815863" lon="13.9735765"><ele>523.25</ele><time>2026-04-25T13:43:46.738Z</time></trkpt><trkpt lat="45.8815186" lon="13.9734492"><ele>512.5</ele><time>2026-04-25T13:43:47.738Z</time></trkpt><trkpt lat="45.8814628" lon="13.9732932"><ele>501.75</ele><time>2026-04-25T13:43:48.738Z</time></trkpt><trkpt lat="45.8814064" lon="13.9731238"><ele>491.0</ele><time>2026-04-25T13:43:49.736Z</time></trkpt><trkpt lat="45.8813517" lon="13.9729578"><ele>491.0</ele><time>2026-04-25T13:43:50.737Z</time></trkpt><trkpt lat="45.8812959" lon="13.9727997"><ele>491.0</ele><time>2026-04-25T13:43:51.737Z</time></trkpt><trkpt lat="45.8812409" lon="13.9726419"><ele>491.0</ele><time>2026-04-25T13:43:52.737Z</time></trkpt><trkpt lat="45.8811879" lon="13.9724872"><ele>491.0</ele><time>2026-04-25T13:43:53.737Z</time></trkpt><trkpt lat="45.8811373" lon="13.9723332"><ele>493.75</ele><time>2026-04-25T13:43:54.737Z</time></trkpt><trkpt lat="45.8810876" lon="13.9721816"><ele>496.5</ele><time>2026-04-25T13:43:55.737Z</time></trkpt><trkpt lat="45.8810344" lon="13.9720389"><ele>499.25</ele><time>2026-04-25T13:43:56.737Z</time></trkpt><trkpt lat="45.8809753" lon="13.9719019"><ele>502.0</ele><time>2026-04-25T13:43:57.736Z</time></trkpt><trkpt lat="45.8809111" lon="13.971774"><ele>495.5</ele><time>2026-04-25T13:43:58.737Z</time></trkpt><trkpt lat="45.8808473" lon="13.9716463"><ele>489.0</ele><time>2026-04-25T13:43:59.737Z</time></trkpt><trkpt lat="45.8807849" lon="13.9715132"><ele>482.5</ele><time>2026-04-25T13:44:00.737Z</time></trkpt><trkpt lat="45.8807267" lon="13.9713666"><ele>476.0</ele><time>2026-04-25T13:44:01.737Z</time></trkpt><trkpt lat="45.8806776" lon="13.9712145"><ele>476.0</ele><time>2026-04-25T13:44:02.736Z</time></trkpt><trkpt lat="45.8806342" lon="13.9710527"><ele>476.0</ele><time>2026-04-25T13:44:03.737Z</time></trkpt><trkpt lat="45.8805987" lon="13.9708815"><ele>476.0</ele><time>2026-04-25T13:44:04.737Z</time></trkpt><trkpt lat="45.8805751" lon="13.9706972"><ele>476.0</ele><time>2026-04-25T13:44:05.736Z</time></trkpt><trkpt lat="45.8805628" lon="13.9705074"><ele>476.5</ele><time>2026-04-25T13:44:06.737Z</time></trkpt><trkpt lat="45.8805641" lon="13.9703117"><ele>477.0</ele><time>2026-04-25T13:44:07.737Z</time></trkpt><trkpt lat="45.8805759" lon="13.9701139"><ele>477.5</ele><time>2026-04-25T13:44:08.737Z</time></trkpt><trkpt lat="45.8805833" lon="13.9699154"><ele>478.0</ele><time>2026-04-25T13:44:09.737Z</time></trkpt><trkpt lat="45.8805784" lon="13.9697229"><ele>478.0</ele><time>2026-04-25T13:44:10.736Z</time></trkpt><trkpt lat="45.8805471" lon="13.9695214"><ele>478.0</ele><time>2026-04-25T13:44:11.737Z</time></trkpt><trkpt lat="45.8804918" lon="13.969327"><ele>478.0</ele><time>2026-04-25T13:44:12.737Z</time></trkpt><trkpt lat="45.8804131" lon="13.9691411"><ele>478.0</ele><time>2026-04-25T13:44:13.737Z</time></trkpt><trkpt lat="45.8803236" lon="13.9689551"><ele>478.0</ele><time>2026-04-25T13:44:14.737Z</time></trkpt><trkpt lat="45.8802338" lon="13.9687674"><ele>478.0</ele><time>2026-04-25T13:44:15.737Z</time></trkpt><trkpt lat="45.8801527" lon="13.9685792"><ele>478.0</ele><time>2026-04-25T13:44:16.737Z</time></trkpt><trkpt lat="45.8800753" lon="13.9683883"><ele>470.0</ele><time>2026-04-25T13:44:17.736Z</time></trkpt><trkpt lat="45.8800022" lon="13.9681923"><ele>462.0</ele><time>2026-04-25T13:44:18.736Z</time></trkpt><trkpt lat="45.8799301" lon="13.9679959"><ele>454.0</ele><time>2026-04-25T13:44:19.737Z</time></trkpt><trkpt lat="45.8798566" lon="13.9677981"><ele>454.0</ele><time>2026-04-25T13:44:20.737Z</time></trkpt><trkpt lat="45.8797853" lon="13.9676058"><ele>454.0</ele><time>2026-04-25T13:44:21.737Z</time></trkpt><trkpt lat="45.8797171" lon="13.9674153"><ele>454.0</ele><time>2026-04-25T13:44:22.737Z</time></trkpt><trkpt lat="45.879649" lon="13.9672271"><ele>454.0</ele><time>2026-04-25T13:44:23.737Z</time></trkpt><trkpt lat="45.8795839" lon="13.9670426"><ele>455.75</ele><time>2026-04-25T13:44:24.737Z</time></trkpt><trkpt lat="45.879525" lon="13.9668503"><ele>457.5</ele><time>2026-04-25T13:44:25.736Z</time></trkpt><trkpt lat="45.8794651" lon="13.966658"><ele>459.25</ele><time>2026-04-25T13:44:26.737Z</time></trkpt><trkpt lat="45.879401" lon="13.9664688"><ele>461.0</ele><time>2026-04-25T13:44:27.737Z</time></trkpt><trkpt lat="45.8793318" lon="13.9662813"><ele>455.66666666666663</ele><time>2026-04-25T13:44:28.737Z</time></trkpt><trkpt lat="45.8792592" lon="13.9660905"><ele>450.33333333333337</ele><time>2026-04-25T13:44:29.737Z</time></trkpt><trkpt lat="45.8791841" lon="13.9659029"><ele>445.0</ele><time>2026-04-25T13:44:30.737Z</time></trkpt><trkpt lat="45.8791071" lon="13.9657193"><ele>445.0</ele><time>2026-04-25T13:44:31.737Z</time></trkpt><trkpt lat="45.8790381" lon="13.9655335"><ele>445.0</ele><time>2026-04-25T13:44:32.737Z</time></trkpt><trkpt lat="45.8789825" lon="13.9653336"><ele>445.0</ele><time>2026-04-25T13:44:33.737Z</time></trkpt><trkpt lat="45.8789443" lon="13.9651085"><ele>445.33333333333337</ele><time>2026-04-25T13:44:34.737Z</time></trkpt><trkpt lat="45.8789194" lon="13.9648683"><ele>445.66666666666663</ele><time>2026-04-25T13:44:35.736Z</time></trkpt><trkpt lat="45.8789052" lon="13.9646264"><ele>446.0</ele><time>2026-04-25T13:44:36.737Z</time></trkpt><trkpt lat="45.8788901" lon="13.9643835"><ele>445.66666666666663</ele><time>2026-04-25T13:44:37.737Z</time></trkpt><trkpt lat="45.8788713" lon="13.964145"><ele>445.33333333333337</ele><time>2026-04-25T13:44:38.737Z</time></trkpt><trkpt lat="45.8788543" lon="13.9639043"><ele>445.0</ele><time>2026-04-25T13:44:39.737Z</time></trkpt><trkpt lat="45.8788459" lon="13.9636628"><ele>445.0</ele><time>2026-04-25T13:44:40.737Z</time></trkpt><trkpt lat="45.8788475" lon="13.9634248"><ele>445.0</ele><time>2026-04-25T13:44:41.736Z</time></trkpt><trkpt lat="45.8788629" lon="13.9631966"><ele>445.0</ele><time>2026-04-25T13:44:42.737Z</time></trkpt><trkpt lat="45.8788969" lon="13.9629692"><ele>443.33333333333337</ele><time>2026-04-25T13:44:43.737Z</time></trkpt><trkpt lat="45.8789254" lon="13.9627408"><ele>441.66666666666663</ele><time>2026-04-25T13:44:44.737Z</time></trkpt><trkpt lat="45.8789418" lon="13.9625162"><ele>440.0</ele><time>2026-04-25T13:44:45.737Z</time></trkpt><trkpt lat="45.8789423" lon="13.9622889"><ele>437.66666666666663</ele><time>2026-04-25T13:44:46.737Z</time></trkpt><trkpt lat="45.8789386" lon="13.9620619"><ele>435.33333333333337</ele><time>2026-04-25T13:44:47.737Z</time></trkpt><trkpt lat="45.8789368" lon="13.961836"><ele>433.0</ele><time>2026-04-25T13:44:48.737Z</time></trkpt><trkpt lat="45.8789378" lon="13.9616116"><ele>431.0</ele><time>2026-04-25T13:44:49.737Z</time></trkpt><trkpt lat="45.8789363" lon="13.9613924"><ele>429.0</ele><time>2026-04-25T13:44:50.737Z</time></trkpt><trkpt lat="45.8789359" lon="13.9611744"><ele>427.0</ele><time>2026-04-25T13:44:51.736Z</time></trkpt><trkpt lat="45.8789467" lon="13.9609516"><ele>425.6666666666667</ele><time>2026-04-25T13:44:52.737Z</time></trkpt><trkpt lat="45.8789725" lon="13.9607328"><ele>424.33333333333337</ele><time>2026-04-25T13:44:53.737Z</time></trkpt><trkpt lat="45.8790132" lon="13.9605139"><ele>423.0</ele><time>2026-04-25T13:44:54.737Z</time></trkpt><trkpt lat="45.8790636" lon="13.9603054"><ele>423.0</ele><time>2026-04-25T13:44:55.736Z</time></trkpt><trkpt lat="45.8791188" lon="13.9601072"><ele>423.0</ele><time>2026-04-25T13:44:56.737Z</time></trkpt><trkpt lat="45.8791808" lon="13.9599122"><ele>423.0</ele><time>2026-04-25T13:44:57.737Z</time></trkpt><trkpt lat="45.8792379" lon="13.9597193"><ele>423.0</ele><time>2026-04-25T13:44:58.737Z</time></trkpt><trkpt lat="45.8792854" lon="13.9595266"><ele>424.5</ele><time>2026-04-25T13:44:59.737Z</time></trkpt><trkpt lat="45.8793256" lon="13.9593348"><ele>426.0</ele><time>2026-04-25T13:45:00.737Z</time></trkpt><trkpt lat="45.8793588" lon="13.9591484"><ele>427.5</ele><time>2026-04-25T13:45:01.736Z</time></trkpt><trkpt lat="45.8793873" lon="13.9589614"><ele>429.0</ele><time>2026-04-25T13:45:02.737Z</time></trkpt><trkpt lat="45.8794146" lon="13.9587835"><ele>429.0</ele><time>2026-04-25T13:45:03.737Z</time></trkpt><trkpt lat="45.8794405" lon="13.9586093"><ele>429.0</ele><time>2026-04-25T13:45:04.737Z</time></trkpt><trkpt lat="45.8794641" lon="13.9584396"><ele>429.0</ele><time>2026-04-25T13:45:05.736Z</time></trkpt><trkpt lat="45.8794924" lon="13.9582616"><ele>429.0</ele><time>2026-04-25T13:45:06.736Z</time></trkpt><trkpt lat="45.8795343" lon="13.9580797"><ele>427.75</ele><time>2026-04-25T13:45:07.737Z</time></trkpt><trkpt lat="45.8795977" lon="13.9578945"><ele>426.5</ele><time>2026-04-25T13:45:08.737Z</time></trkpt><trkpt lat="45.8796769" lon="13.9577136"><ele>425.25</ele><time>2026-04-25T13:45:09.737Z</time></trkpt><trkpt lat="45.8797671" lon="13.9575293"><ele>424.0</ele><time>2026-04-25T13:45:10.737Z</time></trkpt><trkpt lat="45.8798549" lon="13.9573474"><ele>420.0</ele><time>2026-04-25T13:45:11.737Z</time></trkpt><trkpt lat="45.8799364" lon="13.957164"><ele>416.0</ele><time>2026-04-25T13:45:12.737Z</time></trkpt><trkpt lat="45.8800172" lon="13.9569684"><ele>412.0</ele><time>2026-04-25T13:45:13.737Z</time></trkpt><trkpt lat="45.8800756" lon="13.9567513"><ele>421.0</ele><time>2026-04-25T13:45:14.737Z</time></trkpt><trkpt lat="45.8801177" lon="13.9565282"><ele>430.0</ele><time>2026-04-25T13:45:15.736Z</time></trkpt><trkpt lat="45.880139" lon="13.9563064"><ele>439.0</ele><time>2026-04-25T13:45:16.737Z</time></trkpt><trkpt lat="45.8801519" lon="13.9560918"><ele>439.0</ele><time>2026-04-25T13:45:17.737Z</time></trkpt><trkpt lat="45.8801623" lon="13.9558891"><ele>439.0</ele><time>2026-04-25T13:45:18.737Z</time></trkpt><trkpt lat="45.8801742" lon="13.9556955"><ele>439.0</ele><time>2026-04-25T13:45:19.737Z</time></trkpt><trkpt lat="45.8801709" lon="13.9555082"><ele>439.0</ele><time>2026-04-25T13:45:20.737Z</time></trkpt><trkpt lat="45.8801612" lon="13.9553261"><ele>436.25</ele><time>2026-04-25T13:45:21.737Z</time></trkpt><trkpt lat="45.8801435" lon="13.9551547"><ele>433.5</ele><time>2026-04-25T13:45:22.737Z</time></trkpt><trkpt lat="45.8801191" lon="13.9549877"><ele>430.75</ele><time>2026-04-25T13:45:23.737Z</time></trkpt><trkpt lat="45.8800942" lon="13.9548268"><ele>428.0</ele><time>2026-04-25T13:45:24.737Z</time></trkpt><trkpt lat="45.8800888" lon="13.9546565"><ele>425.0</ele><time>2026-04-25T13:45:25.737Z</time></trkpt><trkpt lat="45.8801168" lon="13.9544673"><ele>422.0</ele><time>2026-04-25T13:45:26.737Z</time></trkpt><trkpt lat="45.8801628" lon="13.9542509"><ele>419.0</ele><time>2026-04-25T13:45:27.737Z</time></trkpt><trkpt lat="45.8802089" lon="13.9539958"><ele>416.66666666666663</ele><time>2026-04-25T13:45:28.737Z</time></trkpt><trkpt lat="45.8802613" lon="13.9537012"><ele>414.33333333333337</ele><time>2026-04-25T13:45:29.736Z</time></trkpt><trkpt lat="45.8803365" lon="13.9533839"><ele>412.0</ele><time>2026-04-25T13:45:30.737Z</time></trkpt><trkpt lat="45.8804172" lon="13.9530695"><ele>407.6666666666667</ele><time>2026-04-25T13:45:31.737Z</time></trkpt><trkpt lat="45.8804791" lon="13.9527736"><ele>403.33333333333337</ele><time>2026-04-25T13:45:32.737Z</time></trkpt><trkpt lat="45.8805279" lon="13.9525038"><ele>399.0</ele><time>2026-04-25T13:45:33.737Z</time></trkpt><trkpt lat="45.8805689" lon="13.952255"><ele>396.75</ele><time>2026-04-25T13:45:34.737Z</time></trkpt><trkpt lat="45.8805994" lon="13.9520257"><ele>394.5</ele><time>2026-04-25T13:45:35.736Z</time></trkpt><trkpt lat="45.8806285" lon="13.9518181"><ele>392.25</ele><time>2026-04-25T13:45:36.737Z</time></trkpt><trkpt lat="45.8806509" lon="13.9516229"><ele>390.0</ele><time>2026-04-25T13:45:37.737Z</time></trkpt><trkpt lat="45.8806798" lon="13.9514432"><ele>388.5</ele><time>2026-04-25T13:45:38.737Z</time></trkpt><trkpt lat="45.880723" lon="13.951274"><ele>387.0</ele><time>2026-04-25T13:45:39.737Z</time></trkpt><trkpt lat="45.880784" lon="13.9511186"><ele>385.5</ele><time>2026-04-25T13:45:40.737Z</time></trkpt><trkpt lat="45.8808503" lon="13.9509677"><ele>384.0</ele><time>2026-04-25T13:45:41.737Z</time></trkpt><trkpt lat="45.8809256" lon="13.950828"><ele>388.0</ele><time>2026-04-25T13:45:42.736Z</time></trkpt><trkpt lat="45.8810031" lon="13.9506831"><ele>392.0</ele><time>2026-04-25T13:45:43.737Z</time></trkpt><trkpt lat="45.8810695" lon="13.9505356"><ele>396.0</ele><time>2026-04-25T13:45:44.737Z</time></trkpt><trkpt lat="45.8811267" lon="13.9503719"><ele>400.0</ele><time>2026-04-25T13:45:45.737Z</time></trkpt><trkpt lat="45.8811485" lon="13.9501885"><ele>397.75</ele><time>2026-04-25T13:45:46.737Z</time></trkpt><trkpt lat="45.8811653" lon="13.9500125"><ele>395.5</ele><time>2026-04-25T13:45:47.737Z</time></trkpt><trkpt lat="45.8811672" lon="13.949831"><ele>393.25</ele><time>2026-04-25T13:45:48.736Z</time></trkpt><trkpt lat="45.8811633" lon="13.9496546"><ele>391.0</ele><time>2026-04-25T13:45:49.737Z</time></trkpt><trkpt lat="45.8811422" lon="13.949479"><ele>391.0</ele><time>2026-04-25T13:45:50.737Z</time></trkpt><trkpt lat="45.8811119" lon="13.9493116"><ele>391.0</ele><time>2026-04-25T13:45:51.737Z</time></trkpt><trkpt lat="45.8810732" lon="13.9491394"><ele>391.0</ele><time>2026-04-25T13:45:52.737Z</time></trkpt><trkpt lat="45.8810317" lon="13.9489663"><ele>391.0</ele><time>2026-04-25T13:45:53.737Z</time></trkpt><trkpt lat="45.8809978" lon="13.9487926"><ele>390.0</ele><time>2026-04-25T13:45:54.737Z</time></trkpt><trkpt lat="45.8809746" lon="13.9486185"><ele>389.0</ele><time>2026-04-25T13:45:55.737Z</time></trkpt><trkpt lat="45.8809681" lon="13.9484315"><ele>388.0</ele><time>2026-04-25T13:45:56.736Z</time></trkpt><trkpt lat="45.8809726" lon="13.948241"><ele>387.0</ele><time>2026-04-25T13:45:57.737Z</time></trkpt><trkpt lat="45.8809859" lon="13.9480409"><ele>383.6666666666667</ele><time>2026-04-25T13:45:58.737Z</time></trkpt><trkpt lat="45.8810172" lon="13.9478063"><ele>380.33333333333337</ele><time>2026-04-25T13:45:59.737Z</time></trkpt><trkpt lat="45.8810765" lon="13.94756"><ele>377.0</ele><time>2026-04-25T13:46:00.737Z</time></trkpt><trkpt lat="45.8811446" lon="13.9473284"><ele>372.33333333333337</ele><time>2026-04-25T13:46:01.737Z</time></trkpt><trkpt lat="45.8812138" lon="13.9471148"><ele>367.6666666666667</ele><time>2026-04-25T13:46:02.737Z</time></trkpt><trkpt lat="45.8812923" lon="13.9469141"><ele>363.0</ele><time>2026-04-25T13:46:03.737Z</time></trkpt><trkpt lat="45.8813845" lon="13.9467321"><ele>360.75</ele><time>2026-04-25T13:46:04.736Z</time></trkpt><trkpt lat="45.8814732" lon="13.946583"><ele>358.5</ele><time>2026-04-25T13:46:05.736Z</time></trkpt><trkpt lat="45.8815516" lon="13.9464543"><ele>356.25</ele><time>2026-04-25T13:46:06.736Z</time></trkpt><trkpt lat="45.8816228" lon="13.9463372"><ele>354.0</ele><time>2026-04-25T13:46:07.737Z</time></trkpt><trkpt lat="45.8816915" lon="13.9462252"><ele>354.0</ele><time>2026-04-25T13:46:08.737Z</time></trkpt><trkpt lat="45.881761" lon="13.9461103"><ele>354.0</ele><time>2026-04-25T13:46:09.737Z</time></trkpt><trkpt lat="45.8818346" lon="13.9459971"><ele>354.0</ele><time>2026-04-25T13:46:10.737Z</time></trkpt><trkpt lat="45.8819085" lon="13.9458866"><ele>354.0</ele><time>2026-04-25T13:46:11.737Z</time></trkpt><trkpt lat="45.8819775" lon="13.9457731"><ele>354.0</ele><time>2026-04-25T13:46:12.737Z</time></trkpt><trkpt lat="45.882037" lon="13.9456542"><ele>355.5</ele><time>2026-04-25T13:46:13.737Z</time></trkpt><trkpt lat="45.882085" lon="13.9455271"><ele>357.0</ele><time>2026-04-25T13:46:14.737Z</time></trkpt><trkpt lat="45.8821135" lon="13.9453878"><ele>358.5</ele><time>2026-04-25T13:46:15.736Z</time></trkpt><trkpt lat="45.8821204" lon="13.9452262"><ele>360.0</ele><time>2026-04-25T13:46:16.737Z</time></trkpt><trkpt lat="45.8821177" lon="13.9450291"><ele>355.6666666666667</ele><time>2026-04-25T13:46:17.737Z</time></trkpt><trkpt lat="45.8820789" lon="13.9448063"><ele>351.33333333333337</ele><time>2026-04-25T13:46:18.737Z</time></trkpt><trkpt lat="45.8820061" lon="13.9445798"><ele>347.0</ele><time>2026-04-25T13:46:19.737Z</time></trkpt><trkpt lat="45.8819148" lon="13.9443734"><ele>344.6666666666667</ele><time>2026-04-25T13:46:20.737Z</time></trkpt><trkpt lat="45.8818303" lon="13.9441779"><ele>342.3333333333333</ele><time>2026-04-25T13:46:21.737Z</time></trkpt><trkpt lat="45.8817709" lon="13.9439725"><ele>340.0</ele><time>2026-04-25T13:46:22.737Z</time></trkpt><trkpt lat="45.8817462" lon="13.9437402"><ele>339.66666666666663</ele><time>2026-04-25T13:46:23.737Z</time></trkpt><trkpt lat="45.8817618" lon="13.9434891"><ele>339.3333333333333</ele><time>2026-04-25T13:46:24.737Z</time></trkpt><trkpt lat="45.8818064" lon="13.9432144"><ele>339.0</ele><time>2026-04-25T13:46:25.737Z</time></trkpt><trkpt lat="45.881869" lon="13.9429305"><ele>339.0</ele><time>2026-04-25T13:46:26.737Z</time></trkpt><trkpt lat="45.8819438" lon="13.9426237"><ele>339.0</ele><time>2026-04-25T13:46:27.737Z</time></trkpt><trkpt lat="45.8820238" lon="13.9422988"><ele>338.0</ele><time>2026-04-25T13:46:28.737Z</time></trkpt><trkpt lat="45.8821023" lon="13.9419878"><ele>337.0</ele><time>2026-04-25T13:46:29.737Z</time></trkpt><trkpt lat="45.882178" lon="13.9417032"><ele>336.0</ele><time>2026-04-25T13:46:30.736Z</time></trkpt><trkpt lat="45.8822549" lon="13.9414416"><ele>334.6666666666667</ele><time>2026-04-25T13:46:31.737Z</time></trkpt><trkpt lat="45.8823508" lon="13.9412065"><ele>333.33333333333337</ele><time>2026-04-25T13:46:32.737Z</time></trkpt><trkpt lat="45.8824617" lon="13.9410077"><ele>332.0</ele><time>2026-04-25T13:46:33.737Z</time></trkpt><trkpt lat="45.8825901" lon="13.9408329"><ele>333.33333333333337</ele><time>2026-04-25T13:46:34.737Z</time></trkpt><trkpt lat="45.8827217" lon="13.9406486"><ele>334.6666666666667</ele><time>2026-04-25T13:46:35.737Z</time></trkpt><trkpt lat="45.8829039" lon="13.9405115"><ele>336.0</ele><time>2026-04-25T13:46:36.737Z</time></trkpt><trkpt lat="45.8830573" lon="13.9403192"><ele>336.0</ele><time>2026-04-25T13:46:37.737Z</time></trkpt><trkpt lat="45.8832104" lon="13.9401062"><ele>336.0</ele><time>2026-04-25T13:46:38.737Z</time></trkpt><trkpt lat="45.8833595" lon="13.9398834"><ele>336.0</ele><time>2026-04-25T13:46:39.737Z</time></trkpt><trkpt lat="45.8834976" lon="13.9396522"><ele>335.3333333333333</ele><time>2026-04-25T13:46:40.737Z</time></trkpt><trkpt lat="45.8836247" lon="13.9393964"><ele>334.66666666666663</ele><time>2026-04-25T13:46:41.736Z</time></trkpt><trkpt lat="45.8837407" lon="13.9391195"><ele>334.0</ele><time>2026-04-25T13:46:42.737Z</time></trkpt><trkpt lat="45.8838471" lon="13.9388332"><ele>330.0</ele><time>2026-04-25T13:46:43.737Z</time></trkpt><trkpt lat="45.883943" lon="13.9385344"><ele>326.0</ele><time>2026-04-25T13:46:44.737Z</time></trkpt><trkpt lat="45.8840375" lon="13.9382338"><ele>327.6666666666667</ele><time>2026-04-25T13:46:45.737Z</time></trkpt><trkpt lat="45.8841263" lon="13.9379376"><ele>329.3333333333333</ele><time>2026-04-25T13:46:46.737Z</time></trkpt><trkpt lat="45.8842104" lon="13.9376581"><ele>331.0</ele><time>2026-04-25T13:46:47.737Z</time></trkpt><trkpt lat="45.8842892" lon="13.9374002"><ele>331.0</ele><time>2026-04-25T13:46:48.737Z</time></trkpt><trkpt lat="45.8843589" lon="13.937167"><ele>331.0</ele><time>2026-04-25T13:46:49.736Z</time></trkpt><trkpt lat="45.884409" lon="13.9369601"><ele>331.0</ele><time>2026-04-25T13:46:50.737Z</time></trkpt><trkpt lat="45.8844298" lon="13.9367639"><ele>330.25</ele><time>2026-04-25T13:46:51.737Z</time></trkpt><trkpt lat="45.8844102" lon="13.9365704"><ele>329.5</ele><time>2026-04-25T13:46:52.737Z</time></trkpt><trkpt lat="45.8843499" lon="13.9364027"><ele>328.75</ele><time>2026-04-25T13:46:53.737Z</time></trkpt><trkpt lat="45.8842412" lon="13.9362544"><ele>328.0</ele><time>2026-04-25T13:46:54.736Z</time></trkpt><trkpt lat="45.8841133" lon="13.9360969"><ele>321.3333333333333</ele><time>2026-04-25T13:46:55.737Z</time></trkpt><trkpt lat="45.8839855" lon="13.9359132"><ele>314.6666666666667</ele><time>2026-04-25T13:46:56.737Z</time></trkpt><trkpt lat="45.8838729" lon="13.935704"><ele>308.0</ele><time>2026-04-25T13:46:57.737Z</time></trkpt><trkpt lat="45.8837727" lon="13.9354972"><ele>308.0</ele><time>2026-04-25T13:46:58.737Z</time></trkpt><trkpt lat="45.8836853" lon="13.9352912"><ele>308.0</ele><time>2026-04-25T13:46:59.737Z</time></trkpt><trkpt lat="45.8836218" lon="13.9350693"><ele>308.0</ele><time>2026-04-25T13:47:00.737Z</time></trkpt><trkpt lat="45.8835825" lon="13.9348455"><ele>308.6666666666667</ele><time>2026-04-25T13:47:01.736Z</time></trkpt><trkpt lat="45.8835734" lon="13.9346057"><ele>309.3333333333333</ele><time>2026-04-25T13:47:02.737Z</time></trkpt><trkpt lat="45.8835964" lon="13.9343522"><ele>310.0</ele><time>2026-04-25T13:47:03.737Z</time></trkpt><trkpt lat="45.8836413" lon="13.9340743"><ele>310.0</ele><time>2026-04-25T13:47:04.737Z</time></trkpt><trkpt lat="45.883682" lon="13.9337968"><ele>310.0</ele><time>2026-04-25T13:47:05.737Z</time></trkpt><trkpt lat="45.8837093" lon="13.9335267"><ele>310.0</ele><time>2026-04-25T13:47:06.737Z</time></trkpt><trkpt lat="45.8837219" lon="13.9332749"><ele>307.75</ele><time>2026-04-25T13:47:07.737Z</time></trkpt><trkpt lat="45.8837279" lon="13.9330429"><ele>305.5</ele><time>2026-04-25T13:47:08.737Z</time></trkpt><trkpt lat="45.8837212" lon="13.93284"><ele>303.25</ele><time>2026-04-25T13:47:09.737Z</time></trkpt><trkpt lat="45.8837157" lon="13.9326639"><ele>301.0</ele><time>2026-04-25T13:47:10.737Z</time></trkpt><trkpt lat="45.8837118" lon="13.9325126"><ele>297.2</ele><time>2026-04-25T13:47:11.737Z</time></trkpt><trkpt lat="45.8837387" lon="13.9323893"><ele>293.40000000000003</ele><time>2026-04-25T13:47:12.737Z</time></trkpt><trkpt lat="45.8837967" lon="13.9323051"><ele>289.6</ele><time>2026-04-25T13:47:13.736Z</time></trkpt><trkpt lat="45.8838811" lon="13.9322933"><ele>285.8</ele><time>2026-04-25T13:47:14.737Z</time></trkpt><trkpt lat="45.8839995" lon="13.9323235"><ele>282.0</ele><time>2026-04-25T13:47:15.737Z</time></trkpt><trkpt lat="45.8841173" lon="13.9323498"><ele>284.0</ele><time>2026-04-25T13:47:16.737Z</time></trkpt><trkpt lat="45.8842718" lon="13.9323638"><ele>286.0</ele><time>2026-04-25T13:47:17.737Z</time></trkpt><trkpt lat="45.884436" lon="13.9323824"><ele>288.0</ele><time>2026-04-25T13:47:18.737Z</time></trkpt><trkpt lat="45.8846333" lon="13.932243"><ele>288.0</ele><time>2026-04-25T13:47:19.736Z</time></trkpt><trkpt lat="45.8847964" lon="13.9321865"><ele>288.0</ele><time>2026-04-25T13:47:20.737Z</time></trkpt><trkpt lat="45.8849461" lon="13.9320666"><ele>288.0</ele><time>2026-04-25T13:47:21.737Z</time></trkpt><trkpt lat="45.8850923" lon="13.9319411"><ele>289.0</ele><time>2026-04-25T13:47:22.737Z</time></trkpt><trkpt lat="45.8852302" lon="13.9317898"><ele>290.0</ele><time>2026-04-25T13:47:23.737Z</time></trkpt><trkpt lat="45.885362" lon="13.9316251"><ele>291.0</ele><time>2026-04-25T13:47:24.736Z</time></trkpt><trkpt lat="45.8854362" lon="13.9314014"><ele>287.3333333333333</ele><time>2026-04-25T13:47:25.735Z</time></trkpt><trkpt lat="45.8855194" lon="13.931201"><ele>283.66666666666663</ele><time>2026-04-25T13:47:26.736Z</time></trkpt><trkpt lat="45.8855594" lon="13.9309832"><ele>280.0</ele><time>2026-04-25T13:47:27.736Z</time></trkpt><trkpt lat="45.8855689" lon="13.9307441"><ele>278.3333333333333</ele><time>2026-04-25T13:47:28.736Z</time></trkpt><trkpt lat="45.8855495" lon="13.9304959"><ele>276.6666666666667</ele><time>2026-04-25T13:47:29.736Z</time></trkpt><trkpt lat="45.8855089" lon="13.9302403"><ele>275.0</ele><time>2026-04-25T13:47:30.735Z</time></trkpt><trkpt lat="45.8854388" lon="13.929991"><ele>273.33333333333337</ele><time>2026-04-25T13:47:31.736Z</time></trkpt><trkpt lat="45.8853481" lon="13.929749"><ele>271.6666666666667</ele><time>2026-04-25T13:47:32.736Z</time></trkpt><trkpt lat="45.8852466" lon="13.9295308"><ele>270.0</ele><time>2026-04-25T13:47:33.736Z</time></trkpt><trkpt lat="45.8851456" lon="13.9293301"><ele>264.0</ele><time>2026-04-25T13:47:34.736Z</time></trkpt><trkpt lat="45.8850585" lon="13.9291395"><ele>258.0</ele><time>2026-04-25T13:47:35.736Z</time></trkpt><trkpt lat="45.8849855" lon="13.9289275"><ele>252.0</ele><time>2026-04-25T13:47:36.736Z</time></trkpt><trkpt lat="45.8849306" lon="13.9286925"><ele>252.0</ele><time>2026-04-25T13:47:37.737Z</time></trkpt><trkpt lat="45.8848859" lon="13.9284605"><ele>252.0</ele><time>2026-04-25T13:47:38.736Z</time></trkpt><trkpt lat="45.8848502" lon="13.9282453"><ele>252.0</ele><time>2026-04-25T13:47:39.736Z</time></trkpt><trkpt lat="45.8848301" lon="13.928043"><ele>252.0</ele><time>2026-04-25T13:47:40.736Z</time></trkpt><trkpt lat="45.8848341" lon="13.9278527"><ele>252.0</ele><time>2026-04-25T13:47:41.736Z</time></trkpt><trkpt lat="45.884874" lon="13.9276572"><ele>252.0</ele><time>2026-04-25T13:47:42.737Z</time></trkpt><trkpt lat="45.8849346" lon="13.9274374"><ele>252.0</ele><time>2026-04-25T13:47:43.735Z</time></trkpt><trkpt lat="45.885007" lon="13.9271961"><ele>252.0</ele><time>2026-04-25T13:47:44.736Z</time></trkpt><trkpt lat="45.8850767" lon="13.9269263"><ele>252.0</ele><time>2026-04-25T13:47:45.735Z</time></trkpt><trkpt lat="45.8851391" lon="13.9266486"><ele>252.0</ele><time>2026-04-25T13:47:46.736Z</time></trkpt><trkpt lat="45.8851901" lon="13.9263822"><ele>252.0</ele><time>2026-04-25T13:47:47.736Z</time></trkpt><trkpt lat="45.8852333" lon="13.9261292"><ele>252.0</ele><time>2026-04-25T13:47:48.736Z</time></trkpt><trkpt lat="45.8852712" lon="13.9259006"><ele>252.0</ele><time>2026-04-25T13:47:49.736Z</time></trkpt><trkpt lat="45.8853113" lon="13.9256967"><ele>252.0</ele><time>2026-04-25T13:47:50.736Z</time></trkpt><trkpt lat="45.8853735" lon="13.9255088"><ele>252.0</ele><time>2026-04-25T13:47:51.736Z</time></trkpt><trkpt lat="45.8854699" lon="13.9253273"><ele>252.0</ele><time>2026-04-25T13:47:52.736Z</time></trkpt><trkpt lat="45.8855988" lon="13.925149"><ele>248.0</ele><time>2026-04-25T13:47:53.736Z</time></trkpt><trkpt lat="45.8857427" lon="13.9249677"><ele>244.0</ele><time>2026-04-25T13:47:54.736Z</time></trkpt><trkpt lat="45.885886" lon="13.9248015"><ele>240.0</ele><time>2026-04-25T13:47:55.736Z</time></trkpt><trkpt lat="45.8860287" lon="13.9246486"><ele>240.0</ele><time>2026-04-25T13:47:56.736Z</time></trkpt><trkpt lat="45.8861721" lon="13.924511"><ele>240.0</ele><time>2026-04-25T13:47:57.736Z</time></trkpt><trkpt lat="45.8863088" lon="13.9243918"><ele>240.0</ele><time>2026-04-25T13:47:58.736Z</time></trkpt><trkpt lat="45.8864388" lon="13.9242909"><ele>238.0</ele><time>2026-04-25T13:47:59.736Z</time></trkpt><trkpt lat="45.8865584" lon="13.9242123"><ele>236.0</ele><time>2026-04-25T13:48:00.736Z</time></trkpt><trkpt lat="45.8866617" lon="13.9241556"><ele>234.0</ele><time>2026-04-25T13:48:01.736Z</time></trkpt><trkpt lat="45.8867396" lon="13.9240953"><ele>232.0</ele><time>2026-04-25T13:48:02.736Z</time></trkpt><trkpt lat="45.8867834" lon="13.9240141"><ele>230.0</ele><time>2026-04-25T13:48:03.736Z</time></trkpt><trkpt lat="45.8867466" lon="13.9238534"><ele>229.5</ele><time>2026-04-25T13:48:05.736Z</time></trkpt><trkpt lat="45.8866727" lon="13.9238266"><ele>229.0</ele><time>2026-04-25T13:48:06.736Z</time></trkpt><trkpt lat="45.8865701" lon="13.9238478"><ele>228.5</ele><time>2026-04-25T13:48:07.736Z</time></trkpt><trkpt lat="45.8864285" lon="13.9238759"><ele>228.0</ele><time>2026-04-25T13:48:08.736Z</time></trkpt><trkpt lat="45.8862863" lon="13.9239035"><ele>228.0</ele><time>2026-04-25T13:48:09.736Z</time></trkpt><trkpt lat="45.8860412" lon="13.9238586"><ele>228.0</ele><time>2026-04-25T13:48:10.736Z</time></trkpt><trkpt lat="45.8858134" lon="13.9238405"><ele>224.5</ele><time>2026-04-25T13:48:11.736Z</time></trkpt><trkpt lat="45.885561" lon="13.9238222"><ele>221.0</ele><time>2026-04-25T13:48:12.736Z</time></trkpt><trkpt lat="45.8853129" lon="13.9238027"><ele>218.5</ele><time>2026-04-25T13:48:13.736Z</time></trkpt><trkpt lat="45.8850772" lon="13.9237818"><ele>216.0</ele><time>2026-04-25T13:48:14.736Z</time></trkpt><trkpt lat="45.8848515" lon="13.9237569"><ele>216.0</ele><time>2026-04-25T13:48:15.736Z</time></trkpt><trkpt lat="45.8846429" lon="13.9237422"><ele>216.0</ele><time>2026-04-25T13:48:16.735Z</time></trkpt><trkpt lat="45.8844531" lon="13.9237468"><ele>216.0</ele><time>2026-04-25T13:48:17.736Z</time></trkpt><trkpt lat="45.8842844" lon="13.9237581"><ele>214.0</ele><time>2026-04-25T13:48:18.736Z</time></trkpt><trkpt lat="45.8841392" lon="13.9237813"><ele>212.0</ele><time>2026-04-25T13:48:19.735Z</time></trkpt><trkpt lat="45.8840197" lon="13.9238103"><ele>210.0</ele><time>2026-04-25T13:48:20.736Z</time></trkpt><trkpt lat="45.8839155" lon="13.9238221"><ele>208.0</ele><time>2026-04-25T13:48:21.736Z</time></trkpt><trkpt lat="45.8838228" lon="13.9237946"><ele>208.0</ele><time>2026-04-25T13:48:22.737Z</time></trkpt><trkpt lat="45.883757" lon="13.9237272"><ele>208.0</ele><time>2026-04-25T13:48:23.736Z</time></trkpt><trkpt lat="45.8837299" lon="13.9236252"><ele>208.0</ele><time>2026-04-25T13:48:24.736Z</time></trkpt><trkpt lat="45.8837525" lon="13.9235111"><ele>208.0</ele><time>2026-04-25T13:48:25.736Z</time></trkpt><trkpt lat="45.8838319" lon="13.9234286"><ele>208.0</ele><time>2026-04-25T13:48:26.736Z</time></trkpt><trkpt lat="45.8839562" lon="13.9233799"><ele>206.0</ele><time>2026-04-25T13:48:27.736Z</time></trkpt><trkpt lat="45.884114" lon="13.9233459"><ele>204.0</ele><time>2026-04-25T13:48:28.736Z</time></trkpt><trkpt lat="45.8842927" lon="13.9232808"><ele>202.0</ele><time>2026-04-25T13:48:29.736Z</time></trkpt><trkpt lat="45.8844681" lon="13.9231648"><ele>202.0</ele><time>2026-04-25T13:48:30.736Z</time></trkpt><trkpt lat="45.884645" lon="13.9229952"><ele>202.0</ele><time>2026-04-25T13:48:31.736Z</time></trkpt><trkpt lat="45.8848175" lon="13.9227968"><ele>202.0</ele><time>2026-04-25T13:48:32.736Z</time></trkpt><trkpt lat="45.8849735" lon="13.9226044"><ele>199.0</ele><time>2026-04-25T13:48:33.736Z</time></trkpt><trkpt lat="45.8851265" lon="13.922413"><ele>196.0</ele><time>2026-04-25T13:48:34.736Z</time></trkpt><trkpt lat="45.885262" lon="13.9222059"><ele>193.0</ele><time>2026-04-25T13:48:35.736Z</time></trkpt><trkpt lat="45.8853904" lon="13.9219785"><ele>193.0</ele><time>2026-04-25T13:48:36.736Z</time></trkpt><trkpt lat="45.8855033" lon="13.921736"><ele>193.0</ele><time>2026-04-25T13:48:37.736Z</time></trkpt><trkpt lat="45.8856016" lon="13.9214788"><ele>193.0</ele><time>2026-04-25T13:48:38.736Z</time></trkpt><trkpt lat="45.8856937" lon="13.9212228"><ele>189.33333333333331</ele><time>2026-04-25T13:48:39.736Z</time></trkpt><trkpt lat="45.8857822" lon="13.9209804"><ele>185.66666666666666</ele><time>2026-04-25T13:48:40.736Z</time></trkpt><trkpt lat="45.885881" lon="13.9207525"><ele>182.0</ele><time>2026-04-25T13:48:41.736Z</time></trkpt><trkpt lat="45.8859958" lon="13.9205341"><ele>182.0</ele><time>2026-04-25T13:48:42.736Z</time></trkpt><trkpt lat="45.8861238" lon="13.9203258"><ele>182.0</ele><time>2026-04-25T13:48:43.736Z</time></trkpt><trkpt lat="45.8862669" lon="13.9201254"><ele>182.0</ele><time>2026-04-25T13:48:44.736Z</time></trkpt><trkpt lat="45.8864108" lon="13.9199168"><ele>177.33333333333331</ele><time>2026-04-25T13:48:45.736Z</time></trkpt><trkpt lat="45.8865468" lon="13.9196882"><ele>172.66666666666666</ele><time>2026-04-25T13:48:46.736Z</time></trkpt><trkpt lat="45.886679" lon="13.919451"><ele>168.0</ele><time>2026-04-25T13:48:47.736Z</time></trkpt><trkpt lat="45.8868037" lon="13.9192175"><ele>164.0</ele><time>2026-04-25T13:48:48.736Z</time></trkpt><trkpt lat="45.8869253" lon="13.9189947"><ele>160.0</ele><time>2026-04-25T13:48:49.736Z</time></trkpt><trkpt lat="45.8870389" lon="13.9187832"><ele>156.0</ele><time>2026-04-25T13:48:50.736Z</time></trkpt><trkpt lat="45.8871449" lon="13.9186001"><ele>156.0</ele><time>2026-04-25T13:48:51.736Z</time></trkpt><trkpt lat="45.8872426" lon="13.9184401"><ele>156.0</ele><time>2026-04-25T13:48:52.736Z</time></trkpt><trkpt lat="45.8873269" lon="13.9183033"><ele>156.0</ele><time>2026-04-25T13:48:53.737Z</time></trkpt><trkpt lat="45.8873792" lon="13.9181488"><ele>156.0</ele><time>2026-04-25T13:48:54.736Z</time></trkpt><trkpt lat="45.8873921" lon="13.9179747"><ele>152.66666666666666</ele><time>2026-04-25T13:48:55.736Z</time></trkpt><trkpt lat="45.887377" lon="13.9177612"><ele>149.33333333333331</ele><time>2026-04-25T13:48:56.735Z</time></trkpt><trkpt lat="45.8873517" lon="13.9175201"><ele>146.0</ele><time>2026-04-25T13:48:57.736Z</time></trkpt><trkpt lat="45.8873294" lon="13.9172677"><ele>145.0</ele><time>2026-04-25T13:48:58.736Z</time></trkpt><trkpt lat="45.8873158" lon="13.9170078"><ele>144.0</ele><time>2026-04-25T13:48:59.736Z</time></trkpt><trkpt lat="45.887304" lon="13.9167451"><ele>143.0</ele><time>2026-04-25T13:49:00.736Z</time></trkpt><trkpt lat="45.8872937" lon="13.9164758"><ele>140.33333333333331</ele><time>2026-04-25T13:49:01.735Z</time></trkpt><trkpt lat="45.8872776" lon="13.9162037"><ele>137.66666666666666</ele><time>2026-04-25T13:49:02.736Z</time></trkpt><trkpt lat="45.8872597" lon="13.9159279"><ele>135.0</ele><time>2026-04-25T13:49:03.736Z</time></trkpt><trkpt lat="45.8872351" lon="13.9156468"><ele>133.66666666666666</ele><time>2026-04-25T13:49:04.736Z</time></trkpt><trkpt lat="45.8872052" lon="13.9153703"><ele>132.33333333333331</ele><time>2026-04-25T13:49:05.736Z</time></trkpt><trkpt lat="45.8871711" lon="13.9150881"><ele>131.0</ele><time>2026-04-25T13:49:06.735Z</time></trkpt><trkpt lat="45.8871336" lon="13.9148037"><ele>129.66666666666666</ele><time>2026-04-25T13:49:07.736Z</time></trkpt><trkpt lat="45.8870935" lon="13.9145188"><ele>128.33333333333334</ele><time>2026-04-25T13:49:08.736Z</time></trkpt><trkpt lat="45.887053" lon="13.9142347"><ele>127.0</ele><time>2026-04-25T13:49:09.735Z</time></trkpt><trkpt lat="45.8870115" lon="13.9139615"><ele>125.66666666666667</ele><time>2026-04-25T13:49:10.736Z</time></trkpt><trkpt lat="45.8869734" lon="13.9136974"><ele>124.33333333333334</ele><time>2026-04-25T13:49:11.736Z</time></trkpt><trkpt lat="45.8869368" lon="13.9134482"><ele>123.0</ele><time>2026-04-25T13:49:12.736Z</time></trkpt><trkpt lat="45.8869046" lon="13.9132079"><ele>121.66666666666666</ele><time>2026-04-25T13:49:13.736Z</time></trkpt><trkpt lat="45.8868774" lon="13.9129769"><ele>120.33333333333333</ele><time>2026-04-25T13:49:14.736Z</time></trkpt><trkpt lat="45.886862" lon="13.9127574"><ele>119.0</ele><time>2026-04-25T13:49:15.736Z</time></trkpt><trkpt lat="45.8868597" lon="13.9125472"><ele>118.66666666666666</ele><time>2026-04-25T13:49:16.736Z</time></trkpt><trkpt lat="45.8869094" lon="13.9123389"><ele>118.33333333333334</ele><time>2026-04-25T13:49:17.736Z</time></trkpt><trkpt lat="45.8869712" lon="13.9121418"><ele>118.0</ele><time>2026-04-25T13:49:18.736Z</time></trkpt><trkpt lat="45.8870474" lon="13.9119514"><ele>118.0</ele><time>2026-04-25T13:49:19.736Z</time></trkpt><trkpt lat="45.8871256" lon="13.9117577"><ele>118.0</ele><time>2026-04-25T13:49:20.736Z</time></trkpt><trkpt lat="45.8872007" lon="13.9115578"><ele>118.0</ele><time>2026-04-25T13:49:21.737Z</time></trkpt><trkpt lat="45.8872634" lon="13.9113452"><ele>117.0</ele><time>2026-04-25T13:49:22.736Z</time></trkpt><trkpt lat="45.8873059" lon="13.9111342"><ele>116.0</ele><time>2026-04-25T13:49:23.736Z</time></trkpt><trkpt lat="45.8873348" lon="13.910936"><ele>115.0</ele><time>2026-04-25T13:49:24.736Z</time></trkpt><trkpt lat="45.8873416" lon="13.910743"><ele>114.0</ele><time>2026-04-25T13:49:25.736Z</time></trkpt><trkpt lat="45.8873187" lon="13.9105517"><ele>113.4</ele><time>2026-04-25T13:49:26.736Z</time></trkpt><trkpt lat="45.8872642" lon="13.9103873"><ele>112.80000000000001</ele><time>2026-04-25T13:49:27.735Z</time></trkpt><trkpt lat="45.887186" lon="13.9102603"><ele>112.19999999999999</ele><time>2026-04-25T13:49:28.736Z</time></trkpt><trkpt lat="45.8871036" lon="13.9101585"><ele>111.6</ele><time>2026-04-25T13:49:29.736Z</time></trkpt><trkpt lat="45.8870351" lon="13.9100767"><ele>111.0</ele><time>2026-04-25T13:49:30.735Z</time></trkpt><trkpt lat="45.8869775" lon="13.9099928"><ele>110.4</ele><time>2026-04-25T13:49:31.736Z</time></trkpt><trkpt lat="45.8869435" lon="13.9098937"><ele>109.8</ele><time>2026-04-25T13:49:32.736Z</time></trkpt><trkpt lat="45.8869333" lon="13.9097736"><ele>109.20000000000002</ele><time>2026-04-25T13:49:33.736Z</time></trkpt><trkpt lat="45.8869399" lon="13.9096266"><ele>108.60000000000001</ele><time>2026-04-25T13:49:34.736Z</time></trkpt><trkpt lat="45.8869475" lon="13.9094605"><ele>108.0</ele><time>2026-04-25T13:49:35.735Z</time></trkpt><trkpt lat="45.8869491" lon="13.9092919"><ele>107.5</ele><time>2026-04-25T13:49:36.736Z</time></trkpt><trkpt lat="45.8869513" lon="13.90911"><ele>107.0</ele><time>2026-04-25T13:49:37.736Z</time></trkpt><trkpt lat="45.8869581" lon="13.9089337"><ele>106.5</ele><time>2026-04-25T13:49:38.736Z</time></trkpt><trkpt lat="45.8869598" lon="13.9087656"><ele>106.0</ele><time>2026-04-25T13:49:39.736Z</time></trkpt><trkpt lat="45.8869618" lon="13.9086112"><ele>106.00000000000001</ele><time>2026-04-25T13:49:40.736Z</time></trkpt><trkpt lat="45.8869659" lon="13.9084679"><ele>106.0</ele><time>2026-04-25T13:49:41.736Z</time></trkpt><trkpt lat="45.8869685" lon="13.9083466"><ele>106.0</ele><time>2026-04-25T13:49:42.735Z</time></trkpt><trkpt lat="45.8869708" lon="13.9082493"><ele>106.0</ele><time>2026-04-25T13:49:43.736Z</time></trkpt><trkpt lat="45.886977" lon="13.9081178"><ele>106.00000000000001</ele><time>2026-04-25T13:49:45.736Z</time></trkpt><trkpt lat="45.8869829" lon="13.9080142"><ele>106.0</ele><time>2026-04-25T13:49:49.736Z</time></trkpt><trkpt lat="45.8869749" lon="13.9079241"><ele>106.0</ele><time>2026-04-25T13:49:55.736Z</time></trkpt><trkpt lat="45.886987" lon="13.9078029"><ele>106.0</ele><time>2026-04-25T13:49:57.736Z</time></trkpt><trkpt lat="45.8869955" lon="13.907671"><ele>106.0</ele><time>2026-04-25T13:49:59.736Z</time></trkpt><trkpt lat="45.8870017" lon="13.9075216"><ele>106.0</ele><time>2026-04-25T13:50:01.736Z</time></trkpt><trkpt lat="45.8870043" lon="13.9073628"><ele>106.0</ele><time>2026-04-25T13:50:03.736Z</time></trkpt><trkpt lat="45.8870208" lon="13.9071894"><ele>106.00000000000001</ele><time>2026-04-25T13:50:05.736Z</time></trkpt><trkpt lat="45.8870235" lon="13.9070295"><ele>106.0</ele><time>2026-04-25T13:50:07.736Z</time></trkpt><trkpt lat="45.8870247" lon="13.9069072"><ele>106.0</ele><time>2026-04-25T13:50:09.736Z</time></trkpt><trkpt lat="45.8870245" lon="13.9068139"><ele>106.0</ele><time>2026-04-25T13:50:11.736Z</time></trkpt><trkpt lat="45.8870188" lon="13.9067164"><ele>106.00000000000001</ele><time>2026-04-25T13:50:13.736Z</time></trkpt><trkpt lat="45.8870106" lon="13.9066055"><ele>106.0</ele><time>2026-04-25T13:50:15.737Z</time></trkpt><trkpt lat="45.8870074" lon="13.9064714"><ele>106.00000000000001</ele><time>2026-04-25T13:50:17.736Z</time></trkpt><trkpt lat="45.8870104" lon="13.9063247"><ele>106.0</ele><time>2026-04-25T13:50:19.735Z</time></trkpt><trkpt lat="45.8870114" lon="13.9061569"><ele>106.0</ele><time>2026-04-25T13:50:21.736Z</time></trkpt><trkpt lat="45.8870124" lon="13.906061"><ele>106.0</ele><time>2026-04-25T13:50:22.736Z</time></trkpt><trkpt lat="45.8870102" lon="13.9059659"><ele>106.00000000000001</ele><time>2026-04-25T13:50:23.736Z</time></trkpt><trkpt lat="45.887013" lon="13.9058656"><ele>106.0</ele><time>2026-04-25T13:50:24.736Z</time></trkpt><trkpt lat="45.8870152" lon="13.9057704"><ele>106.0</ele><time>2026-04-25T13:50:25.736Z</time></trkpt><trkpt lat="45.8870178" lon="13.9056767"><ele>106.0</ele><time>2026-04-25T13:50:26.736Z</time></trkpt><trkpt lat="45.8870193" lon="13.9055831"><ele>106.0</ele><time>2026-04-25T13:50:27.736Z</time></trkpt><trkpt lat="45.8870209" lon="13.9054879"><ele>106.0</ele><time>2026-04-25T13:50:28.735Z</time></trkpt><trkpt lat="45.8870193" lon="13.9053916"><ele>106.0</ele><time>2026-04-25T13:50:29.736Z</time></trkpt><trkpt lat="45.8870176" lon="13.9052884"><ele>106.0</ele><time>2026-04-25T13:50:30.736Z</time></trkpt><trkpt lat="45.8870143" lon="13.9051786"><ele>106.0</ele><time>2026-04-25T13:50:31.736Z</time></trkpt><trkpt lat="45.8870133" lon="13.9050656"><ele>105.83333333333334</ele><time>2026-04-25T13:50:32.735Z</time></trkpt><trkpt lat="45.8870123" lon="13.9049501"><ele>105.66666666666667</ele><time>2026-04-25T13:50:33.736Z</time></trkpt><trkpt lat="45.8870106" lon="13.9048421"><ele>105.5</ele><time>2026-04-25T13:50:34.736Z</time></trkpt><trkpt lat="45.8870095" lon="13.9047485"><ele>105.33333333333334</ele><time>2026-04-25T13:50:35.736Z</time></trkpt><trkpt lat="45.8870144" lon="13.9045987"><ele>105.16666666666667</ele><time>2026-04-25T13:50:37.736Z</time></trkpt><trkpt lat="45.8870372" lon="13.9044761"><ele>105.0</ele><time>2026-04-25T13:50:40.736Z</time></trkpt><trkpt lat="45.887079" lon="13.9043584"><ele>104.83333333333333</ele><time>2026-04-25T13:50:42.736Z</time></trkpt><trkpt lat="45.8870862" lon="13.9042176"><ele>104.66666666666666</ele><time>2026-04-25T13:50:44.735Z</time></trkpt><trkpt lat="45.8870537" lon="13.9040586"><ele>104.5</ele><time>2026-04-25T13:50:46.736Z</time></trkpt><trkpt lat="45.887039" lon="13.9039657"><ele>104.33333333333333</ele><time>2026-04-25T13:50:47.736Z</time></trkpt><trkpt lat="45.8870311" lon="13.9038701"><ele>104.16666666666666</ele><time>2026-04-25T13:50:48.736Z</time></trkpt><trkpt lat="45.8870247" lon="13.903774"><ele>104.0</ele><time>2026-04-25T13:50:49.736Z</time></trkpt><trkpt lat="45.8870245" lon="13.9036778"><ele>103.99999999999999</ele><time>2026-04-25T13:50:50.736Z</time></trkpt><trkpt lat="45.8870276" lon="13.9035819"><ele>104.0</ele><time>2026-04-25T13:50:51.736Z</time></trkpt><trkpt lat="45.8870301" lon="13.9034898"><ele>104.0</ele><time>2026-04-25T13:50:52.735Z</time></trkpt><trkpt lat="45.8870361" lon="13.903329"><ele>104.0</ele><time>2026-04-25T13:50:54.735Z</time></trkpt><trkpt lat="45.8870372" lon="13.9031913"><ele>103.99999999999999</ele><time>2026-04-25T13:50:56.736Z</time></trkpt><trkpt lat="45.887034" lon="13.9030546"><ele>104.0</ele><time>2026-04-25T13:50:58.736Z</time></trkpt><trkpt lat="45.8870244" lon="13.9029029"><ele>104.6</ele><time>2026-04-25T13:51:00.735Z</time></trkpt><trkpt lat="45.8870245" lon="13.9028062"><ele>105.2</ele><time>2026-04-25T13:51:01.735Z</time></trkpt><trkpt lat="45.8870233" lon="13.9026765"><ele>105.79999999999998</ele><time>2026-04-25T13:51:02.734Z</time></trkpt><trkpt lat="45.8870172" lon="13.9025229"><ele>106.39999999999999</ele><time>2026-04-25T13:51:03.734Z</time></trkpt><trkpt lat="45.8870058" lon="13.9023637"><ele>107.0</ele><time>2026-04-25T13:51:04.735Z</time></trkpt><trkpt lat="45.8869884" lon="13.9021671"><ele>107.33333333333333</ele><time>2026-04-25T13:51:05.735Z</time></trkpt><trkpt lat="45.8869843" lon="13.9019471"><ele>107.66666666666666</ele><time>2026-04-25T13:51:06.735Z</time></trkpt><trkpt lat="45.8869754" lon="13.9017238"><ele>108.0</ele><time>2026-04-25T13:51:07.735Z</time></trkpt><trkpt lat="45.8869638" lon="13.9015044"><ele>108.0</ele><time>2026-04-25T13:51:08.735Z</time></trkpt><trkpt lat="45.8869558" lon="13.9012793"><ele>108.0</ele><time>2026-04-25T13:51:09.735Z</time></trkpt><trkpt lat="45.8869438" lon="13.9010694"><ele>108.0</ele><time>2026-04-25T13:51:10.735Z</time></trkpt><trkpt lat="45.8869345" lon="13.9008564"><ele>108.0</ele><time>2026-04-25T13:51:11.734Z</time></trkpt><trkpt lat="45.8869271" lon="13.9006753"><ele>108.0</ele><time>2026-04-25T13:51:12.735Z</time></trkpt><trkpt lat="45.8869137" lon="13.9005037"><ele>108.0</ele><time>2026-04-25T13:51:13.735Z</time></trkpt><trkpt lat="45.8869046" lon="13.9003296"><ele>108.0</ele><time>2026-04-25T13:51:14.735Z</time></trkpt><trkpt lat="45.886899" lon="13.9001483"><ele>107.75</ele><time>2026-04-25T13:51:15.735Z</time></trkpt><trkpt lat="45.8868957" lon="13.8999593"><ele>107.5</ele><time>2026-04-25T13:51:16.735Z</time></trkpt><trkpt lat="45.8868904" lon="13.8997618"><ele>107.25</ele><time>2026-04-25T13:51:17.735Z</time></trkpt><trkpt lat="45.8868792" lon="13.8995512"><ele>107.0</ele><time>2026-04-25T13:51:18.734Z</time></trkpt><trkpt lat="45.8868699" lon="13.8993294"><ele>107.66666666666666</ele><time>2026-04-25T13:51:19.734Z</time></trkpt><trkpt lat="45.8868682" lon="13.8990956"><ele>108.33333333333334</ele><time>2026-04-25T13:51:20.735Z</time></trkpt><trkpt lat="45.8868718" lon="13.8988541"><ele>109.0</ele><time>2026-04-25T13:51:21.735Z</time></trkpt><trkpt lat="45.8868846" lon="13.8986251"><ele>108.75</ele><time>2026-04-25T13:51:22.735Z</time></trkpt><trkpt lat="45.8869019" lon="13.8984094"><ele>108.5</ele><time>2026-04-25T13:51:23.735Z</time></trkpt><trkpt lat="45.886927" lon="13.8982079"><ele>108.25</ele><time>2026-04-25T13:51:24.735Z</time></trkpt><trkpt lat="45.8869525" lon="13.898023"><ele>108.0</ele><time>2026-04-25T13:51:25.735Z</time></trkpt><trkpt lat="45.8869792" lon="13.8978498"><ele>108.0</ele><time>2026-04-25T13:51:26.734Z</time></trkpt><trkpt lat="45.8870151" lon="13.8976892"><ele>108.00000000000001</ele><time>2026-04-25T13:51:27.734Z</time></trkpt><trkpt lat="45.8870586" lon="13.8975456"><ele>108.00000000000001</ele><time>2026-04-25T13:51:28.735Z</time></trkpt><trkpt lat="45.8871063" lon="13.8974202"><ele>108.0</ele><time>2026-04-25T13:51:29.735Z</time></trkpt><trkpt lat="45.8871392" lon="13.8972867"><ele>108.0</ele><time>2026-04-25T13:51:30.735Z</time></trkpt><trkpt lat="45.8871458" lon="13.8971345"><ele>107.75</ele><time>2026-04-25T13:51:31.735Z</time></trkpt><trkpt lat="45.8871495" lon="13.896962"><ele>107.5</ele><time>2026-04-25T13:51:32.735Z</time></trkpt><trkpt lat="45.8871728" lon="13.8967649"><ele>107.25</ele><time>2026-04-25T13:51:33.735Z</time></trkpt><trkpt lat="45.8872022" lon="13.8965413"><ele>107.0</ele><time>2026-04-25T13:51:34.735Z</time></trkpt><trkpt lat="45.8872388" lon="13.8963041"><ele>107.66666666666666</ele><time>2026-04-25T13:51:35.735Z</time></trkpt><trkpt lat="45.8872813" lon="13.8960614"><ele>108.33333333333334</ele><time>2026-04-25T13:51:36.735Z</time></trkpt><trkpt lat="45.8873091" lon="13.8958129"><ele>109.0</ele><time>2026-04-25T13:51:37.735Z</time></trkpt><trkpt lat="45.8873163" lon="13.8955594"><ele>109.0</ele><time>2026-04-25T13:51:38.735Z</time></trkpt><trkpt lat="45.8873046" lon="13.895302"><ele>109.0</ele><time>2026-04-25T13:51:39.736Z</time></trkpt><trkpt lat="45.8872771" lon="13.8950409"><ele>109.0</ele><time>2026-04-25T13:51:40.735Z</time></trkpt><trkpt lat="45.88724" lon="13.8947802"><ele>109.0</ele><time>2026-04-25T13:51:41.735Z</time></trkpt><trkpt lat="45.887199" lon="13.8945138"><ele>109.0</ele><time>2026-04-25T13:51:42.735Z</time></trkpt><trkpt lat="45.8871569" lon="13.8942442"><ele>109.0</ele><time>2026-04-25T13:51:43.734Z</time></trkpt><trkpt lat="45.8871141" lon="13.8939772"><ele>109.0</ele><time>2026-04-25T13:51:44.735Z</time></trkpt><trkpt lat="45.8870759" lon="13.8937179"><ele>109.0</ele><time>2026-04-25T13:51:45.735Z</time></trkpt><trkpt lat="45.8870359" lon="13.8934678"><ele>109.0</ele><time>2026-04-25T13:51:46.734Z</time></trkpt><trkpt lat="45.8869955" lon="13.8932328"><ele>109.0</ele><time>2026-04-25T13:51:47.735Z</time></trkpt><trkpt lat="45.8869576" lon="13.8930106"><ele>109.0</ele><time>2026-04-25T13:51:48.735Z</time></trkpt><trkpt lat="45.8869187" lon="13.8927996"><ele>109.0</ele><time>2026-04-25T13:51:49.734Z</time></trkpt><trkpt lat="45.8868793" lon="13.8925936"><ele>109.0</ele><time>2026-04-25T13:51:50.735Z</time></trkpt><trkpt lat="45.8868422" lon="13.8923926"><ele>109.0</ele><time>2026-04-25T13:51:51.735Z</time></trkpt><trkpt lat="45.8868061" lon="13.8921893"><ele>109.0</ele><time>2026-04-25T13:51:52.734Z</time></trkpt><trkpt lat="45.8867684" lon="13.8919893"><ele>109.0</ele><time>2026-04-25T13:51:53.735Z</time></trkpt><trkpt lat="45.8867317" lon="13.891795"><ele>109.0</ele><time>2026-04-25T13:51:54.735Z</time></trkpt><trkpt lat="45.8867005" lon="13.8916154"><ele>109.0</ele><time>2026-04-25T13:51:55.734Z</time></trkpt><trkpt lat="45.8866715" lon="13.89144"><ele>109.0</ele><time>2026-04-25T13:51:56.735Z</time></trkpt><trkpt lat="45.8866392" lon="13.8912694"><ele>109.0</ele><time>2026-04-25T13:51:57.735Z</time></trkpt><trkpt lat="45.8866067" lon="13.8911033"><ele>109.0</ele><time>2026-04-25T13:51:58.734Z</time></trkpt><trkpt lat="45.8865756" lon="13.890941"><ele>109.0</ele><time>2026-04-25T13:51:59.735Z</time></trkpt><trkpt lat="45.8865511" lon="13.8907866"><ele>109.0</ele><time>2026-04-25T13:52:00.735Z</time></trkpt><trkpt lat="45.8865269" lon="13.8906455"><ele>109.0</ele><time>2026-04-25T13:52:01.735Z</time></trkpt><trkpt lat="45.8865058" lon="13.8905152"><ele>109.0</ele><time>2026-04-25T13:52:02.735Z</time></trkpt><trkpt lat="45.8864849" lon="13.890403"><ele>109.00000000000001</ele><time>2026-04-25T13:52:03.735Z</time></trkpt><trkpt lat="45.886469" lon="13.8902954"><ele>109.0</ele><time>2026-04-25T13:52:04.735Z</time></trkpt><trkpt lat="45.8864628" lon="13.8901924"><ele>109.0</ele><time>2026-04-25T13:52:05.735Z</time></trkpt><trkpt lat="45.8864664" lon="13.8900951"><ele>109.0</ele><time>2026-04-25T13:52:06.735Z</time></trkpt><trkpt lat="45.8864645" lon="13.8899944"><ele>109.00000000000001</ele><time>2026-04-25T13:52:07.734Z</time></trkpt><trkpt lat="45.8864462" lon="13.8898929"><ele>109.0</ele><time>2026-04-25T13:52:08.735Z</time></trkpt><trkpt lat="45.8864067" lon="13.8897746"><ele>109.0</ele><time>2026-04-25T13:52:09.735Z</time></trkpt><trkpt lat="45.8863635" lon="13.8896114"><ele>109.0</ele><time>2026-04-25T13:52:10.735Z</time></trkpt><trkpt lat="45.8863211" lon="13.8894028"><ele>109.0</ele><time>2026-04-25T13:52:11.735Z</time></trkpt><trkpt lat="45.8862808" lon="13.8891616"><ele>109.0</ele><time>2026-04-25T13:52:12.735Z</time></trkpt><trkpt lat="45.8862372" lon="13.8888843"><ele>109.33333333333334</ele><time>2026-04-25T13:52:13.735Z</time></trkpt><trkpt lat="45.8861971" lon="13.8885909"><ele>109.66666666666666</ele><time>2026-04-25T13:52:14.735Z</time></trkpt><trkpt lat="45.8861568" lon="13.888285"><ele>110.0</ele><time>2026-04-25T13:52:15.735Z</time></trkpt><trkpt lat="45.8861223" lon="13.8879659"><ele>110.5</ele><time>2026-04-25T13:52:16.736Z</time></trkpt><trkpt lat="45.886088" lon="13.8876372"><ele>111.0</ele><time>2026-04-25T13:52:17.735Z</time></trkpt><trkpt lat="45.8860579" lon="13.8873025"><ele>111.0</ele><time>2026-04-25T13:52:18.735Z</time></trkpt><trkpt lat="45.8860273" lon="13.8869675"><ele>111.0</ele><time>2026-04-25T13:52:19.735Z</time></trkpt><trkpt lat="45.8859923" lon="13.8866283"><ele>111.0</ele><time>2026-04-25T13:52:20.735Z</time></trkpt><trkpt lat="45.885958" lon="13.8862844"><ele>111.0</ele><time>2026-04-25T13:52:21.735Z</time></trkpt><trkpt lat="45.8859247" lon="13.8859374"><ele>109.5</ele><time>2026-04-25T13:52:22.735Z</time></trkpt><trkpt lat="45.8858871" lon="13.8855923"><ele>108.0</ele><time>2026-04-25T13:52:23.735Z</time></trkpt><trkpt lat="45.8858514" lon="13.8852449"><ele>108.5</ele><time>2026-04-25T13:52:24.735Z</time></trkpt><trkpt lat="45.885816" lon="13.8848972"><ele>109.0</ele><time>2026-04-25T13:52:25.735Z</time></trkpt><trkpt lat="45.8857842" lon="13.8845433"><ele>108.0</ele><time>2026-04-25T13:52:26.735Z</time></trkpt><trkpt lat="45.8857587" lon="13.8841948"><ele>107.0</ele><time>2026-04-25T13:52:27.734Z</time></trkpt><trkpt lat="45.8857452" lon="13.8838451"><ele>107.0</ele><time>2026-04-25T13:52:28.735Z</time></trkpt><trkpt lat="45.8857365" lon="13.8834975"><ele>107.0</ele><time>2026-04-25T13:52:29.734Z</time></trkpt><trkpt lat="45.8857317" lon="13.8831491"><ele>107.0</ele><time>2026-04-25T13:52:30.735Z</time></trkpt><trkpt lat="45.8857313" lon="13.8828065"><ele>107.0</ele><time>2026-04-25T13:52:31.735Z</time></trkpt><trkpt lat="45.8857361" lon="13.8824738"><ele>107.0</ele><time>2026-04-25T13:52:32.735Z</time></trkpt><trkpt lat="45.8857517" lon="13.8821442"><ele>107.0</ele><time>2026-04-25T13:52:33.735Z</time></trkpt><trkpt lat="45.8857748" lon="13.8818131"><ele>108.0</ele><time>2026-04-25T13:52:34.735Z</time></trkpt><trkpt lat="45.8858087" lon="13.8814809"><ele>109.0</ele><time>2026-04-25T13:52:35.734Z</time></trkpt><trkpt lat="45.8858564" lon="13.8811477"><ele>109.0</ele><time>2026-04-25T13:52:36.735Z</time></trkpt><trkpt lat="45.8859151" lon="13.8808183"><ele>109.0</ele><time>2026-04-25T13:52:37.735Z</time></trkpt><trkpt lat="45.8859795" lon="13.8804929"><ele>109.0</ele><time>2026-04-25T13:52:38.735Z</time></trkpt><trkpt lat="45.8860553" lon="13.8801697"><ele>109.0</ele><time>2026-04-25T13:52:39.735Z</time></trkpt><trkpt lat="45.886142" lon="13.8798481"><ele>109.0</ele><time>2026-04-25T13:52:40.734Z</time></trkpt><trkpt lat="45.8862334" lon="13.8795289"><ele>109.0</ele><time>2026-04-25T13:52:41.735Z</time></trkpt><trkpt lat="45.8863224" lon="13.8792287"><ele>109.0</ele><time>2026-04-25T13:52:42.735Z</time></trkpt><trkpt lat="45.8864062" lon="13.8789389"><ele>109.0</ele><time>2026-04-25T13:52:43.735Z</time></trkpt><trkpt lat="45.8864831" lon="13.8786497"><ele>109.0</ele><time>2026-04-25T13:52:44.735Z</time></trkpt><trkpt lat="45.8865515" lon="13.8783577"><ele>109.0</ele><time>2026-04-25T13:52:45.735Z</time></trkpt><trkpt lat="45.8866107" lon="13.8780635"><ele>109.0</ele><time>2026-04-25T13:52:46.735Z</time></trkpt><trkpt lat="45.8866643" lon="13.8777713"><ele>109.0</ele><time>2026-04-25T13:52:47.735Z</time></trkpt><trkpt lat="45.8867086" lon="13.8774838"><ele>109.0</ele><time>2026-04-25T13:52:48.735Z</time></trkpt><trkpt lat="45.8867404" lon="13.877207"><ele>109.0</ele><time>2026-04-25T13:52:49.735Z</time></trkpt><trkpt lat="45.8867635" lon="13.8769232"><ele>109.0</ele><time>2026-04-25T13:52:50.735Z</time></trkpt><trkpt lat="45.886775" lon="13.8766302"><ele>109.0</ele><time>2026-04-25T13:52:51.735Z</time></trkpt><trkpt lat="45.8867701" lon="13.8763094"><ele>109.0</ele><time>2026-04-25T13:52:52.735Z</time></trkpt><trkpt lat="45.88675" lon="13.8759644"><ele>108.0</ele><time>2026-04-25T13:52:53.735Z</time></trkpt><trkpt lat="45.8867183" lon="13.8755939"><ele>107.0</ele><time>2026-04-25T13:52:54.734Z</time></trkpt><trkpt lat="45.8866791" lon="13.8752104"><ele>107.5</ele><time>2026-04-25T13:52:55.735Z</time></trkpt><trkpt lat="45.8866325" lon="13.8748213"><ele>108.0</ele><time>2026-04-25T13:52:56.735Z</time></trkpt><trkpt lat="45.8865796" lon="13.8744258"><ele>108.5</ele><time>2026-04-25T13:52:57.735Z</time></trkpt><trkpt lat="45.886526" lon="13.8740402"><ele>109.0</ele><time>2026-04-25T13:52:58.735Z</time></trkpt><trkpt lat="45.8864779" lon="13.8736601"><ele>110.5</ele><time>2026-04-25T13:52:59.734Z</time></trkpt><trkpt lat="45.8864408" lon="13.8732858"><ele>112.0</ele><time>2026-04-25T13:53:00.735Z</time></trkpt><trkpt lat="45.8864136" lon="13.8729164"><ele>111.5</ele><time>2026-04-25T13:53:01.735Z</time></trkpt><trkpt lat="45.8863971" lon="13.8725548"><ele>111.0</ele><time>2026-04-25T13:53:02.735Z</time></trkpt><trkpt lat="45.8863939" lon="13.8721949"><ele>111.0</ele><time>2026-04-25T13:53:03.735Z</time></trkpt><trkpt lat="45.886401" lon="13.8718401"><ele>111.0</ele><time>2026-04-25T13:53:04.735Z</time></trkpt><trkpt lat="45.8864202" lon="13.8714913"><ele>110.5</ele><time>2026-04-25T13:53:05.735Z</time></trkpt><trkpt lat="45.8864509" lon="13.8711467"><ele>110.0</ele><time>2026-04-25T13:53:06.735Z</time></trkpt><trkpt lat="45.8864905" lon="13.8708063"><ele>111.5</ele><time>2026-04-25T13:53:07.735Z</time></trkpt><trkpt lat="45.8865337" lon="13.870479"><ele>113.0</ele><time>2026-04-25T13:53:08.735Z</time></trkpt><trkpt lat="45.8865758" lon="13.8701654"><ele>114.0</ele><time>2026-04-25T13:53:09.734Z</time></trkpt><trkpt lat="45.8866178" lon="13.8698627"><ele>115.0</ele><time>2026-04-25T13:53:10.735Z</time></trkpt><trkpt lat="45.8866617" lon="13.8695769"><ele>116.0</ele><time>2026-04-25T13:53:11.735Z</time></trkpt><trkpt lat="45.886718" lon="13.8692968"><ele>116.33333333333333</ele><time>2026-04-25T13:53:12.735Z</time></trkpt><trkpt lat="45.8867834" lon="13.8690206"><ele>116.66666666666666</ele><time>2026-04-25T13:53:13.735Z</time></trkpt><trkpt lat="45.8868556" lon="13.8687543"><ele>117.0</ele><time>2026-04-25T13:53:14.734Z</time></trkpt><trkpt lat="45.8869288" lon="13.8684896"><ele>117.0</ele><time>2026-04-25T13:53:15.735Z</time></trkpt><trkpt lat="45.8870011" lon="13.8682277"><ele>117.0</ele><time>2026-04-25T13:53:16.735Z</time></trkpt><trkpt lat="45.8870702" lon="13.8679647"><ele>117.0</ele><time>2026-04-25T13:53:17.734Z</time></trkpt><trkpt lat="45.8871384" lon="13.8677025"><ele>117.33333333333334</ele><time>2026-04-25T13:53:18.735Z</time></trkpt><trkpt lat="45.8872059" lon="13.8674463"><ele>117.66666666666667</ele><time>2026-04-25T13:53:19.735Z</time></trkpt><trkpt lat="45.887273" lon="13.8671906"><ele>118.0</ele><time>2026-04-25T13:53:20.735Z</time></trkpt><trkpt lat="45.8873373" lon="13.8669469"><ele>118.33333333333334</ele><time>2026-04-25T13:53:21.735Z</time></trkpt><trkpt lat="45.8873969" lon="13.8667204"><ele>118.66666666666666</ele><time>2026-04-25T13:53:22.734Z</time></trkpt><trkpt lat="45.8874514" lon="13.8665076"><ele>119.0</ele><time>2026-04-25T13:53:23.735Z</time></trkpt><trkpt lat="45.8874993" lon="13.8663122"><ele>119.0</ele><time>2026-04-25T13:53:24.735Z</time></trkpt><trkpt lat="45.8875455" lon="13.8661253"><ele>119.0</ele><time>2026-04-25T13:53:25.735Z</time></trkpt><trkpt lat="45.8875898" lon="13.865946"><ele>119.0</ele><time>2026-04-25T13:53:26.735Z</time></trkpt><trkpt lat="45.8876315" lon="13.8657748"><ele>119.0</ele><time>2026-04-25T13:53:27.735Z</time></trkpt><trkpt lat="45.8876725" lon="13.8656096"><ele>119.5</ele><time>2026-04-25T13:53:28.735Z</time></trkpt><trkpt lat="45.8877182" lon="13.8654438"><ele>120.0</ele><time>2026-04-25T13:53:29.735Z</time></trkpt><trkpt lat="45.8877694" lon="13.8652821"><ele>120.5</ele><time>2026-04-25T13:53:30.735Z</time></trkpt><trkpt lat="45.8878285" lon="13.8651151"><ele>121.0</ele><time>2026-04-25T13:53:31.735Z</time></trkpt><trkpt lat="45.8878916" lon="13.8649472"><ele>121.25</ele><time>2026-04-25T13:53:32.736Z</time></trkpt><trkpt lat="45.8879537" lon="13.8647765"><ele>121.5</ele><time>2026-04-25T13:53:33.735Z</time></trkpt><trkpt lat="45.8880158" lon="13.8646009"><ele>121.75</ele><time>2026-04-25T13:53:34.735Z</time></trkpt><trkpt lat="45.8880734" lon="13.8644214"><ele>122.0</ele><time>2026-04-25T13:53:35.734Z</time></trkpt><trkpt lat="45.8881275" lon="13.8642344"><ele>122.0</ele><time>2026-04-25T13:53:36.735Z</time></trkpt><trkpt lat="45.8881751" lon="13.8640423"><ele>122.0</ele><time>2026-04-25T13:53:37.735Z</time></trkpt><trkpt lat="45.8882159" lon="13.8638439"><ele>122.0</ele><time>2026-04-25T13:53:38.734Z</time></trkpt><trkpt lat="45.8882557" lon="13.8636397"><ele>122.0</ele><time>2026-04-25T13:53:39.735Z</time></trkpt><trkpt lat="45.8882956" lon="13.8634346"><ele>122.0</ele><time>2026-04-25T13:53:40.735Z</time></trkpt><trkpt lat="45.8883393" lon="13.8632235"><ele>122.0</ele><time>2026-04-25T13:53:41.735Z</time></trkpt><trkpt lat="45.8883831" lon="13.8630054"><ele>122.0</ele><time>2026-04-25T13:53:42.735Z</time></trkpt><trkpt lat="45.888431" lon="13.8627875"><ele>123.0</ele><time>2026-04-25T13:53:43.735Z</time></trkpt><trkpt lat="45.8884798" lon="13.8625606"><ele>124.0</ele><time>2026-04-25T13:53:44.735Z</time></trkpt><trkpt lat="45.8885305" lon="13.8623304"><ele>125.0</ele><time>2026-04-25T13:53:45.736Z</time></trkpt><trkpt lat="45.8885833" lon="13.8620962"><ele>125.0</ele><time>2026-04-25T13:53:46.735Z</time></trkpt><trkpt lat="45.8886404" lon="13.8618639"><ele>125.0</ele><time>2026-04-25T13:53:47.735Z</time></trkpt><trkpt lat="45.8886975" lon="13.8616309"><ele>125.0</ele><time>2026-04-25T13:53:48.735Z</time></trkpt><trkpt lat="45.8887495" lon="13.8613994"><ele>124.33333333333333</ele><time>2026-04-25T13:53:49.734Z</time></trkpt><trkpt lat="45.8887933" lon="13.86117"><ele>123.66666666666666</ele><time>2026-04-25T13:53:50.735Z</time></trkpt><trkpt lat="45.8888141" lon="13.8609292"><ele>123.0</ele><time>2026-04-25T13:53:51.735Z</time></trkpt><trkpt lat="45.8888035" lon="13.8606797"><ele>123.0</ele><time>2026-04-25T13:53:52.735Z</time></trkpt><trkpt lat="45.8887714" lon="13.8604244"><ele>123.0</ele><time>2026-04-25T13:53:53.735Z</time></trkpt><trkpt lat="45.8887259" lon="13.8601489"><ele>123.0</ele><time>2026-04-25T13:53:54.735Z</time></trkpt><trkpt lat="45.8886714" lon="13.8598594"><ele>122.66666666666666</ele><time>2026-04-25T13:53:55.735Z</time></trkpt><trkpt lat="45.8886157" lon="13.8595693"><ele>122.33333333333333</ele><time>2026-04-25T13:53:56.735Z</time></trkpt><trkpt lat="45.8885507" lon="13.8592756"><ele>122.0</ele><time>2026-04-25T13:53:57.735Z</time></trkpt><trkpt lat="45.8884762" lon="13.859006"><ele>121.0</ele><time>2026-04-25T13:53:58.735Z</time></trkpt><trkpt lat="45.8883955" lon="13.858766"><ele>120.0</ele><time>2026-04-25T13:53:59.735Z</time></trkpt><trkpt lat="45.8883154" lon="13.8585553"><ele>119.0</ele><time>2026-04-25T13:54:00.735Z</time></trkpt><trkpt lat="45.8882382" lon="13.8583703"><ele>119.0</ele><time>2026-04-25T13:54:01.735Z</time></trkpt><trkpt lat="45.8881694" lon="13.8582021"><ele>119.0</ele><time>2026-04-25T13:54:02.735Z</time></trkpt><trkpt lat="45.8881109" lon="13.8580465"><ele>119.0</ele><time>2026-04-25T13:54:03.735Z</time></trkpt><trkpt lat="45.8880554" lon="13.8579014"><ele>119.0</ele><time>2026-04-25T13:54:04.734Z</time></trkpt><trkpt lat="45.887994" lon="13.8577388"><ele>119.66666666666666</ele><time>2026-04-25T13:54:05.735Z</time></trkpt><trkpt lat="45.8879356" lon="13.8575475"><ele>120.33333333333334</ele><time>2026-04-25T13:54:06.735Z</time></trkpt><trkpt lat="45.8878879" lon="13.8573131"><ele>121.0</ele><time>2026-04-25T13:54:07.735Z</time></trkpt><trkpt lat="45.8878529" lon="13.8570487"><ele>122.66666666666667</ele><time>2026-04-25T13:54:08.735Z</time></trkpt><trkpt lat="45.8878243" lon="13.8567521"><ele>124.33333333333334</ele><time>2026-04-25T13:54:09.735Z</time></trkpt><trkpt lat="45.8877998" lon="13.8564412"><ele>126.0</ele><time>2026-04-25T13:54:10.736Z</time></trkpt><trkpt lat="45.887787" lon="13.8561117"><ele>127.5</ele><time>2026-04-25T13:54:11.735Z</time></trkpt><trkpt lat="45.8877907" lon="13.8557837"><ele>129.0</ele><time>2026-04-25T13:54:12.735Z</time></trkpt><trkpt lat="45.8878097" lon="13.8554544"><ele>129.0</ele><time>2026-04-25T13:54:13.735Z</time></trkpt><trkpt lat="45.8878438" lon="13.8551324"><ele>129.0</ele><time>2026-04-25T13:54:14.734Z</time></trkpt><trkpt lat="45.8878879" lon="13.8548241"><ele>129.0</ele><time>2026-04-25T13:54:15.735Z</time></trkpt><trkpt lat="45.8879329" lon="13.8545223"><ele>129.33333333333334</ele><time>2026-04-25T13:54:16.735Z</time></trkpt><trkpt lat="45.887973" lon="13.8542232"><ele>129.66666666666669</ele><time>2026-04-25T13:54:17.735Z</time></trkpt><trkpt lat="45.8880012" lon="13.8539201"><ele>130.0</ele><time>2026-04-25T13:54:18.735Z</time></trkpt><trkpt lat="45.8880091" lon="13.8536144"><ele>128.66666666666669</ele><time>2026-04-25T13:54:19.735Z</time></trkpt><trkpt lat="45.8879914" lon="13.8533057"><ele>127.33333333333334</ele><time>2026-04-25T13:54:20.734Z</time></trkpt><trkpt lat="45.8879488" lon="13.8530002"><ele>126.0</ele><time>2026-04-25T13:54:21.734Z</time></trkpt><trkpt lat="45.8878772" lon="13.8527047"><ele>124.66666666666666</ele><time>2026-04-25T13:54:22.734Z</time></trkpt><trkpt lat="45.887777" lon="13.8524253"><ele>123.33333333333333</ele><time>2026-04-25T13:54:23.733Z</time></trkpt><trkpt lat="45.8876476" lon="13.852168"><ele>122.0</ele><time>2026-04-25T13:54:24.734Z</time></trkpt><trkpt lat="45.887502" lon="13.851927"><ele>121.33333333333333</ele><time>2026-04-25T13:54:25.734Z</time></trkpt><trkpt lat="45.8873494" lon="13.8516922"><ele>120.66666666666666</ele><time>2026-04-25T13:54:26.734Z</time></trkpt><trkpt lat="45.8871994" lon="13.8514577"><ele>120.0</ele><time>2026-04-25T13:54:27.734Z</time></trkpt><trkpt lat="45.8870477" lon="13.8512313"><ele>120.0</ele><time>2026-04-25T13:54:28.733Z</time></trkpt><trkpt lat="45.8869105" lon="13.8509994"><ele>120.0</ele><time>2026-04-25T13:54:29.734Z</time></trkpt><trkpt lat="45.8867885" lon="13.8507524"><ele>120.0</ele><time>2026-04-25T13:54:30.734Z</time></trkpt><trkpt lat="45.8866897" lon="13.8504877"><ele>120.0</ele><time>2026-04-25T13:54:31.734Z</time></trkpt><trkpt lat="45.8866121" lon="13.8502104"><ele>120.0</ele><time>2026-04-25T13:54:32.734Z</time></trkpt><trkpt lat="45.8865635" lon="13.8499195"><ele>120.0</ele><time>2026-04-25T13:54:33.733Z</time></trkpt><trkpt lat="45.8865447" lon="13.8496199"><ele>120.0</ele><time>2026-04-25T13:54:34.734Z</time></trkpt><trkpt lat="45.8865498" lon="13.8493195"><ele>120.0</ele><time>2026-04-25T13:54:35.734Z</time></trkpt><trkpt lat="45.8865834" lon="13.8490179"><ele>120.0</ele><time>2026-04-25T13:54:36.734Z</time></trkpt><trkpt lat="45.8866426" lon="13.848721"><ele>121.66666666666666</ele><time>2026-04-25T13:54:37.734Z</time></trkpt><trkpt lat="45.8867187" lon="13.8484269"><ele>123.33333333333333</ele><time>2026-04-25T13:54:38.734Z</time></trkpt><trkpt lat="45.8867911" lon="13.8481434"><ele>125.0</ele><time>2026-04-25T13:54:39.733Z</time></trkpt><trkpt lat="45.8868539" lon="13.8478621"><ele>125.0</ele><time>2026-04-25T13:54:40.734Z</time></trkpt><trkpt lat="45.8868958" lon="13.8475743"><ele>125.0</ele><time>2026-04-25T13:54:41.734Z</time></trkpt><trkpt lat="45.8869148" lon="13.8472809"><ele>125.0</ele><time>2026-04-25T13:54:42.734Z</time></trkpt><trkpt lat="45.8869071" lon="13.8469844"><ele>124.0</ele><time>2026-04-25T13:54:43.734Z</time></trkpt><trkpt lat="45.8868789" lon="13.8466903"><ele>123.0</ele><time>2026-04-25T13:54:44.734Z</time></trkpt><trkpt lat="45.8868266" lon="13.8464037"><ele>122.0</ele><time>2026-04-25T13:54:45.734Z</time></trkpt><trkpt lat="45.8867569" lon="13.8461215"><ele>121.66666666666666</ele><time>2026-04-25T13:54:46.734Z</time></trkpt><trkpt lat="45.8866662" lon="13.8458535"><ele>121.33333333333334</ele><time>2026-04-25T13:54:47.734Z</time></trkpt><trkpt lat="45.8865554" lon="13.8455984"><ele>121.0</ele><time>2026-04-25T13:54:48.734Z</time></trkpt><trkpt lat="45.8864282" lon="13.84536"><ele>121.0</ele><time>2026-04-25T13:54:49.734Z</time></trkpt><trkpt lat="45.8862907" lon="13.8451356"><ele>121.0</ele><time>2026-04-25T13:54:50.734Z</time></trkpt><trkpt lat="45.8861537" lon="13.8449146"><ele>121.0</ele><time>2026-04-25T13:54:51.734Z</time></trkpt><trkpt lat="45.8860182" lon="13.8446971"><ele>121.0</ele><time>2026-04-25T13:54:52.734Z</time></trkpt><trkpt lat="45.8858872" lon="13.8444907"><ele>121.0</ele><time>2026-04-25T13:54:53.733Z</time></trkpt><trkpt lat="45.8857586" lon="13.8442897"><ele>121.0</ele><time>2026-04-25T13:54:54.734Z</time></trkpt><trkpt lat="45.8856326" lon="13.844094"><ele>121.0</ele><time>2026-04-25T13:54:55.734Z</time></trkpt><trkpt lat="45.88552" lon="13.843905"><ele>121.0</ele><time>2026-04-25T13:54:56.734Z</time></trkpt><trkpt lat="45.8854223" lon="13.8437141"><ele>121.0</ele><time>2026-04-25T13:54:57.734Z</time></trkpt><trkpt lat="45.8853359" lon="13.8435241"><ele>122.5</ele><time>2026-04-25T13:54:58.734Z</time></trkpt><trkpt lat="45.8852613" lon="13.8433355"><ele>124.0</ele><time>2026-04-25T13:54:59.734Z</time></trkpt><trkpt lat="45.8851959" lon="13.8431466"><ele>125.5</ele><time>2026-04-25T13:55:00.734Z</time></trkpt><trkpt lat="45.8851387" lon="13.8429589"><ele>127.0</ele><time>2026-04-25T13:55:01.734Z</time></trkpt><trkpt lat="45.8850879" lon="13.8427692"><ele>124.0</ele><time>2026-04-25T13:55:02.734Z</time></trkpt><trkpt lat="45.8850454" lon="13.8425728"><ele>121.0</ele><time>2026-04-25T13:55:03.734Z</time></trkpt><trkpt lat="45.8850095" lon="13.8423754"><ele>118.0</ele><time>2026-04-25T13:55:04.734Z</time></trkpt><trkpt lat="45.884977" lon="13.8421764"><ele>115.0</ele><time>2026-04-25T13:55:05.734Z</time></trkpt><trkpt lat="45.8849422" lon="13.8419788"><ele>115.0</ele><time>2026-04-25T13:55:06.734Z</time></trkpt><trkpt lat="45.8849074" lon="13.8417823"><ele>115.0</ele><time>2026-04-25T13:55:07.734Z</time></trkpt><trkpt lat="45.8848713" lon="13.841587"><ele>115.0</ele><time>2026-04-25T13:55:08.734Z</time></trkpt><trkpt lat="45.8848393" lon="13.8413908"><ele>115.0</ele><time>2026-04-25T13:55:09.734Z</time></trkpt><trkpt lat="45.8848177" lon="13.8411947"><ele>115.0</ele><time>2026-04-25T13:55:10.734Z</time></trkpt><trkpt lat="45.8848024" lon="13.8409974"><ele>115.0</ele><time>2026-04-25T13:55:11.734Z</time></trkpt><trkpt lat="45.8848007" lon="13.8408023"><ele>115.0</ele><time>2026-04-25T13:55:12.734Z</time></trkpt><trkpt lat="45.8848122" lon="13.840606"><ele>115.0</ele><time>2026-04-25T13:55:13.734Z</time></trkpt><trkpt lat="45.8848362" lon="13.8404184"><ele>115.25</ele><time>2026-04-25T13:55:14.734Z</time></trkpt><trkpt lat="45.8848641" lon="13.840228"><ele>115.5</ele><time>2026-04-25T13:55:15.733Z</time></trkpt><trkpt lat="45.8848934" lon="13.8400419"><ele>115.75</ele><time>2026-04-25T13:55:16.734Z</time></trkpt><trkpt lat="45.8849239" lon="13.8398578"><ele>116.0</ele><time>2026-04-25T13:55:17.734Z</time></trkpt><trkpt lat="45.8849529" lon="13.8396738"><ele>116.25</ele><time>2026-04-25T13:55:18.734Z</time></trkpt><trkpt lat="45.8849729" lon="13.8394886"><ele>116.5</ele><time>2026-04-25T13:55:19.733Z</time></trkpt><trkpt lat="45.884984" lon="13.8392976"><ele>116.75</ele><time>2026-04-25T13:55:20.734Z</time></trkpt><trkpt lat="45.8849839" lon="13.8391033"><ele>117.0</ele><time>2026-04-25T13:55:21.734Z</time></trkpt><trkpt lat="45.8849758" lon="13.8389114"><ele>117.0</ele><time>2026-04-25T13:55:22.734Z</time></trkpt><trkpt lat="45.8849658" lon="13.838719"><ele>117.0</ele><time>2026-04-25T13:55:23.734Z</time></trkpt><trkpt lat="45.8849575" lon="13.8385259"><ele>117.0</ele><time>2026-04-25T13:55:24.734Z</time></trkpt><trkpt lat="45.8849495" lon="13.8383304"><ele>117.0</ele><time>2026-04-25T13:55:25.734Z</time></trkpt><trkpt lat="45.8849386" lon="13.8381352"><ele>116.75</ele><time>2026-04-25T13:55:26.733Z</time></trkpt><trkpt lat="45.88493" lon="13.8379374"><ele>116.5</ele><time>2026-04-25T13:55:27.734Z</time></trkpt><trkpt lat="45.8849257" lon="13.837733"><ele>116.25</ele><time>2026-04-25T13:55:28.734Z</time></trkpt><trkpt lat="45.8849272" lon="13.8375264"><ele>116.0</ele><time>2026-04-25T13:55:29.734Z</time></trkpt><trkpt lat="45.8849354" lon="13.8373164"><ele>116.33333333333333</ele><time>2026-04-25T13:55:30.734Z</time></trkpt><trkpt lat="45.8849514" lon="13.8370993"><ele>116.66666666666666</ele><time>2026-04-25T13:55:31.734Z</time></trkpt><trkpt lat="45.8849783" lon="13.8368683"><ele>117.0</ele><time>2026-04-25T13:55:32.734Z</time></trkpt><trkpt lat="45.8850182" lon="13.8366366"><ele>117.0</ele><time>2026-04-25T13:55:33.734Z</time></trkpt><trkpt lat="45.8850685" lon="13.8364015"><ele>117.0</ele><time>2026-04-25T13:55:34.734Z</time></trkpt><trkpt lat="45.8851285" lon="13.8361599"><ele>117.0</ele><time>2026-04-25T13:55:35.734Z</time></trkpt><trkpt lat="45.8851975" lon="13.835913"><ele>114.33333333333334</ele><time>2026-04-25T13:55:36.733Z</time></trkpt><trkpt lat="45.8852749" lon="13.8356626"><ele>111.66666666666667</ele><time>2026-04-25T13:55:37.734Z</time></trkpt><trkpt lat="45.8853567" lon="13.8354048"><ele>109.0</ele><time>2026-04-25T13:55:38.734Z</time></trkpt><trkpt lat="45.8854382" lon="13.8351434"><ele>107.66666666666667</ele><time>2026-04-25T13:55:39.734Z</time></trkpt><trkpt lat="45.8855184" lon="13.834877"><ele>106.33333333333334</ele><time>2026-04-25T13:55:40.734Z</time></trkpt><trkpt lat="45.8855874" lon="13.8346039"><ele>105.0</ele><time>2026-04-25T13:55:41.734Z</time></trkpt><trkpt lat="45.8856397" lon="13.8343269"><ele>104.33333333333334</ele><time>2026-04-25T13:55:42.733Z</time></trkpt><trkpt lat="45.8856678" lon="13.8340417"><ele>103.66666666666667</ele><time>2026-04-25T13:55:43.734Z</time></trkpt><trkpt lat="45.8856786" lon="13.8337524"><ele>103.0</ele><time>2026-04-25T13:55:44.734Z</time></trkpt><trkpt lat="45.8856694" lon="13.8334617"><ele>103.0</ele><time>2026-04-25T13:55:45.734Z</time></trkpt><trkpt lat="45.8856382" lon="13.8331703"><ele>103.0</ele><time>2026-04-25T13:55:46.734Z</time></trkpt><trkpt lat="45.8855894" lon="13.8328857"><ele>103.0</ele><time>2026-04-25T13:55:47.734Z</time></trkpt><trkpt lat="45.8855357" lon="13.8326061"><ele>103.0</ele><time>2026-04-25T13:55:48.734Z</time></trkpt><trkpt lat="45.8854822" lon="13.8323314"><ele>103.0</ele><time>2026-04-25T13:55:49.734Z</time></trkpt><trkpt lat="45.8854436" lon="13.8320498"><ele>103.0</ele><time>2026-04-25T13:55:50.734Z</time></trkpt><trkpt lat="45.8854217" lon="13.831768"><ele>103.0</ele><time>2026-04-25T13:55:51.734Z</time></trkpt><trkpt lat="45.8854217" lon="13.8314853"><ele>103.0</ele><time>2026-04-25T13:55:52.734Z</time></trkpt><trkpt lat="45.8854398" lon="13.8312009"><ele>103.0</ele><time>2026-04-25T13:55:53.733Z</time></trkpt><trkpt lat="45.8854826" lon="13.8309243"><ele>102.66666666666667</ele><time>2026-04-25T13:55:54.734Z</time></trkpt><trkpt lat="45.8855498" lon="13.8306562"><ele>102.33333333333334</ele><time>2026-04-25T13:55:55.734Z</time></trkpt><trkpt lat="45.8856374" lon="13.8304039"><ele>102.0</ele><time>2026-04-25T13:55:56.733Z</time></trkpt><trkpt lat="45.8857411" lon="13.8301634"><ele>101.33333333333334</ele><time>2026-04-25T13:55:57.734Z</time></trkpt><trkpt lat="45.8858585" lon="13.8299435"><ele>100.66666666666667</ele><time>2026-04-25T13:55:58.734Z</time></trkpt><trkpt lat="45.8859944" lon="13.8297454"><ele>100.0</ele><time>2026-04-25T13:55:59.734Z</time></trkpt><trkpt lat="45.8861414" lon="13.8295721"><ele>101.33333333333334</ele><time>2026-04-25T13:56:00.734Z</time></trkpt><trkpt lat="45.8862884" lon="13.8294119"><ele>102.66666666666666</ele><time>2026-04-25T13:56:01.734Z</time></trkpt><trkpt lat="45.8864366" lon="13.8292845"><ele>104.0</ele><time>2026-04-25T13:56:02.733Z</time></trkpt><trkpt lat="45.8865829" lon="13.8291493"><ele>104.0</ele><time>2026-04-25T13:56:03.734Z</time></trkpt><trkpt lat="45.8867271" lon="13.8290055"><ele>104.0</ele><time>2026-04-25T13:56:04.734Z</time></trkpt><trkpt lat="45.8868545" lon="13.828855"><ele>104.0</ele><time>2026-04-25T13:56:05.734Z</time></trkpt><trkpt lat="45.8869715" lon="13.8286989"><ele>105.66666666666666</ele><time>2026-04-25T13:56:06.733Z</time></trkpt><trkpt lat="45.8870809" lon="13.8285362"><ele>107.33333333333334</ele><time>2026-04-25T13:56:07.734Z</time></trkpt><trkpt lat="45.8871748" lon="13.8283584"><ele>109.0</ele><time>2026-04-25T13:56:08.734Z</time></trkpt><trkpt lat="45.8872611" lon="13.828173"><ele>109.0</ele><time>2026-04-25T13:56:09.734Z</time></trkpt><trkpt lat="45.8873363" lon="13.8279768"><ele>109.0</ele><time>2026-04-25T13:56:10.734Z</time></trkpt><trkpt lat="45.8874042" lon="13.8277661"><ele>109.0</ele><time>2026-04-25T13:56:11.734Z</time></trkpt><trkpt lat="45.8874618" lon="13.8275342"><ele>109.33333333333334</ele><time>2026-04-25T13:56:12.734Z</time></trkpt><trkpt lat="45.887509" lon="13.8272783"><ele>109.66666666666666</ele><time>2026-04-25T13:56:13.734Z</time></trkpt><trkpt lat="45.8875497" lon="13.82698"><ele>110.0</ele><time>2026-04-25T13:56:14.734Z</time></trkpt><trkpt lat="45.8875984" lon="13.826657"><ele>110.0</ele><time>2026-04-25T13:56:15.734Z</time></trkpt><trkpt lat="45.887658" lon="13.8263172"><ele>110.0</ele><time>2026-04-25T13:56:16.734Z</time></trkpt><trkpt lat="45.8877264" lon="13.8259655"><ele>111.0</ele><time>2026-04-25T13:56:17.734Z</time></trkpt><trkpt lat="45.8877922" lon="13.8256204"><ele>112.0</ele><time>2026-04-25T13:56:18.734Z</time></trkpt><trkpt lat="45.8878523" lon="13.825283"><ele>111.5</ele><time>2026-04-25T13:56:19.734Z</time></trkpt><trkpt lat="45.8879058" lon="13.8249476"><ele>111.0</ele><time>2026-04-25T13:56:20.734Z</time></trkpt><trkpt lat="45.8879584" lon="13.8246174"><ele>111.33333333333334</ele><time>2026-04-25T13:56:21.734Z</time></trkpt><trkpt lat="45.8880084" lon="13.8242995"><ele>111.66666666666667</ele><time>2026-04-25T13:56:22.734Z</time></trkpt><trkpt lat="45.8880584" lon="13.823988"><ele>112.0</ele><time>2026-04-25T13:56:23.734Z</time></trkpt><trkpt lat="45.8881078" lon="13.8236766"><ele>112.0</ele><time>2026-04-25T13:56:24.735Z</time></trkpt><trkpt lat="45.8881575" lon="13.8233843"><ele>112.0</ele><time>2026-04-25T13:56:25.734Z</time></trkpt><trkpt lat="45.8882066" lon="13.8231137"><ele>112.0</ele><time>2026-04-25T13:56:26.734Z</time></trkpt><trkpt lat="45.8882486" lon="13.822853"><ele>112.66666666666667</ele><time>2026-04-25T13:56:27.734Z</time></trkpt><trkpt lat="45.8882792" lon="13.8225922"><ele>113.33333333333334</ele><time>2026-04-25T13:56:28.734Z</time></trkpt><trkpt lat="45.8883097" lon="13.822333"><ele>114.0</ele><time>2026-04-25T13:56:29.735Z</time></trkpt><trkpt lat="45.8883438" lon="13.8220808"><ele>114.0</ele><time>2026-04-25T13:56:30.734Z</time></trkpt><trkpt lat="45.888383" lon="13.8218281"><ele>114.0</ele><time>2026-04-25T13:56:31.734Z</time></trkpt><trkpt lat="45.8884263" lon="13.8215773"><ele>114.0</ele><time>2026-04-25T13:56:32.734Z</time></trkpt><trkpt lat="45.8884745" lon="13.8213201"><ele>114.33333333333334</ele><time>2026-04-25T13:56:33.734Z</time></trkpt><trkpt lat="45.8885233" lon="13.8210629"><ele>114.66666666666667</ele><time>2026-04-25T13:56:34.734Z</time></trkpt><trkpt lat="45.8885703" lon="13.8207981"><ele>115.0</ele><time>2026-04-25T13:56:35.734Z</time></trkpt><trkpt lat="45.8886221" lon="13.820524"><ele>116.0</ele><time>2026-04-25T13:56:36.734Z</time></trkpt><trkpt lat="45.8886761" lon="13.8202392"><ele>117.0</ele><time>2026-04-25T13:56:37.733Z</time></trkpt><trkpt lat="45.8887338" lon="13.8199333"><ele>118.0</ele><time>2026-04-25T13:56:38.734Z</time></trkpt><trkpt lat="45.8887891" lon="13.8196105"><ele>118.0</ele><time>2026-04-25T13:56:39.734Z</time></trkpt><trkpt lat="45.8888542" lon="13.8192782"><ele>118.0</ele><time>2026-04-25T13:56:40.734Z</time></trkpt><trkpt lat="45.8889374" lon="13.8189392"><ele>118.0</ele><time>2026-04-25T13:56:41.734Z</time></trkpt><trkpt lat="45.8890434" lon="13.8186165"><ele>118.0</ele><time>2026-04-25T13:56:42.734Z</time></trkpt><trkpt lat="45.8891756" lon="13.8183028"><ele>117.5</ele><time>2026-04-25T13:56:43.734Z</time></trkpt><trkpt lat="45.8893239" lon="13.8179961"><ele>117.0</ele><time>2026-04-25T13:56:44.734Z</time></trkpt><trkpt lat="45.8894773" lon="13.8177052"><ele>116.0</ele><time>2026-04-25T13:56:45.734Z</time></trkpt><trkpt lat="45.8896313" lon="13.8174203"><ele>115.0</ele><time>2026-04-25T13:56:46.734Z</time></trkpt><trkpt lat="45.8897824" lon="13.8171422"><ele>115.0</ele><time>2026-04-25T13:56:47.734Z</time></trkpt><trkpt lat="45.8899307" lon="13.8168625"><ele>115.0</ele><time>2026-04-25T13:56:48.734Z</time></trkpt><trkpt lat="45.8900826" lon="13.8165912"><ele>113.5</ele><time>2026-04-25T13:56:49.734Z</time></trkpt><trkpt lat="45.8902399" lon="13.8163217"><ele>112.0</ele><time>2026-04-25T13:56:50.734Z</time></trkpt><trkpt lat="45.8903962" lon="13.8160524"><ele>111.0</ele><time>2026-04-25T13:56:51.734Z</time></trkpt><trkpt lat="45.8905458" lon="13.8157801"><ele>110.0</ele><time>2026-04-25T13:56:52.734Z</time></trkpt><trkpt lat="45.8906806" lon="13.8154997"><ele>110.0</ele><time>2026-04-25T13:56:53.734Z</time></trkpt><trkpt lat="45.890804" lon="13.8152034"><ele>110.0</ele><time>2026-04-25T13:56:54.734Z</time></trkpt><trkpt lat="45.8909198" lon="13.8148999"><ele>110.5</ele><time>2026-04-25T13:56:55.734Z</time></trkpt><trkpt lat="45.8910309" lon="13.8145983"><ele>111.0</ele><time>2026-04-25T13:56:56.733Z</time></trkpt><trkpt lat="45.8911393" lon="13.814292"><ele>111.0</ele><time>2026-04-25T13:56:57.734Z</time></trkpt><trkpt lat="45.891247" lon="13.8139897"><ele>111.0</ele><time>2026-04-25T13:56:58.734Z</time></trkpt><trkpt lat="45.891354" lon="13.813691"><ele>111.5</ele><time>2026-04-25T13:56:59.733Z</time></trkpt><trkpt lat="45.8914569" lon="13.8133964"><ele>112.0</ele><time>2026-04-25T13:57:00.734Z</time></trkpt><trkpt lat="45.891557" lon="13.8131089"><ele>112.0</ele><time>2026-04-25T13:57:01.734Z</time></trkpt><trkpt lat="45.8916535" lon="13.8128356"><ele>112.0</ele><time>2026-04-25T13:57:02.733Z</time></trkpt><trkpt lat="45.8917469" lon="13.8125696"><ele>112.0</ele><time>2026-04-25T13:57:03.734Z</time></trkpt><trkpt lat="45.8918324" lon="13.8123162"><ele>113.33333333333334</ele><time>2026-04-25T13:57:04.734Z</time></trkpt><trkpt lat="45.8919118" lon="13.8120728"><ele>114.66666666666666</ele><time>2026-04-25T13:57:05.734Z</time></trkpt><trkpt lat="45.8919873" lon="13.811838"><ele>116.0</ele><time>2026-04-25T13:57:06.734Z</time></trkpt><trkpt lat="45.8920547" lon="13.811604"><ele>116.0</ele><time>2026-04-25T13:57:07.734Z</time></trkpt><trkpt lat="45.892116" lon="13.8113689"><ele>116.0</ele><time>2026-04-25T13:57:08.734Z</time></trkpt><trkpt lat="45.8921752" lon="13.8111344"><ele>116.0</ele><time>2026-04-25T13:57:09.734Z</time></trkpt><trkpt lat="45.8922345" lon="13.8108991"><ele>116.0</ele><time>2026-04-25T13:57:10.734Z</time></trkpt><trkpt lat="45.8922945" lon="13.8106718"><ele>116.0</ele><time>2026-04-25T13:57:11.734Z</time></trkpt><trkpt lat="45.8923556" lon="13.8104535"><ele>116.0</ele><time>2026-04-25T13:57:12.734Z</time></trkpt><trkpt lat="45.8924226" lon="13.8102454"><ele>117.33333333333333</ele><time>2026-04-25T13:57:13.734Z</time></trkpt><trkpt lat="45.8924959" lon="13.8100457"><ele>118.66666666666666</ele><time>2026-04-25T13:57:14.734Z</time></trkpt><trkpt lat="45.8925729" lon="13.8098514"><ele>120.0</ele><time>2026-04-25T13:57:15.734Z</time></trkpt><trkpt lat="45.8926517" lon="13.8096618"><ele>120.0</ele><time>2026-04-25T13:57:16.734Z</time></trkpt><trkpt lat="45.8927302" lon="13.8094737"><ele>120.0</ele><time>2026-04-25T13:57:17.734Z</time></trkpt><trkpt lat="45.8928103" lon="13.8092842"><ele>120.0</ele><time>2026-04-25T13:57:18.734Z</time></trkpt><trkpt lat="45.8928929" lon="13.8090945"><ele>120.0</ele><time>2026-04-25T13:57:19.733Z</time></trkpt><trkpt lat="45.8929754" lon="13.8089061"><ele>120.0</ele><time>2026-04-25T13:57:20.734Z</time></trkpt><trkpt lat="45.8930567" lon="13.8087182"><ele>120.0</ele><time>2026-04-25T13:57:21.734Z</time></trkpt><trkpt lat="45.8931394" lon="13.808526"><ele>119.33333333333334</ele><time>2026-04-25T13:57:22.733Z</time></trkpt><trkpt lat="45.893223" lon="13.808335"><ele>118.66666666666667</ele><time>2026-04-25T13:57:23.734Z</time></trkpt><trkpt lat="45.8933094" lon="13.8081385"><ele>118.0</ele><time>2026-04-25T13:57:24.734Z</time></trkpt><trkpt lat="45.8933951" lon="13.8079422"><ele>118.0</ele><time>2026-04-25T13:57:25.734Z</time></trkpt><trkpt lat="45.8934794" lon="13.8077434"><ele>118.0</ele><time>2026-04-25T13:57:26.734Z</time></trkpt><trkpt lat="45.8935642" lon="13.8075451"><ele>118.0</ele><time>2026-04-25T13:57:27.734Z</time></trkpt><trkpt lat="45.8936522" lon="13.8073457"><ele>118.0</ele><time>2026-04-25T13:57:28.734Z</time></trkpt><trkpt lat="45.8937394" lon="13.8071443"><ele>118.0</ele><time>2026-04-25T13:57:29.734Z</time></trkpt><trkpt lat="45.8938289" lon="13.8069374"><ele>118.0</ele><time>2026-04-25T13:57:30.734Z</time></trkpt><trkpt lat="45.8939212" lon="13.8067311"><ele>117.0</ele><time>2026-04-25T13:57:31.734Z</time></trkpt><trkpt lat="45.8940179" lon="13.8065253"><ele>116.0</ele><time>2026-04-25T13:57:32.734Z</time></trkpt><trkpt lat="45.8941205" lon="13.8063207"><ele>115.0</ele><time>2026-04-25T13:57:33.734Z</time></trkpt><trkpt lat="45.8942267" lon="13.8061152"><ele>114.33333333333334</ele><time>2026-04-25T13:57:34.734Z</time></trkpt><trkpt lat="45.8943391" lon="13.8059115"><ele>113.66666666666666</ele><time>2026-04-25T13:57:35.735Z</time></trkpt><trkpt lat="45.8944541" lon="13.8057063"><ele>113.0</ele><time>2026-04-25T13:57:36.733Z</time></trkpt><trkpt lat="45.8945664" lon="13.8054892"><ele>113.0</ele><time>2026-04-25T13:57:37.734Z</time></trkpt><trkpt lat="45.8946802" lon="13.805255"><ele>113.0</ele><time>2026-04-25T13:57:38.734Z</time></trkpt><trkpt lat="45.8947953" lon="13.8050065"><ele>113.0</ele><time>2026-04-25T13:57:39.734Z</time></trkpt><trkpt lat="45.8949151" lon="13.8047569"><ele>112.66666666666666</ele><time>2026-04-25T13:57:40.734Z</time></trkpt><trkpt lat="45.8950375" lon="13.8044992"><ele>112.33333333333334</ele><time>2026-04-25T13:57:41.734Z</time></trkpt><trkpt lat="45.895158" lon="13.80424"><ele>112.0</ele><time>2026-04-25T13:57:42.734Z</time></trkpt><trkpt lat="45.8952769" lon="13.8039877"><ele>113.0</ele><time>2026-04-25T13:57:43.734Z</time></trkpt><trkpt lat="45.8953971" lon="13.8037397"><ele>114.0</ele><time>2026-04-25T13:57:44.733Z</time></trkpt><trkpt lat="45.895517" lon="13.8034942"><ele>115.0</ele><time>2026-04-25T13:57:45.733Z</time></trkpt><trkpt lat="45.8956339" lon="13.8032533"><ele>115.33333333333334</ele><time>2026-04-25T13:57:46.733Z</time></trkpt><trkpt lat="45.8957449" lon="13.8030193"><ele>115.66666666666666</ele><time>2026-04-25T13:57:47.733Z</time></trkpt><trkpt lat="45.8958449" lon="13.8027918"><ele>116.0</ele><time>2026-04-25T13:57:48.732Z</time></trkpt><trkpt lat="45.8959229" lon="13.8025598"><ele>118.33333333333333</ele><time>2026-04-25T13:57:49.733Z</time></trkpt><trkpt lat="45.8959687" lon="13.8023012"><ele>120.66666666666666</ele><time>2026-04-25T13:57:50.733Z</time></trkpt><trkpt lat="45.8959744" lon="13.8020339"><ele>123.0</ele><time>2026-04-25T13:57:51.733Z</time></trkpt><trkpt lat="45.8959496" lon="13.8017479"><ele>123.0</ele><time>2026-04-25T13:57:52.733Z</time></trkpt><trkpt lat="45.8959001" lon="13.8014467"><ele>123.0</ele><time>2026-04-25T13:57:53.732Z</time></trkpt><trkpt lat="45.8958294" lon="13.8011619"><ele>123.0</ele><time>2026-04-25T13:57:54.733Z</time></trkpt><trkpt lat="45.8957384" lon="13.8008915"><ele>126.33333333333334</ele><time>2026-04-25T13:57:55.733Z</time></trkpt><trkpt lat="45.8956347" lon="13.8006376"><ele>129.66666666666669</ele><time>2026-04-25T13:57:56.732Z</time></trkpt><trkpt lat="45.895527" lon="13.8003877"><ele>133.0</ele><time>2026-04-25T13:57:57.733Z</time></trkpt><trkpt lat="45.8954124" lon="13.80016"><ele>133.0</ele><time>2026-04-25T13:57:58.733Z</time></trkpt><trkpt lat="45.8952816" lon="13.7999532"><ele>133.0</ele><time>2026-04-25T13:57:59.733Z</time></trkpt><trkpt lat="45.8951305" lon="13.7997694"><ele>133.0</ele><time>2026-04-25T13:58:00.733Z</time></trkpt><trkpt lat="45.8949528" lon="13.7995958"><ele>133.0</ele><time>2026-04-25T13:58:01.733Z</time></trkpt><trkpt lat="45.8947495" lon="13.7994462"><ele>133.0</ele><time>2026-04-25T13:58:02.733Z</time></trkpt><trkpt lat="45.8945395" lon="13.7993332"><ele>133.33333333333334</ele><time>2026-04-25T13:58:03.733Z</time></trkpt><trkpt lat="45.8943287" lon="13.7992474"><ele>133.66666666666666</ele><time>2026-04-25T13:58:04.733Z</time></trkpt><trkpt lat="45.8941268" lon="13.7991712"><ele>134.0</ele><time>2026-04-25T13:58:05.733Z</time></trkpt><trkpt lat="45.8939287" lon="13.7991075"><ele>134.0</ele><time>2026-04-25T13:58:06.733Z</time></trkpt><trkpt lat="45.8937392" lon="13.7990541"><ele>134.0</ele><time>2026-04-25T13:58:07.733Z</time></trkpt><trkpt lat="45.8935597" lon="13.7989943"><ele>134.0</ele><time>2026-04-25T13:58:08.733Z</time></trkpt><trkpt lat="45.8933871" lon="13.7989187"><ele>133.66666666666666</ele><time>2026-04-25T13:58:09.733Z</time></trkpt><trkpt lat="45.8932224" lon="13.7988237"><ele>133.33333333333334</ele><time>2026-04-25T13:58:10.733Z</time></trkpt><trkpt lat="45.8930694" lon="13.7986949"><ele>133.0</ele><time>2026-04-25T13:58:11.733Z</time></trkpt><trkpt lat="45.8929348" lon="13.79853"><ele>134.0</ele><time>2026-04-25T13:58:12.732Z</time></trkpt><trkpt lat="45.8928189" lon="13.7983307"><ele>135.0</ele><time>2026-04-25T13:58:13.733Z</time></trkpt><trkpt lat="45.8927232" lon="13.7981048"><ele>136.0</ele><time>2026-04-25T13:58:14.733Z</time></trkpt><trkpt lat="45.8926597" lon="13.7978569"><ele>137.33333333333334</ele><time>2026-04-25T13:58:15.733Z</time></trkpt><trkpt lat="45.892627" lon="13.7975825"><ele>138.66666666666666</ele><time>2026-04-25T13:58:16.733Z</time></trkpt><trkpt lat="45.8926283" lon="13.7972899"><ele>140.0</ele><time>2026-04-25T13:58:17.733Z</time></trkpt><trkpt lat="45.8926683" lon="13.7969863"><ele>141.0</ele><time>2026-04-25T13:58:18.733Z</time></trkpt><trkpt lat="45.8927445" lon="13.7966917"><ele>142.0</ele><time>2026-04-25T13:58:19.733Z</time></trkpt><trkpt lat="45.8928508" lon="13.7964143"><ele>143.0</ele><time>2026-04-25T13:58:20.733Z</time></trkpt><trkpt lat="45.8929578" lon="13.7961636"><ele>143.0</ele><time>2026-04-25T13:58:21.733Z</time></trkpt><trkpt lat="45.8930651" lon="13.79593"><ele>143.0</ele><time>2026-04-25T13:58:22.733Z</time></trkpt><trkpt lat="45.8931648" lon="13.7957026"><ele>143.0</ele><time>2026-04-25T13:58:23.732Z</time></trkpt><trkpt lat="45.8932529" lon="13.7954723"><ele>143.0</ele><time>2026-04-25T13:58:24.733Z</time></trkpt><trkpt lat="45.8933262" lon="13.7952371"><ele>143.0</ele><time>2026-04-25T13:58:25.733Z</time></trkpt><trkpt lat="45.8933821" lon="13.7950004"><ele>143.0</ele><time>2026-04-25T13:58:26.733Z</time></trkpt><trkpt lat="45.8934194" lon="13.7947645"><ele>143.66666666666666</ele><time>2026-04-25T13:58:27.733Z</time></trkpt><trkpt lat="45.8934399" lon="13.7945356"><ele>144.33333333333334</ele><time>2026-04-25T13:58:28.732Z</time></trkpt><trkpt lat="45.8934494" lon="13.7943121"><ele>145.0</ele><time>2026-04-25T13:58:29.733Z</time></trkpt><trkpt lat="45.8934566" lon="13.7940879"><ele>145.0</ele><time>2026-04-25T13:58:30.732Z</time></trkpt><trkpt lat="45.8934566" lon="13.7938805"><ele>145.0</ele><time>2026-04-25T13:58:31.733Z</time></trkpt><trkpt lat="45.8934586" lon="13.7936703"><ele>145.0</ele><time>2026-04-25T13:58:32.733Z</time></trkpt><trkpt lat="45.8934614" lon="13.7934574"><ele>145.0</ele><time>2026-04-25T13:58:33.733Z</time></trkpt><trkpt lat="45.8934629" lon="13.7932495"><ele>145.25</ele><time>2026-04-25T13:58:34.733Z</time></trkpt><trkpt lat="45.8934647" lon="13.793045"><ele>145.5</ele><time>2026-04-25T13:58:35.733Z</time></trkpt><trkpt lat="45.8934685" lon="13.7928394"><ele>145.75</ele><time>2026-04-25T13:58:36.733Z</time></trkpt><trkpt lat="45.8934724" lon="13.792637"><ele>146.0</ele><time>2026-04-25T13:58:37.732Z</time></trkpt><trkpt lat="45.8934769" lon="13.7924325"><ele>146.0</ele><time>2026-04-25T13:58:38.733Z</time></trkpt><trkpt lat="45.8934801" lon="13.7922409"><ele>146.0</ele><time>2026-04-25T13:58:39.733Z</time></trkpt><trkpt lat="45.8934804" lon="13.7920645"><ele>146.0</ele><time>2026-04-25T13:58:40.733Z</time></trkpt><trkpt lat="45.893484" lon="13.7918909"><ele>146.0</ele><time>2026-04-25T13:58:41.733Z</time></trkpt><trkpt lat="45.8934883" lon="13.7917216"><ele>146.0</ele><time>2026-04-25T13:58:42.733Z</time></trkpt><trkpt lat="45.8934923" lon="13.7915514"><ele>146.0</ele><time>2026-04-25T13:58:43.733Z</time></trkpt><trkpt lat="45.893498" lon="13.791377"><ele>146.0</ele><time>2026-04-25T13:58:44.732Z</time></trkpt><trkpt lat="45.8935066" lon="13.7912122"><ele>146.0</ele><time>2026-04-25T13:58:45.732Z</time></trkpt><trkpt lat="45.8935222" lon="13.7910566"><ele>146.2</ele><time>2026-04-25T13:58:46.732Z</time></trkpt><trkpt lat="45.8935461" lon="13.7909105"><ele>146.39999999999998</ele><time>2026-04-25T13:58:47.732Z</time></trkpt><trkpt lat="45.8935762" lon="13.7907736"><ele>146.6</ele><time>2026-04-25T13:58:48.733Z</time></trkpt><trkpt lat="45.8936029" lon="13.7906505"><ele>146.79999999999998</ele><time>2026-04-25T13:58:49.733Z</time></trkpt><trkpt lat="45.8936014" lon="13.7905382"><ele>147.0</ele><time>2026-04-25T13:58:50.733Z</time></trkpt><trkpt lat="45.8935681" lon="13.7904341"><ele>147.0</ele><time>2026-04-25T13:58:51.733Z</time></trkpt><trkpt lat="45.8935306" lon="13.7903126"><ele>147.0</ele><time>2026-04-25T13:58:52.733Z</time></trkpt><trkpt lat="45.8935145" lon="13.7901366"><ele>147.0</ele><time>2026-04-25T13:58:53.733Z</time></trkpt><trkpt lat="45.8935093" lon="13.7899208"><ele>147.0</ele><time>2026-04-25T13:58:54.733Z</time></trkpt><trkpt lat="45.8935139" lon="13.7896665"><ele>146.0</ele><time>2026-04-25T13:58:55.733Z</time></trkpt><trkpt lat="45.8935128" lon="13.7893864"><ele>145.0</ele><time>2026-04-25T13:58:56.733Z</time></trkpt><trkpt lat="45.8935173" lon="13.7890708"><ele>144.0</ele><time>2026-04-25T13:58:57.733Z</time></trkpt><trkpt lat="45.8935167" lon="13.7887322"><ele>139.0</ele><time>2026-04-25T13:58:58.733Z</time></trkpt><trkpt lat="45.8935149" lon="13.788366"><ele>134.0</ele><time>2026-04-25T13:58:59.732Z</time></trkpt><trkpt lat="45.8935183" lon="13.787973"><ele>133.0</ele><time>2026-04-25T13:59:00.733Z</time></trkpt><trkpt lat="45.8935262" lon="13.7875788"><ele>132.0</ele><time>2026-04-25T13:59:01.733Z</time></trkpt><trkpt lat="45.8935377" lon="13.7871814"><ele>131.5</ele><time>2026-04-25T13:59:02.732Z</time></trkpt><trkpt lat="45.8935477" lon="13.7867864"><ele>131.0</ele><time>2026-04-25T13:59:03.733Z</time></trkpt><trkpt lat="45.8935562" lon="13.7863961"><ele>131.0</ele><time>2026-04-25T13:59:04.733Z</time></trkpt><trkpt lat="45.8935627" lon="13.7860141"><ele>131.0</ele><time>2026-04-25T13:59:05.733Z</time></trkpt><trkpt lat="45.893569" lon="13.7856418"><ele>130.0</ele><time>2026-04-25T13:59:06.733Z</time></trkpt><trkpt lat="45.8935732" lon="13.7852783"><ele>129.0</ele><time>2026-04-25T13:59:07.732Z</time></trkpt><trkpt lat="45.8935751" lon="13.784916"><ele>129.0</ele><time>2026-04-25T13:59:08.733Z</time></trkpt><trkpt lat="45.8935749" lon="13.7845386"><ele>129.0</ele><time>2026-04-25T13:59:09.733Z</time></trkpt><trkpt lat="45.8935765" lon="13.7841465"><ele>128.5</ele><time>2026-04-25T13:59:10.732Z</time></trkpt><trkpt lat="45.893587" lon="13.7837442"><ele>128.0</ele><time>2026-04-25T13:59:11.733Z</time></trkpt><trkpt lat="45.8936022" lon="13.7833364"><ele>128.0</ele><time>2026-04-25T13:59:12.733Z</time></trkpt><trkpt lat="45.8936123" lon="13.7829431"><ele>128.0</ele><time>2026-04-25T13:59:13.733Z</time></trkpt><trkpt lat="45.8936194" lon="13.7825555"><ele>130.0</ele><time>2026-04-25T13:59:14.733Z</time></trkpt><trkpt lat="45.8936233" lon="13.7821735"><ele>132.0</ele><time>2026-04-25T13:59:15.733Z</time></trkpt><trkpt lat="45.893628" lon="13.7818008"><ele>132.0</ele><time>2026-04-25T13:59:16.733Z</time></trkpt><trkpt lat="45.8936326" lon="13.7814449"><ele>132.0</ele><time>2026-04-25T13:59:17.733Z</time></trkpt><trkpt lat="45.8936379" lon="13.7811013"><ele>132.0</ele><time>2026-04-25T13:59:18.733Z</time></trkpt><trkpt lat="45.8936452" lon="13.7807709"><ele>132.0</ele><time>2026-04-25T13:59:19.733Z</time></trkpt><trkpt lat="45.893651" lon="13.7804495"><ele>132.0</ele><time>2026-04-25T13:59:20.733Z</time></trkpt><trkpt lat="45.8936587" lon="13.7801332"><ele>132.0</ele><time>2026-04-25T13:59:21.732Z</time></trkpt><trkpt lat="45.8936667" lon="13.7798273"><ele>132.0</ele><time>2026-04-25T13:59:22.733Z</time></trkpt><trkpt lat="45.8936687" lon="13.779528"><ele>132.0</ele><time>2026-04-25T13:59:23.733Z</time></trkpt><trkpt lat="45.8936674" lon="13.7792432"><ele>132.0</ele><time>2026-04-25T13:59:24.732Z</time></trkpt><trkpt lat="45.8936675" lon="13.7789734"><ele>132.0</ele><time>2026-04-25T13:59:25.733Z</time></trkpt><trkpt lat="45.8936694" lon="13.7787171"><ele>131.66666666666666</ele><time>2026-04-25T13:59:26.733Z</time></trkpt><trkpt lat="45.893674" lon="13.7784682"><ele>131.33333333333331</ele><time>2026-04-25T13:59:27.733Z</time></trkpt><trkpt lat="45.8936835" lon="13.7782229"><ele>131.0</ele><time>2026-04-25T13:59:28.733Z</time></trkpt><trkpt lat="45.8937004" lon="13.7779781"><ele>131.0</ele><time>2026-04-25T13:59:29.733Z</time></trkpt><trkpt lat="45.8937319" lon="13.7777365"><ele>131.0</ele><time>2026-04-25T13:59:30.733Z</time></trkpt><trkpt lat="45.8937719" lon="13.7774942"><ele>131.0</ele><time>2026-04-25T13:59:31.733Z</time></trkpt><trkpt lat="45.8938225" lon="13.7772532"><ele>131.33333333333331</ele><time>2026-04-25T13:59:32.733Z</time></trkpt><trkpt lat="45.8938753" lon="13.7770201"><ele>131.66666666666666</ele><time>2026-04-25T13:59:33.733Z</time></trkpt><trkpt lat="45.8939262" lon="13.7767905"><ele>132.0</ele><time>2026-04-25T13:59:34.732Z</time></trkpt><trkpt lat="45.8939641" lon="13.7765642"><ele>131.5</ele><time>2026-04-25T13:59:35.733Z</time></trkpt><trkpt lat="45.8939848" lon="13.7763482"><ele>131.0</ele><time>2026-04-25T13:59:36.733Z</time></trkpt><trkpt lat="45.8939901" lon="13.7761487"><ele>130.5</ele><time>2026-04-25T13:59:37.733Z</time></trkpt><trkpt lat="45.8939739" lon="13.7759686"><ele>130.0</ele><time>2026-04-25T13:59:38.733Z</time></trkpt><trkpt lat="45.8939219" lon="13.7758035"><ele>127.66666666666667</ele><time>2026-04-25T13:59:39.734Z</time></trkpt><trkpt lat="45.8938289" lon="13.7756445"><ele>125.33333333333334</ele><time>2026-04-25T13:59:40.733Z</time></trkpt><trkpt lat="45.8937084" lon="13.7754644"><ele>123.0</ele><time>2026-04-25T13:59:41.733Z</time></trkpt><trkpt lat="45.8935814" lon="13.7752569"><ele>121.66666666666666</ele><time>2026-04-25T13:59:42.733Z</time></trkpt><trkpt lat="45.8934662" lon="13.7750484"><ele>120.33333333333333</ele><time>2026-04-25T13:59:43.733Z</time></trkpt><trkpt lat="45.8933763" lon="13.7748361"><ele>119.0</ele><time>2026-04-25T13:59:44.733Z</time></trkpt><trkpt lat="45.8932974" lon="13.7746286"><ele>119.0</ele><time>2026-04-25T13:59:45.733Z</time></trkpt><trkpt lat="45.8932283" lon="13.7744521"><ele>119.0</ele><time>2026-04-25T13:59:46.732Z</time></trkpt><trkpt lat="45.8931505" lon="13.7743117"><ele>119.0</ele><time>2026-04-25T13:59:47.733Z</time></trkpt><trkpt lat="45.8930532" lon="13.7742113"><ele>119.0</ele><time>2026-04-25T13:59:48.733Z</time></trkpt><trkpt lat="45.8929376" lon="13.7741828"><ele>117.33333333333333</ele><time>2026-04-25T13:59:49.733Z</time></trkpt><trkpt lat="45.8928107" lon="13.7742184"><ele>115.66666666666666</ele><time>2026-04-25T13:59:50.733Z</time></trkpt><trkpt lat="45.8926601" lon="13.7742586"><ele>114.0</ele><time>2026-04-25T13:59:51.733Z</time></trkpt><trkpt lat="45.8924851" lon="13.7742699"><ele>114.0</ele><time>2026-04-25T13:59:52.733Z</time></trkpt><trkpt lat="45.8922946" lon="13.7742384"><ele>114.0</ele><time>2026-04-25T13:59:53.733Z</time></trkpt><trkpt lat="45.8920973" lon="13.7741735"><ele>114.0</ele><time>2026-04-25T13:59:54.733Z</time></trkpt><trkpt lat="45.8919203" lon="13.7741022"><ele>114.0</ele><time>2026-04-25T13:59:55.733Z</time></trkpt><trkpt lat="45.8917581" lon="13.7740389"><ele>114.0</ele><time>2026-04-25T13:59:56.732Z</time></trkpt><trkpt lat="45.8916182" lon="13.773987"><ele>114.0</ele><time>2026-04-25T13:59:57.733Z</time></trkpt><trkpt lat="45.8915041" lon="13.7739434"><ele>114.0</ele><time>2026-04-25T13:59:58.733Z</time></trkpt><trkpt lat="45.8914118" lon="13.7739003"><ele>113.4</ele><time>2026-04-25T13:59:59.732Z</time></trkpt><trkpt lat="45.8913485" lon="13.7738328"><ele>112.80000000000001</ele><time>2026-04-25T14:00:00.733Z</time></trkpt><trkpt lat="45.8913272" lon="13.7737462"><ele>112.19999999999999</ele><time>2026-04-25T14:00:01.733Z</time></trkpt><trkpt lat="45.8913538" lon="13.773662"><ele>111.6</ele><time>2026-04-25T14:00:02.733Z</time></trkpt><trkpt lat="45.8915445" lon="13.7735902"><ele>111.0</ele><time>2026-04-25T14:00:04.734Z</time></trkpt><trkpt lat="45.89167" lon="13.7735969"><ele>112.0</ele><time>2026-04-25T14:00:05.733Z</time></trkpt><trkpt lat="45.8918169" lon="13.7736052"><ele>113.0</ele><time>2026-04-25T14:00:06.733Z</time></trkpt><trkpt lat="45.8919763" lon="13.7736111"><ele>114.0</ele><time>2026-04-25T14:00:07.733Z</time></trkpt><trkpt lat="45.8921194" lon="13.7736196"><ele>114.0</ele><time>2026-04-25T14:00:08.733Z</time></trkpt><trkpt lat="45.8922522" lon="13.7736005"><ele>114.0</ele><time>2026-04-25T14:00:09.733Z</time></trkpt><trkpt lat="45.8923661" lon="13.7735355"><ele>114.0</ele><time>2026-04-25T14:00:10.733Z</time></trkpt><trkpt lat="45.8924564" lon="13.7734249"><ele>114.0</ele><time>2026-04-25T14:00:11.733Z</time></trkpt><trkpt lat="45.8925185" lon="13.7732898"><ele>111.0</ele><time>2026-04-25T14:00:12.733Z</time></trkpt><trkpt lat="45.8925411" lon="13.7731392"><ele>108.0</ele><time>2026-04-25T14:00:13.733Z</time></trkpt><trkpt lat="45.8925222" lon="13.7729742"><ele>105.0</ele><time>2026-04-25T14:00:14.733Z</time></trkpt><trkpt lat="45.8924717" lon="13.7728063"><ele>102.0</ele><time>2026-04-25T14:00:15.733Z</time></trkpt><trkpt lat="45.8924328" lon="13.7726428"><ele>100.5</ele><time>2026-04-25T14:00:16.733Z</time></trkpt><trkpt lat="45.8924259" lon="13.772465"><ele>99.0</ele><time>2026-04-25T14:00:17.733Z</time></trkpt><trkpt lat="45.8924594" lon="13.7722807"><ele>97.5</ele><time>2026-04-25T14:00:18.732Z</time></trkpt><trkpt lat="45.8924929" lon="13.772087"><ele>96.0</ele><time>2026-04-25T14:00:19.733Z</time></trkpt><trkpt lat="45.8925684" lon="13.7719555"><ele>95.0</ele><time>2026-04-25T14:00:20.733Z</time></trkpt><trkpt lat="45.8926032" lon="13.7718205"><ele>94.0</ele><time>2026-04-25T14:00:21.733Z</time></trkpt><trkpt lat="45.8925993" lon="13.7717008"><ele>93.0</ele><time>2026-04-25T14:00:22.733Z</time></trkpt><trkpt lat="45.8925587" lon="13.7716211"><ele>92.0</ele><time>2026-04-25T14:00:23.733Z</time></trkpt><trkpt lat="45.8924336" lon="13.7716642"><ele>91.0</ele><time>2026-04-25T14:00:25.733Z</time></trkpt><trkpt lat="45.8923727" lon="13.7717787"><ele>92.25</ele><time>2026-04-25T14:00:26.733Z</time></trkpt><trkpt lat="45.8923162" lon="13.7719196"><ele>93.5</ele><time>2026-04-25T14:00:27.733Z</time></trkpt><trkpt lat="45.8922411" lon="13.772038"><ele>94.75</ele><time>2026-04-25T14:00:28.733Z</time></trkpt><trkpt lat="45.8921621" lon="13.7721471"><ele>96.0</ele><time>2026-04-25T14:00:29.733Z</time></trkpt><trkpt lat="45.8920167" lon="13.7721563"><ele>96.0</ele><time>2026-04-25T14:00:30.733Z</time></trkpt><trkpt lat="45.8919056" lon="13.7721365"><ele>96.0</ele><time>2026-04-25T14:00:31.733Z</time></trkpt><trkpt lat="45.8917948" lon="13.772047"><ele>96.0</ele><time>2026-04-25T14:00:32.732Z</time></trkpt><trkpt lat="45.8917124" lon="13.7718864"><ele>96.0</ele><time>2026-04-25T14:00:33.732Z</time></trkpt><trkpt lat="45.8916411" lon="13.7716702"><ele>93.0</ele><time>2026-04-25T14:00:34.733Z</time></trkpt><trkpt lat="45.891584" lon="13.7714178"><ele>90.0</ele><time>2026-04-25T14:00:35.733Z</time></trkpt><trkpt lat="45.8915167" lon="13.7711355"><ele>87.0</ele><time>2026-04-25T14:00:36.733Z</time></trkpt><trkpt lat="45.8914465" lon="13.7708401"><ele>85.33333333333333</ele><time>2026-04-25T14:00:37.733Z</time></trkpt><trkpt lat="45.8913765" lon="13.7705384"><ele>83.66666666666666</ele><time>2026-04-25T14:00:38.733Z</time></trkpt><trkpt lat="45.8913043" lon="13.7702469"><ele>82.0</ele><time>2026-04-25T14:00:39.733Z</time></trkpt><trkpt lat="45.8912386" lon="13.7699739"><ele>82.33333333333333</ele><time>2026-04-25T14:00:40.733Z</time></trkpt><trkpt lat="45.8911734" lon="13.7697177"><ele>82.66666666666667</ele><time>2026-04-25T14:00:41.733Z</time></trkpt><trkpt lat="45.8911012" lon="13.7694891"><ele>83.0</ele><time>2026-04-25T14:00:42.732Z</time></trkpt><trkpt lat="45.8910043" lon="13.7692944"><ele>81.0</ele><time>2026-04-25T14:00:43.733Z</time></trkpt><trkpt lat="45.8908788" lon="13.7691336"><ele>79.0</ele><time>2026-04-25T14:00:44.733Z</time></trkpt><trkpt lat="45.89073" lon="13.7690005"><ele>77.0</ele><time>2026-04-25T14:00:45.733Z</time></trkpt><trkpt lat="45.8905785" lon="13.7688518"><ele>77.0</ele><time>2026-04-25T14:00:46.732Z</time></trkpt><trkpt lat="45.8904353" lon="13.7686709"><ele>77.0</ele><time>2026-04-25T14:00:47.733Z</time></trkpt><trkpt lat="45.8903034" lon="13.7684656"><ele>77.0</ele><time>2026-04-25T14:00:48.733Z</time></trkpt><trkpt lat="45.8901811" lon="13.7682356"><ele>76.66666666666667</ele><time>2026-04-25T14:00:49.733Z</time></trkpt><trkpt lat="45.8900679" lon="13.7679892"><ele>76.33333333333333</ele><time>2026-04-25T14:00:50.733Z</time></trkpt><trkpt lat="45.8899705" lon="13.7677229"><ele>76.0</ele><time>2026-04-25T14:00:51.732Z</time></trkpt><trkpt lat="45.8898873" lon="13.7674381"><ele>76.0</ele><time>2026-04-25T14:00:52.733Z</time></trkpt><trkpt lat="45.8898044" lon="13.7671462"><ele>76.0</ele><time>2026-04-25T14:00:53.733Z</time></trkpt><trkpt lat="45.8897236" lon="13.7668503"><ele>76.0</ele><time>2026-04-25T14:00:54.733Z</time></trkpt><trkpt lat="45.8896476" lon="13.7665424"><ele>76.5</ele><time>2026-04-25T14:00:55.733Z</time></trkpt><trkpt lat="45.8895732" lon="13.766227"><ele>77.0</ele><time>2026-04-25T14:00:56.733Z</time></trkpt><trkpt lat="45.8895027" lon="13.7659092"><ele>76.0</ele><time>2026-04-25T14:00:57.733Z</time></trkpt><trkpt lat="45.8894323" lon="13.7655833"><ele>75.0</ele><time>2026-04-25T14:00:58.733Z</time></trkpt><trkpt lat="45.8893591" lon="13.7652541"><ele>75.5</ele><time>2026-04-25T14:00:59.733Z</time></trkpt><trkpt lat="45.8892852" lon="13.7649252"><ele>76.0</ele><time>2026-04-25T14:01:00.733Z</time></trkpt><trkpt lat="45.8892116" lon="13.7645926"><ele>71.5</ele><time>2026-04-25T14:01:01.733Z</time></trkpt><trkpt lat="45.8891425" lon="13.7642572"><ele>67.0</ele><time>2026-04-25T14:01:02.733Z</time></trkpt><trkpt lat="45.8890792" lon="13.7639192"><ele>67.0</ele><time>2026-04-25T14:01:03.732Z</time></trkpt><trkpt lat="45.8890304" lon="13.7635786"><ele>67.0</ele><time>2026-04-25T14:01:04.733Z</time></trkpt><trkpt lat="45.888997" lon="13.7632352"><ele>69.5</ele><time>2026-04-25T14:01:05.733Z</time></trkpt><trkpt lat="45.8889824" lon="13.7628916"><ele>72.0</ele><time>2026-04-25T14:01:06.732Z</time></trkpt><trkpt lat="45.8889838" lon="13.7625484"><ele>72.0</ele><time>2026-04-25T14:01:07.733Z</time></trkpt><trkpt lat="45.8889929" lon="13.7622073"><ele>72.0</ele><time>2026-04-25T14:01:08.733Z</time></trkpt><trkpt lat="45.8890053" lon="13.7618668"><ele>70.0</ele><time>2026-04-25T14:01:09.733Z</time></trkpt><trkpt lat="45.8890202" lon="13.7615152"><ele>68.0</ele><time>2026-04-25T14:01:10.733Z</time></trkpt><trkpt lat="45.8890279" lon="13.7611596"><ele>67.5</ele><time>2026-04-25T14:01:11.733Z</time></trkpt><trkpt lat="45.8890244" lon="13.760802"><ele>67.0</ele><time>2026-04-25T14:01:12.733Z</time></trkpt><trkpt lat="45.8890185" lon="13.7604422"><ele>68.5</ele><time>2026-04-25T14:01:13.732Z</time></trkpt><trkpt lat="45.8890095" lon="13.7600824"><ele>70.0</ele><time>2026-04-25T14:01:14.732Z</time></trkpt><trkpt lat="45.888999" lon="13.7597263"><ele>70.0</ele><time>2026-04-25T14:01:15.732Z</time></trkpt><trkpt lat="45.8889862" lon="13.759395"><ele>70.0</ele><time>2026-04-25T14:01:16.732Z</time></trkpt><trkpt lat="45.8889735" lon="13.75909"><ele>70.0</ele><time>2026-04-25T14:01:17.732Z</time></trkpt><trkpt lat="45.8889592" lon="13.7588078"><ele>71.66666666666666</ele><time>2026-04-25T14:01:18.732Z</time></trkpt><trkpt lat="45.8889437" lon="13.7585535"><ele>73.33333333333333</ele><time>2026-04-25T14:01:19.732Z</time></trkpt><trkpt lat="45.8889279" lon="13.7583272"><ele>75.0</ele><time>2026-04-25T14:01:20.731Z</time></trkpt><trkpt lat="45.8889029" lon="13.758119"><ele>76.75</ele><time>2026-04-25T14:01:21.732Z</time></trkpt><trkpt lat="45.8888648" lon="13.757926"><ele>78.5</ele><time>2026-04-25T14:01:22.732Z</time></trkpt><trkpt lat="45.8888047" lon="13.757758"><ele>80.25</ele><time>2026-04-25T14:01:23.732Z</time></trkpt><trkpt lat="45.8887312" lon="13.7576117"><ele>82.0</ele><time>2026-04-25T14:01:24.732Z</time></trkpt><trkpt lat="45.888667" lon="13.7574615"><ele>83.0</ele><time>2026-04-25T14:01:25.732Z</time></trkpt><trkpt lat="45.888631" lon="13.7572822"><ele>84.0</ele><time>2026-04-25T14:01:26.731Z</time></trkpt><trkpt lat="45.8886232" lon="13.7570752"><ele>85.0</ele><time>2026-04-25T14:01:27.732Z</time></trkpt><trkpt lat="45.8886357" lon="13.7568582"><ele>86.0</ele><time>2026-04-25T14:01:28.732Z</time></trkpt><trkpt lat="45.88867" lon="13.7566502"><ele>83.5</ele><time>2026-04-25T14:01:29.732Z</time></trkpt><trkpt lat="45.8887085" lon="13.7564573"><ele>81.0</ele><time>2026-04-25T14:01:30.732Z</time></trkpt><trkpt lat="45.8887271" lon="13.7562679"><ele>78.5</ele><time>2026-04-25T14:01:31.731Z</time></trkpt><trkpt lat="45.8887085" lon="13.7560955"><ele>76.0</ele><time>2026-04-25T14:01:32.732Z</time></trkpt><trkpt lat="45.8886558" lon="13.7559612"><ele>75.25</ele><time>2026-04-25T14:01:33.732Z</time></trkpt><trkpt lat="45.8885664" lon="13.755872"><ele>74.5</ele><time>2026-04-25T14:01:34.732Z</time></trkpt><trkpt lat="45.8884438" lon="13.7558061"><ele>73.75</ele><time>2026-04-25T14:01:35.732Z</time></trkpt><trkpt lat="45.8883156" lon="13.755695"><ele>73.0</ele><time>2026-04-25T14:01:36.731Z</time></trkpt><trkpt lat="45.888199" lon="13.7555472"><ele>72.5</ele><time>2026-04-25T14:01:37.732Z</time></trkpt><trkpt lat="45.8881127" lon="13.7553914"><ele>72.0</ele><time>2026-04-25T14:01:38.732Z</time></trkpt><trkpt lat="45.888057" lon="13.7552225"><ele>71.5</ele><time>2026-04-25T14:01:39.732Z</time></trkpt><trkpt lat="45.8880447" lon="13.755027"><ele>71.0</ele><time>2026-04-25T14:01:40.732Z</time></trkpt><trkpt lat="45.8880291" lon="13.7548205"><ele>73.0</ele><time>2026-04-25T14:01:41.732Z</time></trkpt><trkpt lat="45.8880531" lon="13.754648"><ele>75.0</ele><time>2026-04-25T14:01:42.731Z</time></trkpt><trkpt lat="45.8881683" lon="13.7545298"><ele>77.0</ele><time>2026-04-25T14:01:43.732Z</time></trkpt><trkpt lat="45.8881819" lon="13.7543844"><ele>79.0</ele><time>2026-04-25T14:01:44.732Z</time></trkpt><trkpt lat="45.888143" lon="13.7542603"><ele>81.0</ele><time>2026-04-25T14:01:45.732Z</time></trkpt><trkpt lat="45.8880607" lon="13.7541611"><ele>83.0</ele><time>2026-04-25T14:01:46.732Z</time></trkpt><trkpt lat="45.8879331" lon="13.7541188"><ele>85.0</ele><time>2026-04-25T14:01:47.732Z</time></trkpt><trkpt lat="45.8877926" lon="13.7540889"><ele>87.0</ele><time>2026-04-25T14:01:48.732Z</time></trkpt><trkpt lat="45.8876633" lon="13.7540258"><ele>88.0</ele><time>2026-04-25T14:01:49.732Z</time></trkpt><trkpt lat="45.887542" lon="13.7539017"><ele>89.0</ele><time>2026-04-25T14:01:50.732Z</time></trkpt><trkpt lat="45.8874394" lon="13.7537344"><ele>90.0</ele><time>2026-04-25T14:01:51.732Z</time></trkpt><trkpt lat="45.8873642" lon="13.7535335"><ele>90.0</ele><time>2026-04-25T14:01:52.731Z</time></trkpt><trkpt lat="45.8873199" lon="13.7533162"><ele>90.0</ele><time>2026-04-25T14:01:53.732Z</time></trkpt><trkpt lat="45.8873116" lon="13.7530881"><ele>90.0</ele><time>2026-04-25T14:01:54.731Z</time></trkpt><trkpt lat="45.8873367" lon="13.7528431"><ele>91.66666666666667</ele><time>2026-04-25T14:01:55.732Z</time></trkpt><trkpt lat="45.8873873" lon="13.752556"><ele>93.33333333333334</ele><time>2026-04-25T14:01:56.731Z</time></trkpt><trkpt lat="45.8874542" lon="13.7522492"><ele>95.0</ele><time>2026-04-25T14:01:57.732Z</time></trkpt><trkpt lat="45.8875085" lon="13.7519172"><ele>94.66666666666667</ele><time>2026-04-25T14:01:58.731Z</time></trkpt><trkpt lat="45.8875456" lon="13.7515934"><ele>94.33333333333333</ele><time>2026-04-25T14:01:59.732Z</time></trkpt><trkpt lat="45.8875754" lon="13.7512927"><ele>94.0</ele><time>2026-04-25T14:02:00.732Z</time></trkpt><trkpt lat="45.8875992" lon="13.7510113"><ele>95.0</ele><time>2026-04-25T14:02:01.732Z</time></trkpt><trkpt lat="45.8876044" lon="13.7507515"><ele>96.0</ele><time>2026-04-25T14:02:02.732Z</time></trkpt><trkpt lat="45.8875898" lon="13.7504923"><ele>97.0</ele><time>2026-04-25T14:02:03.731Z</time></trkpt><trkpt lat="45.8875571" lon="13.7502362"><ele>96.33333333333334</ele><time>2026-04-25T14:02:04.732Z</time></trkpt><trkpt lat="45.8875237" lon="13.7499863"><ele>95.66666666666667</ele><time>2026-04-25T14:02:05.732Z</time></trkpt><trkpt lat="45.8874802" lon="13.7497417"><ele>95.0</ele><time>2026-04-25T14:02:06.732Z</time></trkpt><trkpt lat="45.8874554" lon="13.7495051"><ele>93.66666666666667</ele><time>2026-04-25T14:02:07.732Z</time></trkpt><trkpt lat="45.887458" lon="13.7492659"><ele>92.33333333333333</ele><time>2026-04-25T14:02:08.731Z</time></trkpt><trkpt lat="45.8874901" lon="13.7490401"><ele>91.0</ele><time>2026-04-25T14:02:09.732Z</time></trkpt><trkpt lat="45.8875429" lon="13.748812"><ele>92.66666666666666</ele><time>2026-04-25T14:02:10.732Z</time></trkpt><trkpt lat="45.8876085" lon="13.7485855"><ele>94.33333333333333</ele><time>2026-04-25T14:02:11.732Z</time></trkpt><trkpt lat="45.8876713" lon="13.7483465"><ele>96.0</ele><time>2026-04-25T14:02:12.732Z</time></trkpt><trkpt lat="45.8877124" lon="13.7481016"><ele>92.33333333333333</ele><time>2026-04-25T14:02:13.732Z</time></trkpt><trkpt lat="45.8877349" lon="13.7478467"><ele>88.66666666666666</ele><time>2026-04-25T14:02:14.732Z</time></trkpt><trkpt lat="45.8877538" lon="13.7475934"><ele>85.0</ele><time>2026-04-25T14:02:15.732Z</time></trkpt><trkpt lat="45.8877723" lon="13.7473503"><ele>81.66666666666666</ele><time>2026-04-25T14:02:16.732Z</time></trkpt><trkpt lat="45.8877944" lon="13.7471149"><ele>78.33333333333333</ele><time>2026-04-25T14:02:17.731Z</time></trkpt><trkpt lat="45.8878149" lon="13.7468868"><ele>75.0</ele><time>2026-04-25T14:02:18.732Z</time></trkpt><trkpt lat="45.887839" lon="13.746669"><ele>73.75</ele><time>2026-04-25T14:02:19.732Z</time></trkpt><trkpt lat="45.8878651" lon="13.74646"><ele>72.5</ele><time>2026-04-25T14:02:20.733Z</time></trkpt><trkpt lat="45.8878949" lon="13.7462587"><ele>71.25</ele><time>2026-04-25T14:02:21.732Z</time></trkpt><trkpt lat="45.8879256" lon="13.7460669"><ele>70.0</ele><time>2026-04-25T14:02:22.731Z</time></trkpt><trkpt lat="45.8879562" lon="13.7458825"><ele>69.0</ele><time>2026-04-25T14:02:23.732Z</time></trkpt><trkpt lat="45.8879881" lon="13.7457075"><ele>68.0</ele><time>2026-04-25T14:02:24.732Z</time></trkpt><trkpt lat="45.8880229" lon="13.7455335"><ele>67.0</ele><time>2026-04-25T14:02:25.732Z</time></trkpt><trkpt lat="45.8880563" lon="13.7453591"><ele>66.0</ele><time>2026-04-25T14:02:26.732Z</time></trkpt><trkpt lat="45.8880925" lon="13.7451787"><ele>65.0</ele><time>2026-04-25T14:02:27.732Z</time></trkpt><trkpt lat="45.8881296" lon="13.7449957"><ele>64.0</ele><time>2026-04-25T14:02:28.732Z</time></trkpt><trkpt lat="45.8881629" lon="13.7448133"><ele>63.0</ele><time>2026-04-25T14:02:29.732Z</time></trkpt><trkpt lat="45.8881885" lon="13.7446301"><ele>62.0</ele><time>2026-04-25T14:02:30.732Z</time></trkpt><trkpt lat="45.8882138" lon="13.7444459"><ele>61.25</ele><time>2026-04-25T14:02:31.731Z</time></trkpt><trkpt lat="45.8882344" lon="13.7442709"><ele>60.5</ele><time>2026-04-25T14:02:32.732Z</time></trkpt><trkpt lat="45.8882512" lon="13.7440952"><ele>59.75</ele><time>2026-04-25T14:02:33.732Z</time></trkpt><trkpt lat="45.8882635" lon="13.743923"><ele>59.0</ele><time>2026-04-25T14:02:34.731Z</time></trkpt><trkpt lat="45.8882688" lon="13.7437529"><ele>59.0</ele><time>2026-04-25T14:02:35.731Z</time></trkpt><trkpt lat="45.8882588" lon="13.7435854"><ele>59.0</ele><time>2026-04-25T14:02:36.732Z</time></trkpt><trkpt lat="45.8882414" lon="13.7434149"><ele>59.0</ele><time>2026-04-25T14:02:37.732Z</time></trkpt><trkpt lat="45.8882239" lon="13.7432225"><ele>59.0</ele><time>2026-04-25T14:02:38.732Z</time></trkpt><trkpt lat="45.8881885" lon="13.7429822"><ele>59.0</ele><time>2026-04-25T14:02:39.731Z</time></trkpt><trkpt lat="45.88816" lon="13.742715"><ele>59.0</ele><time>2026-04-25T14:02:40.732Z</time></trkpt><trkpt lat="45.8881375" lon="13.7424263"><ele>59.0</ele><time>2026-04-25T14:02:41.732Z</time></trkpt><trkpt lat="45.8881171" lon="13.742127"><ele>58.333333333333336</ele><time>2026-04-25T14:02:42.732Z</time></trkpt><trkpt lat="45.8881033" lon="13.741831"><ele>57.66666666666667</ele><time>2026-04-25T14:02:43.732Z</time></trkpt><trkpt lat="45.888099" lon="13.7415557"><ele>57.0</ele><time>2026-04-25T14:02:44.732Z</time></trkpt><trkpt lat="45.8881136" lon="13.7413023"><ele>57.0</ele><time>2026-04-25T14:02:45.732Z</time></trkpt><trkpt lat="45.8881579" lon="13.7410673"><ele>57.0</ele><time>2026-04-25T14:02:46.732Z</time></trkpt><trkpt lat="45.8882423" lon="13.7408508"><ele>57.0</ele><time>2026-04-25T14:02:47.731Z</time></trkpt><trkpt lat="45.8883556" lon="13.7406615"><ele>57.33333333333333</ele><time>2026-04-25T14:02:48.732Z</time></trkpt><trkpt lat="45.8884709" lon="13.7404794"><ele>57.666666666666664</ele><time>2026-04-25T14:02:49.732Z</time></trkpt><trkpt lat="45.8885594" lon="13.7402786"><ele>58.0</ele><time>2026-04-25T14:02:50.732Z</time></trkpt><trkpt lat="45.8886197" lon="13.7400758"><ele>60.0</ele><time>2026-04-25T14:02:51.732Z</time></trkpt><trkpt lat="45.8886492" lon="13.7398614"><ele>62.0</ele><time>2026-04-25T14:02:52.732Z</time></trkpt><trkpt lat="45.8886501" lon="13.7396432"><ele>64.0</ele><time>2026-04-25T14:02:53.732Z</time></trkpt><trkpt lat="45.8886265" lon="13.7394257"><ele>65.66666666666666</ele><time>2026-04-25T14:02:54.732Z</time></trkpt><trkpt lat="45.8885861" lon="13.7392119"><ele>67.33333333333333</ele><time>2026-04-25T14:02:55.732Z</time></trkpt><trkpt lat="45.8885448" lon="13.7389907"><ele>69.0</ele><time>2026-04-25T14:02:56.732Z</time></trkpt><trkpt lat="45.8884972" lon="13.7387745"><ele>69.0</ele><time>2026-04-25T14:02:57.732Z</time></trkpt><trkpt lat="45.8884479" lon="13.738574"><ele>69.0</ele><time>2026-04-25T14:02:58.732Z</time></trkpt><trkpt lat="45.8883983" lon="13.7383955"><ele>69.0</ele><time>2026-04-25T14:02:59.732Z</time></trkpt><trkpt lat="45.8883302" lon="13.7382402"><ele>69.0</ele><time>2026-04-25T14:03:00.732Z</time></trkpt><trkpt lat="45.8882346" lon="13.7381123"><ele>69.0</ele><time>2026-04-25T14:03:01.731Z</time></trkpt><trkpt lat="45.8881154" lon="13.7380004"><ele>69.0</ele><time>2026-04-25T14:03:02.732Z</time></trkpt><trkpt lat="45.8879909" lon="13.7378912"><ele>69.0</ele><time>2026-04-25T14:03:03.732Z</time></trkpt><trkpt lat="45.8878652" lon="13.7377836"><ele>69.0</ele><time>2026-04-25T14:03:04.732Z</time></trkpt><trkpt lat="45.8877478" lon="13.7376838"><ele>69.0</ele><time>2026-04-25T14:03:05.732Z</time></trkpt><trkpt lat="45.8876402" lon="13.7375943"><ele>69.0</ele><time>2026-04-25T14:03:06.732Z</time></trkpt><trkpt lat="45.8875408" lon="13.7375116"><ele>69.0</ele><time>2026-04-25T14:03:07.732Z</time></trkpt><trkpt lat="45.8874598" lon="13.7374459"><ele>69.0</ele><time>2026-04-25T14:03:08.732Z</time></trkpt><trkpt lat="45.8873977" lon="13.737396"><ele>69.0</ele><time>2026-04-25T14:03:09.731Z</time></trkpt><trkpt lat="45.8873024" lon="13.7373321"><ele>69.66666666666667</ele><time>2026-04-25T14:03:11.732Z</time></trkpt><trkpt lat="45.8872265" lon="13.7372748"><ele>70.33333333333333</ele><time>2026-04-25T14:03:13.732Z</time></trkpt><trkpt lat="45.8871499" lon="13.7372056"><ele>71.0</ele><time>2026-04-25T14:03:15.732Z</time></trkpt><trkpt lat="45.8870627" lon="13.7371285"><ele>71.66666666666666</ele><time>2026-04-25T14:03:17.732Z</time></trkpt><trkpt lat="45.8870034" lon="13.7370624"><ele>72.33333333333333</ele><time>2026-04-25T14:03:18.732Z</time></trkpt><trkpt lat="45.8869437" lon="13.7369828"><ele>73.0</ele><time>2026-04-25T14:03:19.732Z</time></trkpt><trkpt lat="45.8869007" lon="13.7369156"><ele>73.0</ele><time>2026-04-25T14:03:20.732Z</time></trkpt><trkpt lat="45.8868416" lon="13.7368039"><ele>73.0</ele><time>2026-04-25T14:03:22.732Z</time></trkpt><trkpt lat="45.8868032" lon="13.7367226"><ele>73.0</ele><time>2026-04-25T14:03:24.732Z</time></trkpt><trkpt lat="45.8867406" lon="13.7366272"><ele>73.0</ele><time>2026-04-25T14:03:26.731Z</time></trkpt><trkpt lat="45.8867068" lon="13.7365373"><ele>73.0</ele><time>2026-04-25T14:03:27.732Z</time></trkpt><trkpt lat="45.8866563" lon="13.7364253"><ele>73.0</ele><time>2026-04-25T14:03:28.732Z</time></trkpt><trkpt lat="45.8865996" lon="13.7363051"><ele>73.2</ele><time>2026-04-25T14:03:29.731Z</time></trkpt><trkpt lat="45.8865389" lon="13.7361684"><ele>73.4</ele><time>2026-04-25T14:03:30.732Z</time></trkpt><trkpt lat="45.8864748" lon="13.7360288"><ele>73.60000000000001</ele><time>2026-04-25T14:03:31.732Z</time></trkpt><trkpt lat="45.886414" lon="13.7358951"><ele>73.8</ele><time>2026-04-25T14:03:32.732Z</time></trkpt><trkpt lat="45.8863573" lon="13.7357735"><ele>74.0</ele><time>2026-04-25T14:03:33.732Z</time></trkpt><trkpt lat="45.8863084" lon="13.7356484"><ele>72.60000000000001</ele><time>2026-04-25T14:03:34.731Z</time></trkpt><trkpt lat="45.8862641" lon="13.7355427"><ele>71.2</ele><time>2026-04-25T14:03:35.732Z</time></trkpt><trkpt lat="45.8862236" lon="13.735454"><ele>69.80000000000001</ele><time>2026-04-25T14:03:36.732Z</time></trkpt><trkpt lat="45.8861647" lon="13.7353363"><ele>68.4</ele><time>2026-04-25T14:03:38.732Z</time></trkpt><trkpt lat="45.8861139" lon="13.7351678"><ele>67.0</ele><time>2026-04-25T14:03:40.731Z</time></trkpt><trkpt lat="45.8860701" lon="13.7350484"><ele>66.5</ele><time>2026-04-25T14:03:41.732Z</time></trkpt><trkpt lat="45.886008" lon="13.7349321"><ele>66.0</ele><time>2026-04-25T14:03:42.732Z</time></trkpt><trkpt lat="45.8859169" lon="13.7347999"><ele>65.5</ele><time>2026-04-25T14:03:43.732Z</time></trkpt><trkpt lat="45.8858088" lon="13.7346767"><ele>65.0</ele><time>2026-04-25T14:03:44.732Z</time></trkpt><trkpt lat="45.8856979" lon="13.7345585"><ele>64.5</ele><time>2026-04-25T14:03:45.732Z</time></trkpt><trkpt lat="45.8855858" lon="13.7344371"><ele>64.0</ele><time>2026-04-25T14:03:46.731Z</time></trkpt><trkpt lat="45.8854726" lon="13.7343223"><ele>63.5</ele><time>2026-04-25T14:03:47.732Z</time></trkpt><trkpt lat="45.8853702" lon="13.7342031"><ele>63.0</ele><time>2026-04-25T14:03:48.732Z</time></trkpt><trkpt lat="45.8852836" lon="13.7340649"><ele>62.25</ele><time>2026-04-25T14:03:49.732Z</time></trkpt><trkpt lat="45.8852202" lon="13.7338959"><ele>61.5</ele><time>2026-04-25T14:03:50.732Z</time></trkpt><trkpt lat="45.8851867" lon="13.733705"><ele>60.75</ele><time>2026-04-25T14:03:51.731Z</time></trkpt><trkpt lat="45.8851814" lon="13.7335152"><ele>60.0</ele><time>2026-04-25T14:03:52.732Z</time></trkpt><trkpt lat="45.8851944" lon="13.7333439"><ele>59.833333333333336</ele><time>2026-04-25T14:03:53.733Z</time></trkpt><trkpt lat="45.8852124" lon="13.7331929"><ele>59.66666666666667</ele><time>2026-04-25T14:03:54.731Z</time></trkpt><trkpt lat="45.8852354" lon="13.7330627"><ele>59.5</ele><time>2026-04-25T14:03:55.732Z</time></trkpt><trkpt lat="45.8852559" lon="13.7329532"><ele>59.333333333333336</ele><time>2026-04-25T14:03:56.732Z</time></trkpt><trkpt lat="45.8852753" lon="13.7328473"><ele>59.16666666666667</ele><time>2026-04-25T14:03:57.732Z</time></trkpt><trkpt lat="45.8852945" lon="13.7327314"><ele>59.0</ele><time>2026-04-25T14:03:58.732Z</time></trkpt><trkpt lat="45.8853165" lon="13.7325845"><ele>59.0</ele><time>2026-04-25T14:03:59.731Z</time></trkpt><trkpt lat="45.8853299" lon="13.732407"><ele>59.0</ele><time>2026-04-25T14:04:00.732Z</time></trkpt><trkpt lat="45.8853322" lon="13.7322134"><ele>59.0</ele><time>2026-04-25T14:04:01.732Z</time></trkpt><trkpt lat="45.8853313" lon="13.732019"><ele>59.0</ele><time>2026-04-25T14:04:02.731Z</time></trkpt><trkpt lat="45.8853236" lon="13.7318138"><ele>59.0</ele><time>2026-04-25T14:04:03.732Z</time></trkpt><trkpt lat="45.8853073" lon="13.7316031"><ele>59.0</ele><time>2026-04-25T14:04:04.732Z</time></trkpt><trkpt lat="45.8852835" lon="13.7313862"><ele>59.0</ele><time>2026-04-25T14:04:05.731Z</time></trkpt><trkpt lat="45.8852597" lon="13.7311589"><ele>58.0</ele><time>2026-04-25T14:04:06.732Z</time></trkpt><trkpt lat="45.8852431" lon="13.7309254"><ele>57.0</ele><time>2026-04-25T14:04:07.732Z</time></trkpt><trkpt lat="45.8852366" lon="13.7306887"><ele>56.0</ele><time>2026-04-25T14:04:08.732Z</time></trkpt><trkpt lat="45.885231" lon="13.7304522"><ele>55.66666666666667</ele><time>2026-04-25T14:04:09.732Z</time></trkpt><trkpt lat="45.8852311" lon="13.7302172"><ele>55.33333333333333</ele><time>2026-04-25T14:04:10.732Z</time></trkpt><trkpt lat="45.8852306" lon="13.729993"><ele>55.0</ele><time>2026-04-25T14:04:11.732Z</time></trkpt><trkpt lat="45.8852279" lon="13.7297715"><ele>55.0</ele><time>2026-04-25T14:04:12.731Z</time></trkpt><trkpt lat="45.885218" lon="13.7295567"><ele>55.0</ele><time>2026-04-25T14:04:13.732Z</time></trkpt><trkpt lat="45.8852061" lon="13.7293577"><ele>55.0</ele><time>2026-04-25T14:04:14.732Z</time></trkpt><trkpt lat="45.8851939" lon="13.7291738"><ele>55.0</ele><time>2026-04-25T14:04:15.732Z</time></trkpt><trkpt lat="45.8851814" lon="13.729"><ele>54.6</ele><time>2026-04-25T14:04:16.732Z</time></trkpt><trkpt lat="45.8851708" lon="13.7288373"><ele>54.2</ele><time>2026-04-25T14:04:17.731Z</time></trkpt><trkpt lat="45.8851629" lon="13.7286842"><ele>53.8</ele><time>2026-04-25T14:04:18.732Z</time></trkpt><trkpt lat="45.8851517" lon="13.7285491"><ele>53.4</ele><time>2026-04-25T14:04:19.732Z</time></trkpt><trkpt lat="45.8851258" lon="13.7284333"><ele>53.0</ele><time>2026-04-25T14:04:20.732Z</time></trkpt><trkpt lat="45.8850755" lon="13.7283463"><ele>54.2</ele><time>2026-04-25T14:04:21.732Z</time></trkpt><trkpt lat="45.885015" lon="13.7282699"><ele>55.4</ele><time>2026-04-25T14:04:22.732Z</time></trkpt><trkpt lat="45.8849629" lon="13.7281428"><ele>56.60000000000001</ele><time>2026-04-25T14:04:23.732Z</time></trkpt><trkpt lat="45.884917" lon="13.7279923"><ele>57.800000000000004</ele><time>2026-04-25T14:04:24.731Z</time></trkpt><trkpt lat="45.8848555" lon="13.727844"><ele>59.0</ele><time>2026-04-25T14:04:25.732Z</time></trkpt><trkpt lat="45.8847655" lon="13.7277038"><ele>59.0</ele><time>2026-04-25T14:04:26.732Z</time></trkpt><trkpt lat="45.8846591" lon="13.7275771"><ele>59.0</ele><time>2026-04-25T14:04:27.731Z</time></trkpt><trkpt lat="45.8845385" lon="13.7274572"><ele>59.0</ele><time>2026-04-25T14:04:28.732Z</time></trkpt><trkpt lat="45.8844139" lon="13.7273473"><ele>59.0</ele><time>2026-04-25T14:04:29.732Z</time></trkpt><trkpt lat="45.8842886" lon="13.727239"><ele>59.5</ele><time>2026-04-25T14:04:30.732Z</time></trkpt><trkpt lat="45.8841721" lon="13.727123"><ele>60.0</ele><time>2026-04-25T14:04:31.732Z</time></trkpt><trkpt lat="45.8840636" lon="13.7270029"><ele>60.5</ele><time>2026-04-25T14:04:32.732Z</time></trkpt><trkpt lat="45.8839749" lon="13.7268766"><ele>61.0</ele><time>2026-04-25T14:04:33.732Z</time></trkpt><trkpt lat="45.8838997" lon="13.7267408"><ele>60.0</ele><time>2026-04-25T14:04:34.732Z</time></trkpt><trkpt lat="45.8838463" lon="13.7265948"><ele>58.99999999999999</ele><time>2026-04-25T14:04:35.732Z</time></trkpt><trkpt lat="45.8838094" lon="13.7264451"><ele>57.99999999999999</ele><time>2026-04-25T14:04:36.732Z</time></trkpt><trkpt lat="45.8837923" lon="13.7262894"><ele>57.0</ele><time>2026-04-25T14:04:37.732Z</time></trkpt><trkpt lat="45.8837892" lon="13.7261404"><ele>56.0</ele><time>2026-04-25T14:04:38.732Z</time></trkpt><trkpt lat="45.8838011" lon="13.7259845"><ele>56.0</ele><time>2026-04-25T14:04:39.732Z</time></trkpt><trkpt lat="45.8838153" lon="13.725823"><ele>56.0</ele><time>2026-04-25T14:04:40.732Z</time></trkpt><trkpt lat="45.8838326" lon="13.7256571"><ele>56.0</ele><time>2026-04-25T14:04:41.731Z</time></trkpt><trkpt lat="45.8838511" lon="13.7254765"><ele>56.0</ele><time>2026-04-25T14:04:42.731Z</time></trkpt><trkpt lat="45.8838656" lon="13.7252829"><ele>55.5</ele><time>2026-04-25T14:04:43.732Z</time></trkpt><trkpt lat="45.8838736" lon="13.7250818"><ele>55.0</ele><time>2026-04-25T14:04:44.731Z</time></trkpt><trkpt lat="45.8838757" lon="13.7248752"><ele>54.5</ele><time>2026-04-25T14:04:45.732Z</time></trkpt><trkpt lat="45.8838727" lon="13.7246622"><ele>54.0</ele><time>2026-04-25T14:04:46.732Z</time></trkpt><trkpt lat="45.8838663" lon="13.724441"><ele>55.0</ele><time>2026-04-25T14:04:47.732Z</time></trkpt><trkpt lat="45.8838591" lon="13.7242203"><ele>56.0</ele><time>2026-04-25T14:04:48.732Z</time></trkpt><trkpt lat="45.8838594" lon="13.7239901"><ele>57.0</ele><time>2026-04-25T14:04:49.732Z</time></trkpt><trkpt lat="45.8838731" lon="13.723776"><ele>57.0</ele><time>2026-04-25T14:04:50.731Z</time></trkpt><trkpt lat="45.8838961" lon="13.7235742"><ele>57.0</ele><time>2026-04-25T14:04:51.73Z</time></trkpt><trkpt lat="45.8839228" lon="13.7233879"><ele>57.0</ele><time>2026-04-25T14:04:52.731Z</time></trkpt><trkpt lat="45.8839477" lon="13.7232064"><ele>57.0</ele><time>2026-04-25T14:04:53.731Z</time></trkpt><trkpt lat="45.8839487" lon="13.7230159"><ele>56.25</ele><time>2026-04-25T14:04:54.731Z</time></trkpt><trkpt lat="45.8839287" lon="13.7228291"><ele>55.5</ele><time>2026-04-25T14:04:55.731Z</time></trkpt><trkpt lat="45.8838983" lon="13.7226378"><ele>54.75</ele><time>2026-04-25T14:04:56.731Z</time></trkpt><trkpt lat="45.8838744" lon="13.722439"><ele>54.0</ele><time>2026-04-25T14:04:57.731Z</time></trkpt><trkpt lat="45.8838597" lon="13.7222363"><ele>53.75</ele><time>2026-04-25T14:04:58.731Z</time></trkpt><trkpt lat="45.8838387" lon="13.7220382"><ele>53.5</ele><time>2026-04-25T14:04:59.731Z</time></trkpt><trkpt lat="45.8838138" lon="13.7218399"><ele>53.25</ele><time>2026-04-25T14:05:00.731Z</time></trkpt><trkpt lat="45.8837873" lon="13.7216484"><ele>53.0</ele><time>2026-04-25T14:05:01.731Z</time></trkpt><trkpt lat="45.8837656" lon="13.721454"><ele>53.5</ele><time>2026-04-25T14:05:02.731Z</time></trkpt><trkpt lat="45.8837436" lon="13.7212594"><ele>54.0</ele><time>2026-04-25T14:05:03.73Z</time></trkpt><trkpt lat="45.8837216" lon="13.7210737"><ele>54.5</ele><time>2026-04-25T14:05:04.731Z</time></trkpt><trkpt lat="45.8837021" lon="13.7209021"><ele>55.0</ele><time>2026-04-25T14:05:05.731Z</time></trkpt><trkpt lat="45.8836834" lon="13.7207402"><ele>55.0</ele><time>2026-04-25T14:05:06.73Z</time></trkpt><trkpt lat="45.8836669" lon="13.7205873"><ele>55.0</ele><time>2026-04-25T14:05:07.731Z</time></trkpt><trkpt lat="45.8836513" lon="13.7204398"><ele>55.0</ele><time>2026-04-25T14:05:08.731Z</time></trkpt><trkpt lat="45.8836381" lon="13.7202996"><ele>55.0</ele><time>2026-04-25T14:05:09.731Z</time></trkpt><trkpt lat="45.8836196" lon="13.7201608"><ele>55.0</ele><time>2026-04-25T14:05:10.731Z</time></trkpt><trkpt lat="45.8836028" lon="13.7200279"><ele>54.666666666666664</ele><time>2026-04-25T14:05:11.731Z</time></trkpt><trkpt lat="45.8835893" lon="13.7199025"><ele>54.33333333333333</ele><time>2026-04-25T14:05:12.731Z</time></trkpt><trkpt lat="45.8835797" lon="13.7197965"><ele>54.0</ele><time>2026-04-25T14:05:13.73Z</time></trkpt><trkpt lat="45.8835769" lon="13.7196464"><ele>53.66666666666667</ele><time>2026-04-25T14:05:15.732Z</time></trkpt><trkpt lat="45.8835306" lon="13.7195459"><ele>53.333333333333336</ele><time>2026-04-25T14:05:21.731Z</time></trkpt><trkpt lat="45.8834458" lon="13.7195491"><ele>53.0</ele><time>2026-04-25T14:05:23.731Z</time></trkpt><trkpt lat="45.8833333" lon="13.7195182"><ele>54.4</ele><time>2026-04-25T14:05:25.731Z</time></trkpt><trkpt lat="45.8832192" lon="13.7194945"><ele>55.8</ele><time>2026-04-25T14:05:27.731Z</time></trkpt><trkpt lat="45.8831474" lon="13.7194814"><ele>57.2</ele><time>2026-04-25T14:05:28.73Z</time></trkpt><trkpt lat="45.883077" lon="13.7194677"><ele>58.6</ele><time>2026-04-25T14:05:29.731Z</time></trkpt><trkpt lat="45.8830076" lon="13.7194495"><ele>60.0</ele><time>2026-04-25T14:05:30.73Z</time></trkpt><trkpt lat="45.8828871" lon="13.7194329"><ele>60.0</ele><time>2026-04-25T14:05:32.731Z</time></trkpt><trkpt lat="45.88282" lon="13.719421"><ele>60.0</ele><time>2026-04-25T14:05:33.73Z</time></trkpt><trkpt lat="45.8827468" lon="13.7194176"><ele>60.0</ele><time>2026-04-25T14:05:34.731Z</time></trkpt><trkpt lat="45.8826765" lon="13.7194087"><ele>60.0</ele><time>2026-04-25T14:05:35.731Z</time></trkpt><trkpt lat="45.8826131" lon="13.7193969"><ele>60.0</ele><time>2026-04-25T14:05:36.731Z</time></trkpt><trkpt lat="45.8825108" lon="13.7193764"><ele>60.0</ele><time>2026-04-25T14:05:38.731Z</time></trkpt><trkpt lat="45.8824119" lon="13.7193581"><ele>61.2</ele><time>2026-04-25T14:05:40.73Z</time></trkpt><trkpt lat="45.8823417" lon="13.719349"><ele>62.4</ele><time>2026-04-25T14:05:42.731Z</time></trkpt><trkpt lat="45.8822785" lon="13.719348"><ele>63.599999999999994</ele><time>2026-04-25T14:05:44.73Z</time></trkpt><trkpt lat="45.8822163" lon="13.7192307"><ele>64.8</ele><time>2026-04-25T14:05:47.731Z</time></trkpt><trkpt lat="45.8821463" lon="13.7191057"><ele>66.0</ele><time>2026-04-25T14:05:49.73Z</time></trkpt><trkpt lat="45.8820643" lon="13.7189877"><ele>66.0</ele><time>2026-04-25T14:05:51.73Z</time></trkpt><trkpt lat="45.882015" lon="13.7189227"><ele>66.0</ele><time>2026-04-25T14:05:52.731Z</time></trkpt><trkpt lat="45.8819659" lon="13.718856"><ele>66.0</ele><time>2026-04-25T14:05:53.731Z</time></trkpt><trkpt lat="45.8819161" lon="13.7187985"><ele>66.0</ele><time>2026-04-25T14:05:54.731Z</time></trkpt><trkpt lat="45.8818702" lon="13.7187247"><ele>66.0</ele><time>2026-04-25T14:05:57.731Z</time></trkpt><trkpt lat="45.8817915" lon="13.7186158"><ele>66.0</ele><time>2026-04-25T14:06:04.731Z</time></trkpt><trkpt lat="45.8817283" lon="13.7185226"><ele>68.2</ele><time>2026-04-25T14:06:06.731Z</time></trkpt><trkpt lat="45.8816919" lon="13.718424"><ele>70.39999999999999</ele><time>2026-04-25T14:06:08.731Z</time></trkpt><trkpt lat="45.8815937" lon="13.718337"><ele>72.6</ele><time>2026-04-25T14:06:10.73Z</time></trkpt><trkpt lat="45.8815094" lon="13.7182687"><ele>74.8</ele><time>2026-04-25T14:06:12.73Z</time></trkpt><trkpt lat="45.8813935" lon="13.7182439"><ele>77.0</ele><time>2026-04-25T14:06:14.73Z</time></trkpt><trkpt lat="45.8813253" lon="13.7181904"><ele>77.0</ele><time>2026-04-25T14:06:16.731Z</time></trkpt><trkpt lat="45.8812672" lon="13.7180699"><ele>77.0</ele><time>2026-04-25T14:06:18.731Z</time></trkpt><trkpt lat="45.8813302" lon="13.718006"><ele>77.0</ele><time>2026-04-25T14:06:21.731Z</time></trkpt><trkpt lat="45.881449" lon="13.7180272"><ele>77.0</ele><time>2026-04-25T14:06:23.731Z</time></trkpt><trkpt lat="45.8815418" lon="13.7179958"><ele>77.0</ele><time>2026-04-25T14:06:24.731Z</time></trkpt><trkpt lat="45.8816126" lon="13.7179698"><ele>77.0</ele><time>2026-04-25T14:06:25.731Z</time></trkpt><trkpt lat="45.8817036" lon="13.7179631"><ele>77.0</ele><time>2026-04-25T14:06:27.731Z</time></trkpt><trkpt lat="45.8818021" lon="13.7178917"><ele>77.0</ele><time>2026-04-25T14:06:29.731Z</time></trkpt><trkpt lat="45.8818615" lon="13.717817"><ele>77.0</ele><time>2026-04-25T14:06:31.731Z</time></trkpt><trkpt lat="45.8818772" lon="13.717681"><ele>77.0</ele><time>2026-04-25T14:06:33.731Z</time></trkpt><trkpt lat="45.8818975" lon="13.7175868"><ele>77.0</ele><time>2026-04-25T14:06:34.731Z</time></trkpt><trkpt lat="45.8818398" lon="13.7176231"><ele>77.8</ele><time>2026-04-25T14:06:35.731Z</time></trkpt><trkpt lat="45.8817182" lon="13.7175694"><ele>78.6</ele><time>2026-04-25T14:06:37.731Z</time></trkpt><trkpt lat="45.8816431" lon="13.71756"><ele>79.39999999999999</ele><time>2026-04-25T14:06:38.731Z</time></trkpt><trkpt lat="45.8815145" lon="13.7175358"><ele>80.2</ele><time>2026-04-25T14:06:40.73Z</time></trkpt><trkpt lat="45.8814466" lon="13.7174776"><ele>81.0</ele><time>2026-04-25T14:06:41.731Z</time></trkpt><trkpt lat="45.8813764" lon="13.7174401"><ele>81.0</ele><time>2026-04-25T14:06:42.73Z</time></trkpt><trkpt lat="45.8813116" lon="13.7173992"><ele>81.0</ele><time>2026-04-25T14:06:43.731Z</time></trkpt><trkpt lat="45.8812276" lon="13.7173502"><ele>81.0</ele><time>2026-04-25T14:06:44.731Z</time></trkpt><trkpt lat="45.8811427" lon="13.717229"><ele>81.0</ele><time>2026-04-25T14:06:46.731Z</time></trkpt><trkpt lat="45.8811124" lon="13.7171483"><ele>81.0</ele><time>2026-04-25T14:06:47.73Z</time></trkpt><trkpt lat="45.8810717" lon="13.7170453"><ele>81.0</ele><time>2026-04-25T14:06:48.732Z</time></trkpt><trkpt lat="45.88101" lon="13.716947"><ele>80.16666666666667</ele><time>2026-04-25T14:06:50.731Z</time></trkpt><trkpt lat="45.8809716" lon="13.7168736"><ele>79.33333333333333</ele><time>2026-04-25T14:06:51.73Z</time></trkpt><trkpt lat="45.8809176" lon="13.71682"><ele>78.5</ele><time>2026-04-25T14:06:52.73Z</time></trkpt><trkpt lat="45.8808538" lon="13.7167657"><ele>77.66666666666666</ele><time>2026-04-25T14:06:53.731Z</time></trkpt><trkpt lat="45.8807269" lon="13.7167001"><ele>76.83333333333333</ele><time>2026-04-25T14:06:55.731Z</time></trkpt><trkpt lat="45.8806535" lon="13.7166501"><ele>76.0</ele><time>2026-04-25T14:06:56.731Z</time></trkpt><trkpt lat="45.8805774" lon="13.7165813"><ele>78.66666666666666</ele><time>2026-04-25T14:06:57.731Z</time></trkpt><trkpt lat="45.8805308" lon="13.7165106"><ele>81.33333333333333</ele><time>2026-04-25T14:06:58.731Z</time></trkpt><trkpt lat="45.8805127" lon="13.7164232"><ele>84.0</ele><time>2026-04-25T14:06:59.731Z</time></trkpt><trkpt lat="45.8804442" lon="13.7162927"><ele>86.66666666666667</ele><time>2026-04-25T14:07:01.731Z</time></trkpt><trkpt lat="45.8803922" lon="13.7161604"><ele>89.33333333333334</ele><time>2026-04-25T14:07:03.73Z</time></trkpt><trkpt lat="45.880329" lon="13.7160659"><ele>92.0</ele><time>2026-04-25T14:07:05.731Z</time></trkpt><trkpt lat="45.8801678" lon="13.7161385"><ele>95.83333333333334</ele><time>2026-04-25T14:07:07.731Z</time></trkpt><trkpt lat="45.88009" lon="13.7161767"><ele>99.66666666666667</ele><time>2026-04-25T14:07:08.731Z</time></trkpt><trkpt lat="45.8800178" lon="13.7162238"><ele>103.5</ele><time>2026-04-25T14:07:09.731Z</time></trkpt><trkpt lat="45.8799045" lon="13.7163265"><ele>107.33333333333334</ele><time>2026-04-25T14:07:11.731Z</time></trkpt><trkpt lat="45.8798581" lon="13.7164061"><ele>111.16666666666667</ele><time>2026-04-25T14:07:12.731Z</time></trkpt><trkpt lat="45.879803" lon="13.716469"><ele>115.0</ele><time>2026-04-25T14:07:13.732Z</time></trkpt><trkpt lat="45.879754" lon="13.7165472"><ele>115.0</ele><time>2026-04-25T14:07:14.731Z</time></trkpt><trkpt lat="45.8796929" lon="13.7167019"><ele>115.0</ele><time>2026-04-25T14:07:16.731Z</time></trkpt><trkpt lat="45.8796074" lon="13.7168377"><ele>115.0</ele><time>2026-04-25T14:07:18.731Z</time></trkpt><trkpt lat="45.8795542" lon="13.7168986"><ele>115.0</ele><time>2026-04-25T14:07:19.731Z</time></trkpt><trkpt lat="45.8794679" lon="13.7169246"><ele>115.0</ele><time>2026-04-25T14:07:22.731Z</time></trkpt><trkpt lat="45.8794626" lon="13.7168095"><ele>115.0</ele><time>2026-04-25T14:07:25.731Z</time></trkpt><trkpt lat="45.8795124" lon="13.7166824"><ele>115.0</ele><time>2026-04-25T14:07:27.731Z</time></trkpt><trkpt lat="45.8795469" lon="13.7165523"><ele>115.0</ele><time>2026-04-25T14:07:29.731Z</time></trkpt><trkpt lat="45.8795758" lon="13.7164629"><ele>115.0</ele><time>2026-04-25T14:07:30.731Z</time></trkpt><trkpt lat="45.8796245" lon="13.7163759"><ele>115.0</ele><time>2026-04-25T14:07:31.731Z</time></trkpt><trkpt lat="45.8796325" lon="13.716218"><ele>115.00000000000001</ele><time>2026-04-25T14:07:33.731Z</time></trkpt><trkpt lat="45.8796055" lon="13.716106"><ele>115.0</ele><time>2026-04-25T14:07:35.731Z</time></trkpt><trkpt lat="45.8795805" lon="13.7159772"><ele>115.0</ele><time>2026-04-25T14:07:38.731Z</time></trkpt><trkpt lat="45.8795729" lon="13.7158786"><ele>115.0</ele><time>2026-04-25T14:07:39.731Z</time></trkpt><trkpt lat="45.8795524" lon="13.7157429"><ele>115.00000000000001</ele><time>2026-04-25T14:07:41.73Z</time></trkpt><trkpt lat="45.8795314" lon="13.7156479"><ele>115.0</ele><time>2026-04-25T14:07:42.731Z</time></trkpt><trkpt lat="45.87951" lon="13.7155615"><ele>115.2</ele><time>2026-04-25T14:07:43.731Z</time></trkpt><trkpt lat="45.8794584" lon="13.7154111"><ele>115.4</ele><time>2026-04-25T14:07:45.731Z</time></trkpt><trkpt lat="45.8794158" lon="13.715333"><ele>115.6</ele><time>2026-04-25T14:07:46.73Z</time></trkpt><trkpt lat="45.8793502" lon="13.7151736"><ele>115.8</ele><time>2026-04-25T14:07:48.73Z</time></trkpt><trkpt lat="45.8793016" lon="13.7150818"><ele>116.0</ele><time>2026-04-25T14:07:49.731Z</time></trkpt><trkpt lat="45.8792713" lon="13.7149118"><ele>121.75</ele><time>2026-04-25T14:07:51.73Z</time></trkpt><trkpt lat="45.8792386" lon="13.714748"><ele>127.5</ele><time>2026-04-25T14:07:53.73Z</time></trkpt><trkpt lat="45.8791744" lon="13.714641"><ele>133.25</ele><time>2026-04-25T14:07:55.731Z</time></trkpt><trkpt lat="45.8791512" lon="13.7144907"><ele>139.0</ele><time>2026-04-25T14:07:57.731Z</time></trkpt><trkpt lat="45.8791501" lon="13.7143092"><ele>139.0</ele><time>2026-04-25T14:07:59.731Z</time></trkpt><trkpt lat="45.8791512" lon="13.7141736"><ele>139.0</ele><time>2026-04-25T14:08:01.73Z</time></trkpt><trkpt lat="45.879167" lon="13.7140586"><ele>139.0</ele><time>2026-04-25T14:08:03.731Z</time></trkpt><trkpt lat="45.8792007" lon="13.7139159"><ele>139.0</ele><time>2026-04-25T14:08:05.731Z</time></trkpt><trkpt lat="45.8792393" lon="13.7137593"><ele>139.0</ele><time>2026-04-25T14:08:07.731Z</time></trkpt><trkpt lat="45.8792928" lon="13.7136136"><ele>138.6</ele><time>2026-04-25T14:08:09.731Z</time></trkpt><trkpt lat="45.8793506" lon="13.7134855"><ele>138.2</ele><time>2026-04-25T14:08:11.73Z</time></trkpt><trkpt lat="45.8794254" lon="13.7133851"><ele>137.79999999999998</ele><time>2026-04-25T14:08:13.731Z</time></trkpt><trkpt lat="45.8795008" lon="13.7132959"><ele>137.4</ele><time>2026-04-25T14:08:15.731Z</time></trkpt><trkpt lat="45.8795666" lon="13.7131966"><ele>137.0</ele><time>2026-04-25T14:08:17.731Z</time></trkpt><trkpt lat="45.8796338" lon="13.7130878"><ele>137.0</ele><time>2026-04-25T14:08:19.731Z</time></trkpt><trkpt lat="45.8796971" lon="13.7129558"><ele>137.0</ele><time>2026-04-25T14:08:21.731Z</time></trkpt><trkpt lat="45.8797484" lon="13.712814"><ele>137.0</ele><time>2026-04-25T14:08:23.731Z</time></trkpt><trkpt lat="45.8797916" lon="13.712684"><ele>137.0</ele><time>2026-04-25T14:08:25.73Z</time></trkpt><trkpt lat="45.8798498" lon="13.7125651"><ele>137.0</ele><time>2026-04-25T14:08:27.73Z</time></trkpt><trkpt lat="45.8799135" lon="13.7124492"><ele>136.6</ele><time>2026-04-25T14:08:29.73Z</time></trkpt><trkpt lat="45.8799658" lon="13.7123328"><ele>136.2</ele><time>2026-04-25T14:08:31.73Z</time></trkpt><trkpt lat="45.8800132" lon="13.7122241"><ele>135.8</ele><time>2026-04-25T14:08:33.729Z</time></trkpt><trkpt lat="45.8800824" lon="13.7121193"><ele>135.4</ele><time>2026-04-25T14:08:35.73Z</time></trkpt><trkpt lat="45.8801524" lon="13.7120167"><ele>135.0</ele><time>2026-04-25T14:08:37.73Z</time></trkpt><trkpt lat="45.8802265" lon="13.7119192"><ele>133.4</ele><time>2026-04-25T14:08:39.73Z</time></trkpt><trkpt lat="45.8803042" lon="13.7118153"><ele>131.8</ele><time>2026-04-25T14:08:41.73Z</time></trkpt><trkpt lat="45.8803876" lon="13.711699"><ele>130.2</ele><time>2026-04-25T14:08:43.73Z</time></trkpt><trkpt lat="45.8804814" lon="13.7115848"><ele>128.6</ele><time>2026-04-25T14:08:45.73Z</time></trkpt><trkpt lat="45.8805331" lon="13.7115256"><ele>127.0</ele><time>2026-04-25T14:08:46.73Z</time></trkpt><trkpt lat="45.8805928" lon="13.711472"><ele>127.00000000000001</ele><time>2026-04-25T14:08:47.73Z</time></trkpt><trkpt lat="45.8806621" lon="13.7114312"><ele>127.0</ele><time>2026-04-25T14:08:48.73Z</time></trkpt><trkpt lat="45.8807372" lon="13.7114186"><ele>127.0</ele><time>2026-04-25T14:08:49.73Z</time></trkpt><trkpt lat="45.8808201" lon="13.7114227"><ele>127.0</ele><time>2026-04-25T14:08:50.729Z</time></trkpt><trkpt lat="45.8809015" lon="13.7114364"><ele>127.00000000000001</ele><time>2026-04-25T14:08:51.73Z</time></trkpt><trkpt lat="45.8809817" lon="13.711446"><ele>127.0</ele><time>2026-04-25T14:08:52.729Z</time></trkpt><trkpt lat="45.8810561" lon="13.7114517"><ele>126.57142857142858</ele><time>2026-04-25T14:08:53.73Z</time></trkpt><trkpt lat="45.8811314" lon="13.711449"><ele>126.14285714285714</ele><time>2026-04-25T14:08:54.73Z</time></trkpt><trkpt lat="45.8811994" lon="13.7114379"><ele>125.71428571428572</ele><time>2026-04-25T14:08:55.73Z</time></trkpt><trkpt lat="45.8812682" lon="13.7114217"><ele>125.28571428571429</ele><time>2026-04-25T14:08:56.73Z</time></trkpt><trkpt lat="45.8813376" lon="13.7114018"><ele>124.85714285714286</ele><time>2026-04-25T14:08:57.73Z</time></trkpt><trkpt lat="45.8813992" lon="13.7113635"><ele>124.42857142857143</ele><time>2026-04-25T14:08:58.73Z</time></trkpt><trkpt lat="45.8814485" lon="13.7113045"><ele>124.0</ele><time>2026-04-25T14:08:59.729Z</time></trkpt><trkpt lat="45.8814922" lon="13.711239"><ele>124.00000000000001</ele><time>2026-04-25T14:09:00.73Z</time></trkpt><trkpt lat="45.8815292" lon="13.7111626"><ele>124.0</ele><time>2026-04-25T14:09:01.73Z</time></trkpt><trkpt lat="45.8815578" lon="13.7110794"><ele>124.0</ele><time>2026-04-25T14:09:02.73Z</time></trkpt><trkpt lat="45.8815957" lon="13.7109938"><ele>124.0</ele><time>2026-04-25T14:09:03.73Z</time></trkpt><trkpt lat="45.8816444" lon="13.7109183"><ele>124.00000000000001</ele><time>2026-04-25T14:09:04.729Z</time></trkpt><trkpt lat="45.8816967" lon="13.7108603"><ele>124.0</ele><time>2026-04-25T14:09:05.73Z</time></trkpt><trkpt lat="45.8818027" lon="13.7107655"><ele>123.4</ele><time>2026-04-25T14:09:07.73Z</time></trkpt><trkpt lat="45.8818868" lon="13.7106494"><ele>122.80000000000001</ele><time>2026-04-25T14:09:09.73Z</time></trkpt><trkpt lat="45.881956" lon="13.710511"><ele>122.19999999999999</ele><time>2026-04-25T14:09:11.73Z</time></trkpt><trkpt lat="45.8820234" lon="13.710387"><ele>121.6</ele><time>2026-04-25T14:09:13.729Z</time></trkpt><trkpt lat="45.8820883" lon="13.7102701"><ele>121.0</ele><time>2026-04-25T14:09:15.73Z</time></trkpt><trkpt lat="45.8821701" lon="13.7101579"><ele>123.0</ele><time>2026-04-25T14:09:17.73Z</time></trkpt><trkpt lat="45.8822601" lon="13.7100656"><ele>125.0</ele><time>2026-04-25T14:09:19.73Z</time></trkpt><trkpt lat="45.8823502" lon="13.7099763"><ele>127.0</ele><time>2026-04-25T14:09:21.73Z</time></trkpt><trkpt lat="45.8824396" lon="13.7098751"><ele>129.0</ele><time>2026-04-25T14:09:23.73Z</time></trkpt><trkpt lat="45.8825265" lon="13.709787"><ele>131.0</ele><time>2026-04-25T14:09:25.73Z</time></trkpt><trkpt lat="45.8826075" lon="13.7096849"><ele>129.4</ele><time>2026-04-25T14:09:27.73Z</time></trkpt><trkpt lat="45.882691" lon="13.7095908"><ele>127.8</ele><time>2026-04-25T14:09:29.73Z</time></trkpt><trkpt lat="45.882778" lon="13.70949"><ele>126.20000000000002</ele><time>2026-04-25T14:09:31.73Z</time></trkpt><trkpt lat="45.8828686" lon="13.709364"><ele>124.60000000000001</ele><time>2026-04-25T14:09:33.73Z</time></trkpt><trkpt lat="45.8829141" lon="13.7092987"><ele>123.0</ele><time>2026-04-25T14:09:34.73Z</time></trkpt><trkpt lat="45.8829987" lon="13.709179"><ele>123.0</ele><time>2026-04-25T14:09:36.73Z</time></trkpt><trkpt lat="45.8830839" lon="13.7090697"><ele>123.00000000000001</ele><time>2026-04-25T14:09:38.73Z</time></trkpt><trkpt lat="45.8831682" lon="13.7089698"><ele>123.00000000000001</ele><time>2026-04-25T14:09:40.73Z</time></trkpt><trkpt lat="45.8832414" lon="13.7088727"><ele>123.0</ele><time>2026-04-25T14:09:42.73Z</time></trkpt><trkpt lat="45.8833059" lon="13.708761"><ele>123.0</ele><time>2026-04-25T14:09:44.73Z</time></trkpt><trkpt lat="45.8833734" lon="13.7086576"><ele>120.2</ele><time>2026-04-25T14:09:46.73Z</time></trkpt><trkpt lat="45.8834461" lon="13.7085605"><ele>117.4</ele><time>2026-04-25T14:09:48.729Z</time></trkpt><trkpt lat="45.8835345" lon="13.7084561"><ele>114.60000000000001</ele><time>2026-04-25T14:09:50.73Z</time></trkpt><trkpt lat="45.8836201" lon="13.708353"><ele>111.80000000000001</ele><time>2026-04-25T14:09:52.73Z</time></trkpt><trkpt lat="45.883684" lon="13.7082412"><ele>109.0</ele><time>2026-04-25T14:09:54.73Z</time></trkpt><trkpt lat="45.8837136" lon="13.7081018"><ele>109.00000000000001</ele><time>2026-04-25T14:09:56.73Z</time></trkpt><trkpt lat="45.8837357" lon="13.7079812"><ele>109.0</ele><time>2026-04-25T14:09:58.73Z</time></trkpt><trkpt lat="45.8837183" lon="13.7078858"><ele>109.0</ele><time>2026-04-25T14:10:02.73Z</time></trkpt><trkpt lat="45.8836368" lon="13.7079354"><ele>109.0</ele><time>2026-04-25T14:10:04.73Z</time></trkpt><trkpt lat="45.8835301" lon="13.708001"><ele>109.00000000000001</ele><time>2026-04-25T14:10:06.73Z</time></trkpt><trkpt lat="45.8834677" lon="13.7080208"><ele>109.0</ele><time>2026-04-25T14:10:07.73Z</time></trkpt><trkpt lat="45.8833967" lon="13.7080246"><ele>111.00000000000001</ele><time>2026-04-25T14:10:08.73Z</time></trkpt><trkpt lat="45.8833297" lon="13.7080288"><ele>113.0</ele><time>2026-04-25T14:10:09.73Z</time></trkpt><trkpt lat="45.8832606" lon="13.7080323"><ele>115.0</ele><time>2026-04-25T14:10:10.73Z</time></trkpt><trkpt lat="45.8831941" lon="13.7080353"><ele>117.0</ele><time>2026-04-25T14:10:11.73Z</time></trkpt><trkpt lat="45.8831278" lon="13.7080357"><ele>119.00000000000001</ele><time>2026-04-25T14:10:12.73Z</time></trkpt><trkpt lat="45.8830141" lon="13.7080397"><ele>121.0</ele><time>2026-04-25T14:10:14.73Z</time></trkpt><trkpt lat="45.8829037" lon="13.7080388"><ele>121.0</ele><time>2026-04-25T14:10:16.73Z</time></trkpt><trkpt lat="45.8827885" lon="13.7080373"><ele>121.0</ele><time>2026-04-25T14:10:18.73Z</time></trkpt><trkpt lat="45.8826818" lon="13.7080822"><ele>121.0</ele><time>2026-04-25T14:10:20.73Z</time></trkpt><trkpt lat="45.8825825" lon="13.708162"><ele>121.0</ele><time>2026-04-25T14:10:22.73Z</time></trkpt><trkpt lat="45.8824887" lon="13.7082605"><ele>120.5</ele><time>2026-04-25T14:10:24.729Z</time></trkpt><trkpt lat="45.8823918" lon="13.7083526"><ele>120.0</ele><time>2026-04-25T14:10:26.73Z</time></trkpt><trkpt lat="45.8822871" lon="13.7084461"><ele>119.5</ele><time>2026-04-25T14:10:28.73Z</time></trkpt><trkpt lat="45.8821818" lon="13.708533"><ele>119.0</ele><time>2026-04-25T14:10:30.73Z</time></trkpt><trkpt lat="45.8820689" lon="13.7086221"><ele>117.99999999999999</ele><time>2026-04-25T14:10:32.73Z</time></trkpt><trkpt lat="45.8820094" lon="13.7086665"><ele>117.0</ele><time>2026-04-25T14:10:33.73Z</time></trkpt><trkpt lat="45.8818976" lon="13.7087475"><ele>116.0</ele><time>2026-04-25T14:10:35.73Z</time></trkpt><trkpt lat="45.881836" lon="13.7087827"><ele>115.0</ele><time>2026-04-25T14:10:36.73Z</time></trkpt><trkpt lat="45.8817702" lon="13.7088222"><ele>113.99999999999999</ele><time>2026-04-25T14:10:37.73Z</time></trkpt><trkpt lat="45.8816976" lon="13.708863"><ele>113.0</ele><time>2026-04-25T14:10:38.73Z</time></trkpt><trkpt lat="45.8816199" lon="13.7089102"><ele>112.99999999999999</ele><time>2026-04-25T14:10:39.73Z</time></trkpt><trkpt lat="45.8815461" lon="13.7089542"><ele>113.0</ele><time>2026-04-25T14:10:40.73Z</time></trkpt><trkpt lat="45.8814753" lon="13.7089933"><ele>113.0</ele><time>2026-04-25T14:10:41.73Z</time></trkpt><trkpt lat="45.8814033" lon="13.7090339"><ele>113.0</ele><time>2026-04-25T14:10:42.73Z</time></trkpt><trkpt lat="45.8813328" lon="13.7090538"><ele>112.99999999999999</ele><time>2026-04-25T14:10:43.73Z</time></trkpt><trkpt lat="45.8812663" lon="13.7090661"><ele>113.0</ele><time>2026-04-25T14:10:44.73Z</time></trkpt><trkpt lat="45.8811363" lon="13.7090951"><ele>112.99999999999999</ele><time>2026-04-25T14:10:46.73Z</time></trkpt><trkpt lat="45.88107" lon="13.7091099"><ele>113.0</ele><time>2026-04-25T14:10:47.73Z</time></trkpt><trkpt lat="45.8810039" lon="13.7091248"><ele>113.0</ele><time>2026-04-25T14:10:48.73Z</time></trkpt><trkpt lat="45.8809399" lon="13.7091346"><ele>113.0</ele><time>2026-04-25T14:10:49.73Z</time></trkpt><trkpt lat="45.8808752" lon="13.7091379"><ele>112.99999999999999</ele><time>2026-04-25T14:10:50.73Z</time></trkpt><trkpt lat="45.8807522" lon="13.7091442"><ele>113.0</ele><time>2026-04-25T14:10:52.729Z</time></trkpt><trkpt lat="45.8806403" lon="13.7091463"><ele>111.66666666666666</ele><time>2026-04-25T14:10:54.73Z</time></trkpt><trkpt lat="45.8805435" lon="13.7091441"><ele>110.33333333333333</ele><time>2026-04-25T14:10:56.73Z</time></trkpt><trkpt lat="45.8804601" lon="13.7091261"><ele>109.0</ele><time>2026-04-25T14:10:58.73Z</time></trkpt><trkpt lat="45.8803884" lon="13.7091107"><ele>107.66666666666666</ele><time>2026-04-25T14:11:00.73Z</time></trkpt><trkpt lat="45.8803247" lon="13.7090983"><ele>106.33333333333333</ele><time>2026-04-25T14:11:02.73Z</time></trkpt><trkpt lat="45.8802574" lon="13.7090952"><ele>105.0</ele><time>2026-04-25T14:11:05.73Z</time></trkpt><trkpt lat="45.8801917" lon="13.7090816"><ele>105.0</ele><time>2026-04-25T14:11:10.73Z</time></trkpt><trkpt lat="45.8801288" lon="13.7090732"><ele>105.0</ele><time>2026-04-25T14:11:14.73Z</time></trkpt><trkpt lat="45.8800652" lon="13.709072"><ele>105.0</ele><time>2026-04-25T14:11:18.73Z</time></trkpt><trkpt lat="45.8800033" lon="13.7090373"><ele>105.0</ele><time>2026-04-25T14:11:23.729Z</time></trkpt><trkpt lat="45.8799423" lon="13.7090145"><ele>105.0</ele><time>2026-04-25T14:11:27.73Z</time></trkpt><trkpt lat="45.8798683" lon="13.7089926"><ele>105.0</ele><time>2026-04-25T14:11:32.73Z</time></trkpt><trkpt lat="45.8797905" lon="13.7089887"><ele>105.0</ele><time>2026-04-25T14:11:37.729Z</time></trkpt><trkpt lat="45.8797271" lon="13.7089739"><ele>104.28571428571429</ele><time>2026-04-25T14:11:41.73Z</time></trkpt><trkpt lat="45.8796564" lon="13.7089694"><ele>103.57142857142857</ele><time>2026-04-25T14:11:46.729Z</time></trkpt><trkpt lat="45.8795865" lon="13.7089638"><ele>102.85714285714286</ele><time>2026-04-25T14:11:51.728Z</time></trkpt><trkpt lat="45.8795088" lon="13.7089399"><ele>102.14285714285714</ele><time>2026-04-25T14:11:56.729Z</time></trkpt><trkpt lat="45.8794497" lon="13.708903"><ele>101.42857142857143</ele><time>2026-04-25T14:12:00.728Z</time></trkpt><trkpt lat="45.8793932" lon="13.7088315"><ele>100.71428571428572</ele><time>2026-04-25T14:12:05.729Z</time></trkpt><trkpt lat="45.8793288" lon="13.7087955"><ele>100.0</ele><time>2026-04-25T14:12:09.729Z</time></trkpt><trkpt lat="45.8792659" lon="13.7087554"><ele>100.00000000000001</ele><time>2026-04-25T14:12:13.729Z</time></trkpt><trkpt lat="45.8792037" lon="13.7087224"><ele>100.0</ele><time>2026-04-25T14:12:17.729Z</time></trkpt><trkpt lat="45.8791379" lon="13.7086869"><ele>100.0</ele><time>2026-04-25T14:12:21.729Z</time></trkpt><trkpt lat="45.8790756" lon="13.7086545"><ele>100.0</ele><time>2026-04-25T14:12:25.729Z</time></trkpt><trkpt lat="45.8790181" lon="13.7086026"><ele>100.0</ele><time>2026-04-25T14:12:29.728Z</time></trkpt><trkpt lat="45.8789576" lon="13.7085403"><ele>100.00000000000001</ele><time>2026-04-25T14:12:34.729Z</time></trkpt><trkpt lat="45.878905" lon="13.7084815"><ele>100.0</ele><time>2026-04-25T14:12:39.729Z</time></trkpt><trkpt lat="45.8788498" lon="13.708423"><ele>99.66666666666667</ele><time>2026-04-25T14:12:44.729Z</time></trkpt><trkpt lat="45.8787895" lon="13.7083641"><ele>99.33333333333334</ele><time>2026-04-25T14:12:49.729Z</time></trkpt><trkpt lat="45.8787189" lon="13.7083089"><ele>99.0</ele><time>2026-04-25T14:13:00.729Z</time></trkpt><trkpt lat="45.8786563" lon="13.7082396"><ele>98.66666666666666</ele><time>2026-04-25T14:13:02.729Z</time></trkpt><trkpt lat="45.8785811" lon="13.7081434"><ele>98.33333333333333</ele><time>2026-04-25T14:13:04.729Z</time></trkpt><trkpt lat="45.8784976" lon="13.7080642"><ele>98.0</ele><time>2026-04-25T14:13:06.729Z</time></trkpt><trkpt lat="45.8784283" lon="13.7079942"><ele>96.4</ele><time>2026-04-25T14:13:08.728Z</time></trkpt><trkpt lat="45.8783723" lon="13.707911"><ele>94.80000000000001</ele><time>2026-04-25T14:13:10.729Z</time></trkpt><trkpt lat="45.8783149" lon="13.7078198"><ele>93.2</ele><time>2026-04-25T14:13:12.729Z</time></trkpt><trkpt lat="45.8782482" lon="13.7077217"><ele>91.6</ele><time>2026-04-25T14:13:14.729Z</time></trkpt><trkpt lat="45.878156" lon="13.7076168"><ele>90.0</ele><time>2026-04-25T14:13:16.729Z</time></trkpt><trkpt lat="45.8780591" lon="13.7074991"><ele>90.0</ele><time>2026-04-25T14:13:18.729Z</time></trkpt><trkpt lat="45.8780117" lon="13.7074333"><ele>90.0</ele><time>2026-04-25T14:13:19.729Z</time></trkpt><trkpt lat="45.8779635" lon="13.7073635"><ele>90.0</ele><time>2026-04-25T14:13:20.729Z</time></trkpt><trkpt lat="45.8779207" lon="13.7072783"><ele>90.0</ele><time>2026-04-25T14:13:21.729Z</time></trkpt><trkpt lat="45.8778938" lon="13.7071825"><ele>90.0</ele><time>2026-04-25T14:13:22.729Z</time></trkpt><trkpt lat="45.8778853" lon="13.7070826"><ele>90.0</ele><time>2026-04-25T14:13:23.728Z</time></trkpt><trkpt lat="45.8778911" lon="13.7069813"><ele>90.0</ele><time>2026-04-25T14:13:24.728Z</time></trkpt><trkpt lat="45.8779018" lon="13.7068751"><ele>90.0</ele><time>2026-04-25T14:13:25.728Z</time></trkpt><trkpt lat="45.8779134" lon="13.7067615"><ele>90.0</ele><time>2026-04-25T14:13:26.729Z</time></trkpt><trkpt lat="45.8779292" lon="13.7066476"><ele>90.0</ele><time>2026-04-25T14:13:27.729Z</time></trkpt><trkpt lat="45.8779478" lon="13.7065251"><ele>90.0</ele><time>2026-04-25T14:13:28.729Z</time></trkpt><trkpt lat="45.8779696" lon="13.7063862"><ele>90.0</ele><time>2026-04-25T14:13:29.729Z</time></trkpt><trkpt lat="45.8779925" lon="13.7062327"><ele>90.0</ele><time>2026-04-25T14:13:30.729Z</time></trkpt><trkpt lat="45.8780215" lon="13.7060787"><ele>90.0</ele><time>2026-04-25T14:13:31.729Z</time></trkpt><trkpt lat="45.8780544" lon="13.7059261"><ele>90.0</ele><time>2026-04-25T14:13:32.729Z</time></trkpt><trkpt lat="45.8780762" lon="13.7057708"><ele>90.0</ele><time>2026-04-25T14:13:33.729Z</time></trkpt><trkpt lat="45.8780795" lon="13.7056191"><ele>90.0</ele><time>2026-04-25T14:13:34.729Z</time></trkpt><trkpt lat="45.8780701" lon="13.7054672"><ele>89.2</ele><time>2026-04-25T14:13:35.729Z</time></trkpt><trkpt lat="45.8780616" lon="13.705317"><ele>88.4</ele><time>2026-04-25T14:13:36.729Z</time></trkpt><trkpt lat="45.8780592" lon="13.7051629"><ele>87.6</ele><time>2026-04-25T14:13:37.729Z</time></trkpt><trkpt lat="45.8780564" lon="13.7050102"><ele>86.8</ele><time>2026-04-25T14:13:38.728Z</time></trkpt><trkpt lat="45.8780539" lon="13.7048568"><ele>86.0</ele><time>2026-04-25T14:13:39.728Z</time></trkpt><trkpt lat="45.8780404" lon="13.704713"><ele>86.0</ele><time>2026-04-25T14:13:40.728Z</time></trkpt><trkpt lat="45.8780274" lon="13.7045729"><ele>86.0</ele><time>2026-04-25T14:13:41.728Z</time></trkpt><trkpt lat="45.8780227" lon="13.7044393"><ele>86.0</ele><time>2026-04-25T14:13:42.728Z</time></trkpt><trkpt lat="45.8780182" lon="13.7043092"><ele>86.0</ele><time>2026-04-25T14:13:43.729Z</time></trkpt><trkpt lat="45.8780211" lon="13.704195"><ele>86.0</ele><time>2026-04-25T14:13:44.729Z</time></trkpt><trkpt lat="45.8780419" lon="13.7040926"><ele>86.0</ele><time>2026-04-25T14:13:45.729Z</time></trkpt><trkpt lat="45.8780829" lon="13.703998"><ele>85.6</ele><time>2026-04-25T14:13:46.728Z</time></trkpt><trkpt lat="45.8781391" lon="13.7038994"><ele>85.19999999999999</ele><time>2026-04-25T14:13:47.728Z</time></trkpt><trkpt lat="45.8781967" lon="13.703786"><ele>84.80000000000001</ele><time>2026-04-25T14:13:48.728Z</time></trkpt><trkpt lat="45.8782536" lon="13.7036547"><ele>84.4</ele><time>2026-04-25T14:13:49.728Z</time></trkpt><trkpt lat="45.8783028" lon="13.7035142"><ele>84.0</ele><time>2026-04-25T14:13:50.728Z</time></trkpt><trkpt lat="45.8783503" lon="13.7033781"><ele>83.80000000000001</ele><time>2026-04-25T14:13:51.729Z</time></trkpt><trkpt lat="45.8783936" lon="13.7032508"><ele>83.60000000000001</ele><time>2026-04-25T14:13:52.729Z</time></trkpt><trkpt lat="45.8784316" lon="13.7031249"><ele>83.4</ele><time>2026-04-25T14:13:53.729Z</time></trkpt><trkpt lat="45.8784575" lon="13.703004"><ele>83.2</ele><time>2026-04-25T14:13:54.729Z</time></trkpt><trkpt lat="45.8784706" lon="13.7028846"><ele>83.0</ele><time>2026-04-25T14:13:55.729Z</time></trkpt><trkpt lat="45.878474" lon="13.7027575"><ele>82.4</ele><time>2026-04-25T14:13:56.729Z</time></trkpt><trkpt lat="45.8784679" lon="13.7026316"><ele>81.80000000000001</ele><time>2026-04-25T14:13:57.729Z</time></trkpt><trkpt lat="45.8784662" lon="13.7024969"><ele>81.2</ele><time>2026-04-25T14:13:58.729Z</time></trkpt><trkpt lat="45.8784751" lon="13.7023562"><ele>80.6</ele><time>2026-04-25T14:13:59.729Z</time></trkpt><trkpt lat="45.8784941" lon="13.7022118"><ele>80.0</ele><time>2026-04-25T14:14:00.729Z</time></trkpt><trkpt lat="45.8785257" lon="13.7020659"><ele>80.0</ele><time>2026-04-25T14:14:01.729Z</time></trkpt><trkpt lat="45.8785645" lon="13.7019191"><ele>80.0</ele><time>2026-04-25T14:14:02.729Z</time></trkpt><trkpt lat="45.8786013" lon="13.7017773"><ele>80.0</ele><time>2026-04-25T14:14:03.729Z</time></trkpt><trkpt lat="45.8786334" lon="13.7016411"><ele>80.0</ele><time>2026-04-25T14:14:04.729Z</time></trkpt><trkpt lat="45.8786555" lon="13.7015109"><ele>80.0</ele><time>2026-04-25T14:14:05.729Z</time></trkpt><trkpt lat="45.8786622" lon="13.7013867"><ele>80.4</ele><time>2026-04-25T14:14:06.728Z</time></trkpt><trkpt lat="45.8786579" lon="13.7012639"><ele>80.8</ele><time>2026-04-25T14:14:07.728Z</time></trkpt><trkpt lat="45.8786475" lon="13.7011424"><ele>81.19999999999999</ele><time>2026-04-25T14:14:08.728Z</time></trkpt><trkpt lat="45.8786334" lon="13.7010123"><ele>81.6</ele><time>2026-04-25T14:14:09.729Z</time></trkpt><trkpt lat="45.8786063" lon="13.7008834"><ele>82.0</ele><time>2026-04-25T14:14:10.729Z</time></trkpt><trkpt lat="45.8785751" lon="13.700749"><ele>80.75</ele><time>2026-04-25T14:14:11.729Z</time></trkpt><trkpt lat="45.878542" lon="13.7006094"><ele>79.5</ele><time>2026-04-25T14:14:12.729Z</time></trkpt><trkpt lat="45.8785209" lon="13.7004533"><ele>78.25</ele><time>2026-04-25T14:14:13.729Z</time></trkpt><trkpt lat="45.8785157" lon="13.700281"><ele>77.0</ele><time>2026-04-25T14:14:14.728Z</time></trkpt><trkpt lat="45.8785264" lon="13.7000912"><ele>76.5</ele><time>2026-04-25T14:14:15.729Z</time></trkpt><trkpt lat="45.8785414" lon="13.6999074"><ele>76.0</ele><time>2026-04-25T14:14:16.729Z</time></trkpt><trkpt lat="45.8785518" lon="13.6997291"><ele>75.5</ele><time>2026-04-25T14:14:17.729Z</time></trkpt><trkpt lat="45.8785556" lon="13.699558"><ele>75.0</ele><time>2026-04-25T14:14:18.729Z</time></trkpt><trkpt lat="45.8785504" lon="13.6993978"><ele>74.6</ele><time>2026-04-25T14:14:19.729Z</time></trkpt><trkpt lat="45.8785478" lon="13.6992521"><ele>74.2</ele><time>2026-04-25T14:14:20.729Z</time></trkpt><trkpt lat="45.8785573" lon="13.6991168"><ele>73.8</ele><time>2026-04-25T14:14:21.729Z</time></trkpt><trkpt lat="45.8785845" lon="13.6989781"><ele>73.4</ele><time>2026-04-25T14:14:22.729Z</time></trkpt><trkpt lat="45.8786047" lon="13.6988462"><ele>73.0</ele><time>2026-04-25T14:14:23.729Z</time></trkpt><trkpt lat="45.8786281" lon="13.6987191"><ele>73.0</ele><time>2026-04-25T14:14:24.729Z</time></trkpt><trkpt lat="45.8786563" lon="13.6985909"><ele>73.0</ele><time>2026-04-25T14:14:25.729Z</time></trkpt><trkpt lat="45.8786891" lon="13.6984651"><ele>73.0</ele><time>2026-04-25T14:14:26.729Z</time></trkpt><trkpt lat="45.8787284" lon="13.6983396"><ele>73.0</ele><time>2026-04-25T14:14:27.728Z</time></trkpt><trkpt lat="45.8787729" lon="13.6982079"><ele>73.0</ele><time>2026-04-25T14:14:28.729Z</time></trkpt><trkpt lat="45.8788225" lon="13.6980664"><ele>73.75</ele><time>2026-04-25T14:14:29.729Z</time></trkpt><trkpt lat="45.8788668" lon="13.6979166"><ele>74.5</ele><time>2026-04-25T14:14:30.728Z</time></trkpt><trkpt lat="45.8789062" lon="13.6977631"><ele>75.25</ele><time>2026-04-25T14:14:31.729Z</time></trkpt><trkpt lat="45.8789453" lon="13.6976079"><ele>76.0</ele><time>2026-04-25T14:14:32.729Z</time></trkpt><trkpt lat="45.8789813" lon="13.6974548"><ele>76.0</ele><time>2026-04-25T14:14:33.729Z</time></trkpt><trkpt lat="45.8790156" lon="13.6973106"><ele>76.0</ele><time>2026-04-25T14:14:34.729Z</time></trkpt><trkpt lat="45.8790556" lon="13.697181"><ele>76.0</ele><time>2026-04-25T14:14:35.729Z</time></trkpt><trkpt lat="45.8791118" lon="13.6970643"><ele>76.0</ele><time>2026-04-25T14:14:36.729Z</time></trkpt><trkpt lat="45.8791808" lon="13.6969571"><ele>76.0</ele><time>2026-04-25T14:14:37.729Z</time></trkpt><trkpt lat="45.8792581" lon="13.6968474"><ele>75.25</ele><time>2026-04-25T14:14:38.729Z</time></trkpt><trkpt lat="45.8793307" lon="13.6967226"><ele>74.5</ele><time>2026-04-25T14:14:39.729Z</time></trkpt><trkpt lat="45.8793918" lon="13.696581"><ele>73.75</ele><time>2026-04-25T14:14:40.729Z</time></trkpt><trkpt lat="45.8794392" lon="13.6964252"><ele>73.0</ele><time>2026-04-25T14:14:41.729Z</time></trkpt><trkpt lat="45.8794907" lon="13.6962725"><ele>73.0</ele><time>2026-04-25T14:14:42.729Z</time></trkpt><trkpt lat="45.8795542" lon="13.6961396"><ele>73.0</ele><time>2026-04-25T14:14:43.729Z</time></trkpt><trkpt lat="45.8796223" lon="13.6960304"><ele>73.0</ele><time>2026-04-25T14:14:44.729Z</time></trkpt><trkpt lat="45.879704" lon="13.695949"><ele>73.0</ele><time>2026-04-25T14:14:45.729Z</time></trkpt><trkpt lat="45.8798065" lon="13.6959067"><ele>73.0</ele><time>2026-04-25T14:14:46.729Z</time></trkpt><trkpt lat="45.8799152" lon="13.6958866"><ele>73.0</ele><time>2026-04-25T14:14:47.729Z</time></trkpt><trkpt lat="45.8800306" lon="13.6958845"><ele>73.0</ele><time>2026-04-25T14:14:48.729Z</time></trkpt><trkpt lat="45.8801456" lon="13.6959039"><ele>73.0</ele><time>2026-04-25T14:14:49.729Z</time></trkpt><trkpt lat="45.880262" lon="13.6959299"><ele>73.0</ele><time>2026-04-25T14:14:50.729Z</time></trkpt><trkpt lat="45.880369" lon="13.6959634"><ele>73.0</ele><time>2026-04-25T14:14:51.729Z</time></trkpt><trkpt lat="45.8804662" lon="13.695998"><ele>73.0</ele><time>2026-04-25T14:14:52.729Z</time></trkpt><trkpt lat="45.8805471" lon="13.6960255"><ele>73.0</ele><time>2026-04-25T14:14:53.729Z</time></trkpt><trkpt lat="45.8806116" lon="13.6960445"><ele>73.0</ele><time>2026-04-25T14:14:54.729Z</time></trkpt><trkpt lat="45.880704" lon="13.6960703"><ele>73.0</ele><time>2026-04-25T14:14:56.728Z</time></trkpt><trkpt lat="45.880764" lon="13.6960388"><ele>73.0</ele><time>2026-04-25T14:14:57.729Z</time></trkpt><trkpt lat="45.8808383" lon="13.6959766"><ele>73.0</ele><time>2026-04-25T14:14:58.728Z</time></trkpt><trkpt lat="45.8809201" lon="13.6958815"><ele>73.0</ele><time>2026-04-25T14:14:59.727Z</time></trkpt><trkpt lat="45.8809768" lon="13.6957463"><ele>73.0</ele><time>2026-04-25T14:15:00.728Z</time></trkpt><trkpt lat="45.8810074" lon="13.6955839"><ele>73.0</ele><time>2026-04-25T14:15:01.728Z</time></trkpt><trkpt lat="45.8810174" lon="13.6954021"><ele>73.0</ele><time>2026-04-25T14:15:02.727Z</time></trkpt><trkpt lat="45.8810072" lon="13.6952181"><ele>73.0</ele><time>2026-04-25T14:15:03.728Z</time></trkpt><trkpt lat="45.8809696" lon="13.6950303"><ele>73.0</ele><time>2026-04-25T14:15:04.728Z</time></trkpt><trkpt lat="45.8809335" lon="13.6948346"><ele>73.0</ele><time>2026-04-25T14:15:05.728Z</time></trkpt><trkpt lat="45.880917" lon="13.694617"><ele>72.0</ele><time>2026-04-25T14:15:06.728Z</time></trkpt><trkpt lat="45.8809181" lon="13.6943841"><ele>71.0</ele><time>2026-04-25T14:15:07.728Z</time></trkpt><trkpt lat="45.8809312" lon="13.6941355"><ele>70.0</ele><time>2026-04-25T14:15:08.728Z</time></trkpt><trkpt lat="45.8809495" lon="13.6938807"><ele>75.0</ele><time>2026-04-25T14:15:09.728Z</time></trkpt><trkpt lat="45.8809603" lon="13.6936129"><ele>80.0</ele><time>2026-04-25T14:15:10.728Z</time></trkpt><trkpt lat="45.8809538" lon="13.6933415"><ele>85.0</ele><time>2026-04-25T14:15:11.728Z</time></trkpt><trkpt lat="45.880944" lon="13.69308"><ele>85.0</ele><time>2026-04-25T14:15:12.728Z</time></trkpt><trkpt lat="45.8809574" lon="13.6928158"><ele>85.0</ele><time>2026-04-25T14:15:13.728Z</time></trkpt><trkpt lat="45.8809984" lon="13.6925499"><ele>85.0</ele><time>2026-04-25T14:15:14.728Z</time></trkpt><trkpt lat="45.8810476" lon="13.6922689"><ele>82.66666666666666</ele><time>2026-04-25T14:15:15.728Z</time></trkpt><trkpt lat="45.8810985" lon="13.6919834"><ele>80.33333333333333</ele><time>2026-04-25T14:15:16.727Z</time></trkpt><trkpt lat="45.8811531" lon="13.6916865"><ele>78.0</ele><time>2026-04-25T14:15:17.728Z</time></trkpt><trkpt lat="45.881213" lon="13.6913818"><ele>75.66666666666667</ele><time>2026-04-25T14:15:18.728Z</time></trkpt><trkpt lat="45.8812746" lon="13.6910756"><ele>73.33333333333334</ele><time>2026-04-25T14:15:19.727Z</time></trkpt><trkpt lat="45.8813375" lon="13.6907627"><ele>71.0</ele><time>2026-04-25T14:15:20.728Z</time></trkpt><trkpt lat="45.8813999" lon="13.6904577"><ele>70.66666666666667</ele><time>2026-04-25T14:15:21.728Z</time></trkpt><trkpt lat="45.8814599" lon="13.6901612"><ele>70.33333333333333</ele><time>2026-04-25T14:15:22.727Z</time></trkpt><trkpt lat="45.8815229" lon="13.6898693"><ele>70.0</ele><time>2026-04-25T14:15:23.728Z</time></trkpt><trkpt lat="45.8815918" lon="13.6895835"><ele>70.33333333333333</ele><time>2026-04-25T14:15:24.728Z</time></trkpt><trkpt lat="45.881658" lon="13.6892991"><ele>70.66666666666667</ele><time>2026-04-25T14:15:25.728Z</time></trkpt><trkpt lat="45.8817211" lon="13.6890127"><ele>71.0</ele><time>2026-04-25T14:15:26.728Z</time></trkpt><trkpt lat="45.8817778" lon="13.6887269"><ele>72.33333333333334</ele><time>2026-04-25T14:15:27.728Z</time></trkpt><trkpt lat="45.8818287" lon="13.6884329"><ele>73.66666666666667</ele><time>2026-04-25T14:15:28.728Z</time></trkpt><trkpt lat="45.8818672" lon="13.6881399"><ele>75.0</ele><time>2026-04-25T14:15:29.728Z</time></trkpt><trkpt lat="45.8818939" lon="13.6878414"><ele>75.0</ele><time>2026-04-25T14:15:30.728Z</time></trkpt><trkpt lat="45.8819174" lon="13.6875408"><ele>75.0</ele><time>2026-04-25T14:15:31.728Z</time></trkpt><trkpt lat="45.8819388" lon="13.687244"><ele>75.0</ele><time>2026-04-25T14:15:32.728Z</time></trkpt><trkpt lat="45.8819636" lon="13.6869427"><ele>73.33333333333333</ele><time>2026-04-25T14:15:33.728Z</time></trkpt><trkpt lat="45.881993" lon="13.6866465"><ele>71.66666666666666</ele><time>2026-04-25T14:15:34.728Z</time></trkpt><trkpt lat="45.882027" lon="13.6863555"><ele>70.0</ele><time>2026-04-25T14:15:35.728Z</time></trkpt><trkpt lat="45.8820665" lon="13.6860731"><ele>68.0</ele><time>2026-04-25T14:15:36.727Z</time></trkpt><trkpt lat="45.8821091" lon="13.6858067"><ele>66.0</ele><time>2026-04-25T14:15:37.728Z</time></trkpt><trkpt lat="45.8821457" lon="13.6855605"><ele>64.0</ele><time>2026-04-25T14:15:38.728Z</time></trkpt><trkpt lat="45.8821747" lon="13.6853346"><ele>62.75</ele><time>2026-04-25T14:15:39.728Z</time></trkpt><trkpt lat="45.8822061" lon="13.6851198"><ele>61.5</ele><time>2026-04-25T14:15:40.728Z</time></trkpt><trkpt lat="45.8822488" lon="13.6849252"><ele>60.25</ele><time>2026-04-25T14:15:41.728Z</time></trkpt><trkpt lat="45.8823152" lon="13.6847317"><ele>59.0</ele><time>2026-04-25T14:15:42.728Z</time></trkpt><trkpt lat="45.8824131" lon="13.684546"><ele>59.0</ele><time>2026-04-25T14:15:43.727Z</time></trkpt><trkpt lat="45.8825381" lon="13.6843555"><ele>59.0</ele><time>2026-04-25T14:15:44.728Z</time></trkpt><trkpt lat="45.8826737" lon="13.6841709"><ele>59.0</ele><time>2026-04-25T14:15:45.728Z</time></trkpt><trkpt lat="45.8828126" lon="13.683977"><ele>59.66666666666667</ele><time>2026-04-25T14:15:46.728Z</time></trkpt><trkpt lat="45.8829435" lon="13.6837672"><ele>60.33333333333333</ele><time>2026-04-25T14:15:47.728Z</time></trkpt><trkpt lat="45.8830696" lon="13.6835418"><ele>61.0</ele><time>2026-04-25T14:15:48.728Z</time></trkpt><trkpt lat="45.8831913" lon="13.6833084"><ele>61.0</ele><time>2026-04-25T14:15:49.728Z</time></trkpt><trkpt lat="45.8833128" lon="13.6830676"><ele>61.0</ele><time>2026-04-25T14:15:50.728Z</time></trkpt><trkpt lat="45.8834303" lon="13.6828267"><ele>61.0</ele><time>2026-04-25T14:15:51.727Z</time></trkpt><trkpt lat="45.8835398" lon="13.6825876"><ele>62.0</ele><time>2026-04-25T14:15:52.728Z</time></trkpt><trkpt lat="45.8836352" lon="13.6823608"><ele>63.0</ele><time>2026-04-25T14:15:53.728Z</time></trkpt><trkpt lat="45.883736" lon="13.6821443"><ele>64.0</ele><time>2026-04-25T14:15:54.727Z</time></trkpt><trkpt lat="45.8838476" lon="13.6819452"><ele>62.666666666666664</ele><time>2026-04-25T14:15:55.728Z</time></trkpt><trkpt lat="45.88397" lon="13.6817642"><ele>61.33333333333333</ele><time>2026-04-25T14:15:56.728Z</time></trkpt><trkpt lat="45.8840964" lon="13.6815951"><ele>60.0</ele><time>2026-04-25T14:15:57.727Z</time></trkpt><trkpt lat="45.8842227" lon="13.681437"><ele>60.33333333333333</ele><time>2026-04-25T14:15:58.728Z</time></trkpt><trkpt lat="45.8843447" lon="13.6812899"><ele>60.666666666666664</ele><time>2026-04-25T14:15:59.728Z</time></trkpt><trkpt lat="45.8844596" lon="13.681145"><ele>61.0</ele><time>2026-04-25T14:16:00.727Z</time></trkpt><trkpt lat="45.8845613" lon="13.6809891"><ele>61.0</ele><time>2026-04-25T14:16:01.728Z</time></trkpt><trkpt lat="45.8846566" lon="13.6808323"><ele>61.0</ele><time>2026-04-25T14:16:02.728Z</time></trkpt><trkpt lat="45.8847545" lon="13.6806981"><ele>61.0</ele><time>2026-04-25T14:16:03.727Z</time></trkpt><trkpt lat="45.8848666" lon="13.6805758"><ele>61.0</ele><time>2026-04-25T14:16:04.729Z</time></trkpt><trkpt lat="45.8849739" lon="13.6804702"><ele>61.0</ele><time>2026-04-25T14:16:05.728Z</time></trkpt><trkpt lat="45.885079" lon="13.6803716"><ele>60.99999999999999</ele><time>2026-04-25T14:16:06.728Z</time></trkpt><trkpt lat="45.8851757" lon="13.6802898"><ele>60.99999999999999</ele><time>2026-04-25T14:16:07.728Z</time></trkpt><trkpt lat="45.8852581" lon="13.6802041"><ele>61.0</ele><time>2026-04-25T14:16:08.728Z</time></trkpt><trkpt lat="45.8853285" lon="13.6801032"><ele>61.0</ele><time>2026-04-25T14:16:09.728Z</time></trkpt><trkpt lat="45.8853672" lon="13.6799735"><ele>60.75</ele><time>2026-04-25T14:16:10.728Z</time></trkpt><trkpt lat="45.885377" lon="13.6798215"><ele>60.5</ele><time>2026-04-25T14:16:11.728Z</time></trkpt><trkpt lat="45.8853834" lon="13.6796646"><ele>60.25</ele><time>2026-04-25T14:16:12.727Z</time></trkpt><trkpt lat="45.8854015" lon="13.6794931"><ele>60.0</ele><time>2026-04-25T14:16:13.728Z</time></trkpt><trkpt lat="45.8854465" lon="13.6793221"><ele>59.0</ele><time>2026-04-25T14:16:14.728Z</time></trkpt><trkpt lat="45.8855179" lon="13.6791479"><ele>58.0</ele><time>2026-04-25T14:16:15.728Z</time></trkpt><trkpt lat="45.8856183" lon="13.6789849"><ele>57.0</ele><time>2026-04-25T14:16:16.728Z</time></trkpt><trkpt lat="45.8857402" lon="13.6788399"><ele>57.0</ele><time>2026-04-25T14:16:17.728Z</time></trkpt><trkpt lat="45.8858733" lon="13.6786992"><ele>57.0</ele><time>2026-04-25T14:16:18.728Z</time></trkpt><trkpt lat="45.8860122" lon="13.6785536"><ele>57.0</ele><time>2026-04-25T14:16:19.728Z</time></trkpt><trkpt lat="45.8861494" lon="13.678394"><ele>56.33333333333333</ele><time>2026-04-25T14:16:20.728Z</time></trkpt><trkpt lat="45.8862799" lon="13.6782209"><ele>55.666666666666664</ele><time>2026-04-25T14:16:21.727Z</time></trkpt><trkpt lat="45.8864068" lon="13.6780357"><ele>55.0</ele><time>2026-04-25T14:16:22.728Z</time></trkpt><trkpt lat="45.8865242" lon="13.6778221"><ele>54.0</ele><time>2026-04-25T14:16:23.728Z</time></trkpt><trkpt lat="45.8866306" lon="13.6775698"><ele>53.0</ele><time>2026-04-25T14:16:24.728Z</time></trkpt><trkpt lat="45.8867326" lon="13.6772848"><ele>52.0</ele><time>2026-04-25T14:16:25.728Z</time></trkpt><trkpt lat="45.886838" lon="13.6769766"><ele>51.0</ele><time>2026-04-25T14:16:26.728Z</time></trkpt><trkpt lat="45.8869439" lon="13.6766533"><ele>50.0</ele><time>2026-04-25T14:16:27.728Z</time></trkpt><trkpt lat="45.8870531" lon="13.6763232"><ele>50.5</ele><time>2026-04-25T14:16:28.728Z</time></trkpt><trkpt lat="45.8871543" lon="13.6760052"><ele>51.0</ele><time>2026-04-25T14:16:29.728Z</time></trkpt><trkpt lat="45.8872514" lon="13.6757015"><ele>51.0</ele><time>2026-04-25T14:16:30.728Z</time></trkpt><trkpt lat="45.8873436" lon="13.6754151"><ele>51.0</ele><time>2026-04-25T14:16:31.728Z</time></trkpt><trkpt lat="45.8874288" lon="13.6751452"><ele>51.0</ele><time>2026-04-25T14:16:32.728Z</time></trkpt><trkpt lat="45.8875077" lon="13.6748914"><ele>51.0</ele><time>2026-04-25T14:16:33.728Z</time></trkpt><trkpt lat="45.8875785" lon="13.6746595"><ele>51.0</ele><time>2026-04-25T14:16:34.728Z</time></trkpt><trkpt lat="45.8876421" lon="13.6744413"><ele>51.0</ele><time>2026-04-25T14:16:35.727Z</time></trkpt><trkpt lat="45.8876996" lon="13.6742299"><ele>51.0</ele><time>2026-04-25T14:16:36.728Z</time></trkpt><trkpt lat="45.8877528" lon="13.6740258"><ele>51.0</ele><time>2026-04-25T14:16:37.728Z</time></trkpt><trkpt lat="45.8878031" lon="13.6738311"><ele>51.0</ele><time>2026-04-25T14:16:38.728Z</time></trkpt><trkpt lat="45.8878536" lon="13.6736504"><ele>51.0</ele><time>2026-04-25T14:16:39.728Z</time></trkpt><trkpt lat="45.8879076" lon="13.6734778"><ele>51.0</ele><time>2026-04-25T14:16:40.728Z</time></trkpt><trkpt lat="45.8879685" lon="13.6733164"><ele>51.0</ele><time>2026-04-25T14:16:41.728Z</time></trkpt><trkpt lat="45.8880395" lon="13.673164"><ele>51.0</ele><time>2026-04-25T14:16:42.728Z</time></trkpt><trkpt lat="45.8881219" lon="13.6730229"><ele>51.0</ele><time>2026-04-25T14:16:43.728Z</time></trkpt><trkpt lat="45.8882138" lon="13.6728893"><ele>50.75</ele><time>2026-04-25T14:16:44.728Z</time></trkpt><trkpt lat="45.8883153" lon="13.6727697"><ele>50.5</ele><time>2026-04-25T14:16:45.728Z</time></trkpt><trkpt lat="45.8884242" lon="13.6726527"><ele>50.25</ele><time>2026-04-25T14:16:46.728Z</time></trkpt><trkpt lat="45.8885352" lon="13.6725516"><ele>50.0</ele><time>2026-04-25T14:16:47.728Z</time></trkpt><trkpt lat="45.8886427" lon="13.6724546"><ele>50.0</ele><time>2026-04-25T14:16:48.728Z</time></trkpt><trkpt lat="45.8887309" lon="13.6723408"><ele>50.0</ele><time>2026-04-25T14:16:49.727Z</time></trkpt><trkpt lat="45.8887908" lon="13.6721944"><ele>50.0</ele><time>2026-04-25T14:16:50.728Z</time></trkpt><trkpt lat="45.8888209" lon="13.6720269"><ele>50.0</ele><time>2026-04-25T14:16:51.728Z</time></trkpt><trkpt lat="45.8888365" lon="13.6718764"><ele>50.0</ele><time>2026-04-25T14:16:52.727Z</time></trkpt><trkpt lat="45.8888431" lon="13.6717294"><ele>50.0</ele><time>2026-04-25T14:16:53.728Z</time></trkpt><trkpt lat="45.8888526" lon="13.6715843"><ele>50.0</ele><time>2026-04-25T14:16:54.728Z</time></trkpt><trkpt lat="45.8888717" lon="13.6714419"><ele>50.0</ele><time>2026-04-25T14:16:55.728Z</time></trkpt><trkpt lat="45.8889051" lon="13.6713047"><ele>50.0</ele><time>2026-04-25T14:16:56.727Z</time></trkpt><trkpt lat="45.8889501" lon="13.6711714"><ele>50.4</ele><time>2026-04-25T14:16:57.728Z</time></trkpt><trkpt lat="45.8889984" lon="13.6710547"><ele>50.8</ele><time>2026-04-25T14:16:58.728Z</time></trkpt><trkpt lat="45.8890476" lon="13.6709502"><ele>51.2</ele><time>2026-04-25T14:16:59.728Z</time></trkpt><trkpt lat="45.8891035" lon="13.6708541"><ele>51.6</ele><time>2026-04-25T14:17:00.728Z</time></trkpt><trkpt lat="45.8891656" lon="13.6707537"><ele>52.0</ele><time>2026-04-25T14:17:01.728Z</time></trkpt><trkpt lat="45.8892268" lon="13.6706483"><ele>51.8</ele><time>2026-04-25T14:17:02.728Z</time></trkpt><trkpt lat="45.8892896" lon="13.6705391"><ele>51.6</ele><time>2026-04-25T14:17:03.727Z</time></trkpt><trkpt lat="45.8893549" lon="13.6704189"><ele>51.4</ele><time>2026-04-25T14:17:04.728Z</time></trkpt><trkpt lat="45.8894168" lon="13.6703069"><ele>51.199999999999996</ele><time>2026-04-25T14:17:05.728Z</time></trkpt><trkpt lat="45.8894795" lon="13.670206"><ele>51.0</ele><time>2026-04-25T14:17:06.728Z</time></trkpt><trkpt lat="45.8895357" lon="13.6701115"><ele>51.5</ele><time>2026-04-25T14:17:07.728Z</time></trkpt><trkpt lat="45.889595" lon="13.6700331"><ele>52.0</ele><time>2026-04-25T14:17:08.728Z</time></trkpt><trkpt lat="45.889658" lon="13.6699676"><ele>52.5</ele><time>2026-04-25T14:17:09.727Z</time></trkpt><trkpt lat="45.8897246" lon="13.6699267"><ele>53.0</ele><time>2026-04-25T14:17:10.728Z</time></trkpt><trkpt lat="45.8897897" lon="13.6698733"><ele>53.5</ele><time>2026-04-25T14:17:11.728Z</time></trkpt><trkpt lat="45.8898273" lon="13.669779"><ele>54.0</ele><time>2026-04-25T14:17:12.727Z</time></trkpt><trkpt lat="45.8898587" lon="13.669668"><ele>54.0</ele><time>2026-04-25T14:17:13.728Z</time></trkpt><trkpt lat="45.8899047" lon="13.6695382"><ele>54.00000000000001</ele><time>2026-04-25T14:17:14.728Z</time></trkpt><trkpt lat="45.8899564" lon="13.6694166"><ele>54.00000000000001</ele><time>2026-04-25T14:17:15.727Z</time></trkpt><trkpt lat="45.8899949" lon="13.6692937"><ele>54.0</ele><time>2026-04-25T14:17:16.728Z</time></trkpt><trkpt lat="45.8900091" lon="13.6691713"><ele>54.0</ele><time>2026-04-25T14:17:17.728Z</time></trkpt><trkpt lat="45.8899977" lon="13.6690613"><ele>54.0</ele><time>2026-04-25T14:17:18.728Z</time></trkpt><trkpt lat="45.8899542" lon="13.6689673"><ele>54.00000000000001</ele><time>2026-04-25T14:17:19.728Z</time></trkpt><trkpt lat="45.8898812" lon="13.6688895"><ele>54.00000000000001</ele><time>2026-04-25T14:17:20.728Z</time></trkpt><trkpt lat="45.8897745" lon="13.6688175"><ele>54.0</ele><time>2026-04-25T14:17:21.728Z</time></trkpt><trkpt lat="45.8896338" lon="13.6687531"><ele>54.0</ele><time>2026-04-25T14:17:22.728Z</time></trkpt><trkpt lat="45.8894804" lon="13.668688"><ele>53.66666666666667</ele><time>2026-04-25T14:17:23.728Z</time></trkpt><trkpt lat="45.8893104" lon="13.6686058"><ele>53.333333333333336</ele><time>2026-04-25T14:17:24.728Z</time></trkpt><trkpt lat="45.8891296" lon="13.6685214"><ele>53.0</ele><time>2026-04-25T14:17:25.728Z</time></trkpt><trkpt lat="45.888955" lon="13.668444"><ele>52.66666666666667</ele><time>2026-04-25T14:17:26.728Z</time></trkpt><trkpt lat="45.8887959" lon="13.6683634"><ele>52.33333333333333</ele><time>2026-04-25T14:17:27.728Z</time></trkpt><trkpt lat="45.888646" lon="13.6682765"><ele>52.0</ele><time>2026-04-25T14:17:28.728Z</time></trkpt><trkpt lat="45.8885004" lon="13.6681838"><ele>51.33333333333333</ele><time>2026-04-25T14:17:29.729Z</time></trkpt><trkpt lat="45.8883641" lon="13.6680856"><ele>50.66666666666667</ele><time>2026-04-25T14:17:30.728Z</time></trkpt><trkpt lat="45.8882272" lon="13.6679904"><ele>50.0</ele><time>2026-04-25T14:17:31.728Z</time></trkpt><trkpt lat="45.8880787" lon="13.6679337"><ele>50.0</ele><time>2026-04-25T14:17:32.728Z</time></trkpt><trkpt lat="45.8879208" lon="13.6679047"><ele>50.0</ele><time>2026-04-25T14:17:33.728Z</time></trkpt><trkpt lat="45.8877548" lon="13.6678854"><ele>50.0</ele><time>2026-04-25T14:17:34.728Z</time></trkpt><trkpt lat="45.8875875" lon="13.6678555"><ele>50.0</ele><time>2026-04-25T14:17:35.727Z</time></trkpt><trkpt lat="45.8874151" lon="13.6678244"><ele>50.0</ele><time>2026-04-25T14:17:36.728Z</time></trkpt><trkpt lat="45.8872388" lon="13.6677952"><ele>50.0</ele><time>2026-04-25T14:17:37.728Z</time></trkpt><trkpt lat="45.8870678" lon="13.6677667"><ele>50.0</ele><time>2026-04-25T14:17:38.727Z</time></trkpt><trkpt lat="45.8868962" lon="13.6677396"><ele>50.0</ele><time>2026-04-25T14:17:39.728Z</time></trkpt><trkpt lat="45.88673" lon="13.6677129"><ele>50.0</ele><time>2026-04-25T14:17:40.728Z</time></trkpt><trkpt lat="45.8865726" lon="13.6676884"><ele>50.5</ele><time>2026-04-25T14:17:41.728Z</time></trkpt><trkpt lat="45.8864371" lon="13.6676672"><ele>51.0</ele><time>2026-04-25T14:17:42.728Z</time></trkpt><trkpt lat="45.8863148" lon="13.6676512"><ele>51.5</ele><time>2026-04-25T14:17:43.728Z</time></trkpt><trkpt lat="45.8861816" lon="13.6676389"><ele>52.0</ele><time>2026-04-25T14:17:44.728Z</time></trkpt><trkpt lat="45.8860438" lon="13.6676154"><ele>52.33333333333333</ele><time>2026-04-25T14:17:45.727Z</time></trkpt><trkpt lat="45.8858936" lon="13.6675858"><ele>52.66666666666667</ele><time>2026-04-25T14:17:46.728Z</time></trkpt><trkpt lat="45.8857317" lon="13.6675606"><ele>53.0</ele><time>2026-04-25T14:17:47.728Z</time></trkpt><trkpt lat="45.8855582" lon="13.6675368"><ele>53.0</ele><time>2026-04-25T14:17:48.727Z</time></trkpt><trkpt lat="45.8853787" lon="13.6675094"><ele>53.0</ele><time>2026-04-25T14:17:49.728Z</time></trkpt><trkpt lat="45.8851953" lon="13.6674798"><ele>53.0</ele><time>2026-04-25T14:17:50.728Z</time></trkpt><trkpt lat="45.8850069" lon="13.6674472"><ele>52.333333333333336</ele><time>2026-04-25T14:17:51.728Z</time></trkpt><trkpt lat="45.8848109" lon="13.6674132"><ele>51.66666666666667</ele><time>2026-04-25T14:17:52.728Z</time></trkpt><trkpt lat="45.8846131" lon="13.6673835"><ele>51.0</ele><time>2026-04-25T14:17:53.728Z</time></trkpt><trkpt lat="45.884417" lon="13.6673491"><ele>52.0</ele><time>2026-04-25T14:17:54.728Z</time></trkpt><trkpt lat="45.8842144" lon="13.6673231"><ele>53.0</ele><time>2026-04-25T14:17:55.728Z</time></trkpt><trkpt lat="45.8840112" lon="13.6672942"><ele>54.0</ele><time>2026-04-25T14:17:56.728Z</time></trkpt><trkpt lat="45.8838089" lon="13.6672623"><ele>54.0</ele><time>2026-04-25T14:17:57.728Z</time></trkpt><trkpt lat="45.8836055" lon="13.6672291"><ele>54.0</ele><time>2026-04-25T14:17:58.728Z</time></trkpt><trkpt lat="45.8834026" lon="13.6671983"><ele>54.0</ele><time>2026-04-25T14:17:59.728Z</time></trkpt><trkpt lat="45.8832025" lon="13.6671651"><ele>54.0</ele><time>2026-04-25T14:18:00.728Z</time></trkpt><trkpt lat="45.8830065" lon="13.6671376"><ele>54.0</ele><time>2026-04-25T14:18:01.728Z</time></trkpt><trkpt lat="45.8828209" lon="13.6671111"><ele>54.0</ele><time>2026-04-25T14:18:02.728Z</time></trkpt><trkpt lat="45.8826455" lon="13.6670836"><ele>54.33333333333333</ele><time>2026-04-25T14:18:03.728Z</time></trkpt><trkpt lat="45.8824831" lon="13.6670631"><ele>54.666666666666664</ele><time>2026-04-25T14:18:04.728Z</time></trkpt><trkpt lat="45.8823243" lon="13.6670419"><ele>55.0</ele><time>2026-04-25T14:18:05.728Z</time></trkpt><trkpt lat="45.8821738" lon="13.6670233"><ele>55.0</ele><time>2026-04-25T14:18:06.728Z</time></trkpt><trkpt lat="45.8820346" lon="13.6670006"><ele>55.0</ele><time>2026-04-25T14:18:07.728Z</time></trkpt><trkpt lat="45.8819038" lon="13.6669753"><ele>55.0</ele><time>2026-04-25T14:18:08.728Z</time></trkpt><trkpt lat="45.8817862" lon="13.666937"><ele>55.0</ele><time>2026-04-25T14:18:09.728Z</time></trkpt><trkpt lat="45.8816822" lon="13.6668855"><ele>55.0</ele><time>2026-04-25T14:18:10.728Z</time></trkpt><trkpt lat="45.8815911" lon="13.666822"><ele>55.0</ele><time>2026-04-25T14:18:11.728Z</time></trkpt><trkpt lat="45.8815125" lon="13.6667565"><ele>55.0</ele><time>2026-04-25T14:18:12.728Z</time></trkpt><trkpt lat="45.8814555" lon="13.6666705"><ele>55.0</ele><time>2026-04-25T14:18:13.728Z</time></trkpt><trkpt lat="45.8814327" lon="13.6665633"><ele>55.0</ele><time>2026-04-25T14:18:14.728Z</time></trkpt><trkpt lat="45.881442" lon="13.6664231"><ele>55.0</ele><time>2026-04-25T14:18:15.728Z</time></trkpt><trkpt lat="45.8814758" lon="13.6662412"><ele>55.0</ele><time>2026-04-25T14:18:16.728Z</time></trkpt><trkpt lat="45.8815241" lon="13.6660121"><ele>55.0</ele><time>2026-04-25T14:18:17.728Z</time></trkpt><trkpt lat="45.8815752" lon="13.6657498"><ele>55.0</ele><time>2026-04-25T14:18:18.728Z</time></trkpt><trkpt lat="45.8816298" lon="13.665465"><ele>55.0</ele><time>2026-04-25T14:18:19.728Z</time></trkpt><trkpt lat="45.8816693" lon="13.6651939"><ele>55.0</ele><time>2026-04-25T14:18:20.728Z</time></trkpt><trkpt lat="45.8816881" lon="13.6649107"><ele>55.0</ele><time>2026-04-25T14:18:21.728Z</time></trkpt><trkpt lat="45.8816937" lon="13.664616"><ele>55.0</ele><time>2026-04-25T14:18:22.728Z</time></trkpt><trkpt lat="45.8816929" lon="13.664333"><ele>55.0</ele><time>2026-04-25T14:18:23.728Z</time></trkpt><trkpt lat="45.8816837" lon="13.6640719"><ele>55.0</ele><time>2026-04-25T14:18:24.728Z</time></trkpt><trkpt lat="45.8816648" lon="13.6638302"><ele>55.0</ele><time>2026-04-25T14:18:25.728Z</time></trkpt><trkpt lat="45.88164" lon="13.6636085"><ele>55.0</ele><time>2026-04-25T14:18:26.728Z</time></trkpt><trkpt lat="45.8816206" lon="13.6634035"><ele>55.0</ele><time>2026-04-25T14:18:27.728Z</time></trkpt><trkpt lat="45.8816018" lon="13.6632203"><ele>55.0</ele><time>2026-04-25T14:18:28.727Z</time></trkpt><trkpt lat="45.881584" lon="13.6630561"><ele>55.0</ele><time>2026-04-25T14:18:29.727Z</time></trkpt><trkpt lat="45.8815752" lon="13.6629147"><ele>55.0</ele><time>2026-04-25T14:18:30.726Z</time></trkpt><trkpt lat="45.8815585" lon="13.6627993"><ele>55.0</ele><time>2026-04-25T14:18:31.727Z</time></trkpt><trkpt lat="45.881477" lon="13.6627039"><ele>55.0</ele><time>2026-04-25T14:18:33.727Z</time></trkpt><trkpt lat="45.8814025" lon="13.6627099"><ele>55.0</ele><time>2026-04-25T14:18:34.727Z</time></trkpt><trkpt lat="45.8812932" lon="13.6627341"><ele>55.0</ele><time>2026-04-25T14:18:35.727Z</time></trkpt><trkpt lat="45.8811545" lon="13.6627633"><ele>55.0</ele><time>2026-04-25T14:18:36.727Z</time></trkpt><trkpt lat="45.8809951" lon="13.6628094"><ele>57.0</ele><time>2026-04-25T14:18:37.727Z</time></trkpt><trkpt lat="45.8808386" lon="13.6628593"><ele>59.0</ele><time>2026-04-25T14:18:38.727Z</time></trkpt><trkpt lat="45.8807061" lon="13.6628978"><ele>61.0</ele><time>2026-04-25T14:18:39.728Z</time></trkpt><trkpt lat="45.8805966" lon="13.6629261"><ele>63.0</ele><time>2026-04-25T14:18:40.727Z</time></trkpt><trkpt lat="45.8805082" lon="13.6629436"><ele>63.0</ele><time>2026-04-25T14:18:41.727Z</time></trkpt><trkpt lat="45.8804069" lon="13.6629111"><ele>63.0</ele><time>2026-04-25T14:18:43.727Z</time></trkpt><trkpt lat="45.8803559" lon="13.6628263"><ele>63.0</ele><time>2026-04-25T14:18:45.727Z</time></trkpt></trkseg></trk></gpx>